<?xml version="1.0" encoding="UTF-8" ?>
<gpx version="1.1" 
creator="Memory-Map 6.4.3.1278 https://memory-map.com"
 xmlns:xsi="http://www.w3.org/2001/XMLSchema-instance"
 xmlns="http://www.topografix.com/GPX/1/1"
 xmlns:xstyle="http://www.topografix.com/GPX/gpx_style/0/2"
 xmlns:xgarmin="http://www.garmin.com/xmlschemas/GpxExtensions/v3"
 xsi:schemaLocation="http://www.topografix.com/GPX/1/1 http://www.topografix.com/GPX/1/1/gpx.xsd http://www.topografix.com/GPX/gpx_style/0/2 http://www.topografix.com/GPX/gpx_style/0/2/gpx_style.xsd http://www.garmin.com/xmlschemas/GpxExtensions/v3 https://www8.garmin.com/xmlschemas/GpxExtensionsv3.xsd">
<trk>
<name>1451 Casque du Lhéris</name>
<src>mmid:5BFAC5535C048566</src>
<type>Track</type>
<extensions> <xstyle:line>
<xstyle:color>ffff00</xstyle:color>
<xstyle:opacity>1.0</xstyle:opacity>
<xstyle:width>2.0</xstyle:width>
<xstyle:pattern>Solid</xstyle:pattern>
</xstyle:line></extensions>
<trkseg>
<trkpt lat="43.0435700000" lon="0.2421170000"><ele>649</ele><time>2026-03-20T07:01:49Z</time></trkpt>
<trkpt lat="43.0435820000" lon="0.2421180000"><ele>649</ele><time>2026-03-20T07:01:53Z</time></trkpt>
<trkpt lat="43.0436050000" lon="0.2421220000"><ele>649</ele><time>2026-03-20T07:01:55Z</time></trkpt>
<trkpt lat="43.0436220000" lon="0.2421220000"><ele>649</ele><time>2026-03-20T07:01:57Z</time></trkpt>
<trkpt lat="43.0436470000" lon="0.2421220000"><ele>648</ele><time>2026-03-20T07:02:00Z</time></trkpt>
<trkpt lat="43.0436670000" lon="0.2421370000"><ele>648</ele><time>2026-03-20T07:02:03Z</time></trkpt>
<trkpt lat="43.0436720000" lon="0.2421720000"><ele>647</ele><time>2026-03-20T07:02:05Z</time></trkpt>
<trkpt lat="43.0436880000" lon="0.2421770000"><ele>648</ele><time>2026-03-20T07:02:12Z</time></trkpt>
<trkpt lat="43.0436600000" lon="0.2421800000"><ele>648</ele><time>2026-03-20T07:02:19Z</time></trkpt>
<trkpt lat="43.0436320000" lon="0.2421870000"><ele>649</ele><time>2026-03-20T07:02:22Z</time></trkpt>
<trkpt lat="43.0436120000" lon="0.2421870000"><ele>649</ele><time>2026-03-20T07:02:24Z</time></trkpt>
<trkpt lat="43.0435920000" lon="0.2421920000"><ele>649</ele><time>2026-03-20T07:02:26Z</time></trkpt>
<trkpt lat="43.0435700000" lon="0.2421950000"><ele>650</ele><time>2026-03-20T07:02:29Z</time></trkpt>
<trkpt lat="43.0435500000" lon="0.2421970000"><ele>650</ele><time>2026-03-20T07:02:32Z</time></trkpt>
<trkpt lat="43.0435270000" lon="0.2422000000"><ele>650</ele><time>2026-03-20T07:02:35Z</time></trkpt>
<trkpt lat="43.0435120000" lon="0.2422200000"><ele>651</ele><time>2026-03-20T07:02:38Z</time></trkpt>
<trkpt lat="43.0434900000" lon="0.2422100000"><ele>651</ele><time>2026-03-20T07:02:41Z</time></trkpt>
<trkpt lat="43.0434700000" lon="0.2422200000"><ele>651</ele><time>2026-03-20T07:02:44Z</time></trkpt>
<trkpt lat="43.0434550000" lon="0.2422370000"><ele>652</ele><time>2026-03-20T07:02:50Z</time></trkpt>
<trkpt lat="43.0434470000" lon="0.2422620000"><ele>652</ele><time>2026-03-20T07:02:54Z</time></trkpt>
<trkpt lat="43.0434520000" lon="0.2422900000"><ele>653</ele><time>2026-03-20T07:02:59Z</time></trkpt>
<trkpt lat="43.0434400000" lon="0.2423150000"><ele>654</ele><time>2026-03-20T07:03:04Z</time></trkpt>
<trkpt lat="43.0434470000" lon="0.2423370000"><ele>655</ele><time>2026-03-20T07:03:08Z</time></trkpt>
<trkpt lat="43.0434630000" lon="0.2423470000"><ele>655</ele><time>2026-03-20T07:03:13Z</time></trkpt>
<trkpt lat="43.0434820000" lon="0.2423620000"><ele>656</ele><time>2026-03-20T07:03:17Z</time></trkpt>
<trkpt lat="43.0434970000" lon="0.2423720000"><ele>656</ele><time>2026-03-20T07:03:20Z</time></trkpt>
<trkpt lat="43.0435100000" lon="0.2423920000"><ele>657</ele><time>2026-03-20T07:03:23Z</time></trkpt>
<trkpt lat="43.0434950000" lon="0.2424120000"><ele>657</ele><time>2026-03-20T07:03:27Z</time></trkpt>
<trkpt lat="43.0435000000" lon="0.2424420000"><ele>657</ele><time>2026-03-20T07:03:32Z</time></trkpt>
<trkpt lat="43.0434900000" lon="0.2424650000"><ele>658</ele><time>2026-03-20T07:03:36Z</time></trkpt>
<trkpt lat="43.0434450000" lon="0.2424700000"><ele>659</ele><time>2026-03-20T07:03:58Z</time></trkpt>
<trkpt lat="43.0434200000" lon="0.2424870000"><ele>660</ele><time>2026-03-20T07:04:07Z</time></trkpt>
<trkpt lat="43.0434050000" lon="0.2425100000"><ele>661</ele><time>2026-03-20T07:04:10Z</time></trkpt>
<trkpt lat="43.0433900000" lon="0.2425270000"><ele>661</ele><time>2026-03-20T07:04:12Z</time></trkpt>
<trkpt lat="43.0433720000" lon="0.2425520000"><ele>662</ele><time>2026-03-20T07:04:15Z</time></trkpt>
<trkpt lat="43.0433600000" lon="0.2425700000"><ele>662</ele><time>2026-03-20T07:04:18Z</time></trkpt>
<trkpt lat="43.0433470000" lon="0.2425920000"><ele>662</ele><time>2026-03-20T07:04:21Z</time></trkpt>
<trkpt lat="43.0433350000" lon="0.2426170000"><ele>663</ele><time>2026-03-20T07:04:25Z</time></trkpt>
<trkpt lat="43.0433270000" lon="0.2426420000"><ele>663</ele><time>2026-03-20T07:04:30Z</time></trkpt>
<trkpt lat="43.0433150000" lon="0.2426630000"><ele>664</ele><time>2026-03-20T07:04:35Z</time></trkpt>
<trkpt lat="43.0433070000" lon="0.2426920000"><ele>664</ele><time>2026-03-20T07:04:39Z</time></trkpt>
<trkpt lat="43.0432920000" lon="0.2427120000"><ele>665</ele><time>2026-03-20T07:04:43Z</time></trkpt>
<trkpt lat="43.0432800000" lon="0.2427420000"><ele>665</ele><time>2026-03-20T07:04:47Z</time></trkpt>
<trkpt lat="43.0432670000" lon="0.2427670000"><ele>666</ele><time>2026-03-20T07:04:51Z</time></trkpt>
<trkpt lat="43.0432550000" lon="0.2427870000"><ele>666</ele><time>2026-03-20T07:04:55Z</time></trkpt>
<trkpt lat="43.0432420000" lon="0.2428120000"><ele>667</ele><time>2026-03-20T07:04:59Z</time></trkpt>
<trkpt lat="43.0432270000" lon="0.2428320000"><ele>667</ele><time>2026-03-20T07:05:03Z</time></trkpt>
<trkpt lat="43.0432170000" lon="0.2428530000"><ele>668</ele><time>2026-03-20T07:05:07Z</time></trkpt>
<trkpt lat="43.0432050000" lon="0.2428820000"><ele>668</ele><time>2026-03-20T07:05:11Z</time></trkpt>
<trkpt lat="43.0431920000" lon="0.2429120000"><ele>668</ele><time>2026-03-20T07:05:15Z</time></trkpt>
<trkpt lat="43.0431820000" lon="0.2429320000"><ele>669</ele><time>2026-03-20T07:05:18Z</time></trkpt>
<trkpt lat="43.0431700000" lon="0.2429570000"><ele>669</ele><time>2026-03-20T07:05:21Z</time></trkpt>
<trkpt lat="43.0431550000" lon="0.2429750000"><ele>669</ele><time>2026-03-20T07:05:25Z</time></trkpt>
<trkpt lat="43.0431370000" lon="0.2429850000"><ele>669</ele><time>2026-03-20T07:05:28Z</time></trkpt>
<trkpt lat="43.0431270000" lon="0.2430070000"><ele>670</ele><time>2026-03-20T07:05:33Z</time></trkpt>
<trkpt lat="43.0431250000" lon="0.2430370000"><ele>670</ele><time>2026-03-20T07:05:37Z</time></trkpt>
<trkpt lat="43.0431120000" lon="0.2430620000"><ele>671</ele><time>2026-03-20T07:05:42Z</time></trkpt>
<trkpt lat="43.0431020000" lon="0.2430870000"><ele>672</ele><time>2026-03-20T07:05:46Z</time></trkpt>
<trkpt lat="43.0430920000" lon="0.2431100000"><ele>672</ele><time>2026-03-20T07:05:50Z</time></trkpt>
<trkpt lat="43.0430870000" lon="0.2431400000"><ele>673</ele><time>2026-03-20T07:05:55Z</time></trkpt>
<trkpt lat="43.0430820000" lon="0.2431670000"><ele>674</ele><time>2026-03-20T07:06:01Z</time></trkpt>
<trkpt lat="43.0430820000" lon="0.2431920000"><ele>674</ele><time>2026-03-20T07:06:05Z</time></trkpt>
<trkpt lat="43.0430970000" lon="0.2432100000"><ele>675</ele><time>2026-03-20T07:06:10Z</time></trkpt>
<trkpt lat="43.0431170000" lon="0.2432130000"><ele>675</ele><time>2026-03-20T07:06:13Z</time></trkpt>
<trkpt lat="43.0431320000" lon="0.2432320000"><ele>676</ele><time>2026-03-20T07:06:17Z</time></trkpt>
<trkpt lat="43.0431320000" lon="0.2432600000"><ele>676</ele><time>2026-03-20T07:06:21Z</time></trkpt>
<trkpt lat="43.0431220000" lon="0.2432820000"><ele>677</ele><time>2026-03-20T07:06:24Z</time></trkpt>
<trkpt lat="43.0431120000" lon="0.2433070000"><ele>677</ele><time>2026-03-20T07:06:28Z</time></trkpt>
<trkpt lat="43.0431070000" lon="0.2433350000"><ele>678</ele><time>2026-03-20T07:06:31Z</time></trkpt>
<trkpt lat="43.0430950000" lon="0.2433530000"><ele>678</ele><time>2026-03-20T07:06:34Z</time></trkpt>
<trkpt lat="43.0430900000" lon="0.2433800000"><ele>679</ele><time>2026-03-20T07:06:38Z</time></trkpt>
<trkpt lat="43.0430870000" lon="0.2434070000"><ele>679</ele><time>2026-03-20T07:06:42Z</time></trkpt>
<trkpt lat="43.0430800000" lon="0.2434350000"><ele>680</ele><time>2026-03-20T07:06:46Z</time></trkpt>
<trkpt lat="43.0430750000" lon="0.2434600000"><ele>680</ele><time>2026-03-20T07:06:50Z</time></trkpt>
<trkpt lat="43.0430670000" lon="0.2434870000"><ele>681</ele><time>2026-03-20T07:06:55Z</time></trkpt>
<trkpt lat="43.0430620000" lon="0.2435120000"><ele>682</ele><time>2026-03-20T07:07:01Z</time></trkpt>
<trkpt lat="43.0430700000" lon="0.2435370000"><ele>683</ele><time>2026-03-20T07:07:08Z</time></trkpt>
<trkpt lat="43.0430870000" lon="0.2435520000"><ele>684</ele><time>2026-03-20T07:07:13Z</time></trkpt>
<trkpt lat="43.0431070000" lon="0.2435650000"><ele>684</ele><time>2026-03-20T07:07:17Z</time></trkpt>
<trkpt lat="43.0431250000" lon="0.2435770000"><ele>685</ele><time>2026-03-20T07:07:20Z</time></trkpt>
<trkpt lat="43.0431400000" lon="0.2436000000"><ele>685</ele><time>2026-03-20T07:07:24Z</time></trkpt>
<trkpt lat="43.0431600000" lon="0.2436150000"><ele>686</ele><time>2026-03-20T07:07:28Z</time></trkpt>
<trkpt lat="43.0431770000" lon="0.2436270000"><ele>686</ele><time>2026-03-20T07:07:31Z</time></trkpt>
<trkpt lat="43.0431920000" lon="0.2436420000"><ele>686</ele><time>2026-03-20T07:07:34Z</time></trkpt>
<trkpt lat="43.0432100000" lon="0.2436620000"><ele>687</ele><time>2026-03-20T07:07:37Z</time></trkpt>
<trkpt lat="43.0432200000" lon="0.2436920000"><ele>687</ele><time>2026-03-20T07:07:40Z</time></trkpt>
<trkpt lat="43.0432270000" lon="0.2437220000"><ele>687</ele><time>2026-03-20T07:07:43Z</time></trkpt>
<trkpt lat="43.0432270000" lon="0.2437500000"><ele>687</ele><time>2026-03-20T07:07:46Z</time></trkpt>
<trkpt lat="43.0432350000" lon="0.2437720000"><ele>688</ele><time>2026-03-20T07:07:49Z</time></trkpt>
<trkpt lat="43.0432450000" lon="0.2437950000"><ele>688</ele><time>2026-03-20T07:07:52Z</time></trkpt>
<trkpt lat="43.0432570000" lon="0.2438150000"><ele>688</ele><time>2026-03-20T07:07:54Z</time></trkpt>
<trkpt lat="43.0432720000" lon="0.2438370000"><ele>688</ele><time>2026-03-20T07:07:56Z</time></trkpt>
<trkpt lat="43.0432820000" lon="0.2438620000"><ele>689</ele><time>2026-03-20T07:07:59Z</time></trkpt>
<trkpt lat="43.0432800000" lon="0.2438900000"><ele>689</ele><time>2026-03-20T07:08:02Z</time></trkpt>
<trkpt lat="43.0432720000" lon="0.2439120000"><ele>689</ele><time>2026-03-20T07:08:04Z</time></trkpt>
<trkpt lat="43.0432570000" lon="0.2439320000"><ele>690</ele><time>2026-03-20T07:08:07Z</time></trkpt>
<trkpt lat="43.0432380000" lon="0.2439220000"><ele>690</ele><time>2026-03-20T07:08:30Z</time></trkpt>
<trkpt lat="43.0432200000" lon="0.2439320000"><ele>690</ele><time>2026-03-20T07:08:33Z</time></trkpt>
<trkpt lat="43.0431970000" lon="0.2439470000"><ele>690</ele><time>2026-03-20T07:08:35Z</time></trkpt>
<trkpt lat="43.0431770000" lon="0.2439620000"><ele>690</ele><time>2026-03-20T07:08:37Z</time></trkpt>
<trkpt lat="43.0431570000" lon="0.2439770000"><ele>690</ele><time>2026-03-20T07:08:40Z</time></trkpt>
<trkpt lat="43.0431420000" lon="0.2440050000"><ele>691</ele><time>2026-03-20T07:08:43Z</time></trkpt>
<trkpt lat="43.0431300000" lon="0.2440320000"><ele>691</ele><time>2026-03-20T07:08:46Z</time></trkpt>
<trkpt lat="43.0431200000" lon="0.2440530000"><ele>692</ele><time>2026-03-20T07:08:49Z</time></trkpt>
<trkpt lat="43.0430970000" lon="0.2440700000"><ele>693</ele><time>2026-03-20T07:09:07Z</time></trkpt>
<trkpt lat="43.0430770000" lon="0.2440850000"><ele>693</ele><time>2026-03-20T07:09:08Z</time></trkpt>
<trkpt lat="43.0430550000" lon="0.2441030000"><ele>693</ele><time>2026-03-20T07:09:09Z</time></trkpt>
<trkpt lat="43.0430350000" lon="0.2441250000"><ele>693</ele><time>2026-03-20T07:09:10Z</time></trkpt>
<trkpt lat="43.0430170000" lon="0.2441450000"><ele>693</ele><time>2026-03-20T07:09:11Z</time></trkpt>
<trkpt lat="43.0430020000" lon="0.2441600000"><ele>694</ele><time>2026-03-20T07:09:12Z</time></trkpt>
<trkpt lat="43.0429820000" lon="0.2441770000"><ele>694</ele><time>2026-03-20T07:09:14Z</time></trkpt>
<trkpt lat="43.0429650000" lon="0.2441970000"><ele>694</ele><time>2026-03-20T07:09:31Z</time></trkpt>
<trkpt lat="43.0429450000" lon="0.2442250000"><ele>695</ele><time>2026-03-20T07:09:33Z</time></trkpt>
<trkpt lat="43.0429250000" lon="0.2442550000"><ele>695</ele><time>2026-03-20T07:09:35Z</time></trkpt>
<trkpt lat="43.0429070000" lon="0.2442800000"><ele>695</ele><time>2026-03-20T07:09:37Z</time></trkpt>
<trkpt lat="43.0428900000" lon="0.2443000000"><ele>696</ele><time>2026-03-20T07:09:39Z</time></trkpt>
<trkpt lat="43.0428770000" lon="0.2443170000"><ele>696</ele><time>2026-03-20T07:09:41Z</time></trkpt>
<trkpt lat="43.0428620000" lon="0.2443320000"><ele>696</ele><time>2026-03-20T07:09:43Z</time></trkpt>
<trkpt lat="43.0428350000" lon="0.2443420000"><ele>697</ele><time>2026-03-20T07:09:46Z</time></trkpt>
<trkpt lat="43.0428120000" lon="0.2443600000"><ele>697</ele><time>2026-03-20T07:09:49Z</time></trkpt>
<trkpt lat="43.0427920000" lon="0.2443830000"><ele>698</ele><time>2026-03-20T07:09:52Z</time></trkpt>
<trkpt lat="43.0427750000" lon="0.2444000000"><ele>698</ele><time>2026-03-20T07:09:54Z</time></trkpt>
<trkpt lat="43.0427520000" lon="0.2444170000"><ele>698</ele><time>2026-03-20T07:09:57Z</time></trkpt>
<trkpt lat="43.0427320000" lon="0.2444320000"><ele>699</ele><time>2026-03-20T07:10:00Z</time></trkpt>
<trkpt lat="43.0427120000" lon="0.2444400000"><ele>699</ele><time>2026-03-20T07:10:04Z</time></trkpt>
<trkpt lat="43.0426920000" lon="0.2444420000"><ele>701</ele><time>2026-03-20T07:10:46Z</time></trkpt>
<trkpt lat="43.0426650000" lon="0.2444300000"><ele>701</ele><time>2026-03-20T07:10:48Z</time></trkpt>
<trkpt lat="43.0426420000" lon="0.2444120000"><ele>701</ele><time>2026-03-20T07:10:50Z</time></trkpt>
<trkpt lat="43.0426320000" lon="0.2444470000"><ele>701</ele><time>2026-03-20T07:11:16Z</time></trkpt>
<trkpt lat="43.0426220000" lon="0.2444720000"><ele>701</ele><time>2026-03-20T07:11:18Z</time></trkpt>
<trkpt lat="43.0426020000" lon="0.2444720000"><ele>701</ele><time>2026-03-20T07:11:22Z</time></trkpt>
<trkpt lat="43.0425820000" lon="0.2444920000"><ele>702</ele><time>2026-03-20T07:11:34Z</time></trkpt>
<trkpt lat="43.0425670000" lon="0.2445180000"><ele>702</ele><time>2026-03-20T07:11:36Z</time></trkpt>
<trkpt lat="43.0425520000" lon="0.2445420000"><ele>702</ele><time>2026-03-20T07:11:38Z</time></trkpt>
<trkpt lat="43.0425320000" lon="0.2445500000"><ele>703</ele><time>2026-03-20T07:11:40Z</time></trkpt>
<trkpt lat="43.0425170000" lon="0.2445650000"><ele>703</ele><time>2026-03-20T07:11:42Z</time></trkpt>
<trkpt lat="43.0424970000" lon="0.2445820000"><ele>703</ele><time>2026-03-20T07:11:44Z</time></trkpt>
<trkpt lat="43.0424820000" lon="0.2445970000"><ele>704</ele><time>2026-03-20T07:11:46Z</time></trkpt>
<trkpt lat="43.0424620000" lon="0.2446170000"><ele>704</ele><time>2026-03-20T07:11:49Z</time></trkpt>
<trkpt lat="43.0424470000" lon="0.2446320000"><ele>704</ele><time>2026-03-20T07:11:51Z</time></trkpt>
<trkpt lat="43.0424220000" lon="0.2446450000"><ele>705</ele><time>2026-03-20T07:11:54Z</time></trkpt>
<trkpt lat="43.0424020000" lon="0.2446550000"><ele>705</ele><time>2026-03-20T07:11:57Z</time></trkpt>
<trkpt lat="43.0423820000" lon="0.2446670000"><ele>706</ele><time>2026-03-20T07:12:00Z</time></trkpt>
<trkpt lat="43.0423600000" lon="0.2446750000"><ele>706</ele><time>2026-03-20T07:12:03Z</time></trkpt>
<trkpt lat="43.0423400000" lon="0.2446670000"><ele>707</ele><time>2026-03-20T07:12:07Z</time></trkpt>
<trkpt lat="43.0423200000" lon="0.2446770000"><ele>708</ele><time>2026-03-20T07:12:11Z</time></trkpt>
<trkpt lat="43.0423020000" lon="0.2446850000"><ele>708</ele><time>2026-03-20T07:12:14Z</time></trkpt>
<trkpt lat="43.0422820000" lon="0.2446870000"><ele>709</ele><time>2026-03-20T07:12:17Z</time></trkpt>
<trkpt lat="43.0422620000" lon="0.2446920000"><ele>709</ele><time>2026-03-20T07:12:20Z</time></trkpt>
<trkpt lat="43.0422400000" lon="0.2447000000"><ele>710</ele><time>2026-03-20T07:12:23Z</time></trkpt>
<trkpt lat="43.0422200000" lon="0.2447120000"><ele>710</ele><time>2026-03-20T07:12:27Z</time></trkpt>
<trkpt lat="43.0422020000" lon="0.2447220000"><ele>711</ele><time>2026-03-20T07:12:30Z</time></trkpt>
<trkpt lat="43.0421870000" lon="0.2447350000"><ele>711</ele><time>2026-03-20T07:12:34Z</time></trkpt>
<trkpt lat="43.0421720000" lon="0.2447600000"><ele>712</ele><time>2026-03-20T07:12:38Z</time></trkpt>
<trkpt lat="43.0421650000" lon="0.2447900000"><ele>712</ele><time>2026-03-20T07:12:41Z</time></trkpt>
<trkpt lat="43.0421550000" lon="0.2448170000"><ele>713</ele><time>2026-03-20T07:12:44Z</time></trkpt>
<trkpt lat="43.0421370000" lon="0.2448300000"><ele>713</ele><time>2026-03-20T07:12:47Z</time></trkpt>
<trkpt lat="43.0421200000" lon="0.2448400000"><ele>714</ele><time>2026-03-20T07:12:51Z</time></trkpt>
<trkpt lat="43.0421120000" lon="0.2448620000"><ele>714</ele><time>2026-03-20T07:12:54Z</time></trkpt>
<trkpt lat="43.0421020000" lon="0.2448870000"><ele>715</ele><time>2026-03-20T07:12:57Z</time></trkpt>
<trkpt lat="43.0420820000" lon="0.2449000000"><ele>717</ele><time>2026-03-20T07:14:08Z</time></trkpt>
<trkpt lat="43.0420620000" lon="0.2448920000"><ele>716</ele><time>2026-03-20T07:14:12Z</time></trkpt>
<trkpt lat="43.0420370000" lon="0.2449020000"><ele>717</ele><time>2026-03-20T07:16:57Z</time></trkpt>
<trkpt lat="43.0420070000" lon="0.2449220000"><ele>717</ele><time>2026-03-20T07:16:59Z</time></trkpt>
<trkpt lat="43.0419800000" lon="0.2449200000"><ele>717</ele><time>2026-03-20T07:17:20Z</time></trkpt>
<trkpt lat="43.0419520000" lon="0.2449070000"><ele>717</ele><time>2026-03-20T07:17:22Z</time></trkpt>
<trkpt lat="43.0419320000" lon="0.2448870000"><ele>716</ele><time>2026-03-20T07:17:24Z</time></trkpt>
<trkpt lat="43.0419120000" lon="0.2448670000"><ele>716</ele><time>2026-03-20T07:17:26Z</time></trkpt>
<trkpt lat="43.0418920000" lon="0.2448620000"><ele>715</ele><time>2026-03-20T07:17:32Z</time></trkpt>
<trkpt lat="43.0418670000" lon="0.2448650000"><ele>715</ele><time>2026-03-20T07:17:35Z</time></trkpt>
<trkpt lat="43.0418450000" lon="0.2448750000"><ele>714</ele><time>2026-03-20T07:17:37Z</time></trkpt>
<trkpt lat="43.0418270000" lon="0.2448620000"><ele>714</ele><time>2026-03-20T07:17:39Z</time></trkpt>
<trkpt lat="43.0418120000" lon="0.2448420000"><ele>714</ele><time>2026-03-20T07:17:41Z</time></trkpt>
<trkpt lat="43.0418000000" lon="0.2448170000"><ele>713</ele><time>2026-03-20T07:17:43Z</time></trkpt>
<trkpt lat="43.0417870000" lon="0.2447950000"><ele>713</ele><time>2026-03-20T07:17:46Z</time></trkpt>
<trkpt lat="43.0417620000" lon="0.2447770000"><ele>712</ele><time>2026-03-20T07:17:49Z</time></trkpt>
<trkpt lat="43.0417400000" lon="0.2447620000"><ele>711</ele><time>2026-03-20T07:17:52Z</time></trkpt>
<trkpt lat="43.0417150000" lon="0.2447520000"><ele>711</ele><time>2026-03-20T07:17:55Z</time></trkpt>
<trkpt lat="43.0416920000" lon="0.2447520000"><ele>710</ele><time>2026-03-20T07:17:57Z</time></trkpt>
<trkpt lat="43.0416700000" lon="0.2447420000"><ele>710</ele><time>2026-03-20T07:17:59Z</time></trkpt>
<trkpt lat="43.0416480000" lon="0.2447320000"><ele>709</ele><time>2026-03-20T07:18:01Z</time></trkpt>
<trkpt lat="43.0416270000" lon="0.2447270000"><ele>709</ele><time>2026-03-20T07:18:03Z</time></trkpt>
<trkpt lat="43.0416100000" lon="0.2447220000"><ele>708</ele><time>2026-03-20T07:18:05Z</time></trkpt>
<trkpt lat="43.0415900000" lon="0.2447170000"><ele>707</ele><time>2026-03-20T07:18:07Z</time></trkpt>
<trkpt lat="43.0415720000" lon="0.2447070000"><ele>707</ele><time>2026-03-20T07:18:09Z</time></trkpt>
<trkpt lat="43.0415520000" lon="0.2447020000"><ele>706</ele><time>2026-03-20T07:18:11Z</time></trkpt>
<trkpt lat="43.0415320000" lon="0.2446920000"><ele>706</ele><time>2026-03-20T07:18:13Z</time></trkpt>
<trkpt lat="43.0415100000" lon="0.2446720000"><ele>705</ele><time>2026-03-20T07:18:16Z</time></trkpt>
<trkpt lat="43.0414900000" lon="0.2446580000"><ele>704</ele><time>2026-03-20T07:18:19Z</time></trkpt>
<trkpt lat="43.0414720000" lon="0.2446450000"><ele>704</ele><time>2026-03-20T07:18:21Z</time></trkpt>
<trkpt lat="43.0414550000" lon="0.2446270000"><ele>703</ele><time>2026-03-20T07:18:23Z</time></trkpt>
<trkpt lat="43.0414370000" lon="0.2446080000"><ele>702</ele><time>2026-03-20T07:18:26Z</time></trkpt>
<trkpt lat="43.0414170000" lon="0.2445870000"><ele>702</ele><time>2026-03-20T07:18:29Z</time></trkpt>
<trkpt lat="43.0413970000" lon="0.2445720000"><ele>701</ele><time>2026-03-20T07:18:32Z</time></trkpt>
<trkpt lat="43.0413720000" lon="0.2445720000"><ele>701</ele><time>2026-03-20T07:18:35Z</time></trkpt>
<trkpt lat="43.0413450000" lon="0.2445700000"><ele>700</ele><time>2026-03-20T07:18:38Z</time></trkpt>
<trkpt lat="43.0413270000" lon="0.2445720000"><ele>699</ele><time>2026-03-20T07:18:40Z</time></trkpt>
<trkpt lat="43.0413070000" lon="0.2445650000"><ele>699</ele><time>2026-03-20T07:18:42Z</time></trkpt>
<trkpt lat="43.0412850000" lon="0.2445600000"><ele>698</ele><time>2026-03-20T07:18:45Z</time></trkpt>
<trkpt lat="43.0412570000" lon="0.2445550000"><ele>697</ele><time>2026-03-20T07:18:48Z</time></trkpt>
<trkpt lat="43.0412370000" lon="0.2445550000"><ele>697</ele><time>2026-03-20T07:18:50Z</time></trkpt>
<trkpt lat="43.0412170000" lon="0.2445500000"><ele>697</ele><time>2026-03-20T07:18:52Z</time></trkpt>
<trkpt lat="43.0411970000" lon="0.2445470000"><ele>696</ele><time>2026-03-20T07:18:54Z</time></trkpt>
<trkpt lat="43.0411820000" lon="0.2445220000"><ele>696</ele><time>2026-03-20T07:18:56Z</time></trkpt>
<trkpt lat="43.0411620000" lon="0.2445000000"><ele>695</ele><time>2026-03-20T07:18:59Z</time></trkpt>
<trkpt lat="43.0411470000" lon="0.2444770000"><ele>694</ele><time>2026-03-20T07:19:02Z</time></trkpt>
<trkpt lat="43.0411270000" lon="0.2444570000"><ele>693</ele><time>2026-03-20T07:19:05Z</time></trkpt>
<trkpt lat="43.0411020000" lon="0.2444420000"><ele>692</ele><time>2026-03-20T07:19:08Z</time></trkpt>
<trkpt lat="43.0410750000" lon="0.2444400000"><ele>691</ele><time>2026-03-20T07:19:10Z</time></trkpt>
<trkpt lat="43.0410470000" lon="0.2444350000"><ele>691</ele><time>2026-03-20T07:19:12Z</time></trkpt>
<trkpt lat="43.0410220000" lon="0.2444170000"><ele>690</ele><time>2026-03-20T07:19:14Z</time></trkpt>
<trkpt lat="43.0410070000" lon="0.2444050000"><ele>690</ele><time>2026-03-20T07:19:16Z</time></trkpt>
<trkpt lat="43.0409900000" lon="0.2443820000"><ele>689</ele><time>2026-03-20T07:19:18Z</time></trkpt>
<trkpt lat="43.0409800000" lon="0.2443620000"><ele>689</ele><time>2026-03-20T07:19:20Z</time></trkpt>
<trkpt lat="43.0409670000" lon="0.2443380000"><ele>688</ele><time>2026-03-20T07:19:23Z</time></trkpt>
<trkpt lat="43.0409470000" lon="0.2443170000"><ele>687</ele><time>2026-03-20T07:19:26Z</time></trkpt>
<trkpt lat="43.0409300000" lon="0.2443070000"><ele>686</ele><time>2026-03-20T07:19:28Z</time></trkpt>
<trkpt lat="43.0409070000" lon="0.2442900000"><ele>686</ele><time>2026-03-20T07:19:31Z</time></trkpt>
<trkpt lat="43.0408920000" lon="0.2442720000"><ele>685</ele><time>2026-03-20T07:19:33Z</time></trkpt>
<trkpt lat="43.0408720000" lon="0.2442520000"><ele>684</ele><time>2026-03-20T07:19:36Z</time></trkpt>
<trkpt lat="43.0408470000" lon="0.2442500000"><ele>683</ele><time>2026-03-20T07:19:39Z</time></trkpt>
<trkpt lat="43.0408300000" lon="0.2442430000"><ele>683</ele><time>2026-03-20T07:19:41Z</time></trkpt>
<trkpt lat="43.0408120000" lon="0.2442400000"><ele>683</ele><time>2026-03-20T07:19:43Z</time></trkpt>
<trkpt lat="43.0407870000" lon="0.2442320000"><ele>682</ele><time>2026-03-20T07:19:46Z</time></trkpt>
<trkpt lat="43.0407650000" lon="0.2442150000"><ele>681</ele><time>2026-03-20T07:19:49Z</time></trkpt>
<trkpt lat="43.0407470000" lon="0.2442020000"><ele>681</ele><time>2026-03-20T07:19:51Z</time></trkpt>
<trkpt lat="43.0407320000" lon="0.2441870000"><ele>680</ele><time>2026-03-20T07:19:53Z</time></trkpt>
<trkpt lat="43.0407220000" lon="0.2441620000"><ele>680</ele><time>2026-03-20T07:19:55Z</time></trkpt>
<trkpt lat="43.0407050000" lon="0.2441520000"><ele>680</ele><time>2026-03-20T07:19:57Z</time></trkpt>
<trkpt lat="43.0406870000" lon="0.2441370000"><ele>679</ele><time>2026-03-20T07:19:59Z</time></trkpt>
<trkpt lat="43.0406620000" lon="0.2441170000"><ele>679</ele><time>2026-03-20T07:20:02Z</time></trkpt>
<trkpt lat="43.0406420000" lon="0.2441170000"><ele>678</ele><time>2026-03-20T07:20:04Z</time></trkpt>
<trkpt lat="43.0406220000" lon="0.2441070000"><ele>678</ele><time>2026-03-20T07:20:06Z</time></trkpt>
<trkpt lat="43.0406070000" lon="0.2440870000"><ele>678</ele><time>2026-03-20T07:20:08Z</time></trkpt>
<trkpt lat="43.0405950000" lon="0.2440650000"><ele>678</ele><time>2026-03-20T07:20:10Z</time></trkpt>
<trkpt lat="43.0405820000" lon="0.2440420000"><ele>677</ele><time>2026-03-20T07:20:12Z</time></trkpt>
<trkpt lat="43.0405700000" lon="0.2440200000"><ele>677</ele><time>2026-03-20T07:20:14Z</time></trkpt>
<trkpt lat="43.0405470000" lon="0.2440020000"><ele>677</ele><time>2026-03-20T07:20:17Z</time></trkpt>
<trkpt lat="43.0405220000" lon="0.2439970000"><ele>676</ele><time>2026-03-20T07:20:19Z</time></trkpt>
<trkpt lat="43.0404970000" lon="0.2439900000"><ele>676</ele><time>2026-03-20T07:20:21Z</time></trkpt>
<trkpt lat="43.0404800000" lon="0.2439630000"><ele>676</ele><time>2026-03-20T07:20:23Z</time></trkpt>
<trkpt lat="43.0404700000" lon="0.2439320000"><ele>675</ele><time>2026-03-20T07:20:25Z</time></trkpt>
<trkpt lat="43.0404900000" lon="0.2439000000"><ele>675</ele><time>2026-03-20T07:20:27Z</time></trkpt>
<trkpt lat="43.0405070000" lon="0.2438750000"><ele>675</ele><time>2026-03-20T07:20:29Z</time></trkpt>
<trkpt lat="43.0405200000" lon="0.2438470000"><ele>674</ele><time>2026-03-20T07:20:31Z</time></trkpt>
<trkpt lat="43.0405300000" lon="0.2438270000"><ele>674</ele><time>2026-03-20T07:20:33Z</time></trkpt>
<trkpt lat="43.0405370000" lon="0.2438020000"><ele>674</ele><time>2026-03-20T07:20:35Z</time></trkpt>
<trkpt lat="43.0405520000" lon="0.2437780000"><ele>673</ele><time>2026-03-20T07:20:37Z</time></trkpt>
<trkpt lat="43.0405670000" lon="0.2437620000"><ele>673</ele><time>2026-03-20T07:20:39Z</time></trkpt>
<trkpt lat="43.0405850000" lon="0.2437420000"><ele>673</ele><time>2026-03-20T07:20:41Z</time></trkpt>
<trkpt lat="43.0406020000" lon="0.2437320000"><ele>672</ele><time>2026-03-20T07:20:43Z</time></trkpt>
<trkpt lat="43.0406220000" lon="0.2437150000"><ele>672</ele><time>2026-03-20T07:20:46Z</time></trkpt>
<trkpt lat="43.0406470000" lon="0.2436950000"><ele>672</ele><time>2026-03-20T07:20:49Z</time></trkpt>
<trkpt lat="43.0406620000" lon="0.2436820000"><ele>671</ele><time>2026-03-20T07:20:51Z</time></trkpt>
<trkpt lat="43.0406750000" lon="0.2436520000"><ele>671</ele><time>2026-03-20T07:20:54Z</time></trkpt>
<trkpt lat="43.0406520000" lon="0.2436600000"><ele>670</ele><time>2026-03-20T07:21:00Z</time></trkpt>
<trkpt lat="43.0406320000" lon="0.2436700000"><ele>670</ele><time>2026-03-20T07:21:02Z</time></trkpt>
<trkpt lat="43.0406100000" lon="0.2436750000"><ele>670</ele><time>2026-03-20T07:21:04Z</time></trkpt>
<trkpt lat="43.0405870000" lon="0.2436770000"><ele>670</ele><time>2026-03-20T07:21:06Z</time></trkpt>
<trkpt lat="43.0405570000" lon="0.2436870000"><ele>670</ele><time>2026-03-20T07:21:08Z</time></trkpt>
<trkpt lat="43.0405320000" lon="0.2436870000"><ele>670</ele><time>2026-03-20T07:21:10Z</time></trkpt>
<trkpt lat="43.0405120000" lon="0.2436880000"><ele>670</ele><time>2026-03-20T07:21:12Z</time></trkpt>
<trkpt lat="43.0404870000" lon="0.2436870000"><ele>670</ele><time>2026-03-20T07:21:14Z</time></trkpt>
<trkpt lat="43.0404620000" lon="0.2436770000"><ele>670</ele><time>2026-03-20T07:21:16Z</time></trkpt>
<trkpt lat="43.0404370000" lon="0.2436720000"><ele>670</ele><time>2026-03-20T07:21:18Z</time></trkpt>
<trkpt lat="43.0404170000" lon="0.2436720000"><ele>670</ele><time>2026-03-20T07:21:20Z</time></trkpt>
<trkpt lat="43.0403970000" lon="0.2436650000"><ele>670</ele><time>2026-03-20T07:21:22Z</time></trkpt>
<trkpt lat="43.0403770000" lon="0.2436570000"><ele>670</ele><time>2026-03-20T07:21:24Z</time></trkpt>
<trkpt lat="43.0403520000" lon="0.2436430000"><ele>670</ele><time>2026-03-20T07:21:26Z</time></trkpt>
<trkpt lat="43.0403250000" lon="0.2436330000"><ele>670</ele><time>2026-03-20T07:21:28Z</time></trkpt>
<trkpt lat="43.0403020000" lon="0.2436250000"><ele>670</ele><time>2026-03-20T07:21:30Z</time></trkpt>
<trkpt lat="43.0402770000" lon="0.2436120000"><ele>671</ele><time>2026-03-20T07:21:32Z</time></trkpt>
<trkpt lat="43.0402600000" lon="0.2436100000"><ele>671</ele><time>2026-03-20T07:21:33Z</time></trkpt>
<trkpt lat="43.0402370000" lon="0.2436000000"><ele>671</ele><time>2026-03-20T07:21:35Z</time></trkpt>
<trkpt lat="43.0402020000" lon="0.2435620000"><ele>671</ele><time>2026-03-20T07:21:37Z</time></trkpt>
<trkpt lat="43.0401770000" lon="0.2435480000"><ele>671</ele><time>2026-03-20T07:21:39Z</time></trkpt>
<trkpt lat="43.0401550000" lon="0.2435420000"><ele>671</ele><time>2026-03-20T07:21:41Z</time></trkpt>
<trkpt lat="43.0401320000" lon="0.2435480000"><ele>671</ele><time>2026-03-20T07:21:50Z</time></trkpt>
<trkpt lat="43.0401120000" lon="0.2435420000"><ele>671</ele><time>2026-03-20T07:21:52Z</time></trkpt>
<trkpt lat="43.0400950000" lon="0.2435250000"><ele>671</ele><time>2026-03-20T07:21:54Z</time></trkpt>
<trkpt lat="43.0400720000" lon="0.2435120000"><ele>672</ele><time>2026-03-20T07:21:56Z</time></trkpt>
<trkpt lat="43.0400520000" lon="0.2434930000"><ele>672</ele><time>2026-03-20T07:21:58Z</time></trkpt>
<trkpt lat="43.0400350000" lon="0.2434770000"><ele>672</ele><time>2026-03-20T07:22:00Z</time></trkpt>
<trkpt lat="43.0400200000" lon="0.2434620000"><ele>672</ele><time>2026-03-20T07:22:02Z</time></trkpt>
<trkpt lat="43.0399970000" lon="0.2434470000"><ele>673</ele><time>2026-03-20T07:22:04Z</time></trkpt>
<trkpt lat="43.0399820000" lon="0.2434270000"><ele>673</ele><time>2026-03-20T07:22:06Z</time></trkpt>
<trkpt lat="43.0399620000" lon="0.2434080000"><ele>673</ele><time>2026-03-20T07:22:08Z</time></trkpt>
<trkpt lat="43.0399400000" lon="0.2433920000"><ele>673</ele><time>2026-03-20T07:22:10Z</time></trkpt>
<trkpt lat="43.0399170000" lon="0.2433750000"><ele>673</ele><time>2026-03-20T07:22:12Z</time></trkpt>
<trkpt lat="43.0398970000" lon="0.2433530000"><ele>674</ele><time>2026-03-20T07:22:14Z</time></trkpt>
<trkpt lat="43.0398850000" lon="0.2433320000"><ele>674</ele><time>2026-03-20T07:22:16Z</time></trkpt>
<trkpt lat="43.0398670000" lon="0.2433170000"><ele>674</ele><time>2026-03-20T07:22:18Z</time></trkpt>
<trkpt lat="43.0398520000" lon="0.2432970000"><ele>674</ele><time>2026-03-20T07:22:20Z</time></trkpt>
<trkpt lat="43.0398370000" lon="0.2432770000"><ele>674</ele><time>2026-03-20T07:22:22Z</time></trkpt>
<trkpt lat="43.0398200000" lon="0.2432570000"><ele>674</ele><time>2026-03-20T07:22:24Z</time></trkpt>
<trkpt lat="43.0398050000" lon="0.2432370000"><ele>675</ele><time>2026-03-20T07:22:26Z</time></trkpt>
<trkpt lat="43.0397870000" lon="0.2432170000"><ele>675</ele><time>2026-03-20T07:22:28Z</time></trkpt>
<trkpt lat="43.0397720000" lon="0.2431970000"><ele>675</ele><time>2026-03-20T07:22:30Z</time></trkpt>
<trkpt lat="43.0397600000" lon="0.2431770000"><ele>675</ele><time>2026-03-20T07:22:32Z</time></trkpt>
<trkpt lat="43.0397450000" lon="0.2431570000"><ele>676</ele><time>2026-03-20T07:22:34Z</time></trkpt>
<trkpt lat="43.0397320000" lon="0.2431330000"><ele>676</ele><time>2026-03-20T07:22:36Z</time></trkpt>
<trkpt lat="43.0397220000" lon="0.2431020000"><ele>676</ele><time>2026-03-20T07:22:39Z</time></trkpt>
<trkpt lat="43.0397100000" lon="0.2430720000"><ele>677</ele><time>2026-03-20T07:22:42Z</time></trkpt>
<trkpt lat="43.0396920000" lon="0.2430470000"><ele>677</ele><time>2026-03-20T07:22:45Z</time></trkpt>
<trkpt lat="43.0396750000" lon="0.2430220000"><ele>677</ele><time>2026-03-20T07:22:48Z</time></trkpt>
<trkpt lat="43.0396570000" lon="0.2429970000"><ele>678</ele><time>2026-03-20T07:22:51Z</time></trkpt>
<trkpt lat="43.0396400000" lon="0.2429770000"><ele>678</ele><time>2026-03-20T07:22:54Z</time></trkpt>
<trkpt lat="43.0396250000" lon="0.2429570000"><ele>678</ele><time>2026-03-20T07:22:57Z</time></trkpt>
<trkpt lat="43.0396050000" lon="0.2429370000"><ele>679</ele><time>2026-03-20T07:23:00Z</time></trkpt>
<trkpt lat="43.0395850000" lon="0.2429270000"><ele>679</ele><time>2026-03-20T07:23:03Z</time></trkpt>
<trkpt lat="43.0395620000" lon="0.2429170000"><ele>679</ele><time>2026-03-20T07:23:06Z</time></trkpt>
<trkpt lat="43.0395420000" lon="0.2429170000"><ele>680</ele><time>2026-03-20T07:23:11Z</time></trkpt>
<trkpt lat="43.0395220000" lon="0.2429380000"><ele>679</ele><time>2026-03-20T07:23:13Z</time></trkpt>
<trkpt lat="43.0395100000" lon="0.2429650000"><ele>679</ele><time>2026-03-20T07:23:15Z</time></trkpt>
<trkpt lat="43.0394950000" lon="0.2429820000"><ele>679</ele><time>2026-03-20T07:23:17Z</time></trkpt>
<trkpt lat="43.0394750000" lon="0.2430020000"><ele>679</ele><time>2026-03-20T07:23:19Z</time></trkpt>
<trkpt lat="43.0394600000" lon="0.2430270000"><ele>679</ele><time>2026-03-20T07:23:21Z</time></trkpt>
<trkpt lat="43.0394470000" lon="0.2430470000"><ele>679</ele><time>2026-03-20T07:23:23Z</time></trkpt>
<trkpt lat="43.0394350000" lon="0.2430700000"><ele>679</ele><time>2026-03-20T07:23:25Z</time></trkpt>
<trkpt lat="43.0394220000" lon="0.2430950000"><ele>679</ele><time>2026-03-20T07:23:27Z</time></trkpt>
<trkpt lat="43.0394020000" lon="0.2431120000"><ele>679</ele><time>2026-03-20T07:23:29Z</time></trkpt>
<trkpt lat="43.0393820000" lon="0.2431320000"><ele>679</ele><time>2026-03-20T07:23:31Z</time></trkpt>
<trkpt lat="43.0393650000" lon="0.2431520000"><ele>679</ele><time>2026-03-20T07:23:33Z</time></trkpt>
<trkpt lat="43.0393420000" lon="0.2431670000"><ele>679</ele><time>2026-03-20T07:23:35Z</time></trkpt>
<trkpt lat="43.0393220000" lon="0.2431870000"><ele>679</ele><time>2026-03-20T07:23:37Z</time></trkpt>
<trkpt lat="43.0393050000" lon="0.2432050000"><ele>679</ele><time>2026-03-20T07:23:39Z</time></trkpt>
<trkpt lat="43.0392870000" lon="0.2432270000"><ele>679</ele><time>2026-03-20T07:23:41Z</time></trkpt>
<trkpt lat="43.0392670000" lon="0.2432470000"><ele>679</ele><time>2026-03-20T07:23:43Z</time></trkpt>
<trkpt lat="43.0392450000" lon="0.2432680000"><ele>679</ele><time>2026-03-20T07:23:45Z</time></trkpt>
<trkpt lat="43.0392270000" lon="0.2432920000"><ele>679</ele><time>2026-03-20T07:23:47Z</time></trkpt>
<trkpt lat="43.0392050000" lon="0.2433020000"><ele>679</ele><time>2026-03-20T07:23:49Z</time></trkpt>
<trkpt lat="43.0391870000" lon="0.2433150000"><ele>679</ele><time>2026-03-20T07:23:51Z</time></trkpt>
<trkpt lat="43.0391670000" lon="0.2433220000"><ele>679</ele><time>2026-03-20T07:23:53Z</time></trkpt>
<trkpt lat="43.0391420000" lon="0.2433320000"><ele>679</ele><time>2026-03-20T07:23:55Z</time></trkpt>
<trkpt lat="43.0391200000" lon="0.2433470000"><ele>679</ele><time>2026-03-20T07:23:57Z</time></trkpt>
<trkpt lat="43.0391020000" lon="0.2433570000"><ele>679</ele><time>2026-03-20T07:23:59Z</time></trkpt>
<trkpt lat="43.0390820000" lon="0.2433750000"><ele>679</ele><time>2026-03-20T07:24:01Z</time></trkpt>
<trkpt lat="43.0390570000" lon="0.2433920000"><ele>679</ele><time>2026-03-20T07:24:04Z</time></trkpt>
<trkpt lat="43.0390320000" lon="0.2434000000"><ele>678</ele><time>2026-03-20T07:24:06Z</time></trkpt>
<trkpt lat="43.0390070000" lon="0.2434130000"><ele>678</ele><time>2026-03-20T07:24:08Z</time></trkpt>
<trkpt lat="43.0389850000" lon="0.2434270000"><ele>679</ele><time>2026-03-20T07:24:10Z</time></trkpt>
<trkpt lat="43.0389620000" lon="0.2434420000"><ele>678</ele><time>2026-03-20T07:24:12Z</time></trkpt>
<trkpt lat="43.0389420000" lon="0.2434600000"><ele>678</ele><time>2026-03-20T07:24:14Z</time></trkpt>
<trkpt lat="43.0389170000" lon="0.2434770000"><ele>678</ele><time>2026-03-20T07:24:16Z</time></trkpt>
<trkpt lat="43.0388920000" lon="0.2434970000"><ele>678</ele><time>2026-03-20T07:24:18Z</time></trkpt>
<trkpt lat="43.0388720000" lon="0.2435200000"><ele>678</ele><time>2026-03-20T07:24:20Z</time></trkpt>
<trkpt lat="43.0388480000" lon="0.2435320000"><ele>679</ele><time>2026-03-20T07:24:22Z</time></trkpt>
<trkpt lat="43.0388270000" lon="0.2435420000"><ele>679</ele><time>2026-03-20T07:24:24Z</time></trkpt>
<trkpt lat="43.0388070000" lon="0.2435520000"><ele>679</ele><time>2026-03-20T07:24:25Z</time></trkpt>
<trkpt lat="43.0387850000" lon="0.2435650000"><ele>679</ele><time>2026-03-20T07:24:27Z</time></trkpt>
<trkpt lat="43.0387600000" lon="0.2435750000"><ele>679</ele><time>2026-03-20T07:24:30Z</time></trkpt>
<trkpt lat="43.0387400000" lon="0.2435850000"><ele>679</ele><time>2026-03-20T07:24:32Z</time></trkpt>
<trkpt lat="43.0387170000" lon="0.2436000000"><ele>679</ele><time>2026-03-20T07:24:34Z</time></trkpt>
<trkpt lat="43.0386930000" lon="0.2436070000"><ele>679</ele><time>2026-03-20T07:24:36Z</time></trkpt>
<trkpt lat="43.0386720000" lon="0.2436200000"><ele>679</ele><time>2026-03-20T07:24:38Z</time></trkpt>
<trkpt lat="43.0386470000" lon="0.2436320000"><ele>679</ele><time>2026-03-20T07:24:40Z</time></trkpt>
<trkpt lat="43.0386250000" lon="0.2436420000"><ele>679</ele><time>2026-03-20T07:24:42Z</time></trkpt>
<trkpt lat="43.0385970000" lon="0.2436520000"><ele>679</ele><time>2026-03-20T07:24:44Z</time></trkpt>
<trkpt lat="43.0385720000" lon="0.2436570000"><ele>679</ele><time>2026-03-20T07:24:46Z</time></trkpt>
<trkpt lat="43.0385470000" lon="0.2436620000"><ele>679</ele><time>2026-03-20T07:24:48Z</time></trkpt>
<trkpt lat="43.0385170000" lon="0.2436720000"><ele>679</ele><time>2026-03-20T07:24:50Z</time></trkpt>
<trkpt lat="43.0384920000" lon="0.2436870000"><ele>679</ele><time>2026-03-20T07:24:52Z</time></trkpt>
<trkpt lat="43.0384720000" lon="0.2437000000"><ele>679</ele><time>2026-03-20T07:24:54Z</time></trkpt>
<trkpt lat="43.0384470000" lon="0.2437050000"><ele>679</ele><time>2026-03-20T07:24:56Z</time></trkpt>
<trkpt lat="43.0384320000" lon="0.2437170000"><ele>679</ele><time>2026-03-20T07:24:58Z</time></trkpt>
<trkpt lat="43.0384120000" lon="0.2437300000"><ele>679</ele><time>2026-03-20T07:25:00Z</time></trkpt>
<trkpt lat="43.0383900000" lon="0.2437370000"><ele>679</ele><time>2026-03-20T07:25:02Z</time></trkpt>
<trkpt lat="43.0383650000" lon="0.2437420000"><ele>679</ele><time>2026-03-20T07:25:04Z</time></trkpt>
<trkpt lat="43.0383400000" lon="0.2437500000"><ele>679</ele><time>2026-03-20T07:25:06Z</time></trkpt>
<trkpt lat="43.0383170000" lon="0.2437570000"><ele>679</ele><time>2026-03-20T07:25:08Z</time></trkpt>
<trkpt lat="43.0382920000" lon="0.2437720000"><ele>679</ele><time>2026-03-20T07:25:10Z</time></trkpt>
<trkpt lat="43.0382670000" lon="0.2437830000"><ele>679</ele><time>2026-03-20T07:25:12Z</time></trkpt>
<trkpt lat="43.0382450000" lon="0.2437950000"><ele>680</ele><time>2026-03-20T07:25:14Z</time></trkpt>
<trkpt lat="43.0382220000" lon="0.2438000000"><ele>680</ele><time>2026-03-20T07:25:16Z</time></trkpt>
<trkpt lat="43.0382000000" lon="0.2438070000"><ele>680</ele><time>2026-03-20T07:25:18Z</time></trkpt>
<trkpt lat="43.0381770000" lon="0.2438120000"><ele>680</ele><time>2026-03-20T07:25:20Z</time></trkpt>
<trkpt lat="43.0381570000" lon="0.2438230000"><ele>680</ele><time>2026-03-20T07:25:22Z</time></trkpt>
<trkpt lat="43.0381350000" lon="0.2438320000"><ele>680</ele><time>2026-03-20T07:25:24Z</time></trkpt>
<trkpt lat="43.0381050000" lon="0.2438320000"><ele>680</ele><time>2026-03-20T07:25:26Z</time></trkpt>
<trkpt lat="43.0380820000" lon="0.2438420000"><ele>680</ele><time>2026-03-20T07:25:28Z</time></trkpt>
<trkpt lat="43.0380600000" lon="0.2438650000"><ele>680</ele><time>2026-03-20T07:25:30Z</time></trkpt>
<trkpt lat="43.0380320000" lon="0.2438720000"><ele>680</ele><time>2026-03-20T07:25:32Z</time></trkpt>
<trkpt lat="43.0380020000" lon="0.2438670000"><ele>680</ele><time>2026-03-20T07:25:34Z</time></trkpt>
<trkpt lat="43.0379700000" lon="0.2438750000"><ele>680</ele><time>2026-03-20T07:25:36Z</time></trkpt>
<trkpt lat="43.0379420000" lon="0.2438870000"><ele>680</ele><time>2026-03-20T07:25:38Z</time></trkpt>
<trkpt lat="43.0379120000" lon="0.2438970000"><ele>680</ele><time>2026-03-20T07:25:40Z</time></trkpt>
<trkpt lat="43.0378900000" lon="0.2439070000"><ele>680</ele><time>2026-03-20T07:25:42Z</time></trkpt>
<trkpt lat="43.0378670000" lon="0.2439180000"><ele>680</ele><time>2026-03-20T07:25:44Z</time></trkpt>
<trkpt lat="43.0378370000" lon="0.2439270000"><ele>681</ele><time>2026-03-20T07:25:46Z</time></trkpt>
<trkpt lat="43.0378120000" lon="0.2439450000"><ele>681</ele><time>2026-03-20T07:25:48Z</time></trkpt>
<trkpt lat="43.0377870000" lon="0.2439500000"><ele>681</ele><time>2026-03-20T07:25:50Z</time></trkpt>
<trkpt lat="43.0377670000" lon="0.2439520000"><ele>681</ele><time>2026-03-20T07:25:52Z</time></trkpt>
<trkpt lat="43.0377420000" lon="0.2439570000"><ele>681</ele><time>2026-03-20T07:25:54Z</time></trkpt>
<trkpt lat="43.0377200000" lon="0.2439600000"><ele>681</ele><time>2026-03-20T07:25:56Z</time></trkpt>
<trkpt lat="43.0376950000" lon="0.2439670000"><ele>681</ele><time>2026-03-20T07:25:58Z</time></trkpt>
<trkpt lat="43.0376720000" lon="0.2439720000"><ele>681</ele><time>2026-03-20T07:26:00Z</time></trkpt>
<trkpt lat="43.0376550000" lon="0.2439820000"><ele>681</ele><time>2026-03-20T07:26:02Z</time></trkpt>
<trkpt lat="43.0376270000" lon="0.2439870000"><ele>681</ele><time>2026-03-20T07:26:04Z</time></trkpt>
<trkpt lat="43.0376020000" lon="0.2440050000"><ele>681</ele><time>2026-03-20T07:26:06Z</time></trkpt>
<trkpt lat="43.0375800000" lon="0.2440170000"><ele>681</ele><time>2026-03-20T07:26:08Z</time></trkpt>
<trkpt lat="43.0375530000" lon="0.2440220000"><ele>681</ele><time>2026-03-20T07:26:10Z</time></trkpt>
<trkpt lat="43.0375350000" lon="0.2440320000"><ele>681</ele><time>2026-03-20T07:26:12Z</time></trkpt>
<trkpt lat="43.0375100000" lon="0.2440420000"><ele>681</ele><time>2026-03-20T07:26:14Z</time></trkpt>
<trkpt lat="43.0374830000" lon="0.2440470000"><ele>682</ele><time>2026-03-20T07:26:16Z</time></trkpt>
<trkpt lat="43.0374650000" lon="0.2440570000"><ele>682</ele><time>2026-03-20T07:26:18Z</time></trkpt>
<trkpt lat="43.0374420000" lon="0.2440700000"><ele>682</ele><time>2026-03-20T07:26:20Z</time></trkpt>
<trkpt lat="43.0374220000" lon="0.2440820000"><ele>682</ele><time>2026-03-20T07:26:22Z</time></trkpt>
<trkpt lat="43.0373970000" lon="0.2440870000"><ele>682</ele><time>2026-03-20T07:26:24Z</time></trkpt>
<trkpt lat="43.0373720000" lon="0.2440970000"><ele>682</ele><time>2026-03-20T07:26:26Z</time></trkpt>
<trkpt lat="43.0373520000" lon="0.2440970000"><ele>682</ele><time>2026-03-20T07:26:28Z</time></trkpt>
<trkpt lat="43.0373320000" lon="0.2441020000"><ele>682</ele><time>2026-03-20T07:26:30Z</time></trkpt>
<trkpt lat="43.0373070000" lon="0.2441070000"><ele>682</ele><time>2026-03-20T07:26:32Z</time></trkpt>
<trkpt lat="43.0372850000" lon="0.2441170000"><ele>682</ele><time>2026-03-20T07:26:34Z</time></trkpt>
<trkpt lat="43.0372600000" lon="0.2441320000"><ele>683</ele><time>2026-03-20T07:26:36Z</time></trkpt>
<trkpt lat="43.0372370000" lon="0.2441470000"><ele>683</ele><time>2026-03-20T07:26:38Z</time></trkpt>
<trkpt lat="43.0372120000" lon="0.2441670000"><ele>683</ele><time>2026-03-20T07:26:40Z</time></trkpt>
<trkpt lat="43.0371920000" lon="0.2441820000"><ele>683</ele><time>2026-03-20T07:26:42Z</time></trkpt>
<trkpt lat="43.0371700000" lon="0.2441920000"><ele>683</ele><time>2026-03-20T07:26:44Z</time></trkpt>
<trkpt lat="43.0371500000" lon="0.2441970000"><ele>683</ele><time>2026-03-20T07:26:46Z</time></trkpt>
<trkpt lat="43.0371220000" lon="0.2442070000"><ele>684</ele><time>2026-03-20T07:26:49Z</time></trkpt>
<trkpt lat="43.0371020000" lon="0.2442150000"><ele>684</ele><time>2026-03-20T07:26:51Z</time></trkpt>
<trkpt lat="43.0370820000" lon="0.2442220000"><ele>684</ele><time>2026-03-20T07:26:53Z</time></trkpt>
<trkpt lat="43.0370570000" lon="0.2442370000"><ele>684</ele><time>2026-03-20T07:26:56Z</time></trkpt>
<trkpt lat="43.0370320000" lon="0.2442500000"><ele>685</ele><time>2026-03-20T07:26:58Z</time></trkpt>
<trkpt lat="43.0370120000" lon="0.2442670000"><ele>685</ele><time>2026-03-20T07:27:00Z</time></trkpt>
<trkpt lat="43.0369900000" lon="0.2442800000"><ele>685</ele><time>2026-03-20T07:27:02Z</time></trkpt>
<trkpt lat="43.0369700000" lon="0.2442970000"><ele>685</ele><time>2026-03-20T07:27:04Z</time></trkpt>
<trkpt lat="43.0369480000" lon="0.2443120000"><ele>685</ele><time>2026-03-20T07:27:06Z</time></trkpt>
<trkpt lat="43.0369250000" lon="0.2443280000"><ele>686</ele><time>2026-03-20T07:27:09Z</time></trkpt>
<trkpt lat="43.0369050000" lon="0.2443450000"><ele>686</ele><time>2026-03-20T07:27:11Z</time></trkpt>
<trkpt lat="43.0368870000" lon="0.2443520000"><ele>687</ele><time>2026-03-20T07:27:24Z</time></trkpt>
<trkpt lat="43.0368650000" lon="0.2443570000"><ele>687</ele><time>2026-03-20T07:27:27Z</time></trkpt>
<trkpt lat="43.0368370000" lon="0.2443750000"><ele>687</ele><time>2026-03-20T07:27:29Z</time></trkpt>
<trkpt lat="43.0368170000" lon="0.2443900000"><ele>687</ele><time>2026-03-20T07:27:31Z</time></trkpt>
<trkpt lat="43.0367970000" lon="0.2444070000"><ele>688</ele><time>2026-03-20T07:27:33Z</time></trkpt>
<trkpt lat="43.0367770000" lon="0.2444320000"><ele>688</ele><time>2026-03-20T07:27:36Z</time></trkpt>
<trkpt lat="43.0367570000" lon="0.2444470000"><ele>688</ele><time>2026-03-20T07:27:38Z</time></trkpt>
<trkpt lat="43.0367420000" lon="0.2444630000"><ele>688</ele><time>2026-03-20T07:27:40Z</time></trkpt>
<trkpt lat="43.0367230000" lon="0.2444820000"><ele>688</ele><time>2026-03-20T07:27:42Z</time></trkpt>
<trkpt lat="43.0367070000" lon="0.2444970000"><ele>689</ele><time>2026-03-20T07:27:44Z</time></trkpt>
<trkpt lat="43.0366920000" lon="0.2445120000"><ele>689</ele><time>2026-03-20T07:27:46Z</time></trkpt>
<trkpt lat="43.0366770000" lon="0.2445270000"><ele>689</ele><time>2026-03-20T07:27:48Z</time></trkpt>
<trkpt lat="43.0366570000" lon="0.2445350000"><ele>689</ele><time>2026-03-20T07:27:50Z</time></trkpt>
<trkpt lat="43.0366370000" lon="0.2445470000"><ele>690</ele><time>2026-03-20T07:27:53Z</time></trkpt>
<trkpt lat="43.0366150000" lon="0.2445700000"><ele>690</ele><time>2026-03-20T07:27:56Z</time></trkpt>
<trkpt lat="43.0365970000" lon="0.2445800000"><ele>690</ele><time>2026-03-20T07:27:58Z</time></trkpt>
<trkpt lat="43.0365800000" lon="0.2445950000"><ele>691</ele><time>2026-03-20T07:28:00Z</time></trkpt>
<trkpt lat="43.0365600000" lon="0.2446170000"><ele>691</ele><time>2026-03-20T07:28:03Z</time></trkpt>
<trkpt lat="43.0365420000" lon="0.2446320000"><ele>691</ele><time>2026-03-20T07:28:05Z</time></trkpt>
<trkpt lat="43.0365270000" lon="0.2446520000"><ele>692</ele><time>2026-03-20T07:28:07Z</time></trkpt>
<trkpt lat="43.0365100000" lon="0.2446700000"><ele>692</ele><time>2026-03-20T07:28:09Z</time></trkpt>
<trkpt lat="43.0364900000" lon="0.2446820000"><ele>692</ele><time>2026-03-20T07:28:22Z</time></trkpt>
<trkpt lat="43.0364700000" lon="0.2446970000"><ele>692</ele><time>2026-03-20T07:28:24Z</time></trkpt>
<trkpt lat="43.0364420000" lon="0.2447150000"><ele>692</ele><time>2026-03-20T07:28:26Z</time></trkpt>
<trkpt lat="43.0364200000" lon="0.2447320000"><ele>693</ele><time>2026-03-20T07:28:28Z</time></trkpt>
<trkpt lat="43.0363970000" lon="0.2447430000"><ele>693</ele><time>2026-03-20T07:28:30Z</time></trkpt>
<trkpt lat="43.0363770000" lon="0.2447620000"><ele>693</ele><time>2026-03-20T07:28:32Z</time></trkpt>
<trkpt lat="43.0363620000" lon="0.2447770000"><ele>693</ele><time>2026-03-20T07:28:34Z</time></trkpt>
<trkpt lat="43.0363430000" lon="0.2447950000"><ele>694</ele><time>2026-03-20T07:28:36Z</time></trkpt>
<trkpt lat="43.0363220000" lon="0.2448120000"><ele>694</ele><time>2026-03-20T07:28:38Z</time></trkpt>
<trkpt lat="43.0363050000" lon="0.2448320000"><ele>694</ele><time>2026-03-20T07:28:40Z</time></trkpt>
<trkpt lat="43.0362820000" lon="0.2448520000"><ele>694</ele><time>2026-03-20T07:28:43Z</time></trkpt>
<trkpt lat="43.0362650000" lon="0.2448670000"><ele>695</ele><time>2026-03-20T07:28:46Z</time></trkpt>
<trkpt lat="43.0362450000" lon="0.2448830000"><ele>695</ele><time>2026-03-20T07:28:49Z</time></trkpt>
<trkpt lat="43.0362220000" lon="0.2449020000"><ele>696</ele><time>2026-03-20T07:28:52Z</time></trkpt>
<trkpt lat="43.0362070000" lon="0.2449170000"><ele>696</ele><time>2026-03-20T07:28:54Z</time></trkpt>
<trkpt lat="43.0361870000" lon="0.2449420000"><ele>696</ele><time>2026-03-20T07:28:57Z</time></trkpt>
<trkpt lat="43.0361720000" lon="0.2449620000"><ele>696</ele><time>2026-03-20T07:29:00Z</time></trkpt>
<trkpt lat="43.0361550000" lon="0.2449770000"><ele>697</ele><time>2026-03-20T07:29:02Z</time></trkpt>
<trkpt lat="43.0361300000" lon="0.2449970000"><ele>697</ele><time>2026-03-20T07:29:05Z</time></trkpt>
<trkpt lat="43.0361070000" lon="0.2450170000"><ele>697</ele><time>2026-03-20T07:29:08Z</time></trkpt>
<trkpt lat="43.0360950000" lon="0.2450330000"><ele>698</ele><time>2026-03-20T07:29:10Z</time></trkpt>
<trkpt lat="43.0360820000" lon="0.2450550000"><ele>698</ele><time>2026-03-20T07:29:12Z</time></trkpt>
<trkpt lat="43.0360600000" lon="0.2450820000"><ele>698</ele><time>2026-03-20T07:29:14Z</time></trkpt>
<trkpt lat="43.0360400000" lon="0.2451070000"><ele>698</ele><time>2026-03-20T07:29:16Z</time></trkpt>
<trkpt lat="43.0360220000" lon="0.2451250000"><ele>699</ele><time>2026-03-20T07:29:19Z</time></trkpt>
<trkpt lat="43.0360020000" lon="0.2451350000"><ele>699</ele><time>2026-03-20T07:29:23Z</time></trkpt>
<trkpt lat="43.0359850000" lon="0.2451500000"><ele>700</ele><time>2026-03-20T07:29:26Z</time></trkpt>
<trkpt lat="43.0359700000" lon="0.2451630000"><ele>700</ele><time>2026-03-20T07:29:28Z</time></trkpt>
<trkpt lat="43.0359520000" lon="0.2451820000"><ele>700</ele><time>2026-03-20T07:29:31Z</time></trkpt>
<trkpt lat="43.0359370000" lon="0.2451970000"><ele>701</ele><time>2026-03-20T07:29:34Z</time></trkpt>
<trkpt lat="43.0359120000" lon="0.2452050000"><ele>701</ele><time>2026-03-20T07:29:37Z</time></trkpt>
<trkpt lat="43.0358920000" lon="0.2452270000"><ele>701</ele><time>2026-03-20T07:29:40Z</time></trkpt>
<trkpt lat="43.0358720000" lon="0.2452450000"><ele>702</ele><time>2026-03-20T07:29:43Z</time></trkpt>
<trkpt lat="43.0358520000" lon="0.2452620000"><ele>702</ele><time>2026-03-20T07:29:46Z</time></trkpt>
<trkpt lat="43.0358320000" lon="0.2452870000"><ele>702</ele><time>2026-03-20T07:29:49Z</time></trkpt>
<trkpt lat="43.0358080000" lon="0.2453070000"><ele>703</ele><time>2026-03-20T07:29:52Z</time></trkpt>
<trkpt lat="43.0357920000" lon="0.2453300000"><ele>703</ele><time>2026-03-20T07:29:55Z</time></trkpt>
<trkpt lat="43.0357820000" lon="0.2453620000"><ele>703</ele><time>2026-03-20T07:29:57Z</time></trkpt>
<trkpt lat="43.0357650000" lon="0.2453750000"><ele>703</ele><time>2026-03-20T07:29:59Z</time></trkpt>
<trkpt lat="43.0357450000" lon="0.2453950000"><ele>704</ele><time>2026-03-20T07:30:02Z</time></trkpt>
<trkpt lat="43.0357270000" lon="0.2454120000"><ele>704</ele><time>2026-03-20T07:30:05Z</time></trkpt>
<trkpt lat="43.0357070000" lon="0.2454270000"><ele>704</ele><time>2026-03-20T07:30:08Z</time></trkpt>
<trkpt lat="43.0356870000" lon="0.2454370000"><ele>705</ele><time>2026-03-20T07:30:11Z</time></trkpt>
<trkpt lat="43.0356700000" lon="0.2454570000"><ele>705</ele><time>2026-03-20T07:30:14Z</time></trkpt>
<trkpt lat="43.0356500000" lon="0.2454770000"><ele>705</ele><time>2026-03-20T07:30:17Z</time></trkpt>
<trkpt lat="43.0356270000" lon="0.2454970000"><ele>706</ele><time>2026-03-20T07:30:20Z</time></trkpt>
<trkpt lat="43.0356100000" lon="0.2455170000"><ele>706</ele><time>2026-03-20T07:30:23Z</time></trkpt>
<trkpt lat="43.0355950000" lon="0.2455400000"><ele>706</ele><time>2026-03-20T07:30:25Z</time></trkpt>
<trkpt lat="43.0355770000" lon="0.2455570000"><ele>706</ele><time>2026-03-20T07:30:27Z</time></trkpt>
<trkpt lat="43.0355620000" lon="0.2455730000"><ele>707</ele><time>2026-03-20T07:30:29Z</time></trkpt>
<trkpt lat="43.0355470000" lon="0.2455870000"><ele>707</ele><time>2026-03-20T07:30:32Z</time></trkpt>
<trkpt lat="43.0355270000" lon="0.2455870000"><ele>707</ele><time>2026-03-20T07:30:35Z</time></trkpt>
<trkpt lat="43.0355070000" lon="0.2455970000"><ele>708</ele><time>2026-03-20T07:30:38Z</time></trkpt>
<trkpt lat="43.0354870000" lon="0.2456150000"><ele>708</ele><time>2026-03-20T07:30:41Z</time></trkpt>
<trkpt lat="43.0354670000" lon="0.2456320000"><ele>709</ele><time>2026-03-20T07:30:44Z</time></trkpt>
<trkpt lat="43.0354470000" lon="0.2456470000"><ele>709</ele><time>2026-03-20T07:30:47Z</time></trkpt>
<trkpt lat="43.0354320000" lon="0.2456620000"><ele>709</ele><time>2026-03-20T07:30:49Z</time></trkpt>
<trkpt lat="43.0354100000" lon="0.2456850000"><ele>709</ele><time>2026-03-20T07:30:52Z</time></trkpt>
<trkpt lat="43.0353870000" lon="0.2457050000"><ele>710</ele><time>2026-03-20T07:30:55Z</time></trkpt>
<trkpt lat="43.0353650000" lon="0.2457230000"><ele>710</ele><time>2026-03-20T07:30:58Z</time></trkpt>
<trkpt lat="43.0353500000" lon="0.2457420000"><ele>710</ele><time>2026-03-20T07:31:00Z</time></trkpt>
<trkpt lat="43.0353270000" lon="0.2457600000"><ele>711</ele><time>2026-03-20T07:31:03Z</time></trkpt>
<trkpt lat="43.0353070000" lon="0.2457800000"><ele>711</ele><time>2026-03-20T07:31:06Z</time></trkpt>
<trkpt lat="43.0352820000" lon="0.2458020000"><ele>711</ele><time>2026-03-20T07:31:09Z</time></trkpt>
<trkpt lat="43.0352620000" lon="0.2458200000"><ele>711</ele><time>2026-03-20T07:31:12Z</time></trkpt>
<trkpt lat="43.0352470000" lon="0.2458370000"><ele>712</ele><time>2026-03-20T07:31:14Z</time></trkpt>
<trkpt lat="43.0352300000" lon="0.2458530000"><ele>712</ele><time>2026-03-20T07:31:16Z</time></trkpt>
<trkpt lat="43.0352120000" lon="0.2458720000"><ele>712</ele><time>2026-03-20T07:31:18Z</time></trkpt>
<trkpt lat="43.0351920000" lon="0.2458950000"><ele>712</ele><time>2026-03-20T07:31:21Z</time></trkpt>
<trkpt lat="43.0351720000" lon="0.2459120000"><ele>713</ele><time>2026-03-20T07:31:24Z</time></trkpt>
<trkpt lat="43.0351570000" lon="0.2459270000"><ele>713</ele><time>2026-03-20T07:31:26Z</time></trkpt>
<trkpt lat="43.0351370000" lon="0.2459450000"><ele>713</ele><time>2026-03-20T07:31:28Z</time></trkpt>
<trkpt lat="43.0351200000" lon="0.2459550000"><ele>714</ele><time>2026-03-20T07:31:30Z</time></trkpt>
<trkpt lat="43.0351020000" lon="0.2459670000"><ele>714</ele><time>2026-03-20T07:31:32Z</time></trkpt>
<trkpt lat="43.0350820000" lon="0.2459820000"><ele>714</ele><time>2026-03-20T07:31:35Z</time></trkpt>
<trkpt lat="43.0350650000" lon="0.2459970000"><ele>714</ele><time>2026-03-20T07:31:37Z</time></trkpt>
<trkpt lat="43.0350400000" lon="0.2460120000"><ele>714</ele><time>2026-03-20T07:31:40Z</time></trkpt>
<trkpt lat="43.0350200000" lon="0.2460270000"><ele>715</ele><time>2026-03-20T07:31:43Z</time></trkpt>
<trkpt lat="43.0350000000" lon="0.2460450000"><ele>715</ele><time>2026-03-20T07:31:46Z</time></trkpt>
<trkpt lat="43.0349850000" lon="0.2460670000"><ele>715</ele><time>2026-03-20T07:31:48Z</time></trkpt>
<trkpt lat="43.0349670000" lon="0.2460900000"><ele>716</ele><time>2026-03-20T07:31:50Z</time></trkpt>
<trkpt lat="43.0349470000" lon="0.2461120000"><ele>716</ele><time>2026-03-20T07:31:52Z</time></trkpt>
<trkpt lat="43.0349250000" lon="0.2461270000"><ele>716</ele><time>2026-03-20T07:31:54Z</time></trkpt>
<trkpt lat="43.0349070000" lon="0.2461370000"><ele>716</ele><time>2026-03-20T07:31:56Z</time></trkpt>
<trkpt lat="43.0348820000" lon="0.2461570000"><ele>716</ele><time>2026-03-20T07:31:59Z</time></trkpt>
<trkpt lat="43.0348620000" lon="0.2461670000"><ele>717</ele><time>2026-03-20T07:32:02Z</time></trkpt>
<trkpt lat="43.0348420000" lon="0.2461750000"><ele>717</ele><time>2026-03-20T07:32:05Z</time></trkpt>
<trkpt lat="43.0348200000" lon="0.2461820000"><ele>717</ele><time>2026-03-20T07:32:08Z</time></trkpt>
<trkpt lat="43.0347970000" lon="0.2461970000"><ele>718</ele><time>2026-03-20T07:32:11Z</time></trkpt>
<trkpt lat="43.0347820000" lon="0.2462070000"><ele>718</ele><time>2026-03-20T07:32:13Z</time></trkpt>
<trkpt lat="43.0347620000" lon="0.2462170000"><ele>718</ele><time>2026-03-20T07:32:16Z</time></trkpt>
<trkpt lat="43.0347370000" lon="0.2462300000"><ele>719</ele><time>2026-03-20T07:32:19Z</time></trkpt>
<trkpt lat="43.0347200000" lon="0.2462400000"><ele>719</ele><time>2026-03-20T07:32:21Z</time></trkpt>
<trkpt lat="43.0347020000" lon="0.2462470000"><ele>719</ele><time>2026-03-20T07:32:23Z</time></trkpt>
<trkpt lat="43.0346870000" lon="0.2462650000"><ele>719</ele><time>2026-03-20T07:32:25Z</time></trkpt>
<trkpt lat="43.0346720000" lon="0.2462820000"><ele>719</ele><time>2026-03-20T07:32:27Z</time></trkpt>
<trkpt lat="43.0346520000" lon="0.2462870000"><ele>720</ele><time>2026-03-20T07:32:29Z</time></trkpt>
<trkpt lat="43.0346320000" lon="0.2463000000"><ele>720</ele><time>2026-03-20T07:32:32Z</time></trkpt>
<trkpt lat="43.0346120000" lon="0.2463170000"><ele>720</ele><time>2026-03-20T07:32:35Z</time></trkpt>
<trkpt lat="43.0345950000" lon="0.2463400000"><ele>720</ele><time>2026-03-20T07:32:38Z</time></trkpt>
<trkpt lat="43.0345770000" lon="0.2463520000"><ele>721</ele><time>2026-03-20T07:32:41Z</time></trkpt>
<trkpt lat="43.0345570000" lon="0.2463620000"><ele>721</ele><time>2026-03-20T07:32:44Z</time></trkpt>
<trkpt lat="43.0345350000" lon="0.2463770000"><ele>721</ele><time>2026-03-20T07:32:47Z</time></trkpt>
<trkpt lat="43.0345170000" lon="0.2463900000"><ele>722</ele><time>2026-03-20T07:32:49Z</time></trkpt>
<trkpt lat="43.0344970000" lon="0.2464020000"><ele>722</ele><time>2026-03-20T07:32:51Z</time></trkpt>
<trkpt lat="43.0344800000" lon="0.2464120000"><ele>722</ele><time>2026-03-20T07:32:53Z</time></trkpt>
<trkpt lat="43.0344620000" lon="0.2464270000"><ele>722</ele><time>2026-03-20T07:32:55Z</time></trkpt>
<trkpt lat="43.0344430000" lon="0.2464420000"><ele>723</ele><time>2026-03-20T07:32:57Z</time></trkpt>
<trkpt lat="43.0344270000" lon="0.2464520000"><ele>723</ele><time>2026-03-20T07:32:59Z</time></trkpt>
<trkpt lat="43.0344070000" lon="0.2464720000"><ele>723</ele><time>2026-03-20T07:33:01Z</time></trkpt>
<trkpt lat="43.0343870000" lon="0.2464950000"><ele>723</ele><time>2026-03-20T07:33:03Z</time></trkpt>
<trkpt lat="43.0343670000" lon="0.2465120000"><ele>723</ele><time>2026-03-20T07:33:05Z</time></trkpt>
<trkpt lat="43.0343470000" lon="0.2465220000"><ele>724</ele><time>2026-03-20T07:33:07Z</time></trkpt>
<trkpt lat="43.0343250000" lon="0.2465250000"><ele>724</ele><time>2026-03-20T07:33:10Z</time></trkpt>
<trkpt lat="43.0343070000" lon="0.2465270000"><ele>724</ele><time>2026-03-20T07:33:13Z</time></trkpt>
<trkpt lat="43.0342820000" lon="0.2465370000"><ele>724</ele><time>2026-03-20T07:33:17Z</time></trkpt>
<trkpt lat="43.0342670000" lon="0.2465480000"><ele>725</ele><time>2026-03-20T07:33:19Z</time></trkpt>
<trkpt lat="43.0342470000" lon="0.2465650000"><ele>725</ele><time>2026-03-20T07:33:21Z</time></trkpt>
<trkpt lat="43.0342300000" lon="0.2465820000"><ele>725</ele><time>2026-03-20T07:33:23Z</time></trkpt>
<trkpt lat="43.0342150000" lon="0.2465970000"><ele>725</ele><time>2026-03-20T07:33:25Z</time></trkpt>
<trkpt lat="43.0341920000" lon="0.2466150000"><ele>726</ele><time>2026-03-20T07:33:28Z</time></trkpt>
<trkpt lat="43.0341750000" lon="0.2466270000"><ele>726</ele><time>2026-03-20T07:33:30Z</time></trkpt>
<trkpt lat="43.0341570000" lon="0.2466400000"><ele>726</ele><time>2026-03-20T07:33:32Z</time></trkpt>
<trkpt lat="43.0341350000" lon="0.2466570000"><ele>726</ele><time>2026-03-20T07:33:35Z</time></trkpt>
<trkpt lat="43.0341170000" lon="0.2466720000"><ele>727</ele><time>2026-03-20T07:33:37Z</time></trkpt>
<trkpt lat="43.0341020000" lon="0.2466880000"><ele>727</ele><time>2026-03-20T07:33:39Z</time></trkpt>
<trkpt lat="43.0340820000" lon="0.2467120000"><ele>727</ele><time>2026-03-20T07:33:41Z</time></trkpt>
<trkpt lat="43.0340620000" lon="0.2467300000"><ele>727</ele><time>2026-03-20T07:33:43Z</time></trkpt>
<trkpt lat="43.0340370000" lon="0.2467470000"><ele>728</ele><time>2026-03-20T07:33:46Z</time></trkpt>
<trkpt lat="43.0340220000" lon="0.2467670000"><ele>728</ele><time>2026-03-20T07:33:48Z</time></trkpt>
<trkpt lat="43.0340020000" lon="0.2467850000"><ele>728</ele><time>2026-03-20T07:33:50Z</time></trkpt>
<trkpt lat="43.0339820000" lon="0.2467920000"><ele>729</ele><time>2026-03-20T07:33:53Z</time></trkpt>
<trkpt lat="43.0339600000" lon="0.2468100000"><ele>729</ele><time>2026-03-20T07:33:56Z</time></trkpt>
<trkpt lat="43.0339420000" lon="0.2468220000"><ele>729</ele><time>2026-03-20T07:33:58Z</time></trkpt>
<trkpt lat="43.0339220000" lon="0.2468370000"><ele>729</ele><time>2026-03-20T07:34:00Z</time></trkpt>
<trkpt lat="43.0339050000" lon="0.2468550000"><ele>729</ele><time>2026-03-20T07:34:03Z</time></trkpt>
<trkpt lat="43.0338850000" lon="0.2468750000"><ele>730</ele><time>2026-03-20T07:34:05Z</time></trkpt>
<trkpt lat="43.0338670000" lon="0.2468900000"><ele>730</ele><time>2026-03-20T07:34:07Z</time></trkpt>
<trkpt lat="43.0338420000" lon="0.2468970000"><ele>730</ele><time>2026-03-20T07:34:10Z</time></trkpt>
<trkpt lat="43.0338220000" lon="0.2469120000"><ele>731</ele><time>2026-03-20T07:34:12Z</time></trkpt>
<trkpt lat="43.0338050000" lon="0.2469400000"><ele>731</ele><time>2026-03-20T07:34:15Z</time></trkpt>
<trkpt lat="43.0337870000" lon="0.2469620000"><ele>731</ele><time>2026-03-20T07:34:17Z</time></trkpt>
<trkpt lat="43.0337680000" lon="0.2469770000"><ele>731</ele><time>2026-03-20T07:34:19Z</time></trkpt>
<trkpt lat="43.0337520000" lon="0.2469970000"><ele>732</ele><time>2026-03-20T07:34:22Z</time></trkpt>
<trkpt lat="43.0337300000" lon="0.2470120000"><ele>732</ele><time>2026-03-20T07:34:26Z</time></trkpt>
<trkpt lat="43.0337070000" lon="0.2470170000"><ele>732</ele><time>2026-03-20T07:34:29Z</time></trkpt>
<trkpt lat="43.0336870000" lon="0.2470170000"><ele>733</ele><time>2026-03-20T07:34:32Z</time></trkpt>
<trkpt lat="43.0336620000" lon="0.2470170000"><ele>733</ele><time>2026-03-20T07:34:36Z</time></trkpt>
<trkpt lat="43.0336420000" lon="0.2470170000"><ele>733</ele><time>2026-03-20T07:34:38Z</time></trkpt>
<trkpt lat="43.0336200000" lon="0.2470120000"><ele>733</ele><time>2026-03-20T07:34:41Z</time></trkpt>
<trkpt lat="43.0335920000" lon="0.2470180000"><ele>734</ele><time>2026-03-20T07:34:44Z</time></trkpt>
<trkpt lat="43.0335700000" lon="0.2470320000"><ele>734</ele><time>2026-03-20T07:34:47Z</time></trkpt>
<trkpt lat="43.0335520000" lon="0.2470320000"><ele>734</ele><time>2026-03-20T07:34:49Z</time></trkpt>
<trkpt lat="43.0335320000" lon="0.2470320000"><ele>734</ele><time>2026-03-20T07:34:51Z</time></trkpt>
<trkpt lat="43.0335150000" lon="0.2470320000"><ele>735</ele><time>2026-03-20T07:34:53Z</time></trkpt>
<trkpt lat="43.0334900000" lon="0.2470400000"><ele>735</ele><time>2026-03-20T07:34:56Z</time></trkpt>
<trkpt lat="43.0334620000" lon="0.2470470000"><ele>736</ele><time>2026-03-20T07:34:59Z</time></trkpt>
<trkpt lat="43.0334400000" lon="0.2470370000"><ele>736</ele><time>2026-03-20T07:35:01Z</time></trkpt>
<trkpt lat="43.0334150000" lon="0.2470220000"><ele>736</ele><time>2026-03-20T07:35:03Z</time></trkpt>
<trkpt lat="43.0333920000" lon="0.2470150000"><ele>736</ele><time>2026-03-20T07:35:05Z</time></trkpt>
<trkpt lat="43.0333720000" lon="0.2470170000"><ele>736</ele><time>2026-03-20T07:35:07Z</time></trkpt>
<trkpt lat="43.0333450000" lon="0.2470120000"><ele>736</ele><time>2026-03-20T07:35:10Z</time></trkpt>
<trkpt lat="43.0333250000" lon="0.2470120000"><ele>736</ele><time>2026-03-20T07:35:12Z</time></trkpt>
<trkpt lat="43.0333070000" lon="0.2470070000"><ele>737</ele><time>2026-03-20T07:35:14Z</time></trkpt>
<trkpt lat="43.0332920000" lon="0.2470270000"><ele>737</ele><time>2026-03-20T07:35:15Z</time></trkpt>
<trkpt lat="43.0332750000" lon="0.2470300000"><ele>737</ele><time>2026-03-20T07:35:18Z</time></trkpt>
<trkpt lat="43.0332520000" lon="0.2470270000"><ele>737</ele><time>2026-03-20T07:35:20Z</time></trkpt>
<trkpt lat="43.0332300000" lon="0.2470170000"><ele>737</ele><time>2026-03-20T07:35:22Z</time></trkpt>
<trkpt lat="43.0332100000" lon="0.2470050000"><ele>737</ele><time>2026-03-20T07:35:24Z</time></trkpt>
<trkpt lat="43.0331820000" lon="0.2470020000"><ele>737</ele><time>2026-03-20T07:35:26Z</time></trkpt>
<trkpt lat="43.0331570000" lon="0.2470020000"><ele>737</ele><time>2026-03-20T07:35:28Z</time></trkpt>
<trkpt lat="43.0331350000" lon="0.2469950000"><ele>738</ele><time>2026-03-20T07:35:30Z</time></trkpt>
<trkpt lat="43.0331070000" lon="0.2469920000"><ele>738</ele><time>2026-03-20T07:35:32Z</time></trkpt>
<trkpt lat="43.0330870000" lon="0.2469820000"><ele>738</ele><time>2026-03-20T07:35:34Z</time></trkpt>
<trkpt lat="43.0330650000" lon="0.2469670000"><ele>738</ele><time>2026-03-20T07:35:36Z</time></trkpt>
<trkpt lat="43.0330400000" lon="0.2469520000"><ele>738</ele><time>2026-03-20T07:35:38Z</time></trkpt>
<trkpt lat="43.0330220000" lon="0.2469420000"><ele>739</ele><time>2026-03-20T07:35:40Z</time></trkpt>
<trkpt lat="43.0330020000" lon="0.2469320000"><ele>739</ele><time>2026-03-20T07:35:42Z</time></trkpt>
<trkpt lat="43.0329820000" lon="0.2469120000"><ele>739</ele><time>2026-03-20T07:35:44Z</time></trkpt>
<trkpt lat="43.0329620000" lon="0.2469000000"><ele>739</ele><time>2026-03-20T07:35:46Z</time></trkpt>
<trkpt lat="43.0329420000" lon="0.2468820000"><ele>739</ele><time>2026-03-20T07:35:48Z</time></trkpt>
<trkpt lat="43.0329270000" lon="0.2468670000"><ele>739</ele><time>2026-03-20T07:35:50Z</time></trkpt>
<trkpt lat="43.0329070000" lon="0.2468500000"><ele>739</ele><time>2026-03-20T07:35:53Z</time></trkpt>
<trkpt lat="43.0328870000" lon="0.2468320000"><ele>740</ele><time>2026-03-20T07:35:55Z</time></trkpt>
<trkpt lat="43.0328670000" lon="0.2468170000"><ele>740</ele><time>2026-03-20T07:35:57Z</time></trkpt>
<trkpt lat="43.0328470000" lon="0.2467970000"><ele>740</ele><time>2026-03-20T07:35:59Z</time></trkpt>
<trkpt lat="43.0328270000" lon="0.2467800000"><ele>740</ele><time>2026-03-20T07:36:01Z</time></trkpt>
<trkpt lat="43.0328120000" lon="0.2467670000"><ele>740</ele><time>2026-03-20T07:36:03Z</time></trkpt>
<trkpt lat="43.0327950000" lon="0.2467520000"><ele>740</ele><time>2026-03-20T07:36:05Z</time></trkpt>
<trkpt lat="43.0327750000" lon="0.2467300000"><ele>740</ele><time>2026-03-20T07:36:07Z</time></trkpt>
<trkpt lat="43.0327520000" lon="0.2467100000"><ele>740</ele><time>2026-03-20T07:36:09Z</time></trkpt>
<trkpt lat="43.0327320000" lon="0.2466920000"><ele>740</ele><time>2026-03-20T07:36:11Z</time></trkpt>
<trkpt lat="43.0327170000" lon="0.2466700000"><ele>741</ele><time>2026-03-20T07:36:13Z</time></trkpt>
<trkpt lat="43.0326980000" lon="0.2466500000"><ele>741</ele><time>2026-03-20T07:36:15Z</time></trkpt>
<trkpt lat="43.0326820000" lon="0.2466400000"><ele>741</ele><time>2026-03-20T07:36:16Z</time></trkpt>
<trkpt lat="43.0326570000" lon="0.2466200000"><ele>741</ele><time>2026-03-20T07:36:18Z</time></trkpt>
<trkpt lat="43.0326420000" lon="0.2466020000"><ele>741</ele><time>2026-03-20T07:36:20Z</time></trkpt>
<trkpt lat="43.0326250000" lon="0.2465820000"><ele>741</ele><time>2026-03-20T07:36:22Z</time></trkpt>
<trkpt lat="43.0326020000" lon="0.2465620000"><ele>741</ele><time>2026-03-20T07:36:24Z</time></trkpt>
<trkpt lat="43.0325820000" lon="0.2465420000"><ele>741</ele><time>2026-03-20T07:36:26Z</time></trkpt>
<trkpt lat="43.0325620000" lon="0.2465250000"><ele>741</ele><time>2026-03-20T07:36:28Z</time></trkpt>
<trkpt lat="43.0325420000" lon="0.2465070000"><ele>741</ele><time>2026-03-20T07:36:30Z</time></trkpt>
<trkpt lat="43.0325300000" lon="0.2464870000"><ele>741</ele><time>2026-03-20T07:36:32Z</time></trkpt>
<trkpt lat="43.0325200000" lon="0.2464620000"><ele>741</ele><time>2026-03-20T07:36:34Z</time></trkpt>
<trkpt lat="43.0325070000" lon="0.2464470000"><ele>742</ele><time>2026-03-20T07:36:36Z</time></trkpt>
<trkpt lat="43.0324870000" lon="0.2464320000"><ele>742</ele><time>2026-03-20T07:36:38Z</time></trkpt>
<trkpt lat="43.0324670000" lon="0.2464130000"><ele>742</ele><time>2026-03-20T07:36:40Z</time></trkpt>
<trkpt lat="43.0324520000" lon="0.2463950000"><ele>742</ele><time>2026-03-20T07:36:42Z</time></trkpt>
<trkpt lat="43.0324300000" lon="0.2463770000"><ele>742</ele><time>2026-03-20T07:36:44Z</time></trkpt>
<trkpt lat="43.0324120000" lon="0.2463620000"><ele>742</ele><time>2026-03-20T07:36:46Z</time></trkpt>
<trkpt lat="43.0323920000" lon="0.2463520000"><ele>742</ele><time>2026-03-20T07:36:48Z</time></trkpt>
<trkpt lat="43.0323620000" lon="0.2463280000"><ele>743</ele><time>2026-03-20T07:36:51Z</time></trkpt>
<trkpt lat="43.0323400000" lon="0.2463150000"><ele>743</ele><time>2026-03-20T07:36:53Z</time></trkpt>
<trkpt lat="43.0323200000" lon="0.2463050000"><ele>743</ele><time>2026-03-20T07:36:55Z</time></trkpt>
<trkpt lat="43.0323020000" lon="0.2462920000"><ele>743</ele><time>2026-03-20T07:36:57Z</time></trkpt>
<trkpt lat="43.0322850000" lon="0.2462770000"><ele>743</ele><time>2026-03-20T07:36:59Z</time></trkpt>
<trkpt lat="43.0322670000" lon="0.2462600000"><ele>743</ele><time>2026-03-20T07:37:01Z</time></trkpt>
<trkpt lat="43.0322520000" lon="0.2462450000"><ele>744</ele><time>2026-03-20T07:37:03Z</time></trkpt>
<trkpt lat="43.0322320000" lon="0.2462250000"><ele>744</ele><time>2026-03-20T07:37:06Z</time></trkpt>
<trkpt lat="43.0322070000" lon="0.2462070000"><ele>744</ele><time>2026-03-20T07:37:09Z</time></trkpt>
<trkpt lat="43.0321870000" lon="0.2461870000"><ele>745</ele><time>2026-03-20T07:37:12Z</time></trkpt>
<trkpt lat="43.0321670000" lon="0.2461650000"><ele>745</ele><time>2026-03-20T07:37:15Z</time></trkpt>
<trkpt lat="43.0321470000" lon="0.2461420000"><ele>746</ele><time>2026-03-20T07:37:18Z</time></trkpt>
<trkpt lat="43.0321300000" lon="0.2461320000"><ele>746</ele><time>2026-03-20T07:37:20Z</time></trkpt>
<trkpt lat="43.0321070000" lon="0.2461120000"><ele>746</ele><time>2026-03-20T07:37:23Z</time></trkpt>
<trkpt lat="43.0320920000" lon="0.2460970000"><ele>747</ele><time>2026-03-20T07:37:25Z</time></trkpt>
<trkpt lat="43.0320720000" lon="0.2460850000"><ele>747</ele><time>2026-03-20T07:37:27Z</time></trkpt>
<trkpt lat="43.0320550000" lon="0.2460750000"><ele>747</ele><time>2026-03-20T07:37:29Z</time></trkpt>
<trkpt lat="43.0320350000" lon="0.2460570000"><ele>748</ele><time>2026-03-20T07:37:42Z</time></trkpt>
<trkpt lat="43.0320070000" lon="0.2460300000"><ele>749</ele><time>2026-03-20T07:37:44Z</time></trkpt>
<trkpt lat="43.0319820000" lon="0.2460030000"><ele>749</ele><time>2026-03-20T07:37:46Z</time></trkpt>
<trkpt lat="43.0319550000" lon="0.2459970000"><ele>749</ele><time>2026-03-20T07:37:48Z</time></trkpt>
<trkpt lat="43.0319320000" lon="0.2459920000"><ele>749</ele><time>2026-03-20T07:37:50Z</time></trkpt>
<trkpt lat="43.0319120000" lon="0.2459770000"><ele>749</ele><time>2026-03-20T07:37:52Z</time></trkpt>
<trkpt lat="43.0318870000" lon="0.2459700000"><ele>749</ele><time>2026-03-20T07:37:54Z</time></trkpt>
<trkpt lat="43.0318650000" lon="0.2459470000"><ele>749</ele><time>2026-03-20T07:37:56Z</time></trkpt>
<trkpt lat="43.0318500000" lon="0.2459320000"><ele>749</ele><time>2026-03-20T07:37:59Z</time></trkpt>
<trkpt lat="43.0318320000" lon="0.2459170000"><ele>749</ele><time>2026-03-20T07:38:26Z</time></trkpt>
<trkpt lat="43.0318070000" lon="0.2459220000"><ele>749</ele><time>2026-03-20T07:38:28Z</time></trkpt>
<trkpt lat="43.0317750000" lon="0.2459320000"><ele>749</ele><time>2026-03-20T07:38:30Z</time></trkpt>
<trkpt lat="43.0317470000" lon="0.2459470000"><ele>749</ele><time>2026-03-20T07:38:32Z</time></trkpt>
<trkpt lat="43.0317200000" lon="0.2459670000"><ele>749</ele><time>2026-03-20T07:38:34Z</time></trkpt>
<trkpt lat="43.0316920000" lon="0.2459820000"><ele>749</ele><time>2026-03-20T07:38:36Z</time></trkpt>
<trkpt lat="43.0316700000" lon="0.2459970000"><ele>749</ele><time>2026-03-20T07:38:38Z</time></trkpt>
<trkpt lat="43.0316470000" lon="0.2460100000"><ele>749</ele><time>2026-03-20T07:38:40Z</time></trkpt>
<trkpt lat="43.0316270000" lon="0.2460270000"><ele>749</ele><time>2026-03-20T07:38:42Z</time></trkpt>
<trkpt lat="43.0316070000" lon="0.2460470000"><ele>749</ele><time>2026-03-20T07:38:44Z</time></trkpt>
<trkpt lat="43.0315850000" lon="0.2460720000"><ele>749</ele><time>2026-03-20T07:38:46Z</time></trkpt>
<trkpt lat="43.0315770000" lon="0.2461050000"><ele>749</ele><time>2026-03-20T07:38:47Z</time></trkpt>
<trkpt lat="43.0315670000" lon="0.2461320000"><ele>749</ele><time>2026-03-20T07:38:48Z</time></trkpt>
<trkpt lat="43.0315570000" lon="0.2461550000"><ele>749</ele><time>2026-03-20T07:38:49Z</time></trkpt>
<trkpt lat="43.0315320000" lon="0.2461720000"><ele>748</ele><time>2026-03-20T07:38:51Z</time></trkpt>
<trkpt lat="43.0315120000" lon="0.2461870000"><ele>749</ele><time>2026-03-20T07:38:53Z</time></trkpt>
<trkpt lat="43.0314880000" lon="0.2462020000"><ele>749</ele><time>2026-03-20T07:38:55Z</time></trkpt>
<trkpt lat="43.0314670000" lon="0.2462250000"><ele>749</ele><time>2026-03-20T07:38:57Z</time></trkpt>
<trkpt lat="43.0314470000" lon="0.2462450000"><ele>749</ele><time>2026-03-20T07:38:59Z</time></trkpt>
<trkpt lat="43.0314270000" lon="0.2462600000"><ele>749</ele><time>2026-03-20T07:39:01Z</time></trkpt>
<trkpt lat="43.0314020000" lon="0.2462770000"><ele>749</ele><time>2026-03-20T07:39:03Z</time></trkpt>
<trkpt lat="43.0313770000" lon="0.2462970000"><ele>749</ele><time>2026-03-20T07:39:05Z</time></trkpt>
<trkpt lat="43.0313520000" lon="0.2463170000"><ele>748</ele><time>2026-03-20T07:39:07Z</time></trkpt>
<trkpt lat="43.0313320000" lon="0.2463320000"><ele>748</ele><time>2026-03-20T07:39:09Z</time></trkpt>
<trkpt lat="43.0313070000" lon="0.2463420000"><ele>748</ele><time>2026-03-20T07:39:11Z</time></trkpt>
<trkpt lat="43.0312870000" lon="0.2463550000"><ele>748</ele><time>2026-03-20T07:39:13Z</time></trkpt>
<trkpt lat="43.0312620000" lon="0.2463770000"><ele>748</ele><time>2026-03-20T07:39:15Z</time></trkpt>
<trkpt lat="43.0312420000" lon="0.2463970000"><ele>748</ele><time>2026-03-20T07:39:17Z</time></trkpt>
<trkpt lat="43.0312170000" lon="0.2464170000"><ele>749</ele><time>2026-03-20T07:39:19Z</time></trkpt>
<trkpt lat="43.0311970000" lon="0.2464270000"><ele>749</ele><time>2026-03-20T07:39:21Z</time></trkpt>
<trkpt lat="43.0311720000" lon="0.2464370000"><ele>749</ele><time>2026-03-20T07:39:23Z</time></trkpt>
<trkpt lat="43.0311500000" lon="0.2464470000"><ele>749</ele><time>2026-03-20T07:39:25Z</time></trkpt>
<trkpt lat="43.0311270000" lon="0.2464500000"><ele>749</ele><time>2026-03-20T07:39:27Z</time></trkpt>
<trkpt lat="43.0311070000" lon="0.2464520000"><ele>749</ele><time>2026-03-20T07:39:29Z</time></trkpt>
<trkpt lat="43.0310870000" lon="0.2464570000"><ele>749</ele><time>2026-03-20T07:39:31Z</time></trkpt>
<trkpt lat="43.0310670000" lon="0.2464620000"><ele>749</ele><time>2026-03-20T07:39:33Z</time></trkpt>
<trkpt lat="43.0310420000" lon="0.2464720000"><ele>750</ele><time>2026-03-20T07:39:35Z</time></trkpt>
<trkpt lat="43.0310200000" lon="0.2464850000"><ele>750</ele><time>2026-03-20T07:39:37Z</time></trkpt>
<trkpt lat="43.0309970000" lon="0.2464970000"><ele>750</ele><time>2026-03-20T07:39:39Z</time></trkpt>
<trkpt lat="43.0309770000" lon="0.2465200000"><ele>750</ele><time>2026-03-20T07:39:41Z</time></trkpt>
<trkpt lat="43.0309570000" lon="0.2465420000"><ele>750</ele><time>2026-03-20T07:39:43Z</time></trkpt>
<trkpt lat="43.0309370000" lon="0.2465570000"><ele>750</ele><time>2026-03-20T07:39:45Z</time></trkpt>
<trkpt lat="43.0309170000" lon="0.2465700000"><ele>750</ele><time>2026-03-20T07:39:47Z</time></trkpt>
<trkpt lat="43.0308920000" lon="0.2465870000"><ele>750</ele><time>2026-03-20T07:39:49Z</time></trkpt>
<trkpt lat="43.0308720000" lon="0.2465970000"><ele>751</ele><time>2026-03-20T07:39:51Z</time></trkpt>
<trkpt lat="43.0308500000" lon="0.2466120000"><ele>751</ele><time>2026-03-20T07:39:53Z</time></trkpt>
<trkpt lat="43.0308320000" lon="0.2466270000"><ele>751</ele><time>2026-03-20T07:39:55Z</time></trkpt>
<trkpt lat="43.0308120000" lon="0.2466470000"><ele>751</ele><time>2026-03-20T07:39:57Z</time></trkpt>
<trkpt lat="43.0307970000" lon="0.2466700000"><ele>751</ele><time>2026-03-20T07:39:59Z</time></trkpt>
<trkpt lat="43.0307770000" lon="0.2466880000"><ele>751</ele><time>2026-03-20T07:40:01Z</time></trkpt>
<trkpt lat="43.0307570000" lon="0.2467070000"><ele>751</ele><time>2026-03-20T07:40:03Z</time></trkpt>
<trkpt lat="43.0307350000" lon="0.2467220000"><ele>751</ele><time>2026-03-20T07:40:05Z</time></trkpt>
<trkpt lat="43.0307150000" lon="0.2467380000"><ele>751</ele><time>2026-03-20T07:40:07Z</time></trkpt>
<trkpt lat="43.0306950000" lon="0.2467570000"><ele>752</ele><time>2026-03-20T07:40:09Z</time></trkpt>
<trkpt lat="43.0306770000" lon="0.2467720000"><ele>752</ele><time>2026-03-20T07:40:11Z</time></trkpt>
<trkpt lat="43.0306550000" lon="0.2467900000"><ele>752</ele><time>2026-03-20T07:40:13Z</time></trkpt>
<trkpt lat="43.0306320000" lon="0.2468050000"><ele>752</ele><time>2026-03-20T07:40:15Z</time></trkpt>
<trkpt lat="43.0306120000" lon="0.2468230000"><ele>752</ele><time>2026-03-20T07:40:27Z</time></trkpt>
<trkpt lat="43.0305870000" lon="0.2468520000"><ele>752</ele><time>2026-03-20T07:40:29Z</time></trkpt>
<trkpt lat="43.0305620000" lon="0.2468670000"><ele>752</ele><time>2026-03-20T07:40:31Z</time></trkpt>
<trkpt lat="43.0305370000" lon="0.2468700000"><ele>752</ele><time>2026-03-20T07:40:33Z</time></trkpt>
<trkpt lat="43.0305150000" lon="0.2468650000"><ele>752</ele><time>2026-03-20T07:40:36Z</time></trkpt>
<trkpt lat="43.0304920000" lon="0.2468700000"><ele>753</ele><time>2026-03-20T07:40:43Z</time></trkpt>
<trkpt lat="43.0304770000" lon="0.2468820000"><ele>753</ele><time>2026-03-20T07:40:45Z</time></trkpt>
<trkpt lat="43.0304520000" lon="0.2468970000"><ele>753</ele><time>2026-03-20T07:40:48Z</time></trkpt>
<trkpt lat="43.0304370000" lon="0.2469220000"><ele>753</ele><time>2026-03-20T07:40:51Z</time></trkpt>
<trkpt lat="43.0304300000" lon="0.2469500000"><ele>753</ele><time>2026-03-20T07:40:54Z</time></trkpt>
<trkpt lat="43.0304520000" lon="0.2469550000"><ele>753</ele><time>2026-03-20T07:41:15Z</time></trkpt>
<trkpt lat="43.0304700000" lon="0.2469520000"><ele>753</ele><time>2026-03-20T07:41:19Z</time></trkpt>
<trkpt lat="43.0304850000" lon="0.2469800000"><ele>753</ele><time>2026-03-20T07:41:22Z</time></trkpt>
<trkpt lat="43.0304970000" lon="0.2470070000"><ele>753</ele><time>2026-03-20T07:41:25Z</time></trkpt>
<trkpt lat="43.0305100000" lon="0.2470370000"><ele>753</ele><time>2026-03-20T07:41:30Z</time></trkpt>
<trkpt lat="43.0305170000" lon="0.2470700000"><ele>753</ele><time>2026-03-20T07:41:32Z</time></trkpt>
<trkpt lat="43.0305170000" lon="0.2471020000"><ele>753</ele><time>2026-03-20T07:41:34Z</time></trkpt>
<trkpt lat="43.0305120000" lon="0.2471300000"><ele>753</ele><time>2026-03-20T07:41:36Z</time></trkpt>
<trkpt lat="43.0305100000" lon="0.2471550000"><ele>753</ele><time>2026-03-20T07:41:38Z</time></trkpt>
<trkpt lat="43.0305100000" lon="0.2471850000"><ele>753</ele><time>2026-03-20T07:41:40Z</time></trkpt>
<trkpt lat="43.0305020000" lon="0.2472120000"><ele>753</ele><time>2026-03-20T07:41:42Z</time></trkpt>
<trkpt lat="43.0304970000" lon="0.2472420000"><ele>753</ele><time>2026-03-20T07:41:45Z</time></trkpt>
<trkpt lat="43.0304900000" lon="0.2472670000"><ele>753</ele><time>2026-03-20T07:41:47Z</time></trkpt>
<trkpt lat="43.0304720000" lon="0.2472920000"><ele>753</ele><time>2026-03-20T07:41:50Z</time></trkpt>
<trkpt lat="43.0304520000" lon="0.2473100000"><ele>753</ele><time>2026-03-20T07:41:52Z</time></trkpt>
<trkpt lat="43.0304300000" lon="0.2473270000"><ele>753</ele><time>2026-03-20T07:41:54Z</time></trkpt>
<trkpt lat="43.0304050000" lon="0.2473320000"><ele>753</ele><time>2026-03-20T07:41:56Z</time></trkpt>
<trkpt lat="43.0303770000" lon="0.2473270000"><ele>753</ele><time>2026-03-20T07:41:59Z</time></trkpt>
<trkpt lat="43.0303670000" lon="0.2472970000"><ele>753</ele><time>2026-03-20T07:42:17Z</time></trkpt>
<trkpt lat="43.0303570000" lon="0.2472570000"><ele>753</ele><time>2026-03-20T07:42:19Z</time></trkpt>
<trkpt lat="43.0303470000" lon="0.2472370000"><ele>753</ele><time>2026-03-20T07:42:20Z</time></trkpt>
<trkpt lat="43.0303400000" lon="0.2472120000"><ele>753</ele><time>2026-03-20T07:42:22Z</time></trkpt>
<trkpt lat="43.0303520000" lon="0.2471850000"><ele>753</ele><time>2026-03-20T07:42:59Z</time></trkpt>
<trkpt lat="43.0303670000" lon="0.2471470000"><ele>753</ele><time>2026-03-20T07:43:01Z</time></trkpt>
<trkpt lat="43.0303720000" lon="0.2471220000"><ele>753</ele><time>2026-03-20T07:43:02Z</time></trkpt>
<trkpt lat="43.0303770000" lon="0.2470770000"><ele>753</ele><time>2026-03-20T07:43:04Z</time></trkpt>
<trkpt lat="43.0303870000" lon="0.2470320000"><ele>753</ele><time>2026-03-20T07:43:06Z</time></trkpt>
<trkpt lat="43.0303920000" lon="0.2470020000"><ele>754</ele><time>2026-03-20T07:43:08Z</time></trkpt>
<trkpt lat="43.0304120000" lon="0.2469820000"><ele>754</ele><time>2026-03-20T07:43:11Z</time></trkpt>
<trkpt lat="43.0304320000" lon="0.2469630000"><ele>754</ele><time>2026-03-20T07:43:14Z</time></trkpt>
<trkpt lat="43.0304320000" lon="0.2469320000"><ele>753</ele><time>2026-03-20T07:43:18Z</time></trkpt>
<trkpt lat="43.0304270000" lon="0.2469050000"><ele>753</ele><time>2026-03-20T07:43:20Z</time></trkpt>
<trkpt lat="43.0304150000" lon="0.2468830000"><ele>753</ele><time>2026-03-20T07:43:22Z</time></trkpt>
<trkpt lat="43.0304000000" lon="0.2468600000"><ele>753</ele><time>2026-03-20T07:43:25Z</time></trkpt>
<trkpt lat="43.0303850000" lon="0.2468400000"><ele>753</ele><time>2026-03-20T07:43:27Z</time></trkpt>
<trkpt lat="43.0303720000" lon="0.2468200000"><ele>754</ele><time>2026-03-20T07:43:29Z</time></trkpt>
<trkpt lat="43.0303520000" lon="0.2468000000"><ele>754</ele><time>2026-03-20T07:43:32Z</time></trkpt>
<trkpt lat="43.0303420000" lon="0.2467770000"><ele>754</ele><time>2026-03-20T07:43:34Z</time></trkpt>
<trkpt lat="43.0303320000" lon="0.2467520000"><ele>755</ele><time>2026-03-20T07:43:36Z</time></trkpt>
<trkpt lat="43.0303200000" lon="0.2467300000"><ele>755</ele><time>2026-03-20T07:43:38Z</time></trkpt>
<trkpt lat="43.0303070000" lon="0.2467070000"><ele>755</ele><time>2026-03-20T07:43:41Z</time></trkpt>
<trkpt lat="43.0302850000" lon="0.2466870000"><ele>756</ele><time>2026-03-20T07:44:09Z</time></trkpt>
<trkpt lat="43.0302670000" lon="0.2466520000"><ele>756</ele><time>2026-03-20T07:44:11Z</time></trkpt>
<trkpt lat="43.0302500000" lon="0.2466250000"><ele>756</ele><time>2026-03-20T07:44:13Z</time></trkpt>
<trkpt lat="43.0302270000" lon="0.2466220000"><ele>757</ele><time>2026-03-20T07:44:16Z</time></trkpt>
<trkpt lat="43.0302070000" lon="0.2466270000"><ele>757</ele><time>2026-03-20T07:44:19Z</time></trkpt>
<trkpt lat="43.0301870000" lon="0.2466320000"><ele>757</ele><time>2026-03-20T07:44:22Z</time></trkpt>
<trkpt lat="43.0301670000" lon="0.2466220000"><ele>758</ele><time>2026-03-20T07:44:26Z</time></trkpt>
<trkpt lat="43.0301500000" lon="0.2466170000"><ele>758</ele><time>2026-03-20T07:44:29Z</time></trkpt>
<trkpt lat="43.0301350000" lon="0.2465920000"><ele>759</ele><time>2026-03-20T07:44:32Z</time></trkpt>
<trkpt lat="43.0301120000" lon="0.2465800000"><ele>759</ele><time>2026-03-20T07:44:34Z</time></trkpt>
<trkpt lat="43.0301070000" lon="0.2465530000"><ele>760</ele><time>2026-03-20T07:44:49Z</time></trkpt>
<trkpt lat="43.0300950000" lon="0.2465350000"><ele>760</ele><time>2026-03-20T07:44:51Z</time></trkpt>
<trkpt lat="43.0300800000" lon="0.2465170000"><ele>760</ele><time>2026-03-20T07:44:53Z</time></trkpt>
<trkpt lat="43.0300650000" lon="0.2464970000"><ele>761</ele><time>2026-03-20T07:44:55Z</time></trkpt>
<trkpt lat="43.0300450000" lon="0.2464850000"><ele>761</ele><time>2026-03-20T07:44:58Z</time></trkpt>
<trkpt lat="43.0300370000" lon="0.2464550000"><ele>762</ele><time>2026-03-20T07:45:10Z</time></trkpt>
<trkpt lat="43.0300220000" lon="0.2464300000"><ele>762</ele><time>2026-03-20T07:45:12Z</time></trkpt>
<trkpt lat="43.0300070000" lon="0.2464020000"><ele>762</ele><time>2026-03-20T07:45:15Z</time></trkpt>
<trkpt lat="43.0299950000" lon="0.2463700000"><ele>762</ele><time>2026-03-20T07:45:19Z</time></trkpt>
<trkpt lat="43.0299870000" lon="0.2463470000"><ele>763</ele><time>2026-03-20T07:45:22Z</time></trkpt>
<trkpt lat="43.0299820000" lon="0.2463220000"><ele>763</ele><time>2026-03-20T07:45:25Z</time></trkpt>
<trkpt lat="43.0299620000" lon="0.2463000000"><ele>763</ele><time>2026-03-20T07:45:29Z</time></trkpt>
<trkpt lat="43.0299520000" lon="0.2462780000"><ele>764</ele><time>2026-03-20T07:45:33Z</time></trkpt>
<trkpt lat="43.0299420000" lon="0.2462520000"><ele>765</ele><time>2026-03-20T07:45:38Z</time></trkpt>
<trkpt lat="43.0299270000" lon="0.2462370000"><ele>765</ele><time>2026-03-20T07:45:42Z</time></trkpt>
<trkpt lat="43.0299200000" lon="0.2462100000"><ele>765</ele><time>2026-03-20T07:45:47Z</time></trkpt>
<trkpt lat="43.0299020000" lon="0.2461880000"><ele>766</ele><time>2026-03-20T07:45:50Z</time></trkpt>
<trkpt lat="43.0298920000" lon="0.2461620000"><ele>766</ele><time>2026-03-20T07:45:54Z</time></trkpt>
<trkpt lat="43.0298770000" lon="0.2461380000"><ele>767</ele><time>2026-03-20T07:45:57Z</time></trkpt>
<trkpt lat="43.0298720000" lon="0.2461150000"><ele>767</ele><time>2026-03-20T07:46:01Z</time></trkpt>
<trkpt lat="43.0298620000" lon="0.2460870000"><ele>768</ele><time>2026-03-20T07:46:06Z</time></trkpt>
<trkpt lat="43.0298470000" lon="0.2460770000"><ele>768</ele><time>2026-03-20T07:46:11Z</time></trkpt>
<trkpt lat="43.0298350000" lon="0.2460350000"><ele>771</ele><time>2026-03-20T07:46:38Z</time></trkpt>
<trkpt lat="43.0298200000" lon="0.2460150000"><ele>771</ele><time>2026-03-20T07:46:39Z</time></trkpt>
<trkpt lat="43.0298020000" lon="0.2459880000"><ele>772</ele><time>2026-03-20T07:46:40Z</time></trkpt>
<trkpt lat="43.0297850000" lon="0.2459650000"><ele>772</ele><time>2026-03-20T07:46:41Z</time></trkpt>
<trkpt lat="43.0297700000" lon="0.2459450000"><ele>772</ele><time>2026-03-20T07:46:42Z</time></trkpt>
<trkpt lat="43.0297520000" lon="0.2459170000"><ele>772</ele><time>2026-03-20T07:46:44Z</time></trkpt>
<trkpt lat="43.0297470000" lon="0.2458920000"><ele>772</ele><time>2026-03-20T07:46:47Z</time></trkpt>
<trkpt lat="43.0297220000" lon="0.2458870000"><ele>780</ele><time>2026-03-20T07:47:56Z</time></trkpt>
<trkpt lat="43.0297070000" lon="0.2458700000"><ele>780</ele><time>2026-03-20T07:47:57Z</time></trkpt>
<trkpt lat="43.0296900000" lon="0.2458470000"><ele>780</ele><time>2026-03-20T07:47:58Z</time></trkpt>
<trkpt lat="43.0296720000" lon="0.2458220000"><ele>780</ele><time>2026-03-20T07:47:59Z</time></trkpt>
<trkpt lat="43.0296600000" lon="0.2458020000"><ele>780</ele><time>2026-03-20T07:48:00Z</time></trkpt>
<trkpt lat="43.0296420000" lon="0.2457820000"><ele>781</ele><time>2026-03-20T07:48:02Z</time></trkpt>
<trkpt lat="43.0296350000" lon="0.2457600000"><ele>781</ele><time>2026-03-20T07:48:06Z</time></trkpt>
<trkpt lat="43.0296300000" lon="0.2457170000"><ele>784</ele><time>2026-03-20T07:48:38Z</time></trkpt>
<trkpt lat="43.0296270000" lon="0.2456870000"><ele>784</ele><time>2026-03-20T07:48:39Z</time></trkpt>
<trkpt lat="43.0296250000" lon="0.2456420000"><ele>784</ele><time>2026-03-20T07:48:40Z</time></trkpt>
<trkpt lat="43.0296200000" lon="0.2456020000"><ele>783</ele><time>2026-03-20T07:48:41Z</time></trkpt>
<trkpt lat="43.0296120000" lon="0.2455650000"><ele>783</ele><time>2026-03-20T07:48:42Z</time></trkpt>
<trkpt lat="43.0296070000" lon="0.2455370000"><ele>784</ele><time>2026-03-20T07:48:43Z</time></trkpt>
<trkpt lat="43.0295920000" lon="0.2455120000"><ele>784</ele><time>2026-03-20T07:48:45Z</time></trkpt>
<trkpt lat="43.0295870000" lon="0.2454850000"><ele>784</ele><time>2026-03-20T07:48:48Z</time></trkpt>
<trkpt lat="43.0295870000" lon="0.2454570000"><ele>784</ele><time>2026-03-20T07:48:52Z</time></trkpt>
<trkpt lat="43.0295770000" lon="0.2454370000"><ele>784</ele><time>2026-03-20T07:48:54Z</time></trkpt>
<trkpt lat="43.0295600000" lon="0.2454100000"><ele>784</ele><time>2026-03-20T07:48:57Z</time></trkpt>
<trkpt lat="43.0295520000" lon="0.2453820000"><ele>784</ele><time>2026-03-20T07:49:01Z</time></trkpt>
<trkpt lat="43.0295350000" lon="0.2453620000"><ele>785</ele><time>2026-03-20T07:49:04Z</time></trkpt>
<trkpt lat="43.0295170000" lon="0.2453470000"><ele>785</ele><time>2026-03-20T07:49:06Z</time></trkpt>
<trkpt lat="43.0294870000" lon="0.2453570000"><ele>785</ele><time>2026-03-20T07:49:10Z</time></trkpt>
<trkpt lat="43.0294800000" lon="0.2453220000"><ele>786</ele><time>2026-03-20T07:49:14Z</time></trkpt>
<trkpt lat="43.0294820000" lon="0.2452950000"><ele>786</ele><time>2026-03-20T07:49:16Z</time></trkpt>
<trkpt lat="43.0294620000" lon="0.2452820000"><ele>786</ele><time>2026-03-20T07:49:19Z</time></trkpt>
<trkpt lat="43.0294600000" lon="0.2452520000"><ele>787</ele><time>2026-03-20T07:49:23Z</time></trkpt>
<trkpt lat="43.0294470000" lon="0.2452300000"><ele>787</ele><time>2026-03-20T07:49:27Z</time></trkpt>
<trkpt lat="43.0294370000" lon="0.2452020000"><ele>788</ele><time>2026-03-20T07:49:31Z</time></trkpt>
<trkpt lat="43.0294320000" lon="0.2451630000"><ele>788</ele><time>2026-03-20T07:49:33Z</time></trkpt>
<trkpt lat="43.0294250000" lon="0.2451320000"><ele>789</ele><time>2026-03-20T07:49:37Z</time></trkpt>
<trkpt lat="43.0294470000" lon="0.2451300000"><ele>790</ele><time>2026-03-20T07:49:44Z</time></trkpt>
<trkpt lat="43.0294220000" lon="0.2450920000"><ele>793</ele><time>2026-03-20T07:50:07Z</time></trkpt>
<trkpt lat="43.0294020000" lon="0.2450670000"><ele>793</ele><time>2026-03-20T07:50:08Z</time></trkpt>
<trkpt lat="43.0293870000" lon="0.2450370000"><ele>793</ele><time>2026-03-20T07:50:09Z</time></trkpt>
<trkpt lat="43.0293770000" lon="0.2450120000"><ele>793</ele><time>2026-03-20T07:50:10Z</time></trkpt>
<trkpt lat="43.0293620000" lon="0.2449770000"><ele>793</ele><time>2026-03-20T07:50:12Z</time></trkpt>
<trkpt lat="43.0293520000" lon="0.2449520000"><ele>794</ele><time>2026-03-20T07:50:15Z</time></trkpt>
<trkpt lat="43.0293350000" lon="0.2449370000"><ele>795</ele><time>2026-03-20T07:50:22Z</time></trkpt>
<trkpt lat="43.0293270000" lon="0.2449120000"><ele>796</ele><time>2026-03-20T07:50:27Z</time></trkpt>
<trkpt lat="43.0293020000" lon="0.2448780000"><ele>802</ele><time>2026-03-20T07:51:13Z</time></trkpt>
<trkpt lat="43.0292720000" lon="0.2448550000"><ele>802</ele><time>2026-03-20T07:51:14Z</time></trkpt>
<trkpt lat="43.0292370000" lon="0.2448270000"><ele>802</ele><time>2026-03-20T07:51:15Z</time></trkpt>
<trkpt lat="43.0292020000" lon="0.2447980000"><ele>802</ele><time>2026-03-20T07:51:16Z</time></trkpt>
<trkpt lat="43.0291720000" lon="0.2447770000"><ele>802</ele><time>2026-03-20T07:51:17Z</time></trkpt>
<trkpt lat="43.0291520000" lon="0.2447620000"><ele>802</ele><time>2026-03-20T07:51:18Z</time></trkpt>
<trkpt lat="43.0291320000" lon="0.2447600000"><ele>802</ele><time>2026-03-20T07:51:20Z</time></trkpt>
<trkpt lat="43.0291220000" lon="0.2447320000"><ele>803</ele><time>2026-03-20T07:51:53Z</time></trkpt>
<trkpt lat="43.0291050000" lon="0.2447170000"><ele>803</ele><time>2026-03-20T07:51:55Z</time></trkpt>
<trkpt lat="43.0290870000" lon="0.2447100000"><ele>803</ele><time>2026-03-20T07:51:57Z</time></trkpt>
<trkpt lat="43.0290670000" lon="0.2447000000"><ele>803</ele><time>2026-03-20T07:51:59Z</time></trkpt>
<trkpt lat="43.0290470000" lon="0.2446870000"><ele>804</ele><time>2026-03-20T07:52:02Z</time></trkpt>
<trkpt lat="43.0290300000" lon="0.2446670000"><ele>804</ele><time>2026-03-20T07:52:07Z</time></trkpt>
<trkpt lat="43.0290050000" lon="0.2446620000"><ele>805</ele><time>2026-03-20T07:52:13Z</time></trkpt>
<trkpt lat="43.0289870000" lon="0.2446620000"><ele>807</ele><time>2026-03-20T07:52:24Z</time></trkpt>
<trkpt lat="43.0289600000" lon="0.2446580000"><ele>807</ele><time>2026-03-20T07:52:26Z</time></trkpt>
<trkpt lat="43.0289370000" lon="0.2446500000"><ele>807</ele><time>2026-03-20T07:52:28Z</time></trkpt>
<trkpt lat="43.0289200000" lon="0.2446450000"><ele>807</ele><time>2026-03-20T07:52:31Z</time></trkpt>
<trkpt lat="43.0288950000" lon="0.2446320000"><ele>811</ele><time>2026-03-20T07:53:02Z</time></trkpt>
<trkpt lat="43.0288720000" lon="0.2446220000"><ele>811</ele><time>2026-03-20T07:53:03Z</time></trkpt>
<trkpt lat="43.0288420000" lon="0.2446120000"><ele>811</ele><time>2026-03-20T07:53:04Z</time></trkpt>
<trkpt lat="43.0288120000" lon="0.2446020000"><ele>811</ele><time>2026-03-20T07:53:05Z</time></trkpt>
<trkpt lat="43.0287870000" lon="0.2445920000"><ele>811</ele><time>2026-03-20T07:53:06Z</time></trkpt>
<trkpt lat="43.0287620000" lon="0.2445800000"><ele>812</ele><time>2026-03-20T07:53:08Z</time></trkpt>
<trkpt lat="43.0287400000" lon="0.2445600000"><ele>812</ele><time>2026-03-20T07:53:11Z</time></trkpt>
<trkpt lat="43.0287220000" lon="0.2445470000"><ele>813</ele><time>2026-03-20T07:53:17Z</time></trkpt>
<trkpt lat="43.0287020000" lon="0.2445450000"><ele>813</ele><time>2026-03-20T07:53:22Z</time></trkpt>
<trkpt lat="43.0286850000" lon="0.2445520000"><ele>814</ele><time>2026-03-20T07:53:24Z</time></trkpt>
<trkpt lat="43.0286670000" lon="0.2445420000"><ele>815</ele><time>2026-03-20T07:53:40Z</time></trkpt>
<trkpt lat="43.0286470000" lon="0.2445230000"><ele>816</ele><time>2026-03-20T07:53:42Z</time></trkpt>
<trkpt lat="43.0286270000" lon="0.2445150000"><ele>816</ele><time>2026-03-20T07:53:44Z</time></trkpt>
<trkpt lat="43.0286070000" lon="0.2445150000"><ele>816</ele><time>2026-03-20T07:53:48Z</time></trkpt>
<trkpt lat="43.0285870000" lon="0.2445170000"><ele>817</ele><time>2026-03-20T07:53:52Z</time></trkpt>
<trkpt lat="43.0285770000" lon="0.2444970000"><ele>817</ele><time>2026-03-20T07:53:56Z</time></trkpt>
<trkpt lat="43.0285570000" lon="0.2444870000"><ele>818</ele><time>2026-03-20T07:54:02Z</time></trkpt>
<trkpt lat="43.0285400000" lon="0.2444820000"><ele>818</ele><time>2026-03-20T07:54:04Z</time></trkpt>
<trkpt lat="43.0285220000" lon="0.2444820000"><ele>820</ele><time>2026-03-20T07:54:18Z</time></trkpt>
<trkpt lat="43.0285000000" lon="0.2444820000"><ele>820</ele><time>2026-03-20T07:54:20Z</time></trkpt>
<trkpt lat="43.0284770000" lon="0.2444820000"><ele>821</ele><time>2026-03-20T07:54:22Z</time></trkpt>
<trkpt lat="43.0284570000" lon="0.2444820000"><ele>821</ele><time>2026-03-20T07:54:25Z</time></trkpt>
<trkpt lat="43.0284300000" lon="0.2444720000"><ele>827</ele><time>2026-03-20T07:55:18Z</time></trkpt>
<trkpt lat="43.0283970000" lon="0.2444670000"><ele>827</ele><time>2026-03-20T07:55:19Z</time></trkpt>
<trkpt lat="43.0283520000" lon="0.2444620000"><ele>827</ele><time>2026-03-20T07:55:20Z</time></trkpt>
<trkpt lat="43.0283080000" lon="0.2444570000"><ele>827</ele><time>2026-03-20T07:55:21Z</time></trkpt>
<trkpt lat="43.0282750000" lon="0.2444550000"><ele>827</ele><time>2026-03-20T07:55:22Z</time></trkpt>
<trkpt lat="43.0282550000" lon="0.2444520000"><ele>827</ele><time>2026-03-20T07:55:23Z</time></trkpt>
<trkpt lat="43.0282320000" lon="0.2444570000"><ele>827</ele><time>2026-03-20T07:55:25Z</time></trkpt>
<trkpt lat="43.0282200000" lon="0.2444320000"><ele>829</ele><time>2026-03-20T07:55:42Z</time></trkpt>
<trkpt lat="43.0282000000" lon="0.2444220000"><ele>829</ele><time>2026-03-20T07:55:45Z</time></trkpt>
<trkpt lat="43.0281770000" lon="0.2444170000"><ele>830</ele><time>2026-03-20T07:55:48Z</time></trkpt>
<trkpt lat="43.0281570000" lon="0.2444070000"><ele>830</ele><time>2026-03-20T07:55:52Z</time></trkpt>
<trkpt lat="43.0281370000" lon="0.2444070000"><ele>830</ele><time>2026-03-20T07:55:53Z</time></trkpt>
<trkpt lat="43.0281150000" lon="0.2444000000"><ele>831</ele><time>2026-03-20T07:55:56Z</time></trkpt>
<trkpt lat="43.0280950000" lon="0.2444150000"><ele>831</ele><time>2026-03-20T07:56:01Z</time></trkpt>
<trkpt lat="43.0280670000" lon="0.2444200000"><ele>833</ele><time>2026-03-20T07:56:19Z</time></trkpt>
<trkpt lat="43.0280500000" lon="0.2444150000"><ele>834</ele><time>2026-03-20T07:56:20Z</time></trkpt>
<trkpt lat="43.0280300000" lon="0.2444120000"><ele>834</ele><time>2026-03-20T07:56:21Z</time></trkpt>
<trkpt lat="43.0280120000" lon="0.2444070000"><ele>834</ele><time>2026-03-20T07:56:22Z</time></trkpt>
<trkpt lat="43.0279870000" lon="0.2444020000"><ele>834</ele><time>2026-03-20T07:56:24Z</time></trkpt>
<trkpt lat="43.0279750000" lon="0.2443870000"><ele>834</ele><time>2026-03-20T07:56:27Z</time></trkpt>
<trkpt lat="43.0279620000" lon="0.2443570000"><ele>835</ele><time>2026-03-20T07:56:31Z</time></trkpt>
<trkpt lat="43.0279420000" lon="0.2443520000"><ele>835</ele><time>2026-03-20T07:56:35Z</time></trkpt>
<trkpt lat="43.0279450000" lon="0.2443820000"><ele>836</ele><time>2026-03-20T07:56:40Z</time></trkpt>
<trkpt lat="43.0279270000" lon="0.2444000000"><ele>838</ele><time>2026-03-20T07:56:56Z</time></trkpt>
<trkpt lat="43.0279050000" lon="0.2443970000"><ele>838</ele><time>2026-03-20T07:56:58Z</time></trkpt>
<trkpt lat="43.0278820000" lon="0.2443820000"><ele>838</ele><time>2026-03-20T07:57:00Z</time></trkpt>
<trkpt lat="43.0278570000" lon="0.2443720000"><ele>839</ele><time>2026-03-20T07:57:02Z</time></trkpt>
<trkpt lat="43.0278400000" lon="0.2443750000"><ele>839</ele><time>2026-03-20T07:57:10Z</time></trkpt>
<trkpt lat="43.0278100000" lon="0.2443720000"><ele>841</ele><time>2026-03-20T07:57:23Z</time></trkpt>
<trkpt lat="43.0277850000" lon="0.2443600000"><ele>841</ele><time>2026-03-20T07:57:25Z</time></trkpt>
<trkpt lat="43.0277670000" lon="0.2443550000"><ele>841</ele><time>2026-03-20T07:57:28Z</time></trkpt>
<trkpt lat="43.0277470000" lon="0.2443500000"><ele>842</ele><time>2026-03-20T07:57:30Z</time></trkpt>
<trkpt lat="43.0277250000" lon="0.2443470000"><ele>843</ele><time>2026-03-20T07:57:43Z</time></trkpt>
<trkpt lat="43.0277000000" lon="0.2443420000"><ele>844</ele><time>2026-03-20T07:57:45Z</time></trkpt>
<trkpt lat="43.0276770000" lon="0.2443270000"><ele>844</ele><time>2026-03-20T07:57:48Z</time></trkpt>
<trkpt lat="43.0276600000" lon="0.2443070000"><ele>844</ele><time>2026-03-20T07:57:53Z</time></trkpt>
<trkpt lat="43.0276400000" lon="0.2443070000"><ele>846</ele><time>2026-03-20T07:58:03Z</time></trkpt>
<trkpt lat="43.0276200000" lon="0.2443220000"><ele>848</ele><time>2026-03-20T07:58:18Z</time></trkpt>
<trkpt lat="43.0275970000" lon="0.2443370000"><ele>848</ele><time>2026-03-20T07:58:20Z</time></trkpt>
<trkpt lat="43.0275750000" lon="0.2443370000"><ele>848</ele><time>2026-03-20T07:58:21Z</time></trkpt>
<trkpt lat="43.0275550000" lon="0.2443320000"><ele>849</ele><time>2026-03-20T07:58:23Z</time></trkpt>
<trkpt lat="43.0275370000" lon="0.2443380000"><ele>850</ele><time>2026-03-20T07:58:30Z</time></trkpt>
<trkpt lat="43.0275170000" lon="0.2443380000"><ele>852</ele><time>2026-03-20T07:58:56Z</time></trkpt>
<trkpt lat="43.0274970000" lon="0.2443370000"><ele>851</ele><time>2026-03-20T07:58:58Z</time></trkpt>
<trkpt lat="43.0274770000" lon="0.2443470000"><ele>852</ele><time>2026-03-20T07:59:00Z</time></trkpt>
<trkpt lat="43.0274650000" lon="0.2443720000"><ele>852</ele><time>2026-03-20T07:59:03Z</time></trkpt>
<trkpt lat="43.0274850000" lon="0.2443720000"><ele>852</ele><time>2026-03-20T07:59:07Z</time></trkpt>
<trkpt lat="43.0275050000" lon="0.2443500000"><ele>852</ele><time>2026-03-20T07:59:10Z</time></trkpt>
<trkpt lat="43.0274920000" lon="0.2443280000"><ele>852</ele><time>2026-03-20T07:59:38Z</time></trkpt>
<trkpt lat="43.0274570000" lon="0.2443220000"><ele>852</ele><time>2026-03-20T07:59:41Z</time></trkpt>
<trkpt lat="43.0274320000" lon="0.2443120000"><ele>853</ele><time>2026-03-20T07:59:43Z</time></trkpt>
<trkpt lat="43.0274170000" lon="0.2442950000"><ele>853</ele><time>2026-03-20T07:59:44Z</time></trkpt>
<trkpt lat="43.0273920000" lon="0.2442870000"><ele>853</ele><time>2026-03-20T07:59:46Z</time></trkpt>
<trkpt lat="43.0273700000" lon="0.2442970000"><ele>853</ele><time>2026-03-20T07:59:48Z</time></trkpt>
<trkpt lat="43.0273520000" lon="0.2442970000"><ele>853</ele><time>2026-03-20T07:59:49Z</time></trkpt>
<trkpt lat="43.0273320000" lon="0.2442900000"><ele>853</ele><time>2026-03-20T07:59:51Z</time></trkpt>
<trkpt lat="43.0273120000" lon="0.2442770000"><ele>854</ele><time>2026-03-20T07:59:54Z</time></trkpt>
<trkpt lat="43.0272920000" lon="0.2442820000"><ele>854</ele><time>2026-03-20T07:59:56Z</time></trkpt>
<trkpt lat="43.0272750000" lon="0.2442720000"><ele>854</ele><time>2026-03-20T08:00:00Z</time></trkpt>
<trkpt lat="43.0272520000" lon="0.2442550000"><ele>855</ele><time>2026-03-20T08:00:03Z</time></trkpt>
<trkpt lat="43.0272350000" lon="0.2442420000"><ele>855</ele><time>2026-03-20T08:00:06Z</time></trkpt>
<trkpt lat="43.0272120000" lon="0.2442430000"><ele>855</ele><time>2026-03-20T08:00:08Z</time></trkpt>
<trkpt lat="43.0271920000" lon="0.2442320000"><ele>855</ele><time>2026-03-20T08:00:11Z</time></trkpt>
<trkpt lat="43.0271680000" lon="0.2442270000"><ele>856</ele><time>2026-03-20T08:00:15Z</time></trkpt>
<trkpt lat="43.0271520000" lon="0.2442200000"><ele>856</ele><time>2026-03-20T08:00:18Z</time></trkpt>
<trkpt lat="43.0271220000" lon="0.2442220000"><ele>856</ele><time>2026-03-20T08:00:22Z</time></trkpt>
<trkpt lat="43.0270970000" lon="0.2442120000"><ele>857</ele><time>2026-03-20T08:00:24Z</time></trkpt>
<trkpt lat="43.0270750000" lon="0.2442150000"><ele>857</ele><time>2026-03-20T08:00:26Z</time></trkpt>
<trkpt lat="43.0270550000" lon="0.2442070000"><ele>858</ele><time>2026-03-20T08:00:32Z</time></trkpt>
<trkpt lat="43.0270270000" lon="0.2441920000"><ele>858</ele><time>2026-03-20T08:00:35Z</time></trkpt>
<trkpt lat="43.0270000000" lon="0.2441770000"><ele>859</ele><time>2026-03-20T08:00:38Z</time></trkpt>
<trkpt lat="43.0269750000" lon="0.2441670000"><ele>859</ele><time>2026-03-20T08:00:40Z</time></trkpt>
<trkpt lat="43.0269570000" lon="0.2441570000"><ele>859</ele><time>2026-03-20T08:00:43Z</time></trkpt>
<trkpt lat="43.0269370000" lon="0.2441420000"><ele>860</ele><time>2026-03-20T08:00:48Z</time></trkpt>
<trkpt lat="43.0269150000" lon="0.2441420000"><ele>860</ele><time>2026-03-20T08:00:53Z</time></trkpt>
<trkpt lat="43.0268920000" lon="0.2441250000"><ele>861</ele><time>2026-03-20T08:00:55Z</time></trkpt>
<trkpt lat="43.0268720000" lon="0.2441070000"><ele>861</ele><time>2026-03-20T08:00:59Z</time></trkpt>
<trkpt lat="43.0268570000" lon="0.2440870000"><ele>861</ele><time>2026-03-20T08:01:01Z</time></trkpt>
<trkpt lat="43.0268400000" lon="0.2440800000"><ele>862</ele><time>2026-03-20T08:01:03Z</time></trkpt>
<trkpt lat="43.0268200000" lon="0.2440770000"><ele>862</ele><time>2026-03-20T08:01:08Z</time></trkpt>
<trkpt lat="43.0267970000" lon="0.2440720000"><ele>863</ele><time>2026-03-20T08:01:10Z</time></trkpt>
<trkpt lat="43.0267750000" lon="0.2440750000"><ele>863</ele><time>2026-03-20T08:01:18Z</time></trkpt>
<trkpt lat="43.0267670000" lon="0.2440970000"><ele>864</ele><time>2026-03-20T08:01:21Z</time></trkpt>
<trkpt lat="43.0267470000" lon="0.2440970000"><ele>865</ele><time>2026-03-20T08:01:29Z</time></trkpt>
<trkpt lat="43.0267270000" lon="0.2440850000"><ele>865</ele><time>2026-03-20T08:01:31Z</time></trkpt>
<trkpt lat="43.0267070000" lon="0.2440720000"><ele>865</ele><time>2026-03-20T08:01:33Z</time></trkpt>
<trkpt lat="43.0266820000" lon="0.2440720000"><ele>866</ele><time>2026-03-20T08:01:36Z</time></trkpt>
<trkpt lat="43.0266570000" lon="0.2440770000"><ele>866</ele><time>2026-03-20T08:01:39Z</time></trkpt>
<trkpt lat="43.0266400000" lon="0.2440720000"><ele>867</ele><time>2026-03-20T08:01:42Z</time></trkpt>
<trkpt lat="43.0266250000" lon="0.2440900000"><ele>867</ele><time>2026-03-20T08:01:45Z</time></trkpt>
<trkpt lat="43.0266020000" lon="0.2441070000"><ele>869</ele><time>2026-03-20T08:01:57Z</time></trkpt>
<trkpt lat="43.0265770000" lon="0.2441120000"><ele>869</ele><time>2026-03-20T08:02:00Z</time></trkpt>
<trkpt lat="43.0265570000" lon="0.2441070000"><ele>870</ele><time>2026-03-20T08:02:05Z</time></trkpt>
<trkpt lat="43.0265120000" lon="0.2441070000"><ele>875</ele><time>2026-03-20T08:02:37Z</time></trkpt>
<trkpt lat="43.0264720000" lon="0.2441030000"><ele>875</ele><time>2026-03-20T08:02:38Z</time></trkpt>
<trkpt lat="43.0264320000" lon="0.2441020000"><ele>875</ele><time>2026-03-20T08:02:39Z</time></trkpt>
<trkpt lat="43.0264020000" lon="0.2441020000"><ele>875</ele><time>2026-03-20T08:02:40Z</time></trkpt>
<trkpt lat="43.0263720000" lon="0.2440970000"><ele>875</ele><time>2026-03-20T08:02:42Z</time></trkpt>
<trkpt lat="43.0263520000" lon="0.2440850000"><ele>876</ele><time>2026-03-20T08:02:45Z</time></trkpt>
<trkpt lat="43.0263220000" lon="0.2440480000"><ele>876</ele><time>2026-03-20T08:02:47Z</time></trkpt>
<trkpt lat="43.0263000000" lon="0.2440620000"><ele>877</ele><time>2026-03-20T08:02:55Z</time></trkpt>
<trkpt lat="43.0262820000" lon="0.2440520000"><ele>877</ele><time>2026-03-20T08:02:58Z</time></trkpt>
<trkpt lat="43.0262600000" lon="0.2440320000"><ele>878</ele><time>2026-03-20T08:03:06Z</time></trkpt>
<trkpt lat="43.0262420000" lon="0.2440270000"><ele>878</ele><time>2026-03-20T08:03:08Z</time></trkpt>
<trkpt lat="43.0262200000" lon="0.2440320000"><ele>879</ele><time>2026-03-20T08:03:11Z</time></trkpt>
<trkpt lat="43.0261970000" lon="0.2440220000"><ele>879</ele><time>2026-03-20T08:03:15Z</time></trkpt>
<trkpt lat="43.0261920000" lon="0.2439970000"><ele>880</ele><time>2026-03-20T08:03:20Z</time></trkpt>
<trkpt lat="43.0261720000" lon="0.2439920000"><ele>880</ele><time>2026-03-20T08:03:24Z</time></trkpt>
<trkpt lat="43.0261500000" lon="0.2440020000"><ele>880</ele><time>2026-03-20T08:03:28Z</time></trkpt>
<trkpt lat="43.0261300000" lon="0.2440070000"><ele>881</ele><time>2026-03-20T08:03:31Z</time></trkpt>
<trkpt lat="43.0261070000" lon="0.2440120000"><ele>881</ele><time>2026-03-20T08:03:34Z</time></trkpt>
<trkpt lat="43.0260870000" lon="0.2440050000"><ele>881</ele><time>2026-03-20T08:03:37Z</time></trkpt>
<trkpt lat="43.0260670000" lon="0.2439770000"><ele>882</ele><time>2026-03-20T08:03:40Z</time></trkpt>
<trkpt lat="43.0260470000" lon="0.2439500000"><ele>882</ele><time>2026-03-20T08:03:43Z</time></trkpt>
<trkpt lat="43.0260170000" lon="0.2439620000"><ele>882</ele><time>2026-03-20T08:03:45Z</time></trkpt>
<trkpt lat="43.0259920000" lon="0.2439450000"><ele>883</ele><time>2026-03-20T08:04:19Z</time></trkpt>
<trkpt lat="43.0259770000" lon="0.2439350000"><ele>883</ele><time>2026-03-20T08:04:21Z</time></trkpt>
<trkpt lat="43.0259670000" lon="0.2439600000"><ele>884</ele><time>2026-03-20T08:04:25Z</time></trkpt>
<trkpt lat="43.0259420000" lon="0.2439570000"><ele>884</ele><time>2026-03-20T08:04:28Z</time></trkpt>
<trkpt lat="43.0259200000" lon="0.2439420000"><ele>884</ele><time>2026-03-20T08:04:30Z</time></trkpt>
<trkpt lat="43.0258950000" lon="0.2439350000"><ele>885</ele><time>2026-03-20T08:04:33Z</time></trkpt>
<trkpt lat="43.0258720000" lon="0.2439270000"><ele>885</ele><time>2026-03-20T08:04:37Z</time></trkpt>
<trkpt lat="43.0258450000" lon="0.2439120000"><ele>885</ele><time>2026-03-20T08:04:40Z</time></trkpt>
<trkpt lat="43.0258220000" lon="0.2439020000"><ele>885</ele><time>2026-03-20T08:04:43Z</time></trkpt>
<trkpt lat="43.0258020000" lon="0.2438970000"><ele>886</ele><time>2026-03-20T08:04:45Z</time></trkpt>
<trkpt lat="43.0257750000" lon="0.2438950000"><ele>886</ele><time>2026-03-20T08:04:48Z</time></trkpt>
<trkpt lat="43.0257550000" lon="0.2438970000"><ele>886</ele><time>2026-03-20T08:04:51Z</time></trkpt>
<trkpt lat="43.0257370000" lon="0.2438970000"><ele>886</ele><time>2026-03-20T08:04:54Z</time></trkpt>
<trkpt lat="43.0257170000" lon="0.2438950000"><ele>887</ele><time>2026-03-20T08:04:57Z</time></trkpt>
<trkpt lat="43.0256970000" lon="0.2438850000"><ele>887</ele><time>2026-03-20T08:04:59Z</time></trkpt>
<trkpt lat="43.0256800000" lon="0.2438750000"><ele>887</ele><time>2026-03-20T08:05:02Z</time></trkpt>
<trkpt lat="43.0256570000" lon="0.2438570000"><ele>887</ele><time>2026-03-20T08:05:17Z</time></trkpt>
<trkpt lat="43.0256370000" lon="0.2438450000"><ele>887</ele><time>2026-03-20T08:05:20Z</time></trkpt>
<trkpt lat="43.0256120000" lon="0.2438520000"><ele>887</ele><time>2026-03-20T08:05:25Z</time></trkpt>
<trkpt lat="43.0255900000" lon="0.2438400000"><ele>887</ele><time>2026-03-20T08:05:28Z</time></trkpt>
<trkpt lat="43.0255650000" lon="0.2438420000"><ele>887</ele><time>2026-03-20T08:05:31Z</time></trkpt>
<trkpt lat="43.0255500000" lon="0.2438600000"><ele>887</ele><time>2026-03-20T08:05:49Z</time></trkpt>
<trkpt lat="43.0255270000" lon="0.2438820000"><ele>887</ele><time>2026-03-20T08:05:52Z</time></trkpt>
<trkpt lat="43.0255080000" lon="0.2438920000"><ele>887</ele><time>2026-03-20T08:05:54Z</time></trkpt>
<trkpt lat="43.0254920000" lon="0.2439020000"><ele>888</ele><time>2026-03-20T08:05:57Z</time></trkpt>
<trkpt lat="43.0254720000" lon="0.2438970000"><ele>888</ele><time>2026-03-20T08:06:00Z</time></trkpt>
<trkpt lat="43.0254470000" lon="0.2438950000"><ele>889</ele><time>2026-03-20T08:06:03Z</time></trkpt>
<trkpt lat="43.0254300000" lon="0.2438970000"><ele>889</ele><time>2026-03-20T08:06:06Z</time></trkpt>
<trkpt lat="43.0254120000" lon="0.2438920000"><ele>889</ele><time>2026-03-20T08:06:09Z</time></trkpt>
<trkpt lat="43.0253970000" lon="0.2439120000"><ele>889</ele><time>2026-03-20T08:06:11Z</time></trkpt>
<trkpt lat="43.0254000000" lon="0.2439370000"><ele>890</ele><time>2026-03-20T08:06:13Z</time></trkpt>
<trkpt lat="43.0254150000" lon="0.2439550000"><ele>890</ele><time>2026-03-20T08:06:17Z</time></trkpt>
<trkpt lat="43.0254370000" lon="0.2439620000"><ele>890</ele><time>2026-03-20T08:06:19Z</time></trkpt>
<trkpt lat="43.0254570000" lon="0.2439720000"><ele>891</ele><time>2026-03-20T08:06:22Z</time></trkpt>
<trkpt lat="43.0254770000" lon="0.2439770000"><ele>891</ele><time>2026-03-20T08:06:24Z</time></trkpt>
<trkpt lat="43.0254970000" lon="0.2439820000"><ele>891</ele><time>2026-03-20T08:06:26Z</time></trkpt>
<trkpt lat="43.0255150000" lon="0.2439970000"><ele>891</ele><time>2026-03-20T08:06:28Z</time></trkpt>
<trkpt lat="43.0255370000" lon="0.2440170000"><ele>892</ele><time>2026-03-20T08:06:31Z</time></trkpt>
<trkpt lat="43.0255500000" lon="0.2440370000"><ele>892</ele><time>2026-03-20T08:06:34Z</time></trkpt>
<trkpt lat="43.0255670000" lon="0.2440530000"><ele>893</ele><time>2026-03-20T08:06:36Z</time></trkpt>
<trkpt lat="43.0255820000" lon="0.2440770000"><ele>893</ele><time>2026-03-20T08:06:38Z</time></trkpt>
<trkpt lat="43.0255970000" lon="0.2441000000"><ele>893</ele><time>2026-03-20T08:06:40Z</time></trkpt>
<trkpt lat="43.0256070000" lon="0.2441270000"><ele>893</ele><time>2026-03-20T08:06:42Z</time></trkpt>
<trkpt lat="43.0256100000" lon="0.2441520000"><ele>893</ele><time>2026-03-20T08:06:44Z</time></trkpt>
<trkpt lat="43.0256050000" lon="0.2441820000"><ele>894</ele><time>2026-03-20T08:06:47Z</time></trkpt>
<trkpt lat="43.0255950000" lon="0.2442070000"><ele>894</ele><time>2026-03-20T08:06:49Z</time></trkpt>
<trkpt lat="43.0255770000" lon="0.2442250000"><ele>894</ele><time>2026-03-20T08:06:51Z</time></trkpt>
<trkpt lat="43.0255600000" lon="0.2442420000"><ele>894</ele><time>2026-03-20T08:06:54Z</time></trkpt>
<trkpt lat="43.0255370000" lon="0.2442550000"><ele>895</ele><time>2026-03-20T08:06:57Z</time></trkpt>
<trkpt lat="43.0255200000" lon="0.2442550000"><ele>895</ele><time>2026-03-20T08:06:59Z</time></trkpt>
<trkpt lat="43.0255020000" lon="0.2442620000"><ele>895</ele><time>2026-03-20T08:07:01Z</time></trkpt>
<trkpt lat="43.0254820000" lon="0.2442670000"><ele>895</ele><time>2026-03-20T08:07:03Z</time></trkpt>
<trkpt lat="43.0254650000" lon="0.2442720000"><ele>896</ele><time>2026-03-20T08:07:05Z</time></trkpt>
<trkpt lat="43.0254470000" lon="0.2442800000"><ele>896</ele><time>2026-03-20T08:07:07Z</time></trkpt>
<trkpt lat="43.0254270000" lon="0.2442800000"><ele>897</ele><time>2026-03-20T08:07:13Z</time></trkpt>
<trkpt lat="43.0253950000" lon="0.2442770000"><ele>897</ele><time>2026-03-20T08:07:33Z</time></trkpt>
<trkpt lat="43.0253750000" lon="0.2442800000"><ele>897</ele><time>2026-03-20T08:07:34Z</time></trkpt>
<trkpt lat="43.0253570000" lon="0.2442870000"><ele>898</ele><time>2026-03-20T08:07:35Z</time></trkpt>
<trkpt lat="43.0253370000" lon="0.2442970000"><ele>898</ele><time>2026-03-20T08:07:36Z</time></trkpt>
<trkpt lat="43.0253200000" lon="0.2443070000"><ele>898</ele><time>2026-03-20T08:07:37Z</time></trkpt>
<trkpt lat="43.0252950000" lon="0.2443150000"><ele>898</ele><time>2026-03-20T08:07:39Z</time></trkpt>
<trkpt lat="43.0252700000" lon="0.2443150000"><ele>899</ele><time>2026-03-20T08:07:41Z</time></trkpt>
<trkpt lat="43.0252470000" lon="0.2443170000"><ele>899</ele><time>2026-03-20T08:07:44Z</time></trkpt>
<trkpt lat="43.0252200000" lon="0.2443220000"><ele>899</ele><time>2026-03-20T08:07:47Z</time></trkpt>
<trkpt lat="43.0251980000" lon="0.2443320000"><ele>900</ele><time>2026-03-20T08:07:49Z</time></trkpt>
<trkpt lat="43.0251770000" lon="0.2443420000"><ele>900</ele><time>2026-03-20T08:07:51Z</time></trkpt>
<trkpt lat="43.0251550000" lon="0.2443470000"><ele>900</ele><time>2026-03-20T08:07:53Z</time></trkpt>
<trkpt lat="43.0251320000" lon="0.2443520000"><ele>900</ele><time>2026-03-20T08:07:55Z</time></trkpt>
<trkpt lat="43.0251120000" lon="0.2443600000"><ele>901</ele><time>2026-03-20T08:07:57Z</time></trkpt>
<trkpt lat="43.0250970000" lon="0.2443820000"><ele>901</ele><time>2026-03-20T08:07:59Z</time></trkpt>
<trkpt lat="43.0250770000" lon="0.2444050000"><ele>901</ele><time>2026-03-20T08:08:01Z</time></trkpt>
<trkpt lat="43.0250570000" lon="0.2444220000"><ele>901</ele><time>2026-03-20T08:08:03Z</time></trkpt>
<trkpt lat="43.0250420000" lon="0.2444320000"><ele>902</ele><time>2026-03-20T08:08:05Z</time></trkpt>
<trkpt lat="43.0250170000" lon="0.2444270000"><ele>902</ele><time>2026-03-20T08:08:08Z</time></trkpt>
<trkpt lat="43.0250000000" lon="0.2444220000"><ele>903</ele><time>2026-03-20T08:08:10Z</time></trkpt>
<trkpt lat="43.0249770000" lon="0.2444200000"><ele>903</ele><time>2026-03-20T08:08:13Z</time></trkpt>
<trkpt lat="43.0249620000" lon="0.2444100000"><ele>903</ele><time>2026-03-20T08:08:16Z</time></trkpt>
<trkpt lat="43.0249370000" lon="0.2444170000"><ele>904</ele><time>2026-03-20T08:08:19Z</time></trkpt>
<trkpt lat="43.0249150000" lon="0.2444270000"><ele>905</ele><time>2026-03-20T08:08:22Z</time></trkpt>
<trkpt lat="43.0248900000" lon="0.2444300000"><ele>905</ele><time>2026-03-20T08:08:25Z</time></trkpt>
<trkpt lat="43.0248720000" lon="0.2444320000"><ele>905</ele><time>2026-03-20T08:08:27Z</time></trkpt>
<trkpt lat="43.0248520000" lon="0.2444420000"><ele>905</ele><time>2026-03-20T08:08:29Z</time></trkpt>
<trkpt lat="43.0248270000" lon="0.2444520000"><ele>906</ele><time>2026-03-20T08:08:32Z</time></trkpt>
<trkpt lat="43.0248020000" lon="0.2444780000"><ele>906</ele><time>2026-03-20T08:08:34Z</time></trkpt>
<trkpt lat="43.0247800000" lon="0.2444920000"><ele>906</ele><time>2026-03-20T08:08:36Z</time></trkpt>
<trkpt lat="43.0247620000" lon="0.2445070000"><ele>906</ele><time>2026-03-20T08:08:38Z</time></trkpt>
<trkpt lat="43.0247370000" lon="0.2445220000"><ele>907</ele><time>2026-03-20T08:08:41Z</time></trkpt>
<trkpt lat="43.0247170000" lon="0.2445400000"><ele>907</ele><time>2026-03-20T08:08:44Z</time></trkpt>
<trkpt lat="43.0247070000" lon="0.2445670000"><ele>907</ele><time>2026-03-20T08:08:47Z</time></trkpt>
<trkpt lat="43.0246850000" lon="0.2445920000"><ele>908</ele><time>2026-03-20T08:08:50Z</time></trkpt>
<trkpt lat="43.0246620000" lon="0.2446130000"><ele>908</ele><time>2026-03-20T08:08:53Z</time></trkpt>
<trkpt lat="43.0246370000" lon="0.2446320000"><ele>908</ele><time>2026-03-20T08:08:56Z</time></trkpt>
<trkpt lat="43.0246170000" lon="0.2446520000"><ele>908</ele><time>2026-03-20T08:08:59Z</time></trkpt>
<trkpt lat="43.0246020000" lon="0.2446700000"><ele>909</ele><time>2026-03-20T08:09:03Z</time></trkpt>
<trkpt lat="43.0245820000" lon="0.2446770000"><ele>909</ele><time>2026-03-20T08:09:15Z</time></trkpt>
<trkpt lat="43.0245650000" lon="0.2447000000"><ele>909</ele><time>2026-03-20T08:09:17Z</time></trkpt>
<trkpt lat="43.0245520000" lon="0.2447270000"><ele>909</ele><time>2026-03-20T08:09:19Z</time></trkpt>
<trkpt lat="43.0245370000" lon="0.2447570000"><ele>910</ele><time>2026-03-20T08:09:22Z</time></trkpt>
<trkpt lat="43.0245270000" lon="0.2447820000"><ele>910</ele><time>2026-03-20T08:09:24Z</time></trkpt>
<trkpt lat="43.0245070000" lon="0.2448070000"><ele>910</ele><time>2026-03-20T08:09:27Z</time></trkpt>
<trkpt lat="43.0244950000" lon="0.2448370000"><ele>911</ele><time>2026-03-20T08:09:30Z</time></trkpt>
<trkpt lat="43.0244870000" lon="0.2448620000"><ele>911</ele><time>2026-03-20T08:09:32Z</time></trkpt>
<trkpt lat="43.0244720000" lon="0.2448920000"><ele>911</ele><time>2026-03-20T08:09:35Z</time></trkpt>
<trkpt lat="43.0244570000" lon="0.2449220000"><ele>911</ele><time>2026-03-20T08:09:38Z</time></trkpt>
<trkpt lat="43.0244420000" lon="0.2449520000"><ele>912</ele><time>2026-03-20T08:09:41Z</time></trkpt>
<trkpt lat="43.0244320000" lon="0.2449770000"><ele>912</ele><time>2026-03-20T08:09:43Z</time></trkpt>
<trkpt lat="43.0244220000" lon="0.2449970000"><ele>912</ele><time>2026-03-20T08:09:45Z</time></trkpt>
<trkpt lat="43.0244070000" lon="0.2450170000"><ele>912</ele><time>2026-03-20T08:09:48Z</time></trkpt>
<trkpt lat="43.0243920000" lon="0.2450280000"><ele>912</ele><time>2026-03-20T08:09:50Z</time></trkpt>
<trkpt lat="43.0243720000" lon="0.2450330000"><ele>912</ele><time>2026-03-20T08:09:52Z</time></trkpt>
<trkpt lat="43.0243420000" lon="0.2450650000"><ele>913</ele><time>2026-03-20T08:09:56Z</time></trkpt>
<trkpt lat="43.0243170000" lon="0.2450470000"><ele>913</ele><time>2026-03-20T08:10:17Z</time></trkpt>
<trkpt lat="43.0242950000" lon="0.2450170000"><ele>913</ele><time>2026-03-20T08:10:19Z</time></trkpt>
<trkpt lat="43.0242850000" lon="0.2449900000"><ele>913</ele><time>2026-03-20T08:10:21Z</time></trkpt>
<trkpt lat="43.0242920000" lon="0.2449650000"><ele>913</ele><time>2026-03-20T08:10:27Z</time></trkpt>
<trkpt lat="43.0243100000" lon="0.2449420000"><ele>912</ele><time>2026-03-20T08:11:29Z</time></trkpt>
<trkpt lat="43.0243170000" lon="0.2449150000"><ele>913</ele><time>2026-03-20T08:11:31Z</time></trkpt>
<trkpt lat="43.0243100000" lon="0.2449470000"><ele>913</ele><time>2026-03-20T08:13:00Z</time></trkpt>
<trkpt lat="43.0243270000" lon="0.2449380000"><ele>913</ele><time>2026-03-20T08:15:44Z</time></trkpt>
<trkpt lat="43.0243250000" lon="0.2449700000"><ele>913</ele><time>2026-03-20T08:16:32Z</time></trkpt>
<trkpt lat="43.0243020000" lon="0.2449920000"><ele>913</ele><time>2026-03-20T08:16:35Z</time></trkpt>
<trkpt lat="43.0242770000" lon="0.2449870000"><ele>914</ele><time>2026-03-20T08:16:37Z</time></trkpt>
<trkpt lat="43.0242550000" lon="0.2449620000"><ele>914</ele><time>2026-03-20T08:16:39Z</time></trkpt>
<trkpt lat="43.0242400000" lon="0.2449320000"><ele>914</ele><time>2026-03-20T08:16:41Z</time></trkpt>
<trkpt lat="43.0242170000" lon="0.2449200000"><ele>914</ele><time>2026-03-20T08:16:43Z</time></trkpt>
<trkpt lat="43.0241950000" lon="0.2448970000"><ele>914</ele><time>2026-03-20T08:16:45Z</time></trkpt>
<trkpt lat="43.0241750000" lon="0.2448720000"><ele>914</ele><time>2026-03-20T08:16:47Z</time></trkpt>
<trkpt lat="43.0241700000" lon="0.2448450000"><ele>915</ele><time>2026-03-20T08:16:49Z</time></trkpt>
<trkpt lat="43.0241570000" lon="0.2448220000"><ele>915</ele><time>2026-03-20T08:16:51Z</time></trkpt>
<trkpt lat="43.0241470000" lon="0.2447950000"><ele>915</ele><time>2026-03-20T08:16:53Z</time></trkpt>
<trkpt lat="43.0241350000" lon="0.2447720000"><ele>915</ele><time>2026-03-20T08:16:55Z</time></trkpt>
<trkpt lat="43.0241200000" lon="0.2447530000"><ele>915</ele><time>2026-03-20T08:16:57Z</time></trkpt>
<trkpt lat="43.0241020000" lon="0.2447220000"><ele>915</ele><time>2026-03-20T08:17:00Z</time></trkpt>
<trkpt lat="43.0240970000" lon="0.2446970000"><ele>915</ele><time>2026-03-20T08:17:02Z</time></trkpt>
<trkpt lat="43.0240870000" lon="0.2446700000"><ele>915</ele><time>2026-03-20T08:17:04Z</time></trkpt>
<trkpt lat="43.0240750000" lon="0.2446470000"><ele>915</ele><time>2026-03-20T08:17:06Z</time></trkpt>
<trkpt lat="43.0240620000" lon="0.2446200000"><ele>915</ele><time>2026-03-20T08:17:08Z</time></trkpt>
<trkpt lat="43.0240500000" lon="0.2445970000"><ele>916</ele><time>2026-03-20T08:17:10Z</time></trkpt>
<trkpt lat="43.0240370000" lon="0.2445720000"><ele>916</ele><time>2026-03-20T08:17:12Z</time></trkpt>
<trkpt lat="43.0240300000" lon="0.2445470000"><ele>916</ele><time>2026-03-20T08:17:14Z</time></trkpt>
<trkpt lat="43.0240200000" lon="0.2445220000"><ele>916</ele><time>2026-03-20T08:17:16Z</time></trkpt>
<trkpt lat="43.0240200000" lon="0.2444970000"><ele>916</ele><time>2026-03-20T08:17:18Z</time></trkpt>
<trkpt lat="43.0240070000" lon="0.2444720000"><ele>916</ele><time>2026-03-20T08:17:20Z</time></trkpt>
<trkpt lat="43.0239920000" lon="0.2444450000"><ele>917</ele><time>2026-03-20T08:17:22Z</time></trkpt>
<trkpt lat="43.0239820000" lon="0.2444070000"><ele>917</ele><time>2026-03-20T08:17:25Z</time></trkpt>
<trkpt lat="43.0239800000" lon="0.2443820000"><ele>918</ele><time>2026-03-20T08:17:27Z</time></trkpt>
<trkpt lat="43.0239800000" lon="0.2443470000"><ele>919</ele><time>2026-03-20T08:17:52Z</time></trkpt>
<trkpt lat="43.0239750000" lon="0.2443120000"><ele>919</ele><time>2026-03-20T08:17:54Z</time></trkpt>
<trkpt lat="43.0239670000" lon="0.2442900000"><ele>919</ele><time>2026-03-20T08:18:02Z</time></trkpt>
<trkpt lat="43.0239450000" lon="0.2442870000"><ele>920</ele><time>2026-03-20T08:18:12Z</time></trkpt>
<trkpt lat="43.0239250000" lon="0.2442620000"><ele>920</ele><time>2026-03-20T08:18:14Z</time></trkpt>
<trkpt lat="43.0239020000" lon="0.2442400000"><ele>920</ele><time>2026-03-20T08:18:16Z</time></trkpt>
<trkpt lat="43.0238900000" lon="0.2442150000"><ele>921</ele><time>2026-03-20T08:18:18Z</time></trkpt>
<trkpt lat="43.0238720000" lon="0.2441920000"><ele>921</ele><time>2026-03-20T08:18:21Z</time></trkpt>
<trkpt lat="43.0238570000" lon="0.2441720000"><ele>922</ele><time>2026-03-20T08:18:23Z</time></trkpt>
<trkpt lat="43.0238420000" lon="0.2441570000"><ele>922</ele><time>2026-03-20T08:18:25Z</time></trkpt>
<trkpt lat="43.0238250000" lon="0.2441350000"><ele>922</ele><time>2026-03-20T08:18:28Z</time></trkpt>
<trkpt lat="43.0238070000" lon="0.2441270000"><ele>922</ele><time>2026-03-20T08:18:30Z</time></trkpt>
<trkpt lat="43.0237870000" lon="0.2441070000"><ele>923</ele><time>2026-03-20T08:18:33Z</time></trkpt>
<trkpt lat="43.0237720000" lon="0.2440870000"><ele>923</ele><time>2026-03-20T08:18:36Z</time></trkpt>
<trkpt lat="43.0237570000" lon="0.2440700000"><ele>924</ele><time>2026-03-20T08:18:38Z</time></trkpt>
<trkpt lat="43.0237450000" lon="0.2440450000"><ele>924</ele><time>2026-03-20T08:18:40Z</time></trkpt>
<trkpt lat="43.0237270000" lon="0.2440320000"><ele>924</ele><time>2026-03-20T08:18:42Z</time></trkpt>
<trkpt lat="43.0237070000" lon="0.2440120000"><ele>925</ele><time>2026-03-20T08:18:45Z</time></trkpt>
<trkpt lat="43.0236870000" lon="0.2439950000"><ele>925</ele><time>2026-03-20T08:18:48Z</time></trkpt>
<trkpt lat="43.0236670000" lon="0.2439850000"><ele>925</ele><time>2026-03-20T08:18:51Z</time></trkpt>
<trkpt lat="43.0236520000" lon="0.2439670000"><ele>926</ele><time>2026-03-20T08:18:53Z</time></trkpt>
<trkpt lat="43.0236370000" lon="0.2439520000"><ele>926</ele><time>2026-03-20T08:18:55Z</time></trkpt>
<trkpt lat="43.0236220000" lon="0.2439270000"><ele>926</ele><time>2026-03-20T08:18:58Z</time></trkpt>
<trkpt lat="43.0236070000" lon="0.2439120000"><ele>926</ele><time>2026-03-20T08:19:00Z</time></trkpt>
<trkpt lat="43.0235820000" lon="0.2438970000"><ele>927</ele><time>2026-03-20T08:19:03Z</time></trkpt>
<trkpt lat="43.0235620000" lon="0.2438800000"><ele>927</ele><time>2026-03-20T08:19:06Z</time></trkpt>
<trkpt lat="43.0235420000" lon="0.2438620000"><ele>927</ele><time>2026-03-20T08:19:08Z</time></trkpt>
<trkpt lat="43.0235220000" lon="0.2438700000"><ele>927</ele><time>2026-03-20T08:19:09Z</time></trkpt>
<trkpt lat="43.0235020000" lon="0.2438670000"><ele>928</ele><time>2026-03-20T08:19:11Z</time></trkpt>
<trkpt lat="43.0234870000" lon="0.2438470000"><ele>928</ele><time>2026-03-20T08:19:14Z</time></trkpt>
<trkpt lat="43.0234620000" lon="0.2438220000"><ele>929</ele><time>2026-03-20T08:19:17Z</time></trkpt>
<trkpt lat="43.0234420000" lon="0.2438070000"><ele>929</ele><time>2026-03-20T08:19:20Z</time></trkpt>
<trkpt lat="43.0234420000" lon="0.2437770000"><ele>929</ele><time>2026-03-20T08:19:23Z</time></trkpt>
<trkpt lat="43.0234350000" lon="0.2437470000"><ele>930</ele><time>2026-03-20T08:19:26Z</time></trkpt>
<trkpt lat="43.0234220000" lon="0.2437200000"><ele>930</ele><time>2026-03-20T08:19:30Z</time></trkpt>
<trkpt lat="43.0234070000" lon="0.2436970000"><ele>930</ele><time>2026-03-20T08:19:33Z</time></trkpt>
<trkpt lat="43.0233970000" lon="0.2436750000"><ele>931</ele><time>2026-03-20T08:19:35Z</time></trkpt>
<trkpt lat="43.0233820000" lon="0.2436600000"><ele>931</ele><time>2026-03-20T08:19:37Z</time></trkpt>
<trkpt lat="43.0233620000" lon="0.2436570000"><ele>932</ele><time>2026-03-20T08:19:40Z</time></trkpt>
<trkpt lat="43.0233420000" lon="0.2436370000"><ele>932</ele><time>2026-03-20T08:20:01Z</time></trkpt>
<trkpt lat="43.0233170000" lon="0.2436070000"><ele>933</ele><time>2026-03-20T08:20:03Z</time></trkpt>
<trkpt lat="43.0233020000" lon="0.2435920000"><ele>933</ele><time>2026-03-20T08:20:04Z</time></trkpt>
<trkpt lat="43.0232870000" lon="0.2435770000"><ele>933</ele><time>2026-03-20T08:20:05Z</time></trkpt>
<trkpt lat="43.0232720000" lon="0.2435620000"><ele>933</ele><time>2026-03-20T08:20:06Z</time></trkpt>
<trkpt lat="43.0232470000" lon="0.2435450000"><ele>933</ele><time>2026-03-20T08:20:08Z</time></trkpt>
<trkpt lat="43.0232270000" lon="0.2435370000"><ele>934</ele><time>2026-03-20T08:20:10Z</time></trkpt>
<trkpt lat="43.0232070000" lon="0.2435170000"><ele>934</ele><time>2026-03-20T08:20:14Z</time></trkpt>
<trkpt lat="43.0231850000" lon="0.2435030000"><ele>935</ele><time>2026-03-20T08:20:17Z</time></trkpt>
<trkpt lat="43.0231580000" lon="0.2434800000"><ele>935</ele><time>2026-03-20T08:20:20Z</time></trkpt>
<trkpt lat="43.0231420000" lon="0.2434650000"><ele>935</ele><time>2026-03-20T08:20:22Z</time></trkpt>
<trkpt lat="43.0231250000" lon="0.2434520000"><ele>935</ele><time>2026-03-20T08:20:24Z</time></trkpt>
<trkpt lat="43.0231020000" lon="0.2434450000"><ele>936</ele><time>2026-03-20T08:20:26Z</time></trkpt>
<trkpt lat="43.0230820000" lon="0.2434400000"><ele>936</ele><time>2026-03-20T08:20:28Z</time></trkpt>
<trkpt lat="43.0230520000" lon="0.2434350000"><ele>936</ele><time>2026-03-20T08:20:31Z</time></trkpt>
<trkpt lat="43.0230350000" lon="0.2434300000"><ele>937</ele><time>2026-03-20T08:20:33Z</time></trkpt>
<trkpt lat="43.0230170000" lon="0.2434070000"><ele>937</ele><time>2026-03-20T08:20:36Z</time></trkpt>
<trkpt lat="43.0230020000" lon="0.2433750000"><ele>937</ele><time>2026-03-20T08:20:39Z</time></trkpt>
<trkpt lat="43.0229900000" lon="0.2433470000"><ele>938</ele><time>2026-03-20T08:20:41Z</time></trkpt>
<trkpt lat="43.0229720000" lon="0.2433270000"><ele>938</ele><time>2026-03-20T08:20:43Z</time></trkpt>
<trkpt lat="43.0229600000" lon="0.2432920000"><ele>938</ele><time>2026-03-20T08:20:46Z</time></trkpt>
<trkpt lat="43.0229450000" lon="0.2432770000"><ele>938</ele><time>2026-03-20T08:20:48Z</time></trkpt>
<trkpt lat="43.0229370000" lon="0.2432500000"><ele>938</ele><time>2026-03-20T08:20:50Z</time></trkpt>
<trkpt lat="43.0229420000" lon="0.2432170000"><ele>938</ele><time>2026-03-20T08:20:52Z</time></trkpt>
<trkpt lat="43.0229420000" lon="0.2431850000"><ele>938</ele><time>2026-03-20T08:20:54Z</time></trkpt>
<trkpt lat="43.0229520000" lon="0.2431520000"><ele>939</ele><time>2026-03-20T08:20:56Z</time></trkpt>
<trkpt lat="43.0229620000" lon="0.2431200000"><ele>939</ele><time>2026-03-20T08:20:58Z</time></trkpt>
<trkpt lat="43.0229750000" lon="0.2430920000"><ele>938</ele><time>2026-03-20T08:21:01Z</time></trkpt>
<trkpt lat="43.0229950000" lon="0.2430650000"><ele>938</ele><time>2026-03-20T08:21:05Z</time></trkpt>
<trkpt lat="43.0230120000" lon="0.2430520000"><ele>938</ele><time>2026-03-20T08:21:10Z</time></trkpt>
<trkpt lat="43.0230030000" lon="0.2430300000"><ele>938</ele><time>2026-03-20T08:21:19Z</time></trkpt>
<trkpt lat="43.0230170000" lon="0.2430100000"><ele>938</ele><time>2026-03-20T08:21:40Z</time></trkpt>
<trkpt lat="43.0230170000" lon="0.2429670000"><ele>938</ele><time>2026-03-20T08:21:42Z</time></trkpt>
<trkpt lat="43.0230120000" lon="0.2429250000"><ele>938</ele><time>2026-03-20T08:21:44Z</time></trkpt>
<trkpt lat="43.0230070000" lon="0.2428920000"><ele>938</ele><time>2026-03-20T08:21:46Z</time></trkpt>
<trkpt lat="43.0229870000" lon="0.2428870000"><ele>938</ele><time>2026-03-20T08:21:51Z</time></trkpt>
<trkpt lat="43.0230020000" lon="0.2429050000"><ele>937</ele><time>2026-03-20T08:22:28Z</time></trkpt>
<trkpt lat="43.0229750000" lon="0.2429100000"><ele>937</ele><time>2026-03-20T08:22:31Z</time></trkpt>
<trkpt lat="43.0230030000" lon="0.2428920000"><ele>938</ele><time>2026-03-20T08:23:39Z</time></trkpt>
<trkpt lat="43.0230300000" lon="0.2428800000"><ele>938</ele><time>2026-03-20T08:23:41Z</time></trkpt>
<trkpt lat="43.0230270000" lon="0.2429170000"><ele>937</ele><time>2026-03-20T08:23:44Z</time></trkpt>
<trkpt lat="43.0230170000" lon="0.2429550000"><ele>937</ele><time>2026-03-20T08:23:46Z</time></trkpt>
<trkpt lat="43.0230220000" lon="0.2429770000"><ele>938</ele><time>2026-03-20T08:23:48Z</time></trkpt>
<trkpt lat="43.0230220000" lon="0.2430070000"><ele>938</ele><time>2026-03-20T08:24:05Z</time></trkpt>
<trkpt lat="43.0230120000" lon="0.2430420000"><ele>938</ele><time>2026-03-20T08:24:07Z</time></trkpt>
<trkpt lat="43.0230100000" lon="0.2430820000"><ele>938</ele><time>2026-03-20T08:24:09Z</time></trkpt>
<trkpt lat="43.0230020000" lon="0.2431170000"><ele>938</ele><time>2026-03-20T08:24:11Z</time></trkpt>
<trkpt lat="43.0229970000" lon="0.2431570000"><ele>938</ele><time>2026-03-20T08:24:13Z</time></trkpt>
<trkpt lat="43.0229870000" lon="0.2431820000"><ele>938</ele><time>2026-03-20T08:24:15Z</time></trkpt>
<trkpt lat="43.0229850000" lon="0.2432120000"><ele>938</ele><time>2026-03-20T08:24:17Z</time></trkpt>
<trkpt lat="43.0229870000" lon="0.2432370000"><ele>938</ele><time>2026-03-20T08:24:19Z</time></trkpt>
<trkpt lat="43.0229920000" lon="0.2432650000"><ele>938</ele><time>2026-03-20T08:24:21Z</time></trkpt>
<trkpt lat="43.0230070000" lon="0.2432900000"><ele>938</ele><time>2026-03-20T08:24:23Z</time></trkpt>
<trkpt lat="43.0230170000" lon="0.2433170000"><ele>938</ele><time>2026-03-20T08:24:25Z</time></trkpt>
<trkpt lat="43.0230270000" lon="0.2433450000"><ele>938</ele><time>2026-03-20T08:24:27Z</time></trkpt>
<trkpt lat="43.0230320000" lon="0.2433770000"><ele>938</ele><time>2026-03-20T08:24:29Z</time></trkpt>
<trkpt lat="43.0230320000" lon="0.2434050000"><ele>938</ele><time>2026-03-20T08:24:31Z</time></trkpt>
<trkpt lat="43.0230200000" lon="0.2434320000"><ele>938</ele><time>2026-03-20T08:24:33Z</time></trkpt>
<trkpt lat="43.0230030000" lon="0.2434570000"><ele>938</ele><time>2026-03-20T08:24:35Z</time></trkpt>
<trkpt lat="43.0229900000" lon="0.2434800000"><ele>938</ele><time>2026-03-20T08:24:37Z</time></trkpt>
<trkpt lat="43.0229820000" lon="0.2435120000"><ele>939</ele><time>2026-03-20T08:24:40Z</time></trkpt>
<trkpt lat="43.0229770000" lon="0.2435480000"><ele>939</ele><time>2026-03-20T08:24:43Z</time></trkpt>
<trkpt lat="43.0229770000" lon="0.2435770000"><ele>939</ele><time>2026-03-20T08:24:45Z</time></trkpt>
<trkpt lat="43.0229750000" lon="0.2436050000"><ele>940</ele><time>2026-03-20T08:24:47Z</time></trkpt>
<trkpt lat="43.0229750000" lon="0.2436320000"><ele>940</ele><time>2026-03-20T08:24:49Z</time></trkpt>
<trkpt lat="43.0229770000" lon="0.2436670000"><ele>940</ele><time>2026-03-20T08:24:51Z</time></trkpt>
<trkpt lat="43.0229770000" lon="0.2436920000"><ele>941</ele><time>2026-03-20T08:24:53Z</time></trkpt>
<trkpt lat="43.0229800000" lon="0.2437170000"><ele>941</ele><time>2026-03-20T08:24:55Z</time></trkpt>
<trkpt lat="43.0229900000" lon="0.2437500000"><ele>941</ele><time>2026-03-20T08:24:58Z</time></trkpt>
<trkpt lat="43.0230100000" lon="0.2437680000"><ele>941</ele><time>2026-03-20T08:25:00Z</time></trkpt>
<trkpt lat="43.0230300000" lon="0.2437970000"><ele>942</ele><time>2026-03-20T08:25:02Z</time></trkpt>
<trkpt lat="43.0230450000" lon="0.2438230000"><ele>942</ele><time>2026-03-20T08:25:04Z</time></trkpt>
<trkpt lat="43.0230570000" lon="0.2438550000"><ele>942</ele><time>2026-03-20T08:25:06Z</time></trkpt>
<trkpt lat="43.0230620000" lon="0.2438870000"><ele>942</ele><time>2026-03-20T08:25:08Z</time></trkpt>
<trkpt lat="43.0230850000" lon="0.2439080000"><ele>942</ele><time>2026-03-20T08:25:10Z</time></trkpt>
<trkpt lat="43.0231000000" lon="0.2439230000"><ele>942</ele><time>2026-03-20T08:25:11Z</time></trkpt>
<trkpt lat="43.0231170000" lon="0.2439400000"><ele>943</ele><time>2026-03-20T08:25:12Z</time></trkpt>
<trkpt lat="43.0231400000" lon="0.2439570000"><ele>943</ele><time>2026-03-20T08:25:13Z</time></trkpt>
<trkpt lat="43.0231570000" lon="0.2439720000"><ele>943</ele><time>2026-03-20T08:25:14Z</time></trkpt>
<trkpt lat="43.0231750000" lon="0.2439920000"><ele>943</ele><time>2026-03-20T08:25:16Z</time></trkpt>
<trkpt lat="43.0231900000" lon="0.2440220000"><ele>943</ele><time>2026-03-20T08:25:18Z</time></trkpt>
<trkpt lat="43.0231970000" lon="0.2440470000"><ele>943</ele><time>2026-03-20T08:25:21Z</time></trkpt>
<trkpt lat="43.0232070000" lon="0.2440700000"><ele>944</ele><time>2026-03-20T08:25:23Z</time></trkpt>
<trkpt lat="43.0232020000" lon="0.2440970000"><ele>944</ele><time>2026-03-20T08:25:25Z</time></trkpt>
<trkpt lat="43.0231900000" lon="0.2441300000"><ele>944</ele><time>2026-03-20T08:25:27Z</time></trkpt>
<trkpt lat="43.0231900000" lon="0.2441670000"><ele>945</ele><time>2026-03-20T08:25:30Z</time></trkpt>
<trkpt lat="43.0231870000" lon="0.2441930000"><ele>945</ele><time>2026-03-20T08:25:32Z</time></trkpt>
<trkpt lat="43.0231920000" lon="0.2442200000"><ele>945</ele><time>2026-03-20T08:25:34Z</time></trkpt>
<trkpt lat="43.0231900000" lon="0.2442430000"><ele>945</ele><time>2026-03-20T08:25:36Z</time></trkpt>
<trkpt lat="43.0231750000" lon="0.2442670000"><ele>945</ele><time>2026-03-20T08:25:38Z</time></trkpt>
<trkpt lat="43.0231550000" lon="0.2442950000"><ele>946</ele><time>2026-03-20T08:25:40Z</time></trkpt>
<trkpt lat="43.0231350000" lon="0.2443200000"><ele>946</ele><time>2026-03-20T08:25:42Z</time></trkpt>
<trkpt lat="43.0231100000" lon="0.2443370000"><ele>946</ele><time>2026-03-20T08:25:44Z</time></trkpt>
<trkpt lat="43.0230920000" lon="0.2443550000"><ele>947</ele><time>2026-03-20T08:25:46Z</time></trkpt>
<trkpt lat="43.0230700000" lon="0.2443700000"><ele>947</ele><time>2026-03-20T08:25:49Z</time></trkpt>
<trkpt lat="43.0230470000" lon="0.2443670000"><ele>947</ele><time>2026-03-20T08:25:51Z</time></trkpt>
<trkpt lat="43.0230250000" lon="0.2443720000"><ele>948</ele><time>2026-03-20T08:25:53Z</time></trkpt>
<trkpt lat="43.0230000000" lon="0.2443720000"><ele>948</ele><time>2026-03-20T08:25:55Z</time></trkpt>
<trkpt lat="43.0229750000" lon="0.2443620000"><ele>948</ele><time>2026-03-20T08:25:57Z</time></trkpt>
<trkpt lat="43.0229570000" lon="0.2443550000"><ele>949</ele><time>2026-03-20T08:25:59Z</time></trkpt>
<trkpt lat="43.0229370000" lon="0.2443420000"><ele>949</ele><time>2026-03-20T08:26:01Z</time></trkpt>
<trkpt lat="43.0229120000" lon="0.2443280000"><ele>949</ele><time>2026-03-20T08:26:04Z</time></trkpt>
<trkpt lat="43.0228870000" lon="0.2443230000"><ele>949</ele><time>2026-03-20T08:26:07Z</time></trkpt>
<trkpt lat="43.0228670000" lon="0.2443070000"><ele>949</ele><time>2026-03-20T08:26:09Z</time></trkpt>
<trkpt lat="43.0228450000" lon="0.2443000000"><ele>950</ele><time>2026-03-20T08:26:11Z</time></trkpt>
<trkpt lat="43.0228250000" lon="0.2442950000"><ele>950</ele><time>2026-03-20T08:26:13Z</time></trkpt>
<trkpt lat="43.0228000000" lon="0.2442970000"><ele>950</ele><time>2026-03-20T08:26:15Z</time></trkpt>
<trkpt lat="43.0227780000" lon="0.2442920000"><ele>950</ele><time>2026-03-20T08:26:17Z</time></trkpt>
<trkpt lat="43.0227670000" lon="0.2442720000"><ele>950</ele><time>2026-03-20T08:26:19Z</time></trkpt>
<trkpt lat="43.0227420000" lon="0.2442600000"><ele>951</ele><time>2026-03-20T08:26:22Z</time></trkpt>
<trkpt lat="43.0227200000" lon="0.2442670000"><ele>951</ele><time>2026-03-20T08:26:24Z</time></trkpt>
<trkpt lat="43.0227020000" lon="0.2442700000"><ele>952</ele><time>2026-03-20T08:26:26Z</time></trkpt>
<trkpt lat="43.0226820000" lon="0.2442670000"><ele>952</ele><time>2026-03-20T08:26:28Z</time></trkpt>
<trkpt lat="43.0226600000" lon="0.2442570000"><ele>952</ele><time>2026-03-20T08:26:30Z</time></trkpt>
<trkpt lat="43.0226370000" lon="0.2442420000"><ele>952</ele><time>2026-03-20T08:26:32Z</time></trkpt>
<trkpt lat="43.0226120000" lon="0.2442320000"><ele>953</ele><time>2026-03-20T08:26:35Z</time></trkpt>
<trkpt lat="43.0225950000" lon="0.2442200000"><ele>953</ele><time>2026-03-20T08:26:37Z</time></trkpt>
<trkpt lat="43.0225670000" lon="0.2442120000"><ele>953</ele><time>2026-03-20T08:26:40Z</time></trkpt>
<trkpt lat="43.0225450000" lon="0.2442120000"><ele>953</ele><time>2026-03-20T08:26:42Z</time></trkpt>
<trkpt lat="43.0225170000" lon="0.2442050000"><ele>954</ele><time>2026-03-20T08:26:44Z</time></trkpt>
<trkpt lat="43.0224920000" lon="0.2441980000"><ele>954</ele><time>2026-03-20T08:26:47Z</time></trkpt>
<trkpt lat="43.0224720000" lon="0.2442020000"><ele>955</ele><time>2026-03-20T08:26:50Z</time></trkpt>
<trkpt lat="43.0224520000" lon="0.2441880000"><ele>955</ele><time>2026-03-20T08:26:53Z</time></trkpt>
<trkpt lat="43.0224270000" lon="0.2441870000"><ele>955</ele><time>2026-03-20T08:26:56Z</time></trkpt>
<trkpt lat="43.0224070000" lon="0.2441820000"><ele>956</ele><time>2026-03-20T08:26:59Z</time></trkpt>
<trkpt lat="43.0223870000" lon="0.2441620000"><ele>956</ele><time>2026-03-20T08:27:02Z</time></trkpt>
<trkpt lat="43.0223670000" lon="0.2441670000"><ele>956</ele><time>2026-03-20T08:27:05Z</time></trkpt>
<trkpt lat="43.0223770000" lon="0.2441470000"><ele>957</ele><time>2026-03-20T08:27:18Z</time></trkpt>
<trkpt lat="43.0223870000" lon="0.2441070000"><ele>957</ele><time>2026-03-20T08:27:20Z</time></trkpt>
<trkpt lat="43.0223900000" lon="0.2440700000"><ele>957</ele><time>2026-03-20T08:27:21Z</time></trkpt>
<trkpt lat="43.0223900000" lon="0.2440320000"><ele>957</ele><time>2026-03-20T08:27:23Z</time></trkpt>
<trkpt lat="43.0223850000" lon="0.2440020000"><ele>957</ele><time>2026-03-20T08:27:25Z</time></trkpt>
<trkpt lat="43.0223720000" lon="0.2439770000"><ele>957</ele><time>2026-03-20T08:27:26Z</time></trkpt>
<trkpt lat="43.0223700000" lon="0.2439520000"><ele>957</ele><time>2026-03-20T08:27:27Z</time></trkpt>
<trkpt lat="43.0223570000" lon="0.2439300000"><ele>957</ele><time>2026-03-20T08:27:29Z</time></trkpt>
<trkpt lat="43.0223320000" lon="0.2439170000"><ele>957</ele><time>2026-03-20T08:27:32Z</time></trkpt>
<trkpt lat="43.0223170000" lon="0.2438950000"><ele>957</ele><time>2026-03-20T08:27:34Z</time></trkpt>
<trkpt lat="43.0223120000" lon="0.2438650000"><ele>958</ele><time>2026-03-20T08:27:37Z</time></trkpt>
<trkpt lat="43.0223120000" lon="0.2438320000"><ele>958</ele><time>2026-03-20T08:27:39Z</time></trkpt>
<trkpt lat="43.0223070000" lon="0.2438020000"><ele>958</ele><time>2026-03-20T08:27:42Z</time></trkpt>
<trkpt lat="43.0223070000" lon="0.2437770000"><ele>958</ele><time>2026-03-20T08:27:45Z</time></trkpt>
<trkpt lat="43.0223070000" lon="0.2437470000"><ele>959</ele><time>2026-03-20T08:27:47Z</time></trkpt>
<trkpt lat="43.0223120000" lon="0.2437170000"><ele>959</ele><time>2026-03-20T08:27:49Z</time></trkpt>
<trkpt lat="43.0223150000" lon="0.2436820000"><ele>959</ele><time>2026-03-20T08:27:52Z</time></trkpt>
<trkpt lat="43.0223150000" lon="0.2436470000"><ele>960</ele><time>2026-03-20T08:27:55Z</time></trkpt>
<trkpt lat="43.0223050000" lon="0.2436200000"><ele>960</ele><time>2026-03-20T08:27:58Z</time></trkpt>
<trkpt lat="43.0222950000" lon="0.2435920000"><ele>960</ele><time>2026-03-20T08:28:00Z</time></trkpt>
<trkpt lat="43.0222970000" lon="0.2435670000"><ele>961</ele><time>2026-03-20T08:28:03Z</time></trkpt>
<trkpt lat="43.0222950000" lon="0.2435350000"><ele>961</ele><time>2026-03-20T08:28:06Z</time></trkpt>
<trkpt lat="43.0222970000" lon="0.2434970000"><ele>961</ele><time>2026-03-20T08:28:09Z</time></trkpt>
<trkpt lat="43.0222970000" lon="0.2434720000"><ele>961</ele><time>2026-03-20T08:28:11Z</time></trkpt>
<trkpt lat="43.0223000000" lon="0.2434370000"><ele>962</ele><time>2026-03-20T08:28:14Z</time></trkpt>
<trkpt lat="43.0223000000" lon="0.2434020000"><ele>962</ele><time>2026-03-20T08:28:17Z</time></trkpt>
<trkpt lat="43.0223020000" lon="0.2433750000"><ele>962</ele><time>2026-03-20T08:28:19Z</time></trkpt>
<trkpt lat="43.0222970000" lon="0.2433450000"><ele>963</ele><time>2026-03-20T08:28:21Z</time></trkpt>
<trkpt lat="43.0223000000" lon="0.2433150000"><ele>963</ele><time>2026-03-20T08:28:23Z</time></trkpt>
<trkpt lat="43.0223020000" lon="0.2432820000"><ele>963</ele><time>2026-03-20T08:28:25Z</time></trkpt>
<trkpt lat="43.0223070000" lon="0.2432520000"><ele>963</ele><time>2026-03-20T08:28:27Z</time></trkpt>
<trkpt lat="43.0223170000" lon="0.2432280000"><ele>964</ele><time>2026-03-20T08:28:29Z</time></trkpt>
<trkpt lat="43.0223200000" lon="0.2432050000"><ele>964</ele><time>2026-03-20T08:28:31Z</time></trkpt>
<trkpt lat="43.0223250000" lon="0.2431800000"><ele>964</ele><time>2026-03-20T08:28:33Z</time></trkpt>
<trkpt lat="43.0223270000" lon="0.2431550000"><ele>964</ele><time>2026-03-20T08:28:36Z</time></trkpt>
<trkpt lat="43.0223220000" lon="0.2431270000"><ele>965</ele><time>2026-03-20T08:28:38Z</time></trkpt>
<trkpt lat="43.0223370000" lon="0.2431070000"><ele>965</ele><time>2026-03-20T08:28:40Z</time></trkpt>
<trkpt lat="43.0223520000" lon="0.2430870000"><ele>965</ele><time>2026-03-20T08:28:43Z</time></trkpt>
<trkpt lat="43.0223470000" lon="0.2430570000"><ele>966</ele><time>2026-03-20T08:28:46Z</time></trkpt>
<trkpt lat="43.0223470000" lon="0.2430320000"><ele>966</ele><time>2026-03-20T08:28:49Z</time></trkpt>
<trkpt lat="43.0223350000" lon="0.2429970000"><ele>966</ele><time>2026-03-20T08:28:52Z</time></trkpt>
<trkpt lat="43.0223020000" lon="0.2429720000"><ele>967</ele><time>2026-03-20T08:28:55Z</time></trkpt>
<trkpt lat="43.0222870000" lon="0.2429570000"><ele>967</ele><time>2026-03-20T08:28:57Z</time></trkpt>
<trkpt lat="43.0222870000" lon="0.2429220000"><ele>967</ele><time>2026-03-20T08:29:00Z</time></trkpt>
<trkpt lat="43.0222870000" lon="0.2428970000"><ele>967</ele><time>2026-03-20T08:29:04Z</time></trkpt>
<trkpt lat="43.0222870000" lon="0.2428650000"><ele>968</ele><time>2026-03-20T08:29:06Z</time></trkpt>
<trkpt lat="43.0222770000" lon="0.2428420000"><ele>968</ele><time>2026-03-20T08:29:08Z</time></trkpt>
<trkpt lat="43.0222570000" lon="0.2428320000"><ele>968</ele><time>2026-03-20T08:29:10Z</time></trkpt>
<trkpt lat="43.0222470000" lon="0.2428080000"><ele>968</ele><time>2026-03-20T08:29:13Z</time></trkpt>
<trkpt lat="43.0222430000" lon="0.2427800000"><ele>969</ele><time>2026-03-20T08:29:16Z</time></trkpt>
<trkpt lat="43.0222320000" lon="0.2427550000"><ele>969</ele><time>2026-03-20T08:29:20Z</time></trkpt>
<trkpt lat="43.0222170000" lon="0.2427320000"><ele>969</ele><time>2026-03-20T08:29:23Z</time></trkpt>
<trkpt lat="43.0221920000" lon="0.2427120000"><ele>970</ele><time>2026-03-20T08:29:26Z</time></trkpt>
<trkpt lat="43.0221820000" lon="0.2426870000"><ele>970</ele><time>2026-03-20T08:29:29Z</time></trkpt>
<trkpt lat="43.0221670000" lon="0.2426620000"><ele>971</ele><time>2026-03-20T08:29:33Z</time></trkpt>
<trkpt lat="43.0221520000" lon="0.2426450000"><ele>971</ele><time>2026-03-20T08:29:36Z</time></trkpt>
<trkpt lat="43.0221370000" lon="0.2426170000"><ele>972</ele><time>2026-03-20T08:29:40Z</time></trkpt>
<trkpt lat="43.0221270000" lon="0.2425900000"><ele>972</ele><time>2026-03-20T08:29:43Z</time></trkpt>
<trkpt lat="43.0221170000" lon="0.2425570000"><ele>972</ele><time>2026-03-20T08:29:45Z</time></trkpt>
<trkpt lat="43.0221070000" lon="0.2425320000"><ele>972</ele><time>2026-03-20T08:29:47Z</time></trkpt>
<trkpt lat="43.0221020000" lon="0.2425070000"><ele>973</ele><time>2026-03-20T08:29:49Z</time></trkpt>
<trkpt lat="43.0220920000" lon="0.2424770000"><ele>973</ele><time>2026-03-20T08:29:52Z</time></trkpt>
<trkpt lat="43.0220750000" lon="0.2424700000"><ele>973</ele><time>2026-03-20T08:29:54Z</time></trkpt>
<trkpt lat="43.0220620000" lon="0.2424350000"><ele>974</ele><time>2026-03-20T08:29:57Z</time></trkpt>
<trkpt lat="43.0220570000" lon="0.2424100000"><ele>974</ele><time>2026-03-20T08:29:59Z</time></trkpt>
<trkpt lat="43.0220470000" lon="0.2423830000"><ele>974</ele><time>2026-03-20T08:30:03Z</time></trkpt>
<trkpt lat="43.0220320000" lon="0.2423620000"><ele>975</ele><time>2026-03-20T08:30:05Z</time></trkpt>
<trkpt lat="43.0220220000" lon="0.2423420000"><ele>975</ele><time>2026-03-20T08:30:07Z</time></trkpt>
<trkpt lat="43.0220180000" lon="0.2423170000"><ele>975</ele><time>2026-03-20T08:30:10Z</time></trkpt>
<trkpt lat="43.0220100000" lon="0.2422870000"><ele>975</ele><time>2026-03-20T08:30:13Z</time></trkpt>
<trkpt lat="43.0219970000" lon="0.2422620000"><ele>975</ele><time>2026-03-20T08:30:15Z</time></trkpt>
<trkpt lat="43.0219820000" lon="0.2422350000"><ele>976</ele><time>2026-03-20T08:30:18Z</time></trkpt>
<trkpt lat="43.0219670000" lon="0.2422070000"><ele>976</ele><time>2026-03-20T08:30:21Z</time></trkpt>
<trkpt lat="43.0219480000" lon="0.2421920000"><ele>976</ele><time>2026-03-20T08:30:24Z</time></trkpt>
<trkpt lat="43.0219320000" lon="0.2421770000"><ele>976</ele><time>2026-03-20T08:30:27Z</time></trkpt>
<trkpt lat="43.0219150000" lon="0.2421620000"><ele>977</ele><time>2026-03-20T08:30:30Z</time></trkpt>
<trkpt lat="43.0219050000" lon="0.2421370000"><ele>977</ele><time>2026-03-20T08:30:33Z</time></trkpt>
<trkpt lat="43.0218950000" lon="0.2421130000"><ele>977</ele><time>2026-03-20T08:30:35Z</time></trkpt>
<trkpt lat="43.0218870000" lon="0.2420920000"><ele>977</ele><time>2026-03-20T08:30:37Z</time></trkpt>
<trkpt lat="43.0218670000" lon="0.2420670000"><ele>978</ele><time>2026-03-20T08:30:40Z</time></trkpt>
<trkpt lat="43.0218520000" lon="0.2420500000"><ele>978</ele><time>2026-03-20T08:30:42Z</time></trkpt>
<trkpt lat="43.0218320000" lon="0.2420320000"><ele>978</ele><time>2026-03-20T08:30:44Z</time></trkpt>
<trkpt lat="43.0218220000" lon="0.2420120000"><ele>978</ele><time>2026-03-20T08:30:46Z</time></trkpt>
<trkpt lat="43.0218100000" lon="0.2419950000"><ele>978</ele><time>2026-03-20T08:30:48Z</time></trkpt>
<trkpt lat="43.0217930000" lon="0.2419730000"><ele>979</ele><time>2026-03-20T08:30:50Z</time></trkpt>
<trkpt lat="43.0217800000" lon="0.2419570000"><ele>979</ele><time>2026-03-20T08:30:52Z</time></trkpt>
<trkpt lat="43.0217570000" lon="0.2419470000"><ele>979</ele><time>2026-03-20T08:30:55Z</time></trkpt>
<trkpt lat="43.0217420000" lon="0.2419270000"><ele>979</ele><time>2026-03-20T08:30:57Z</time></trkpt>
<trkpt lat="43.0217220000" lon="0.2419020000"><ele>980</ele><time>2026-03-20T08:30:59Z</time></trkpt>
<trkpt lat="43.0217070000" lon="0.2418870000"><ele>980</ele><time>2026-03-20T08:31:01Z</time></trkpt>
<trkpt lat="43.0216920000" lon="0.2418700000"><ele>980</ele><time>2026-03-20T08:31:03Z</time></trkpt>
<trkpt lat="43.0216750000" lon="0.2418550000"><ele>980</ele><time>2026-03-20T08:31:06Z</time></trkpt>
<trkpt lat="43.0216600000" lon="0.2418370000"><ele>980</ele><time>2026-03-20T08:31:08Z</time></trkpt>
<trkpt lat="43.0216420000" lon="0.2418170000"><ele>981</ele><time>2026-03-20T08:31:11Z</time></trkpt>
<trkpt lat="43.0216300000" lon="0.2417820000"><ele>981</ele><time>2026-03-20T08:31:13Z</time></trkpt>
<trkpt lat="43.0216270000" lon="0.2417520000"><ele>981</ele><time>2026-03-20T08:31:15Z</time></trkpt>
<trkpt lat="43.0216200000" lon="0.2417200000"><ele>981</ele><time>2026-03-20T08:31:17Z</time></trkpt>
<trkpt lat="43.0216120000" lon="0.2416920000"><ele>981</ele><time>2026-03-20T08:31:19Z</time></trkpt>
<trkpt lat="43.0216100000" lon="0.2416520000"><ele>982</ele><time>2026-03-20T08:31:21Z</time></trkpt>
<trkpt lat="43.0216100000" lon="0.2416150000"><ele>982</ele><time>2026-03-20T08:31:23Z</time></trkpt>
<trkpt lat="43.0216150000" lon="0.2415900000"><ele>982</ele><time>2026-03-20T08:31:25Z</time></trkpt>
<trkpt lat="43.0216150000" lon="0.2415620000"><ele>982</ele><time>2026-03-20T08:31:27Z</time></trkpt>
<trkpt lat="43.0216200000" lon="0.2415370000"><ele>982</ele><time>2026-03-20T08:31:29Z</time></trkpt>
<trkpt lat="43.0216320000" lon="0.2415100000"><ele>983</ele><time>2026-03-20T08:31:31Z</time></trkpt>
<trkpt lat="43.0216320000" lon="0.2414770000"><ele>983</ele><time>2026-03-20T08:31:33Z</time></trkpt>
<trkpt lat="43.0216420000" lon="0.2414500000"><ele>983</ele><time>2026-03-20T08:31:35Z</time></trkpt>
<trkpt lat="43.0216650000" lon="0.2414230000"><ele>983</ele><time>2026-03-20T08:31:37Z</time></trkpt>
<trkpt lat="43.0216720000" lon="0.2414020000"><ele>983</ele><time>2026-03-20T08:31:39Z</time></trkpt>
<trkpt lat="43.0216700000" lon="0.2413650000"><ele>984</ele><time>2026-03-20T08:31:42Z</time></trkpt>
<trkpt lat="43.0216770000" lon="0.2413420000"><ele>984</ele><time>2026-03-20T08:31:45Z</time></trkpt>
<trkpt lat="43.0216950000" lon="0.2413120000"><ele>984</ele><time>2026-03-20T08:31:49Z</time></trkpt>
<trkpt lat="43.0217020000" lon="0.2412820000"><ele>985</ele><time>2026-03-20T08:31:51Z</time></trkpt>
<trkpt lat="43.0217020000" lon="0.2412520000"><ele>985</ele><time>2026-03-20T08:31:53Z</time></trkpt>
<trkpt lat="43.0217070000" lon="0.2412270000"><ele>985</ele><time>2026-03-20T08:31:55Z</time></trkpt>
<trkpt lat="43.0217100000" lon="0.2411970000"><ele>986</ele><time>2026-03-20T08:31:57Z</time></trkpt>
<trkpt lat="43.0217070000" lon="0.2411670000"><ele>986</ele><time>2026-03-20T08:32:01Z</time></trkpt>
<trkpt lat="43.0217020000" lon="0.2411420000"><ele>986</ele><time>2026-03-20T08:32:03Z</time></trkpt>
<trkpt lat="43.0217020000" lon="0.2411170000"><ele>986</ele><time>2026-03-20T08:32:05Z</time></trkpt>
<trkpt lat="43.0217020000" lon="0.2410920000"><ele>986</ele><time>2026-03-20T08:32:07Z</time></trkpt>
<trkpt lat="43.0217070000" lon="0.2410670000"><ele>987</ele><time>2026-03-20T08:32:09Z</time></trkpt>
<trkpt lat="43.0216970000" lon="0.2410400000"><ele>988</ele><time>2026-03-20T08:32:20Z</time></trkpt>
<trkpt lat="43.0217170000" lon="0.2410270000"><ele>987</ele><time>2026-03-20T08:32:23Z</time></trkpt>
<trkpt lat="43.0217270000" lon="0.2409920000"><ele>987</ele><time>2026-03-20T08:32:25Z</time></trkpt>
<trkpt lat="43.0217400000" lon="0.2409570000"><ele>988</ele><time>2026-03-20T08:32:27Z</time></trkpt>
<trkpt lat="43.0217420000" lon="0.2409250000"><ele>988</ele><time>2026-03-20T08:32:29Z</time></trkpt>
<trkpt lat="43.0217420000" lon="0.2408970000"><ele>988</ele><time>2026-03-20T08:32:31Z</time></trkpt>
<trkpt lat="43.0217470000" lon="0.2408670000"><ele>988</ele><time>2026-03-20T08:32:33Z</time></trkpt>
<trkpt lat="43.0217520000" lon="0.2408420000"><ele>988</ele><time>2026-03-20T08:32:35Z</time></trkpt>
<trkpt lat="43.0217720000" lon="0.2408270000"><ele>989</ele><time>2026-03-20T08:32:37Z</time></trkpt>
<trkpt lat="43.0217770000" lon="0.2408020000"><ele>989</ele><time>2026-03-20T08:32:39Z</time></trkpt>
<trkpt lat="43.0217870000" lon="0.2407670000"><ele>989</ele><time>2026-03-20T08:32:42Z</time></trkpt>
<trkpt lat="43.0217970000" lon="0.2407470000"><ele>989</ele><time>2026-03-20T08:32:44Z</time></trkpt>
<trkpt lat="43.0218000000" lon="0.2407180000"><ele>990</ele><time>2026-03-20T08:32:46Z</time></trkpt>
<trkpt lat="43.0218020000" lon="0.2406920000"><ele>990</ele><time>2026-03-20T08:32:49Z</time></trkpt>
<trkpt lat="43.0218050000" lon="0.2406600000"><ele>991</ele><time>2026-03-20T08:32:53Z</time></trkpt>
<trkpt lat="43.0218070000" lon="0.2406270000"><ele>991</ele><time>2026-03-20T08:32:56Z</time></trkpt>
<trkpt lat="43.0218170000" lon="0.2405930000"><ele>991</ele><time>2026-03-20T08:32:58Z</time></trkpt>
<trkpt lat="43.0218220000" lon="0.2405720000"><ele>991</ele><time>2026-03-20T08:32:59Z</time></trkpt>
<trkpt lat="43.0218350000" lon="0.2405420000"><ele>992</ele><time>2026-03-20T08:33:01Z</time></trkpt>
<trkpt lat="43.0218400000" lon="0.2405150000"><ele>992</ele><time>2026-03-20T08:33:03Z</time></trkpt>
<trkpt lat="43.0218450000" lon="0.2404800000"><ele>992</ele><time>2026-03-20T08:33:05Z</time></trkpt>
<trkpt lat="43.0218550000" lon="0.2404570000"><ele>992</ele><time>2026-03-20T08:33:07Z</time></trkpt>
<trkpt lat="43.0218620000" lon="0.2404270000"><ele>993</ele><time>2026-03-20T08:33:10Z</time></trkpt>
<trkpt lat="43.0218750000" lon="0.2403970000"><ele>993</ele><time>2026-03-20T08:33:13Z</time></trkpt>
<trkpt lat="43.0218870000" lon="0.2403650000"><ele>993</ele><time>2026-03-20T08:33:16Z</time></trkpt>
<trkpt lat="43.0218970000" lon="0.2403420000"><ele>993</ele><time>2026-03-20T08:33:18Z</time></trkpt>
<trkpt lat="43.0218920000" lon="0.2403080000"><ele>993</ele><time>2026-03-20T08:33:20Z</time></trkpt>
<trkpt lat="43.0218950000" lon="0.2402820000"><ele>993</ele><time>2026-03-20T08:33:22Z</time></trkpt>
<trkpt lat="43.0218970000" lon="0.2402520000"><ele>994</ele><time>2026-03-20T08:33:24Z</time></trkpt>
<trkpt lat="43.0218970000" lon="0.2402220000"><ele>994</ele><time>2026-03-20T08:33:26Z</time></trkpt>
<trkpt lat="43.0219120000" lon="0.2402020000"><ele>994</ele><time>2026-03-20T08:33:28Z</time></trkpt>
<trkpt lat="43.0219250000" lon="0.2401720000"><ele>994</ele><time>2026-03-20T08:33:31Z</time></trkpt>
<trkpt lat="43.0219420000" lon="0.2401450000"><ele>995</ele><time>2026-03-20T08:33:34Z</time></trkpt>
<trkpt lat="43.0219620000" lon="0.2401170000"><ele>995</ele><time>2026-03-20T08:33:37Z</time></trkpt>
<trkpt lat="43.0219700000" lon="0.2400920000"><ele>995</ele><time>2026-03-20T08:33:39Z</time></trkpt>
<trkpt lat="43.0219820000" lon="0.2400700000"><ele>995</ele><time>2026-03-20T08:33:41Z</time></trkpt>
<trkpt lat="43.0219970000" lon="0.2400470000"><ele>995</ele><time>2026-03-20T08:33:43Z</time></trkpt>
<trkpt lat="43.0220120000" lon="0.2400220000"><ele>996</ele><time>2026-03-20T08:33:45Z</time></trkpt>
<trkpt lat="43.0220220000" lon="0.2399920000"><ele>996</ele><time>2026-03-20T08:33:47Z</time></trkpt>
<trkpt lat="43.0220370000" lon="0.2399620000"><ele>996</ele><time>2026-03-20T08:33:49Z</time></trkpt>
<trkpt lat="43.0220420000" lon="0.2399320000"><ele>996</ele><time>2026-03-20T08:33:52Z</time></trkpt>
<trkpt lat="43.0220570000" lon="0.2399070000"><ele>997</ele><time>2026-03-20T08:33:55Z</time></trkpt>
<trkpt lat="43.0220720000" lon="0.2398830000"><ele>997</ele><time>2026-03-20T08:33:58Z</time></trkpt>
<trkpt lat="43.0220700000" lon="0.2398420000"><ele>997</ele><time>2026-03-20T08:34:03Z</time></trkpt>
<trkpt lat="43.0220520000" lon="0.2398170000"><ele>997</ele><time>2026-03-20T08:34:05Z</time></trkpt>
<trkpt lat="43.0220450000" lon="0.2397920000"><ele>998</ele><time>2026-03-20T08:34:07Z</time></trkpt>
<trkpt lat="43.0220550000" lon="0.2397580000"><ele>998</ele><time>2026-03-20T08:34:09Z</time></trkpt>
<trkpt lat="43.0220770000" lon="0.2397320000"><ele>998</ele><time>2026-03-20T08:34:11Z</time></trkpt>
<trkpt lat="43.0220900000" lon="0.2396970000"><ele>998</ele><time>2026-03-20T08:34:13Z</time></trkpt>
<trkpt lat="43.0221070000" lon="0.2396630000"><ele>999</ele><time>2026-03-20T08:34:15Z</time></trkpt>
<trkpt lat="43.0221300000" lon="0.2396450000"><ele>999</ele><time>2026-03-20T08:34:17Z</time></trkpt>
<trkpt lat="43.0221500000" lon="0.2396370000"><ele>999</ele><time>2026-03-20T08:34:18Z</time></trkpt>
<trkpt lat="43.0221700000" lon="0.2396130000"><ele>999</ele><time>2026-03-20T08:34:20Z</time></trkpt>
<trkpt lat="43.0221820000" lon="0.2395920000"><ele>999</ele><time>2026-03-20T08:34:22Z</time></trkpt>
<trkpt lat="43.0222000000" lon="0.2395700000"><ele>1000</ele><time>2026-03-20T08:34:25Z</time></trkpt>
<trkpt lat="43.0222100000" lon="0.2395470000"><ele>1000</ele><time>2026-03-20T08:34:29Z</time></trkpt>
<trkpt lat="43.0222150000" lon="0.2395150000"><ele>1001</ele><time>2026-03-20T08:34:35Z</time></trkpt>
<trkpt lat="43.0222200000" lon="0.2394870000"><ele>1001</ele><time>2026-03-20T08:34:37Z</time></trkpt>
<trkpt lat="43.0222270000" lon="0.2394470000"><ele>1001</ele><time>2026-03-20T08:34:39Z</time></trkpt>
<trkpt lat="43.0222420000" lon="0.2394070000"><ele>1001</ele><time>2026-03-20T08:34:41Z</time></trkpt>
<trkpt lat="43.0222500000" lon="0.2393750000"><ele>1001</ele><time>2026-03-20T08:34:43Z</time></trkpt>
<trkpt lat="43.0222620000" lon="0.2393520000"><ele>1002</ele><time>2026-03-20T08:34:45Z</time></trkpt>
<trkpt lat="43.0222650000" lon="0.2393170000"><ele>1002</ele><time>2026-03-20T08:34:48Z</time></trkpt>
<trkpt lat="43.0222820000" lon="0.2392950000"><ele>1002</ele><time>2026-03-20T08:34:50Z</time></trkpt>
<trkpt lat="43.0222920000" lon="0.2392700000"><ele>1002</ele><time>2026-03-20T08:34:53Z</time></trkpt>
<trkpt lat="43.0223070000" lon="0.2392420000"><ele>1002</ele><time>2026-03-20T08:34:56Z</time></trkpt>
<trkpt lat="43.0223200000" lon="0.2392250000"><ele>1002</ele><time>2026-03-20T08:34:58Z</time></trkpt>
<trkpt lat="43.0223350000" lon="0.2391920000"><ele>1003</ele><time>2026-03-20T08:35:01Z</time></trkpt>
<trkpt lat="43.0223470000" lon="0.2391770000"><ele>1003</ele><time>2026-03-20T08:35:03Z</time></trkpt>
<trkpt lat="43.0223720000" lon="0.2391620000"><ele>1003</ele><time>2026-03-20T08:35:05Z</time></trkpt>
<trkpt lat="43.0223920000" lon="0.2391370000"><ele>1003</ele><time>2026-03-20T08:35:08Z</time></trkpt>
<trkpt lat="43.0224020000" lon="0.2391120000"><ele>1003</ele><time>2026-03-20T08:35:10Z</time></trkpt>
<trkpt lat="43.0224100000" lon="0.2390870000"><ele>1003</ele><time>2026-03-20T08:35:12Z</time></trkpt>
<trkpt lat="43.0224200000" lon="0.2390620000"><ele>1003</ele><time>2026-03-20T08:35:14Z</time></trkpt>
<trkpt lat="43.0224250000" lon="0.2390300000"><ele>1003</ele><time>2026-03-20T08:35:16Z</time></trkpt>
<trkpt lat="43.0224350000" lon="0.2390050000"><ele>1004</ele><time>2026-03-20T08:35:18Z</time></trkpt>
<trkpt lat="43.0224350000" lon="0.2389770000"><ele>1004</ele><time>2026-03-20T08:35:20Z</time></trkpt>
<trkpt lat="43.0224270000" lon="0.2389450000"><ele>1004</ele><time>2026-03-20T08:35:23Z</time></trkpt>
<trkpt lat="43.0224320000" lon="0.2389180000"><ele>1004</ele><time>2026-03-20T08:35:25Z</time></trkpt>
<trkpt lat="43.0224370000" lon="0.2388900000"><ele>1004</ele><time>2026-03-20T08:35:27Z</time></trkpt>
<trkpt lat="43.0224320000" lon="0.2388600000"><ele>1004</ele><time>2026-03-20T08:35:29Z</time></trkpt>
<trkpt lat="43.0224250000" lon="0.2388220000"><ele>1004</ele><time>2026-03-20T08:35:31Z</time></trkpt>
<trkpt lat="43.0224270000" lon="0.2387880000"><ele>1005</ele><time>2026-03-20T08:35:33Z</time></trkpt>
<trkpt lat="43.0224420000" lon="0.2387620000"><ele>1005</ele><time>2026-03-20T08:35:35Z</time></trkpt>
<trkpt lat="43.0224520000" lon="0.2387370000"><ele>1005</ele><time>2026-03-20T08:35:37Z</time></trkpt>
<trkpt lat="43.0224620000" lon="0.2387150000"><ele>1005</ele><time>2026-03-20T08:35:39Z</time></trkpt>
<trkpt lat="43.0224620000" lon="0.2386900000"><ele>1005</ele><time>2026-03-20T08:35:41Z</time></trkpt>
<trkpt lat="43.0224820000" lon="0.2386670000"><ele>1005</ele><time>2026-03-20T08:35:43Z</time></trkpt>
<trkpt lat="43.0225020000" lon="0.2386480000"><ele>1005</ele><time>2026-03-20T08:35:45Z</time></trkpt>
<trkpt lat="43.0225120000" lon="0.2386270000"><ele>1006</ele><time>2026-03-20T08:35:47Z</time></trkpt>
<trkpt lat="43.0225300000" lon="0.2386000000"><ele>1006</ele><time>2026-03-20T08:35:49Z</time></trkpt>
<trkpt lat="43.0225370000" lon="0.2385720000"><ele>1006</ele><time>2026-03-20T08:35:52Z</time></trkpt>
<trkpt lat="43.0225470000" lon="0.2385400000"><ele>1006</ele><time>2026-03-20T08:35:55Z</time></trkpt>
<trkpt lat="43.0225570000" lon="0.2385120000"><ele>1007</ele><time>2026-03-20T08:35:57Z</time></trkpt>
<trkpt lat="43.0225750000" lon="0.2384970000"><ele>1007</ele><time>2026-03-20T08:35:59Z</time></trkpt>
<trkpt lat="43.0225920000" lon="0.2384820000"><ele>1007</ele><time>2026-03-20T08:36:01Z</time></trkpt>
<trkpt lat="43.0226120000" lon="0.2384620000"><ele>1007</ele><time>2026-03-20T08:36:03Z</time></trkpt>
<trkpt lat="43.0226320000" lon="0.2384420000"><ele>1007</ele><time>2026-03-20T08:36:05Z</time></trkpt>
<trkpt lat="43.0226450000" lon="0.2384220000"><ele>1008</ele><time>2026-03-20T08:36:07Z</time></trkpt>
<trkpt lat="43.0226570000" lon="0.2383950000"><ele>1008</ele><time>2026-03-20T08:36:09Z</time></trkpt>
<trkpt lat="43.0226670000" lon="0.2383680000"><ele>1008</ele><time>2026-03-20T08:36:12Z</time></trkpt>
<trkpt lat="43.0226770000" lon="0.2383370000"><ele>1008</ele><time>2026-03-20T08:36:14Z</time></trkpt>
<trkpt lat="43.0226820000" lon="0.2383150000"><ele>1009</ele><time>2026-03-20T08:36:16Z</time></trkpt>
<trkpt lat="43.0226970000" lon="0.2382820000"><ele>1009</ele><time>2026-03-20T08:36:19Z</time></trkpt>
<trkpt lat="43.0227070000" lon="0.2382550000"><ele>1009</ele><time>2026-03-20T08:36:21Z</time></trkpt>
<trkpt lat="43.0227320000" lon="0.2382370000"><ele>1010</ele><time>2026-03-20T08:36:24Z</time></trkpt>
<trkpt lat="43.0227470000" lon="0.2382220000"><ele>1010</ele><time>2026-03-20T08:36:26Z</time></trkpt>
<trkpt lat="43.0227620000" lon="0.2381950000"><ele>1010</ele><time>2026-03-20T08:36:29Z</time></trkpt>
<trkpt lat="43.0227720000" lon="0.2381720000"><ele>1010</ele><time>2026-03-20T08:36:31Z</time></trkpt>
<trkpt lat="43.0227670000" lon="0.2381350000"><ele>1011</ele><time>2026-03-20T08:36:37Z</time></trkpt>
<trkpt lat="43.0227550000" lon="0.2381020000"><ele>1012</ele><time>2026-03-20T08:36:39Z</time></trkpt>
<trkpt lat="43.0227470000" lon="0.2380720000"><ele>1012</ele><time>2026-03-20T08:36:41Z</time></trkpt>
<trkpt lat="43.0227670000" lon="0.2380670000"><ele>1012</ele><time>2026-03-20T08:36:46Z</time></trkpt>
<trkpt lat="43.0227770000" lon="0.2380870000"><ele>1012</ele><time>2026-03-20T08:36:48Z</time></trkpt>
<trkpt lat="43.0227820000" lon="0.2380650000"><ele>1012</ele><time>2026-03-20T08:37:18Z</time></trkpt>
<trkpt lat="43.0227870000" lon="0.2380250000"><ele>1013</ele><time>2026-03-20T08:37:20Z</time></trkpt>
<trkpt lat="43.0227900000" lon="0.2379800000"><ele>1013</ele><time>2026-03-20T08:37:22Z</time></trkpt>
<trkpt lat="43.0227920000" lon="0.2379470000"><ele>1013</ele><time>2026-03-20T08:37:24Z</time></trkpt>
<trkpt lat="43.0227970000" lon="0.2379220000"><ele>1013</ele><time>2026-03-20T08:37:26Z</time></trkpt>
<trkpt lat="43.0228070000" lon="0.2379000000"><ele>1014</ele><time>2026-03-20T08:37:29Z</time></trkpt>
<trkpt lat="43.0228170000" lon="0.2378770000"><ele>1014</ele><time>2026-03-20T08:37:32Z</time></trkpt>
<trkpt lat="43.0228200000" lon="0.2378470000"><ele>1014</ele><time>2026-03-20T08:37:34Z</time></trkpt>
<trkpt lat="43.0228270000" lon="0.2378220000"><ele>1015</ele><time>2026-03-20T08:37:44Z</time></trkpt>
<trkpt lat="43.0228270000" lon="0.2377970000"><ele>1015</ele><time>2026-03-20T08:37:48Z</time></trkpt>
<trkpt lat="43.0228300000" lon="0.2377620000"><ele>1016</ele><time>2026-03-20T08:37:55Z</time></trkpt>
<trkpt lat="43.0228250000" lon="0.2377270000"><ele>1016</ele><time>2026-03-20T08:37:57Z</time></trkpt>
<trkpt lat="43.0228220000" lon="0.2376970000"><ele>1016</ele><time>2026-03-20T08:37:59Z</time></trkpt>
<trkpt lat="43.0228270000" lon="0.2376680000"><ele>1017</ele><time>2026-03-20T08:38:01Z</time></trkpt>
<trkpt lat="43.0228250000" lon="0.2376420000"><ele>1017</ele><time>2026-03-20T08:38:04Z</time></trkpt>
<trkpt lat="43.0228420000" lon="0.2376200000"><ele>1017</ele><time>2026-03-20T08:38:07Z</time></trkpt>
<trkpt lat="43.0228520000" lon="0.2375920000"><ele>1018</ele><time>2026-03-20T08:38:14Z</time></trkpt>
<trkpt lat="43.0228620000" lon="0.2375650000"><ele>1018</ele><time>2026-03-20T08:38:16Z</time></trkpt>
<trkpt lat="43.0228670000" lon="0.2375370000"><ele>1018</ele><time>2026-03-20T08:38:18Z</time></trkpt>
<trkpt lat="43.0228670000" lon="0.2375070000"><ele>1018</ele><time>2026-03-20T08:38:21Z</time></trkpt>
<trkpt lat="43.0228600000" lon="0.2374720000"><ele>1018</ele><time>2026-03-20T08:38:24Z</time></trkpt>
<trkpt lat="43.0228620000" lon="0.2374430000"><ele>1019</ele><time>2026-03-20T08:38:26Z</time></trkpt>
<trkpt lat="43.0228620000" lon="0.2374100000"><ele>1019</ele><time>2026-03-20T08:38:29Z</time></trkpt>
<trkpt lat="43.0228670000" lon="0.2373820000"><ele>1019</ele><time>2026-03-20T08:38:31Z</time></trkpt>
<trkpt lat="43.0228720000" lon="0.2373570000"><ele>1019</ele><time>2026-03-20T08:38:34Z</time></trkpt>
<trkpt lat="43.0228920000" lon="0.2373320000"><ele>1020</ele><time>2026-03-20T08:38:37Z</time></trkpt>
<trkpt lat="43.0229100000" lon="0.2373120000"><ele>1020</ele><time>2026-03-20T08:38:40Z</time></trkpt>
<trkpt lat="43.0229270000" lon="0.2372870000"><ele>1020</ele><time>2026-03-20T08:38:43Z</time></trkpt>
<trkpt lat="43.0229250000" lon="0.2372520000"><ele>1021</ele><time>2026-03-20T08:38:46Z</time></trkpt>
<trkpt lat="43.0229270000" lon="0.2372220000"><ele>1021</ele><time>2026-03-20T08:38:48Z</time></trkpt>
<trkpt lat="43.0229300000" lon="0.2371970000"><ele>1021</ele><time>2026-03-20T08:38:50Z</time></trkpt>
<trkpt lat="43.0229420000" lon="0.2371770000"><ele>1021</ele><time>2026-03-20T08:38:52Z</time></trkpt>
<trkpt lat="43.0229450000" lon="0.2371520000"><ele>1021</ele><time>2026-03-20T08:38:54Z</time></trkpt>
<trkpt lat="43.0229470000" lon="0.2371230000"><ele>1021</ele><time>2026-03-20T08:38:57Z</time></trkpt>
<trkpt lat="43.0229370000" lon="0.2370870000"><ele>1022</ele><time>2026-03-20T08:38:59Z</time></trkpt>
<trkpt lat="43.0229320000" lon="0.2370570000"><ele>1022</ele><time>2026-03-20T08:39:02Z</time></trkpt>
<trkpt lat="43.0229400000" lon="0.2370320000"><ele>1022</ele><time>2026-03-20T08:39:05Z</time></trkpt>
<trkpt lat="43.0229520000" lon="0.2370120000"><ele>1023</ele><time>2026-03-20T08:39:08Z</time></trkpt>
<trkpt lat="43.0229670000" lon="0.2369820000"><ele>1023</ele><time>2026-03-20T08:39:12Z</time></trkpt>
<trkpt lat="43.0229770000" lon="0.2369600000"><ele>1023</ele><time>2026-03-20T08:39:15Z</time></trkpt>
<trkpt lat="43.0229800000" lon="0.2369350000"><ele>1024</ele><time>2026-03-20T08:39:17Z</time></trkpt>
<trkpt lat="43.0229720000" lon="0.2369020000"><ele>1024</ele><time>2026-03-20T08:39:20Z</time></trkpt>
<trkpt lat="43.0229570000" lon="0.2368820000"><ele>1024</ele><time>2026-03-20T08:39:22Z</time></trkpt>
<trkpt lat="43.0229570000" lon="0.2368550000"><ele>1024</ele><time>2026-03-20T08:39:24Z</time></trkpt>
<trkpt lat="43.0229450000" lon="0.2368270000"><ele>1025</ele><time>2026-03-20T08:39:27Z</time></trkpt>
<trkpt lat="43.0229370000" lon="0.2367920000"><ele>1025</ele><time>2026-03-20T08:39:30Z</time></trkpt>
<trkpt lat="43.0229420000" lon="0.2367620000"><ele>1025</ele><time>2026-03-20T08:39:33Z</time></trkpt>
<trkpt lat="43.0229500000" lon="0.2367400000"><ele>1025</ele><time>2026-03-20T08:39:34Z</time></trkpt>
<trkpt lat="43.0229570000" lon="0.2367120000"><ele>1026</ele><time>2026-03-20T08:39:36Z</time></trkpt>
<trkpt lat="43.0229670000" lon="0.2366770000"><ele>1026</ele><time>2026-03-20T08:39:39Z</time></trkpt>
<trkpt lat="43.0229770000" lon="0.2366520000"><ele>1026</ele><time>2026-03-20T08:39:41Z</time></trkpt>
<trkpt lat="43.0229870000" lon="0.2366300000"><ele>1027</ele><time>2026-03-20T08:39:44Z</time></trkpt>
<trkpt lat="43.0230020000" lon="0.2366050000"><ele>1027</ele><time>2026-03-20T08:39:48Z</time></trkpt>
<trkpt lat="43.0230170000" lon="0.2365870000"><ele>1027</ele><time>2026-03-20T08:39:50Z</time></trkpt>
<trkpt lat="43.0230170000" lon="0.2365500000"><ele>1028</ele><time>2026-03-20T08:39:53Z</time></trkpt>
<trkpt lat="43.0230120000" lon="0.2365220000"><ele>1028</ele><time>2026-03-20T08:39:56Z</time></trkpt>
<trkpt lat="43.0230250000" lon="0.2364950000"><ele>1028</ele><time>2026-03-20T08:39:59Z</time></trkpt>
<trkpt lat="43.0230400000" lon="0.2364770000"><ele>1029</ele><time>2026-03-20T08:40:02Z</time></trkpt>
<trkpt lat="43.0230520000" lon="0.2364520000"><ele>1029</ele><time>2026-03-20T08:40:06Z</time></trkpt>
<trkpt lat="43.0230670000" lon="0.2364180000"><ele>1029</ele><time>2026-03-20T08:40:09Z</time></trkpt>
<trkpt lat="43.0230750000" lon="0.2363870000"><ele>1030</ele><time>2026-03-20T08:40:12Z</time></trkpt>
<trkpt lat="43.0230820000" lon="0.2363620000"><ele>1030</ele><time>2026-03-20T08:40:15Z</time></trkpt>
<trkpt lat="43.0230920000" lon="0.2363330000"><ele>1031</ele><time>2026-03-20T08:40:18Z</time></trkpt>
<trkpt lat="43.0230870000" lon="0.2363000000"><ele>1031</ele><time>2026-03-20T08:40:23Z</time></trkpt>
<trkpt lat="43.0230920000" lon="0.2362750000"><ele>1032</ele><time>2026-03-20T08:40:26Z</time></trkpt>
<trkpt lat="43.0230970000" lon="0.2362420000"><ele>1032</ele><time>2026-03-20T08:40:30Z</time></trkpt>
<trkpt lat="43.0230970000" lon="0.2362170000"><ele>1032</ele><time>2026-03-20T08:40:33Z</time></trkpt>
<trkpt lat="43.0230920000" lon="0.2361900000"><ele>1033</ele><time>2026-03-20T08:40:36Z</time></trkpt>
<trkpt lat="43.0231020000" lon="0.2361520000"><ele>1033</ele><time>2026-03-20T08:40:39Z</time></trkpt>
<trkpt lat="43.0231100000" lon="0.2361220000"><ele>1034</ele><time>2026-03-20T08:40:42Z</time></trkpt>
<trkpt lat="43.0231150000" lon="0.2360870000"><ele>1034</ele><time>2026-03-20T08:40:45Z</time></trkpt>
<trkpt lat="43.0231170000" lon="0.2360570000"><ele>1034</ele><time>2026-03-20T08:40:49Z</time></trkpt>
<trkpt lat="43.0231150000" lon="0.2360320000"><ele>1035</ele><time>2026-03-20T08:40:52Z</time></trkpt>
<trkpt lat="43.0231200000" lon="0.2360070000"><ele>1035</ele><time>2026-03-20T08:40:56Z</time></trkpt>
<trkpt lat="43.0231170000" lon="0.2359820000"><ele>1036</ele><time>2026-03-20T08:40:59Z</time></trkpt>
<trkpt lat="43.0231050000" lon="0.2359470000"><ele>1036</ele><time>2026-03-20T08:41:02Z</time></trkpt>
<trkpt lat="43.0231120000" lon="0.2359180000"><ele>1036</ele><time>2026-03-20T08:41:05Z</time></trkpt>
<trkpt lat="43.0231100000" lon="0.2358950000"><ele>1036</ele><time>2026-03-20T08:41:07Z</time></trkpt>
<trkpt lat="43.0231070000" lon="0.2358680000"><ele>1036</ele><time>2026-03-20T08:41:09Z</time></trkpt>
<trkpt lat="43.0230970000" lon="0.2358370000"><ele>1037</ele><time>2026-03-20T08:41:12Z</time></trkpt>
<trkpt lat="43.0230920000" lon="0.2358000000"><ele>1037</ele><time>2026-03-20T08:41:15Z</time></trkpt>
<trkpt lat="43.0230920000" lon="0.2357670000"><ele>1037</ele><time>2026-03-20T08:41:17Z</time></trkpt>
<trkpt lat="43.0231050000" lon="0.2357370000"><ele>1038</ele><time>2026-03-20T08:41:20Z</time></trkpt>
<trkpt lat="43.0231120000" lon="0.2357100000"><ele>1038</ele><time>2026-03-20T08:41:23Z</time></trkpt>
<trkpt lat="43.0231120000" lon="0.2356800000"><ele>1038</ele><time>2026-03-20T08:41:26Z</time></trkpt>
<trkpt lat="43.0231070000" lon="0.2356520000"><ele>1039</ele><time>2026-03-20T08:41:29Z</time></trkpt>
<trkpt lat="43.0230950000" lon="0.2356220000"><ele>1039</ele><time>2026-03-20T08:41:32Z</time></trkpt>
<trkpt lat="43.0230900000" lon="0.2355930000"><ele>1039</ele><time>2026-03-20T08:41:35Z</time></trkpt>
<trkpt lat="43.0230970000" lon="0.2355600000"><ele>1040</ele><time>2026-03-20T08:41:52Z</time></trkpt>
<trkpt lat="43.0231120000" lon="0.2355150000"><ele>1041</ele><time>2026-03-20T08:41:54Z</time></trkpt>
<trkpt lat="43.0231170000" lon="0.2354920000"><ele>1041</ele><time>2026-03-20T08:41:55Z</time></trkpt>
<trkpt lat="43.0231220000" lon="0.2354670000"><ele>1041</ele><time>2026-03-20T08:41:56Z</time></trkpt>
<trkpt lat="43.0231200000" lon="0.2354300000"><ele>1041</ele><time>2026-03-20T08:41:58Z</time></trkpt>
<trkpt lat="43.0231120000" lon="0.2354020000"><ele>1041</ele><time>2026-03-20T08:42:01Z</time></trkpt>
<trkpt lat="43.0231050000" lon="0.2353670000"><ele>1042</ele><time>2026-03-20T08:42:04Z</time></trkpt>
<trkpt lat="43.0231100000" lon="0.2353370000"><ele>1042</ele><time>2026-03-20T08:42:07Z</time></trkpt>
<trkpt lat="43.0231120000" lon="0.2353070000"><ele>1042</ele><time>2026-03-20T08:42:11Z</time></trkpt>
<trkpt lat="43.0231050000" lon="0.2352820000"><ele>1043</ele><time>2026-03-20T08:42:14Z</time></trkpt>
<trkpt lat="43.0230970000" lon="0.2352500000"><ele>1043</ele><time>2026-03-20T08:42:17Z</time></trkpt>
<trkpt lat="43.0231020000" lon="0.2352200000"><ele>1043</ele><time>2026-03-20T08:42:19Z</time></trkpt>
<trkpt lat="43.0231150000" lon="0.2351850000"><ele>1043</ele><time>2026-03-20T08:42:22Z</time></trkpt>
<trkpt lat="43.0231200000" lon="0.2351600000"><ele>1044</ele><time>2026-03-20T08:42:24Z</time></trkpt>
<trkpt lat="43.0231300000" lon="0.2351350000"><ele>1044</ele><time>2026-03-20T08:42:27Z</time></trkpt>
<trkpt lat="43.0231400000" lon="0.2351120000"><ele>1044</ele><time>2026-03-20T08:42:30Z</time></trkpt>
<trkpt lat="43.0231550000" lon="0.2350830000"><ele>1045</ele><time>2026-03-20T08:42:33Z</time></trkpt>
<trkpt lat="43.0231670000" lon="0.2350520000"><ele>1045</ele><time>2026-03-20T08:42:35Z</time></trkpt>
<trkpt lat="43.0231720000" lon="0.2350220000"><ele>1045</ele><time>2026-03-20T08:42:38Z</time></trkpt>
<trkpt lat="43.0231670000" lon="0.2349950000"><ele>1046</ele><time>2026-03-20T08:42:41Z</time></trkpt>
<trkpt lat="43.0231670000" lon="0.2349670000"><ele>1046</ele><time>2026-03-20T08:42:43Z</time></trkpt>
<trkpt lat="43.0231770000" lon="0.2349370000"><ele>1046</ele><time>2026-03-20T08:42:46Z</time></trkpt>
<trkpt lat="43.0231920000" lon="0.2349100000"><ele>1047</ele><time>2026-03-20T08:42:49Z</time></trkpt>
<trkpt lat="43.0232070000" lon="0.2348820000"><ele>1047</ele><time>2026-03-20T08:42:52Z</time></trkpt>
<trkpt lat="43.0232170000" lon="0.2348520000"><ele>1047</ele><time>2026-03-20T08:42:55Z</time></trkpt>
<trkpt lat="43.0232400000" lon="0.2348200000"><ele>1048</ele><time>2026-03-20T08:42:59Z</time></trkpt>
<trkpt lat="43.0232570000" lon="0.2347900000"><ele>1048</ele><time>2026-03-20T08:43:02Z</time></trkpt>
<trkpt lat="43.0232720000" lon="0.2347670000"><ele>1048</ele><time>2026-03-20T08:43:04Z</time></trkpt>
<trkpt lat="43.0232800000" lon="0.2347400000"><ele>1048</ele><time>2026-03-20T08:43:06Z</time></trkpt>
<trkpt lat="43.0232920000" lon="0.2347220000"><ele>1048</ele><time>2026-03-20T08:43:08Z</time></trkpt>
<trkpt lat="43.0233120000" lon="0.2347070000"><ele>1049</ele><time>2026-03-20T08:43:11Z</time></trkpt>
<trkpt lat="43.0233270000" lon="0.2346770000"><ele>1049</ele><time>2026-03-20T08:43:15Z</time></trkpt>
<trkpt lat="43.0233370000" lon="0.2346450000"><ele>1050</ele><time>2026-03-20T08:43:17Z</time></trkpt>
<trkpt lat="43.0233470000" lon="0.2346170000"><ele>1050</ele><time>2026-03-20T08:43:19Z</time></trkpt>
<trkpt lat="43.0233620000" lon="0.2345920000"><ele>1050</ele><time>2026-03-20T08:43:22Z</time></trkpt>
<trkpt lat="43.0233770000" lon="0.2345800000"><ele>1050</ele><time>2026-03-20T08:43:24Z</time></trkpt>
<trkpt lat="43.0234020000" lon="0.2345620000"><ele>1051</ele><time>2026-03-20T08:43:27Z</time></trkpt>
<trkpt lat="43.0234120000" lon="0.2345420000"><ele>1051</ele><time>2026-03-20T08:43:30Z</time></trkpt>
<trkpt lat="43.0234250000" lon="0.2345150000"><ele>1052</ele><time>2026-03-20T08:43:35Z</time></trkpt>
<trkpt lat="43.0234370000" lon="0.2344920000"><ele>1052</ele><time>2026-03-20T08:43:38Z</time></trkpt>
<trkpt lat="43.0234470000" lon="0.2344620000"><ele>1052</ele><time>2026-03-20T08:43:41Z</time></trkpt>
<trkpt lat="43.0234570000" lon="0.2344350000"><ele>1053</ele><time>2026-03-20T08:43:44Z</time></trkpt>
<trkpt lat="43.0234650000" lon="0.2344100000"><ele>1053</ele><time>2026-03-20T08:43:48Z</time></trkpt>
<trkpt lat="43.0234750000" lon="0.2343820000"><ele>1053</ele><time>2026-03-20T08:43:51Z</time></trkpt>
<trkpt lat="43.0234850000" lon="0.2343570000"><ele>1053</ele><time>2026-03-20T08:43:53Z</time></trkpt>
<trkpt lat="43.0234870000" lon="0.2343320000"><ele>1054</ele><time>2026-03-20T08:43:56Z</time></trkpt>
<trkpt lat="43.0234850000" lon="0.2343050000"><ele>1054</ele><time>2026-03-20T08:43:58Z</time></trkpt>
<trkpt lat="43.0234850000" lon="0.2342670000"><ele>1054</ele><time>2026-03-20T08:44:01Z</time></trkpt>
<trkpt lat="43.0234920000" lon="0.2342370000"><ele>1054</ele><time>2026-03-20T08:44:03Z</time></trkpt>
<trkpt lat="43.0234870000" lon="0.2342020000"><ele>1055</ele><time>2026-03-20T08:44:06Z</time></trkpt>
<trkpt lat="43.0234820000" lon="0.2341720000"><ele>1055</ele><time>2026-03-20T08:44:09Z</time></trkpt>
<trkpt lat="43.0234850000" lon="0.2341400000"><ele>1055</ele><time>2026-03-20T08:44:12Z</time></trkpt>
<trkpt lat="43.0234900000" lon="0.2341050000"><ele>1056</ele><time>2026-03-20T08:44:15Z</time></trkpt>
<trkpt lat="43.0235020000" lon="0.2340720000"><ele>1056</ele><time>2026-03-20T08:44:19Z</time></trkpt>
<trkpt lat="43.0235000000" lon="0.2340470000"><ele>1056</ele><time>2026-03-20T08:44:21Z</time></trkpt>
<trkpt lat="43.0235070000" lon="0.2340150000"><ele>1057</ele><time>2026-03-20T08:44:24Z</time></trkpt>
<trkpt lat="43.0235070000" lon="0.2339820000"><ele>1057</ele><time>2026-03-20T08:44:29Z</time></trkpt>
<trkpt lat="43.0235120000" lon="0.2339470000"><ele>1058</ele><time>2026-03-20T08:44:32Z</time></trkpt>
<trkpt lat="43.0235120000" lon="0.2339180000"><ele>1058</ele><time>2026-03-20T08:44:35Z</time></trkpt>
<trkpt lat="43.0235220000" lon="0.2338820000"><ele>1058</ele><time>2026-03-20T08:44:37Z</time></trkpt>
<trkpt lat="43.0235300000" lon="0.2338570000"><ele>1059</ele><time>2026-03-20T08:44:40Z</time></trkpt>
<trkpt lat="43.0235420000" lon="0.2338320000"><ele>1059</ele><time>2026-03-20T08:44:43Z</time></trkpt>
<trkpt lat="43.0235270000" lon="0.2337870000"><ele>1059</ele><time>2026-03-20T08:44:46Z</time></trkpt>
<trkpt lat="43.0235470000" lon="0.2337720000"><ele>1060</ele><time>2026-03-20T08:45:24Z</time></trkpt>
<trkpt lat="43.0235720000" lon="0.2337650000"><ele>1060</ele><time>2026-03-20T08:45:26Z</time></trkpt>
<trkpt lat="43.0235970000" lon="0.2337620000"><ele>1061</ele><time>2026-03-20T08:45:28Z</time></trkpt>
<trkpt lat="43.0236150000" lon="0.2337650000"><ele>1061</ele><time>2026-03-20T08:45:30Z</time></trkpt>
<trkpt lat="43.0236370000" lon="0.2337570000"><ele>1061</ele><time>2026-03-20T08:45:32Z</time></trkpt>
<trkpt lat="43.0236620000" lon="0.2337570000"><ele>1061</ele><time>2026-03-20T08:45:34Z</time></trkpt>
<trkpt lat="43.0236870000" lon="0.2337500000"><ele>1061</ele><time>2026-03-20T08:45:37Z</time></trkpt>
<trkpt lat="43.0237120000" lon="0.2337420000"><ele>1062</ele><time>2026-03-20T08:45:40Z</time></trkpt>
<trkpt lat="43.0237350000" lon="0.2337420000"><ele>1062</ele><time>2026-03-20T08:45:42Z</time></trkpt>
<trkpt lat="43.0237500000" lon="0.2337220000"><ele>1062</ele><time>2026-03-20T08:45:45Z</time></trkpt>
<trkpt lat="43.0237400000" lon="0.2337470000"><ele>1062</ele><time>2026-03-20T08:45:47Z</time></trkpt>
<trkpt lat="43.0237500000" lon="0.2337720000"><ele>1063</ele><time>2026-03-20T08:46:26Z</time></trkpt>
<trkpt lat="43.0237700000" lon="0.2337820000"><ele>1063</ele><time>2026-03-20T08:46:27Z</time></trkpt>
<trkpt lat="43.0237920000" lon="0.2337970000"><ele>1063</ele><time>2026-03-20T08:46:28Z</time></trkpt>
<trkpt lat="43.0238150000" lon="0.2338120000"><ele>1063</ele><time>2026-03-20T08:46:29Z</time></trkpt>
<trkpt lat="43.0238320000" lon="0.2338220000"><ele>1063</ele><time>2026-03-20T08:46:30Z</time></trkpt>
<trkpt lat="43.0238170000" lon="0.2338020000"><ele>1063</ele><time>2026-03-20T08:46:50Z</time></trkpt>
<trkpt lat="43.0238170000" lon="0.2337770000"><ele>1063</ele><time>2026-03-20T08:46:53Z</time></trkpt>
<trkpt lat="43.0238320000" lon="0.2338020000"><ele>1063</ele><time>2026-03-20T08:46:55Z</time></trkpt>
<trkpt lat="43.0238500000" lon="0.2338300000"><ele>1063</ele><time>2026-03-20T08:46:56Z</time></trkpt>
<trkpt lat="43.0238670000" lon="0.2338520000"><ele>1063</ele><time>2026-03-20T08:46:57Z</time></trkpt>
<trkpt lat="43.0238900000" lon="0.2338570000"><ele>1063</ele><time>2026-03-20T08:46:58Z</time></trkpt>
<trkpt lat="43.0239120000" lon="0.2338650000"><ele>1063</ele><time>2026-03-20T08:46:59Z</time></trkpt>
<trkpt lat="43.0239420000" lon="0.2338770000"><ele>1063</ele><time>2026-03-20T08:47:01Z</time></trkpt>
<trkpt lat="43.0239720000" lon="0.2338870000"><ele>1063</ele><time>2026-03-20T08:47:03Z</time></trkpt>
<trkpt lat="43.0239950000" lon="0.2338950000"><ele>1063</ele><time>2026-03-20T08:47:06Z</time></trkpt>
<trkpt lat="43.0240120000" lon="0.2338970000"><ele>1063</ele><time>2026-03-20T08:47:08Z</time></trkpt>
<trkpt lat="43.0240320000" lon="0.2338950000"><ele>1064</ele><time>2026-03-20T08:47:10Z</time></trkpt>
<trkpt lat="43.0240520000" lon="0.2338870000"><ele>1064</ele><time>2026-03-20T08:47:11Z</time></trkpt>
<trkpt lat="43.0240700000" lon="0.2338850000"><ele>1064</ele><time>2026-03-20T08:47:12Z</time></trkpt>
<trkpt lat="43.0240900000" lon="0.2338870000"><ele>1064</ele><time>2026-03-20T08:47:15Z</time></trkpt>
<trkpt lat="43.0241120000" lon="0.2338900000"><ele>1064</ele><time>2026-03-20T08:47:17Z</time></trkpt>
<trkpt lat="43.0241320000" lon="0.2338870000"><ele>1064</ele><time>2026-03-20T08:47:19Z</time></trkpt>
<trkpt lat="43.0241500000" lon="0.2338920000"><ele>1064</ele><time>2026-03-20T08:47:21Z</time></trkpt>
<trkpt lat="43.0241750000" lon="0.2338820000"><ele>1065</ele><time>2026-03-20T08:47:25Z</time></trkpt>
<trkpt lat="43.0242000000" lon="0.2338700000"><ele>1065</ele><time>2026-03-20T08:47:28Z</time></trkpt>
<trkpt lat="43.0242220000" lon="0.2338520000"><ele>1066</ele><time>2026-03-20T08:47:33Z</time></trkpt>
<trkpt lat="43.0242370000" lon="0.2338330000"><ele>1066</ele><time>2026-03-20T08:47:35Z</time></trkpt>
<trkpt lat="43.0242570000" lon="0.2338220000"><ele>1067</ele><time>2026-03-20T08:47:37Z</time></trkpt>
<trkpt lat="43.0242700000" lon="0.2337970000"><ele>1067</ele><time>2026-03-20T08:47:39Z</time></trkpt>
<trkpt lat="43.0242800000" lon="0.2337670000"><ele>1067</ele><time>2026-03-20T08:47:41Z</time></trkpt>
<trkpt lat="43.0242870000" lon="0.2337420000"><ele>1067</ele><time>2026-03-20T08:47:44Z</time></trkpt>
<trkpt lat="43.0242970000" lon="0.2337120000"><ele>1068</ele><time>2026-03-20T08:47:46Z</time></trkpt>
<trkpt lat="43.0243070000" lon="0.2336920000"><ele>1068</ele><time>2026-03-20T08:47:48Z</time></trkpt>
<trkpt lat="43.0243200000" lon="0.2336620000"><ele>1068</ele><time>2026-03-20T08:47:51Z</time></trkpt>
<trkpt lat="43.0243270000" lon="0.2336350000"><ele>1068</ele><time>2026-03-20T08:47:53Z</time></trkpt>
<trkpt lat="43.0243420000" lon="0.2336070000"><ele>1069</ele><time>2026-03-20T08:47:56Z</time></trkpt>
<trkpt lat="43.0243570000" lon="0.2335620000"><ele>1069</ele><time>2026-03-20T08:47:59Z</time></trkpt>
<trkpt lat="43.0243620000" lon="0.2335400000"><ele>1069</ele><time>2026-03-20T08:48:00Z</time></trkpt>
<trkpt lat="43.0243770000" lon="0.2335080000"><ele>1069</ele><time>2026-03-20T08:48:02Z</time></trkpt>
<trkpt lat="43.0243870000" lon="0.2334870000"><ele>1070</ele><time>2026-03-20T08:48:05Z</time></trkpt>
<trkpt lat="43.0243950000" lon="0.2334450000"><ele>1070</ele><time>2026-03-20T08:48:08Z</time></trkpt>
<trkpt lat="43.0244120000" lon="0.2334220000"><ele>1070</ele><time>2026-03-20T08:48:10Z</time></trkpt>
<trkpt lat="43.0244350000" lon="0.2334020000"><ele>1070</ele><time>2026-03-20T08:48:12Z</time></trkpt>
<trkpt lat="43.0244500000" lon="0.2333720000"><ele>1070</ele><time>2026-03-20T08:48:15Z</time></trkpt>
<trkpt lat="43.0244570000" lon="0.2333500000"><ele>1070</ele><time>2026-03-20T08:48:18Z</time></trkpt>
<trkpt lat="43.0244670000" lon="0.2333220000"><ele>1070</ele><time>2026-03-20T08:48:20Z</time></trkpt>
<trkpt lat="43.0244820000" lon="0.2332870000"><ele>1070</ele><time>2026-03-20T08:48:22Z</time></trkpt>
<trkpt lat="43.0244870000" lon="0.2332520000"><ele>1070</ele><time>2026-03-20T08:48:24Z</time></trkpt>
<trkpt lat="43.0245000000" lon="0.2332320000"><ele>1070</ele><time>2026-03-20T08:48:25Z</time></trkpt>
<trkpt lat="43.0245070000" lon="0.2332070000"><ele>1070</ele><time>2026-03-20T08:48:26Z</time></trkpt>
<trkpt lat="43.0245170000" lon="0.2331850000"><ele>1070</ele><time>2026-03-20T08:48:27Z</time></trkpt>
<trkpt lat="43.0245230000" lon="0.2331600000"><ele>1070</ele><time>2026-03-20T08:48:29Z</time></trkpt>
<trkpt lat="43.0245320000" lon="0.2331320000"><ele>1070</ele><time>2026-03-20T08:48:32Z</time></trkpt>
<trkpt lat="43.0245450000" lon="0.2331120000"><ele>1070</ele><time>2026-03-20T08:48:34Z</time></trkpt>
<trkpt lat="43.0245650000" lon="0.2330970000"><ele>1070</ele><time>2026-03-20T08:48:36Z</time></trkpt>
<trkpt lat="43.0245870000" lon="0.2330880000"><ele>1070</ele><time>2026-03-20T08:48:38Z</time></trkpt>
<trkpt lat="43.0246020000" lon="0.2330670000"><ele>1071</ele><time>2026-03-20T08:48:40Z</time></trkpt>
<trkpt lat="43.0246170000" lon="0.2330420000"><ele>1070</ele><time>2026-03-20T08:48:43Z</time></trkpt>
<trkpt lat="43.0246200000" lon="0.2330070000"><ele>1070</ele><time>2026-03-20T08:48:46Z</time></trkpt>
<trkpt lat="43.0246320000" lon="0.2329720000"><ele>1070</ele><time>2026-03-20T08:48:50Z</time></trkpt>
<trkpt lat="43.0246500000" lon="0.2329520000"><ele>1070</ele><time>2026-03-20T08:48:52Z</time></trkpt>
<trkpt lat="43.0246600000" lon="0.2329300000"><ele>1070</ele><time>2026-03-20T08:48:54Z</time></trkpt>
<trkpt lat="43.0246770000" lon="0.2329120000"><ele>1070</ele><time>2026-03-20T08:48:55Z</time></trkpt>
<trkpt lat="43.0246920000" lon="0.2328950000"><ele>1070</ele><time>2026-03-20T08:48:57Z</time></trkpt>
<trkpt lat="43.0247150000" lon="0.2328770000"><ele>1070</ele><time>2026-03-20T08:48:59Z</time></trkpt>
<trkpt lat="43.0247320000" lon="0.2328620000"><ele>1070</ele><time>2026-03-20T08:49:01Z</time></trkpt>
<trkpt lat="43.0247570000" lon="0.2328500000"><ele>1070</ele><time>2026-03-20T08:49:04Z</time></trkpt>
<trkpt lat="43.0247800000" lon="0.2328320000"><ele>1071</ele><time>2026-03-20T08:49:07Z</time></trkpt>
<trkpt lat="43.0247950000" lon="0.2328070000"><ele>1071</ele><time>2026-03-20T08:49:09Z</time></trkpt>
<trkpt lat="43.0248120000" lon="0.2327920000"><ele>1071</ele><time>2026-03-20T08:49:11Z</time></trkpt>
<trkpt lat="43.0248220000" lon="0.2327620000"><ele>1071</ele><time>2026-03-20T08:49:13Z</time></trkpt>
<trkpt lat="43.0248420000" lon="0.2327400000"><ele>1071</ele><time>2026-03-20T08:49:15Z</time></trkpt>
<trkpt lat="43.0248670000" lon="0.2327270000"><ele>1071</ele><time>2026-03-20T08:49:17Z</time></trkpt>
<trkpt lat="43.0248850000" lon="0.2327000000"><ele>1071</ele><time>2026-03-20T08:49:20Z</time></trkpt>
<trkpt lat="43.0248970000" lon="0.2326770000"><ele>1071</ele><time>2026-03-20T08:49:22Z</time></trkpt>
<trkpt lat="43.0249150000" lon="0.2326620000"><ele>1071</ele><time>2026-03-20T08:49:24Z</time></trkpt>
<trkpt lat="43.0249320000" lon="0.2326470000"><ele>1071</ele><time>2026-03-20T08:49:26Z</time></trkpt>
<trkpt lat="43.0249570000" lon="0.2326320000"><ele>1071</ele><time>2026-03-20T08:49:29Z</time></trkpt>
<trkpt lat="43.0249730000" lon="0.2326270000"><ele>1071</ele><time>2026-03-20T08:49:31Z</time></trkpt>
<trkpt lat="43.0250020000" lon="0.2326300000"><ele>1071</ele><time>2026-03-20T08:49:33Z</time></trkpt>
<trkpt lat="43.0250200000" lon="0.2326000000"><ele>1071</ele><time>2026-03-20T08:49:35Z</time></trkpt>
<trkpt lat="43.0250270000" lon="0.2325770000"><ele>1071</ele><time>2026-03-20T08:49:36Z</time></trkpt>
<trkpt lat="43.0250370000" lon="0.2325520000"><ele>1071</ele><time>2026-03-20T08:49:37Z</time></trkpt>
<trkpt lat="43.0250570000" lon="0.2325270000"><ele>1071</ele><time>2026-03-20T08:49:39Z</time></trkpt>
<trkpt lat="43.0250700000" lon="0.2325020000"><ele>1071</ele><time>2026-03-20T08:49:41Z</time></trkpt>
<trkpt lat="43.0250770000" lon="0.2324720000"><ele>1071</ele><time>2026-03-20T08:49:43Z</time></trkpt>
<trkpt lat="43.0250970000" lon="0.2324700000"><ele>1071</ele><time>2026-03-20T08:49:46Z</time></trkpt>
<trkpt lat="43.0251220000" lon="0.2324620000"><ele>1071</ele><time>2026-03-20T08:49:48Z</time></trkpt>
<trkpt lat="43.0251070000" lon="0.2324450000"><ele>1071</ele><time>2026-03-20T08:49:57Z</time></trkpt>
<trkpt lat="43.0251280000" lon="0.2324220000"><ele>1071</ele><time>2026-03-20T08:50:12Z</time></trkpt>
<trkpt lat="43.0251470000" lon="0.2323920000"><ele>1071</ele><time>2026-03-20T08:50:14Z</time></trkpt>
<trkpt lat="43.0251670000" lon="0.2323650000"><ele>1071</ele><time>2026-03-20T08:50:16Z</time></trkpt>
<trkpt lat="43.0251870000" lon="0.2323520000"><ele>1071</ele><time>2026-03-20T08:50:18Z</time></trkpt>
<trkpt lat="43.0252050000" lon="0.2323400000"><ele>1071</ele><time>2026-03-20T08:50:21Z</time></trkpt>
<trkpt lat="43.0252170000" lon="0.2323170000"><ele>1072</ele><time>2026-03-20T08:50:35Z</time></trkpt>
<trkpt lat="43.0252250000" lon="0.2322800000"><ele>1072</ele><time>2026-03-20T08:50:37Z</time></trkpt>
<trkpt lat="43.0252350000" lon="0.2322470000"><ele>1072</ele><time>2026-03-20T08:50:39Z</time></trkpt>
<trkpt lat="43.0252520000" lon="0.2322150000"><ele>1072</ele><time>2026-03-20T08:50:41Z</time></trkpt>
<trkpt lat="43.0252520000" lon="0.2321720000"><ele>1072</ele><time>2026-03-20T08:50:43Z</time></trkpt>
<trkpt lat="43.0252570000" lon="0.2321320000"><ele>1072</ele><time>2026-03-20T08:50:45Z</time></trkpt>
<trkpt lat="43.0252550000" lon="0.2321070000"><ele>1072</ele><time>2026-03-20T08:50:48Z</time></trkpt>
<trkpt lat="43.0252700000" lon="0.2320700000"><ele>1073</ele><time>2026-03-20T08:50:50Z</time></trkpt>
<trkpt lat="43.0252820000" lon="0.2320500000"><ele>1073</ele><time>2026-03-20T08:50:51Z</time></trkpt>
<trkpt lat="43.0252920000" lon="0.2320270000"><ele>1073</ele><time>2026-03-20T08:50:53Z</time></trkpt>
<trkpt lat="43.0253020000" lon="0.2320070000"><ele>1073</ele><time>2026-03-20T08:50:56Z</time></trkpt>
<trkpt lat="43.0253220000" lon="0.2320270000"><ele>1073</ele><time>2026-03-20T08:50:59Z</time></trkpt>
<trkpt lat="43.0253400000" lon="0.2320500000"><ele>1073</ele><time>2026-03-20T08:51:01Z</time></trkpt>
<trkpt lat="43.0253420000" lon="0.2320220000"><ele>1073</ele><time>2026-03-20T08:51:06Z</time></trkpt>
<trkpt lat="43.0253420000" lon="0.2319830000"><ele>1073</ele><time>2026-03-20T08:51:08Z</time></trkpt>
<trkpt lat="43.0253220000" lon="0.2319420000"><ele>1073</ele><time>2026-03-20T08:51:10Z</time></trkpt>
<trkpt lat="43.0253150000" lon="0.2319120000"><ele>1073</ele><time>2026-03-20T08:51:12Z</time></trkpt>
<trkpt lat="43.0253050000" lon="0.2318820000"><ele>1073</ele><time>2026-03-20T08:51:14Z</time></trkpt>
<trkpt lat="43.0252970000" lon="0.2318550000"><ele>1074</ele><time>2026-03-20T08:51:16Z</time></trkpt>
<trkpt lat="43.0253000000" lon="0.2318170000"><ele>1074</ele><time>2026-03-20T08:51:19Z</time></trkpt>
<trkpt lat="43.0253020000" lon="0.2317850000"><ele>1074</ele><time>2026-03-20T08:51:21Z</time></trkpt>
<trkpt lat="43.0253050000" lon="0.2317470000"><ele>1074</ele><time>2026-03-20T08:51:23Z</time></trkpt>
<trkpt lat="43.0253000000" lon="0.2317200000"><ele>1074</ele><time>2026-03-20T08:51:25Z</time></trkpt>
<trkpt lat="43.0253050000" lon="0.2316950000"><ele>1074</ele><time>2026-03-20T08:51:27Z</time></trkpt>
<trkpt lat="43.0253200000" lon="0.2316720000"><ele>1074</ele><time>2026-03-20T08:51:29Z</time></trkpt>
<trkpt lat="43.0253200000" lon="0.2316450000"><ele>1074</ele><time>2026-03-20T08:51:31Z</time></trkpt>
<trkpt lat="43.0253200000" lon="0.2316050000"><ele>1074</ele><time>2026-03-20T08:51:33Z</time></trkpt>
<trkpt lat="43.0253200000" lon="0.2315680000"><ele>1074</ele><time>2026-03-20T08:51:36Z</time></trkpt>
<trkpt lat="43.0253100000" lon="0.2315420000"><ele>1074</ele><time>2026-03-20T08:51:38Z</time></trkpt>
<trkpt lat="43.0253170000" lon="0.2315170000"><ele>1074</ele><time>2026-03-20T08:51:40Z</time></trkpt>
<trkpt lat="43.0253370000" lon="0.2315120000"><ele>1074</ele><time>2026-03-20T08:51:44Z</time></trkpt>
<trkpt lat="43.0253420000" lon="0.2314730000"><ele>1074</ele><time>2026-03-20T08:51:47Z</time></trkpt>
<trkpt lat="43.0253320000" lon="0.2314520000"><ele>1074</ele><time>2026-03-20T08:51:50Z</time></trkpt>
<trkpt lat="43.0253220000" lon="0.2314120000"><ele>1075</ele><time>2026-03-20T08:51:53Z</time></trkpt>
<trkpt lat="43.0253120000" lon="0.2313820000"><ele>1074</ele><time>2026-03-20T08:51:55Z</time></trkpt>
<trkpt lat="43.0253120000" lon="0.2313470000"><ele>1074</ele><time>2026-03-20T08:51:57Z</time></trkpt>
<trkpt lat="43.0253170000" lon="0.2313200000"><ele>1074</ele><time>2026-03-20T08:51:59Z</time></trkpt>
<trkpt lat="43.0253220000" lon="0.2312870000"><ele>1074</ele><time>2026-03-20T08:52:01Z</time></trkpt>
<trkpt lat="43.0253200000" lon="0.2312620000"><ele>1074</ele><time>2026-03-20T08:52:03Z</time></trkpt>
<trkpt lat="43.0253120000" lon="0.2312270000"><ele>1074</ele><time>2026-03-20T08:52:06Z</time></trkpt>
<trkpt lat="43.0253220000" lon="0.2311980000"><ele>1074</ele><time>2026-03-20T08:52:09Z</time></trkpt>
<trkpt lat="43.0253270000" lon="0.2311720000"><ele>1074</ele><time>2026-03-20T08:52:11Z</time></trkpt>
<trkpt lat="43.0253220000" lon="0.2311320000"><ele>1074</ele><time>2026-03-20T08:52:13Z</time></trkpt>
<trkpt lat="43.0253170000" lon="0.2310970000"><ele>1074</ele><time>2026-03-20T08:52:15Z</time></trkpt>
<trkpt lat="43.0253070000" lon="0.2310550000"><ele>1074</ele><time>2026-03-20T08:52:17Z</time></trkpt>
<trkpt lat="43.0253170000" lon="0.2310220000"><ele>1074</ele><time>2026-03-20T08:52:19Z</time></trkpt>
<trkpt lat="43.0253270000" lon="0.2309920000"><ele>1074</ele><time>2026-03-20T08:52:21Z</time></trkpt>
<trkpt lat="43.0253320000" lon="0.2309600000"><ele>1074</ele><time>2026-03-20T08:52:23Z</time></trkpt>
<trkpt lat="43.0253420000" lon="0.2309320000"><ele>1074</ele><time>2026-03-20T08:52:25Z</time></trkpt>
<trkpt lat="43.0253470000" lon="0.2309070000"><ele>1074</ele><time>2026-03-20T08:52:27Z</time></trkpt>
<trkpt lat="43.0253570000" lon="0.2308720000"><ele>1074</ele><time>2026-03-20T08:52:29Z</time></trkpt>
<trkpt lat="43.0253670000" lon="0.2308450000"><ele>1074</ele><time>2026-03-20T08:52:31Z</time></trkpt>
<trkpt lat="43.0253600000" lon="0.2308170000"><ele>1074</ele><time>2026-03-20T08:52:33Z</time></trkpt>
<trkpt lat="43.0253470000" lon="0.2307870000"><ele>1074</ele><time>2026-03-20T08:52:35Z</time></trkpt>
<trkpt lat="43.0253400000" lon="0.2307600000"><ele>1074</ele><time>2026-03-20T08:52:37Z</time></trkpt>
<trkpt lat="43.0253370000" lon="0.2307270000"><ele>1074</ele><time>2026-03-20T08:52:39Z</time></trkpt>
<trkpt lat="43.0253270000" lon="0.2306870000"><ele>1074</ele><time>2026-03-20T08:52:41Z</time></trkpt>
<trkpt lat="43.0253170000" lon="0.2306570000"><ele>1074</ele><time>2026-03-20T08:52:43Z</time></trkpt>
<trkpt lat="43.0253120000" lon="0.2306270000"><ele>1074</ele><time>2026-03-20T08:52:45Z</time></trkpt>
<trkpt lat="43.0253070000" lon="0.2305970000"><ele>1074</ele><time>2026-03-20T08:52:47Z</time></trkpt>
<trkpt lat="43.0253070000" lon="0.2305670000"><ele>1074</ele><time>2026-03-20T08:52:49Z</time></trkpt>
<trkpt lat="43.0253100000" lon="0.2305320000"><ele>1074</ele><time>2026-03-20T08:52:51Z</time></trkpt>
<trkpt lat="43.0253200000" lon="0.2304970000"><ele>1074</ele><time>2026-03-20T08:52:53Z</time></trkpt>
<trkpt lat="43.0253320000" lon="0.2304620000"><ele>1074</ele><time>2026-03-20T08:52:55Z</time></trkpt>
<trkpt lat="43.0253370000" lon="0.2304300000"><ele>1074</ele><time>2026-03-20T08:52:57Z</time></trkpt>
<trkpt lat="43.0253350000" lon="0.2303950000"><ele>1074</ele><time>2026-03-20T08:52:59Z</time></trkpt>
<trkpt lat="43.0253420000" lon="0.2303670000"><ele>1074</ele><time>2026-03-20T08:53:01Z</time></trkpt>
<trkpt lat="43.0253400000" lon="0.2303370000"><ele>1074</ele><time>2026-03-20T08:53:03Z</time></trkpt>
<trkpt lat="43.0253470000" lon="0.2303080000"><ele>1074</ele><time>2026-03-20T08:53:05Z</time></trkpt>
<trkpt lat="43.0253570000" lon="0.2302870000"><ele>1074</ele><time>2026-03-20T08:53:07Z</time></trkpt>
<trkpt lat="43.0253620000" lon="0.2302470000"><ele>1074</ele><time>2026-03-20T08:53:10Z</time></trkpt>
<trkpt lat="43.0253650000" lon="0.2302120000"><ele>1074</ele><time>2026-03-20T08:53:12Z</time></trkpt>
<trkpt lat="43.0253770000" lon="0.2301720000"><ele>1074</ele><time>2026-03-20T08:53:14Z</time></trkpt>
<trkpt lat="43.0253770000" lon="0.2301320000"><ele>1074</ele><time>2026-03-20T08:53:16Z</time></trkpt>
<trkpt lat="43.0253850000" lon="0.2301000000"><ele>1074</ele><time>2026-03-20T08:53:18Z</time></trkpt>
<trkpt lat="43.0253850000" lon="0.2300720000"><ele>1073</ele><time>2026-03-20T08:53:20Z</time></trkpt>
<trkpt lat="43.0253870000" lon="0.2300380000"><ele>1073</ele><time>2026-03-20T08:53:22Z</time></trkpt>
<trkpt lat="43.0253870000" lon="0.2300070000"><ele>1073</ele><time>2026-03-20T08:53:24Z</time></trkpt>
<trkpt lat="43.0253920000" lon="0.2299750000"><ele>1073</ele><time>2026-03-20T08:53:26Z</time></trkpt>
<trkpt lat="43.0254070000" lon="0.2299400000"><ele>1073</ele><time>2026-03-20T08:53:28Z</time></trkpt>
<trkpt lat="43.0254170000" lon="0.2299030000"><ele>1073</ele><time>2026-03-20T08:53:30Z</time></trkpt>
<trkpt lat="43.0254230000" lon="0.2298750000"><ele>1073</ele><time>2026-03-20T08:53:32Z</time></trkpt>
<trkpt lat="43.0254220000" lon="0.2298420000"><ele>1073</ele><time>2026-03-20T08:53:34Z</time></trkpt>
<trkpt lat="43.0254220000" lon="0.2298170000"><ele>1073</ele><time>2026-03-20T08:53:37Z</time></trkpt>
<trkpt lat="43.0254220000" lon="0.2297720000"><ele>1073</ele><time>2026-03-20T08:53:40Z</time></trkpt>
<trkpt lat="43.0254150000" lon="0.2297400000"><ele>1073</ele><time>2026-03-20T08:53:42Z</time></trkpt>
<trkpt lat="43.0254120000" lon="0.2297150000"><ele>1073</ele><time>2026-03-20T08:53:44Z</time></trkpt>
<trkpt lat="43.0254170000" lon="0.2296850000"><ele>1073</ele><time>2026-03-20T08:53:46Z</time></trkpt>
<trkpt lat="43.0254220000" lon="0.2296550000"><ele>1073</ele><time>2026-03-20T08:53:48Z</time></trkpt>
<trkpt lat="43.0254230000" lon="0.2296230000"><ele>1072</ele><time>2026-03-20T08:53:50Z</time></trkpt>
<trkpt lat="43.0254320000" lon="0.2295950000"><ele>1072</ele><time>2026-03-20T08:53:52Z</time></trkpt>
<trkpt lat="43.0254420000" lon="0.2295670000"><ele>1072</ele><time>2026-03-20T08:53:54Z</time></trkpt>
<trkpt lat="43.0254500000" lon="0.2295420000"><ele>1072</ele><time>2026-03-20T08:53:56Z</time></trkpt>
<trkpt lat="43.0254420000" lon="0.2295050000"><ele>1072</ele><time>2026-03-20T08:53:58Z</time></trkpt>
<trkpt lat="43.0254470000" lon="0.2294720000"><ele>1072</ele><time>2026-03-20T08:54:00Z</time></trkpt>
<trkpt lat="43.0254420000" lon="0.2294420000"><ele>1071</ele><time>2026-03-20T08:54:02Z</time></trkpt>
<trkpt lat="43.0254420000" lon="0.2294050000"><ele>1071</ele><time>2026-03-20T08:54:04Z</time></trkpt>
<trkpt lat="43.0254420000" lon="0.2293720000"><ele>1071</ele><time>2026-03-20T08:54:06Z</time></trkpt>
<trkpt lat="43.0254400000" lon="0.2293420000"><ele>1071</ele><time>2026-03-20T08:54:08Z</time></trkpt>
<trkpt lat="43.0254320000" lon="0.2293070000"><ele>1071</ele><time>2026-03-20T08:54:10Z</time></trkpt>
<trkpt lat="43.0254170000" lon="0.2292720000"><ele>1071</ele><time>2026-03-20T08:54:12Z</time></trkpt>
<trkpt lat="43.0254120000" lon="0.2292350000"><ele>1070</ele><time>2026-03-20T08:54:14Z</time></trkpt>
<trkpt lat="43.0254150000" lon="0.2292070000"><ele>1070</ele><time>2026-03-20T08:54:16Z</time></trkpt>
<trkpt lat="43.0254220000" lon="0.2291770000"><ele>1070</ele><time>2026-03-20T08:54:18Z</time></trkpt>
<trkpt lat="43.0254320000" lon="0.2291500000"><ele>1070</ele><time>2026-03-20T08:54:20Z</time></trkpt>
<trkpt lat="43.0254300000" lon="0.2291220000"><ele>1070</ele><time>2026-03-20T08:54:22Z</time></trkpt>
<trkpt lat="43.0254300000" lon="0.2290900000"><ele>1069</ele><time>2026-03-20T08:54:24Z</time></trkpt>
<trkpt lat="43.0254350000" lon="0.2290550000"><ele>1069</ele><time>2026-03-20T08:54:26Z</time></trkpt>
<trkpt lat="43.0254370000" lon="0.2290250000"><ele>1069</ele><time>2026-03-20T08:54:28Z</time></trkpt>
<trkpt lat="43.0254470000" lon="0.2289970000"><ele>1069</ele><time>2026-03-20T08:54:30Z</time></trkpt>
<trkpt lat="43.0254420000" lon="0.2289620000"><ele>1069</ele><time>2026-03-20T08:54:32Z</time></trkpt>
<trkpt lat="43.0254470000" lon="0.2289330000"><ele>1069</ele><time>2026-03-20T08:54:34Z</time></trkpt>
<trkpt lat="43.0254500000" lon="0.2289020000"><ele>1069</ele><time>2026-03-20T08:54:36Z</time></trkpt>
<trkpt lat="43.0254570000" lon="0.2288670000"><ele>1068</ele><time>2026-03-20T08:54:38Z</time></trkpt>
<trkpt lat="43.0254520000" lon="0.2288380000"><ele>1068</ele><time>2026-03-20T08:54:40Z</time></trkpt>
<trkpt lat="43.0254620000" lon="0.2288070000"><ele>1068</ele><time>2026-03-20T08:54:42Z</time></trkpt>
<trkpt lat="43.0254670000" lon="0.2287800000"><ele>1068</ele><time>2026-03-20T08:54:44Z</time></trkpt>
<trkpt lat="43.0254670000" lon="0.2287420000"><ele>1068</ele><time>2026-03-20T08:54:46Z</time></trkpt>
<trkpt lat="43.0254650000" lon="0.2287070000"><ele>1067</ele><time>2026-03-20T08:54:48Z</time></trkpt>
<trkpt lat="43.0254670000" lon="0.2286770000"><ele>1067</ele><time>2026-03-20T08:54:50Z</time></trkpt>
<trkpt lat="43.0254770000" lon="0.2286430000"><ele>1067</ele><time>2026-03-20T08:54:52Z</time></trkpt>
<trkpt lat="43.0254870000" lon="0.2286100000"><ele>1067</ele><time>2026-03-20T08:54:54Z</time></trkpt>
<trkpt lat="43.0254870000" lon="0.2285700000"><ele>1066</ele><time>2026-03-20T08:54:56Z</time></trkpt>
<trkpt lat="43.0254920000" lon="0.2285350000"><ele>1066</ele><time>2026-03-20T08:54:58Z</time></trkpt>
<trkpt lat="43.0254920000" lon="0.2284970000"><ele>1066</ele><time>2026-03-20T08:55:00Z</time></trkpt>
<trkpt lat="43.0254970000" lon="0.2284670000"><ele>1066</ele><time>2026-03-20T08:55:02Z</time></trkpt>
<trkpt lat="43.0255020000" lon="0.2284370000"><ele>1066</ele><time>2026-03-20T08:55:04Z</time></trkpt>
<trkpt lat="43.0255050000" lon="0.2284070000"><ele>1066</ele><time>2026-03-20T08:55:06Z</time></trkpt>
<trkpt lat="43.0255050000" lon="0.2283770000"><ele>1066</ele><time>2026-03-20T08:55:08Z</time></trkpt>
<trkpt lat="43.0255050000" lon="0.2283420000"><ele>1065</ele><time>2026-03-20T08:55:10Z</time></trkpt>
<trkpt lat="43.0255070000" lon="0.2283120000"><ele>1065</ele><time>2026-03-20T08:55:12Z</time></trkpt>
<trkpt lat="43.0255150000" lon="0.2282830000"><ele>1065</ele><time>2026-03-20T08:55:14Z</time></trkpt>
<trkpt lat="43.0255220000" lon="0.2282550000"><ele>1065</ele><time>2026-03-20T08:55:16Z</time></trkpt>
<trkpt lat="43.0255220000" lon="0.2282220000"><ele>1065</ele><time>2026-03-20T08:55:18Z</time></trkpt>
<trkpt lat="43.0255170000" lon="0.2281870000"><ele>1064</ele><time>2026-03-20T08:55:20Z</time></trkpt>
<trkpt lat="43.0255170000" lon="0.2281570000"><ele>1064</ele><time>2026-03-20T08:55:22Z</time></trkpt>
<trkpt lat="43.0255200000" lon="0.2281220000"><ele>1064</ele><time>2026-03-20T08:55:24Z</time></trkpt>
<trkpt lat="43.0255220000" lon="0.2280930000"><ele>1064</ele><time>2026-03-20T08:55:26Z</time></trkpt>
<trkpt lat="43.0255270000" lon="0.2280620000"><ele>1064</ele><time>2026-03-20T08:55:28Z</time></trkpt>
<trkpt lat="43.0255320000" lon="0.2280320000"><ele>1064</ele><time>2026-03-20T08:55:30Z</time></trkpt>
<trkpt lat="43.0255270000" lon="0.2280020000"><ele>1064</ele><time>2026-03-20T08:55:32Z</time></trkpt>
<trkpt lat="43.0255220000" lon="0.2279750000"><ele>1063</ele><time>2026-03-20T08:55:34Z</time></trkpt>
<trkpt lat="43.0255170000" lon="0.2279420000"><ele>1063</ele><time>2026-03-20T08:55:36Z</time></trkpt>
<trkpt lat="43.0255120000" lon="0.2279100000"><ele>1063</ele><time>2026-03-20T08:55:38Z</time></trkpt>
<trkpt lat="43.0255080000" lon="0.2278800000"><ele>1063</ele><time>2026-03-20T08:55:40Z</time></trkpt>
<trkpt lat="43.0255070000" lon="0.2278470000"><ele>1062</ele><time>2026-03-20T08:55:42Z</time></trkpt>
<trkpt lat="43.0254970000" lon="0.2278100000"><ele>1062</ele><time>2026-03-20T08:55:44Z</time></trkpt>
<trkpt lat="43.0254970000" lon="0.2277770000"><ele>1062</ele><time>2026-03-20T08:55:46Z</time></trkpt>
<trkpt lat="43.0254870000" lon="0.2277420000"><ele>1062</ele><time>2026-03-20T08:55:48Z</time></trkpt>
<trkpt lat="43.0254750000" lon="0.2277020000"><ele>1062</ele><time>2026-03-20T08:55:50Z</time></trkpt>
<trkpt lat="43.0254700000" lon="0.2276620000"><ele>1061</ele><time>2026-03-20T08:55:52Z</time></trkpt>
<trkpt lat="43.0254620000" lon="0.2276350000"><ele>1061</ele><time>2026-03-20T08:55:54Z</time></trkpt>
<trkpt lat="43.0254800000" lon="0.2276420000"><ele>1061</ele><time>2026-03-20T08:56:06Z</time></trkpt>
<trkpt lat="43.0254950000" lon="0.2276070000"><ele>1061</ele><time>2026-03-20T08:56:09Z</time></trkpt>
<trkpt lat="43.0254970000" lon="0.2275670000"><ele>1061</ele><time>2026-03-20T08:56:11Z</time></trkpt>
<trkpt lat="43.0254920000" lon="0.2275380000"><ele>1060</ele><time>2026-03-20T08:56:12Z</time></trkpt>
<trkpt lat="43.0254870000" lon="0.2275020000"><ele>1060</ele><time>2026-03-20T08:56:14Z</time></trkpt>
<trkpt lat="43.0254870000" lon="0.2274750000"><ele>1061</ele><time>2026-03-20T08:56:16Z</time></trkpt>
<trkpt lat="43.0254850000" lon="0.2274420000"><ele>1061</ele><time>2026-03-20T08:56:18Z</time></trkpt>
<trkpt lat="43.0254770000" lon="0.2274120000"><ele>1061</ele><time>2026-03-20T08:56:20Z</time></trkpt>
<trkpt lat="43.0254750000" lon="0.2273750000"><ele>1061</ele><time>2026-03-20T08:56:23Z</time></trkpt>
<trkpt lat="43.0254750000" lon="0.2273470000"><ele>1061</ele><time>2026-03-20T08:56:25Z</time></trkpt>
<trkpt lat="43.0254750000" lon="0.2273220000"><ele>1061</ele><time>2026-03-20T08:56:27Z</time></trkpt>
<trkpt lat="43.0254750000" lon="0.2272970000"><ele>1062</ele><time>2026-03-20T08:56:29Z</time></trkpt>
<trkpt lat="43.0254750000" lon="0.2272720000"><ele>1062</ele><time>2026-03-20T08:56:31Z</time></trkpt>
<trkpt lat="43.0254700000" lon="0.2272400000"><ele>1062</ele><time>2026-03-20T08:56:34Z</time></trkpt>
<trkpt lat="43.0254720000" lon="0.2272150000"><ele>1062</ele><time>2026-03-20T08:56:36Z</time></trkpt>
<trkpt lat="43.0254670000" lon="0.2271870000"><ele>1062</ele><time>2026-03-20T08:56:38Z</time></trkpt>
<trkpt lat="43.0254700000" lon="0.2271600000"><ele>1063</ele><time>2026-03-20T08:56:40Z</time></trkpt>
<trkpt lat="43.0254750000" lon="0.2271270000"><ele>1063</ele><time>2026-03-20T08:56:42Z</time></trkpt>
<trkpt lat="43.0254770000" lon="0.2271020000"><ele>1063</ele><time>2026-03-20T08:56:44Z</time></trkpt>
<trkpt lat="43.0254800000" lon="0.2270770000"><ele>1063</ele><time>2026-03-20T08:56:46Z</time></trkpt>
<trkpt lat="43.0254770000" lon="0.2270420000"><ele>1063</ele><time>2026-03-20T08:56:49Z</time></trkpt>
<trkpt lat="43.0254720000" lon="0.2270120000"><ele>1064</ele><time>2026-03-20T08:56:52Z</time></trkpt>
<trkpt lat="43.0254670000" lon="0.2269780000"><ele>1065</ele><time>2026-03-20T08:57:07Z</time></trkpt>
<trkpt lat="43.0254620000" lon="0.2269470000"><ele>1064</ele><time>2026-03-20T08:57:09Z</time></trkpt>
<trkpt lat="43.0254550000" lon="0.2269120000"><ele>1064</ele><time>2026-03-20T08:57:11Z</time></trkpt>
<trkpt lat="43.0254520000" lon="0.2268870000"><ele>1064</ele><time>2026-03-20T08:57:13Z</time></trkpt>
<trkpt lat="43.0254450000" lon="0.2268570000"><ele>1065</ele><time>2026-03-20T08:57:16Z</time></trkpt>
<trkpt lat="43.0254350000" lon="0.2268270000"><ele>1065</ele><time>2026-03-20T08:57:19Z</time></trkpt>
<trkpt lat="43.0254270000" lon="0.2268000000"><ele>1065</ele><time>2026-03-20T08:57:22Z</time></trkpt>
<trkpt lat="43.0254170000" lon="0.2267750000"><ele>1065</ele><time>2026-03-20T08:57:25Z</time></trkpt>
<trkpt lat="43.0254170000" lon="0.2267420000"><ele>1066</ele><time>2026-03-20T08:57:28Z</time></trkpt>
<trkpt lat="43.0254200000" lon="0.2267170000"><ele>1066</ele><time>2026-03-20T08:57:30Z</time></trkpt>
<trkpt lat="43.0254270000" lon="0.2266920000"><ele>1066</ele><time>2026-03-20T08:57:32Z</time></trkpt>
<trkpt lat="43.0254220000" lon="0.2266600000"><ele>1066</ele><time>2026-03-20T08:57:35Z</time></trkpt>
<trkpt lat="43.0254120000" lon="0.2266270000"><ele>1066</ele><time>2026-03-20T08:57:38Z</time></trkpt>
<trkpt lat="43.0254220000" lon="0.2266020000"><ele>1067</ele><time>2026-03-20T08:57:40Z</time></trkpt>
<trkpt lat="43.0254230000" lon="0.2265720000"><ele>1067</ele><time>2026-03-20T08:57:43Z</time></trkpt>
<trkpt lat="43.0254120000" lon="0.2265400000"><ele>1067</ele><time>2026-03-20T08:57:45Z</time></trkpt>
<trkpt lat="43.0254070000" lon="0.2265050000"><ele>1067</ele><time>2026-03-20T08:57:48Z</time></trkpt>
<trkpt lat="43.0254050000" lon="0.2264670000"><ele>1067</ele><time>2026-03-20T08:57:51Z</time></trkpt>
<trkpt lat="43.0254020000" lon="0.2264370000"><ele>1068</ele><time>2026-03-20T08:57:53Z</time></trkpt>
<trkpt lat="43.0254050000" lon="0.2264100000"><ele>1068</ele><time>2026-03-20T08:57:55Z</time></trkpt>
<trkpt lat="43.0253970000" lon="0.2263820000"><ele>1068</ele><time>2026-03-20T08:57:57Z</time></trkpt>
<trkpt lat="43.0253900000" lon="0.2263520000"><ele>1068</ele><time>2026-03-20T08:57:59Z</time></trkpt>
<trkpt lat="43.0253870000" lon="0.2263220000"><ele>1068</ele><time>2026-03-20T08:58:02Z</time></trkpt>
<trkpt lat="43.0253870000" lon="0.2262870000"><ele>1068</ele><time>2026-03-20T08:58:04Z</time></trkpt>
<trkpt lat="43.0254020000" lon="0.2262520000"><ele>1069</ele><time>2026-03-20T08:58:06Z</time></trkpt>
<trkpt lat="43.0253950000" lon="0.2262250000"><ele>1069</ele><time>2026-03-20T08:58:08Z</time></trkpt>
<trkpt lat="43.0253920000" lon="0.2262000000"><ele>1069</ele><time>2026-03-20T08:58:10Z</time></trkpt>
<trkpt lat="43.0253770000" lon="0.2261770000"><ele>1069</ele><time>2026-03-20T08:58:12Z</time></trkpt>
<trkpt lat="43.0253800000" lon="0.2261520000"><ele>1069</ele><time>2026-03-20T08:58:15Z</time></trkpt>
<trkpt lat="43.0253950000" lon="0.2261300000"><ele>1069</ele><time>2026-03-20T08:58:18Z</time></trkpt>
<trkpt lat="43.0254120000" lon="0.2261070000"><ele>1070</ele><time>2026-03-20T08:58:20Z</time></trkpt>
<trkpt lat="43.0254170000" lon="0.2260770000"><ele>1070</ele><time>2026-03-20T08:58:23Z</time></trkpt>
<trkpt lat="43.0254320000" lon="0.2260450000"><ele>1070</ele><time>2026-03-20T08:58:26Z</time></trkpt>
<trkpt lat="43.0254400000" lon="0.2260120000"><ele>1070</ele><time>2026-03-20T08:58:28Z</time></trkpt>
<trkpt lat="43.0254450000" lon="0.2259820000"><ele>1071</ele><time>2026-03-20T08:58:30Z</time></trkpt>
<trkpt lat="43.0254370000" lon="0.2259370000"><ele>1071</ele><time>2026-03-20T08:58:32Z</time></trkpt>
<trkpt lat="43.0254220000" lon="0.2259100000"><ele>1071</ele><time>2026-03-20T08:58:34Z</time></trkpt>
<trkpt lat="43.0254100000" lon="0.2258900000"><ele>1071</ele><time>2026-03-20T08:58:36Z</time></trkpt>
<trkpt lat="43.0253920000" lon="0.2258620000"><ele>1071</ele><time>2026-03-20T08:58:38Z</time></trkpt>
<trkpt lat="43.0254000000" lon="0.2258300000"><ele>1072</ele><time>2026-03-20T08:58:41Z</time></trkpt>
<trkpt lat="43.0254120000" lon="0.2258020000"><ele>1072</ele><time>2026-03-20T08:58:43Z</time></trkpt>
<trkpt lat="43.0254170000" lon="0.2257720000"><ele>1072</ele><time>2026-03-20T08:58:45Z</time></trkpt>
<trkpt lat="43.0254320000" lon="0.2257470000"><ele>1072</ele><time>2026-03-20T08:58:47Z</time></trkpt>
<trkpt lat="43.0254350000" lon="0.2257170000"><ele>1072</ele><time>2026-03-20T08:58:50Z</time></trkpt>
<trkpt lat="43.0254370000" lon="0.2256900000"><ele>1073</ele><time>2026-03-20T08:58:52Z</time></trkpt>
<trkpt lat="43.0254420000" lon="0.2256620000"><ele>1073</ele><time>2026-03-20T08:58:55Z</time></trkpt>
<trkpt lat="43.0254370000" lon="0.2256220000"><ele>1073</ele><time>2026-03-20T08:58:58Z</time></trkpt>
<trkpt lat="43.0254400000" lon="0.2255920000"><ele>1073</ele><time>2026-03-20T08:59:00Z</time></trkpt>
<trkpt lat="43.0254420000" lon="0.2255620000"><ele>1073</ele><time>2026-03-20T08:59:03Z</time></trkpt>
<trkpt lat="43.0254520000" lon="0.2255250000"><ele>1074</ele><time>2026-03-20T08:59:06Z</time></trkpt>
<trkpt lat="43.0254570000" lon="0.2254950000"><ele>1074</ele><time>2026-03-20T08:59:08Z</time></trkpt>
<trkpt lat="43.0254720000" lon="0.2254620000"><ele>1074</ele><time>2026-03-20T08:59:10Z</time></trkpt>
<trkpt lat="43.0254720000" lon="0.2254370000"><ele>1074</ele><time>2026-03-20T08:59:12Z</time></trkpt>
<trkpt lat="43.0254620000" lon="0.2253970000"><ele>1074</ele><time>2026-03-20T08:59:14Z</time></trkpt>
<trkpt lat="43.0254570000" lon="0.2253720000"><ele>1074</ele><time>2026-03-20T08:59:15Z</time></trkpt>
<trkpt lat="43.0254470000" lon="0.2253470000"><ele>1074</ele><time>2026-03-20T08:59:16Z</time></trkpt>
<trkpt lat="43.0254470000" lon="0.2253050000"><ele>1074</ele><time>2026-03-20T08:59:18Z</time></trkpt>
<trkpt lat="43.0254620000" lon="0.2252850000"><ele>1075</ele><time>2026-03-20T08:59:21Z</time></trkpt>
<trkpt lat="43.0254850000" lon="0.2252670000"><ele>1075</ele><time>2026-03-20T08:59:24Z</time></trkpt>
<trkpt lat="43.0254920000" lon="0.2252320000"><ele>1075</ele><time>2026-03-20T08:59:27Z</time></trkpt>
<trkpt lat="43.0254950000" lon="0.2252050000"><ele>1075</ele><time>2026-03-20T08:59:30Z</time></trkpt>
<trkpt lat="43.0254820000" lon="0.2251770000"><ele>1075</ele><time>2026-03-20T08:59:33Z</time></trkpt>
<trkpt lat="43.0254820000" lon="0.2251520000"><ele>1076</ele><time>2026-03-20T08:59:35Z</time></trkpt>
<trkpt lat="43.0254920000" lon="0.2251250000"><ele>1076</ele><time>2026-03-20T08:59:37Z</time></trkpt>
<trkpt lat="43.0254900000" lon="0.2250970000"><ele>1076</ele><time>2026-03-20T08:59:39Z</time></trkpt>
<trkpt lat="43.0255070000" lon="0.2250770000"><ele>1076</ele><time>2026-03-20T08:59:41Z</time></trkpt>
<trkpt lat="43.0255170000" lon="0.2250520000"><ele>1076</ele><time>2026-03-20T08:59:43Z</time></trkpt>
<trkpt lat="43.0255250000" lon="0.2250170000"><ele>1076</ele><time>2026-03-20T08:59:46Z</time></trkpt>
<trkpt lat="43.0255270000" lon="0.2249870000"><ele>1076</ele><time>2026-03-20T08:59:48Z</time></trkpt>
<trkpt lat="43.0255320000" lon="0.2249570000"><ele>1076</ele><time>2026-03-20T08:59:51Z</time></trkpt>
<trkpt lat="43.0255270000" lon="0.2249320000"><ele>1077</ele><time>2026-03-20T08:59:53Z</time></trkpt>
<trkpt lat="43.0255270000" lon="0.2249070000"><ele>1077</ele><time>2026-03-20T08:59:55Z</time></trkpt>
<trkpt lat="43.0255370000" lon="0.2248850000"><ele>1077</ele><time>2026-03-20T08:59:57Z</time></trkpt>
<trkpt lat="43.0255650000" lon="0.2248720000"><ele>1077</ele><time>2026-03-20T08:59:59Z</time></trkpt>
<trkpt lat="43.0255720000" lon="0.2248500000"><ele>1077</ele><time>2026-03-20T09:00:01Z</time></trkpt>
<trkpt lat="43.0255870000" lon="0.2248180000"><ele>1077</ele><time>2026-03-20T09:00:03Z</time></trkpt>
<trkpt lat="43.0255920000" lon="0.2247900000"><ele>1078</ele><time>2026-03-20T09:00:05Z</time></trkpt>
<trkpt lat="43.0255950000" lon="0.2247620000"><ele>1078</ele><time>2026-03-20T09:00:07Z</time></trkpt>
<trkpt lat="43.0255970000" lon="0.2247370000"><ele>1078</ele><time>2026-03-20T09:00:09Z</time></trkpt>
<trkpt lat="43.0256070000" lon="0.2247120000"><ele>1078</ele><time>2026-03-20T09:00:11Z</time></trkpt>
<trkpt lat="43.0256120000" lon="0.2246850000"><ele>1078</ele><time>2026-03-20T09:00:13Z</time></trkpt>
<trkpt lat="43.0256200000" lon="0.2246570000"><ele>1078</ele><time>2026-03-20T09:00:15Z</time></trkpt>
<trkpt lat="43.0256200000" lon="0.2246220000"><ele>1079</ele><time>2026-03-20T09:00:17Z</time></trkpt>
<trkpt lat="43.0256270000" lon="0.2245950000"><ele>1079</ele><time>2026-03-20T09:00:19Z</time></trkpt>
<trkpt lat="43.0256320000" lon="0.2245670000"><ele>1079</ele><time>2026-03-20T09:00:21Z</time></trkpt>
<trkpt lat="43.0256400000" lon="0.2245450000"><ele>1079</ele><time>2026-03-20T09:00:24Z</time></trkpt>
<trkpt lat="43.0256370000" lon="0.2245170000"><ele>1079</ele><time>2026-03-20T09:00:26Z</time></trkpt>
<trkpt lat="43.0256370000" lon="0.2244920000"><ele>1080</ele><time>2026-03-20T09:00:28Z</time></trkpt>
<trkpt lat="43.0256320000" lon="0.2244620000"><ele>1080</ele><time>2026-03-20T09:00:30Z</time></trkpt>
<trkpt lat="43.0256270000" lon="0.2244320000"><ele>1080</ele><time>2026-03-20T09:00:32Z</time></trkpt>
<trkpt lat="43.0256320000" lon="0.2243920000"><ele>1080</ele><time>2026-03-20T09:00:35Z</time></trkpt>
<trkpt lat="43.0256320000" lon="0.2243620000"><ele>1081</ele><time>2026-03-20T09:00:37Z</time></trkpt>
<trkpt lat="43.0256420000" lon="0.2243270000"><ele>1081</ele><time>2026-03-20T09:00:40Z</time></trkpt>
<trkpt lat="43.0256520000" lon="0.2243020000"><ele>1081</ele><time>2026-03-20T09:00:42Z</time></trkpt>
<trkpt lat="43.0256570000" lon="0.2242750000"><ele>1081</ele><time>2026-03-20T09:00:44Z</time></trkpt>
<trkpt lat="43.0256520000" lon="0.2242370000"><ele>1081</ele><time>2026-03-20T09:00:47Z</time></trkpt>
<trkpt lat="43.0256450000" lon="0.2242070000"><ele>1082</ele><time>2026-03-20T09:00:50Z</time></trkpt>
<trkpt lat="43.0256370000" lon="0.2241770000"><ele>1082</ele><time>2026-03-20T09:00:52Z</time></trkpt>
<trkpt lat="43.0256450000" lon="0.2241420000"><ele>1082</ele><time>2026-03-20T09:00:54Z</time></trkpt>
<trkpt lat="43.0256570000" lon="0.2241000000"><ele>1082</ele><time>2026-03-20T09:00:56Z</time></trkpt>
<trkpt lat="43.0256700000" lon="0.2240680000"><ele>1082</ele><time>2026-03-20T09:00:58Z</time></trkpt>
<trkpt lat="43.0256720000" lon="0.2240450000"><ele>1083</ele><time>2026-03-20T09:01:00Z</time></trkpt>
<trkpt lat="43.0256770000" lon="0.2240170000"><ele>1083</ele><time>2026-03-20T09:01:02Z</time></trkpt>
<trkpt lat="43.0256800000" lon="0.2239820000"><ele>1083</ele><time>2026-03-20T09:01:05Z</time></trkpt>
<trkpt lat="43.0256870000" lon="0.2239570000"><ele>1083</ele><time>2026-03-20T09:01:07Z</time></trkpt>
<trkpt lat="43.0256820000" lon="0.2239280000"><ele>1083</ele><time>2026-03-20T09:01:09Z</time></trkpt>
<trkpt lat="43.0256670000" lon="0.2239020000"><ele>1083</ele><time>2026-03-20T09:01:11Z</time></trkpt>
<trkpt lat="43.0256670000" lon="0.2238770000"><ele>1084</ele><time>2026-03-20T09:01:13Z</time></trkpt>
<trkpt lat="43.0256770000" lon="0.2238480000"><ele>1084</ele><time>2026-03-20T09:01:15Z</time></trkpt>
<trkpt lat="43.0256900000" lon="0.2238300000"><ele>1084</ele><time>2026-03-20T09:01:17Z</time></trkpt>
<trkpt lat="43.0256900000" lon="0.2237970000"><ele>1084</ele><time>2026-03-20T09:01:19Z</time></trkpt>
<trkpt lat="43.0257070000" lon="0.2237720000"><ele>1084</ele><time>2026-03-20T09:01:21Z</time></trkpt>
<trkpt lat="43.0257100000" lon="0.2237420000"><ele>1085</ele><time>2026-03-20T09:01:23Z</time></trkpt>
<trkpt lat="43.0257100000" lon="0.2237120000"><ele>1085</ele><time>2026-03-20T09:01:25Z</time></trkpt>
<trkpt lat="43.0257150000" lon="0.2236820000"><ele>1085</ele><time>2026-03-20T09:01:28Z</time></trkpt>
<trkpt lat="43.0257220000" lon="0.2236470000"><ele>1085</ele><time>2026-03-20T09:01:31Z</time></trkpt>
<trkpt lat="43.0257330000" lon="0.2236270000"><ele>1086</ele><time>2026-03-20T09:01:33Z</time></trkpt>
<trkpt lat="43.0257320000" lon="0.2235970000"><ele>1086</ele><time>2026-03-20T09:01:35Z</time></trkpt>
<trkpt lat="43.0257370000" lon="0.2235600000"><ele>1086</ele><time>2026-03-20T09:01:38Z</time></trkpt>
<trkpt lat="43.0257420000" lon="0.2235350000"><ele>1086</ele><time>2026-03-20T09:01:40Z</time></trkpt>
<trkpt lat="43.0257570000" lon="0.2235180000"><ele>1086</ele><time>2026-03-20T09:01:41Z</time></trkpt>
<trkpt lat="43.0257720000" lon="0.2234820000"><ele>1086</ele><time>2026-03-20T09:01:44Z</time></trkpt>
<trkpt lat="43.0257700000" lon="0.2234500000"><ele>1087</ele><time>2026-03-20T09:01:46Z</time></trkpt>
<trkpt lat="43.0257620000" lon="0.2234170000"><ele>1087</ele><time>2026-03-20T09:01:49Z</time></trkpt>
<trkpt lat="43.0257770000" lon="0.2233830000"><ele>1087</ele><time>2026-03-20T09:01:52Z</time></trkpt>
<trkpt lat="43.0257720000" lon="0.2233470000"><ele>1088</ele><time>2026-03-20T09:01:54Z</time></trkpt>
<trkpt lat="43.0257620000" lon="0.2233220000"><ele>1088</ele><time>2026-03-20T09:01:56Z</time></trkpt>
<trkpt lat="43.0257550000" lon="0.2232970000"><ele>1088</ele><time>2026-03-20T09:01:59Z</time></trkpt>
<trkpt lat="43.0257370000" lon="0.2232650000"><ele>1088</ele><time>2026-03-20T09:02:02Z</time></trkpt>
<trkpt lat="43.0257470000" lon="0.2232420000"><ele>1089</ele><time>2026-03-20T09:02:04Z</time></trkpt>
<trkpt lat="43.0257450000" lon="0.2232170000"><ele>1089</ele><time>2026-03-20T09:02:06Z</time></trkpt>
<trkpt lat="43.0257400000" lon="0.2231870000"><ele>1089</ele><time>2026-03-20T09:02:08Z</time></trkpt>
<trkpt lat="43.0257370000" lon="0.2231600000"><ele>1089</ele><time>2026-03-20T09:02:10Z</time></trkpt>
<trkpt lat="43.0257330000" lon="0.2231270000"><ele>1089</ele><time>2026-03-20T09:02:12Z</time></trkpt>
<trkpt lat="43.0257300000" lon="0.2230920000"><ele>1090</ele><time>2026-03-20T09:02:14Z</time></trkpt>
<trkpt lat="43.0257370000" lon="0.2230650000"><ele>1090</ele><time>2026-03-20T09:02:16Z</time></trkpt>
<trkpt lat="43.0257470000" lon="0.2230370000"><ele>1090</ele><time>2026-03-20T09:02:19Z</time></trkpt>
<trkpt lat="43.0257420000" lon="0.2230050000"><ele>1090</ele><time>2026-03-20T09:02:22Z</time></trkpt>
<trkpt lat="43.0257320000" lon="0.2229770000"><ele>1090</ele><time>2026-03-20T09:02:24Z</time></trkpt>
<trkpt lat="43.0257320000" lon="0.2229400000"><ele>1091</ele><time>2026-03-20T09:02:27Z</time></trkpt>
<trkpt lat="43.0257220000" lon="0.2229050000"><ele>1091</ele><time>2026-03-20T09:02:29Z</time></trkpt>
<trkpt lat="43.0257270000" lon="0.2228720000"><ele>1091</ele><time>2026-03-20T09:02:32Z</time></trkpt>
<trkpt lat="43.0257320000" lon="0.2228470000"><ele>1091</ele><time>2026-03-20T09:02:34Z</time></trkpt>
<trkpt lat="43.0257330000" lon="0.2228150000"><ele>1092</ele><time>2026-03-20T09:02:37Z</time></trkpt>
<trkpt lat="43.0257400000" lon="0.2227850000"><ele>1092</ele><time>2026-03-20T09:02:39Z</time></trkpt>
<trkpt lat="43.0257470000" lon="0.2227600000"><ele>1092</ele><time>2026-03-20T09:02:41Z</time></trkpt>
<trkpt lat="43.0257550000" lon="0.2227300000"><ele>1092</ele><time>2026-03-20T09:02:43Z</time></trkpt>
<trkpt lat="43.0257600000" lon="0.2227050000"><ele>1092</ele><time>2026-03-20T09:02:45Z</time></trkpt>
<trkpt lat="43.0257600000" lon="0.2226770000"><ele>1093</ele><time>2026-03-20T09:02:47Z</time></trkpt>
<trkpt lat="43.0257470000" lon="0.2226500000"><ele>1093</ele><time>2026-03-20T09:02:49Z</time></trkpt>
<trkpt lat="43.0257370000" lon="0.2226270000"><ele>1093</ele><time>2026-03-20T09:02:51Z</time></trkpt>
<trkpt lat="43.0257550000" lon="0.2226020000"><ele>1093</ele><time>2026-03-20T09:02:54Z</time></trkpt>
<trkpt lat="43.0257620000" lon="0.2225770000"><ele>1093</ele><time>2026-03-20T09:02:56Z</time></trkpt>
<trkpt lat="43.0257570000" lon="0.2225420000"><ele>1094</ele><time>2026-03-20T09:02:59Z</time></trkpt>
<trkpt lat="43.0257500000" lon="0.2225200000"><ele>1094</ele><time>2026-03-20T09:03:01Z</time></trkpt>
<trkpt lat="43.0257420000" lon="0.2224900000"><ele>1094</ele><time>2026-03-20T09:03:03Z</time></trkpt>
<trkpt lat="43.0257370000" lon="0.2224580000"><ele>1094</ele><time>2026-03-20T09:03:05Z</time></trkpt>
<trkpt lat="43.0257420000" lon="0.2224270000"><ele>1095</ele><time>2026-03-20T09:03:08Z</time></trkpt>
<trkpt lat="43.0257420000" lon="0.2223970000"><ele>1095</ele><time>2026-03-20T09:03:11Z</time></trkpt>
<trkpt lat="43.0257470000" lon="0.2223670000"><ele>1095</ele><time>2026-03-20T09:03:15Z</time></trkpt>
<trkpt lat="43.0257420000" lon="0.2223420000"><ele>1096</ele><time>2026-03-20T09:03:18Z</time></trkpt>
<trkpt lat="43.0257450000" lon="0.2223150000"><ele>1096</ele><time>2026-03-20T09:03:20Z</time></trkpt>
<trkpt lat="43.0257570000" lon="0.2222770000"><ele>1096</ele><time>2026-03-20T09:03:22Z</time></trkpt>
<trkpt lat="43.0257570000" lon="0.2222500000"><ele>1096</ele><time>2026-03-20T09:03:24Z</time></trkpt>
<trkpt lat="43.0257650000" lon="0.2222220000"><ele>1097</ele><time>2026-03-20T09:03:26Z</time></trkpt>
<trkpt lat="43.0257670000" lon="0.2221970000"><ele>1097</ele><time>2026-03-20T09:03:28Z</time></trkpt>
<trkpt lat="43.0257600000" lon="0.2221620000"><ele>1097</ele><time>2026-03-20T09:03:31Z</time></trkpt>
<trkpt lat="43.0257720000" lon="0.2221320000"><ele>1097</ele><time>2026-03-20T09:03:34Z</time></trkpt>
<trkpt lat="43.0257720000" lon="0.2220970000"><ele>1098</ele><time>2026-03-20T09:03:36Z</time></trkpt>
<trkpt lat="43.0257720000" lon="0.2220720000"><ele>1098</ele><time>2026-03-20T09:03:38Z</time></trkpt>
<trkpt lat="43.0257670000" lon="0.2220420000"><ele>1098</ele><time>2026-03-20T09:03:40Z</time></trkpt>
<trkpt lat="43.0257720000" lon="0.2220020000"><ele>1098</ele><time>2026-03-20T09:03:42Z</time></trkpt>
<trkpt lat="43.0257820000" lon="0.2219720000"><ele>1098</ele><time>2026-03-20T09:03:45Z</time></trkpt>
<trkpt lat="43.0257770000" lon="0.2219450000"><ele>1098</ele><time>2026-03-20T09:03:48Z</time></trkpt>
<trkpt lat="43.0257620000" lon="0.2219170000"><ele>1099</ele><time>2026-03-20T09:03:50Z</time></trkpt>
<trkpt lat="43.0257570000" lon="0.2218900000"><ele>1099</ele><time>2026-03-20T09:03:52Z</time></trkpt>
<trkpt lat="43.0257520000" lon="0.2218650000"><ele>1099</ele><time>2026-03-20T09:03:54Z</time></trkpt>
<trkpt lat="43.0257470000" lon="0.2218370000"><ele>1099</ele><time>2026-03-20T09:03:56Z</time></trkpt>
<trkpt lat="43.0257520000" lon="0.2218070000"><ele>1099</ele><time>2026-03-20T09:03:59Z</time></trkpt>
<trkpt lat="43.0257570000" lon="0.2217720000"><ele>1100</ele><time>2026-03-20T09:04:01Z</time></trkpt>
<trkpt lat="43.0257520000" lon="0.2217450000"><ele>1100</ele><time>2026-03-20T09:04:03Z</time></trkpt>
<trkpt lat="43.0257470000" lon="0.2217130000"><ele>1100</ele><time>2026-03-20T09:04:06Z</time></trkpt>
<trkpt lat="43.0257470000" lon="0.2216870000"><ele>1100</ele><time>2026-03-20T09:04:08Z</time></trkpt>
<trkpt lat="43.0257400000" lon="0.2216620000"><ele>1100</ele><time>2026-03-20T09:04:10Z</time></trkpt>
<trkpt lat="43.0257400000" lon="0.2216270000"><ele>1101</ele><time>2026-03-20T09:04:13Z</time></trkpt>
<trkpt lat="43.0257320000" lon="0.2215950000"><ele>1101</ele><time>2026-03-20T09:04:16Z</time></trkpt>
<trkpt lat="43.0257220000" lon="0.2215720000"><ele>1102</ele><time>2026-03-20T09:04:19Z</time></trkpt>
<trkpt lat="43.0257170000" lon="0.2215450000"><ele>1102</ele><time>2026-03-20T09:04:21Z</time></trkpt>
<trkpt lat="43.0257170000" lon="0.2215170000"><ele>1102</ele><time>2026-03-20T09:04:23Z</time></trkpt>
<trkpt lat="43.0257150000" lon="0.2214880000"><ele>1102</ele><time>2026-03-20T09:04:25Z</time></trkpt>
<trkpt lat="43.0257100000" lon="0.2214570000"><ele>1102</ele><time>2026-03-20T09:04:27Z</time></trkpt>
<trkpt lat="43.0257070000" lon="0.2214320000"><ele>1103</ele><time>2026-03-20T09:04:29Z</time></trkpt>
<trkpt lat="43.0257100000" lon="0.2214070000"><ele>1103</ele><time>2026-03-20T09:04:32Z</time></trkpt>
<trkpt lat="43.0257370000" lon="0.2213820000"><ele>1103</ele><time>2026-03-20T09:04:34Z</time></trkpt>
<trkpt lat="43.0257320000" lon="0.2213520000"><ele>1103</ele><time>2026-03-20T09:04:36Z</time></trkpt>
<trkpt lat="43.0257300000" lon="0.2213170000"><ele>1104</ele><time>2026-03-20T09:04:39Z</time></trkpt>
<trkpt lat="43.0257330000" lon="0.2212800000"><ele>1104</ele><time>2026-03-20T09:04:41Z</time></trkpt>
<trkpt lat="43.0257170000" lon="0.2212620000"><ele>1104</ele><time>2026-03-20T09:04:43Z</time></trkpt>
<trkpt lat="43.0257150000" lon="0.2212270000"><ele>1105</ele><time>2026-03-20T09:04:45Z</time></trkpt>
<trkpt lat="43.0257020000" lon="0.2212020000"><ele>1105</ele><time>2026-03-20T09:04:46Z</time></trkpt>
<trkpt lat="43.0257070000" lon="0.2211530000"><ele>1105</ele><time>2026-03-20T09:04:48Z</time></trkpt>
<trkpt lat="43.0257270000" lon="0.2211470000"><ele>1105</ele><time>2026-03-20T09:04:49Z</time></trkpt>
<trkpt lat="43.0257420000" lon="0.2211200000"><ele>1105</ele><time>2026-03-20T09:04:52Z</time></trkpt>
<trkpt lat="43.0257550000" lon="0.2210970000"><ele>1106</ele><time>2026-03-20T09:04:54Z</time></trkpt>
<trkpt lat="43.0257570000" lon="0.2210620000"><ele>1106</ele><time>2026-03-20T09:04:57Z</time></trkpt>
<trkpt lat="43.0257520000" lon="0.2210320000"><ele>1106</ele><time>2026-03-20T09:05:00Z</time></trkpt>
<trkpt lat="43.0257470000" lon="0.2209970000"><ele>1107</ele><time>2026-03-20T09:05:03Z</time></trkpt>
<trkpt lat="43.0257470000" lon="0.2209650000"><ele>1107</ele><time>2026-03-20T09:05:06Z</time></trkpt>
<trkpt lat="43.0257520000" lon="0.2209370000"><ele>1107</ele><time>2026-03-20T09:05:08Z</time></trkpt>
<trkpt lat="43.0257550000" lon="0.2209020000"><ele>1108</ele><time>2026-03-20T09:05:16Z</time></trkpt>
<trkpt lat="43.0257520000" lon="0.2208730000"><ele>1108</ele><time>2026-03-20T09:05:18Z</time></trkpt>
<trkpt lat="43.0257470000" lon="0.2208420000"><ele>1108</ele><time>2026-03-20T09:05:20Z</time></trkpt>
<trkpt lat="43.0257320000" lon="0.2208120000"><ele>1108</ele><time>2026-03-20T09:05:22Z</time></trkpt>
<trkpt lat="43.0257200000" lon="0.2207920000"><ele>1108</ele><time>2026-03-20T09:05:24Z</time></trkpt>
<trkpt lat="43.0257070000" lon="0.2207720000"><ele>1108</ele><time>2026-03-20T09:05:26Z</time></trkpt>
<trkpt lat="43.0257150000" lon="0.2207480000"><ele>1109</ele><time>2026-03-20T09:05:30Z</time></trkpt>
<trkpt lat="43.0257120000" lon="0.2207170000"><ele>1109</ele><time>2026-03-20T09:05:51Z</time></trkpt>
<trkpt lat="43.0257120000" lon="0.2206870000"><ele>1109</ele><time>2026-03-20T09:05:53Z</time></trkpt>
<trkpt lat="43.0257070000" lon="0.2206570000"><ele>1109</ele><time>2026-03-20T09:05:55Z</time></trkpt>
<trkpt lat="43.0256920000" lon="0.2206220000"><ele>1110</ele><time>2026-03-20T09:05:57Z</time></trkpt>
<trkpt lat="43.0256770000" lon="0.2205920000"><ele>1110</ele><time>2026-03-20T09:05:59Z</time></trkpt>
<trkpt lat="43.0256800000" lon="0.2205620000"><ele>1110</ele><time>2026-03-20T09:06:01Z</time></trkpt>
<trkpt lat="43.0256950000" lon="0.2205250000"><ele>1110</ele><time>2026-03-20T09:06:03Z</time></trkpt>
<trkpt lat="43.0257000000" lon="0.2204870000"><ele>1111</ele><time>2026-03-20T09:06:05Z</time></trkpt>
<trkpt lat="43.0256950000" lon="0.2204520000"><ele>1111</ele><time>2026-03-20T09:06:07Z</time></trkpt>
<trkpt lat="43.0256920000" lon="0.2204220000"><ele>1111</ele><time>2026-03-20T09:06:09Z</time></trkpt>
<trkpt lat="43.0257000000" lon="0.2203970000"><ele>1111</ele><time>2026-03-20T09:06:11Z</time></trkpt>
<trkpt lat="43.0257070000" lon="0.2203670000"><ele>1111</ele><time>2026-03-20T09:06:14Z</time></trkpt>
<trkpt lat="43.0257020000" lon="0.2203320000"><ele>1112</ele><time>2026-03-20T09:06:16Z</time></trkpt>
<trkpt lat="43.0256800000" lon="0.2203050000"><ele>1112</ele><time>2026-03-20T09:06:18Z</time></trkpt>
<trkpt lat="43.0256720000" lon="0.2202770000"><ele>1112</ele><time>2026-03-20T09:06:20Z</time></trkpt>
<trkpt lat="43.0256750000" lon="0.2202450000"><ele>1112</ele><time>2026-03-20T09:06:22Z</time></trkpt>
<trkpt lat="43.0256820000" lon="0.2202170000"><ele>1112</ele><time>2026-03-20T09:06:24Z</time></trkpt>
<trkpt lat="43.0256770000" lon="0.2201830000"><ele>1113</ele><time>2026-03-20T09:06:26Z</time></trkpt>
<trkpt lat="43.0256770000" lon="0.2201520000"><ele>1113</ele><time>2026-03-20T09:06:28Z</time></trkpt>
<trkpt lat="43.0256800000" lon="0.2201250000"><ele>1113</ele><time>2026-03-20T09:06:30Z</time></trkpt>
<trkpt lat="43.0256900000" lon="0.2200970000"><ele>1113</ele><time>2026-03-20T09:06:32Z</time></trkpt>
<trkpt lat="43.0256900000" lon="0.2200670000"><ele>1114</ele><time>2026-03-20T09:06:34Z</time></trkpt>
<trkpt lat="43.0256950000" lon="0.2200300000"><ele>1114</ele><time>2026-03-20T09:06:36Z</time></trkpt>
<trkpt lat="43.0256970000" lon="0.2199920000"><ele>1114</ele><time>2026-03-20T09:06:38Z</time></trkpt>
<trkpt lat="43.0256970000" lon="0.2199670000"><ele>1114</ele><time>2026-03-20T09:06:40Z</time></trkpt>
<trkpt lat="43.0257120000" lon="0.2199420000"><ele>1114</ele><time>2026-03-20T09:06:42Z</time></trkpt>
<trkpt lat="43.0257050000" lon="0.2198970000"><ele>1115</ele><time>2026-03-20T09:06:44Z</time></trkpt>
<trkpt lat="43.0256950000" lon="0.2198620000"><ele>1115</ele><time>2026-03-20T09:06:46Z</time></trkpt>
<trkpt lat="43.0256900000" lon="0.2198320000"><ele>1115</ele><time>2026-03-20T09:06:48Z</time></trkpt>
<trkpt lat="43.0256920000" lon="0.2198050000"><ele>1115</ele><time>2026-03-20T09:06:50Z</time></trkpt>
<trkpt lat="43.0256920000" lon="0.2197730000"><ele>1116</ele><time>2026-03-20T09:06:52Z</time></trkpt>
<trkpt lat="43.0256920000" lon="0.2197450000"><ele>1116</ele><time>2026-03-20T09:06:54Z</time></trkpt>
<trkpt lat="43.0256950000" lon="0.2197200000"><ele>1116</ele><time>2026-03-20T09:06:56Z</time></trkpt>
<trkpt lat="43.0257070000" lon="0.2196900000"><ele>1116</ele><time>2026-03-20T09:06:58Z</time></trkpt>
<trkpt lat="43.0257170000" lon="0.2196650000"><ele>1117</ele><time>2026-03-20T09:07:00Z</time></trkpt>
<trkpt lat="43.0257270000" lon="0.2196420000"><ele>1117</ele><time>2026-03-20T09:07:02Z</time></trkpt>
<trkpt lat="43.0257420000" lon="0.2196100000"><ele>1117</ele><time>2026-03-20T09:07:05Z</time></trkpt>
<trkpt lat="43.0257520000" lon="0.2195770000"><ele>1117</ele><time>2026-03-20T09:07:07Z</time></trkpt>
<trkpt lat="43.0257600000" lon="0.2195520000"><ele>1117</ele><time>2026-03-20T09:07:09Z</time></trkpt>
<trkpt lat="43.0257700000" lon="0.2195270000"><ele>1118</ele><time>2026-03-20T09:07:11Z</time></trkpt>
<trkpt lat="43.0257670000" lon="0.2194970000"><ele>1118</ele><time>2026-03-20T09:07:13Z</time></trkpt>
<trkpt lat="43.0257670000" lon="0.2194720000"><ele>1118</ele><time>2026-03-20T09:07:15Z</time></trkpt>
<trkpt lat="43.0257650000" lon="0.2194420000"><ele>1118</ele><time>2026-03-20T09:07:17Z</time></trkpt>
<trkpt lat="43.0257620000" lon="0.2194120000"><ele>1119</ele><time>2026-03-20T09:07:19Z</time></trkpt>
<trkpt lat="43.0257570000" lon="0.2193850000"><ele>1119</ele><time>2026-03-20T09:07:21Z</time></trkpt>
<trkpt lat="43.0257620000" lon="0.2193520000"><ele>1119</ele><time>2026-03-20T09:07:24Z</time></trkpt>
<trkpt lat="43.0257600000" lon="0.2193200000"><ele>1119</ele><time>2026-03-20T09:07:28Z</time></trkpt>
<trkpt lat="43.0257570000" lon="0.2192870000"><ele>1120</ele><time>2026-03-20T09:07:31Z</time></trkpt>
<trkpt lat="43.0257570000" lon="0.2192620000"><ele>1120</ele><time>2026-03-20T09:07:33Z</time></trkpt>
<trkpt lat="43.0257570000" lon="0.2192270000"><ele>1120</ele><time>2026-03-20T09:07:36Z</time></trkpt>
<trkpt lat="43.0257500000" lon="0.2192020000"><ele>1121</ele><time>2026-03-20T09:07:38Z</time></trkpt>
<trkpt lat="43.0257420000" lon="0.2191800000"><ele>1121</ele><time>2026-03-20T09:07:40Z</time></trkpt>
<trkpt lat="43.0257320000" lon="0.2191470000"><ele>1121</ele><time>2026-03-20T09:07:43Z</time></trkpt>
<trkpt lat="43.0257220000" lon="0.2191270000"><ele>1121</ele><time>2026-03-20T09:07:45Z</time></trkpt>
<trkpt lat="43.0257200000" lon="0.2191000000"><ele>1121</ele><time>2026-03-20T09:07:47Z</time></trkpt>
<trkpt lat="43.0257270000" lon="0.2190670000"><ele>1122</ele><time>2026-03-20T09:07:49Z</time></trkpt>
<trkpt lat="43.0257400000" lon="0.2190450000"><ele>1122</ele><time>2026-03-20T09:07:51Z</time></trkpt>
<trkpt lat="43.0257370000" lon="0.2190050000"><ele>1122</ele><time>2026-03-20T09:07:54Z</time></trkpt>
<trkpt lat="43.0257400000" lon="0.2189700000"><ele>1122</ele><time>2026-03-20T09:07:57Z</time></trkpt>
<trkpt lat="43.0257470000" lon="0.2189370000"><ele>1122</ele><time>2026-03-20T09:07:59Z</time></trkpt>
<trkpt lat="43.0257570000" lon="0.2189120000"><ele>1123</ele><time>2026-03-20T09:08:01Z</time></trkpt>
<trkpt lat="43.0257570000" lon="0.2188820000"><ele>1123</ele><time>2026-03-20T09:08:03Z</time></trkpt>
<trkpt lat="43.0257600000" lon="0.2188470000"><ele>1123</ele><time>2026-03-20T09:08:05Z</time></trkpt>
<trkpt lat="43.0257650000" lon="0.2188220000"><ele>1123</ele><time>2026-03-20T09:08:07Z</time></trkpt>
<trkpt lat="43.0257620000" lon="0.2187870000"><ele>1123</ele><time>2026-03-20T09:08:09Z</time></trkpt>
<trkpt lat="43.0257670000" lon="0.2187570000"><ele>1124</ele><time>2026-03-20T09:08:11Z</time></trkpt>
<trkpt lat="43.0257820000" lon="0.2187300000"><ele>1124</ele><time>2026-03-20T09:08:13Z</time></trkpt>
<trkpt lat="43.0257920000" lon="0.2187070000"><ele>1124</ele><time>2026-03-20T09:08:15Z</time></trkpt>
<trkpt lat="43.0258030000" lon="0.2186870000"><ele>1124</ele><time>2026-03-20T09:08:17Z</time></trkpt>
<trkpt lat="43.0258200000" lon="0.2186670000"><ele>1124</ele><time>2026-03-20T09:08:20Z</time></trkpt>
<trkpt lat="43.0258350000" lon="0.2186450000"><ele>1125</ele><time>2026-03-20T09:08:23Z</time></trkpt>
<trkpt lat="43.0258370000" lon="0.2186120000"><ele>1125</ele><time>2026-03-20T09:08:25Z</time></trkpt>
<trkpt lat="43.0258450000" lon="0.2185820000"><ele>1125</ele><time>2026-03-20T09:08:27Z</time></trkpt>
<trkpt lat="43.0258600000" lon="0.2185570000"><ele>1125</ele><time>2026-03-20T09:08:29Z</time></trkpt>
<trkpt lat="43.0258620000" lon="0.2185320000"><ele>1125</ele><time>2026-03-20T09:08:31Z</time></trkpt>
<trkpt lat="43.0258600000" lon="0.2185020000"><ele>1125</ele><time>2026-03-20T09:08:33Z</time></trkpt>
<trkpt lat="43.0258700000" lon="0.2184650000"><ele>1126</ele><time>2026-03-20T09:08:36Z</time></trkpt>
<trkpt lat="43.0258800000" lon="0.2184330000"><ele>1126</ele><time>2026-03-20T09:08:38Z</time></trkpt>
<trkpt lat="43.0258870000" lon="0.2184050000"><ele>1126</ele><time>2026-03-20T09:08:40Z</time></trkpt>
<trkpt lat="43.0258950000" lon="0.2183770000"><ele>1126</ele><time>2026-03-20T09:08:42Z</time></trkpt>
<trkpt lat="43.0259000000" lon="0.2183520000"><ele>1126</ele><time>2026-03-20T09:08:44Z</time></trkpt>
<trkpt lat="43.0259070000" lon="0.2183270000"><ele>1126</ele><time>2026-03-20T09:08:46Z</time></trkpt>
<trkpt lat="43.0259200000" lon="0.2183020000"><ele>1126</ele><time>2026-03-20T09:08:49Z</time></trkpt>
<trkpt lat="43.0259270000" lon="0.2182770000"><ele>1126</ele><time>2026-03-20T09:08:51Z</time></trkpt>
<trkpt lat="43.0259400000" lon="0.2182470000"><ele>1126</ele><time>2026-03-20T09:08:53Z</time></trkpt>
<trkpt lat="43.0259450000" lon="0.2182120000"><ele>1127</ele><time>2026-03-20T09:08:55Z</time></trkpt>
<trkpt lat="43.0259470000" lon="0.2181820000"><ele>1127</ele><time>2026-03-20T09:08:57Z</time></trkpt>
<trkpt lat="43.0259550000" lon="0.2181580000"><ele>1127</ele><time>2026-03-20T09:08:59Z</time></trkpt>
<trkpt lat="43.0259550000" lon="0.2181270000"><ele>1127</ele><time>2026-03-20T09:09:01Z</time></trkpt>
<trkpt lat="43.0259570000" lon="0.2181020000"><ele>1127</ele><time>2026-03-20T09:09:03Z</time></trkpt>
<trkpt lat="43.0259670000" lon="0.2180770000"><ele>1127</ele><time>2026-03-20T09:09:05Z</time></trkpt>
<trkpt lat="43.0259750000" lon="0.2180500000"><ele>1127</ele><time>2026-03-20T09:09:07Z</time></trkpt>
<trkpt lat="43.0259800000" lon="0.2180220000"><ele>1127</ele><time>2026-03-20T09:09:09Z</time></trkpt>
<trkpt lat="43.0259770000" lon="0.2179900000"><ele>1127</ele><time>2026-03-20T09:09:11Z</time></trkpt>
<trkpt lat="43.0259820000" lon="0.2179550000"><ele>1127</ele><time>2026-03-20T09:09:15Z</time></trkpt>
<trkpt lat="43.0259820000" lon="0.2179270000"><ele>1127</ele><time>2026-03-20T09:09:17Z</time></trkpt>
<trkpt lat="43.0259770000" lon="0.2178920000"><ele>1127</ele><time>2026-03-20T09:09:20Z</time></trkpt>
<trkpt lat="43.0259580000" lon="0.2178650000"><ele>1127</ele><time>2026-03-20T09:09:23Z</time></trkpt>
<trkpt lat="43.0259420000" lon="0.2178470000"><ele>1127</ele><time>2026-03-20T09:09:25Z</time></trkpt>
<trkpt lat="43.0259220000" lon="0.2178420000"><ele>1128</ele><time>2026-03-20T09:09:27Z</time></trkpt>
<trkpt lat="43.0259050000" lon="0.2178430000"><ele>1128</ele><time>2026-03-20T09:09:29Z</time></trkpt>
<trkpt lat="43.0258820000" lon="0.2178520000"><ele>1128</ele><time>2026-03-20T09:09:32Z</time></trkpt>
<trkpt lat="43.0258670000" lon="0.2178700000"><ele>1128</ele><time>2026-03-20T09:09:34Z</time></trkpt>
<trkpt lat="43.0258520000" lon="0.2178970000"><ele>1129</ele><time>2026-03-20T09:09:37Z</time></trkpt>
<trkpt lat="43.0258370000" lon="0.2179200000"><ele>1129</ele><time>2026-03-20T09:09:39Z</time></trkpt>
<trkpt lat="43.0258320000" lon="0.2179470000"><ele>1129</ele><time>2026-03-20T09:09:41Z</time></trkpt>
<trkpt lat="43.0258220000" lon="0.2179820000"><ele>1129</ele><time>2026-03-20T09:09:43Z</time></trkpt>
<trkpt lat="43.0258220000" lon="0.2180130000"><ele>1129</ele><time>2026-03-20T09:09:45Z</time></trkpt>
<trkpt lat="43.0258220000" lon="0.2180470000"><ele>1129</ele><time>2026-03-20T09:09:47Z</time></trkpt>
<trkpt lat="43.0258220000" lon="0.2180770000"><ele>1130</ele><time>2026-03-20T09:09:49Z</time></trkpt>
<trkpt lat="43.0258320000" lon="0.2181120000"><ele>1130</ele><time>2026-03-20T09:09:51Z</time></trkpt>
<trkpt lat="43.0258370000" lon="0.2181520000"><ele>1130</ele><time>2026-03-20T09:09:53Z</time></trkpt>
<trkpt lat="43.0258450000" lon="0.2181870000"><ele>1130</ele><time>2026-03-20T09:09:55Z</time></trkpt>
<trkpt lat="43.0258470000" lon="0.2182200000"><ele>1130</ele><time>2026-03-20T09:09:57Z</time></trkpt>
<trkpt lat="43.0258450000" lon="0.2182470000"><ele>1130</ele><time>2026-03-20T09:09:59Z</time></trkpt>
<trkpt lat="43.0258420000" lon="0.2182820000"><ele>1130</ele><time>2026-03-20T09:10:01Z</time></trkpt>
<trkpt lat="43.0258400000" lon="0.2183120000"><ele>1130</ele><time>2026-03-20T09:10:03Z</time></trkpt>
<trkpt lat="43.0258320000" lon="0.2183370000"><ele>1130</ele><time>2026-03-20T09:10:05Z</time></trkpt>
<trkpt lat="43.0258250000" lon="0.2183650000"><ele>1130</ele><time>2026-03-20T09:10:07Z</time></trkpt>
<trkpt lat="43.0258170000" lon="0.2183930000"><ele>1131</ele><time>2026-03-20T09:10:09Z</time></trkpt>
<trkpt lat="43.0258120000" lon="0.2184250000"><ele>1131</ele><time>2026-03-20T09:10:11Z</time></trkpt>
<trkpt lat="43.0258070000" lon="0.2184570000"><ele>1131</ele><time>2026-03-20T09:10:14Z</time></trkpt>
<trkpt lat="43.0258020000" lon="0.2184870000"><ele>1131</ele><time>2026-03-20T09:10:16Z</time></trkpt>
<trkpt lat="43.0257970000" lon="0.2185120000"><ele>1131</ele><time>2026-03-20T09:10:18Z</time></trkpt>
<trkpt lat="43.0257900000" lon="0.2185370000"><ele>1131</ele><time>2026-03-20T09:10:20Z</time></trkpt>
<trkpt lat="43.0257800000" lon="0.2185620000"><ele>1131</ele><time>2026-03-20T09:10:22Z</time></trkpt>
<trkpt lat="43.0257670000" lon="0.2185850000"><ele>1132</ele><time>2026-03-20T09:10:24Z</time></trkpt>
<trkpt lat="43.0257520000" lon="0.2186070000"><ele>1132</ele><time>2026-03-20T09:10:26Z</time></trkpt>
<trkpt lat="43.0257420000" lon="0.2186300000"><ele>1132</ele><time>2026-03-20T09:10:28Z</time></trkpt>
<trkpt lat="43.0257270000" lon="0.2186520000"><ele>1132</ele><time>2026-03-20T09:10:30Z</time></trkpt>
<trkpt lat="43.0257120000" lon="0.2186850000"><ele>1132</ele><time>2026-03-20T09:10:33Z</time></trkpt>
<trkpt lat="43.0256950000" lon="0.2187050000"><ele>1132</ele><time>2026-03-20T09:10:35Z</time></trkpt>
<trkpt lat="43.0256720000" lon="0.2187320000"><ele>1132</ele><time>2026-03-20T09:10:37Z</time></trkpt>
<trkpt lat="43.0256520000" lon="0.2187520000"><ele>1133</ele><time>2026-03-20T09:10:39Z</time></trkpt>
<trkpt lat="43.0256370000" lon="0.2187770000"><ele>1133</ele><time>2026-03-20T09:10:41Z</time></trkpt>
<trkpt lat="43.0256250000" lon="0.2187970000"><ele>1133</ele><time>2026-03-20T09:10:43Z</time></trkpt>
<trkpt lat="43.0256120000" lon="0.2188220000"><ele>1133</ele><time>2026-03-20T09:10:45Z</time></trkpt>
<trkpt lat="43.0255970000" lon="0.2188530000"><ele>1133</ele><time>2026-03-20T09:10:48Z</time></trkpt>
<trkpt lat="43.0255850000" lon="0.2188820000"><ele>1133</ele><time>2026-03-20T09:10:50Z</time></trkpt>
<trkpt lat="43.0255720000" lon="0.2189100000"><ele>1134</ele><time>2026-03-20T09:10:52Z</time></trkpt>
<trkpt lat="43.0255620000" lon="0.2189370000"><ele>1134</ele><time>2026-03-20T09:10:54Z</time></trkpt>
<trkpt lat="43.0255500000" lon="0.2189670000"><ele>1134</ele><time>2026-03-20T09:10:56Z</time></trkpt>
<trkpt lat="43.0255450000" lon="0.2189920000"><ele>1134</ele><time>2026-03-20T09:10:58Z</time></trkpt>
<trkpt lat="43.0255400000" lon="0.2190220000"><ele>1135</ele><time>2026-03-20T09:11:00Z</time></trkpt>
<trkpt lat="43.0255320000" lon="0.2190520000"><ele>1135</ele><time>2026-03-20T09:11:03Z</time></trkpt>
<trkpt lat="43.0255350000" lon="0.2190830000"><ele>1135</ele><time>2026-03-20T09:11:05Z</time></trkpt>
<trkpt lat="43.0255420000" lon="0.2191170000"><ele>1135</ele><time>2026-03-20T09:11:07Z</time></trkpt>
<trkpt lat="43.0255470000" lon="0.2191470000"><ele>1135</ele><time>2026-03-20T09:11:09Z</time></trkpt>
<trkpt lat="43.0255370000" lon="0.2191900000"><ele>1136</ele><time>2026-03-20T09:11:12Z</time></trkpt>
<trkpt lat="43.0255350000" lon="0.2192180000"><ele>1136</ele><time>2026-03-20T09:11:14Z</time></trkpt>
<trkpt lat="43.0255220000" lon="0.2192400000"><ele>1136</ele><time>2026-03-20T09:11:16Z</time></trkpt>
<trkpt lat="43.0255170000" lon="0.2192720000"><ele>1137</ele><time>2026-03-20T09:11:19Z</time></trkpt>
<trkpt lat="43.0255170000" lon="0.2192970000"><ele>1137</ele><time>2026-03-20T09:11:21Z</time></trkpt>
<trkpt lat="43.0255050000" lon="0.2193250000"><ele>1137</ele><time>2026-03-20T09:11:24Z</time></trkpt>
<trkpt lat="43.0254920000" lon="0.2193420000"><ele>1137</ele><time>2026-03-20T09:11:26Z</time></trkpt>
<trkpt lat="43.0254820000" lon="0.2193750000"><ele>1138</ele><time>2026-03-20T09:11:29Z</time></trkpt>
<trkpt lat="43.0254800000" lon="0.2194000000"><ele>1138</ele><time>2026-03-20T09:11:31Z</time></trkpt>
<trkpt lat="43.0254720000" lon="0.2194320000"><ele>1138</ele><time>2026-03-20T09:11:34Z</time></trkpt>
<trkpt lat="43.0254720000" lon="0.2194670000"><ele>1139</ele><time>2026-03-20T09:11:37Z</time></trkpt>
<trkpt lat="43.0254670000" lon="0.2194930000"><ele>1139</ele><time>2026-03-20T09:11:39Z</time></trkpt>
<trkpt lat="43.0254570000" lon="0.2195270000"><ele>1139</ele><time>2026-03-20T09:11:42Z</time></trkpt>
<trkpt lat="43.0254370000" lon="0.2195470000"><ele>1139</ele><time>2026-03-20T09:11:44Z</time></trkpt>
<trkpt lat="43.0254220000" lon="0.2195770000"><ele>1140</ele><time>2026-03-20T09:11:46Z</time></trkpt>
<trkpt lat="43.0254070000" lon="0.2195970000"><ele>1140</ele><time>2026-03-20T09:11:48Z</time></trkpt>
<trkpt lat="43.0253920000" lon="0.2196170000"><ele>1140</ele><time>2026-03-20T09:11:50Z</time></trkpt>
<trkpt lat="43.0253820000" lon="0.2196420000"><ele>1141</ele><time>2026-03-20T09:11:53Z</time></trkpt>
<trkpt lat="43.0253720000" lon="0.2196650000"><ele>1141</ele><time>2026-03-20T09:11:56Z</time></trkpt>
<trkpt lat="43.0253570000" lon="0.2197000000"><ele>1141</ele><time>2026-03-20T09:11:59Z</time></trkpt>
<trkpt lat="43.0253350000" lon="0.2197200000"><ele>1142</ele><time>2026-03-20T09:12:01Z</time></trkpt>
<trkpt lat="43.0253170000" lon="0.2197300000"><ele>1142</ele><time>2026-03-20T09:12:03Z</time></trkpt>
<trkpt lat="43.0253050000" lon="0.2197520000"><ele>1142</ele><time>2026-03-20T09:12:05Z</time></trkpt>
<trkpt lat="43.0252870000" lon="0.2197720000"><ele>1142</ele><time>2026-03-20T09:12:09Z</time></trkpt>
<trkpt lat="43.0252670000" lon="0.2197850000"><ele>1143</ele><time>2026-03-20T09:12:11Z</time></trkpt>
<trkpt lat="43.0252570000" lon="0.2198150000"><ele>1143</ele><time>2026-03-20T09:12:13Z</time></trkpt>
<trkpt lat="43.0252620000" lon="0.2198470000"><ele>1143</ele><time>2026-03-20T09:12:15Z</time></trkpt>
<trkpt lat="43.0252600000" lon="0.2198900000"><ele>1143</ele><time>2026-03-20T09:12:17Z</time></trkpt>
<trkpt lat="43.0252620000" lon="0.2199320000"><ele>1143</ele><time>2026-03-20T09:12:19Z</time></trkpt>
<trkpt lat="43.0252620000" lon="0.2199630000"><ele>1143</ele><time>2026-03-20T09:12:21Z</time></trkpt>
<trkpt lat="43.0252570000" lon="0.2199920000"><ele>1144</ele><time>2026-03-20T09:12:24Z</time></trkpt>
<trkpt lat="43.0252570000" lon="0.2200170000"><ele>1144</ele><time>2026-03-20T09:12:27Z</time></trkpt>
<trkpt lat="43.0252570000" lon="0.2200520000"><ele>1144</ele><time>2026-03-20T09:12:30Z</time></trkpt>
<trkpt lat="43.0252520000" lon="0.2200770000"><ele>1144</ele><time>2026-03-20T09:12:32Z</time></trkpt>
<trkpt lat="43.0252520000" lon="0.2201100000"><ele>1144</ele><time>2026-03-20T09:12:34Z</time></trkpt>
<trkpt lat="43.0252470000" lon="0.2201400000"><ele>1144</ele><time>2026-03-20T09:12:37Z</time></trkpt>
<trkpt lat="43.0252370000" lon="0.2201670000"><ele>1145</ele><time>2026-03-20T09:12:40Z</time></trkpt>
<trkpt lat="43.0252420000" lon="0.2201970000"><ele>1145</ele><time>2026-03-20T09:12:43Z</time></trkpt>
<trkpt lat="43.0252370000" lon="0.2202220000"><ele>1145</ele><time>2026-03-20T09:12:45Z</time></trkpt>
<trkpt lat="43.0252300000" lon="0.2202470000"><ele>1145</ele><time>2026-03-20T09:12:47Z</time></trkpt>
<trkpt lat="43.0252220000" lon="0.2202870000"><ele>1146</ele><time>2026-03-20T09:12:50Z</time></trkpt>
<trkpt lat="43.0252070000" lon="0.2203120000"><ele>1146</ele><time>2026-03-20T09:12:52Z</time></trkpt>
<trkpt lat="43.0251920000" lon="0.2203370000"><ele>1146</ele><time>2026-03-20T09:12:54Z</time></trkpt>
<trkpt lat="43.0251870000" lon="0.2203650000"><ele>1146</ele><time>2026-03-20T09:12:56Z</time></trkpt>
<trkpt lat="43.0251900000" lon="0.2203950000"><ele>1146</ele><time>2026-03-20T09:12:58Z</time></trkpt>
<trkpt lat="43.0251950000" lon="0.2204220000"><ele>1147</ele><time>2026-03-20T09:13:00Z</time></trkpt>
<trkpt lat="43.0251850000" lon="0.2204520000"><ele>1147</ele><time>2026-03-20T09:13:02Z</time></trkpt>
<trkpt lat="43.0251870000" lon="0.2204800000"><ele>1147</ele><time>2026-03-20T09:13:04Z</time></trkpt>
<trkpt lat="43.0251850000" lon="0.2205070000"><ele>1147</ele><time>2026-03-20T09:13:06Z</time></trkpt>
<trkpt lat="43.0251870000" lon="0.2205400000"><ele>1147</ele><time>2026-03-20T09:13:08Z</time></trkpt>
<trkpt lat="43.0251770000" lon="0.2205670000"><ele>1148</ele><time>2026-03-20T09:13:10Z</time></trkpt>
<trkpt lat="43.0251720000" lon="0.2205950000"><ele>1148</ele><time>2026-03-20T09:13:12Z</time></trkpt>
<trkpt lat="43.0251720000" lon="0.2206270000"><ele>1148</ele><time>2026-03-20T09:13:15Z</time></trkpt>
<trkpt lat="43.0251620000" lon="0.2206600000"><ele>1148</ele><time>2026-03-20T09:13:18Z</time></trkpt>
<trkpt lat="43.0251520000" lon="0.2206920000"><ele>1149</ele><time>2026-03-20T09:13:21Z</time></trkpt>
<trkpt lat="43.0251420000" lon="0.2207220000"><ele>1149</ele><time>2026-03-20T09:13:24Z</time></trkpt>
<trkpt lat="43.0251320000" lon="0.2207430000"><ele>1149</ele><time>2026-03-20T09:13:26Z</time></trkpt>
<trkpt lat="43.0251200000" lon="0.2207720000"><ele>1149</ele><time>2026-03-20T09:13:28Z</time></trkpt>
<trkpt lat="43.0251170000" lon="0.2208120000"><ele>1150</ele><time>2026-03-20T09:13:30Z</time></trkpt>
<trkpt lat="43.0251220000" lon="0.2208420000"><ele>1150</ele><time>2026-03-20T09:13:32Z</time></trkpt>
<trkpt lat="43.0251200000" lon="0.2208670000"><ele>1150</ele><time>2026-03-20T09:13:34Z</time></trkpt>
<trkpt lat="43.0251120000" lon="0.2208970000"><ele>1150</ele><time>2026-03-20T09:13:37Z</time></trkpt>
<trkpt lat="43.0251070000" lon="0.2209320000"><ele>1151</ele><time>2026-03-20T09:13:40Z</time></trkpt>
<trkpt lat="43.0251070000" lon="0.2209700000"><ele>1151</ele><time>2026-03-20T09:13:42Z</time></trkpt>
<trkpt lat="43.0251070000" lon="0.2210070000"><ele>1151</ele><time>2026-03-20T09:13:44Z</time></trkpt>
<trkpt lat="43.0251020000" lon="0.2210320000"><ele>1152</ele><time>2026-03-20T09:13:46Z</time></trkpt>
<trkpt lat="43.0250950000" lon="0.2210570000"><ele>1152</ele><time>2026-03-20T09:13:48Z</time></trkpt>
<trkpt lat="43.0250800000" lon="0.2210800000"><ele>1152</ele><time>2026-03-20T09:13:50Z</time></trkpt>
<trkpt lat="43.0250700000" lon="0.2211050000"><ele>1152</ele><time>2026-03-20T09:13:52Z</time></trkpt>
<trkpt lat="43.0250650000" lon="0.2211300000"><ele>1153</ele><time>2026-03-20T09:13:54Z</time></trkpt>
<trkpt lat="43.0250520000" lon="0.2211620000"><ele>1153</ele><time>2026-03-20T09:13:57Z</time></trkpt>
<trkpt lat="43.0250420000" lon="0.2211870000"><ele>1153</ele><time>2026-03-20T09:14:00Z</time></trkpt>
<trkpt lat="43.0250250000" lon="0.2212070000"><ele>1154</ele><time>2026-03-20T09:14:03Z</time></trkpt>
<trkpt lat="43.0250150000" lon="0.2212370000"><ele>1154</ele><time>2026-03-20T09:14:05Z</time></trkpt>
<trkpt lat="43.0250020000" lon="0.2212600000"><ele>1154</ele><time>2026-03-20T09:14:07Z</time></trkpt>
<trkpt lat="43.0249920000" lon="0.2212880000"><ele>1154</ele><time>2026-03-20T09:14:10Z</time></trkpt>
<trkpt lat="43.0249850000" lon="0.2213250000"><ele>1155</ele><time>2026-03-20T09:14:13Z</time></trkpt>
<trkpt lat="43.0249720000" lon="0.2213550000"><ele>1155</ele><time>2026-03-20T09:14:15Z</time></trkpt>
<trkpt lat="43.0249620000" lon="0.2213800000"><ele>1155</ele><time>2026-03-20T09:14:17Z</time></trkpt>
<trkpt lat="43.0249520000" lon="0.2214120000"><ele>1156</ele><time>2026-03-20T09:14:20Z</time></trkpt>
<trkpt lat="43.0249370000" lon="0.2214320000"><ele>1156</ele><time>2026-03-20T09:14:22Z</time></trkpt>
<trkpt lat="43.0249270000" lon="0.2214550000"><ele>1156</ele><time>2026-03-20T09:14:24Z</time></trkpt>
<trkpt lat="43.0249170000" lon="0.2214820000"><ele>1156</ele><time>2026-03-20T09:14:27Z</time></trkpt>
<trkpt lat="43.0249030000" lon="0.2215150000"><ele>1156</ele><time>2026-03-20T09:14:30Z</time></trkpt>
<trkpt lat="43.0248920000" lon="0.2215370000"><ele>1157</ele><time>2026-03-20T09:14:32Z</time></trkpt>
<trkpt lat="43.0248820000" lon="0.2215620000"><ele>1157</ele><time>2026-03-20T09:14:34Z</time></trkpt>
<trkpt lat="43.0248770000" lon="0.2215870000"><ele>1157</ele><time>2026-03-20T09:14:36Z</time></trkpt>
<trkpt lat="43.0248720000" lon="0.2216200000"><ele>1157</ele><time>2026-03-20T09:14:38Z</time></trkpt>
<trkpt lat="43.0248620000" lon="0.2216470000"><ele>1157</ele><time>2026-03-20T09:14:41Z</time></trkpt>
<trkpt lat="43.0248520000" lon="0.2216720000"><ele>1158</ele><time>2026-03-20T09:14:43Z</time></trkpt>
<trkpt lat="43.0248400000" lon="0.2216970000"><ele>1158</ele><time>2026-03-20T09:14:46Z</time></trkpt>
<trkpt lat="43.0248300000" lon="0.2217270000"><ele>1158</ele><time>2026-03-20T09:14:49Z</time></trkpt>
<trkpt lat="43.0248220000" lon="0.2217500000"><ele>1158</ele><time>2026-03-20T09:14:51Z</time></trkpt>
<trkpt lat="43.0248220000" lon="0.2217900000"><ele>1159</ele><time>2026-03-20T09:14:53Z</time></trkpt>
<trkpt lat="43.0248250000" lon="0.2218320000"><ele>1159</ele><time>2026-03-20T09:14:55Z</time></trkpt>
<trkpt lat="43.0248220000" lon="0.2218720000"><ele>1159</ele><time>2026-03-20T09:14:57Z</time></trkpt>
<trkpt lat="43.0248120000" lon="0.2219070000"><ele>1159</ele><time>2026-03-20T09:14:59Z</time></trkpt>
<trkpt lat="43.0248070000" lon="0.2219370000"><ele>1159</ele><time>2026-03-20T09:15:01Z</time></trkpt>
<trkpt lat="43.0248070000" lon="0.2219620000"><ele>1160</ele><time>2026-03-20T09:15:03Z</time></trkpt>
<trkpt lat="43.0248000000" lon="0.2220020000"><ele>1160</ele><time>2026-03-20T09:15:06Z</time></trkpt>
<trkpt lat="43.0247970000" lon="0.2220270000"><ele>1160</ele><time>2026-03-20T09:15:08Z</time></trkpt>
<trkpt lat="43.0247920000" lon="0.2220520000"><ele>1161</ele><time>2026-03-20T09:15:10Z</time></trkpt>
<trkpt lat="43.0247970000" lon="0.2220800000"><ele>1161</ele><time>2026-03-20T09:15:12Z</time></trkpt>
<trkpt lat="43.0247970000" lon="0.2221070000"><ele>1161</ele><time>2026-03-20T09:15:13Z</time></trkpt>
<trkpt lat="43.0247970000" lon="0.2221420000"><ele>1161</ele><time>2026-03-20T09:15:15Z</time></trkpt>
<trkpt lat="43.0247870000" lon="0.2221670000"><ele>1161</ele><time>2026-03-20T09:15:17Z</time></trkpt>
<trkpt lat="43.0247820000" lon="0.2222020000"><ele>1162</ele><time>2026-03-20T09:15:20Z</time></trkpt>
<trkpt lat="43.0247750000" lon="0.2222270000"><ele>1162</ele><time>2026-03-20T09:15:22Z</time></trkpt>
<trkpt lat="43.0247670000" lon="0.2222520000"><ele>1162</ele><time>2026-03-20T09:15:24Z</time></trkpt>
<trkpt lat="43.0247670000" lon="0.2222870000"><ele>1162</ele><time>2026-03-20T09:15:27Z</time></trkpt>
<trkpt lat="43.0247650000" lon="0.2223120000"><ele>1162</ele><time>2026-03-20T09:15:29Z</time></trkpt>
<trkpt lat="43.0247550000" lon="0.2223400000"><ele>1163</ele><time>2026-03-20T09:15:31Z</time></trkpt>
<trkpt lat="43.0247450000" lon="0.2223620000"><ele>1163</ele><time>2026-03-20T09:15:33Z</time></trkpt>
<trkpt lat="43.0247370000" lon="0.2223950000"><ele>1163</ele><time>2026-03-20T09:15:36Z</time></trkpt>
<trkpt lat="43.0247320000" lon="0.2224270000"><ele>1164</ele><time>2026-03-20T09:15:39Z</time></trkpt>
<trkpt lat="43.0247220000" lon="0.2224570000"><ele>1164</ele><time>2026-03-20T09:15:41Z</time></trkpt>
<trkpt lat="43.0247120000" lon="0.2224820000"><ele>1164</ele><time>2026-03-20T09:15:43Z</time></trkpt>
<trkpt lat="43.0247020000" lon="0.2225070000"><ele>1164</ele><time>2026-03-20T09:15:45Z</time></trkpt>
<trkpt lat="43.0246970000" lon="0.2225380000"><ele>1164</ele><time>2026-03-20T09:15:47Z</time></trkpt>
<trkpt lat="43.0246970000" lon="0.2225720000"><ele>1164</ele><time>2026-03-20T09:15:49Z</time></trkpt>
<trkpt lat="43.0246870000" lon="0.2225980000"><ele>1165</ele><time>2026-03-20T09:15:51Z</time></trkpt>
<trkpt lat="43.0246770000" lon="0.2226320000"><ele>1165</ele><time>2026-03-20T09:15:54Z</time></trkpt>
<trkpt lat="43.0246700000" lon="0.2226600000"><ele>1165</ele><time>2026-03-20T09:15:56Z</time></trkpt>
<trkpt lat="43.0246500000" lon="0.2226770000"><ele>1165</ele><time>2026-03-20T09:15:58Z</time></trkpt>
<trkpt lat="43.0246350000" lon="0.2226920000"><ele>1165</ele><time>2026-03-20T09:16:00Z</time></trkpt>
<trkpt lat="43.0246250000" lon="0.2227250000"><ele>1166</ele><time>2026-03-20T09:16:04Z</time></trkpt>
<trkpt lat="43.0246120000" lon="0.2227550000"><ele>1166</ele><time>2026-03-20T09:16:06Z</time></trkpt>
<trkpt lat="43.0246020000" lon="0.2227870000"><ele>1166</ele><time>2026-03-20T09:16:08Z</time></trkpt>
<trkpt lat="43.0246070000" lon="0.2228220000"><ele>1166</ele><time>2026-03-20T09:16:10Z</time></trkpt>
<trkpt lat="43.0246100000" lon="0.2228620000"><ele>1166</ele><time>2026-03-20T09:16:12Z</time></trkpt>
<trkpt lat="43.0246120000" lon="0.2228950000"><ele>1166</ele><time>2026-03-20T09:16:14Z</time></trkpt>
<trkpt lat="43.0246070000" lon="0.2229320000"><ele>1167</ele><time>2026-03-20T09:16:17Z</time></trkpt>
<trkpt lat="43.0246020000" lon="0.2229570000"><ele>1167</ele><time>2026-03-20T09:16:19Z</time></trkpt>
<trkpt lat="43.0246100000" lon="0.2229870000"><ele>1167</ele><time>2026-03-20T09:16:21Z</time></trkpt>
<trkpt lat="43.0246120000" lon="0.2230120000"><ele>1167</ele><time>2026-03-20T09:16:23Z</time></trkpt>
<trkpt lat="43.0246050000" lon="0.2230370000"><ele>1167</ele><time>2026-03-20T09:16:25Z</time></trkpt>
<trkpt lat="43.0245970000" lon="0.2230700000"><ele>1168</ele><time>2026-03-20T09:16:28Z</time></trkpt>
<trkpt lat="43.0245920000" lon="0.2230970000"><ele>1168</ele><time>2026-03-20T09:16:30Z</time></trkpt>
<trkpt lat="43.0245920000" lon="0.2231270000"><ele>1168</ele><time>2026-03-20T09:16:32Z</time></trkpt>
<trkpt lat="43.0245870000" lon="0.2231570000"><ele>1168</ele><time>2026-03-20T09:16:34Z</time></trkpt>
<trkpt lat="43.0245850000" lon="0.2231820000"><ele>1168</ele><time>2026-03-20T09:16:36Z</time></trkpt>
<trkpt lat="43.0245770000" lon="0.2232050000"><ele>1169</ele><time>2026-03-20T09:16:38Z</time></trkpt>
<trkpt lat="43.0245670000" lon="0.2232330000"><ele>1169</ele><time>2026-03-20T09:16:41Z</time></trkpt>
<trkpt lat="43.0245600000" lon="0.2232570000"><ele>1169</ele><time>2026-03-20T09:16:43Z</time></trkpt>
<trkpt lat="43.0245600000" lon="0.2232870000"><ele>1169</ele><time>2026-03-20T09:16:45Z</time></trkpt>
<trkpt lat="43.0245620000" lon="0.2233150000"><ele>1169</ele><time>2026-03-20T09:16:47Z</time></trkpt>
<trkpt lat="43.0245670000" lon="0.2233420000"><ele>1169</ele><time>2026-03-20T09:16:49Z</time></trkpt>
<trkpt lat="43.0245670000" lon="0.2233730000"><ele>1169</ele><time>2026-03-20T09:16:51Z</time></trkpt>
<trkpt lat="43.0245670000" lon="0.2234120000"><ele>1170</ele><time>2026-03-20T09:16:54Z</time></trkpt>
<trkpt lat="43.0245620000" lon="0.2234450000"><ele>1170</ele><time>2026-03-20T09:16:56Z</time></trkpt>
<trkpt lat="43.0245570000" lon="0.2234750000"><ele>1170</ele><time>2026-03-20T09:16:58Z</time></trkpt>
<trkpt lat="43.0245570000" lon="0.2235020000"><ele>1170</ele><time>2026-03-20T09:17:00Z</time></trkpt>
<trkpt lat="43.0245620000" lon="0.2235270000"><ele>1170</ele><time>2026-03-20T09:17:02Z</time></trkpt>
<trkpt lat="43.0245650000" lon="0.2235520000"><ele>1170</ele><time>2026-03-20T09:17:04Z</time></trkpt>
<trkpt lat="43.0245650000" lon="0.2235800000"><ele>1171</ele><time>2026-03-20T09:17:06Z</time></trkpt>
<trkpt lat="43.0245700000" lon="0.2236120000"><ele>1171</ele><time>2026-03-20T09:17:09Z</time></trkpt>
<trkpt lat="43.0245570000" lon="0.2236320000"><ele>1171</ele><time>2026-03-20T09:17:11Z</time></trkpt>
<trkpt lat="43.0245500000" lon="0.2236620000"><ele>1171</ele><time>2026-03-20T09:17:14Z</time></trkpt>
<trkpt lat="43.0245420000" lon="0.2236870000"><ele>1171</ele><time>2026-03-20T09:17:16Z</time></trkpt>
<trkpt lat="43.0245320000" lon="0.2237120000"><ele>1171</ele><time>2026-03-20T09:17:18Z</time></trkpt>
<trkpt lat="43.0245270000" lon="0.2237420000"><ele>1171</ele><time>2026-03-20T09:17:20Z</time></trkpt>
<trkpt lat="43.0245270000" lon="0.2237750000"><ele>1171</ele><time>2026-03-20T09:17:22Z</time></trkpt>
<trkpt lat="43.0245270000" lon="0.2238100000"><ele>1171</ele><time>2026-03-20T09:17:24Z</time></trkpt>
<trkpt lat="43.0245300000" lon="0.2238370000"><ele>1171</ele><time>2026-03-20T09:17:26Z</time></trkpt>
<trkpt lat="43.0245230000" lon="0.2238620000"><ele>1172</ele><time>2026-03-20T09:17:28Z</time></trkpt>
<trkpt lat="43.0245200000" lon="0.2238950000"><ele>1172</ele><time>2026-03-20T09:17:31Z</time></trkpt>
<trkpt lat="43.0245050000" lon="0.2239200000"><ele>1172</ele><time>2026-03-20T09:17:34Z</time></trkpt>
<trkpt lat="43.0244900000" lon="0.2239420000"><ele>1172</ele><time>2026-03-20T09:17:36Z</time></trkpt>
<trkpt lat="43.0244720000" lon="0.2239620000"><ele>1172</ele><time>2026-03-20T09:17:39Z</time></trkpt>
<trkpt lat="43.0244500000" lon="0.2239550000"><ele>1173</ele><time>2026-03-20T09:17:45Z</time></trkpt>
<trkpt lat="43.0244270000" lon="0.2239520000"><ele>1173</ele><time>2026-03-20T09:17:49Z</time></trkpt>
<trkpt lat="43.0244500000" lon="0.2239570000"><ele>1173</ele><time>2026-03-20T09:18:20Z</time></trkpt>
<trkpt lat="43.0244720000" lon="0.2239720000"><ele>1173</ele><time>2026-03-20T09:18:22Z</time></trkpt>
<trkpt lat="43.0244620000" lon="0.2240000000"><ele>1173</ele><time>2026-03-20T09:18:26Z</time></trkpt>
<trkpt lat="43.0244620000" lon="0.2239670000"><ele>1173</ele><time>2026-03-20T09:18:49Z</time></trkpt>
<trkpt lat="43.0244420000" lon="0.2239470000"><ele>1172</ele><time>2026-03-20T09:18:52Z</time></trkpt>
<trkpt lat="43.0244620000" lon="0.2239450000"><ele>1172</ele><time>2026-03-20T09:19:11Z</time></trkpt>
<trkpt lat="43.0244500000" lon="0.2239670000"><ele>1172</ele><time>2026-03-20T09:19:49Z</time></trkpt>
<trkpt lat="43.0244220000" lon="0.2239830000"><ele>1172</ele><time>2026-03-20T09:19:51Z</time></trkpt>
<trkpt lat="43.0244020000" lon="0.2239920000"><ele>1172</ele><time>2026-03-20T09:19:53Z</time></trkpt>
<trkpt lat="43.0244020000" lon="0.2239420000"><ele>1172</ele><time>2026-03-20T09:19:58Z</time></trkpt>
<trkpt lat="43.0244070000" lon="0.2239750000"><ele>1172</ele><time>2026-03-20T09:20:36Z</time></trkpt>
<trkpt lat="43.0243870000" lon="0.2239920000"><ele>1171</ele><time>2026-03-20T09:20:39Z</time></trkpt>
<trkpt lat="43.0244250000" lon="0.2239650000"><ele>1171</ele><time>2026-03-20T09:22:10Z</time></trkpt>
<trkpt lat="43.0244550000" lon="0.2239520000"><ele>1171</ele><time>2026-03-20T09:22:11Z</time></trkpt>
<trkpt lat="43.0244770000" lon="0.2239420000"><ele>1171</ele><time>2026-03-20T09:22:12Z</time></trkpt>
<trkpt lat="43.0245200000" lon="0.2239320000"><ele>1171</ele><time>2026-03-20T09:22:15Z</time></trkpt>
<trkpt lat="43.0245120000" lon="0.2239620000"><ele>1171</ele><time>2026-03-20T09:22:21Z</time></trkpt>
<trkpt lat="43.0245220000" lon="0.2239320000"><ele>1172</ele><time>2026-03-20T09:22:54Z</time></trkpt>
<trkpt lat="43.0245270000" lon="0.2239070000"><ele>1172</ele><time>2026-03-20T09:22:58Z</time></trkpt>
<trkpt lat="43.0245070000" lon="0.2239200000"><ele>1172</ele><time>2026-03-20T09:23:11Z</time></trkpt>
<trkpt lat="43.0244900000" lon="0.2239250000"><ele>1171</ele><time>2026-03-20T09:23:13Z</time></trkpt>
<trkpt lat="43.0244700000" lon="0.2239280000"><ele>1171</ele><time>2026-03-20T09:23:16Z</time></trkpt>
<trkpt lat="43.0244520000" lon="0.2239320000"><ele>1171</ele><time>2026-03-20T09:23:19Z</time></trkpt>
<trkpt lat="43.0244720000" lon="0.2239170000"><ele>1172</ele><time>2026-03-20T09:24:37Z</time></trkpt>
<trkpt lat="43.0244920000" lon="0.2239100000"><ele>1172</ele><time>2026-03-20T09:24:38Z</time></trkpt>
<trkpt lat="43.0245150000" lon="0.2239020000"><ele>1172</ele><time>2026-03-20T09:24:39Z</time></trkpt>
<trkpt lat="43.0245320000" lon="0.2238970000"><ele>1172</ele><time>2026-03-20T09:24:40Z</time></trkpt>
<trkpt lat="43.0245520000" lon="0.2238920000"><ele>1172</ele><time>2026-03-20T09:24:42Z</time></trkpt>
<trkpt lat="43.0245320000" lon="0.2239100000"><ele>1172</ele><time>2026-03-20T09:25:37Z</time></trkpt>
<trkpt lat="43.0245020000" lon="0.2239200000"><ele>1172</ele><time>2026-03-20T09:25:38Z</time></trkpt>
<trkpt lat="43.0244670000" lon="0.2239330000"><ele>1172</ele><time>2026-03-20T09:25:39Z</time></trkpt>
<trkpt lat="43.0244420000" lon="0.2239470000"><ele>1172</ele><time>2026-03-20T09:25:40Z</time></trkpt>
<trkpt lat="43.0244350000" lon="0.2239720000"><ele>1172</ele><time>2026-03-20T09:25:43Z</time></trkpt>
<trkpt lat="43.0244500000" lon="0.2239550000"><ele>1173</ele><time>2026-03-20T09:28:07Z</time></trkpt>
<trkpt lat="43.0244620000" lon="0.2239720000"><ele>1173</ele><time>2026-03-20T09:28:23Z</time></trkpt>
<trkpt lat="43.0244820000" lon="0.2239820000"><ele>1173</ele><time>2026-03-20T09:28:25Z</time></trkpt>
<trkpt lat="43.0245100000" lon="0.2239700000"><ele>1173</ele><time>2026-03-20T09:28:30Z</time></trkpt>
<trkpt lat="43.0245320000" lon="0.2239800000"><ele>1173</ele><time>2026-03-20T09:28:50Z</time></trkpt>
<trkpt lat="43.0245520000" lon="0.2239670000"><ele>1173</ele><time>2026-03-20T09:29:19Z</time></trkpt>
<trkpt lat="43.0245350000" lon="0.2239620000"><ele>1173</ele><time>2026-03-20T09:29:24Z</time></trkpt>
<trkpt lat="43.0245120000" lon="0.2239700000"><ele>1173</ele><time>2026-03-20T09:29:26Z</time></trkpt>
<trkpt lat="43.0245120000" lon="0.2239380000"><ele>1173</ele><time>2026-03-20T09:29:31Z</time></trkpt>
<trkpt lat="43.0244950000" lon="0.2239150000"><ele>1173</ele><time>2026-03-20T09:29:34Z</time></trkpt>
<trkpt lat="43.0244750000" lon="0.2239120000"><ele>1173</ele><time>2026-03-20T09:29:36Z</time></trkpt>
<trkpt lat="43.0244550000" lon="0.2239120000"><ele>1173</ele><time>2026-03-20T09:29:38Z</time></trkpt>
<trkpt lat="43.0244500000" lon="0.2239420000"><ele>1173</ele><time>2026-03-20T09:29:43Z</time></trkpt>
<trkpt lat="43.0244520000" lon="0.2239750000"><ele>1173</ele><time>2026-03-20T09:29:44Z</time></trkpt>
<trkpt lat="43.0244270000" lon="0.2239620000"><ele>1173</ele><time>2026-03-20T09:29:55Z</time></trkpt>
<trkpt lat="43.0244100000" lon="0.2239420000"><ele>1173</ele><time>2026-03-20T09:29:56Z</time></trkpt>
<trkpt lat="43.0243920000" lon="0.2239250000"><ele>1173</ele><time>2026-03-20T09:29:57Z</time></trkpt>
<trkpt lat="43.0243770000" lon="0.2239100000"><ele>1173</ele><time>2026-03-20T09:29:58Z</time></trkpt>
<trkpt lat="43.0243520000" lon="0.2238770000"><ele>1174</ele><time>2026-03-20T09:30:00Z</time></trkpt>
<trkpt lat="43.0243320000" lon="0.2238520000"><ele>1174</ele><time>2026-03-20T09:30:02Z</time></trkpt>
<trkpt lat="43.0243320000" lon="0.2238250000"><ele>1175</ele><time>2026-03-20T09:30:05Z</time></trkpt>
<trkpt lat="43.0243300000" lon="0.2237970000"><ele>1175</ele><time>2026-03-20T09:30:07Z</time></trkpt>
<trkpt lat="43.0243370000" lon="0.2237670000"><ele>1175</ele><time>2026-03-20T09:30:09Z</time></trkpt>
<trkpt lat="43.0243470000" lon="0.2237420000"><ele>1175</ele><time>2026-03-20T09:30:11Z</time></trkpt>
<trkpt lat="43.0243570000" lon="0.2237020000"><ele>1175</ele><time>2026-03-20T09:30:13Z</time></trkpt>
<trkpt lat="43.0243680000" lon="0.2236670000"><ele>1175</ele><time>2026-03-20T09:30:15Z</time></trkpt>
<trkpt lat="43.0243820000" lon="0.2236300000"><ele>1175</ele><time>2026-03-20T09:30:17Z</time></trkpt>
<trkpt lat="43.0243920000" lon="0.2235900000"><ele>1175</ele><time>2026-03-20T09:30:19Z</time></trkpt>
<trkpt lat="43.0244020000" lon="0.2235520000"><ele>1176</ele><time>2026-03-20T09:30:21Z</time></trkpt>
<trkpt lat="43.0244070000" lon="0.2235120000"><ele>1176</ele><time>2026-03-20T09:30:23Z</time></trkpt>
<trkpt lat="43.0244070000" lon="0.2234770000"><ele>1176</ele><time>2026-03-20T09:30:25Z</time></trkpt>
<trkpt lat="43.0244070000" lon="0.2234520000"><ele>1176</ele><time>2026-03-20T09:30:27Z</time></trkpt>
<trkpt lat="43.0244070000" lon="0.2234150000"><ele>1176</ele><time>2026-03-20T09:30:30Z</time></trkpt>
<trkpt lat="43.0244100000" lon="0.2233870000"><ele>1176</ele><time>2026-03-20T09:30:32Z</time></trkpt>
<trkpt lat="43.0244070000" lon="0.2233570000"><ele>1177</ele><time>2026-03-20T09:30:34Z</time></trkpt>
<trkpt lat="43.0244070000" lon="0.2233270000"><ele>1177</ele><time>2026-03-20T09:30:36Z</time></trkpt>
<trkpt lat="43.0244020000" lon="0.2232970000"><ele>1177</ele><time>2026-03-20T09:30:38Z</time></trkpt>
<trkpt lat="43.0244070000" lon="0.2232670000"><ele>1177</ele><time>2026-03-20T09:30:40Z</time></trkpt>
<trkpt lat="43.0244020000" lon="0.2232420000"><ele>1177</ele><time>2026-03-20T09:30:42Z</time></trkpt>
<trkpt lat="43.0243970000" lon="0.2232120000"><ele>1177</ele><time>2026-03-20T09:30:44Z</time></trkpt>
<trkpt lat="43.0243920000" lon="0.2231770000"><ele>1178</ele><time>2026-03-20T09:30:46Z</time></trkpt>
<trkpt lat="43.0243870000" lon="0.2231470000"><ele>1178</ele><time>2026-03-20T09:30:48Z</time></trkpt>
<trkpt lat="43.0243670000" lon="0.2231220000"><ele>1178</ele><time>2026-03-20T09:30:51Z</time></trkpt>
<trkpt lat="43.0243770000" lon="0.2230870000"><ele>1178</ele><time>2026-03-20T09:30:54Z</time></trkpt>
<trkpt lat="43.0243750000" lon="0.2230620000"><ele>1179</ele><time>2026-03-20T09:30:56Z</time></trkpt>
<trkpt lat="43.0243800000" lon="0.2230350000"><ele>1179</ele><time>2026-03-20T09:30:58Z</time></trkpt>
<trkpt lat="43.0243820000" lon="0.2230050000"><ele>1179</ele><time>2026-03-20T09:31:00Z</time></trkpt>
<trkpt lat="43.0243820000" lon="0.2229720000"><ele>1179</ele><time>2026-03-20T09:31:02Z</time></trkpt>
<trkpt lat="43.0243900000" lon="0.2229420000"><ele>1179</ele><time>2026-03-20T09:31:04Z</time></trkpt>
<trkpt lat="43.0243920000" lon="0.2229120000"><ele>1179</ele><time>2026-03-20T09:31:07Z</time></trkpt>
<trkpt lat="43.0244020000" lon="0.2228770000"><ele>1179</ele><time>2026-03-20T09:31:09Z</time></trkpt>
<trkpt lat="43.0243970000" lon="0.2228420000"><ele>1180</ele><time>2026-03-20T09:31:11Z</time></trkpt>
<trkpt lat="43.0243920000" lon="0.2228020000"><ele>1180</ele><time>2026-03-20T09:31:13Z</time></trkpt>
<trkpt lat="43.0243920000" lon="0.2227770000"><ele>1180</ele><time>2026-03-20T09:31:15Z</time></trkpt>
<trkpt lat="43.0243850000" lon="0.2227420000"><ele>1180</ele><time>2026-03-20T09:31:17Z</time></trkpt>
<trkpt lat="43.0243820000" lon="0.2227070000"><ele>1180</ele><time>2026-03-20T09:31:19Z</time></trkpt>
<trkpt lat="43.0243800000" lon="0.2226700000"><ele>1181</ele><time>2026-03-20T09:31:21Z</time></trkpt>
<trkpt lat="43.0243720000" lon="0.2226400000"><ele>1181</ele><time>2026-03-20T09:31:23Z</time></trkpt>
<trkpt lat="43.0243620000" lon="0.2226170000"><ele>1181</ele><time>2026-03-20T09:31:25Z</time></trkpt>
<trkpt lat="43.0243670000" lon="0.2225820000"><ele>1181</ele><time>2026-03-20T09:31:27Z</time></trkpt>
<trkpt lat="43.0243680000" lon="0.2225570000"><ele>1181</ele><time>2026-03-20T09:31:29Z</time></trkpt>
<trkpt lat="43.0243770000" lon="0.2225270000"><ele>1182</ele><time>2026-03-20T09:31:32Z</time></trkpt>
<trkpt lat="43.0243720000" lon="0.2225000000"><ele>1182</ele><time>2026-03-20T09:31:34Z</time></trkpt>
<trkpt lat="43.0243670000" lon="0.2224720000"><ele>1182</ele><time>2026-03-20T09:31:36Z</time></trkpt>
<trkpt lat="43.0243670000" lon="0.2224450000"><ele>1182</ele><time>2026-03-20T09:31:38Z</time></trkpt>
<trkpt lat="43.0243570000" lon="0.2224220000"><ele>1182</ele><time>2026-03-20T09:31:40Z</time></trkpt>
<trkpt lat="43.0243500000" lon="0.2223900000"><ele>1182</ele><time>2026-03-20T09:31:42Z</time></trkpt>
<trkpt lat="43.0243420000" lon="0.2223570000"><ele>1183</ele><time>2026-03-20T09:31:44Z</time></trkpt>
<trkpt lat="43.0243350000" lon="0.2223270000"><ele>1183</ele><time>2026-03-20T09:31:46Z</time></trkpt>
<trkpt lat="43.0243300000" lon="0.2222920000"><ele>1183</ele><time>2026-03-20T09:31:49Z</time></trkpt>
<trkpt lat="43.0243320000" lon="0.2222600000"><ele>1183</ele><time>2026-03-20T09:31:51Z</time></trkpt>
<trkpt lat="43.0243270000" lon="0.2222350000"><ele>1184</ele><time>2026-03-20T09:31:53Z</time></trkpt>
<trkpt lat="43.0243300000" lon="0.2221950000"><ele>1184</ele><time>2026-03-20T09:31:56Z</time></trkpt>
<trkpt lat="43.0243170000" lon="0.2221720000"><ele>1184</ele><time>2026-03-20T09:31:58Z</time></trkpt>
<trkpt lat="43.0243150000" lon="0.2221370000"><ele>1185</ele><time>2026-03-20T09:32:01Z</time></trkpt>
<trkpt lat="43.0242980000" lon="0.2221120000"><ele>1185</ele><time>2026-03-20T09:32:03Z</time></trkpt>
<trkpt lat="43.0242950000" lon="0.2220870000"><ele>1185</ele><time>2026-03-20T09:32:05Z</time></trkpt>
<trkpt lat="43.0242820000" lon="0.2220620000"><ele>1185</ele><time>2026-03-20T09:32:07Z</time></trkpt>
<trkpt lat="43.0242820000" lon="0.2220350000"><ele>1185</ele><time>2026-03-20T09:32:09Z</time></trkpt>
<trkpt lat="43.0242870000" lon="0.2220070000"><ele>1185</ele><time>2026-03-20T09:32:11Z</time></trkpt>
<trkpt lat="43.0242970000" lon="0.2219770000"><ele>1186</ele><time>2026-03-20T09:32:13Z</time></trkpt>
<trkpt lat="43.0242950000" lon="0.2219470000"><ele>1186</ele><time>2026-03-20T09:32:15Z</time></trkpt>
<trkpt lat="43.0242920000" lon="0.2219170000"><ele>1186</ele><time>2026-03-20T09:32:17Z</time></trkpt>
<trkpt lat="43.0242750000" lon="0.2218970000"><ele>1186</ele><time>2026-03-20T09:32:19Z</time></trkpt>
<trkpt lat="43.0242670000" lon="0.2218620000"><ele>1186</ele><time>2026-03-20T09:32:22Z</time></trkpt>
<trkpt lat="43.0242570000" lon="0.2218270000"><ele>1187</ele><time>2026-03-20T09:32:24Z</time></trkpt>
<trkpt lat="43.0242470000" lon="0.2217920000"><ele>1187</ele><time>2026-03-20T09:32:26Z</time></trkpt>
<trkpt lat="43.0242470000" lon="0.2217570000"><ele>1187</ele><time>2026-03-20T09:32:28Z</time></trkpt>
<trkpt lat="43.0242420000" lon="0.2217320000"><ele>1187</ele><time>2026-03-20T09:32:30Z</time></trkpt>
<trkpt lat="43.0242520000" lon="0.2217070000"><ele>1187</ele><time>2026-03-20T09:32:31Z</time></trkpt>
<trkpt lat="43.0242670000" lon="0.2216820000"><ele>1188</ele><time>2026-03-20T09:32:32Z</time></trkpt>
<trkpt lat="43.0242820000" lon="0.2216670000"><ele>1188</ele><time>2026-03-20T09:32:33Z</time></trkpt>
<trkpt lat="43.0242820000" lon="0.2216420000"><ele>1188</ele><time>2026-03-20T09:32:35Z</time></trkpt>
<trkpt lat="43.0242850000" lon="0.2216020000"><ele>1188</ele><time>2026-03-20T09:32:38Z</time></trkpt>
<trkpt lat="43.0242950000" lon="0.2215670000"><ele>1188</ele><time>2026-03-20T09:32:40Z</time></trkpt>
<trkpt lat="43.0243170000" lon="0.2215620000"><ele>1189</ele><time>2026-03-20T09:32:41Z</time></trkpt>
<trkpt lat="43.0243120000" lon="0.2215200000"><ele>1189</ele><time>2026-03-20T09:32:43Z</time></trkpt>
<trkpt lat="43.0243150000" lon="0.2214870000"><ele>1189</ele><time>2026-03-20T09:32:45Z</time></trkpt>
<trkpt lat="43.0243170000" lon="0.2214570000"><ele>1189</ele><time>2026-03-20T09:32:47Z</time></trkpt>
<trkpt lat="43.0243100000" lon="0.2214220000"><ele>1189</ele><time>2026-03-20T09:32:49Z</time></trkpt>
<trkpt lat="43.0243100000" lon="0.2213920000"><ele>1190</ele><time>2026-03-20T09:32:52Z</time></trkpt>
<trkpt lat="43.0243100000" lon="0.2213620000"><ele>1190</ele><time>2026-03-20T09:32:55Z</time></trkpt>
<trkpt lat="43.0243350000" lon="0.2213570000"><ele>1190</ele><time>2026-03-20T09:32:57Z</time></trkpt>
<trkpt lat="43.0243320000" lon="0.2213220000"><ele>1190</ele><time>2026-03-20T09:33:00Z</time></trkpt>
<trkpt lat="43.0243270000" lon="0.2212880000"><ele>1191</ele><time>2026-03-20T09:33:02Z</time></trkpt>
<trkpt lat="43.0243320000" lon="0.2212620000"><ele>1191</ele><time>2026-03-20T09:33:05Z</time></trkpt>
<trkpt lat="43.0243370000" lon="0.2212370000"><ele>1191</ele><time>2026-03-20T09:33:07Z</time></trkpt>
<trkpt lat="43.0243250000" lon="0.2212070000"><ele>1191</ele><time>2026-03-20T09:33:09Z</time></trkpt>
<trkpt lat="43.0243220000" lon="0.2211750000"><ele>1192</ele><time>2026-03-20T09:33:11Z</time></trkpt>
<trkpt lat="43.0243270000" lon="0.2211500000"><ele>1192</ele><time>2026-03-20T09:33:13Z</time></trkpt>
<trkpt lat="43.0243250000" lon="0.2211150000"><ele>1192</ele><time>2026-03-20T09:33:16Z</time></trkpt>
<trkpt lat="43.0243220000" lon="0.2210870000"><ele>1192</ele><time>2026-03-20T09:33:19Z</time></trkpt>
<trkpt lat="43.0243300000" lon="0.2210620000"><ele>1192</ele><time>2026-03-20T09:33:21Z</time></trkpt>
<trkpt lat="43.0243300000" lon="0.2210370000"><ele>1193</ele><time>2026-03-20T09:33:23Z</time></trkpt>
<trkpt lat="43.0243420000" lon="0.2210020000"><ele>1193</ele><time>2026-03-20T09:33:25Z</time></trkpt>
<trkpt lat="43.0243470000" lon="0.2209670000"><ele>1193</ele><time>2026-03-20T09:33:27Z</time></trkpt>
<trkpt lat="43.0243420000" lon="0.2209420000"><ele>1193</ele><time>2026-03-20T09:33:29Z</time></trkpt>
<trkpt lat="43.0243320000" lon="0.2209170000"><ele>1194</ele><time>2026-03-20T09:33:31Z</time></trkpt>
<trkpt lat="43.0243320000" lon="0.2208870000"><ele>1194</ele><time>2026-03-20T09:33:33Z</time></trkpt>
<trkpt lat="43.0243350000" lon="0.2208570000"><ele>1194</ele><time>2026-03-20T09:33:35Z</time></trkpt>
<trkpt lat="43.0243320000" lon="0.2208200000"><ele>1194</ele><time>2026-03-20T09:33:38Z</time></trkpt>
<trkpt lat="43.0243250000" lon="0.2207820000"><ele>1195</ele><time>2026-03-20T09:33:41Z</time></trkpt>
<trkpt lat="43.0243050000" lon="0.2207600000"><ele>1195</ele><time>2026-03-20T09:33:43Z</time></trkpt>
<trkpt lat="43.0242950000" lon="0.2207330000"><ele>1195</ele><time>2026-03-20T09:33:45Z</time></trkpt>
<trkpt lat="43.0242870000" lon="0.2207100000"><ele>1195</ele><time>2026-03-20T09:33:47Z</time></trkpt>
<trkpt lat="43.0242850000" lon="0.2206770000"><ele>1195</ele><time>2026-03-20T09:33:49Z</time></trkpt>
<trkpt lat="43.0242920000" lon="0.2206450000"><ele>1195</ele><time>2026-03-20T09:33:51Z</time></trkpt>
<trkpt lat="43.0242850000" lon="0.2206200000"><ele>1195</ele><time>2026-03-20T09:33:53Z</time></trkpt>
<trkpt lat="43.0242850000" lon="0.2205920000"><ele>1196</ele><time>2026-03-20T09:33:55Z</time></trkpt>
<trkpt lat="43.0242720000" lon="0.2205670000"><ele>1196</ele><time>2026-03-20T09:33:57Z</time></trkpt>
<trkpt lat="43.0242670000" lon="0.2205420000"><ele>1196</ele><time>2026-03-20T09:33:59Z</time></trkpt>
<trkpt lat="43.0242570000" lon="0.2205070000"><ele>1196</ele><time>2026-03-20T09:34:01Z</time></trkpt>
<trkpt lat="43.0242670000" lon="0.2204670000"><ele>1196</ele><time>2026-03-20T09:34:04Z</time></trkpt>
<trkpt lat="43.0242600000" lon="0.2204300000"><ele>1197</ele><time>2026-03-20T09:34:07Z</time></trkpt>
<trkpt lat="43.0242600000" lon="0.2203950000"><ele>1197</ele><time>2026-03-20T09:34:10Z</time></trkpt>
<trkpt lat="43.0242620000" lon="0.2203670000"><ele>1197</ele><time>2026-03-20T09:34:12Z</time></trkpt>
<trkpt lat="43.0242620000" lon="0.2203420000"><ele>1197</ele><time>2026-03-20T09:34:14Z</time></trkpt>
<trkpt lat="43.0242520000" lon="0.2203150000"><ele>1197</ele><time>2026-03-20T09:34:16Z</time></trkpt>
<trkpt lat="43.0242570000" lon="0.2202870000"><ele>1197</ele><time>2026-03-20T09:34:18Z</time></trkpt>
<trkpt lat="43.0242420000" lon="0.2202550000"><ele>1198</ele><time>2026-03-20T09:34:20Z</time></trkpt>
<trkpt lat="43.0242250000" lon="0.2202330000"><ele>1198</ele><time>2026-03-20T09:34:22Z</time></trkpt>
<trkpt lat="43.0242170000" lon="0.2202000000"><ele>1198</ele><time>2026-03-20T09:34:24Z</time></trkpt>
<trkpt lat="43.0242020000" lon="0.2201670000"><ele>1198</ele><time>2026-03-20T09:34:26Z</time></trkpt>
<trkpt lat="43.0242020000" lon="0.2201420000"><ele>1198</ele><time>2026-03-20T09:34:28Z</time></trkpt>
<trkpt lat="43.0241970000" lon="0.2201150000"><ele>1198</ele><time>2026-03-20T09:34:31Z</time></trkpt>
<trkpt lat="43.0242020000" lon="0.2200820000"><ele>1199</ele><time>2026-03-20T09:34:33Z</time></trkpt>
<trkpt lat="43.0241920000" lon="0.2200570000"><ele>1199</ele><time>2026-03-20T09:34:35Z</time></trkpt>
<trkpt lat="43.0241770000" lon="0.2200320000"><ele>1199</ele><time>2026-03-20T09:34:37Z</time></trkpt>
<trkpt lat="43.0241620000" lon="0.2200120000"><ele>1199</ele><time>2026-03-20T09:34:39Z</time></trkpt>
<trkpt lat="43.0241520000" lon="0.2199820000"><ele>1199</ele><time>2026-03-20T09:34:41Z</time></trkpt>
<trkpt lat="43.0241470000" lon="0.2199420000"><ele>1199</ele><time>2026-03-20T09:34:43Z</time></trkpt>
<trkpt lat="43.0241620000" lon="0.2199170000"><ele>1199</ele><time>2026-03-20T09:34:44Z</time></trkpt>
<trkpt lat="43.0241750000" lon="0.2198900000"><ele>1199</ele><time>2026-03-20T09:34:45Z</time></trkpt>
<trkpt lat="43.0241900000" lon="0.2198570000"><ele>1199</ele><time>2026-03-20T09:34:46Z</time></trkpt>
<trkpt lat="43.0242020000" lon="0.2198230000"><ele>1199</ele><time>2026-03-20T09:34:48Z</time></trkpt>
<trkpt lat="43.0242130000" lon="0.2197920000"><ele>1199</ele><time>2026-03-20T09:34:50Z</time></trkpt>
<trkpt lat="43.0242250000" lon="0.2197600000"><ele>1199</ele><time>2026-03-20T09:34:52Z</time></trkpt>
<trkpt lat="43.0242270000" lon="0.2197220000"><ele>1199</ele><time>2026-03-20T09:34:54Z</time></trkpt>
<trkpt lat="43.0242270000" lon="0.2196970000"><ele>1199</ele><time>2026-03-20T09:34:56Z</time></trkpt>
<trkpt lat="43.0242270000" lon="0.2196620000"><ele>1199</ele><time>2026-03-20T09:34:59Z</time></trkpt>
<trkpt lat="43.0242320000" lon="0.2196320000"><ele>1199</ele><time>2026-03-20T09:35:01Z</time></trkpt>
<trkpt lat="43.0242270000" lon="0.2195850000"><ele>1200</ele><time>2026-03-20T09:35:03Z</time></trkpt>
<trkpt lat="43.0242170000" lon="0.2195470000"><ele>1200</ele><time>2026-03-20T09:35:06Z</time></trkpt>
<trkpt lat="43.0242170000" lon="0.2195150000"><ele>1200</ele><time>2026-03-20T09:35:08Z</time></trkpt>
<trkpt lat="43.0242200000" lon="0.2194870000"><ele>1200</ele><time>2026-03-20T09:35:10Z</time></trkpt>
<trkpt lat="43.0242270000" lon="0.2194620000"><ele>1201</ele><time>2026-03-20T09:35:12Z</time></trkpt>
<trkpt lat="43.0242370000" lon="0.2194320000"><ele>1201</ele><time>2026-03-20T09:35:14Z</time></trkpt>
<trkpt lat="43.0242420000" lon="0.2194000000"><ele>1201</ele><time>2026-03-20T09:35:16Z</time></trkpt>
<trkpt lat="43.0242420000" lon="0.2193750000"><ele>1201</ele><time>2026-03-20T09:35:18Z</time></trkpt>
<trkpt lat="43.0242470000" lon="0.2193420000"><ele>1201</ele><time>2026-03-20T09:35:20Z</time></trkpt>
<trkpt lat="43.0242520000" lon="0.2193050000"><ele>1201</ele><time>2026-03-20T09:35:22Z</time></trkpt>
<trkpt lat="43.0242570000" lon="0.2192800000"><ele>1201</ele><time>2026-03-20T09:35:23Z</time></trkpt>
<trkpt lat="43.0242620000" lon="0.2192470000"><ele>1202</ele><time>2026-03-20T09:35:25Z</time></trkpt>
<trkpt lat="43.0242670000" lon="0.2192130000"><ele>1202</ele><time>2026-03-20T09:35:27Z</time></trkpt>
<trkpt lat="43.0242750000" lon="0.2191850000"><ele>1202</ele><time>2026-03-20T09:35:29Z</time></trkpt>
<trkpt lat="43.0242770000" lon="0.2191520000"><ele>1202</ele><time>2026-03-20T09:35:31Z</time></trkpt>
<trkpt lat="43.0242670000" lon="0.2191170000"><ele>1202</ele><time>2026-03-20T09:35:33Z</time></trkpt>
<trkpt lat="43.0242670000" lon="0.2190830000"><ele>1202</ele><time>2026-03-20T09:35:35Z</time></trkpt>
<trkpt lat="43.0242670000" lon="0.2190570000"><ele>1203</ele><time>2026-03-20T09:35:48Z</time></trkpt>
<trkpt lat="43.0242620000" lon="0.2190170000"><ele>1203</ele><time>2026-03-20T09:35:52Z</time></trkpt>
<trkpt lat="43.0242600000" lon="0.2189870000"><ele>1203</ele><time>2026-03-20T09:35:53Z</time></trkpt>
<trkpt lat="43.0242550000" lon="0.2189570000"><ele>1203</ele><time>2026-03-20T09:35:54Z</time></trkpt>
<trkpt lat="43.0242520000" lon="0.2189270000"><ele>1203</ele><time>2026-03-20T09:35:55Z</time></trkpt>
<trkpt lat="43.0242520000" lon="0.2189020000"><ele>1203</ele><time>2026-03-20T09:35:56Z</time></trkpt>
<trkpt lat="43.0242570000" lon="0.2188620000"><ele>1203</ele><time>2026-03-20T09:35:58Z</time></trkpt>
<trkpt lat="43.0242570000" lon="0.2188270000"><ele>1204</ele><time>2026-03-20T09:36:00Z</time></trkpt>
<trkpt lat="43.0242620000" lon="0.2187970000"><ele>1204</ele><time>2026-03-20T09:36:02Z</time></trkpt>
<trkpt lat="43.0242700000" lon="0.2187620000"><ele>1204</ele><time>2026-03-20T09:36:04Z</time></trkpt>
<trkpt lat="43.0242700000" lon="0.2187320000"><ele>1204</ele><time>2026-03-20T09:36:06Z</time></trkpt>
<trkpt lat="43.0242770000" lon="0.2187020000"><ele>1205</ele><time>2026-03-20T09:36:08Z</time></trkpt>
<trkpt lat="43.0242950000" lon="0.2186820000"><ele>1205</ele><time>2026-03-20T09:36:10Z</time></trkpt>
<trkpt lat="43.0243070000" lon="0.2186470000"><ele>1205</ele><time>2026-03-20T09:36:13Z</time></trkpt>
<trkpt lat="43.0243070000" lon="0.2186120000"><ele>1205</ele><time>2026-03-20T09:36:15Z</time></trkpt>
<trkpt lat="43.0242970000" lon="0.2185870000"><ele>1205</ele><time>2026-03-20T09:36:17Z</time></trkpt>
<trkpt lat="43.0242850000" lon="0.2185620000"><ele>1205</ele><time>2026-03-20T09:36:19Z</time></trkpt>
<trkpt lat="43.0242800000" lon="0.2185320000"><ele>1206</ele><time>2026-03-20T09:36:21Z</time></trkpt>
<trkpt lat="43.0242620000" lon="0.2185070000"><ele>1206</ele><time>2026-03-20T09:36:23Z</time></trkpt>
<trkpt lat="43.0242620000" lon="0.2184720000"><ele>1206</ele><time>2026-03-20T09:36:25Z</time></trkpt>
<trkpt lat="43.0242570000" lon="0.2184470000"><ele>1206</ele><time>2026-03-20T09:36:27Z</time></trkpt>
<trkpt lat="43.0242520000" lon="0.2184250000"><ele>1207</ele><time>2026-03-20T09:36:29Z</time></trkpt>
<trkpt lat="43.0242550000" lon="0.2183970000"><ele>1207</ele><time>2026-03-20T09:36:31Z</time></trkpt>
<trkpt lat="43.0242550000" lon="0.2183670000"><ele>1207</ele><time>2026-03-20T09:36:33Z</time></trkpt>
<trkpt lat="43.0242720000" lon="0.2183320000"><ele>1207</ele><time>2026-03-20T09:36:35Z</time></trkpt>
<trkpt lat="43.0242820000" lon="0.2182980000"><ele>1207</ele><time>2026-03-20T09:36:37Z</time></trkpt>
<trkpt lat="43.0242900000" lon="0.2182620000"><ele>1208</ele><time>2026-03-20T09:36:39Z</time></trkpt>
<trkpt lat="43.0242900000" lon="0.2182270000"><ele>1208</ele><time>2026-03-20T09:36:42Z</time></trkpt>
<trkpt lat="43.0243070000" lon="0.2181820000"><ele>1208</ele><time>2026-03-20T09:36:44Z</time></trkpt>
<trkpt lat="43.0243100000" lon="0.2181570000"><ele>1208</ele><time>2026-03-20T09:36:46Z</time></trkpt>
<trkpt lat="43.0243170000" lon="0.2181300000"><ele>1209</ele><time>2026-03-20T09:36:48Z</time></trkpt>
<trkpt lat="43.0243200000" lon="0.2180980000"><ele>1209</ele><time>2026-03-20T09:36:50Z</time></trkpt>
<trkpt lat="43.0243220000" lon="0.2180720000"><ele>1209</ele><time>2026-03-20T09:36:52Z</time></trkpt>
<trkpt lat="43.0243220000" lon="0.2180420000"><ele>1209</ele><time>2026-03-20T09:36:54Z</time></trkpt>
<trkpt lat="43.0243220000" lon="0.2180100000"><ele>1209</ele><time>2026-03-20T09:36:56Z</time></trkpt>
<trkpt lat="43.0243220000" lon="0.2179820000"><ele>1209</ele><time>2026-03-20T09:36:58Z</time></trkpt>
<trkpt lat="43.0243100000" lon="0.2179520000"><ele>1210</ele><time>2026-03-20T09:37:01Z</time></trkpt>
<trkpt lat="43.0243020000" lon="0.2179220000"><ele>1210</ele><time>2026-03-20T09:37:03Z</time></trkpt>
<trkpt lat="43.0242980000" lon="0.2178970000"><ele>1210</ele><time>2026-03-20T09:37:05Z</time></trkpt>
<trkpt lat="43.0242820000" lon="0.2178720000"><ele>1211</ele><time>2026-03-20T09:37:08Z</time></trkpt>
<trkpt lat="43.0242770000" lon="0.2178380000"><ele>1211</ele><time>2026-03-20T09:37:11Z</time></trkpt>
<trkpt lat="43.0242720000" lon="0.2178120000"><ele>1211</ele><time>2026-03-20T09:37:13Z</time></trkpt>
<trkpt lat="43.0242650000" lon="0.2177800000"><ele>1211</ele><time>2026-03-20T09:37:15Z</time></trkpt>
<trkpt lat="43.0242570000" lon="0.2177520000"><ele>1211</ele><time>2026-03-20T09:37:17Z</time></trkpt>
<trkpt lat="43.0242570000" lon="0.2177200000"><ele>1212</ele><time>2026-03-20T09:37:19Z</time></trkpt>
<trkpt lat="43.0242570000" lon="0.2176870000"><ele>1212</ele><time>2026-03-20T09:37:21Z</time></trkpt>
<trkpt lat="43.0242570000" lon="0.2176580000"><ele>1212</ele><time>2026-03-20T09:37:23Z</time></trkpt>
<trkpt lat="43.0242470000" lon="0.2176250000"><ele>1212</ele><time>2026-03-20T09:37:25Z</time></trkpt>
<trkpt lat="43.0242420000" lon="0.2175970000"><ele>1212</ele><time>2026-03-20T09:37:27Z</time></trkpt>
<trkpt lat="43.0242350000" lon="0.2175630000"><ele>1212</ele><time>2026-03-20T09:37:29Z</time></trkpt>
<trkpt lat="43.0242370000" lon="0.2175370000"><ele>1212</ele><time>2026-03-20T09:37:31Z</time></trkpt>
<trkpt lat="43.0242270000" lon="0.2175050000"><ele>1212</ele><time>2026-03-20T09:37:33Z</time></trkpt>
<trkpt lat="43.0242220000" lon="0.2174680000"><ele>1212</ele><time>2026-03-20T09:37:35Z</time></trkpt>
<trkpt lat="43.0242130000" lon="0.2174420000"><ele>1212</ele><time>2026-03-20T09:37:37Z</time></trkpt>
<trkpt lat="43.0242020000" lon="0.2174170000"><ele>1212</ele><time>2026-03-20T09:37:39Z</time></trkpt>
<trkpt lat="43.0241950000" lon="0.2173780000"><ele>1212</ele><time>2026-03-20T09:37:41Z</time></trkpt>
<trkpt lat="43.0241870000" lon="0.2173470000"><ele>1213</ele><time>2026-03-20T09:37:43Z</time></trkpt>
<trkpt lat="43.0241850000" lon="0.2173120000"><ele>1213</ele><time>2026-03-20T09:37:45Z</time></trkpt>
<trkpt lat="43.0241870000" lon="0.2172730000"><ele>1213</ele><time>2026-03-20T09:37:47Z</time></trkpt>
<trkpt lat="43.0241820000" lon="0.2172380000"><ele>1213</ele><time>2026-03-20T09:37:49Z</time></trkpt>
<trkpt lat="43.0241850000" lon="0.2171980000"><ele>1213</ele><time>2026-03-20T09:37:51Z</time></trkpt>
<trkpt lat="43.0241870000" lon="0.2171650000"><ele>1213</ele><time>2026-03-20T09:37:53Z</time></trkpt>
<trkpt lat="43.0241970000" lon="0.2171280000"><ele>1213</ele><time>2026-03-20T09:37:55Z</time></trkpt>
<trkpt lat="43.0242120000" lon="0.2170950000"><ele>1213</ele><time>2026-03-20T09:37:57Z</time></trkpt>
<trkpt lat="43.0242220000" lon="0.2170580000"><ele>1213</ele><time>2026-03-20T09:37:59Z</time></trkpt>
<trkpt lat="43.0242350000" lon="0.2170350000"><ele>1213</ele><time>2026-03-20T09:38:16Z</time></trkpt>
<trkpt lat="43.0242450000" lon="0.2170020000"><ele>1213</ele><time>2026-03-20T09:38:18Z</time></trkpt>
<trkpt lat="43.0242650000" lon="0.2169720000"><ele>1214</ele><time>2026-03-20T09:38:20Z</time></trkpt>
<trkpt lat="43.0242770000" lon="0.2169370000"><ele>1214</ele><time>2026-03-20T09:38:22Z</time></trkpt>
<trkpt lat="43.0242920000" lon="0.2169130000"><ele>1214</ele><time>2026-03-20T09:38:24Z</time></trkpt>
<trkpt lat="43.0242920000" lon="0.2168820000"><ele>1214</ele><time>2026-03-20T09:38:26Z</time></trkpt>
<trkpt lat="43.0242920000" lon="0.2168530000"><ele>1214</ele><time>2026-03-20T09:38:30Z</time></trkpt>
<trkpt lat="43.0242770000" lon="0.2168450000"><ele>1215</ele><time>2026-03-20T09:38:46Z</time></trkpt>
<trkpt lat="43.0242670000" lon="0.2168120000"><ele>1215</ele><time>2026-03-20T09:38:48Z</time></trkpt>
<trkpt lat="43.0242600000" lon="0.2167770000"><ele>1215</ele><time>2026-03-20T09:38:50Z</time></trkpt>
<trkpt lat="43.0242570000" lon="0.2167330000"><ele>1215</ele><time>2026-03-20T09:38:52Z</time></trkpt>
<trkpt lat="43.0242520000" lon="0.2167020000"><ele>1215</ele><time>2026-03-20T09:38:54Z</time></trkpt>
<trkpt lat="43.0242470000" lon="0.2166700000"><ele>1215</ele><time>2026-03-20T09:38:57Z</time></trkpt>
<trkpt lat="43.0242320000" lon="0.2166430000"><ele>1215</ele><time>2026-03-20T09:38:59Z</time></trkpt>
<trkpt lat="43.0242220000" lon="0.2166200000"><ele>1215</ele><time>2026-03-20T09:39:02Z</time></trkpt>
<trkpt lat="43.0242200000" lon="0.2165920000"><ele>1214</ele><time>2026-03-20T09:39:21Z</time></trkpt>
<trkpt lat="43.0242170000" lon="0.2165520000"><ele>1214</ele><time>2026-03-20T09:39:23Z</time></trkpt>
<trkpt lat="43.0242050000" lon="0.2165120000"><ele>1214</ele><time>2026-03-20T09:39:25Z</time></trkpt>
<trkpt lat="43.0241900000" lon="0.2164850000"><ele>1214</ele><time>2026-03-20T09:39:27Z</time></trkpt>
<trkpt lat="43.0241770000" lon="0.2164620000"><ele>1214</ele><time>2026-03-20T09:39:30Z</time></trkpt>
<trkpt lat="43.0241570000" lon="0.2164750000"><ele>1214</ele><time>2026-03-20T09:39:36Z</time></trkpt>
<trkpt lat="43.0241470000" lon="0.2164320000"><ele>1214</ele><time>2026-03-20T09:39:54Z</time></trkpt>
<trkpt lat="43.0241420000" lon="0.2164030000"><ele>1214</ele><time>2026-03-20T09:39:55Z</time></trkpt>
<trkpt lat="43.0241350000" lon="0.2163820000"><ele>1214</ele><time>2026-03-20T09:39:56Z</time></trkpt>
<trkpt lat="43.0241120000" lon="0.2163480000"><ele>1214</ele><time>2026-03-20T09:39:58Z</time></trkpt>
<trkpt lat="43.0240970000" lon="0.2163300000"><ele>1214</ele><time>2026-03-20T09:40:00Z</time></trkpt>
<trkpt lat="43.0240820000" lon="0.2163120000"><ele>1214</ele><time>2026-03-20T09:40:02Z</time></trkpt>
<trkpt lat="43.0240670000" lon="0.2162900000"><ele>1214</ele><time>2026-03-20T09:40:04Z</time></trkpt>
<trkpt lat="43.0240520000" lon="0.2162720000"><ele>1215</ele><time>2026-03-20T09:40:07Z</time></trkpt>
<trkpt lat="43.0240420000" lon="0.2162520000"><ele>1215</ele><time>2026-03-20T09:40:10Z</time></trkpt>
<trkpt lat="43.0240270000" lon="0.2162280000"><ele>1216</ele><time>2026-03-20T09:40:13Z</time></trkpt>
<trkpt lat="43.0240100000" lon="0.2162020000"><ele>1216</ele><time>2026-03-20T09:40:15Z</time></trkpt>
<trkpt lat="43.0239970000" lon="0.2161820000"><ele>1216</ele><time>2026-03-20T09:40:17Z</time></trkpt>
<trkpt lat="43.0239850000" lon="0.2161670000"><ele>1217</ele><time>2026-03-20T09:40:19Z</time></trkpt>
<trkpt lat="43.0239670000" lon="0.2161420000"><ele>1217</ele><time>2026-03-20T09:40:22Z</time></trkpt>
<trkpt lat="43.0239620000" lon="0.2161120000"><ele>1217</ele><time>2026-03-20T09:40:25Z</time></trkpt>
<trkpt lat="43.0239600000" lon="0.2160870000"><ele>1218</ele><time>2026-03-20T09:40:27Z</time></trkpt>
<trkpt lat="43.0239570000" lon="0.2160600000"><ele>1218</ele><time>2026-03-20T09:40:30Z</time></trkpt>
<trkpt lat="43.0239470000" lon="0.2160270000"><ele>1219</ele><time>2026-03-20T09:40:33Z</time></trkpt>
<trkpt lat="43.0239420000" lon="0.2160000000"><ele>1219</ele><time>2026-03-20T09:40:36Z</time></trkpt>
<trkpt lat="43.0239420000" lon="0.2159750000"><ele>1220</ele><time>2026-03-20T09:40:39Z</time></trkpt>
<trkpt lat="43.0239400000" lon="0.2159380000"><ele>1220</ele><time>2026-03-20T09:40:42Z</time></trkpt>
<trkpt lat="43.0239320000" lon="0.2159120000"><ele>1220</ele><time>2026-03-20T09:40:44Z</time></trkpt>
<trkpt lat="43.0239220000" lon="0.2158770000"><ele>1220</ele><time>2026-03-20T09:40:46Z</time></trkpt>
<trkpt lat="43.0239180000" lon="0.2158420000"><ele>1221</ele><time>2026-03-20T09:40:49Z</time></trkpt>
<trkpt lat="43.0239170000" lon="0.2158070000"><ele>1221</ele><time>2026-03-20T09:40:52Z</time></trkpt>
<trkpt lat="43.0239100000" lon="0.2157820000"><ele>1221</ele><time>2026-03-20T09:40:54Z</time></trkpt>
<trkpt lat="43.0239020000" lon="0.2157470000"><ele>1221</ele><time>2026-03-20T09:40:57Z</time></trkpt>
<trkpt lat="43.0239020000" lon="0.2157220000"><ele>1222</ele><time>2026-03-20T09:40:59Z</time></trkpt>
<trkpt lat="43.0239050000" lon="0.2156970000"><ele>1222</ele><time>2026-03-20T09:41:01Z</time></trkpt>
<trkpt lat="43.0238970000" lon="0.2156680000"><ele>1222</ele><time>2026-03-20T09:41:03Z</time></trkpt>
<trkpt lat="43.0238970000" lon="0.2156320000"><ele>1222</ele><time>2026-03-20T09:41:06Z</time></trkpt>
<trkpt lat="43.0238900000" lon="0.2155920000"><ele>1222</ele><time>2026-03-20T09:41:09Z</time></trkpt>
<trkpt lat="43.0238820000" lon="0.2155620000"><ele>1222</ele><time>2026-03-20T09:41:12Z</time></trkpt>
<trkpt lat="43.0238770000" lon="0.2155370000"><ele>1222</ele><time>2026-03-20T09:41:15Z</time></trkpt>
<trkpt lat="43.0238820000" lon="0.2155070000"><ele>1222</ele><time>2026-03-20T09:41:27Z</time></trkpt>
<trkpt lat="43.0238770000" lon="0.2154600000"><ele>1223</ele><time>2026-03-20T09:41:29Z</time></trkpt>
<trkpt lat="43.0238720000" lon="0.2154370000"><ele>1223</ele><time>2026-03-20T09:41:30Z</time></trkpt>
<trkpt lat="43.0238620000" lon="0.2154150000"><ele>1223</ele><time>2026-03-20T09:41:31Z</time></trkpt>
<trkpt lat="43.0238550000" lon="0.2153870000"><ele>1223</ele><time>2026-03-20T09:41:33Z</time></trkpt>
<trkpt lat="43.0238500000" lon="0.2153520000"><ele>1223</ele><time>2026-03-20T09:41:36Z</time></trkpt>
<trkpt lat="43.0238420000" lon="0.2153150000"><ele>1224</ele><time>2026-03-20T09:41:39Z</time></trkpt>
<trkpt lat="43.0238400000" lon="0.2152820000"><ele>1224</ele><time>2026-03-20T09:41:41Z</time></trkpt>
<trkpt lat="43.0238320000" lon="0.2152530000"><ele>1224</ele><time>2026-03-20T09:41:43Z</time></trkpt>
<trkpt lat="43.0238250000" lon="0.2152300000"><ele>1224</ele><time>2026-03-20T09:41:45Z</time></trkpt>
<trkpt lat="43.0238050000" lon="0.2152020000"><ele>1224</ele><time>2026-03-20T09:41:48Z</time></trkpt>
<trkpt lat="43.0237950000" lon="0.2151770000"><ele>1224</ele><time>2026-03-20T09:41:50Z</time></trkpt>
<trkpt lat="43.0237770000" lon="0.2151520000"><ele>1224</ele><time>2026-03-20T09:41:53Z</time></trkpt>
<trkpt lat="43.0237670000" lon="0.2151270000"><ele>1224</ele><time>2026-03-20T09:41:55Z</time></trkpt>
<trkpt lat="43.0237620000" lon="0.2150970000"><ele>1224</ele><time>2026-03-20T09:41:57Z</time></trkpt>
<trkpt lat="43.0237600000" lon="0.2150670000"><ele>1224</ele><time>2026-03-20T09:41:59Z</time></trkpt>
<trkpt lat="43.0237550000" lon="0.2150370000"><ele>1225</ele><time>2026-03-20T09:42:01Z</time></trkpt>
<trkpt lat="43.0237470000" lon="0.2150120000"><ele>1225</ele><time>2026-03-20T09:42:03Z</time></trkpt>
<trkpt lat="43.0237370000" lon="0.2149820000"><ele>1225</ele><time>2026-03-20T09:42:05Z</time></trkpt>
<trkpt lat="43.0237270000" lon="0.2149570000"><ele>1225</ele><time>2026-03-20T09:42:07Z</time></trkpt>
<trkpt lat="43.0237150000" lon="0.2149330000"><ele>1225</ele><time>2026-03-20T09:42:09Z</time></trkpt>
<trkpt lat="43.0237050000" lon="0.2149070000"><ele>1225</ele><time>2026-03-20T09:42:11Z</time></trkpt>
<trkpt lat="43.0236930000" lon="0.2148780000"><ele>1225</ele><time>2026-03-20T09:42:13Z</time></trkpt>
<trkpt lat="43.0236850000" lon="0.2148500000"><ele>1225</ele><time>2026-03-20T09:42:15Z</time></trkpt>
<trkpt lat="43.0236720000" lon="0.2148230000"><ele>1225</ele><time>2026-03-20T09:42:17Z</time></trkpt>
<trkpt lat="43.0236570000" lon="0.2147930000"><ele>1225</ele><time>2026-03-20T09:42:19Z</time></trkpt>
<trkpt lat="43.0236500000" lon="0.2147620000"><ele>1225</ele><time>2026-03-20T09:42:21Z</time></trkpt>
<trkpt lat="43.0236370000" lon="0.2147350000"><ele>1225</ele><time>2026-03-20T09:42:23Z</time></trkpt>
<trkpt lat="43.0236150000" lon="0.2147100000"><ele>1225</ele><time>2026-03-20T09:42:25Z</time></trkpt>
<trkpt lat="43.0236020000" lon="0.2146830000"><ele>1225</ele><time>2026-03-20T09:42:27Z</time></trkpt>
<trkpt lat="43.0235900000" lon="0.2146650000"><ele>1225</ele><time>2026-03-20T09:42:29Z</time></trkpt>
<trkpt lat="43.0235800000" lon="0.2146420000"><ele>1226</ele><time>2026-03-20T09:42:31Z</time></trkpt>
<trkpt lat="43.0235670000" lon="0.2146220000"><ele>1226</ele><time>2026-03-20T09:42:33Z</time></trkpt>
<trkpt lat="43.0235500000" lon="0.2145950000"><ele>1226</ele><time>2026-03-20T09:42:36Z</time></trkpt>
<trkpt lat="43.0235320000" lon="0.2145800000"><ele>1226</ele><time>2026-03-20T09:42:38Z</time></trkpt>
<trkpt lat="43.0235150000" lon="0.2145670000"><ele>1226</ele><time>2026-03-20T09:42:40Z</time></trkpt>
<trkpt lat="43.0234950000" lon="0.2145520000"><ele>1227</ele><time>2026-03-20T09:42:42Z</time></trkpt>
<trkpt lat="43.0234750000" lon="0.2145370000"><ele>1227</ele><time>2026-03-20T09:42:44Z</time></trkpt>
<trkpt lat="43.0234520000" lon="0.2145370000"><ele>1227</ele><time>2026-03-20T09:42:46Z</time></trkpt>
<trkpt lat="43.0234270000" lon="0.2145420000"><ele>1227</ele><time>2026-03-20T09:42:48Z</time></trkpt>
<trkpt lat="43.0234070000" lon="0.2145450000"><ele>1227</ele><time>2026-03-20T09:42:50Z</time></trkpt>
<trkpt lat="43.0233830000" lon="0.2145470000"><ele>1227</ele><time>2026-03-20T09:42:53Z</time></trkpt>
<trkpt lat="43.0233600000" lon="0.2145350000"><ele>1228</ele><time>2026-03-20T09:42:56Z</time></trkpt>
<trkpt lat="43.0233400000" lon="0.2145200000"><ele>1228</ele><time>2026-03-20T09:42:58Z</time></trkpt>
<trkpt lat="43.0233170000" lon="0.2145200000"><ele>1228</ele><time>2026-03-20T09:43:00Z</time></trkpt>
<trkpt lat="43.0232950000" lon="0.2145200000"><ele>1228</ele><time>2026-03-20T09:43:02Z</time></trkpt>
<trkpt lat="43.0232720000" lon="0.2145080000"><ele>1229</ele><time>2026-03-20T09:43:05Z</time></trkpt>
<trkpt lat="43.0232500000" lon="0.2145030000"><ele>1229</ele><time>2026-03-20T09:43:08Z</time></trkpt>
<trkpt lat="43.0232320000" lon="0.2144980000"><ele>1230</ele><time>2026-03-20T09:43:10Z</time></trkpt>
<trkpt lat="43.0232120000" lon="0.2144920000"><ele>1230</ele><time>2026-03-20T09:43:13Z</time></trkpt>
<trkpt lat="43.0231920000" lon="0.2144800000"><ele>1230</ele><time>2026-03-20T09:43:15Z</time></trkpt>
<trkpt lat="43.0231720000" lon="0.2144620000"><ele>1230</ele><time>2026-03-20T09:43:17Z</time></trkpt>
<trkpt lat="43.0231520000" lon="0.2144420000"><ele>1231</ele><time>2026-03-20T09:43:19Z</time></trkpt>
<trkpt lat="43.0231320000" lon="0.2144220000"><ele>1231</ele><time>2026-03-20T09:43:21Z</time></trkpt>
<trkpt lat="43.0231150000" lon="0.2143920000"><ele>1231</ele><time>2026-03-20T09:43:23Z</time></trkpt>
<trkpt lat="43.0230920000" lon="0.2143820000"><ele>1231</ele><time>2026-03-20T09:43:25Z</time></trkpt>
<trkpt lat="43.0230750000" lon="0.2143730000"><ele>1231</ele><time>2026-03-20T09:43:27Z</time></trkpt>
<trkpt lat="43.0230550000" lon="0.2143680000"><ele>1231</ele><time>2026-03-20T09:43:29Z</time></trkpt>
<trkpt lat="43.0230270000" lon="0.2143620000"><ele>1231</ele><time>2026-03-20T09:43:31Z</time></trkpt>
<trkpt lat="43.0230030000" lon="0.2143530000"><ele>1230</ele><time>2026-03-20T09:43:34Z</time></trkpt>
<trkpt lat="43.0229820000" lon="0.2143320000"><ele>1230</ele><time>2026-03-20T09:43:36Z</time></trkpt>
<trkpt lat="43.0229620000" lon="0.2143120000"><ele>1230</ele><time>2026-03-20T09:43:38Z</time></trkpt>
<trkpt lat="43.0229470000" lon="0.2143020000"><ele>1230</ele><time>2026-03-20T09:43:40Z</time></trkpt>
<trkpt lat="43.0229220000" lon="0.2142920000"><ele>1230</ele><time>2026-03-20T09:43:43Z</time></trkpt>
<trkpt lat="43.0228970000" lon="0.2142870000"><ele>1230</ele><time>2026-03-20T09:43:45Z</time></trkpt>
<trkpt lat="43.0228800000" lon="0.2142720000"><ele>1231</ele><time>2026-03-20T09:43:47Z</time></trkpt>
<trkpt lat="43.0228570000" lon="0.2142620000"><ele>1231</ele><time>2026-03-20T09:43:49Z</time></trkpt>
<trkpt lat="43.0228320000" lon="0.2142670000"><ele>1230</ele><time>2026-03-20T09:43:51Z</time></trkpt>
<trkpt lat="43.0228100000" lon="0.2142620000"><ele>1230</ele><time>2026-03-20T09:43:53Z</time></trkpt>
<trkpt lat="43.0227870000" lon="0.2142570000"><ele>1231</ele><time>2026-03-20T09:43:56Z</time></trkpt>
<trkpt lat="43.0227870000" lon="0.2142920000"><ele>1231</ele><time>2026-03-20T09:44:03Z</time></trkpt>
<trkpt lat="43.0227670000" lon="0.2142720000"><ele>1231</ele><time>2026-03-20T09:44:24Z</time></trkpt>
<trkpt lat="43.0227420000" lon="0.2142650000"><ele>1231</ele><time>2026-03-20T09:44:26Z</time></trkpt>
<trkpt lat="43.0227150000" lon="0.2142670000"><ele>1231</ele><time>2026-03-20T09:44:28Z</time></trkpt>
<trkpt lat="43.0226870000" lon="0.2142650000"><ele>1231</ele><time>2026-03-20T09:44:30Z</time></trkpt>
<trkpt lat="43.0226670000" lon="0.2142650000"><ele>1232</ele><time>2026-03-20T09:44:32Z</time></trkpt>
<trkpt lat="43.0226470000" lon="0.2142720000"><ele>1232</ele><time>2026-03-20T09:44:34Z</time></trkpt>
<trkpt lat="43.0226220000" lon="0.2142720000"><ele>1232</ele><time>2026-03-20T09:44:36Z</time></trkpt>
<trkpt lat="43.0226000000" lon="0.2142770000"><ele>1232</ele><time>2026-03-20T09:44:38Z</time></trkpt>
<trkpt lat="43.0225770000" lon="0.2142720000"><ele>1233</ele><time>2026-03-20T09:44:42Z</time></trkpt>
<trkpt lat="43.0225530000" lon="0.2142720000"><ele>1233</ele><time>2026-03-20T09:44:44Z</time></trkpt>
<trkpt lat="43.0225350000" lon="0.2142770000"><ele>1233</ele><time>2026-03-20T09:44:46Z</time></trkpt>
<trkpt lat="43.0225100000" lon="0.2142780000"><ele>1234</ele><time>2026-03-20T09:44:48Z</time></trkpt>
<trkpt lat="43.0224920000" lon="0.2142620000"><ele>1234</ele><time>2026-03-20T09:44:51Z</time></trkpt>
<trkpt lat="43.0224720000" lon="0.2142620000"><ele>1235</ele><time>2026-03-20T09:44:53Z</time></trkpt>
<trkpt lat="43.0224500000" lon="0.2142500000"><ele>1235</ele><time>2026-03-20T09:44:55Z</time></trkpt>
<trkpt lat="43.0224320000" lon="0.2142420000"><ele>1235</ele><time>2026-03-20T09:44:58Z</time></trkpt>
<trkpt lat="43.0224050000" lon="0.2142370000"><ele>1236</ele><time>2026-03-20T09:45:01Z</time></trkpt>
<trkpt lat="43.0223820000" lon="0.2142180000"><ele>1236</ele><time>2026-03-20T09:45:04Z</time></trkpt>
<trkpt lat="43.0223620000" lon="0.2142020000"><ele>1237</ele><time>2026-03-20T09:45:07Z</time></trkpt>
<trkpt lat="43.0223370000" lon="0.2141880000"><ele>1237</ele><time>2026-03-20T09:45:09Z</time></trkpt>
<trkpt lat="43.0223170000" lon="0.2141970000"><ele>1237</ele><time>2026-03-20T09:45:11Z</time></trkpt>
<trkpt lat="43.0222970000" lon="0.2142120000"><ele>1237</ele><time>2026-03-20T09:45:13Z</time></trkpt>
<trkpt lat="43.0222770000" lon="0.2142220000"><ele>1237</ele><time>2026-03-20T09:45:15Z</time></trkpt>
<trkpt lat="43.0222600000" lon="0.2142330000"><ele>1238</ele><time>2026-03-20T09:45:19Z</time></trkpt>
<trkpt lat="43.0222400000" lon="0.2142320000"><ele>1238</ele><time>2026-03-20T09:45:22Z</time></trkpt>
<trkpt lat="43.0222200000" lon="0.2142320000"><ele>1238</ele><time>2026-03-20T09:45:24Z</time></trkpt>
<trkpt lat="43.0222020000" lon="0.2142320000"><ele>1238</ele><time>2026-03-20T09:45:26Z</time></trkpt>
<trkpt lat="43.0221770000" lon="0.2142420000"><ele>1238</ele><time>2026-03-20T09:45:29Z</time></trkpt>
<trkpt lat="43.0221570000" lon="0.2142450000"><ele>1239</ele><time>2026-03-20T09:45:32Z</time></trkpt>
<trkpt lat="43.0221320000" lon="0.2142570000"><ele>1239</ele><time>2026-03-20T09:45:36Z</time></trkpt>
<trkpt lat="43.0221100000" lon="0.2142600000"><ele>1240</ele><time>2026-03-20T09:45:39Z</time></trkpt>
<trkpt lat="43.0220920000" lon="0.2142470000"><ele>1240</ele><time>2026-03-20T09:45:42Z</time></trkpt>
<trkpt lat="43.0220720000" lon="0.2142420000"><ele>1241</ele><time>2026-03-20T09:45:45Z</time></trkpt>
<trkpt lat="43.0220470000" lon="0.2142330000"><ele>1241</ele><time>2026-03-20T09:45:47Z</time></trkpt>
<trkpt lat="43.0220270000" lon="0.2142170000"><ele>1241</ele><time>2026-03-20T09:45:50Z</time></trkpt>
<trkpt lat="43.0220020000" lon="0.2142170000"><ele>1241</ele><time>2026-03-20T09:45:53Z</time></trkpt>
<trkpt lat="43.0219820000" lon="0.2142220000"><ele>1242</ele><time>2026-03-20T09:45:55Z</time></trkpt>
<trkpt lat="43.0219620000" lon="0.2142270000"><ele>1242</ele><time>2026-03-20T09:45:57Z</time></trkpt>
<trkpt lat="43.0219420000" lon="0.2142270000"><ele>1242</ele><time>2026-03-20T09:45:59Z</time></trkpt>
<trkpt lat="43.0219250000" lon="0.2142330000"><ele>1242</ele><time>2026-03-20T09:46:01Z</time></trkpt>
<trkpt lat="43.0219070000" lon="0.2142470000"><ele>1242</ele><time>2026-03-20T09:46:03Z</time></trkpt>
<trkpt lat="43.0218820000" lon="0.2142420000"><ele>1243</ele><time>2026-03-20T09:46:07Z</time></trkpt>
<trkpt lat="43.0218620000" lon="0.2142500000"><ele>1243</ele><time>2026-03-20T09:46:10Z</time></trkpt>
<trkpt lat="43.0218470000" lon="0.2142600000"><ele>1244</ele><time>2026-03-20T09:46:13Z</time></trkpt>
<trkpt lat="43.0218270000" lon="0.2142620000"><ele>1244</ele><time>2026-03-20T09:46:16Z</time></trkpt>
<trkpt lat="43.0218070000" lon="0.2142670000"><ele>1244</ele><time>2026-03-20T09:46:19Z</time></trkpt>
<trkpt lat="43.0217850000" lon="0.2142720000"><ele>1245</ele><time>2026-03-20T09:46:22Z</time></trkpt>
<trkpt lat="43.0217700000" lon="0.2142900000"><ele>1245</ele><time>2026-03-20T09:46:24Z</time></trkpt>
<trkpt lat="43.0217500000" lon="0.2143070000"><ele>1245</ele><time>2026-03-20T09:46:27Z</time></trkpt>
<trkpt lat="43.0217300000" lon="0.2143150000"><ele>1245</ele><time>2026-03-20T09:46:30Z</time></trkpt>
<trkpt lat="43.0217070000" lon="0.2143230000"><ele>1245</ele><time>2026-03-20T09:46:33Z</time></trkpt>
<trkpt lat="43.0216850000" lon="0.2143400000"><ele>1246</ele><time>2026-03-20T09:46:36Z</time></trkpt>
<trkpt lat="43.0216620000" lon="0.2143220000"><ele>1246</ele><time>2026-03-20T09:46:39Z</time></trkpt>
<trkpt lat="43.0216420000" lon="0.2143120000"><ele>1247</ele><time>2026-03-20T09:46:42Z</time></trkpt>
<trkpt lat="43.0216150000" lon="0.2143070000"><ele>1247</ele><time>2026-03-20T09:46:46Z</time></trkpt>
<trkpt lat="43.0215900000" lon="0.2143070000"><ele>1247</ele><time>2026-03-20T09:46:49Z</time></trkpt>
<trkpt lat="43.0215680000" lon="0.2143170000"><ele>1248</ele><time>2026-03-20T09:46:51Z</time></trkpt>
<trkpt lat="43.0215450000" lon="0.2143350000"><ele>1248</ele><time>2026-03-20T09:46:54Z</time></trkpt>
<trkpt lat="43.0215200000" lon="0.2143450000"><ele>1248</ele><time>2026-03-20T09:46:58Z</time></trkpt>
<trkpt lat="43.0214970000" lon="0.2143420000"><ele>1248</ele><time>2026-03-20T09:47:00Z</time></trkpt>
<trkpt lat="43.0214720000" lon="0.2143370000"><ele>1249</ele><time>2026-03-20T09:47:03Z</time></trkpt>
<trkpt lat="43.0214520000" lon="0.2143420000"><ele>1249</ele><time>2026-03-20T09:47:05Z</time></trkpt>
<trkpt lat="43.0214320000" lon="0.2143420000"><ele>1249</ele><time>2026-03-20T09:47:07Z</time></trkpt>
<trkpt lat="43.0214120000" lon="0.2143320000"><ele>1250</ele><time>2026-03-20T09:47:09Z</time></trkpt>
<trkpt lat="43.0213920000" lon="0.2143420000"><ele>1250</ele><time>2026-03-20T09:47:11Z</time></trkpt>
<trkpt lat="43.0213720000" lon="0.2143470000"><ele>1250</ele><time>2026-03-20T09:47:13Z</time></trkpt>
<trkpt lat="43.0213550000" lon="0.2143530000"><ele>1250</ele><time>2026-03-20T09:47:15Z</time></trkpt>
<trkpt lat="43.0213350000" lon="0.2143670000"><ele>1250</ele><time>2026-03-20T09:47:17Z</time></trkpt>
<trkpt lat="43.0213170000" lon="0.2143770000"><ele>1250</ele><time>2026-03-20T09:47:19Z</time></trkpt>
<trkpt lat="43.0212970000" lon="0.2143950000"><ele>1250</ele><time>2026-03-20T09:47:22Z</time></trkpt>
<trkpt lat="43.0212770000" lon="0.2144050000"><ele>1250</ele><time>2026-03-20T09:47:24Z</time></trkpt>
<trkpt lat="43.0212500000" lon="0.2144120000"><ele>1250</ele><time>2026-03-20T09:47:27Z</time></trkpt>
<trkpt lat="43.0212220000" lon="0.2144170000"><ele>1250</ele><time>2026-03-20T09:47:29Z</time></trkpt>
<trkpt lat="43.0211970000" lon="0.2144180000"><ele>1251</ele><time>2026-03-20T09:47:31Z</time></trkpt>
<trkpt lat="43.0211720000" lon="0.2144270000"><ele>1251</ele><time>2026-03-20T09:47:33Z</time></trkpt>
<trkpt lat="43.0211470000" lon="0.2144220000"><ele>1251</ele><time>2026-03-20T09:47:35Z</time></trkpt>
<trkpt lat="43.0211270000" lon="0.2144170000"><ele>1251</ele><time>2026-03-20T09:47:37Z</time></trkpt>
<trkpt lat="43.0211100000" lon="0.2144270000"><ele>1251</ele><time>2026-03-20T09:47:40Z</time></trkpt>
<trkpt lat="43.0210920000" lon="0.2144420000"><ele>1252</ele><time>2026-03-20T09:47:43Z</time></trkpt>
<trkpt lat="43.0210670000" lon="0.2144520000"><ele>1252</ele><time>2026-03-20T09:47:47Z</time></trkpt>
<trkpt lat="43.0210420000" lon="0.2144570000"><ele>1253</ele><time>2026-03-20T09:47:51Z</time></trkpt>
<trkpt lat="43.0210170000" lon="0.2144470000"><ele>1253</ele><time>2026-03-20T09:47:54Z</time></trkpt>
<trkpt lat="43.0209970000" lon="0.2144350000"><ele>1253</ele><time>2026-03-20T09:47:57Z</time></trkpt>
<trkpt lat="43.0209700000" lon="0.2144270000"><ele>1254</ele><time>2026-03-20T09:48:00Z</time></trkpt>
<trkpt lat="43.0209450000" lon="0.2144120000"><ele>1254</ele><time>2026-03-20T09:48:03Z</time></trkpt>
<trkpt lat="43.0209220000" lon="0.2144120000"><ele>1254</ele><time>2026-03-20T09:48:05Z</time></trkpt>
<trkpt lat="43.0209020000" lon="0.2144130000"><ele>1255</ele><time>2026-03-20T09:48:08Z</time></trkpt>
<trkpt lat="43.0208820000" lon="0.2144070000"><ele>1255</ele><time>2026-03-20T09:48:10Z</time></trkpt>
<trkpt lat="43.0208620000" lon="0.2144070000"><ele>1255</ele><time>2026-03-20T09:48:12Z</time></trkpt>
<trkpt lat="43.0208420000" lon="0.2144020000"><ele>1255</ele><time>2026-03-20T09:48:15Z</time></trkpt>
<trkpt lat="43.0208220000" lon="0.2144020000"><ele>1256</ele><time>2026-03-20T09:48:17Z</time></trkpt>
<trkpt lat="43.0208050000" lon="0.2144000000"><ele>1256</ele><time>2026-03-20T09:48:19Z</time></trkpt>
<trkpt lat="43.0207850000" lon="0.2144050000"><ele>1256</ele><time>2026-03-20T09:48:22Z</time></trkpt>
<trkpt lat="43.0207970000" lon="0.2143850000"><ele>1257</ele><time>2026-03-20T09:48:25Z</time></trkpt>
<trkpt lat="43.0208150000" lon="0.2143630000"><ele>1257</ele><time>2026-03-20T09:48:28Z</time></trkpt>
<trkpt lat="43.0207970000" lon="0.2143630000"><ele>1257</ele><time>2026-03-20T09:49:04Z</time></trkpt>
<trkpt lat="43.0207700000" lon="0.2143730000"><ele>1257</ele><time>2026-03-20T09:49:08Z</time></trkpt>
<trkpt lat="43.0207470000" lon="0.2143720000"><ele>1258</ele><time>2026-03-20T09:49:11Z</time></trkpt>
<trkpt lat="43.0207220000" lon="0.2143630000"><ele>1258</ele><time>2026-03-20T09:49:14Z</time></trkpt>
<trkpt lat="43.0207020000" lon="0.2143530000"><ele>1259</ele><time>2026-03-20T09:49:17Z</time></trkpt>
<trkpt lat="43.0206770000" lon="0.2143470000"><ele>1259</ele><time>2026-03-20T09:49:20Z</time></trkpt>
<trkpt lat="43.0206520000" lon="0.2143370000"><ele>1260</ele><time>2026-03-20T09:49:23Z</time></trkpt>
<trkpt lat="43.0206300000" lon="0.2143320000"><ele>1260</ele><time>2026-03-20T09:49:26Z</time></trkpt>
<trkpt lat="43.0206070000" lon="0.2143320000"><ele>1260</ele><time>2026-03-20T09:49:29Z</time></trkpt>
<trkpt lat="43.0205820000" lon="0.2143280000"><ele>1260</ele><time>2026-03-20T09:49:31Z</time></trkpt>
<trkpt lat="43.0205650000" lon="0.2143320000"><ele>1261</ele><time>2026-03-20T09:49:35Z</time></trkpt>
<trkpt lat="43.0205470000" lon="0.2143370000"><ele>1262</ele><time>2026-03-20T09:49:40Z</time></trkpt>
<trkpt lat="43.0205270000" lon="0.2143270000"><ele>1262</ele><time>2026-03-20T09:49:43Z</time></trkpt>
<trkpt lat="43.0205020000" lon="0.2143220000"><ele>1263</ele><time>2026-03-20T09:49:46Z</time></trkpt>
<trkpt lat="43.0204850000" lon="0.2143220000"><ele>1263</ele><time>2026-03-20T09:49:48Z</time></trkpt>
<trkpt lat="43.0204620000" lon="0.2143220000"><ele>1263</ele><time>2026-03-20T09:49:50Z</time></trkpt>
<trkpt lat="43.0204420000" lon="0.2143230000"><ele>1264</ele><time>2026-03-20T09:49:52Z</time></trkpt>
<trkpt lat="43.0204200000" lon="0.2143200000"><ele>1264</ele><time>2026-03-20T09:49:54Z</time></trkpt>
<trkpt lat="43.0203950000" lon="0.2143120000"><ele>1264</ele><time>2026-03-20T09:49:57Z</time></trkpt>
<trkpt lat="43.0203700000" lon="0.2143120000"><ele>1265</ele><time>2026-03-20T09:50:00Z</time></trkpt>
<trkpt lat="43.0203470000" lon="0.2143170000"><ele>1265</ele><time>2026-03-20T09:50:03Z</time></trkpt>
<trkpt lat="43.0203270000" lon="0.2143170000"><ele>1265</ele><time>2026-03-20T09:50:05Z</time></trkpt>
<trkpt lat="43.0203070000" lon="0.2143150000"><ele>1265</ele><time>2026-03-20T09:50:07Z</time></trkpt>
<trkpt lat="43.0202900000" lon="0.2143320000"><ele>1266</ele><time>2026-03-20T09:50:11Z</time></trkpt>
<trkpt lat="43.0202670000" lon="0.2143370000"><ele>1266</ele><time>2026-03-20T09:50:14Z</time></trkpt>
<trkpt lat="43.0202420000" lon="0.2143450000"><ele>1266</ele><time>2026-03-20T09:50:17Z</time></trkpt>
<trkpt lat="43.0202200000" lon="0.2143470000"><ele>1267</ele><time>2026-03-20T09:50:19Z</time></trkpt>
<trkpt lat="43.0202000000" lon="0.2143520000"><ele>1267</ele><time>2026-03-20T09:50:21Z</time></trkpt>
<trkpt lat="43.0201800000" lon="0.2143670000"><ele>1267</ele><time>2026-03-20T09:50:23Z</time></trkpt>
<trkpt lat="43.0201620000" lon="0.2143850000"><ele>1267</ele><time>2026-03-20T09:50:25Z</time></trkpt>
<trkpt lat="43.0201400000" lon="0.2144000000"><ele>1267</ele><time>2026-03-20T09:50:28Z</time></trkpt>
<trkpt lat="43.0201170000" lon="0.2144020000"><ele>1268</ele><time>2026-03-20T09:50:31Z</time></trkpt>
<trkpt lat="43.0200970000" lon="0.2144120000"><ele>1268</ele><time>2026-03-20T09:50:34Z</time></trkpt>
<trkpt lat="43.0200770000" lon="0.2144120000"><ele>1268</ele><time>2026-03-20T09:50:36Z</time></trkpt>
<trkpt lat="43.0200570000" lon="0.2144170000"><ele>1268</ele><time>2026-03-20T09:50:39Z</time></trkpt>
<trkpt lat="43.0200370000" lon="0.2144270000"><ele>1268</ele><time>2026-03-20T09:50:42Z</time></trkpt>
<trkpt lat="43.0200170000" lon="0.2144420000"><ele>1269</ele><time>2026-03-20T09:50:44Z</time></trkpt>
<trkpt lat="43.0200000000" lon="0.2144570000"><ele>1269</ele><time>2026-03-20T09:50:46Z</time></trkpt>
<trkpt lat="43.0199780000" lon="0.2144630000"><ele>1269</ele><time>2026-03-20T09:50:50Z</time></trkpt>
<trkpt lat="43.0199620000" lon="0.2144770000"><ele>1270</ele><time>2026-03-20T09:50:54Z</time></trkpt>
<trkpt lat="43.0199470000" lon="0.2144930000"><ele>1270</ele><time>2026-03-20T09:50:58Z</time></trkpt>
<trkpt lat="43.0199320000" lon="0.2145120000"><ele>1270</ele><time>2026-03-20T09:51:01Z</time></trkpt>
<trkpt lat="43.0199100000" lon="0.2145270000"><ele>1271</ele><time>2026-03-20T09:51:04Z</time></trkpt>
<trkpt lat="43.0198900000" lon="0.2145480000"><ele>1272</ele><time>2026-03-20T09:51:24Z</time></trkpt>
<trkpt lat="43.0198720000" lon="0.2145620000"><ele>1272</ele><time>2026-03-20T09:51:25Z</time></trkpt>
<trkpt lat="43.0198550000" lon="0.2145720000"><ele>1272</ele><time>2026-03-20T09:51:26Z</time></trkpt>
<trkpt lat="43.0198370000" lon="0.2145820000"><ele>1272</ele><time>2026-03-20T09:51:27Z</time></trkpt>
<trkpt lat="43.0198150000" lon="0.2146020000"><ele>1272</ele><time>2026-03-20T09:51:29Z</time></trkpt>
<trkpt lat="43.0197950000" lon="0.2146170000"><ele>1273</ele><time>2026-03-20T09:51:32Z</time></trkpt>
<trkpt lat="43.0197720000" lon="0.2146200000"><ele>1273</ele><time>2026-03-20T09:51:34Z</time></trkpt>
<trkpt lat="43.0197470000" lon="0.2146330000"><ele>1273</ele><time>2026-03-20T09:51:36Z</time></trkpt>
<trkpt lat="43.0197220000" lon="0.2146470000"><ele>1273</ele><time>2026-03-20T09:51:38Z</time></trkpt>
<trkpt lat="43.0197000000" lon="0.2146570000"><ele>1274</ele><time>2026-03-20T09:51:40Z</time></trkpt>
<trkpt lat="43.0196720000" lon="0.2146750000"><ele>1274</ele><time>2026-03-20T09:51:42Z</time></trkpt>
<trkpt lat="43.0196520000" lon="0.2146830000"><ele>1274</ele><time>2026-03-20T09:51:44Z</time></trkpt>
<trkpt lat="43.0196270000" lon="0.2146930000"><ele>1274</ele><time>2026-03-20T09:51:47Z</time></trkpt>
<trkpt lat="43.0196120000" lon="0.2147100000"><ele>1274</ele><time>2026-03-20T09:51:49Z</time></trkpt>
<trkpt lat="43.0195950000" lon="0.2147270000"><ele>1274</ele><time>2026-03-20T09:51:51Z</time></trkpt>
<trkpt lat="43.0195670000" lon="0.2147370000"><ele>1274</ele><time>2026-03-20T09:51:54Z</time></trkpt>
<trkpt lat="43.0195520000" lon="0.2147480000"><ele>1274</ele><time>2026-03-20T09:51:56Z</time></trkpt>
<trkpt lat="43.0195320000" lon="0.2147720000"><ele>1275</ele><time>2026-03-20T09:51:59Z</time></trkpt>
<trkpt lat="43.0195220000" lon="0.2148020000"><ele>1275</ele><time>2026-03-20T09:52:02Z</time></trkpt>
<trkpt lat="43.0195020000" lon="0.2148230000"><ele>1275</ele><time>2026-03-20T09:52:05Z</time></trkpt>
<trkpt lat="43.0194850000" lon="0.2148420000"><ele>1276</ele><time>2026-03-20T09:52:07Z</time></trkpt>
<trkpt lat="43.0194620000" lon="0.2148620000"><ele>1276</ele><time>2026-03-20T09:52:10Z</time></trkpt>
<trkpt lat="43.0194400000" lon="0.2148670000"><ele>1276</ele><time>2026-03-20T09:52:12Z</time></trkpt>
<trkpt lat="43.0194100000" lon="0.2148750000"><ele>1276</ele><time>2026-03-20T09:52:15Z</time></trkpt>
<trkpt lat="43.0193870000" lon="0.2148870000"><ele>1276</ele><time>2026-03-20T09:52:18Z</time></trkpt>
<trkpt lat="43.0193670000" lon="0.2149020000"><ele>1276</ele><time>2026-03-20T09:52:20Z</time></trkpt>
<trkpt lat="43.0193450000" lon="0.2149220000"><ele>1276</ele><time>2026-03-20T09:52:22Z</time></trkpt>
<trkpt lat="43.0193220000" lon="0.2149330000"><ele>1276</ele><time>2026-03-20T09:52:24Z</time></trkpt>
<trkpt lat="43.0193000000" lon="0.2149500000"><ele>1275</ele><time>2026-03-20T09:52:26Z</time></trkpt>
<trkpt lat="43.0192720000" lon="0.2149520000"><ele>1275</ele><time>2026-03-20T09:52:28Z</time></trkpt>
<trkpt lat="43.0192550000" lon="0.2149600000"><ele>1275</ele><time>2026-03-20T09:52:30Z</time></trkpt>
<trkpt lat="43.0192350000" lon="0.2149920000"><ele>1275</ele><time>2026-03-20T09:52:33Z</time></trkpt>
<trkpt lat="43.0192170000" lon="0.2150050000"><ele>1274</ele><time>2026-03-20T09:52:35Z</time></trkpt>
<trkpt lat="43.0192070000" lon="0.2150370000"><ele>1274</ele><time>2026-03-20T09:52:36Z</time></trkpt>
<trkpt lat="43.0191870000" lon="0.2150680000"><ele>1274</ele><time>2026-03-20T09:52:38Z</time></trkpt>
<trkpt lat="43.0191650000" lon="0.2150800000"><ele>1274</ele><time>2026-03-20T09:52:40Z</time></trkpt>
<trkpt lat="43.0191400000" lon="0.2151030000"><ele>1274</ele><time>2026-03-20T09:52:42Z</time></trkpt>
<trkpt lat="43.0191200000" lon="0.2151320000"><ele>1274</ele><time>2026-03-20T09:52:44Z</time></trkpt>
<trkpt lat="43.0191070000" lon="0.2151550000"><ele>1274</ele><time>2026-03-20T09:52:46Z</time></trkpt>
<trkpt lat="43.0190870000" lon="0.2151750000"><ele>1274</ele><time>2026-03-20T09:52:48Z</time></trkpt>
<trkpt lat="43.0190630000" lon="0.2151750000"><ele>1274</ele><time>2026-03-20T09:52:51Z</time></trkpt>
<trkpt lat="43.0190400000" lon="0.2151920000"><ele>1274</ele><time>2026-03-20T09:52:54Z</time></trkpt>
<trkpt lat="43.0190170000" lon="0.2151930000"><ele>1274</ele><time>2026-03-20T09:52:57Z</time></trkpt>
<trkpt lat="43.0189970000" lon="0.2152020000"><ele>1273</ele><time>2026-03-20T09:52:59Z</time></trkpt>
<trkpt lat="43.0189750000" lon="0.2152170000"><ele>1273</ele><time>2026-03-20T09:53:01Z</time></trkpt>
<trkpt lat="43.0189550000" lon="0.2152200000"><ele>1273</ele><time>2026-03-20T09:53:03Z</time></trkpt>
<trkpt lat="43.0189270000" lon="0.2152170000"><ele>1273</ele><time>2026-03-20T09:53:05Z</time></trkpt>
<trkpt lat="43.0189170000" lon="0.2152420000"><ele>1273</ele><time>2026-03-20T09:53:07Z</time></trkpt>
<trkpt lat="43.0189000000" lon="0.2152620000"><ele>1272</ele><time>2026-03-20T09:53:09Z</time></trkpt>
<trkpt lat="43.0188720000" lon="0.2152820000"><ele>1272</ele><time>2026-03-20T09:53:11Z</time></trkpt>
<trkpt lat="43.0188500000" lon="0.2153030000"><ele>1272</ele><time>2026-03-20T09:53:13Z</time></trkpt>
<trkpt lat="43.0188320000" lon="0.2153220000"><ele>1271</ele><time>2026-03-20T09:53:15Z</time></trkpt>
<trkpt lat="43.0188120000" lon="0.2153520000"><ele>1271</ele><time>2026-03-20T09:53:18Z</time></trkpt>
<trkpt lat="43.0187920000" lon="0.2153720000"><ele>1271</ele><time>2026-03-20T09:53:20Z</time></trkpt>
<trkpt lat="43.0187770000" lon="0.2153880000"><ele>1272</ele><time>2026-03-20T09:53:22Z</time></trkpt>
<trkpt lat="43.0187620000" lon="0.2154070000"><ele>1272</ele><time>2026-03-20T09:53:25Z</time></trkpt>
<trkpt lat="43.0187470000" lon="0.2154420000"><ele>1272</ele><time>2026-03-20T09:53:28Z</time></trkpt>
<trkpt lat="43.0187200000" lon="0.2154570000"><ele>1272</ele><time>2026-03-20T09:53:30Z</time></trkpt>
<trkpt lat="43.0187020000" lon="0.2154770000"><ele>1273</ele><time>2026-03-20T09:53:32Z</time></trkpt>
<trkpt lat="43.0186900000" lon="0.2155000000"><ele>1273</ele><time>2026-03-20T09:53:34Z</time></trkpt>
<trkpt lat="43.0186750000" lon="0.2155220000"><ele>1273</ele><time>2026-03-20T09:53:37Z</time></trkpt>
<trkpt lat="43.0186620000" lon="0.2155420000"><ele>1273</ele><time>2026-03-20T09:53:39Z</time></trkpt>
<trkpt lat="43.0186470000" lon="0.2155600000"><ele>1273</ele><time>2026-03-20T09:53:41Z</time></trkpt>
<trkpt lat="43.0186350000" lon="0.2155900000"><ele>1274</ele><time>2026-03-20T09:53:43Z</time></trkpt>
<trkpt lat="43.0186170000" lon="0.2156170000"><ele>1274</ele><time>2026-03-20T09:53:45Z</time></trkpt>
<trkpt lat="43.0185970000" lon="0.2156370000"><ele>1274</ele><time>2026-03-20T09:53:48Z</time></trkpt>
<trkpt lat="43.0185770000" lon="0.2156620000"><ele>1274</ele><time>2026-03-20T09:53:51Z</time></trkpt>
<trkpt lat="43.0185600000" lon="0.2156870000"><ele>1274</ele><time>2026-03-20T09:53:54Z</time></trkpt>
<trkpt lat="43.0185500000" lon="0.2157120000"><ele>1275</ele><time>2026-03-20T09:53:56Z</time></trkpt>
<trkpt lat="43.0185370000" lon="0.2157420000"><ele>1275</ele><time>2026-03-20T09:53:58Z</time></trkpt>
<trkpt lat="43.0185320000" lon="0.2157670000"><ele>1275</ele><time>2026-03-20T09:54:00Z</time></trkpt>
<trkpt lat="43.0185220000" lon="0.2157970000"><ele>1276</ele><time>2026-03-20T09:54:02Z</time></trkpt>
<trkpt lat="43.0185100000" lon="0.2158220000"><ele>1276</ele><time>2026-03-20T09:54:04Z</time></trkpt>
<trkpt lat="43.0184970000" lon="0.2158420000"><ele>1276</ele><time>2026-03-20T09:54:06Z</time></trkpt>
<trkpt lat="43.0184850000" lon="0.2158620000"><ele>1276</ele><time>2026-03-20T09:54:08Z</time></trkpt>
<trkpt lat="43.0184720000" lon="0.2158870000"><ele>1277</ele><time>2026-03-20T09:54:11Z</time></trkpt>
<trkpt lat="43.0184520000" lon="0.2159030000"><ele>1278</ele><time>2026-03-20T09:54:15Z</time></trkpt>
<trkpt lat="43.0184350000" lon="0.2159220000"><ele>1278</ele><time>2026-03-20T09:54:18Z</time></trkpt>
<trkpt lat="43.0184120000" lon="0.2159320000"><ele>1278</ele><time>2026-03-20T09:54:20Z</time></trkpt>
<trkpt lat="43.0184000000" lon="0.2159550000"><ele>1278</ele><time>2026-03-20T09:54:23Z</time></trkpt>
<trkpt lat="43.0183970000" lon="0.2159820000"><ele>1279</ele><time>2026-03-20T09:54:26Z</time></trkpt>
<trkpt lat="43.0183850000" lon="0.2160120000"><ele>1279</ele><time>2026-03-20T09:54:30Z</time></trkpt>
<trkpt lat="43.0183770000" lon="0.2160370000"><ele>1280</ele><time>2026-03-20T09:54:32Z</time></trkpt>
<trkpt lat="43.0183620000" lon="0.2160600000"><ele>1280</ele><time>2026-03-20T09:54:35Z</time></trkpt>
<trkpt lat="43.0183520000" lon="0.2160820000"><ele>1280</ele><time>2026-03-20T09:54:38Z</time></trkpt>
<trkpt lat="43.0183370000" lon="0.2161020000"><ele>1281</ele><time>2026-03-20T09:54:41Z</time></trkpt>
<trkpt lat="43.0183250000" lon="0.2161270000"><ele>1281</ele><time>2026-03-20T09:54:44Z</time></trkpt>
<trkpt lat="43.0183120000" lon="0.2161550000"><ele>1282</ele><time>2026-03-20T09:54:48Z</time></trkpt>
<trkpt lat="43.0183070000" lon="0.2161820000"><ele>1282</ele><time>2026-03-20T09:54:51Z</time></trkpt>
<trkpt lat="43.0183000000" lon="0.2162050000"><ele>1283</ele><time>2026-03-20T09:54:54Z</time></trkpt>
<trkpt lat="43.0182870000" lon="0.2162270000"><ele>1283</ele><time>2026-03-20T09:54:57Z</time></trkpt>
<trkpt lat="43.0182770000" lon="0.2162520000"><ele>1283</ele><time>2026-03-20T09:55:00Z</time></trkpt>
<trkpt lat="43.0182670000" lon="0.2162770000"><ele>1284</ele><time>2026-03-20T09:55:03Z</time></trkpt>
<trkpt lat="43.0182570000" lon="0.2163070000"><ele>1284</ele><time>2026-03-20T09:55:06Z</time></trkpt>
<trkpt lat="43.0182450000" lon="0.2163270000"><ele>1285</ele><time>2026-03-20T09:55:51Z</time></trkpt>
<trkpt lat="43.0182200000" lon="0.2163420000"><ele>1285</ele><time>2026-03-20T09:55:54Z</time></trkpt>
<trkpt lat="43.0182000000" lon="0.2163630000"><ele>1285</ele><time>2026-03-20T09:55:56Z</time></trkpt>
<trkpt lat="43.0181820000" lon="0.2163900000"><ele>1286</ele><time>2026-03-20T09:56:22Z</time></trkpt>
<trkpt lat="43.0181670000" lon="0.2164250000"><ele>1286</ele><time>2026-03-20T09:56:24Z</time></trkpt>
<trkpt lat="43.0181500000" lon="0.2164650000"><ele>1286</ele><time>2026-03-20T09:56:26Z</time></trkpt>
<trkpt lat="43.0181370000" lon="0.2164970000"><ele>1287</ele><time>2026-03-20T09:56:28Z</time></trkpt>
<trkpt lat="43.0181300000" lon="0.2165220000"><ele>1287</ele><time>2026-03-20T09:56:30Z</time></trkpt>
<trkpt lat="43.0181150000" lon="0.2165430000"><ele>1287</ele><time>2026-03-20T09:56:32Z</time></trkpt>
<trkpt lat="43.0181020000" lon="0.2165700000"><ele>1288</ele><time>2026-03-20T09:56:35Z</time></trkpt>
<trkpt lat="43.0180920000" lon="0.2166050000"><ele>1288</ele><time>2026-03-20T09:56:38Z</time></trkpt>
<trkpt lat="43.0180820000" lon="0.2166270000"><ele>1288</ele><time>2026-03-20T09:56:40Z</time></trkpt>
<trkpt lat="43.0180670000" lon="0.2166600000"><ele>1289</ele><time>2026-03-20T09:56:43Z</time></trkpt>
<trkpt lat="43.0180570000" lon="0.2166870000"><ele>1289</ele><time>2026-03-20T09:56:46Z</time></trkpt>
<trkpt lat="43.0180420000" lon="0.2167170000"><ele>1289</ele><time>2026-03-20T09:56:49Z</time></trkpt>
<trkpt lat="43.0180300000" lon="0.2167470000"><ele>1290</ele><time>2026-03-20T09:56:52Z</time></trkpt>
<trkpt lat="43.0180200000" lon="0.2167720000"><ele>1290</ele><time>2026-03-20T09:56:55Z</time></trkpt>
<trkpt lat="43.0180120000" lon="0.2168020000"><ele>1291</ele><time>2026-03-20T09:56:58Z</time></trkpt>
<trkpt lat="43.0180020000" lon="0.2168320000"><ele>1291</ele><time>2026-03-20T09:57:01Z</time></trkpt>
<trkpt lat="43.0179920000" lon="0.2168570000"><ele>1291</ele><time>2026-03-20T09:57:04Z</time></trkpt>
<trkpt lat="43.0179820000" lon="0.2168820000"><ele>1292</ele><time>2026-03-20T09:57:07Z</time></trkpt>
<trkpt lat="43.0179670000" lon="0.2169170000"><ele>1292</ele><time>2026-03-20T09:57:10Z</time></trkpt>
<trkpt lat="43.0179570000" lon="0.2169500000"><ele>1292</ele><time>2026-03-20T09:57:13Z</time></trkpt>
<trkpt lat="43.0179470000" lon="0.2169720000"><ele>1293</ele><time>2026-03-20T09:57:15Z</time></trkpt>
<trkpt lat="43.0179370000" lon="0.2169920000"><ele>1293</ele><time>2026-03-20T09:57:17Z</time></trkpt>
<trkpt lat="43.0179220000" lon="0.2170170000"><ele>1293</ele><time>2026-03-20T09:57:20Z</time></trkpt>
<trkpt lat="43.0179170000" lon="0.2170480000"><ele>1294</ele><time>2026-03-20T09:57:23Z</time></trkpt>
<trkpt lat="43.0179100000" lon="0.2170820000"><ele>1294</ele><time>2026-03-20T09:57:26Z</time></trkpt>
<trkpt lat="43.0179050000" lon="0.2171070000"><ele>1294</ele><time>2026-03-20T09:57:29Z</time></trkpt>
<trkpt lat="43.0178970000" lon="0.2171320000"><ele>1295</ele><time>2026-03-20T09:57:32Z</time></trkpt>
<trkpt lat="43.0178850000" lon="0.2171620000"><ele>1295</ele><time>2026-03-20T09:57:35Z</time></trkpt>
<trkpt lat="43.0178750000" lon="0.2171920000"><ele>1295</ele><time>2026-03-20T09:57:38Z</time></trkpt>
<trkpt lat="43.0178670000" lon="0.2172170000"><ele>1296</ele><time>2026-03-20T09:57:41Z</time></trkpt>
<trkpt lat="43.0178570000" lon="0.2172380000"><ele>1296</ele><time>2026-03-20T09:57:44Z</time></trkpt>
<trkpt lat="43.0178470000" lon="0.2172670000"><ele>1296</ele><time>2026-03-20T09:57:47Z</time></trkpt>
<trkpt lat="43.0178370000" lon="0.2172870000"><ele>1297</ele><time>2026-03-20T09:57:50Z</time></trkpt>
<trkpt lat="43.0178270000" lon="0.2173150000"><ele>1297</ele><time>2026-03-20T09:57:52Z</time></trkpt>
<trkpt lat="43.0178200000" lon="0.2173380000"><ele>1297</ele><time>2026-03-20T09:57:54Z</time></trkpt>
<trkpt lat="43.0178220000" lon="0.2173720000"><ele>1298</ele><time>2026-03-20T09:57:57Z</time></trkpt>
<trkpt lat="43.0178120000" lon="0.2173920000"><ele>1298</ele><time>2026-03-20T09:57:59Z</time></trkpt>
<trkpt lat="43.0178070000" lon="0.2174170000"><ele>1298</ele><time>2026-03-20T09:58:02Z</time></trkpt>
<trkpt lat="43.0177970000" lon="0.2174500000"><ele>1298</ele><time>2026-03-20T09:58:05Z</time></trkpt>
<trkpt lat="43.0177850000" lon="0.2174770000"><ele>1299</ele><time>2026-03-20T09:58:08Z</time></trkpt>
<trkpt lat="43.0177670000" lon="0.2175070000"><ele>1299</ele><time>2026-03-20T09:58:11Z</time></trkpt>
<trkpt lat="43.0177550000" lon="0.2175320000"><ele>1300</ele><time>2026-03-20T09:58:14Z</time></trkpt>
<trkpt lat="43.0177420000" lon="0.2175580000"><ele>1300</ele><time>2026-03-20T09:58:17Z</time></trkpt>
<trkpt lat="43.0177300000" lon="0.2175870000"><ele>1300</ele><time>2026-03-20T09:58:20Z</time></trkpt>
<trkpt lat="43.0177200000" lon="0.2176130000"><ele>1301</ele><time>2026-03-20T09:58:23Z</time></trkpt>
<trkpt lat="43.0177120000" lon="0.2176470000"><ele>1301</ele><time>2026-03-20T09:58:26Z</time></trkpt>
<trkpt lat="43.0176970000" lon="0.2176770000"><ele>1301</ele><time>2026-03-20T09:58:29Z</time></trkpt>
<trkpt lat="43.0176870000" lon="0.2177120000"><ele>1302</ele><time>2026-03-20T09:58:32Z</time></trkpt>
<trkpt lat="43.0176720000" lon="0.2177320000"><ele>1302</ele><time>2026-03-20T09:58:35Z</time></trkpt>
<trkpt lat="43.0176600000" lon="0.2177150000"><ele>1302</ele><time>2026-03-20T10:00:34Z</time></trkpt>
<trkpt lat="43.0176470000" lon="0.2177380000"><ele>1303</ele><time>2026-03-20T10:01:02Z</time></trkpt>
<trkpt lat="43.0176420000" lon="0.2177770000"><ele>1303</ele><time>2026-03-20T10:01:04Z</time></trkpt>
<trkpt lat="43.0176270000" lon="0.2178020000"><ele>1303</ele><time>2026-03-20T10:01:23Z</time></trkpt>
<trkpt lat="43.0176220000" lon="0.2178370000"><ele>1303</ele><time>2026-03-20T10:01:25Z</time></trkpt>
<trkpt lat="43.0176070000" lon="0.2178720000"><ele>1303</ele><time>2026-03-20T10:01:27Z</time></trkpt>
<trkpt lat="43.0176000000" lon="0.2179070000"><ele>1303</ele><time>2026-03-20T10:01:29Z</time></trkpt>
<trkpt lat="43.0175950000" lon="0.2179330000"><ele>1303</ele><time>2026-03-20T10:01:31Z</time></trkpt>
<trkpt lat="43.0175820000" lon="0.2179670000"><ele>1303</ele><time>2026-03-20T10:01:34Z</time></trkpt>
<trkpt lat="43.0175750000" lon="0.2180020000"><ele>1303</ele><time>2026-03-20T10:01:37Z</time></trkpt>
<trkpt lat="43.0175670000" lon="0.2180280000"><ele>1303</ele><time>2026-03-20T10:01:39Z</time></trkpt>
<trkpt lat="43.0175600000" lon="0.2180520000"><ele>1304</ele><time>2026-03-20T10:01:41Z</time></trkpt>
<trkpt lat="43.0175470000" lon="0.2180820000"><ele>1304</ele><time>2026-03-20T10:01:43Z</time></trkpt>
<trkpt lat="43.0175370000" lon="0.2181170000"><ele>1304</ele><time>2026-03-20T10:01:45Z</time></trkpt>
<trkpt lat="43.0175270000" lon="0.2181500000"><ele>1304</ele><time>2026-03-20T10:01:47Z</time></trkpt>
<trkpt lat="43.0175200000" lon="0.2181820000"><ele>1304</ele><time>2026-03-20T10:01:49Z</time></trkpt>
<trkpt lat="43.0175150000" lon="0.2182070000"><ele>1304</ele><time>2026-03-20T10:01:51Z</time></trkpt>
<trkpt lat="43.0175070000" lon="0.2182350000"><ele>1304</ele><time>2026-03-20T10:01:53Z</time></trkpt>
<trkpt lat="43.0175020000" lon="0.2182580000"><ele>1305</ele><time>2026-03-20T10:01:55Z</time></trkpt>
<trkpt lat="43.0174970000" lon="0.2182870000"><ele>1305</ele><time>2026-03-20T10:01:57Z</time></trkpt>
<trkpt lat="43.0174850000" lon="0.2183150000"><ele>1305</ele><time>2026-03-20T10:02:00Z</time></trkpt>
<trkpt lat="43.0174770000" lon="0.2183420000"><ele>1305</ele><time>2026-03-20T10:02:03Z</time></trkpt>
<trkpt lat="43.0174720000" lon="0.2183770000"><ele>1306</ele><time>2026-03-20T10:02:06Z</time></trkpt>
<trkpt lat="43.0174650000" lon="0.2184070000"><ele>1306</ele><time>2026-03-20T10:02:09Z</time></trkpt>
<trkpt lat="43.0174520000" lon="0.2184420000"><ele>1306</ele><time>2026-03-20T10:02:12Z</time></trkpt>
<trkpt lat="43.0174420000" lon="0.2184650000"><ele>1307</ele><time>2026-03-20T10:02:14Z</time></trkpt>
<trkpt lat="43.0174370000" lon="0.2184870000"><ele>1307</ele><time>2026-03-20T10:02:16Z</time></trkpt>
<trkpt lat="43.0174270000" lon="0.2185180000"><ele>1307</ele><time>2026-03-20T10:02:19Z</time></trkpt>
<trkpt lat="43.0174220000" lon="0.2185520000"><ele>1308</ele><time>2026-03-20T10:02:22Z</time></trkpt>
<trkpt lat="43.0174100000" lon="0.2185870000"><ele>1308</ele><time>2026-03-20T10:02:25Z</time></trkpt>
<trkpt lat="43.0174020000" lon="0.2186120000"><ele>1308</ele><time>2026-03-20T10:02:27Z</time></trkpt>
<trkpt lat="43.0173970000" lon="0.2186370000"><ele>1308</ele><time>2026-03-20T10:02:29Z</time></trkpt>
<trkpt lat="43.0173900000" lon="0.2186680000"><ele>1308</ele><time>2026-03-20T10:02:32Z</time></trkpt>
<trkpt lat="43.0173870000" lon="0.2187020000"><ele>1309</ele><time>2026-03-20T10:02:35Z</time></trkpt>
<trkpt lat="43.0173770000" lon="0.2187270000"><ele>1309</ele><time>2026-03-20T10:02:37Z</time></trkpt>
<trkpt lat="43.0173670000" lon="0.2187620000"><ele>1309</ele><time>2026-03-20T10:02:40Z</time></trkpt>
<trkpt lat="43.0173620000" lon="0.2187870000"><ele>1309</ele><time>2026-03-20T10:02:42Z</time></trkpt>
<trkpt lat="43.0173570000" lon="0.2188170000"><ele>1309</ele><time>2026-03-20T10:02:45Z</time></trkpt>
<trkpt lat="43.0173470000" lon="0.2188470000"><ele>1310</ele><time>2026-03-20T10:02:48Z</time></trkpt>
<trkpt lat="43.0173370000" lon="0.2188720000"><ele>1310</ele><time>2026-03-20T10:02:51Z</time></trkpt>
<trkpt lat="43.0173220000" lon="0.2188920000"><ele>1310</ele><time>2026-03-20T10:02:54Z</time></trkpt>
<trkpt lat="43.0173120000" lon="0.2189250000"><ele>1310</ele><time>2026-03-20T10:02:57Z</time></trkpt>
<trkpt lat="43.0173020000" lon="0.2189500000"><ele>1311</ele><time>2026-03-20T10:02:59Z</time></trkpt>
<trkpt lat="43.0172950000" lon="0.2189820000"><ele>1311</ele><time>2026-03-20T10:03:01Z</time></trkpt>
<trkpt lat="43.0172870000" lon="0.2190070000"><ele>1311</ele><time>2026-03-20T10:03:03Z</time></trkpt>
<trkpt lat="43.0172800000" lon="0.2190300000"><ele>1311</ele><time>2026-03-20T10:03:05Z</time></trkpt>
<trkpt lat="43.0172670000" lon="0.2190620000"><ele>1311</ele><time>2026-03-20T10:03:08Z</time></trkpt>
<trkpt lat="43.0172620000" lon="0.2190870000"><ele>1312</ele><time>2026-03-20T10:03:11Z</time></trkpt>
<trkpt lat="43.0172480000" lon="0.2191170000"><ele>1312</ele><time>2026-03-20T10:03:14Z</time></trkpt>
<trkpt lat="43.0172470000" lon="0.2191420000"><ele>1312</ele><time>2026-03-20T10:03:16Z</time></trkpt>
<trkpt lat="43.0172320000" lon="0.2191750000"><ele>1313</ele><time>2026-03-20T10:03:19Z</time></trkpt>
<trkpt lat="43.0172250000" lon="0.2192070000"><ele>1313</ele><time>2026-03-20T10:03:22Z</time></trkpt>
<trkpt lat="43.0172220000" lon="0.2192320000"><ele>1313</ele><time>2026-03-20T10:03:24Z</time></trkpt>
<trkpt lat="43.0172120000" lon="0.2192620000"><ele>1313</ele><time>2026-03-20T10:03:27Z</time></trkpt>
<trkpt lat="43.0172020000" lon="0.2192900000"><ele>1313</ele><time>2026-03-20T10:03:30Z</time></trkpt>
<trkpt lat="43.0171900000" lon="0.2193170000"><ele>1314</ele><time>2026-03-20T10:03:33Z</time></trkpt>
<trkpt lat="43.0171770000" lon="0.2193420000"><ele>1314</ele><time>2026-03-20T10:03:35Z</time></trkpt>
<trkpt lat="43.0171700000" lon="0.2193650000"><ele>1314</ele><time>2026-03-20T10:03:37Z</time></trkpt>
<trkpt lat="43.0171620000" lon="0.2193920000"><ele>1314</ele><time>2026-03-20T10:03:39Z</time></trkpt>
<trkpt lat="43.0171470000" lon="0.2194170000"><ele>1315</ele><time>2026-03-20T10:03:42Z</time></trkpt>
<trkpt lat="43.0171370000" lon="0.2194450000"><ele>1315</ele><time>2026-03-20T10:03:45Z</time></trkpt>
<trkpt lat="43.0171250000" lon="0.2194770000"><ele>1315</ele><time>2026-03-20T10:03:48Z</time></trkpt>
<trkpt lat="43.0171150000" lon="0.2194970000"><ele>1315</ele><time>2026-03-20T10:03:50Z</time></trkpt>
<trkpt lat="43.0171020000" lon="0.2195170000"><ele>1315</ele><time>2026-03-20T10:03:52Z</time></trkpt>
<trkpt lat="43.0170900000" lon="0.2195500000"><ele>1315</ele><time>2026-03-20T10:03:55Z</time></trkpt>
<trkpt lat="43.0170800000" lon="0.2195820000"><ele>1316</ele><time>2026-03-20T10:03:58Z</time></trkpt>
<trkpt lat="43.0170700000" lon="0.2196100000"><ele>1316</ele><time>2026-03-20T10:04:01Z</time></trkpt>
<trkpt lat="43.0170620000" lon="0.2196370000"><ele>1316</ele><time>2026-03-20T10:04:04Z</time></trkpt>
<trkpt lat="43.0170470000" lon="0.2196620000"><ele>1316</ele><time>2026-03-20T10:04:07Z</time></trkpt>
<trkpt lat="43.0170370000" lon="0.2196830000"><ele>1317</ele><time>2026-03-20T10:04:10Z</time></trkpt>
<trkpt lat="43.0170270000" lon="0.2197120000"><ele>1317</ele><time>2026-03-20T10:04:12Z</time></trkpt>
<trkpt lat="43.0170170000" lon="0.2197470000"><ele>1317</ele><time>2026-03-20T10:04:14Z</time></trkpt>
<trkpt lat="43.0170070000" lon="0.2197780000"><ele>1317</ele><time>2026-03-20T10:04:16Z</time></trkpt>
<trkpt lat="43.0170070000" lon="0.2198070000"><ele>1317</ele><time>2026-03-20T10:04:19Z</time></trkpt>
<trkpt lat="43.0169920000" lon="0.2198370000"><ele>1318</ele><time>2026-03-20T10:04:22Z</time></trkpt>
<trkpt lat="43.0169800000" lon="0.2198570000"><ele>1318</ele><time>2026-03-20T10:04:24Z</time></trkpt>
<trkpt lat="43.0169670000" lon="0.2198900000"><ele>1318</ele><time>2026-03-20T10:04:27Z</time></trkpt>
<trkpt lat="43.0169570000" lon="0.2199120000"><ele>1318</ele><time>2026-03-20T10:04:29Z</time></trkpt>
<trkpt lat="43.0169470000" lon="0.2199420000"><ele>1319</ele><time>2026-03-20T10:04:32Z</time></trkpt>
<trkpt lat="43.0169380000" lon="0.2199670000"><ele>1319</ele><time>2026-03-20T10:04:35Z</time></trkpt>
<trkpt lat="43.0169320000" lon="0.2199970000"><ele>1319</ele><time>2026-03-20T10:04:38Z</time></trkpt>
<trkpt lat="43.0169300000" lon="0.2200270000"><ele>1320</ele><time>2026-03-20T10:04:41Z</time></trkpt>
<trkpt lat="43.0169320000" lon="0.2200530000"><ele>1320</ele><time>2026-03-20T10:04:45Z</time></trkpt>
<trkpt lat="43.0169320000" lon="0.2200820000"><ele>1321</ele><time>2026-03-20T10:04:48Z</time></trkpt>
<trkpt lat="43.0169250000" lon="0.2201120000"><ele>1321</ele><time>2026-03-20T10:04:51Z</time></trkpt>
<trkpt lat="43.0169120000" lon="0.2201470000"><ele>1321</ele><time>2026-03-20T10:04:54Z</time></trkpt>
<trkpt lat="43.0169070000" lon="0.2201770000"><ele>1322</ele><time>2026-03-20T10:04:57Z</time></trkpt>
<trkpt lat="43.0169020000" lon="0.2202050000"><ele>1322</ele><time>2026-03-20T10:05:00Z</time></trkpt>
<trkpt lat="43.0168970000" lon="0.2202300000"><ele>1322</ele><time>2026-03-20T10:05:03Z</time></trkpt>
<trkpt lat="43.0168920000" lon="0.2202570000"><ele>1323</ele><time>2026-03-20T10:05:06Z</time></trkpt>
<trkpt lat="43.0168900000" lon="0.2202870000"><ele>1323</ele><time>2026-03-20T10:05:09Z</time></trkpt>
<trkpt lat="43.0168820000" lon="0.2203170000"><ele>1323</ele><time>2026-03-20T10:05:12Z</time></trkpt>
<trkpt lat="43.0168750000" lon="0.2203400000"><ele>1324</ele><time>2026-03-20T10:05:15Z</time></trkpt>
<trkpt lat="43.0168620000" lon="0.2203700000"><ele>1324</ele><time>2026-03-20T10:05:19Z</time></trkpt>
<trkpt lat="43.0168470000" lon="0.2203870000"><ele>1325</ele><time>2026-03-20T10:05:22Z</time></trkpt>
<trkpt lat="43.0168350000" lon="0.2204170000"><ele>1325</ele><time>2026-03-20T10:05:25Z</time></trkpt>
<trkpt lat="43.0168220000" lon="0.2204420000"><ele>1325</ele><time>2026-03-20T10:05:27Z</time></trkpt>
<trkpt lat="43.0168120000" lon="0.2204770000"><ele>1325</ele><time>2026-03-20T10:05:30Z</time></trkpt>
<trkpt lat="43.0168020000" lon="0.2205050000"><ele>1326</ele><time>2026-03-20T10:05:33Z</time></trkpt>
<trkpt lat="43.0167970000" lon="0.2205320000"><ele>1326</ele><time>2026-03-20T10:05:35Z</time></trkpt>
<trkpt lat="43.0167950000" lon="0.2205600000"><ele>1326</ele><time>2026-03-20T10:05:37Z</time></trkpt>
<trkpt lat="43.0167920000" lon="0.2205850000"><ele>1326</ele><time>2026-03-20T10:05:39Z</time></trkpt>
<trkpt lat="43.0167870000" lon="0.2206150000"><ele>1327</ele><time>2026-03-20T10:05:42Z</time></trkpt>
<trkpt lat="43.0167870000" lon="0.2206450000"><ele>1327</ele><time>2026-03-20T10:05:46Z</time></trkpt>
<trkpt lat="43.0168000000" lon="0.2206700000"><ele>1328</ele><time>2026-03-20T10:05:51Z</time></trkpt>
<trkpt lat="43.0168050000" lon="0.2206970000"><ele>1328</ele><time>2026-03-20T10:05:55Z</time></trkpt>
<trkpt lat="43.0167970000" lon="0.2207250000"><ele>1329</ele><time>2026-03-20T10:05:58Z</time></trkpt>
<trkpt lat="43.0167820000" lon="0.2207520000"><ele>1329</ele><time>2026-03-20T10:06:01Z</time></trkpt>
<trkpt lat="43.0167720000" lon="0.2207800000"><ele>1330</ele><time>2026-03-20T10:06:04Z</time></trkpt>
<trkpt lat="43.0167670000" lon="0.2208070000"><ele>1330</ele><time>2026-03-20T10:06:08Z</time></trkpt>
<trkpt lat="43.0167570000" lon="0.2208350000"><ele>1330</ele><time>2026-03-20T10:06:11Z</time></trkpt>
<trkpt lat="43.0167470000" lon="0.2208620000"><ele>1331</ele><time>2026-03-20T10:06:15Z</time></trkpt>
<trkpt lat="43.0167420000" lon="0.2208970000"><ele>1331</ele><time>2026-03-20T10:06:19Z</time></trkpt>
<trkpt lat="43.0167370000" lon="0.2209220000"><ele>1332</ele><time>2026-03-20T10:06:23Z</time></trkpt>
<trkpt lat="43.0167270000" lon="0.2209520000"><ele>1332</ele><time>2026-03-20T10:06:26Z</time></trkpt>
<trkpt lat="43.0167130000" lon="0.2209820000"><ele>1333</ele><time>2026-03-20T10:06:29Z</time></trkpt>
<trkpt lat="43.0167050000" lon="0.2210070000"><ele>1333</ele><time>2026-03-20T10:06:32Z</time></trkpt>
<trkpt lat="43.0166950000" lon="0.2210370000"><ele>1333</ele><time>2026-03-20T10:06:35Z</time></trkpt>
<trkpt lat="43.0166850000" lon="0.2210620000"><ele>1334</ele><time>2026-03-20T10:06:39Z</time></trkpt>
<trkpt lat="43.0166720000" lon="0.2210820000"><ele>1334</ele><time>2026-03-20T10:06:42Z</time></trkpt>
<trkpt lat="43.0166700000" lon="0.2211070000"><ele>1335</ele><time>2026-03-20T10:06:48Z</time></trkpt>
<trkpt lat="43.0166620000" lon="0.2211350000"><ele>1335</ele><time>2026-03-20T10:06:50Z</time></trkpt>
<trkpt lat="43.0166520000" lon="0.2211580000"><ele>1335</ele><time>2026-03-20T10:06:54Z</time></trkpt>
<trkpt lat="43.0166470000" lon="0.2211900000"><ele>1337</ele><time>2026-03-20T10:15:06Z</time></trkpt>
<trkpt lat="43.0166420000" lon="0.2212200000"><ele>1338</ele><time>2026-03-20T10:15:08Z</time></trkpt>
<trkpt lat="43.0166320000" lon="0.2212550000"><ele>1338</ele><time>2026-03-20T10:15:10Z</time></trkpt>
<trkpt lat="43.0166200000" lon="0.2212820000"><ele>1338</ele><time>2026-03-20T10:15:12Z</time></trkpt>
<trkpt lat="43.0166050000" lon="0.2213020000"><ele>1338</ele><time>2026-03-20T10:15:14Z</time></trkpt>
<trkpt lat="43.0165920000" lon="0.2213220000"><ele>1338</ele><time>2026-03-20T10:15:16Z</time></trkpt>
<trkpt lat="43.0165770000" lon="0.2213430000"><ele>1339</ele><time>2026-03-20T10:15:18Z</time></trkpt>
<trkpt lat="43.0165620000" lon="0.2213620000"><ele>1339</ele><time>2026-03-20T10:15:20Z</time></trkpt>
<trkpt lat="43.0165400000" lon="0.2213870000"><ele>1339</ele><time>2026-03-20T10:15:23Z</time></trkpt>
<trkpt lat="43.0165270000" lon="0.2214170000"><ele>1339</ele><time>2026-03-20T10:15:26Z</time></trkpt>
<trkpt lat="43.0165200000" lon="0.2214470000"><ele>1339</ele><time>2026-03-20T10:15:28Z</time></trkpt>
<trkpt lat="43.0165070000" lon="0.2214800000"><ele>1340</ele><time>2026-03-20T10:15:31Z</time></trkpt>
<trkpt lat="43.0165050000" lon="0.2215050000"><ele>1340</ele><time>2026-03-20T10:15:34Z</time></trkpt>
<trkpt lat="43.0164880000" lon="0.2215320000"><ele>1341</ele><time>2026-03-20T10:15:37Z</time></trkpt>
<trkpt lat="43.0164770000" lon="0.2215570000"><ele>1341</ele><time>2026-03-20T10:15:40Z</time></trkpt>
<trkpt lat="43.0164720000" lon="0.2215870000"><ele>1341</ele><time>2026-03-20T10:15:42Z</time></trkpt>
<trkpt lat="43.0164700000" lon="0.2216120000"><ele>1341</ele><time>2026-03-20T10:15:44Z</time></trkpt>
<trkpt lat="43.0164620000" lon="0.2216370000"><ele>1342</ele><time>2026-03-20T10:15:46Z</time></trkpt>
<trkpt lat="43.0164470000" lon="0.2216670000"><ele>1342</ele><time>2026-03-20T10:15:49Z</time></trkpt>
<trkpt lat="43.0164350000" lon="0.2216920000"><ele>1342</ele><time>2026-03-20T10:15:52Z</time></trkpt>
<trkpt lat="43.0164220000" lon="0.2217120000"><ele>1343</ele><time>2026-03-20T10:15:55Z</time></trkpt>
<trkpt lat="43.0164120000" lon="0.2217420000"><ele>1343</ele><time>2026-03-20T10:15:59Z</time></trkpt>
<trkpt lat="43.0163970000" lon="0.2217670000"><ele>1343</ele><time>2026-03-20T10:16:03Z</time></trkpt>
<trkpt lat="43.0163900000" lon="0.2217920000"><ele>1344</ele><time>2026-03-20T10:16:07Z</time></trkpt>
<trkpt lat="43.0163820000" lon="0.2218170000"><ele>1344</ele><time>2026-03-20T10:16:10Z</time></trkpt>
<trkpt lat="43.0163700000" lon="0.2218470000"><ele>1344</ele><time>2026-03-20T10:16:14Z</time></trkpt>
<trkpt lat="43.0163600000" lon="0.2218670000"><ele>1345</ele><time>2026-03-20T10:16:17Z</time></trkpt>
<trkpt lat="43.0163470000" lon="0.2218920000"><ele>1345</ele><time>2026-03-20T10:16:20Z</time></trkpt>
<trkpt lat="43.0163330000" lon="0.2219200000"><ele>1345</ele><time>2026-03-20T10:16:24Z</time></trkpt>
<trkpt lat="43.0163220000" lon="0.2219470000"><ele>1346</ele><time>2026-03-20T10:16:27Z</time></trkpt>
<trkpt lat="43.0163150000" lon="0.2219720000"><ele>1346</ele><time>2026-03-20T10:16:30Z</time></trkpt>
<trkpt lat="43.0163100000" lon="0.2220020000"><ele>1347</ele><time>2026-03-20T10:16:33Z</time></trkpt>
<trkpt lat="43.0163000000" lon="0.2220270000"><ele>1347</ele><time>2026-03-20T10:16:36Z</time></trkpt>
<trkpt lat="43.0162970000" lon="0.2220550000"><ele>1347</ele><time>2026-03-20T10:16:40Z</time></trkpt>
<trkpt lat="43.0162920000" lon="0.2220820000"><ele>1348</ele><time>2026-03-20T10:16:44Z</time></trkpt>
<trkpt lat="43.0163000000" lon="0.2221070000"><ele>1349</ele><time>2026-03-20T10:16:51Z</time></trkpt>
<trkpt lat="43.0162920000" lon="0.2221280000"><ele>1349</ele><time>2026-03-20T10:16:56Z</time></trkpt>
<trkpt lat="43.0163000000" lon="0.2221570000"><ele>1350</ele><time>2026-03-20T10:16:59Z</time></trkpt>
<trkpt lat="43.0163100000" lon="0.2221820000"><ele>1350</ele><time>2026-03-20T10:17:02Z</time></trkpt>
<trkpt lat="43.0163070000" lon="0.2222100000"><ele>1351</ele><time>2026-03-20T10:17:07Z</time></trkpt>
<trkpt lat="43.0163070000" lon="0.2222350000"><ele>1351</ele><time>2026-03-20T10:17:11Z</time></trkpt>
<trkpt lat="43.0163070000" lon="0.2222630000"><ele>1352</ele><time>2026-03-20T10:17:16Z</time></trkpt>
<trkpt lat="43.0163050000" lon="0.2222920000"><ele>1353</ele><time>2026-03-20T10:17:20Z</time></trkpt>
<trkpt lat="43.0163100000" lon="0.2223180000"><ele>1353</ele><time>2026-03-20T10:17:24Z</time></trkpt>
<trkpt lat="43.0163070000" lon="0.2223470000"><ele>1354</ele><time>2026-03-20T10:17:29Z</time></trkpt>
<trkpt lat="43.0163020000" lon="0.2223770000"><ele>1354</ele><time>2026-03-20T10:17:33Z</time></trkpt>
<trkpt lat="43.0163000000" lon="0.2224020000"><ele>1354</ele><time>2026-03-20T10:17:36Z</time></trkpt>
<trkpt lat="43.0162920000" lon="0.2224320000"><ele>1355</ele><time>2026-03-20T10:17:40Z</time></trkpt>
<trkpt lat="43.0162970000" lon="0.2224620000"><ele>1355</ele><time>2026-03-20T10:17:44Z</time></trkpt>
<trkpt lat="43.0162950000" lon="0.2224870000"><ele>1356</ele><time>2026-03-20T10:17:50Z</time></trkpt>
<trkpt lat="43.0162970000" lon="0.2225250000"><ele>1358</ele><time>2026-03-20T10:18:09Z</time></trkpt>
<trkpt lat="43.0162870000" lon="0.2225620000"><ele>1359</ele><time>2026-03-20T10:18:11Z</time></trkpt>
<trkpt lat="43.0162800000" lon="0.2226020000"><ele>1359</ele><time>2026-03-20T10:18:13Z</time></trkpt>
<trkpt lat="43.0162870000" lon="0.2226270000"><ele>1359</ele><time>2026-03-20T10:18:15Z</time></trkpt>
<trkpt lat="43.0162970000" lon="0.2226520000"><ele>1359</ele><time>2026-03-20T10:18:18Z</time></trkpt>
<trkpt lat="43.0162970000" lon="0.2226780000"><ele>1360</ele><time>2026-03-20T10:18:23Z</time></trkpt>
<trkpt lat="43.0162870000" lon="0.2227070000"><ele>1361</ele><time>2026-03-20T10:18:28Z</time></trkpt>
<trkpt lat="43.0162870000" lon="0.2227370000"><ele>1361</ele><time>2026-03-20T10:18:33Z</time></trkpt>
<trkpt lat="43.0162820000" lon="0.2227670000"><ele>1362</ele><time>2026-03-20T10:18:36Z</time></trkpt>
<trkpt lat="43.0162700000" lon="0.2227870000"><ele>1362</ele><time>2026-03-20T10:18:40Z</time></trkpt>
<trkpt lat="43.0162520000" lon="0.2228020000"><ele>1363</ele><time>2026-03-20T10:18:58Z</time></trkpt>
<trkpt lat="43.0162370000" lon="0.2228450000"><ele>1363</ele><time>2026-03-20T10:19:00Z</time></trkpt>
<trkpt lat="43.0162220000" lon="0.2228820000"><ele>1363</ele><time>2026-03-20T10:19:02Z</time></trkpt>
<trkpt lat="43.0162170000" lon="0.2229120000"><ele>1363</ele><time>2026-03-20T10:19:04Z</time></trkpt>
<trkpt lat="43.0162120000" lon="0.2229420000"><ele>1364</ele><time>2026-03-20T10:19:07Z</time></trkpt>
<trkpt lat="43.0162070000" lon="0.2229670000"><ele>1365</ele><time>2026-03-20T10:19:12Z</time></trkpt>
<trkpt lat="43.0161970000" lon="0.2229920000"><ele>1365</ele><time>2026-03-20T10:19:17Z</time></trkpt>
<trkpt lat="43.0161920000" lon="0.2230170000"><ele>1366</ele><time>2026-03-20T10:19:21Z</time></trkpt>
<trkpt lat="43.0161970000" lon="0.2230520000"><ele>1366</ele><time>2026-03-20T10:19:24Z</time></trkpt>
<trkpt lat="43.0162050000" lon="0.2230770000"><ele>1366</ele><time>2026-03-20T10:19:27Z</time></trkpt>
<trkpt lat="43.0161970000" lon="0.2231020000"><ele>1367</ele><time>2026-03-20T10:19:31Z</time></trkpt>
<trkpt lat="43.0161870000" lon="0.2231270000"><ele>1367</ele><time>2026-03-20T10:19:34Z</time></trkpt>
<trkpt lat="43.0161820000" lon="0.2231520000"><ele>1367</ele><time>2026-03-20T10:19:38Z</time></trkpt>
<trkpt lat="43.0161770000" lon="0.2231820000"><ele>1368</ele><time>2026-03-20T10:19:44Z</time></trkpt>
<trkpt lat="43.0161770000" lon="0.2232070000"><ele>1369</ele><time>2026-03-20T10:19:48Z</time></trkpt>
<trkpt lat="43.0161820000" lon="0.2232320000"><ele>1369</ele><time>2026-03-20T10:19:53Z</time></trkpt>
<trkpt lat="43.0161750000" lon="0.2232550000"><ele>1370</ele><time>2026-03-20T10:19:57Z</time></trkpt>
<trkpt lat="43.0161750000" lon="0.2232800000"><ele>1371</ele><time>2026-03-20T10:20:01Z</time></trkpt>
<trkpt lat="43.0161720000" lon="0.2233070000"><ele>1371</ele><time>2026-03-20T10:20:05Z</time></trkpt>
<trkpt lat="43.0161650000" lon="0.2233320000"><ele>1372</ele><time>2026-03-20T10:20:09Z</time></trkpt>
<trkpt lat="43.0161570000" lon="0.2233650000"><ele>1372</ele><time>2026-03-20T10:20:13Z</time></trkpt>
<trkpt lat="43.0161470000" lon="0.2233950000"><ele>1372</ele><time>2026-03-20T10:20:17Z</time></trkpt>
<trkpt lat="43.0161450000" lon="0.2234220000"><ele>1373</ele><time>2026-03-20T10:20:22Z</time></trkpt>
<trkpt lat="43.0161350000" lon="0.2234500000"><ele>1374</ele><time>2026-03-20T10:20:27Z</time></trkpt>
<trkpt lat="43.0161220000" lon="0.2234750000"><ele>1374</ele><time>2026-03-20T10:20:31Z</time></trkpt>
<trkpt lat="43.0161270000" lon="0.2235000000"><ele>1375</ele><time>2026-03-20T10:20:37Z</time></trkpt>
<trkpt lat="43.0161270000" lon="0.2235230000"><ele>1376</ele><time>2026-03-20T10:20:41Z</time></trkpt>
<trkpt lat="43.0161220000" lon="0.2235520000"><ele>1377</ele><time>2026-03-20T10:20:46Z</time></trkpt>
<trkpt lat="43.0161220000" lon="0.2235770000"><ele>1377</ele><time>2026-03-20T10:20:48Z</time></trkpt>
<trkpt lat="43.0161150000" lon="0.2236050000"><ele>1377</ele><time>2026-03-20T10:20:53Z</time></trkpt>
<trkpt lat="43.0161070000" lon="0.2236320000"><ele>1378</ele><time>2026-03-20T10:20:58Z</time></trkpt>
<trkpt lat="43.0161070000" lon="0.2236620000"><ele>1378</ele><time>2026-03-20T10:21:03Z</time></trkpt>
<trkpt lat="43.0160970000" lon="0.2236870000"><ele>1379</ele><time>2026-03-20T10:21:08Z</time></trkpt>
<trkpt lat="43.0160920000" lon="0.2237170000"><ele>1380</ele><time>2026-03-20T10:21:13Z</time></trkpt>
<trkpt lat="43.0160850000" lon="0.2237470000"><ele>1380</ele><time>2026-03-20T10:21:17Z</time></trkpt>
<trkpt lat="43.0160770000" lon="0.2237750000"><ele>1380</ele><time>2026-03-20T10:21:20Z</time></trkpt>
<trkpt lat="43.0160670000" lon="0.2237970000"><ele>1381</ele><time>2026-03-20T10:21:23Z</time></trkpt>
<trkpt lat="43.0160600000" lon="0.2238250000"><ele>1381</ele><time>2026-03-20T10:21:26Z</time></trkpt>
<trkpt lat="43.0160470000" lon="0.2238480000"><ele>1381</ele><time>2026-03-20T10:21:31Z</time></trkpt>
<trkpt lat="43.0160470000" lon="0.2238750000"><ele>1382</ele><time>2026-03-20T10:21:35Z</time></trkpt>
<trkpt lat="43.0160420000" lon="0.2239000000"><ele>1382</ele><time>2026-03-20T10:21:38Z</time></trkpt>
<trkpt lat="43.0160270000" lon="0.2239200000"><ele>1383</ele><time>2026-03-20T10:21:41Z</time></trkpt>
<trkpt lat="43.0160270000" lon="0.2239470000"><ele>1383</ele><time>2026-03-20T10:21:45Z</time></trkpt>
<trkpt lat="43.0160070000" lon="0.2239670000"><ele>1384</ele><time>2026-03-20T10:22:05Z</time></trkpt>
<trkpt lat="43.0159920000" lon="0.2239830000"><ele>1384</ele><time>2026-03-20T10:23:42Z</time></trkpt>
<trkpt lat="43.0159800000" lon="0.2240070000"><ele>1384</ele><time>2026-03-20T10:23:56Z</time></trkpt>
<trkpt lat="43.0159670000" lon="0.2240370000"><ele>1384</ele><time>2026-03-20T10:23:58Z</time></trkpt>
<trkpt lat="43.0159530000" lon="0.2240670000"><ele>1384</ele><time>2026-03-20T10:24:00Z</time></trkpt>
<trkpt lat="43.0159450000" lon="0.2240970000"><ele>1384</ele><time>2026-03-20T10:24:02Z</time></trkpt>
<trkpt lat="43.0159370000" lon="0.2241270000"><ele>1385</ele><time>2026-03-20T10:24:05Z</time></trkpt>
<trkpt lat="43.0159270000" lon="0.2241520000"><ele>1385</ele><time>2026-03-20T10:24:08Z</time></trkpt>
<trkpt lat="43.0159220000" lon="0.2241750000"><ele>1386</ele><time>2026-03-20T10:24:21Z</time></trkpt>
<trkpt lat="43.0159200000" lon="0.2242000000"><ele>1386</ele><time>2026-03-20T10:24:24Z</time></trkpt>
<trkpt lat="43.0159100000" lon="0.2242250000"><ele>1386</ele><time>2026-03-20T10:24:27Z</time></trkpt>
<trkpt lat="43.0159070000" lon="0.2242570000"><ele>1387</ele><time>2026-03-20T10:24:31Z</time></trkpt>
<trkpt lat="43.0158970000" lon="0.2242920000"><ele>1387</ele><time>2026-03-20T10:24:34Z</time></trkpt>
<trkpt lat="43.0158970000" lon="0.2243200000"><ele>1388</ele><time>2026-03-20T10:24:57Z</time></trkpt>
<trkpt lat="43.0158920000" lon="0.2243520000"><ele>1389</ele><time>2026-03-20T10:24:59Z</time></trkpt>
<trkpt lat="43.0158820000" lon="0.2243820000"><ele>1389</ele><time>2026-03-20T10:25:01Z</time></trkpt>
<trkpt lat="43.0158770000" lon="0.2244120000"><ele>1389</ele><time>2026-03-20T10:25:03Z</time></trkpt>
<trkpt lat="43.0158720000" lon="0.2244400000"><ele>1389</ele><time>2026-03-20T10:25:06Z</time></trkpt>
<trkpt lat="43.0158670000" lon="0.2244650000"><ele>1390</ele><time>2026-03-20T10:25:10Z</time></trkpt>
<trkpt lat="43.0158620000" lon="0.2244920000"><ele>1390</ele><time>2026-03-20T10:25:15Z</time></trkpt>
<trkpt lat="43.0158550000" lon="0.2245220000"><ele>1391</ele><time>2026-03-20T10:25:19Z</time></trkpt>
<trkpt lat="43.0158470000" lon="0.2245500000"><ele>1391</ele><time>2026-03-20T10:25:22Z</time></trkpt>
<trkpt lat="43.0158420000" lon="0.2245750000"><ele>1392</ele><time>2026-03-20T10:25:26Z</time></trkpt>
<trkpt lat="43.0158420000" lon="0.2246050000"><ele>1392</ele><time>2026-03-20T10:25:30Z</time></trkpt>
<trkpt lat="43.0158350000" lon="0.2246270000"><ele>1393</ele><time>2026-03-20T10:25:33Z</time></trkpt>
<trkpt lat="43.0158270000" lon="0.2246570000"><ele>1393</ele><time>2026-03-20T10:25:37Z</time></trkpt>
<trkpt lat="43.0158220000" lon="0.2246870000"><ele>1394</ele><time>2026-03-20T10:25:41Z</time></trkpt>
<trkpt lat="43.0158100000" lon="0.2247170000"><ele>1394</ele><time>2026-03-20T10:25:44Z</time></trkpt>
<trkpt lat="43.0158020000" lon="0.2247470000"><ele>1394</ele><time>2026-03-20T10:25:48Z</time></trkpt>
<trkpt lat="43.0157950000" lon="0.2247770000"><ele>1395</ele><time>2026-03-20T10:25:53Z</time></trkpt>
<trkpt lat="43.0157870000" lon="0.2248020000"><ele>1395</ele><time>2026-03-20T10:25:56Z</time></trkpt>
<trkpt lat="43.0157750000" lon="0.2248250000"><ele>1395</ele><time>2026-03-20T10:25:59Z</time></trkpt>
<trkpt lat="43.0157670000" lon="0.2248470000"><ele>1396</ele><time>2026-03-20T10:26:02Z</time></trkpt>
<trkpt lat="43.0157570000" lon="0.2248750000"><ele>1396</ele><time>2026-03-20T10:26:07Z</time></trkpt>
<trkpt lat="43.0157520000" lon="0.2249020000"><ele>1397</ele><time>2026-03-20T10:26:10Z</time></trkpt>
<trkpt lat="43.0157420000" lon="0.2249270000"><ele>1397</ele><time>2026-03-20T10:26:13Z</time></trkpt>
<trkpt lat="43.0157370000" lon="0.2249530000"><ele>1397</ele><time>2026-03-20T10:26:17Z</time></trkpt>
<trkpt lat="43.0157500000" lon="0.2249720000"><ele>1398</ele><time>2026-03-20T10:26:21Z</time></trkpt>
<trkpt lat="43.0157470000" lon="0.2249970000"><ele>1398</ele><time>2026-03-20T10:26:24Z</time></trkpt>
<trkpt lat="43.0157470000" lon="0.2250250000"><ele>1398</ele><time>2026-03-20T10:26:27Z</time></trkpt>
<trkpt lat="43.0157450000" lon="0.2250550000"><ele>1399</ele><time>2026-03-20T10:26:33Z</time></trkpt>
<trkpt lat="43.0157420000" lon="0.2250850000"><ele>1400</ele><time>2026-03-20T10:26:38Z</time></trkpt>
<trkpt lat="43.0157280000" lon="0.2251070000"><ele>1400</ele><time>2026-03-20T10:26:40Z</time></trkpt>
<trkpt lat="43.0157250000" lon="0.2251370000"><ele>1400</ele><time>2026-03-20T10:26:45Z</time></trkpt>
<trkpt lat="43.0157370000" lon="0.2251670000"><ele>1401</ele><time>2026-03-20T10:26:49Z</time></trkpt>
<trkpt lat="43.0157350000" lon="0.2251920000"><ele>1401</ele><time>2026-03-20T10:26:53Z</time></trkpt>
<trkpt lat="43.0157270000" lon="0.2252170000"><ele>1402</ele><time>2026-03-20T10:26:59Z</time></trkpt>
<trkpt lat="43.0157220000" lon="0.2252420000"><ele>1403</ele><time>2026-03-20T10:27:02Z</time></trkpt>
<trkpt lat="43.0157320000" lon="0.2252650000"><ele>1403</ele><time>2026-03-20T10:27:06Z</time></trkpt>
<trkpt lat="43.0157250000" lon="0.2252920000"><ele>1403</ele><time>2026-03-20T10:27:09Z</time></trkpt>
<trkpt lat="43.0157150000" lon="0.2253130000"><ele>1404</ele><time>2026-03-20T10:27:11Z</time></trkpt>
<trkpt lat="43.0157100000" lon="0.2253420000"><ele>1404</ele><time>2026-03-20T10:27:15Z</time></trkpt>
<trkpt lat="43.0157070000" lon="0.2253670000"><ele>1405</ele><time>2026-03-20T10:27:19Z</time></trkpt>
<trkpt lat="43.0157220000" lon="0.2253820000"><ele>1405</ele><time>2026-03-20T10:27:24Z</time></trkpt>
<trkpt lat="43.0157170000" lon="0.2254170000"><ele>1408</ele><time>2026-03-20T10:27:50Z</time></trkpt>
<trkpt lat="43.0157170000" lon="0.2254470000"><ele>1408</ele><time>2026-03-20T10:27:51Z</time></trkpt>
<trkpt lat="43.0157200000" lon="0.2254800000"><ele>1409</ele><time>2026-03-20T10:27:52Z</time></trkpt>
<trkpt lat="43.0157200000" lon="0.2255120000"><ele>1409</ele><time>2026-03-20T10:27:53Z</time></trkpt>
<trkpt lat="43.0157220000" lon="0.2255520000"><ele>1409</ele><time>2026-03-20T10:27:55Z</time></trkpt>
<trkpt lat="43.0157050000" lon="0.2255820000"><ele>1410</ele><time>2026-03-20T10:28:43Z</time></trkpt>
<trkpt lat="43.0156920000" lon="0.2256100000"><ele>1410</ele><time>2026-03-20T10:28:45Z</time></trkpt>
<trkpt lat="43.0156900000" lon="0.2256370000"><ele>1410</ele><time>2026-03-20T10:28:47Z</time></trkpt>
<trkpt lat="43.0156900000" lon="0.2256670000"><ele>1411</ele><time>2026-03-20T10:28:50Z</time></trkpt>
<trkpt lat="43.0156770000" lon="0.2256950000"><ele>1411</ele><time>2026-03-20T10:28:54Z</time></trkpt>
<trkpt lat="43.0156720000" lon="0.2257220000"><ele>1412</ele><time>2026-03-20T10:28:58Z</time></trkpt>
<trkpt lat="43.0156720000" lon="0.2257470000"><ele>1413</ele><time>2026-03-20T10:29:02Z</time></trkpt>
<trkpt lat="43.0156670000" lon="0.2257720000"><ele>1413</ele><time>2026-03-20T10:29:07Z</time></trkpt>
<trkpt lat="43.0156650000" lon="0.2257970000"><ele>1414</ele><time>2026-03-20T10:29:10Z</time></trkpt>
<trkpt lat="43.0156570000" lon="0.2258250000"><ele>1414</ele><time>2026-03-20T10:29:14Z</time></trkpt>
<trkpt lat="43.0156450000" lon="0.2258520000"><ele>1415</ele><time>2026-03-20T10:29:18Z</time></trkpt>
<trkpt lat="43.0156420000" lon="0.2258770000"><ele>1415</ele><time>2026-03-20T10:29:22Z</time></trkpt>
<trkpt lat="43.0156420000" lon="0.2259020000"><ele>1416</ele><time>2026-03-20T10:29:28Z</time></trkpt>
<trkpt lat="43.0156420000" lon="0.2259320000"><ele>1417</ele><time>2026-03-20T10:29:35Z</time></trkpt>
<trkpt lat="43.0156420000" lon="0.2259650000"><ele>1418</ele><time>2026-03-20T10:29:38Z</time></trkpt>
<trkpt lat="43.0156370000" lon="0.2259970000"><ele>1418</ele><time>2026-03-20T10:29:40Z</time></trkpt>
<trkpt lat="43.0156300000" lon="0.2260320000"><ele>1418</ele><time>2026-03-20T10:29:43Z</time></trkpt>
<trkpt lat="43.0156170000" lon="0.2260550000"><ele>1419</ele><time>2026-03-20T10:29:46Z</time></trkpt>
<trkpt lat="43.0156070000" lon="0.2260820000"><ele>1419</ele><time>2026-03-20T10:29:50Z</time></trkpt>
<trkpt lat="43.0155950000" lon="0.2261050000"><ele>1419</ele><time>2026-03-20T10:29:53Z</time></trkpt>
<trkpt lat="43.0155900000" lon="0.2261300000"><ele>1420</ele><time>2026-03-20T10:29:58Z</time></trkpt>
<trkpt lat="43.0155920000" lon="0.2261570000"><ele>1420</ele><time>2026-03-20T10:30:03Z</time></trkpt>
<trkpt lat="43.0155870000" lon="0.2261820000"><ele>1421</ele><time>2026-03-20T10:30:07Z</time></trkpt>
<trkpt lat="43.0155800000" lon="0.2262120000"><ele>1421</ele><time>2026-03-20T10:30:11Z</time></trkpt>
<trkpt lat="43.0155770000" lon="0.2262370000"><ele>1422</ele><time>2026-03-20T10:30:14Z</time></trkpt>
<trkpt lat="43.0155720000" lon="0.2262670000"><ele>1422</ele><time>2026-03-20T10:30:17Z</time></trkpt>
<trkpt lat="43.0155600000" lon="0.2262930000"><ele>1422</ele><time>2026-03-20T10:30:21Z</time></trkpt>
<trkpt lat="43.0155570000" lon="0.2263200000"><ele>1423</ele><time>2026-03-20T10:30:27Z</time></trkpt>
<trkpt lat="43.0155470000" lon="0.2263470000"><ele>1423</ele><time>2026-03-20T10:30:31Z</time></trkpt>
<trkpt lat="43.0155420000" lon="0.2263720000"><ele>1424</ele><time>2026-03-20T10:30:34Z</time></trkpt>
<trkpt lat="43.0155350000" lon="0.2263970000"><ele>1424</ele><time>2026-03-20T10:30:38Z</time></trkpt>
<trkpt lat="43.0155270000" lon="0.2264220000"><ele>1425</ele><time>2026-03-20T10:30:44Z</time></trkpt>
<trkpt lat="43.0155200000" lon="0.2264520000"><ele>1425</ele><time>2026-03-20T10:30:48Z</time></trkpt>
<trkpt lat="43.0155170000" lon="0.2264770000"><ele>1425</ele><time>2026-03-20T10:30:50Z</time></trkpt>
<trkpt lat="43.0155070000" lon="0.2265070000"><ele>1426</ele><time>2026-03-20T10:30:54Z</time></trkpt>
<trkpt lat="43.0154970000" lon="0.2265370000"><ele>1426</ele><time>2026-03-20T10:30:58Z</time></trkpt>
<trkpt lat="43.0154950000" lon="0.2265620000"><ele>1426</ele><time>2026-03-20T10:31:00Z</time></trkpt>
<trkpt lat="43.0154920000" lon="0.2265920000"><ele>1427</ele><time>2026-03-20T10:31:02Z</time></trkpt>
<trkpt lat="43.0154870000" lon="0.2266170000"><ele>1427</ele><time>2026-03-20T10:31:04Z</time></trkpt>
<trkpt lat="43.0154770000" lon="0.2266450000"><ele>1427</ele><time>2026-03-20T10:31:07Z</time></trkpt>
<trkpt lat="43.0154670000" lon="0.2266670000"><ele>1428</ele><time>2026-03-20T10:31:14Z</time></trkpt>
<trkpt lat="43.0154520000" lon="0.2266870000"><ele>1428</ele><time>2026-03-20T10:31:17Z</time></trkpt>
<trkpt lat="43.0154450000" lon="0.2267130000"><ele>1429</ele><time>2026-03-20T10:31:21Z</time></trkpt>
<trkpt lat="43.0154320000" lon="0.2267350000"><ele>1429</ele><time>2026-03-20T10:31:24Z</time></trkpt>
<trkpt lat="43.0154250000" lon="0.2267620000"><ele>1430</ele><time>2026-03-20T10:31:28Z</time></trkpt>
<trkpt lat="43.0154320000" lon="0.2267870000"><ele>1430</ele><time>2026-03-20T10:31:34Z</time></trkpt>
<trkpt lat="43.0154370000" lon="0.2268120000"><ele>1431</ele><time>2026-03-20T10:31:38Z</time></trkpt>
<trkpt lat="43.0154270000" lon="0.2268470000"><ele>1432</ele><time>2026-03-20T10:31:46Z</time></trkpt>
<trkpt lat="43.0154200000" lon="0.2268770000"><ele>1432</ele><time>2026-03-20T10:31:48Z</time></trkpt>
<trkpt lat="43.0154220000" lon="0.2269050000"><ele>1432</ele><time>2026-03-20T10:31:51Z</time></trkpt>
<trkpt lat="43.0154250000" lon="0.2269320000"><ele>1433</ele><time>2026-03-20T10:31:56Z</time></trkpt>
<trkpt lat="43.0154200000" lon="0.2269600000"><ele>1433</ele><time>2026-03-20T10:32:00Z</time></trkpt>
<trkpt lat="43.0154100000" lon="0.2270000000"><ele>1436</ele><time>2026-03-20T10:32:17Z</time></trkpt>
<trkpt lat="43.0154020000" lon="0.2270420000"><ele>1436</ele><time>2026-03-20T10:32:19Z</time></trkpt>
<trkpt lat="43.0154020000" lon="0.2270820000"><ele>1436</ele><time>2026-03-20T10:32:21Z</time></trkpt>
<trkpt lat="43.0153970000" lon="0.2271120000"><ele>1437</ele><time>2026-03-20T10:32:24Z</time></trkpt>
<trkpt lat="43.0153870000" lon="0.2271350000"><ele>1437</ele><time>2026-03-20T10:32:27Z</time></trkpt>
<trkpt lat="43.0153820000" lon="0.2271620000"><ele>1437</ele><time>2026-03-20T10:32:32Z</time></trkpt>
<trkpt lat="43.0153770000" lon="0.2271370000"><ele>1438</ele><time>2026-03-20T10:32:59Z</time></trkpt>
<trkpt lat="43.0153720000" lon="0.2271620000"><ele>1438</ele><time>2026-03-20T10:33:05Z</time></trkpt>
<trkpt lat="43.0153570000" lon="0.2271920000"><ele>1439</ele><time>2026-03-20T10:33:21Z</time></trkpt>
<trkpt lat="43.0153520000" lon="0.2272270000"><ele>1439</ele><time>2026-03-20T10:33:23Z</time></trkpt>
<trkpt lat="43.0153470000" lon="0.2272550000"><ele>1439</ele><time>2026-03-20T10:33:25Z</time></trkpt>
<trkpt lat="43.0153370000" lon="0.2272770000"><ele>1439</ele><time>2026-03-20T10:33:28Z</time></trkpt>
<trkpt lat="43.0153270000" lon="0.2273070000"><ele>1440</ele><time>2026-03-20T10:33:33Z</time></trkpt>
<trkpt lat="43.0153170000" lon="0.2273370000"><ele>1440</ele><time>2026-03-20T10:33:37Z</time></trkpt>
<trkpt lat="43.0153100000" lon="0.2273620000"><ele>1441</ele><time>2026-03-20T10:33:41Z</time></trkpt>
<trkpt lat="43.0153070000" lon="0.2273900000"><ele>1441</ele><time>2026-03-20T10:33:46Z</time></trkpt>
<trkpt lat="43.0153120000" lon="0.2274250000"><ele>1444</ele><time>2026-03-20T10:34:17Z</time></trkpt>
<trkpt lat="43.0153050000" lon="0.2274600000"><ele>1444</ele><time>2026-03-20T10:34:19Z</time></trkpt>
<trkpt lat="43.0152920000" lon="0.2275020000"><ele>1444</ele><time>2026-03-20T10:34:21Z</time></trkpt>
<trkpt lat="43.0152820000" lon="0.2275330000"><ele>1444</ele><time>2026-03-20T10:34:23Z</time></trkpt>
<trkpt lat="43.0152720000" lon="0.2275620000"><ele>1444</ele><time>2026-03-20T10:34:26Z</time></trkpt>
<trkpt lat="43.0152650000" lon="0.2275880000"><ele>1445</ele><time>2026-03-20T10:34:29Z</time></trkpt>
<trkpt lat="43.0152570000" lon="0.2276170000"><ele>1445</ele><time>2026-03-20T10:34:33Z</time></trkpt>
<trkpt lat="43.0152570000" lon="0.2276450000"><ele>1445</ele><time>2026-03-20T10:34:36Z</time></trkpt>
<trkpt lat="43.0152520000" lon="0.2276720000"><ele>1446</ele><time>2026-03-20T10:34:40Z</time></trkpt>
<trkpt lat="43.0152400000" lon="0.2276880000"><ele>1446</ele><time>2026-03-20T10:34:43Z</time></trkpt>
<trkpt lat="43.0152320000" lon="0.2277150000"><ele>1447</ele><time>2026-03-20T10:34:46Z</time></trkpt>
<trkpt lat="43.0152270000" lon="0.2277420000"><ele>1447</ele><time>2026-03-20T10:34:51Z</time></trkpt>
<trkpt lat="43.0152250000" lon="0.2277670000"><ele>1448</ele><time>2026-03-20T10:34:54Z</time></trkpt>
<trkpt lat="43.0152120000" lon="0.2277920000"><ele>1448</ele><time>2026-03-20T10:34:58Z</time></trkpt>
<trkpt lat="43.0152050000" lon="0.2278220000"><ele>1450</ele><time>2026-03-20T10:35:32Z</time></trkpt>
<trkpt lat="43.0151930000" lon="0.2278450000"><ele>1450</ele><time>2026-03-20T10:35:34Z</time></trkpt>
<trkpt lat="43.0151850000" lon="0.2278770000"><ele>1450</ele><time>2026-03-20T10:35:36Z</time></trkpt>
<trkpt lat="43.0151820000" lon="0.2279020000"><ele>1451</ele><time>2026-03-20T10:35:39Z</time></trkpt>
<trkpt lat="43.0151770000" lon="0.2279320000"><ele>1451</ele><time>2026-03-20T10:35:43Z</time></trkpt>
<trkpt lat="43.0151770000" lon="0.2279570000"><ele>1452</ele><time>2026-03-20T10:35:48Z</time></trkpt>
<trkpt lat="43.0151800000" lon="0.2279920000"><ele>1455</ele><time>2026-03-20T10:36:43Z</time></trkpt>
<trkpt lat="43.0151820000" lon="0.2280350000"><ele>1455</ele><time>2026-03-20T10:36:45Z</time></trkpt>
<trkpt lat="43.0151770000" lon="0.2280770000"><ele>1455</ele><time>2026-03-20T10:36:47Z</time></trkpt>
<trkpt lat="43.0151720000" lon="0.2281070000"><ele>1456</ele><time>2026-03-20T10:36:50Z</time></trkpt>
<trkpt lat="43.0151670000" lon="0.2281480000"><ele>1459</ele><time>2026-03-20T10:37:47Z</time></trkpt>
<trkpt lat="43.0151570000" lon="0.2281720000"><ele>1459</ele><time>2026-03-20T10:37:48Z</time></trkpt>
<trkpt lat="43.0151450000" lon="0.2282020000"><ele>1459</ele><time>2026-03-20T10:37:49Z</time></trkpt>
<trkpt lat="43.0151370000" lon="0.2282320000"><ele>1459</ele><time>2026-03-20T10:37:50Z</time></trkpt>
<trkpt lat="43.0151350000" lon="0.2282570000"><ele>1459</ele><time>2026-03-20T10:37:51Z</time></trkpt>
<trkpt lat="43.0151420000" lon="0.2282880000"><ele>1459</ele><time>2026-03-20T10:37:53Z</time></trkpt>
<trkpt lat="43.0151270000" lon="0.2282750000"><ele>1459</ele><time>2026-03-20T10:38:11Z</time></trkpt>
<trkpt lat="43.0151270000" lon="0.2283170000"><ele>1462</ele><time>2026-03-20T10:39:23Z</time></trkpt>
<trkpt lat="43.0151320000" lon="0.2283620000"><ele>1463</ele><time>2026-03-20T10:39:25Z</time></trkpt>
<trkpt lat="43.0151270000" lon="0.2283900000"><ele>1463</ele><time>2026-03-20T10:39:28Z</time></trkpt>
<trkpt lat="43.0151370000" lon="0.2284170000"><ele>1464</ele><time>2026-03-20T10:39:53Z</time></trkpt>
<trkpt lat="43.0151320000" lon="0.2284470000"><ele>1464</ele><time>2026-03-20T10:39:56Z</time></trkpt>
<trkpt lat="43.0151220000" lon="0.2284750000"><ele>1465</ele><time>2026-03-20T10:40:00Z</time></trkpt>
<trkpt lat="43.0151170000" lon="0.2285020000"><ele>1466</ele><time>2026-03-20T10:40:10Z</time></trkpt>
<trkpt lat="43.0151100000" lon="0.2285270000"><ele>1466</ele><time>2026-03-20T10:40:12Z</time></trkpt>
<trkpt lat="43.0151000000" lon="0.2285520000"><ele>1467</ele><time>2026-03-20T10:40:14Z</time></trkpt>
<trkpt lat="43.0150920000" lon="0.2285770000"><ele>1467</ele><time>2026-03-20T10:40:16Z</time></trkpt>
<trkpt lat="43.0150870000" lon="0.2286020000"><ele>1467</ele><time>2026-03-20T10:40:19Z</time></trkpt>
<trkpt lat="43.0150820000" lon="0.2286270000"><ele>1468</ele><time>2026-03-20T10:40:23Z</time></trkpt>
<trkpt lat="43.0150750000" lon="0.2286520000"><ele>1468</ele><time>2026-03-20T10:40:27Z</time></trkpt>
<trkpt lat="43.0150720000" lon="0.2286770000"><ele>1468</ele><time>2026-03-20T10:40:30Z</time></trkpt>
<trkpt lat="43.0150670000" lon="0.2287020000"><ele>1469</ele><time>2026-03-20T10:40:33Z</time></trkpt>
<trkpt lat="43.0150530000" lon="0.2287270000"><ele>1470</ele><time>2026-03-20T10:40:38Z</time></trkpt>
<trkpt lat="43.0150420000" lon="0.2287520000"><ele>1471</ele><time>2026-03-20T10:40:48Z</time></trkpt>
<trkpt lat="43.0150370000" lon="0.2287830000"><ele>1473</ele><time>2026-03-20T10:41:04Z</time></trkpt>
<trkpt lat="43.0150320000" lon="0.2288120000"><ele>1473</ele><time>2026-03-20T10:41:05Z</time></trkpt>
<trkpt lat="43.0150270000" lon="0.2288420000"><ele>1473</ele><time>2026-03-20T10:41:06Z</time></trkpt>
<trkpt lat="43.0150200000" lon="0.2288720000"><ele>1474</ele><time>2026-03-20T10:41:08Z</time></trkpt>
<trkpt lat="43.0150170000" lon="0.2289050000"><ele>1474</ele><time>2026-03-20T10:41:23Z</time></trkpt>
<trkpt lat="43.0149870000" lon="0.2289070000"><ele>1475</ele><time>2026-03-20T10:41:52Z</time></trkpt>
<trkpt lat="43.0149620000" lon="0.2289200000"><ele>1475</ele><time>2026-03-20T10:41:54Z</time></trkpt>
<trkpt lat="43.0149520000" lon="0.2289420000"><ele>1475</ele><time>2026-03-20T10:41:56Z</time></trkpt>
<trkpt lat="43.0149550000" lon="0.2289720000"><ele>1475</ele><time>2026-03-20T10:41:59Z</time></trkpt>
<trkpt lat="43.0149500000" lon="0.2290050000"><ele>1476</ele><time>2026-03-20T10:42:03Z</time></trkpt>
<trkpt lat="43.0149350000" lon="0.2290270000"><ele>1476</ele><time>2026-03-20T10:42:06Z</time></trkpt>
<trkpt lat="43.0149200000" lon="0.2290500000"><ele>1477</ele><time>2026-03-20T10:42:09Z</time></trkpt>
<trkpt lat="43.0149020000" lon="0.2290730000"><ele>1476</ele><time>2026-03-20T10:42:12Z</time></trkpt>
<trkpt lat="43.0148950000" lon="0.2291020000"><ele>1476</ele><time>2026-03-20T10:42:15Z</time></trkpt>
<trkpt lat="43.0148850000" lon="0.2291270000"><ele>1477</ele><time>2026-03-20T10:42:18Z</time></trkpt>
<trkpt lat="43.0148720000" lon="0.2291500000"><ele>1477</ele><time>2026-03-20T10:42:20Z</time></trkpt>
<trkpt lat="43.0148750000" lon="0.2291750000"><ele>1477</ele><time>2026-03-20T10:42:23Z</time></trkpt>
<trkpt lat="43.0148620000" lon="0.2292020000"><ele>1477</ele><time>2026-03-20T10:42:27Z</time></trkpt>
<trkpt lat="43.0148670000" lon="0.2292320000"><ele>1478</ele><time>2026-03-20T10:42:30Z</time></trkpt>
<trkpt lat="43.0148670000" lon="0.2292620000"><ele>1478</ele><time>2026-03-20T10:42:33Z</time></trkpt>
<trkpt lat="43.0148420000" lon="0.2292770000"><ele>1479</ele><time>2026-03-20T10:42:36Z</time></trkpt>
<trkpt lat="43.0148250000" lon="0.2292970000"><ele>1479</ele><time>2026-03-20T10:42:38Z</time></trkpt>
<trkpt lat="43.0148100000" lon="0.2293120000"><ele>1479</ele><time>2026-03-20T10:42:40Z</time></trkpt>
<trkpt lat="43.0148120000" lon="0.2292820000"><ele>1480</ele><time>2026-03-20T10:42:43Z</time></trkpt>
<trkpt lat="43.0148070000" lon="0.2292570000"><ele>1480</ele><time>2026-03-20T10:42:48Z</time></trkpt>
<trkpt lat="43.0147900000" lon="0.2292950000"><ele>1481</ele><time>2026-03-20T10:43:02Z</time></trkpt>
<trkpt lat="43.0147720000" lon="0.2293270000"><ele>1481</ele><time>2026-03-20T10:43:04Z</time></trkpt>
<trkpt lat="43.0147650000" lon="0.2293570000"><ele>1482</ele><time>2026-03-20T10:43:06Z</time></trkpt>
<trkpt lat="43.0147620000" lon="0.2293820000"><ele>1482</ele><time>2026-03-20T10:43:08Z</time></trkpt>
<trkpt lat="43.0147430000" lon="0.2294020000"><ele>1482</ele><time>2026-03-20T10:43:11Z</time></trkpt>
<trkpt lat="43.0147370000" lon="0.2294270000"><ele>1483</ele><time>2026-03-20T10:43:15Z</time></trkpt>
<trkpt lat="43.0147300000" lon="0.2294520000"><ele>1483</ele><time>2026-03-20T10:43:19Z</time></trkpt>
<trkpt lat="43.0147220000" lon="0.2294770000"><ele>1484</ele><time>2026-03-20T10:43:22Z</time></trkpt>
<trkpt lat="43.0147050000" lon="0.2294970000"><ele>1484</ele><time>2026-03-20T10:43:26Z</time></trkpt>
<trkpt lat="43.0146870000" lon="0.2295220000"><ele>1488</ele><time>2026-03-20T10:43:50Z</time></trkpt>
<trkpt lat="43.0146600000" lon="0.2295420000"><ele>1488</ele><time>2026-03-20T10:43:52Z</time></trkpt>
<trkpt lat="43.0146370000" lon="0.2295620000"><ele>1488</ele><time>2026-03-20T10:43:54Z</time></trkpt>
<trkpt lat="43.0146250000" lon="0.2295820000"><ele>1488</ele><time>2026-03-20T10:43:56Z</time></trkpt>
<trkpt lat="43.0146120000" lon="0.2296070000"><ele>1488</ele><time>2026-03-20T10:43:59Z</time></trkpt>
<trkpt lat="43.0145920000" lon="0.2296120000"><ele>1488</ele><time>2026-03-20T10:44:02Z</time></trkpt>
<trkpt lat="43.0145770000" lon="0.2296270000"><ele>1488</ele><time>2026-03-20T10:44:05Z</time></trkpt>
<trkpt lat="43.0145650000" lon="0.2296500000"><ele>1489</ele><time>2026-03-20T10:44:08Z</time></trkpt>
<trkpt lat="43.0145520000" lon="0.2296720000"><ele>1489</ele><time>2026-03-20T10:44:11Z</time></trkpt>
<trkpt lat="43.0145400000" lon="0.2296970000"><ele>1489</ele><time>2026-03-20T10:44:24Z</time></trkpt>
<trkpt lat="43.0145400000" lon="0.2297320000"><ele>1491</ele><time>2026-03-20T10:45:05Z</time></trkpt>
<trkpt lat="43.0145370000" lon="0.2297620000"><ele>1491</ele><time>2026-03-20T10:45:07Z</time></trkpt>
<trkpt lat="43.0145170000" lon="0.2297820000"><ele>1497</ele><time>2026-03-20T10:47:46Z</time></trkpt>
<trkpt lat="43.0144900000" lon="0.2297920000"><ele>1497</ele><time>2026-03-20T10:47:48Z</time></trkpt>
<trkpt lat="43.0144870000" lon="0.2298220000"><ele>1500</ele><time>2026-03-20T10:48:34Z</time></trkpt>
<trkpt lat="43.0144850000" lon="0.2298670000"><ele>1501</ele><time>2026-03-20T10:48:36Z</time></trkpt>
<trkpt lat="43.0144820000" lon="0.2298970000"><ele>1501</ele><time>2026-03-20T10:48:38Z</time></trkpt>
<trkpt lat="43.0144820000" lon="0.2299270000"><ele>1504</ele><time>2026-03-20T10:48:58Z</time></trkpt>
<trkpt lat="43.0144700000" lon="0.2299420000"><ele>1504</ele><time>2026-03-20T10:49:01Z</time></trkpt>
<trkpt lat="43.0144620000" lon="0.2299670000"><ele>1504</ele><time>2026-03-20T10:49:05Z</time></trkpt>
<trkpt lat="43.0144800000" lon="0.2299770000"><ele>1504</ele><time>2026-03-20T10:50:06Z</time></trkpt>
<trkpt lat="43.0145020000" lon="0.2299820000"><ele>1505</ele><time>2026-03-20T10:50:10Z</time></trkpt>
<trkpt lat="43.0145220000" lon="0.2299900000"><ele>1506</ele><time>2026-03-20T10:50:18Z</time></trkpt>
<trkpt lat="43.0145170000" lon="0.2300320000"><ele>1513</ele><time>2026-03-20T10:51:32Z</time></trkpt>
<trkpt lat="43.0145120000" lon="0.2300600000"><ele>1513</ele><time>2026-03-20T10:51:33Z</time></trkpt>
<trkpt lat="43.0145050000" lon="0.2300870000"><ele>1513</ele><time>2026-03-20T10:51:34Z</time></trkpt>
<trkpt lat="43.0144920000" lon="0.2301220000"><ele>1514</ele><time>2026-03-20T10:51:36Z</time></trkpt>
<trkpt lat="43.0144970000" lon="0.2301520000"><ele>1515</ele><time>2026-03-20T10:52:18Z</time></trkpt>
<trkpt lat="43.0144720000" lon="0.2301620000"><ele>1515</ele><time>2026-03-20T10:52:21Z</time></trkpt>
<trkpt lat="43.0144550000" lon="0.2301700000"><ele>1516</ele><time>2026-03-20T10:52:24Z</time></trkpt>
<trkpt lat="43.0144320000" lon="0.2301670000"><ele>1521</ele><time>2026-03-20T10:53:48Z</time></trkpt>
<trkpt lat="43.0144120000" lon="0.2301600000"><ele>1521</ele><time>2026-03-20T10:53:49Z</time></trkpt>
<trkpt lat="43.0143850000" lon="0.2301520000"><ele>1521</ele><time>2026-03-20T10:53:50Z</time></trkpt>
<trkpt lat="43.0143600000" lon="0.2301500000"><ele>1522</ele><time>2026-03-20T10:53:51Z</time></trkpt>
<trkpt lat="43.0143370000" lon="0.2301500000"><ele>1522</ele><time>2026-03-20T10:53:52Z</time></trkpt>
<trkpt lat="43.0143120000" lon="0.2301650000"><ele>1522</ele><time>2026-03-20T10:53:54Z</time></trkpt>
<trkpt lat="43.0142920000" lon="0.2301820000"><ele>1522</ele><time>2026-03-20T10:53:57Z</time></trkpt>
<trkpt lat="43.0142700000" lon="0.2301870000"><ele>1523</ele><time>2026-03-20T10:54:00Z</time></trkpt>
<trkpt lat="43.0142570000" lon="0.2302050000"><ele>1523</ele><time>2026-03-20T10:54:03Z</time></trkpt>
<trkpt lat="43.0142400000" lon="0.2302220000"><ele>1523</ele><time>2026-03-20T10:54:09Z</time></trkpt>
<trkpt lat="43.0142220000" lon="0.2302420000"><ele>1524</ele><time>2026-03-20T10:54:14Z</time></trkpt>
<trkpt lat="43.0142020000" lon="0.2302470000"><ele>1525</ele><time>2026-03-20T10:54:19Z</time></trkpt>
<trkpt lat="43.0141950000" lon="0.2302700000"><ele>1526</ele><time>2026-03-20T10:54:23Z</time></trkpt>
<trkpt lat="43.0141800000" lon="0.2302950000"><ele>1527</ele><time>2026-03-20T10:54:27Z</time></trkpt>
<trkpt lat="43.0141600000" lon="0.2303020000"><ele>1527</ele><time>2026-03-20T10:54:31Z</time></trkpt>
<trkpt lat="43.0141820000" lon="0.2303270000"><ele>1532</ele><time>2026-03-20T10:55:29Z</time></trkpt>
<trkpt lat="43.0142050000" lon="0.2303470000"><ele>1532</ele><time>2026-03-20T10:55:31Z</time></trkpt>
<trkpt lat="43.0142050000" lon="0.2303770000"><ele>1532</ele><time>2026-03-20T10:55:34Z</time></trkpt>
<trkpt lat="43.0141920000" lon="0.2303950000"><ele>1533</ele><time>2026-03-20T10:55:38Z</time></trkpt>
<trkpt lat="43.0142070000" lon="0.2304170000"><ele>1536</ele><time>2026-03-20T10:55:55Z</time></trkpt>
<trkpt lat="43.0142050000" lon="0.2304450000"><ele>1537</ele><time>2026-03-20T10:55:59Z</time></trkpt>
<trkpt lat="43.0141900000" lon="0.2304670000"><ele>1537</ele><time>2026-03-20T10:56:03Z</time></trkpt>
<trkpt lat="43.0141770000" lon="0.2304920000"><ele>1539</ele><time>2026-03-20T10:56:35Z</time></trkpt>
<trkpt lat="43.0142000000" lon="0.2304870000"><ele>1540</ele><time>2026-03-20T10:56:43Z</time></trkpt>
<trkpt lat="43.0142070000" lon="0.2305320000"><ele>1546</ele><time>2026-03-20T10:57:31Z</time></trkpt>
<trkpt lat="43.0142120000" lon="0.2305620000"><ele>1546</ele><time>2026-03-20T10:57:32Z</time></trkpt>
<trkpt lat="43.0142120000" lon="0.2305920000"><ele>1546</ele><time>2026-03-20T10:57:33Z</time></trkpt>
<trkpt lat="43.0142120000" lon="0.2306270000"><ele>1546</ele><time>2026-03-20T10:57:35Z</time></trkpt>
<trkpt lat="43.0141970000" lon="0.2306550000"><ele>1547</ele><time>2026-03-20T10:57:38Z</time></trkpt>
<trkpt lat="43.0141920000" lon="0.2306820000"><ele>1548</ele><time>2026-03-20T10:57:43Z</time></trkpt>
<trkpt lat="43.0141720000" lon="0.2306950000"><ele>1549</ele><time>2026-03-20T10:57:48Z</time></trkpt>
<trkpt lat="43.0141520000" lon="0.2307070000"><ele>1549</ele><time>2026-03-20T10:57:52Z</time></trkpt>
<trkpt lat="43.0141770000" lon="0.2307120000"><ele>1550</ele><time>2026-03-20T10:57:54Z</time></trkpt>
<trkpt lat="43.0141700000" lon="0.2307420000"><ele>1555</ele><time>2026-03-20T10:59:50Z</time></trkpt>
<trkpt lat="43.0141600000" lon="0.2307650000"><ele>1556</ele><time>2026-03-20T10:59:51Z</time></trkpt>
<trkpt lat="43.0141380000" lon="0.2308120000"><ele>1556</ele><time>2026-03-20T10:59:54Z</time></trkpt>
<trkpt lat="43.0141270000" lon="0.2308350000"><ele>1556</ele><time>2026-03-20T11:00:39Z</time></trkpt>
<trkpt lat="43.0141100000" lon="0.2308300000"><ele>1559</ele><time>2026-03-20T11:00:59Z</time></trkpt>
<trkpt lat="43.0140850000" lon="0.2308220000"><ele>1559</ele><time>2026-03-20T11:01:01Z</time></trkpt>
<trkpt lat="43.0140520000" lon="0.2308070000"><ele>1560</ele><time>2026-03-20T11:01:04Z</time></trkpt>
<trkpt lat="43.0140350000" lon="0.2308020000"><ele>1561</ele><time>2026-03-20T11:01:07Z</time></trkpt>
<trkpt lat="43.0140170000" lon="0.2307950000"><ele>1561</ele><time>2026-03-20T11:01:13Z</time></trkpt>
<trkpt lat="43.0140000000" lon="0.2307770000"><ele>1563</ele><time>2026-03-20T11:01:35Z</time></trkpt>
<trkpt lat="43.0139830000" lon="0.2307520000"><ele>1563</ele><time>2026-03-20T11:01:38Z</time></trkpt>
<trkpt lat="43.0139800000" lon="0.2308020000"><ele>1569</ele><time>2026-03-20T11:02:37Z</time></trkpt>
<trkpt lat="43.0139800000" lon="0.2308370000"><ele>1569</ele><time>2026-03-20T11:02:38Z</time></trkpt>
<trkpt lat="43.0139820000" lon="0.2308720000"><ele>1569</ele><time>2026-03-20T11:02:39Z</time></trkpt>
<trkpt lat="43.0139870000" lon="0.2309000000"><ele>1570</ele><time>2026-03-20T11:02:40Z</time></trkpt>
<trkpt lat="43.0139920000" lon="0.2309230000"><ele>1570</ele><time>2026-03-20T11:02:43Z</time></trkpt>
<trkpt lat="43.0139770000" lon="0.2309470000"><ele>1573</ele><time>2026-03-20T11:03:23Z</time></trkpt>
<trkpt lat="43.0139670000" lon="0.2309970000"><ele>1573</ele><time>2026-03-20T11:03:25Z</time></trkpt>
<trkpt lat="43.0139570000" lon="0.2310270000"><ele>1574</ele><time>2026-03-20T11:03:26Z</time></trkpt>
<trkpt lat="43.0139470000" lon="0.2310470000"><ele>1574</ele><time>2026-03-20T11:03:27Z</time></trkpt>
<trkpt lat="43.0139300000" lon="0.2310700000"><ele>1574</ele><time>2026-03-20T11:03:29Z</time></trkpt>
<trkpt lat="43.0139070000" lon="0.2310850000"><ele>1575</ele><time>2026-03-20T11:03:32Z</time></trkpt>
<trkpt lat="43.0139020000" lon="0.2311100000"><ele>1575</ele><time>2026-03-20T11:03:37Z</time></trkpt>
<trkpt lat="43.0139100000" lon="0.2311370000"><ele>1579</ele><time>2026-03-20T11:04:12Z</time></trkpt>
<trkpt lat="43.0139070000" lon="0.2311700000"><ele>1580</ele><time>2026-03-20T11:04:14Z</time></trkpt>
<trkpt lat="43.0138970000" lon="0.2312030000"><ele>1580</ele><time>2026-03-20T11:04:16Z</time></trkpt>
<trkpt lat="43.0138850000" lon="0.2312270000"><ele>1580</ele><time>2026-03-20T11:04:18Z</time></trkpt>
<trkpt lat="43.0138670000" lon="0.2312320000"><ele>1581</ele><time>2026-03-20T11:04:23Z</time></trkpt>
<trkpt lat="43.0138500000" lon="0.2312470000"><ele>1586</ele><time>2026-03-20T11:05:05Z</time></trkpt>
<trkpt lat="43.0138420000" lon="0.2312920000"><ele>1586</ele><time>2026-03-20T11:05:07Z</time></trkpt>
<trkpt lat="43.0138250000" lon="0.2313250000"><ele>1586</ele><time>2026-03-20T11:05:09Z</time></trkpt>
<trkpt lat="43.0138050000" lon="0.2313220000"><ele>1587</ele><time>2026-03-20T11:05:12Z</time></trkpt>
<trkpt lat="43.0137870000" lon="0.2313070000"><ele>1587</ele><time>2026-03-20T11:05:16Z</time></trkpt>
<trkpt lat="43.0137750000" lon="0.2312870000"><ele>1588</ele><time>2026-03-20T11:05:20Z</time></trkpt>
<trkpt lat="43.0137570000" lon="0.2312800000"><ele>1589</ele><time>2026-03-20T11:05:27Z</time></trkpt>
<trkpt lat="43.0137800000" lon="0.2312820000"><ele>1590</ele><time>2026-03-20T11:11:57Z</time></trkpt>
<trkpt lat="43.0137620000" lon="0.2312750000"><ele>1593</ele><time>2026-03-20T11:19:25Z</time></trkpt>
<trkpt lat="43.0137670000" lon="0.2313000000"><ele>1594</ele><time>2026-03-20T11:23:12Z</time></trkpt>
<trkpt lat="43.0137470000" lon="0.2313070000"><ele>1594</ele><time>2026-03-20T11:24:37Z</time></trkpt>
<trkpt lat="43.0137670000" lon="0.2312930000"><ele>1595</ele><time>2026-03-20T11:27:00Z</time></trkpt>
<trkpt lat="43.0137920000" lon="0.2313020000"><ele>1594</ele><time>2026-03-20T11:27:02Z</time></trkpt>
<trkpt lat="43.0138170000" lon="0.2313170000"><ele>1594</ele><time>2026-03-20T11:27:04Z</time></trkpt>
<trkpt lat="43.0138370000" lon="0.2313350000"><ele>1594</ele><time>2026-03-20T11:27:06Z</time></trkpt>
<trkpt lat="43.0138550000" lon="0.2313520000"><ele>1593</ele><time>2026-03-20T11:27:08Z</time></trkpt>
<trkpt lat="43.0138700000" lon="0.2313720000"><ele>1593</ele><time>2026-03-20T11:27:10Z</time></trkpt>
<trkpt lat="43.0138850000" lon="0.2313970000"><ele>1592</ele><time>2026-03-20T11:27:13Z</time></trkpt>
<trkpt lat="43.0139050000" lon="0.2314220000"><ele>1591</ele><time>2026-03-20T11:27:31Z</time></trkpt>
<trkpt lat="43.0139220000" lon="0.2314320000"><ele>1591</ele><time>2026-03-20T11:27:33Z</time></trkpt>
<trkpt lat="43.0139470000" lon="0.2314420000"><ele>1591</ele><time>2026-03-20T11:27:48Z</time></trkpt>
<trkpt lat="43.0139770000" lon="0.2314500000"><ele>1591</ele><time>2026-03-20T11:27:50Z</time></trkpt>
<trkpt lat="43.0140070000" lon="0.2314620000"><ele>1590</ele><time>2026-03-20T11:27:52Z</time></trkpt>
<trkpt lat="43.0140370000" lon="0.2314780000"><ele>1590</ele><time>2026-03-20T11:27:54Z</time></trkpt>
<trkpt lat="43.0140570000" lon="0.2315020000"><ele>1590</ele><time>2026-03-20T11:27:56Z</time></trkpt>
<trkpt lat="43.0140720000" lon="0.2315300000"><ele>1590</ele><time>2026-03-20T11:27:58Z</time></trkpt>
<trkpt lat="43.0140770000" lon="0.2315570000"><ele>1590</ele><time>2026-03-20T11:28:00Z</time></trkpt>
<trkpt lat="43.0140870000" lon="0.2315820000"><ele>1590</ele><time>2026-03-20T11:28:02Z</time></trkpt>
<trkpt lat="43.0140970000" lon="0.2316070000"><ele>1589</ele><time>2026-03-20T11:28:04Z</time></trkpt>
<trkpt lat="43.0141070000" lon="0.2316320000"><ele>1589</ele><time>2026-03-20T11:28:06Z</time></trkpt>
<trkpt lat="43.0141120000" lon="0.2316620000"><ele>1589</ele><time>2026-03-20T11:28:08Z</time></trkpt>
<trkpt lat="43.0141220000" lon="0.2316870000"><ele>1588</ele><time>2026-03-20T11:28:10Z</time></trkpt>
<trkpt lat="43.0141370000" lon="0.2317120000"><ele>1588</ele><time>2026-03-20T11:28:12Z</time></trkpt>
<trkpt lat="43.0141520000" lon="0.2317370000"><ele>1587</ele><time>2026-03-20T11:28:14Z</time></trkpt>
<trkpt lat="43.0141670000" lon="0.2317570000"><ele>1587</ele><time>2026-03-20T11:28:16Z</time></trkpt>
<trkpt lat="43.0141800000" lon="0.2317770000"><ele>1586</ele><time>2026-03-20T11:28:18Z</time></trkpt>
<trkpt lat="43.0141900000" lon="0.2318070000"><ele>1586</ele><time>2026-03-20T11:28:21Z</time></trkpt>
<trkpt lat="43.0142070000" lon="0.2318270000"><ele>1585</ele><time>2026-03-20T11:28:23Z</time></trkpt>
<trkpt lat="43.0142070000" lon="0.2318520000"><ele>1585</ele><time>2026-03-20T11:28:25Z</time></trkpt>
<trkpt lat="43.0142170000" lon="0.2318750000"><ele>1585</ele><time>2026-03-20T11:28:27Z</time></trkpt>
<trkpt lat="43.0142220000" lon="0.2319000000"><ele>1584</ele><time>2026-03-20T11:28:29Z</time></trkpt>
<trkpt lat="43.0142370000" lon="0.2319200000"><ele>1583</ele><time>2026-03-20T11:28:31Z</time></trkpt>
<trkpt lat="43.0142450000" lon="0.2319420000"><ele>1583</ele><time>2026-03-20T11:28:33Z</time></trkpt>
<trkpt lat="43.0142520000" lon="0.2319670000"><ele>1582</ele><time>2026-03-20T11:28:35Z</time></trkpt>
<trkpt lat="43.0142570000" lon="0.2319920000"><ele>1582</ele><time>2026-03-20T11:28:37Z</time></trkpt>
<trkpt lat="43.0142520000" lon="0.2320170000"><ele>1581</ele><time>2026-03-20T11:28:39Z</time></trkpt>
<trkpt lat="43.0142500000" lon="0.2320520000"><ele>1581</ele><time>2026-03-20T11:28:42Z</time></trkpt>
<trkpt lat="43.0142620000" lon="0.2320770000"><ele>1580</ele><time>2026-03-20T11:28:45Z</time></trkpt>
<trkpt lat="43.0142700000" lon="0.2321070000"><ele>1579</ele><time>2026-03-20T11:28:48Z</time></trkpt>
<trkpt lat="43.0142720000" lon="0.2321450000"><ele>1578</ele><time>2026-03-20T11:28:51Z</time></trkpt>
<trkpt lat="43.0142750000" lon="0.2321720000"><ele>1577</ele><time>2026-03-20T11:28:53Z</time></trkpt>
<trkpt lat="43.0142770000" lon="0.2321970000"><ele>1577</ele><time>2026-03-20T11:28:55Z</time></trkpt>
<trkpt lat="43.0142800000" lon="0.2322250000"><ele>1576</ele><time>2026-03-20T11:28:59Z</time></trkpt>
<trkpt lat="43.0142900000" lon="0.2322470000"><ele>1575</ele><time>2026-03-20T11:29:02Z</time></trkpt>
<trkpt lat="43.0142750000" lon="0.2322620000"><ele>1575</ele><time>2026-03-20T11:29:05Z</time></trkpt>
<trkpt lat="43.0142520000" lon="0.2322630000"><ele>1574</ele><time>2026-03-20T11:29:31Z</time></trkpt>
<trkpt lat="43.0142270000" lon="0.2322720000"><ele>1574</ele><time>2026-03-20T11:29:33Z</time></trkpt>
<trkpt lat="43.0142020000" lon="0.2322920000"><ele>1573</ele><time>2026-03-20T11:29:35Z</time></trkpt>
<trkpt lat="43.0141920000" lon="0.2323130000"><ele>1573</ele><time>2026-03-20T11:29:37Z</time></trkpt>
<trkpt lat="43.0141820000" lon="0.2323450000"><ele>1573</ele><time>2026-03-20T11:29:40Z</time></trkpt>
<trkpt lat="43.0141670000" lon="0.2323700000"><ele>1572</ele><time>2026-03-20T11:29:43Z</time></trkpt>
<trkpt lat="43.0141520000" lon="0.2323900000"><ele>1572</ele><time>2026-03-20T11:29:45Z</time></trkpt>
<trkpt lat="43.0141370000" lon="0.2324170000"><ele>1571</ele><time>2026-03-20T11:29:48Z</time></trkpt>
<trkpt lat="43.0141450000" lon="0.2324420000"><ele>1570</ele><time>2026-03-20T11:29:51Z</time></trkpt>
<trkpt lat="43.0141470000" lon="0.2324800000"><ele>1569</ele><time>2026-03-20T11:29:54Z</time></trkpt>
<trkpt lat="43.0141420000" lon="0.2325020000"><ele>1568</ele><time>2026-03-20T11:29:56Z</time></trkpt>
<trkpt lat="43.0141420000" lon="0.2325280000"><ele>1567</ele><time>2026-03-20T11:29:59Z</time></trkpt>
<trkpt lat="43.0141520000" lon="0.2325520000"><ele>1566</ele><time>2026-03-20T11:30:02Z</time></trkpt>
<trkpt lat="43.0141420000" lon="0.2325770000"><ele>1565</ele><time>2026-03-20T11:30:05Z</time></trkpt>
<trkpt lat="43.0141470000" lon="0.2326020000"><ele>1564</ele><time>2026-03-20T11:30:08Z</time></trkpt>
<trkpt lat="43.0141700000" lon="0.2326170000"><ele>1564</ele><time>2026-03-20T11:30:11Z</time></trkpt>
<trkpt lat="43.0141900000" lon="0.2326250000"><ele>1563</ele><time>2026-03-20T11:30:13Z</time></trkpt>
<trkpt lat="43.0142120000" lon="0.2326400000"><ele>1562</ele><time>2026-03-20T11:30:16Z</time></trkpt>
<trkpt lat="43.0142320000" lon="0.2326620000"><ele>1561</ele><time>2026-03-20T11:30:19Z</time></trkpt>
<trkpt lat="43.0142500000" lon="0.2326870000"><ele>1560</ele><time>2026-03-20T11:30:22Z</time></trkpt>
<trkpt lat="43.0142650000" lon="0.2327120000"><ele>1560</ele><time>2026-03-20T11:30:25Z</time></trkpt>
<trkpt lat="43.0142850000" lon="0.2327270000"><ele>1559</ele><time>2026-03-20T11:30:28Z</time></trkpt>
<trkpt lat="43.0142970000" lon="0.2327420000"><ele>1558</ele><time>2026-03-20T11:30:31Z</time></trkpt>
<trkpt lat="43.0142920000" lon="0.2327670000"><ele>1557</ele><time>2026-03-20T11:30:34Z</time></trkpt>
<trkpt lat="43.0143020000" lon="0.2327870000"><ele>1556</ele><time>2026-03-20T11:30:38Z</time></trkpt>
<trkpt lat="43.0143220000" lon="0.2327970000"><ele>1555</ele><time>2026-03-20T11:30:41Z</time></trkpt>
<trkpt lat="43.0143370000" lon="0.2328070000"><ele>1554</ele><time>2026-03-20T11:30:44Z</time></trkpt>
<trkpt lat="43.0143570000" lon="0.2328370000"><ele>1554</ele><time>2026-03-20T11:30:47Z</time></trkpt>
<trkpt lat="43.0143620000" lon="0.2328620000"><ele>1553</ele><time>2026-03-20T11:30:49Z</time></trkpt>
<trkpt lat="43.0143770000" lon="0.2328850000"><ele>1550</ele><time>2026-03-20T11:31:08Z</time></trkpt>
<trkpt lat="43.0143870000" lon="0.2329120000"><ele>1550</ele><time>2026-03-20T11:31:10Z</time></trkpt>
<trkpt lat="43.0143920000" lon="0.2329420000"><ele>1550</ele><time>2026-03-20T11:31:12Z</time></trkpt>
<trkpt lat="43.0143870000" lon="0.2329670000"><ele>1549</ele><time>2026-03-20T11:31:14Z</time></trkpt>
<trkpt lat="43.0143800000" lon="0.2329900000"><ele>1549</ele><time>2026-03-20T11:31:16Z</time></trkpt>
<trkpt lat="43.0143720000" lon="0.2330150000"><ele>1548</ele><time>2026-03-20T11:31:18Z</time></trkpt>
<trkpt lat="43.0143600000" lon="0.2330370000"><ele>1547</ele><time>2026-03-20T11:31:20Z</time></trkpt>
<trkpt lat="43.0143570000" lon="0.2330720000"><ele>1547</ele><time>2026-03-20T11:31:23Z</time></trkpt>
<trkpt lat="43.0143570000" lon="0.2330970000"><ele>1546</ele><time>2026-03-20T11:31:25Z</time></trkpt>
<trkpt lat="43.0143470000" lon="0.2331300000"><ele>1545</ele><time>2026-03-20T11:31:28Z</time></trkpt>
<trkpt lat="43.0143520000" lon="0.2331620000"><ele>1544</ele><time>2026-03-20T11:31:31Z</time></trkpt>
<trkpt lat="43.0143620000" lon="0.2331920000"><ele>1543</ele><time>2026-03-20T11:31:34Z</time></trkpt>
<trkpt lat="43.0143670000" lon="0.2332270000"><ele>1543</ele><time>2026-03-20T11:31:37Z</time></trkpt>
<trkpt lat="43.0143800000" lon="0.2332470000"><ele>1540</ele><time>2026-03-20T11:32:18Z</time></trkpt>
<trkpt lat="43.0144050000" lon="0.2332620000"><ele>1540</ele><time>2026-03-20T11:32:21Z</time></trkpt>
<trkpt lat="43.0144270000" lon="0.2332720000"><ele>1539</ele><time>2026-03-20T11:32:23Z</time></trkpt>
<trkpt lat="43.0144450000" lon="0.2332830000"><ele>1539</ele><time>2026-03-20T11:32:25Z</time></trkpt>
<trkpt lat="43.0144620000" lon="0.2332970000"><ele>1538</ele><time>2026-03-20T11:32:28Z</time></trkpt>
<trkpt lat="43.0144600000" lon="0.2333250000"><ele>1537</ele><time>2026-03-20T11:32:31Z</time></trkpt>
<trkpt lat="43.0144550000" lon="0.2333570000"><ele>1536</ele><time>2026-03-20T11:32:34Z</time></trkpt>
<trkpt lat="43.0144420000" lon="0.2333870000"><ele>1535</ele><time>2026-03-20T11:32:37Z</time></trkpt>
<trkpt lat="43.0144270000" lon="0.2334020000"><ele>1535</ele><time>2026-03-20T11:32:39Z</time></trkpt>
<trkpt lat="43.0144120000" lon="0.2334170000"><ele>1534</ele><time>2026-03-20T11:32:41Z</time></trkpt>
<trkpt lat="43.0143920000" lon="0.2334420000"><ele>1533</ele><time>2026-03-20T11:32:44Z</time></trkpt>
<trkpt lat="43.0143820000" lon="0.2334670000"><ele>1532</ele><time>2026-03-20T11:32:47Z</time></trkpt>
<trkpt lat="43.0143920000" lon="0.2335020000"><ele>1531</ele><time>2026-03-20T11:32:51Z</time></trkpt>
<trkpt lat="43.0143820000" lon="0.2335320000"><ele>1530</ele><time>2026-03-20T11:32:54Z</time></trkpt>
<trkpt lat="43.0143700000" lon="0.2335550000"><ele>1529</ele><time>2026-03-20T11:32:57Z</time></trkpt>
<trkpt lat="43.0143750000" lon="0.2335800000"><ele>1527</ele><time>2026-03-20T11:33:01Z</time></trkpt>
<trkpt lat="43.0143870000" lon="0.2336070000"><ele>1525</ele><time>2026-03-20T11:33:15Z</time></trkpt>
<trkpt lat="43.0144020000" lon="0.2336220000"><ele>1524</ele><time>2026-03-20T11:33:19Z</time></trkpt>
<trkpt lat="43.0144270000" lon="0.2336420000"><ele>1523</ele><time>2026-03-20T11:33:23Z</time></trkpt>
<trkpt lat="43.0144520000" lon="0.2336670000"><ele>1523</ele><time>2026-03-20T11:33:25Z</time></trkpt>
<trkpt lat="43.0144520000" lon="0.2336920000"><ele>1522</ele><time>2026-03-20T11:33:27Z</time></trkpt>
<trkpt lat="43.0144320000" lon="0.2337120000"><ele>1521</ele><time>2026-03-20T11:33:30Z</time></trkpt>
<trkpt lat="43.0144400000" lon="0.2337370000"><ele>1520</ele><time>2026-03-20T11:33:36Z</time></trkpt>
<trkpt lat="43.0144270000" lon="0.2337650000"><ele>1516</ele><time>2026-03-20T11:33:54Z</time></trkpt>
<trkpt lat="43.0144100000" lon="0.2337920000"><ele>1515</ele><time>2026-03-20T11:33:56Z</time></trkpt>
<trkpt lat="43.0143950000" lon="0.2338070000"><ele>1514</ele><time>2026-03-20T11:34:05Z</time></trkpt>
<trkpt lat="43.0144120000" lon="0.2338420000"><ele>1513</ele><time>2026-03-20T11:34:12Z</time></trkpt>
<trkpt lat="43.0144320000" lon="0.2338720000"><ele>1512</ele><time>2026-03-20T11:34:14Z</time></trkpt>
<trkpt lat="43.0144470000" lon="0.2338950000"><ele>1511</ele><time>2026-03-20T11:34:16Z</time></trkpt>
<trkpt lat="43.0144620000" lon="0.2339220000"><ele>1510</ele><time>2026-03-20T11:34:19Z</time></trkpt>
<trkpt lat="43.0144620000" lon="0.2339470000"><ele>1509</ele><time>2026-03-20T11:34:22Z</time></trkpt>
<trkpt lat="43.0144820000" lon="0.2339650000"><ele>1508</ele><time>2026-03-20T11:34:27Z</time></trkpt>
<trkpt lat="43.0144850000" lon="0.2339920000"><ele>1507</ele><time>2026-03-20T11:34:31Z</time></trkpt>
<trkpt lat="43.0144620000" lon="0.2340070000"><ele>1506</ele><time>2026-03-20T11:34:34Z</time></trkpt>
<trkpt lat="43.0144520000" lon="0.2340300000"><ele>1504</ele><time>2026-03-20T11:34:54Z</time></trkpt>
<trkpt lat="43.0144320000" lon="0.2340470000"><ele>1504</ele><time>2026-03-20T11:34:56Z</time></trkpt>
<trkpt lat="43.0144100000" lon="0.2340620000"><ele>1503</ele><time>2026-03-20T11:34:58Z</time></trkpt>
<trkpt lat="43.0143870000" lon="0.2340720000"><ele>1503</ele><time>2026-03-20T11:35:00Z</time></trkpt>
<trkpt lat="43.0143670000" lon="0.2340870000"><ele>1502</ele><time>2026-03-20T11:35:03Z</time></trkpt>
<trkpt lat="43.0143500000" lon="0.2340970000"><ele>1502</ele><time>2026-03-20T11:35:06Z</time></trkpt>
<trkpt lat="43.0143270000" lon="0.2340950000"><ele>1501</ele><time>2026-03-20T11:35:09Z</time></trkpt>
<trkpt lat="43.0143070000" lon="0.2341070000"><ele>1500</ele><time>2026-03-20T11:35:15Z</time></trkpt>
<trkpt lat="43.0143100000" lon="0.2341320000"><ele>1498</ele><time>2026-03-20T11:35:26Z</time></trkpt>
<trkpt lat="43.0142930000" lon="0.2341570000"><ele>1496</ele><time>2026-03-20T11:35:33Z</time></trkpt>
<trkpt lat="43.0142720000" lon="0.2341920000"><ele>1496</ele><time>2026-03-20T11:35:35Z</time></trkpt>
<trkpt lat="43.0142500000" lon="0.2342170000"><ele>1495</ele><time>2026-03-20T11:35:37Z</time></trkpt>
<trkpt lat="43.0142350000" lon="0.2342350000"><ele>1494</ele><time>2026-03-20T11:35:40Z</time></trkpt>
<trkpt lat="43.0142120000" lon="0.2342420000"><ele>1493</ele><time>2026-03-20T11:35:44Z</time></trkpt>
<trkpt lat="43.0142070000" lon="0.2342670000"><ele>1492</ele><time>2026-03-20T11:35:46Z</time></trkpt>
<trkpt lat="43.0141920000" lon="0.2342920000"><ele>1492</ele><time>2026-03-20T11:35:48Z</time></trkpt>
<trkpt lat="43.0141770000" lon="0.2343120000"><ele>1491</ele><time>2026-03-20T11:35:50Z</time></trkpt>
<trkpt lat="43.0141620000" lon="0.2343270000"><ele>1491</ele><time>2026-03-20T11:35:52Z</time></trkpt>
<trkpt lat="43.0141450000" lon="0.2343520000"><ele>1490</ele><time>2026-03-20T11:35:56Z</time></trkpt>
<trkpt lat="43.0141350000" lon="0.2343820000"><ele>1489</ele><time>2026-03-20T11:35:59Z</time></trkpt>
<trkpt lat="43.0141220000" lon="0.2344120000"><ele>1488</ele><time>2026-03-20T11:36:02Z</time></trkpt>
<trkpt lat="43.0141070000" lon="0.2344350000"><ele>1487</ele><time>2026-03-20T11:36:05Z</time></trkpt>
<trkpt lat="43.0141120000" lon="0.2344650000"><ele>1483</ele><time>2026-03-20T11:37:06Z</time></trkpt>
<trkpt lat="43.0141000000" lon="0.2344830000"><ele>1483</ele><time>2026-03-20T11:37:08Z</time></trkpt>
<trkpt lat="43.0140900000" lon="0.2345100000"><ele>1483</ele><time>2026-03-20T11:37:11Z</time></trkpt>
<trkpt lat="43.0140970000" lon="0.2345330000"><ele>1482</ele><time>2026-03-20T11:37:14Z</time></trkpt>
<trkpt lat="43.0140870000" lon="0.2345620000"><ele>1481</ele><time>2026-03-20T11:37:19Z</time></trkpt>
<trkpt lat="43.0140680000" lon="0.2345820000"><ele>1480</ele><time>2026-03-20T11:37:21Z</time></trkpt>
<trkpt lat="43.0140520000" lon="0.2346100000"><ele>1480</ele><time>2026-03-20T11:37:24Z</time></trkpt>
<trkpt lat="43.0140370000" lon="0.2346320000"><ele>1479</ele><time>2026-03-20T11:37:27Z</time></trkpt>
<trkpt lat="43.0140250000" lon="0.2346620000"><ele>1478</ele><time>2026-03-20T11:37:30Z</time></trkpt>
<trkpt lat="43.0140200000" lon="0.2346920000"><ele>1477</ele><time>2026-03-20T11:37:33Z</time></trkpt>
<trkpt lat="43.0140220000" lon="0.2347170000"><ele>1477</ele><time>2026-03-20T11:37:35Z</time></trkpt>
<trkpt lat="43.0140170000" lon="0.2347480000"><ele>1476</ele><time>2026-03-20T11:37:38Z</time></trkpt>
<trkpt lat="43.0140150000" lon="0.2347750000"><ele>1476</ele><time>2026-03-20T11:37:40Z</time></trkpt>
<trkpt lat="43.0140170000" lon="0.2348020000"><ele>1475</ele><time>2026-03-20T11:37:42Z</time></trkpt>
<trkpt lat="43.0140270000" lon="0.2348320000"><ele>1474</ele><time>2026-03-20T11:37:45Z</time></trkpt>
<trkpt lat="43.0140270000" lon="0.2348670000"><ele>1474</ele><time>2026-03-20T11:37:48Z</time></trkpt>
<trkpt lat="43.0140150000" lon="0.2348870000"><ele>1473</ele><time>2026-03-20T11:37:51Z</time></trkpt>
<trkpt lat="43.0140100000" lon="0.2349220000"><ele>1473</ele><time>2026-03-20T11:37:54Z</time></trkpt>
<trkpt lat="43.0140070000" lon="0.2349480000"><ele>1472</ele><time>2026-03-20T11:38:01Z</time></trkpt>
<trkpt lat="43.0140020000" lon="0.2349820000"><ele>1471</ele><time>2026-03-20T11:38:05Z</time></trkpt>
<trkpt lat="43.0139970000" lon="0.2350170000"><ele>1471</ele><time>2026-03-20T11:38:08Z</time></trkpt>
<trkpt lat="43.0139920000" lon="0.2350450000"><ele>1470</ele><time>2026-03-20T11:38:10Z</time></trkpt>
<trkpt lat="43.0139900000" lon="0.2350720000"><ele>1470</ele><time>2026-03-20T11:38:12Z</time></trkpt>
<trkpt lat="43.0139830000" lon="0.2351120000"><ele>1469</ele><time>2026-03-20T11:38:15Z</time></trkpt>
<trkpt lat="43.0139820000" lon="0.2351470000"><ele>1468</ele><time>2026-03-20T11:38:18Z</time></trkpt>
<trkpt lat="43.0139750000" lon="0.2351770000"><ele>1468</ele><time>2026-03-20T11:38:20Z</time></trkpt>
<trkpt lat="43.0139720000" lon="0.2352120000"><ele>1468</ele><time>2026-03-20T11:38:23Z</time></trkpt>
<trkpt lat="43.0139720000" lon="0.2352450000"><ele>1466</ele><time>2026-03-20T11:38:36Z</time></trkpt>
<trkpt lat="43.0139670000" lon="0.2352770000"><ele>1466</ele><time>2026-03-20T11:38:38Z</time></trkpt>
<trkpt lat="43.0139720000" lon="0.2353080000"><ele>1465</ele><time>2026-03-20T11:38:40Z</time></trkpt>
<trkpt lat="43.0139770000" lon="0.2353420000"><ele>1465</ele><time>2026-03-20T11:38:42Z</time></trkpt>
<trkpt lat="43.0139720000" lon="0.2353670000"><ele>1465</ele><time>2026-03-20T11:38:44Z</time></trkpt>
<trkpt lat="43.0139670000" lon="0.2354000000"><ele>1464</ele><time>2026-03-20T11:38:47Z</time></trkpt>
<trkpt lat="43.0139670000" lon="0.2354350000"><ele>1463</ele><time>2026-03-20T11:38:50Z</time></trkpt>
<trkpt lat="43.0139720000" lon="0.2354620000"><ele>1460</ele><time>2026-03-20T11:39:51Z</time></trkpt>
<trkpt lat="43.0139700000" lon="0.2354950000"><ele>1460</ele><time>2026-03-20T11:39:54Z</time></trkpt>
<trkpt lat="43.0139670000" lon="0.2355250000"><ele>1459</ele><time>2026-03-20T11:39:57Z</time></trkpt>
<trkpt lat="43.0139550000" lon="0.2355470000"><ele>1458</ele><time>2026-03-20T11:40:00Z</time></trkpt>
<trkpt lat="43.0139570000" lon="0.2355770000"><ele>1457</ele><time>2026-03-20T11:40:04Z</time></trkpt>
<trkpt lat="43.0139520000" lon="0.2356020000"><ele>1457</ele><time>2026-03-20T11:40:07Z</time></trkpt>
<trkpt lat="43.0139370000" lon="0.2356170000"><ele>1456</ele><time>2026-03-20T11:40:10Z</time></trkpt>
<trkpt lat="43.0139420000" lon="0.2356420000"><ele>1455</ele><time>2026-03-20T11:40:13Z</time></trkpt>
<trkpt lat="43.0139620000" lon="0.2356570000"><ele>1455</ele><time>2026-03-20T11:40:16Z</time></trkpt>
<trkpt lat="43.0139800000" lon="0.2356750000"><ele>1454</ele><time>2026-03-20T11:40:19Z</time></trkpt>
<trkpt lat="43.0139830000" lon="0.2357020000"><ele>1453</ele><time>2026-03-20T11:40:22Z</time></trkpt>
<trkpt lat="43.0139970000" lon="0.2357170000"><ele>1453</ele><time>2026-03-20T11:40:24Z</time></trkpt>
<trkpt lat="43.0140070000" lon="0.2357470000"><ele>1452</ele><time>2026-03-20T11:40:27Z</time></trkpt>
<trkpt lat="43.0140070000" lon="0.2357820000"><ele>1451</ele><time>2026-03-20T11:40:30Z</time></trkpt>
<trkpt lat="43.0140050000" lon="0.2358070000"><ele>1450</ele><time>2026-03-20T11:40:32Z</time></trkpt>
<trkpt lat="43.0139970000" lon="0.2358370000"><ele>1449</ele><time>2026-03-20T11:40:35Z</time></trkpt>
<trkpt lat="43.0139970000" lon="0.2358670000"><ele>1448</ele><time>2026-03-20T11:40:39Z</time></trkpt>
<trkpt lat="43.0139920000" lon="0.2358920000"><ele>1447</ele><time>2026-03-20T11:40:42Z</time></trkpt>
<trkpt lat="43.0139920000" lon="0.2359270000"><ele>1447</ele><time>2026-03-20T11:40:45Z</time></trkpt>
<trkpt lat="43.0140070000" lon="0.2359470000"><ele>1446</ele><time>2026-03-20T11:40:47Z</time></trkpt>
<trkpt lat="43.0140250000" lon="0.2359720000"><ele>1445</ele><time>2026-03-20T11:40:49Z</time></trkpt>
<trkpt lat="43.0140320000" lon="0.2359970000"><ele>1445</ele><time>2026-03-20T11:40:51Z</time></trkpt>
<trkpt lat="43.0140220000" lon="0.2360320000"><ele>1444</ele><time>2026-03-20T11:40:54Z</time></trkpt>
<trkpt lat="43.0140170000" lon="0.2360530000"><ele>1443</ele><time>2026-03-20T11:40:56Z</time></trkpt>
<trkpt lat="43.0140150000" lon="0.2360850000"><ele>1443</ele><time>2026-03-20T11:40:59Z</time></trkpt>
<trkpt lat="43.0140100000" lon="0.2361150000"><ele>1442</ele><time>2026-03-20T11:41:02Z</time></trkpt>
<trkpt lat="43.0140250000" lon="0.2361300000"><ele>1441</ele><time>2026-03-20T11:41:05Z</time></trkpt>
<trkpt lat="43.0140420000" lon="0.2361420000"><ele>1440</ele><time>2026-03-20T11:41:08Z</time></trkpt>
<trkpt lat="43.0140350000" lon="0.2361720000"><ele>1439</ele><time>2026-03-20T11:41:11Z</time></trkpt>
<trkpt lat="43.0140220000" lon="0.2362020000"><ele>1438</ele><time>2026-03-20T11:41:15Z</time></trkpt>
<trkpt lat="43.0140170000" lon="0.2362350000"><ele>1437</ele><time>2026-03-20T11:41:18Z</time></trkpt>
<trkpt lat="43.0140170000" lon="0.2362620000"><ele>1437</ele><time>2026-03-20T11:41:21Z</time></trkpt>
<trkpt lat="43.0140120000" lon="0.2362920000"><ele>1436</ele><time>2026-03-20T11:41:24Z</time></trkpt>
<trkpt lat="43.0140070000" lon="0.2363270000"><ele>1435</ele><time>2026-03-20T11:41:27Z</time></trkpt>
<trkpt lat="43.0140020000" lon="0.2363520000"><ele>1434</ele><time>2026-03-20T11:41:30Z</time></trkpt>
<trkpt lat="43.0139970000" lon="0.2363870000"><ele>1433</ele><time>2026-03-20T11:41:33Z</time></trkpt>
<trkpt lat="43.0139920000" lon="0.2364170000"><ele>1433</ele><time>2026-03-20T11:41:36Z</time></trkpt>
<trkpt lat="43.0139870000" lon="0.2364470000"><ele>1432</ele><time>2026-03-20T11:41:39Z</time></trkpt>
<trkpt lat="43.0139720000" lon="0.2364720000"><ele>1431</ele><time>2026-03-20T11:41:42Z</time></trkpt>
<trkpt lat="43.0139670000" lon="0.2365000000"><ele>1430</ele><time>2026-03-20T11:41:45Z</time></trkpt>
<trkpt lat="43.0139600000" lon="0.2365220000"><ele>1430</ele><time>2026-03-20T11:41:47Z</time></trkpt>
<trkpt lat="43.0139500000" lon="0.2365520000"><ele>1429</ele><time>2026-03-20T11:41:50Z</time></trkpt>
<trkpt lat="43.0139420000" lon="0.2365820000"><ele>1428</ele><time>2026-03-20T11:41:53Z</time></trkpt>
<trkpt lat="43.0139420000" lon="0.2366120000"><ele>1427</ele><time>2026-03-20T11:41:56Z</time></trkpt>
<trkpt lat="43.0139620000" lon="0.2366170000"><ele>1425</ele><time>2026-03-20T11:42:34Z</time></trkpt>
<trkpt lat="43.0139670000" lon="0.2366520000"><ele>1425</ele><time>2026-03-20T11:42:36Z</time></trkpt>
<trkpt lat="43.0139720000" lon="0.2366900000"><ele>1425</ele><time>2026-03-20T11:42:38Z</time></trkpt>
<trkpt lat="43.0139800000" lon="0.2367250000"><ele>1424</ele><time>2026-03-20T11:42:40Z</time></trkpt>
<trkpt lat="43.0139820000" lon="0.2367570000"><ele>1424</ele><time>2026-03-20T11:42:42Z</time></trkpt>
<trkpt lat="43.0139800000" lon="0.2367820000"><ele>1423</ele><time>2026-03-20T11:42:44Z</time></trkpt>
<trkpt lat="43.0139750000" lon="0.2368070000"><ele>1423</ele><time>2026-03-20T11:42:46Z</time></trkpt>
<trkpt lat="43.0139750000" lon="0.2368420000"><ele>1422</ele><time>2026-03-20T11:42:49Z</time></trkpt>
<trkpt lat="43.0139570000" lon="0.2368670000"><ele>1421</ele><time>2026-03-20T11:42:51Z</time></trkpt>
<trkpt lat="43.0139570000" lon="0.2368920000"><ele>1420</ele><time>2026-03-20T11:42:54Z</time></trkpt>
<trkpt lat="43.0139650000" lon="0.2369170000"><ele>1420</ele><time>2026-03-20T11:42:56Z</time></trkpt>
<trkpt lat="43.0139770000" lon="0.2369470000"><ele>1419</ele><time>2026-03-20T11:42:59Z</time></trkpt>
<trkpt lat="43.0139820000" lon="0.2369820000"><ele>1418</ele><time>2026-03-20T11:43:02Z</time></trkpt>
<trkpt lat="43.0139750000" lon="0.2370050000"><ele>1417</ele><time>2026-03-20T11:43:04Z</time></trkpt>
<trkpt lat="43.0139670000" lon="0.2370400000"><ele>1417</ele><time>2026-03-20T11:43:07Z</time></trkpt>
<trkpt lat="43.0139650000" lon="0.2370670000"><ele>1416</ele><time>2026-03-20T11:43:09Z</time></trkpt>
<trkpt lat="43.0139820000" lon="0.2370800000"><ele>1415</ele><time>2026-03-20T11:43:17Z</time></trkpt>
<trkpt lat="43.0139920000" lon="0.2371130000"><ele>1414</ele><time>2026-03-20T11:43:20Z</time></trkpt>
<trkpt lat="43.0139950000" lon="0.2371400000"><ele>1414</ele><time>2026-03-20T11:43:23Z</time></trkpt>
<trkpt lat="43.0139970000" lon="0.2371720000"><ele>1413</ele><time>2026-03-20T11:43:26Z</time></trkpt>
<trkpt lat="43.0139970000" lon="0.2372120000"><ele>1413</ele><time>2026-03-20T11:43:28Z</time></trkpt>
<trkpt lat="43.0140020000" lon="0.2372450000"><ele>1413</ele><time>2026-03-20T11:43:30Z</time></trkpt>
<trkpt lat="43.0140070000" lon="0.2372720000"><ele>1412</ele><time>2026-03-20T11:43:32Z</time></trkpt>
<trkpt lat="43.0140070000" lon="0.2372970000"><ele>1412</ele><time>2026-03-20T11:43:34Z</time></trkpt>
<trkpt lat="43.0140050000" lon="0.2373270000"><ele>1412</ele><time>2026-03-20T11:43:36Z</time></trkpt>
<trkpt lat="43.0140000000" lon="0.2373670000"><ele>1411</ele><time>2026-03-20T11:43:39Z</time></trkpt>
<trkpt lat="43.0139970000" lon="0.2374020000"><ele>1411</ele><time>2026-03-20T11:43:42Z</time></trkpt>
<trkpt lat="43.0139970000" lon="0.2374320000"><ele>1410</ele><time>2026-03-20T11:43:44Z</time></trkpt>
<trkpt lat="43.0139920000" lon="0.2374670000"><ele>1410</ele><time>2026-03-20T11:43:47Z</time></trkpt>
<trkpt lat="43.0139920000" lon="0.2374920000"><ele>1410</ele><time>2026-03-20T11:43:49Z</time></trkpt>
<trkpt lat="43.0139830000" lon="0.2375270000"><ele>1409</ele><time>2026-03-20T11:43:52Z</time></trkpt>
<trkpt lat="43.0139870000" lon="0.2375520000"><ele>1408</ele><time>2026-03-20T11:43:54Z</time></trkpt>
<trkpt lat="43.0139870000" lon="0.2375800000"><ele>1408</ele><time>2026-03-20T11:43:56Z</time></trkpt>
<trkpt lat="43.0139900000" lon="0.2376100000"><ele>1407</ele><time>2026-03-20T11:43:58Z</time></trkpt>
<trkpt lat="43.0139900000" lon="0.2376370000"><ele>1407</ele><time>2026-03-20T11:44:00Z</time></trkpt>
<trkpt lat="43.0139920000" lon="0.2376670000"><ele>1406</ele><time>2026-03-20T11:44:02Z</time></trkpt>
<trkpt lat="43.0139920000" lon="0.2377020000"><ele>1405</ele><time>2026-03-20T11:44:05Z</time></trkpt>
<trkpt lat="43.0140000000" lon="0.2377320000"><ele>1405</ele><time>2026-03-20T11:44:08Z</time></trkpt>
<trkpt lat="43.0140020000" lon="0.2377650000"><ele>1404</ele><time>2026-03-20T11:44:10Z</time></trkpt>
<trkpt lat="43.0140050000" lon="0.2377920000"><ele>1404</ele><time>2026-03-20T11:44:12Z</time></trkpt>
<trkpt lat="43.0140070000" lon="0.2378170000"><ele>1403</ele><time>2026-03-20T11:44:14Z</time></trkpt>
<trkpt lat="43.0139970000" lon="0.2378520000"><ele>1403</ele><time>2026-03-20T11:44:17Z</time></trkpt>
<trkpt lat="43.0139870000" lon="0.2378750000"><ele>1402</ele><time>2026-03-20T11:44:19Z</time></trkpt>
<trkpt lat="43.0139820000" lon="0.2379120000"><ele>1402</ele><time>2026-03-20T11:44:22Z</time></trkpt>
<trkpt lat="43.0139870000" lon="0.2379420000"><ele>1402</ele><time>2026-03-20T11:44:24Z</time></trkpt>
<trkpt lat="43.0139900000" lon="0.2379750000"><ele>1402</ele><time>2026-03-20T11:44:26Z</time></trkpt>
<trkpt lat="43.0139900000" lon="0.2380020000"><ele>1401</ele><time>2026-03-20T11:44:28Z</time></trkpt>
<trkpt lat="43.0139870000" lon="0.2380270000"><ele>1401</ele><time>2026-03-20T11:44:30Z</time></trkpt>
<trkpt lat="43.0139800000" lon="0.2380520000"><ele>1401</ele><time>2026-03-20T11:44:32Z</time></trkpt>
<trkpt lat="43.0139770000" lon="0.2380800000"><ele>1400</ele><time>2026-03-20T11:44:34Z</time></trkpt>
<trkpt lat="43.0139870000" lon="0.2381100000"><ele>1400</ele><time>2026-03-20T11:44:36Z</time></trkpt>
<trkpt lat="43.0139920000" lon="0.2381420000"><ele>1400</ele><time>2026-03-20T11:44:38Z</time></trkpt>
<trkpt lat="43.0139970000" lon="0.2381700000"><ele>1399</ele><time>2026-03-20T11:44:40Z</time></trkpt>
<trkpt lat="43.0140020000" lon="0.2381970000"><ele>1399</ele><time>2026-03-20T11:44:42Z</time></trkpt>
<trkpt lat="43.0140070000" lon="0.2382230000"><ele>1399</ele><time>2026-03-20T11:44:44Z</time></trkpt>
<trkpt lat="43.0140020000" lon="0.2382550000"><ele>1399</ele><time>2026-03-20T11:44:46Z</time></trkpt>
<trkpt lat="43.0140020000" lon="0.2382820000"><ele>1398</ele><time>2026-03-20T11:44:48Z</time></trkpt>
<trkpt lat="43.0140000000" lon="0.2383120000"><ele>1398</ele><time>2026-03-20T11:44:50Z</time></trkpt>
<trkpt lat="43.0139900000" lon="0.2383420000"><ele>1398</ele><time>2026-03-20T11:44:52Z</time></trkpt>
<trkpt lat="43.0139800000" lon="0.2383770000"><ele>1397</ele><time>2026-03-20T11:44:54Z</time></trkpt>
<trkpt lat="43.0139830000" lon="0.2384120000"><ele>1397</ele><time>2026-03-20T11:44:57Z</time></trkpt>
<trkpt lat="43.0139870000" lon="0.2384370000"><ele>1397</ele><time>2026-03-20T11:44:59Z</time></trkpt>
<trkpt lat="43.0139970000" lon="0.2384670000"><ele>1397</ele><time>2026-03-20T11:45:02Z</time></trkpt>
<trkpt lat="43.0140020000" lon="0.2384950000"><ele>1397</ele><time>2026-03-20T11:45:04Z</time></trkpt>
<trkpt lat="43.0140070000" lon="0.2385300000"><ele>1396</ele><time>2026-03-20T11:45:07Z</time></trkpt>
<trkpt lat="43.0140250000" lon="0.2385620000"><ele>1396</ele><time>2026-03-20T11:45:10Z</time></trkpt>
<trkpt lat="43.0140270000" lon="0.2385970000"><ele>1395</ele><time>2026-03-20T11:45:13Z</time></trkpt>
<trkpt lat="43.0140400000" lon="0.2386320000"><ele>1395</ele><time>2026-03-20T11:45:16Z</time></trkpt>
<trkpt lat="43.0140470000" lon="0.2386670000"><ele>1395</ele><time>2026-03-20T11:45:19Z</time></trkpt>
<trkpt lat="43.0140350000" lon="0.2386870000"><ele>1394</ele><time>2026-03-20T11:45:32Z</time></trkpt>
<trkpt lat="43.0140170000" lon="0.2386970000"><ele>1394</ele><time>2026-03-20T11:45:34Z</time></trkpt>
<trkpt lat="43.0139970000" lon="0.2387020000"><ele>1394</ele><time>2026-03-20T11:45:36Z</time></trkpt>
<trkpt lat="43.0139750000" lon="0.2387250000"><ele>1393</ele><time>2026-03-20T11:45:39Z</time></trkpt>
<trkpt lat="43.0139670000" lon="0.2387500000"><ele>1393</ele><time>2026-03-20T11:45:42Z</time></trkpt>
<trkpt lat="43.0139650000" lon="0.2387770000"><ele>1392</ele><time>2026-03-20T11:45:45Z</time></trkpt>
<trkpt lat="43.0139750000" lon="0.2388070000"><ele>1392</ele><time>2026-03-20T11:45:48Z</time></trkpt>
<trkpt lat="43.0139870000" lon="0.2388370000"><ele>1392</ele><time>2026-03-20T11:45:50Z</time></trkpt>
<trkpt lat="43.0139950000" lon="0.2388700000"><ele>1391</ele><time>2026-03-20T11:45:52Z</time></trkpt>
<trkpt lat="43.0139970000" lon="0.2389000000"><ele>1391</ele><time>2026-03-20T11:45:54Z</time></trkpt>
<trkpt lat="43.0140020000" lon="0.2389370000"><ele>1391</ele><time>2026-03-20T11:45:57Z</time></trkpt>
<trkpt lat="43.0140020000" lon="0.2389620000"><ele>1390</ele><time>2026-03-20T11:46:31Z</time></trkpt>
<trkpt lat="43.0140300000" lon="0.2389850000"><ele>1390</ele><time>2026-03-20T11:46:34Z</time></trkpt>
<trkpt lat="43.0140520000" lon="0.2390070000"><ele>1390</ele><time>2026-03-20T11:46:36Z</time></trkpt>
<trkpt lat="43.0140670000" lon="0.2390170000"><ele>1390</ele><time>2026-03-20T11:46:38Z</time></trkpt>
<trkpt lat="43.0140870000" lon="0.2390070000"><ele>1391</ele><time>2026-03-20T11:46:42Z</time></trkpt>
<trkpt lat="43.0141020000" lon="0.2390250000"><ele>1391</ele><time>2026-03-20T11:46:46Z</time></trkpt>
<trkpt lat="43.0141200000" lon="0.2390450000"><ele>1391</ele><time>2026-03-20T11:46:49Z</time></trkpt>
<trkpt lat="43.0141370000" lon="0.2390520000"><ele>1392</ele><time>2026-03-20T11:46:53Z</time></trkpt>
<trkpt lat="43.0141570000" lon="0.2390530000"><ele>1393</ele><time>2026-03-20T11:48:20Z</time></trkpt>
<trkpt lat="43.0141270000" lon="0.2390420000"><ele>1388</ele><time>2026-03-20T11:57:47Z</time></trkpt>
<trkpt lat="43.0141070000" lon="0.2390450000"><ele>1388</ele><time>2026-03-20T12:00:25Z</time></trkpt>
<trkpt lat="43.0140920000" lon="0.2390620000"><ele>1388</ele><time>2026-03-20T12:00:55Z</time></trkpt>
<trkpt lat="43.0140870000" lon="0.2390870000"><ele>1388</ele><time>2026-03-20T12:00:57Z</time></trkpt>
<trkpt lat="43.0140870000" lon="0.2391170000"><ele>1388</ele><time>2026-03-20T12:00:59Z</time></trkpt>
<trkpt lat="43.0140950000" lon="0.2391450000"><ele>1388</ele><time>2026-03-20T12:01:01Z</time></trkpt>
<trkpt lat="43.0141100000" lon="0.2391700000"><ele>1387</ele><time>2026-03-20T12:01:04Z</time></trkpt>
<trkpt lat="43.0141200000" lon="0.2391920000"><ele>1388</ele><time>2026-03-20T12:01:07Z</time></trkpt>
<trkpt lat="43.0141380000" lon="0.2392020000"><ele>1388</ele><time>2026-03-20T12:01:23Z</time></trkpt>
<trkpt lat="43.0141670000" lon="0.2392020000"><ele>1388</ele><time>2026-03-20T12:01:25Z</time></trkpt>
<trkpt lat="43.0141920000" lon="0.2392100000"><ele>1388</ele><time>2026-03-20T12:01:27Z</time></trkpt>
<trkpt lat="43.0142120000" lon="0.2392100000"><ele>1388</ele><time>2026-03-20T12:01:29Z</time></trkpt>
<trkpt lat="43.0142320000" lon="0.2391980000"><ele>1388</ele><time>2026-03-20T12:01:34Z</time></trkpt>
<trkpt lat="43.0142400000" lon="0.2391750000"><ele>1388</ele><time>2026-03-20T12:01:37Z</time></trkpt>
<trkpt lat="43.0142320000" lon="0.2392020000"><ele>1388</ele><time>2026-03-20T12:02:51Z</time></trkpt>
<trkpt lat="43.0142170000" lon="0.2392220000"><ele>1388</ele><time>2026-03-20T12:02:53Z</time></trkpt>
<trkpt lat="43.0141970000" lon="0.2392370000"><ele>1388</ele><time>2026-03-20T12:02:55Z</time></trkpt>
<trkpt lat="43.0141750000" lon="0.2392420000"><ele>1388</ele><time>2026-03-20T12:02:58Z</time></trkpt>
<trkpt lat="43.0141570000" lon="0.2392620000"><ele>1388</ele><time>2026-03-20T12:03:03Z</time></trkpt>
<trkpt lat="43.0141470000" lon="0.2392900000"><ele>1388</ele><time>2026-03-20T12:03:06Z</time></trkpt>
<trkpt lat="43.0141450000" lon="0.2393170000"><ele>1388</ele><time>2026-03-20T12:03:10Z</time></trkpt>
<trkpt lat="43.0141550000" lon="0.2393420000"><ele>1388</ele><time>2026-03-20T12:03:14Z</time></trkpt>
<trkpt lat="43.0141600000" lon="0.2393700000"><ele>1387</ele><time>2026-03-20T12:03:18Z</time></trkpt>
<trkpt lat="43.0141620000" lon="0.2393970000"><ele>1387</ele><time>2026-03-20T12:03:22Z</time></trkpt>
<trkpt lat="43.0141600000" lon="0.2394250000"><ele>1387</ele><time>2026-03-20T12:03:27Z</time></trkpt>
<trkpt lat="43.0141380000" lon="0.2394400000"><ele>1387</ele><time>2026-03-20T12:03:43Z</time></trkpt>
<trkpt lat="43.0141570000" lon="0.2394520000"><ele>1387</ele><time>2026-03-20T12:04:14Z</time></trkpt>
<trkpt lat="43.0141450000" lon="0.2394870000"><ele>1387</ele><time>2026-03-20T12:04:17Z</time></trkpt>
<trkpt lat="43.0141320000" lon="0.2395070000"><ele>1387</ele><time>2026-03-20T12:04:19Z</time></trkpt>
<trkpt lat="43.0141270000" lon="0.2395320000"><ele>1386</ele><time>2026-03-20T12:04:25Z</time></trkpt>
<trkpt lat="43.0141220000" lon="0.2395570000"><ele>1385</ele><time>2026-03-20T12:04:27Z</time></trkpt>
<trkpt lat="43.0141120000" lon="0.2395820000"><ele>1385</ele><time>2026-03-20T12:04:29Z</time></trkpt>
<trkpt lat="43.0141020000" lon="0.2396080000"><ele>1385</ele><time>2026-03-20T12:04:31Z</time></trkpt>
<trkpt lat="43.0141000000" lon="0.2396350000"><ele>1384</ele><time>2026-03-20T12:04:33Z</time></trkpt>
<trkpt lat="43.0141100000" lon="0.2396620000"><ele>1383</ele><time>2026-03-20T12:04:36Z</time></trkpt>
<trkpt lat="43.0141170000" lon="0.2396920000"><ele>1383</ele><time>2026-03-20T12:04:39Z</time></trkpt>
<trkpt lat="43.0141220000" lon="0.2397220000"><ele>1382</ele><time>2026-03-20T12:04:42Z</time></trkpt>
<trkpt lat="43.0141270000" lon="0.2397530000"><ele>1381</ele><time>2026-03-20T12:04:45Z</time></trkpt>
<trkpt lat="43.0141220000" lon="0.2397800000"><ele>1378</ele><time>2026-03-20T12:05:08Z</time></trkpt>
<trkpt lat="43.0141350000" lon="0.2398070000"><ele>1378</ele><time>2026-03-20T12:05:10Z</time></trkpt>
<trkpt lat="43.0141500000" lon="0.2398470000"><ele>1377</ele><time>2026-03-20T12:05:12Z</time></trkpt>
<trkpt lat="43.0141520000" lon="0.2398870000"><ele>1377</ele><time>2026-03-20T12:05:14Z</time></trkpt>
<trkpt lat="43.0141520000" lon="0.2399120000"><ele>1376</ele><time>2026-03-20T12:05:16Z</time></trkpt>
<trkpt lat="43.0141620000" lon="0.2399370000"><ele>1376</ele><time>2026-03-20T12:05:18Z</time></trkpt>
<trkpt lat="43.0141600000" lon="0.2399700000"><ele>1375</ele><time>2026-03-20T12:05:21Z</time></trkpt>
<trkpt lat="43.0141650000" lon="0.2399950000"><ele>1374</ele><time>2026-03-20T12:05:23Z</time></trkpt>
<trkpt lat="43.0141720000" lon="0.2400200000"><ele>1374</ele><time>2026-03-20T12:05:25Z</time></trkpt>
<trkpt lat="43.0141720000" lon="0.2400470000"><ele>1373</ele><time>2026-03-20T12:05:27Z</time></trkpt>
<trkpt lat="43.0141920000" lon="0.2400720000"><ele>1373</ele><time>2026-03-20T12:05:30Z</time></trkpt>
<trkpt lat="43.0141950000" lon="0.2401020000"><ele>1372</ele><time>2026-03-20T12:05:33Z</time></trkpt>
<trkpt lat="43.0142050000" lon="0.2401320000"><ele>1371</ele><time>2026-03-20T12:05:36Z</time></trkpt>
<trkpt lat="43.0142120000" lon="0.2401670000"><ele>1370</ele><time>2026-03-20T12:05:39Z</time></trkpt>
<trkpt lat="43.0142050000" lon="0.2401920000"><ele>1370</ele><time>2026-03-20T12:05:41Z</time></trkpt>
<trkpt lat="43.0141900000" lon="0.2402120000"><ele>1369</ele><time>2026-03-20T12:05:43Z</time></trkpt>
<trkpt lat="43.0141820000" lon="0.2402420000"><ele>1369</ele><time>2026-03-20T12:05:46Z</time></trkpt>
<trkpt lat="43.0141850000" lon="0.2402770000"><ele>1368</ele><time>2026-03-20T12:05:49Z</time></trkpt>
<trkpt lat="43.0141900000" lon="0.2403080000"><ele>1368</ele><time>2026-03-20T12:05:52Z</time></trkpt>
<trkpt lat="43.0141820000" lon="0.2403420000"><ele>1367</ele><time>2026-03-20T12:05:55Z</time></trkpt>
<trkpt lat="43.0141820000" lon="0.2403700000"><ele>1367</ele><time>2026-03-20T12:05:57Z</time></trkpt>
<trkpt lat="43.0141970000" lon="0.2403950000"><ele>1366</ele><time>2026-03-20T12:05:59Z</time></trkpt>
<trkpt lat="43.0142070000" lon="0.2404150000"><ele>1366</ele><time>2026-03-20T12:06:01Z</time></trkpt>
<trkpt lat="43.0142200000" lon="0.2404350000"><ele>1365</ele><time>2026-03-20T12:06:03Z</time></trkpt>
<trkpt lat="43.0142320000" lon="0.2404650000"><ele>1365</ele><time>2026-03-20T12:06:05Z</time></trkpt>
<trkpt lat="43.0142370000" lon="0.2404920000"><ele>1365</ele><time>2026-03-20T12:06:07Z</time></trkpt>
<trkpt lat="43.0142420000" lon="0.2405170000"><ele>1364</ele><time>2026-03-20T12:06:09Z</time></trkpt>
<trkpt lat="43.0142450000" lon="0.2405450000"><ele>1364</ele><time>2026-03-20T12:06:11Z</time></trkpt>
<trkpt lat="43.0142470000" lon="0.2405820000"><ele>1363</ele><time>2026-03-20T12:06:14Z</time></trkpt>
<trkpt lat="43.0142550000" lon="0.2406170000"><ele>1363</ele><time>2026-03-20T12:06:17Z</time></trkpt>
<trkpt lat="43.0142570000" lon="0.2406420000"><ele>1363</ele><time>2026-03-20T12:06:19Z</time></trkpt>
<trkpt lat="43.0142600000" lon="0.2406720000"><ele>1362</ele><time>2026-03-20T12:06:21Z</time></trkpt>
<trkpt lat="43.0142570000" lon="0.2407020000"><ele>1362</ele><time>2026-03-20T12:06:23Z</time></trkpt>
<trkpt lat="43.0142600000" lon="0.2407270000"><ele>1361</ele><time>2026-03-20T12:06:25Z</time></trkpt>
<trkpt lat="43.0142670000" lon="0.2407500000"><ele>1361</ele><time>2026-03-20T12:06:27Z</time></trkpt>
<trkpt lat="43.0142670000" lon="0.2407820000"><ele>1361</ele><time>2026-03-20T12:06:30Z</time></trkpt>
<trkpt lat="43.0142670000" lon="0.2408070000"><ele>1360</ele><time>2026-03-20T12:06:32Z</time></trkpt>
<trkpt lat="43.0142770000" lon="0.2408350000"><ele>1360</ele><time>2026-03-20T12:06:34Z</time></trkpt>
<trkpt lat="43.0142820000" lon="0.2408620000"><ele>1360</ele><time>2026-03-20T12:06:36Z</time></trkpt>
<trkpt lat="43.0142920000" lon="0.2408850000"><ele>1360</ele><time>2026-03-20T12:06:38Z</time></trkpt>
<trkpt lat="43.0142920000" lon="0.2409120000"><ele>1360</ele><time>2026-03-20T12:06:40Z</time></trkpt>
<trkpt lat="43.0142870000" lon="0.2409450000"><ele>1360</ele><time>2026-03-20T12:06:43Z</time></trkpt>
<trkpt lat="43.0142920000" lon="0.2409700000"><ele>1360</ele><time>2026-03-20T12:06:45Z</time></trkpt>
<trkpt lat="43.0142920000" lon="0.2409970000"><ele>1359</ele><time>2026-03-20T12:06:47Z</time></trkpt>
<trkpt lat="43.0143020000" lon="0.2410220000"><ele>1359</ele><time>2026-03-20T12:06:50Z</time></trkpt>
<trkpt lat="43.0143150000" lon="0.2410530000"><ele>1359</ele><time>2026-03-20T12:06:53Z</time></trkpt>
<trkpt lat="43.0143150000" lon="0.2410800000"><ele>1359</ele><time>2026-03-20T12:06:55Z</time></trkpt>
<trkpt lat="43.0143220000" lon="0.2411120000"><ele>1359</ele><time>2026-03-20T12:06:58Z</time></trkpt>
<trkpt lat="43.0143350000" lon="0.2411330000"><ele>1359</ele><time>2026-03-20T12:07:00Z</time></trkpt>
<trkpt lat="43.0143370000" lon="0.2411600000"><ele>1359</ele><time>2026-03-20T12:07:02Z</time></trkpt>
<trkpt lat="43.0143400000" lon="0.2411850000"><ele>1359</ele><time>2026-03-20T12:07:04Z</time></trkpt>
<trkpt lat="43.0143450000" lon="0.2412200000"><ele>1359</ele><time>2026-03-20T12:07:07Z</time></trkpt>
<trkpt lat="43.0143470000" lon="0.2412520000"><ele>1359</ele><time>2026-03-20T12:07:09Z</time></trkpt>
<trkpt lat="43.0143520000" lon="0.2412870000"><ele>1358</ele><time>2026-03-20T12:07:12Z</time></trkpt>
<trkpt lat="43.0143620000" lon="0.2413120000"><ele>1358</ele><time>2026-03-20T12:07:14Z</time></trkpt>
<trkpt lat="43.0143670000" lon="0.2413370000"><ele>1358</ele><time>2026-03-20T12:07:16Z</time></trkpt>
<trkpt lat="43.0143630000" lon="0.2413620000"><ele>1358</ele><time>2026-03-20T12:07:18Z</time></trkpt>
<trkpt lat="43.0143670000" lon="0.2413870000"><ele>1357</ele><time>2026-03-20T12:07:20Z</time></trkpt>
<trkpt lat="43.0143750000" lon="0.2414120000"><ele>1357</ele><time>2026-03-20T12:07:22Z</time></trkpt>
<trkpt lat="43.0143770000" lon="0.2414420000"><ele>1357</ele><time>2026-03-20T12:07:24Z</time></trkpt>
<trkpt lat="43.0143770000" lon="0.2414670000"><ele>1357</ele><time>2026-03-20T12:07:26Z</time></trkpt>
<trkpt lat="43.0143770000" lon="0.2415020000"><ele>1357</ele><time>2026-03-20T12:07:29Z</time></trkpt>
<trkpt lat="43.0143700000" lon="0.2415270000"><ele>1357</ele><time>2026-03-20T12:07:31Z</time></trkpt>
<trkpt lat="43.0143620000" lon="0.2415570000"><ele>1357</ele><time>2026-03-20T12:07:33Z</time></trkpt>
<trkpt lat="43.0143550000" lon="0.2415900000"><ele>1357</ele><time>2026-03-20T12:07:35Z</time></trkpt>
<trkpt lat="43.0143520000" lon="0.2416170000"><ele>1356</ele><time>2026-03-20T12:07:37Z</time></trkpt>
<trkpt lat="43.0143500000" lon="0.2416420000"><ele>1356</ele><time>2026-03-20T12:07:39Z</time></trkpt>
<trkpt lat="43.0143470000" lon="0.2416720000"><ele>1356</ele><time>2026-03-20T12:07:41Z</time></trkpt>
<trkpt lat="43.0143370000" lon="0.2416930000"><ele>1356</ele><time>2026-03-20T12:07:43Z</time></trkpt>
<trkpt lat="43.0143320000" lon="0.2417220000"><ele>1356</ele><time>2026-03-20T12:07:45Z</time></trkpt>
<trkpt lat="43.0143270000" lon="0.2417480000"><ele>1356</ele><time>2026-03-20T12:07:47Z</time></trkpt>
<trkpt lat="43.0143220000" lon="0.2417770000"><ele>1356</ele><time>2026-03-20T12:07:49Z</time></trkpt>
<trkpt lat="43.0143170000" lon="0.2418070000"><ele>1356</ele><time>2026-03-20T12:07:51Z</time></trkpt>
<trkpt lat="43.0143070000" lon="0.2418320000"><ele>1356</ele><time>2026-03-20T12:07:53Z</time></trkpt>
<trkpt lat="43.0142920000" lon="0.2418670000"><ele>1355</ele><time>2026-03-20T12:07:56Z</time></trkpt>
<trkpt lat="43.0142870000" lon="0.2418920000"><ele>1355</ele><time>2026-03-20T12:07:58Z</time></trkpt>
<trkpt lat="43.0142770000" lon="0.2419320000"><ele>1355</ele><time>2026-03-20T12:08:01Z</time></trkpt>
<trkpt lat="43.0142670000" lon="0.2419650000"><ele>1355</ele><time>2026-03-20T12:08:03Z</time></trkpt>
<trkpt lat="43.0142600000" lon="0.2419920000"><ele>1356</ele><time>2026-03-20T12:08:05Z</time></trkpt>
<trkpt lat="43.0142570000" lon="0.2420230000"><ele>1356</ele><time>2026-03-20T12:08:09Z</time></trkpt>
<trkpt lat="43.0142450000" lon="0.2420450000"><ele>1356</ele><time>2026-03-20T12:08:12Z</time></trkpt>
<trkpt lat="43.0142550000" lon="0.2420720000"><ele>1356</ele><time>2026-03-20T12:09:16Z</time></trkpt>
<trkpt lat="43.0142670000" lon="0.2420920000"><ele>1356</ele><time>2026-03-20T12:09:18Z</time></trkpt>
<trkpt lat="43.0142770000" lon="0.2421270000"><ele>1356</ele><time>2026-03-20T12:09:21Z</time></trkpt>
<trkpt lat="43.0142820000" lon="0.2421520000"><ele>1356</ele><time>2026-03-20T12:09:24Z</time></trkpt>
<trkpt lat="43.0142820000" lon="0.2421820000"><ele>1356</ele><time>2026-03-20T12:09:27Z</time></trkpt>
<trkpt lat="43.0142720000" lon="0.2422070000"><ele>1356</ele><time>2026-03-20T12:09:30Z</time></trkpt>
<trkpt lat="43.0142620000" lon="0.2422300000"><ele>1356</ele><time>2026-03-20T12:09:34Z</time></trkpt>
<trkpt lat="43.0142670000" lon="0.2422650000"><ele>1356</ele><time>2026-03-20T12:09:39Z</time></trkpt>
<trkpt lat="43.0142670000" lon="0.2422900000"><ele>1356</ele><time>2026-03-20T12:09:41Z</time></trkpt>
<trkpt lat="43.0142670000" lon="0.2423170000"><ele>1356</ele><time>2026-03-20T12:09:43Z</time></trkpt>
<trkpt lat="43.0142670000" lon="0.2423450000"><ele>1356</ele><time>2026-03-20T12:09:46Z</time></trkpt>
<trkpt lat="43.0142800000" lon="0.2423700000"><ele>1355</ele><time>2026-03-20T12:09:51Z</time></trkpt>
<trkpt lat="43.0142920000" lon="0.2423970000"><ele>1356</ele><time>2026-03-20T12:10:05Z</time></trkpt>
<trkpt lat="43.0143050000" lon="0.2424320000"><ele>1356</ele><time>2026-03-20T12:10:07Z</time></trkpt>
<trkpt lat="43.0143200000" lon="0.2424600000"><ele>1356</ele><time>2026-03-20T12:10:09Z</time></trkpt>
<trkpt lat="43.0143370000" lon="0.2424800000"><ele>1356</ele><time>2026-03-20T12:10:11Z</time></trkpt>
<trkpt lat="43.0143500000" lon="0.2425020000"><ele>1356</ele><time>2026-03-20T12:10:14Z</time></trkpt>
<trkpt lat="43.0143630000" lon="0.2425280000"><ele>1356</ele><time>2026-03-20T12:10:17Z</time></trkpt>
<trkpt lat="43.0143700000" lon="0.2425620000"><ele>1356</ele><time>2026-03-20T12:10:20Z</time></trkpt>
<trkpt lat="43.0143800000" lon="0.2425950000"><ele>1357</ele><time>2026-03-20T12:10:23Z</time></trkpt>
<trkpt lat="43.0143870000" lon="0.2426170000"><ele>1357</ele><time>2026-03-20T12:10:28Z</time></trkpt>
<trkpt lat="43.0143920000" lon="0.2426470000"><ele>1357</ele><time>2026-03-20T12:10:44Z</time></trkpt>
<trkpt lat="43.0143820000" lon="0.2426720000"><ele>1358</ele><time>2026-03-20T12:10:46Z</time></trkpt>
<trkpt lat="43.0143720000" lon="0.2427000000"><ele>1358</ele><time>2026-03-20T12:10:48Z</time></trkpt>
<trkpt lat="43.0143620000" lon="0.2427220000"><ele>1358</ele><time>2026-03-20T12:10:54Z</time></trkpt>
<trkpt lat="43.0143400000" lon="0.2427420000"><ele>1358</ele><time>2026-03-20T12:10:57Z</time></trkpt>
<trkpt lat="43.0143320000" lon="0.2427700000"><ele>1358</ele><time>2026-03-20T12:11:01Z</time></trkpt>
<trkpt lat="43.0143370000" lon="0.2427970000"><ele>1358</ele><time>2026-03-20T12:11:05Z</time></trkpt>
<trkpt lat="43.0143420000" lon="0.2428220000"><ele>1358</ele><time>2026-03-20T12:11:08Z</time></trkpt>
<trkpt lat="43.0143270000" lon="0.2428420000"><ele>1358</ele><time>2026-03-20T12:11:11Z</time></trkpt>
<trkpt lat="43.0143170000" lon="0.2428720000"><ele>1359</ele><time>2026-03-20T12:11:14Z</time></trkpt>
<trkpt lat="43.0143070000" lon="0.2429020000"><ele>1359</ele><time>2026-03-20T12:11:17Z</time></trkpt>
<trkpt lat="43.0143050000" lon="0.2429320000"><ele>1359</ele><time>2026-03-20T12:11:20Z</time></trkpt>
<trkpt lat="43.0143200000" lon="0.2429480000"><ele>1359</ele><time>2026-03-20T12:11:24Z</time></trkpt>
<trkpt lat="43.0143420000" lon="0.2429430000"><ele>1360</ele><time>2026-03-20T12:11:33Z</time></trkpt>
<trkpt lat="43.0143700000" lon="0.2429670000"><ele>1360</ele><time>2026-03-20T12:11:39Z</time></trkpt>
<trkpt lat="43.0143970000" lon="0.2429850000"><ele>1360</ele><time>2026-03-20T12:11:41Z</time></trkpt>
<trkpt lat="43.0144120000" lon="0.2429970000"><ele>1361</ele><time>2026-03-20T12:11:43Z</time></trkpt>
<trkpt lat="43.0144300000" lon="0.2430220000"><ele>1361</ele><time>2026-03-20T12:11:50Z</time></trkpt>
<trkpt lat="43.0144470000" lon="0.2430420000"><ele>1361</ele><time>2026-03-20T12:11:52Z</time></trkpt>
<trkpt lat="43.0144650000" lon="0.2430620000"><ele>1361</ele><time>2026-03-20T12:11:54Z</time></trkpt>
<trkpt lat="43.0144770000" lon="0.2430820000"><ele>1361</ele><time>2026-03-20T12:11:59Z</time></trkpt>
<trkpt lat="43.0144820000" lon="0.2431070000"><ele>1362</ele><time>2026-03-20T12:12:04Z</time></trkpt>
<trkpt lat="43.0144970000" lon="0.2431370000"><ele>1362</ele><time>2026-03-20T12:12:14Z</time></trkpt>
<trkpt lat="43.0145120000" lon="0.2431670000"><ele>1362</ele><time>2026-03-20T12:12:17Z</time></trkpt>
<trkpt lat="43.0145180000" lon="0.2431970000"><ele>1362</ele><time>2026-03-20T12:12:19Z</time></trkpt>
<trkpt lat="43.0145300000" lon="0.2432170000"><ele>1362</ele><time>2026-03-20T12:12:22Z</time></trkpt>
<trkpt lat="43.0145450000" lon="0.2432320000"><ele>1363</ele><time>2026-03-20T12:12:25Z</time></trkpt>
<trkpt lat="43.0145670000" lon="0.2432370000"><ele>1363</ele><time>2026-03-20T12:12:28Z</time></trkpt>
<trkpt lat="43.0145820000" lon="0.2432570000"><ele>1363</ele><time>2026-03-20T12:12:31Z</time></trkpt>
<trkpt lat="43.0145720000" lon="0.2432870000"><ele>1363</ele><time>2026-03-20T12:12:35Z</time></trkpt>
<trkpt lat="43.0145920000" lon="0.2433070000"><ele>1363</ele><time>2026-03-20T12:12:48Z</time></trkpt>
<trkpt lat="43.0146100000" lon="0.2433200000"><ele>1364</ele><time>2026-03-20T12:12:50Z</time></trkpt>
<trkpt lat="43.0146270000" lon="0.2433370000"><ele>1364</ele><time>2026-03-20T12:12:52Z</time></trkpt>
<trkpt lat="43.0146400000" lon="0.2433570000"><ele>1364</ele><time>2026-03-20T12:13:04Z</time></trkpt>
<trkpt lat="43.0146600000" lon="0.2433820000"><ele>1364</ele><time>2026-03-20T12:13:07Z</time></trkpt>
<trkpt lat="43.0146670000" lon="0.2434170000"><ele>1364</ele><time>2026-03-20T12:13:24Z</time></trkpt>
<trkpt lat="43.0146720000" lon="0.2434570000"><ele>1364</ele><time>2026-03-20T12:13:26Z</time></trkpt>
<trkpt lat="43.0146770000" lon="0.2434900000"><ele>1364</ele><time>2026-03-20T12:13:28Z</time></trkpt>
<trkpt lat="43.0146720000" lon="0.2435150000"><ele>1365</ele><time>2026-03-20T12:13:32Z</time></trkpt>
<trkpt lat="43.0146670000" lon="0.2435450000"><ele>1365</ele><time>2026-03-20T12:13:36Z</time></trkpt>
<trkpt lat="43.0146670000" lon="0.2435770000"><ele>1365</ele><time>2026-03-20T12:13:40Z</time></trkpt>
<trkpt lat="43.0146670000" lon="0.2436020000"><ele>1365</ele><time>2026-03-20T12:13:43Z</time></trkpt>
<trkpt lat="43.0146650000" lon="0.2436320000"><ele>1366</ele><time>2026-03-20T12:13:46Z</time></trkpt>
<trkpt lat="43.0146470000" lon="0.2436520000"><ele>1366</ele><time>2026-03-20T12:13:50Z</time></trkpt>
<trkpt lat="43.0146270000" lon="0.2436570000"><ele>1367</ele><time>2026-03-20T12:13:55Z</time></trkpt>
<trkpt lat="43.0146120000" lon="0.2436770000"><ele>1367</ele><time>2026-03-20T12:13:59Z</time></trkpt>
<trkpt lat="43.0146120000" lon="0.2437020000"><ele>1367</ele><time>2026-03-20T12:14:02Z</time></trkpt>
<trkpt lat="43.0146150000" lon="0.2437270000"><ele>1367</ele><time>2026-03-20T12:14:06Z</time></trkpt>
<trkpt lat="43.0146070000" lon="0.2437520000"><ele>1367</ele><time>2026-03-20T12:14:10Z</time></trkpt>
<trkpt lat="43.0145870000" lon="0.2437520000"><ele>1368</ele><time>2026-03-20T12:14:17Z</time></trkpt>
<trkpt lat="43.0145850000" lon="0.2437830000"><ele>1368</ele><time>2026-03-20T12:14:29Z</time></trkpt>
<trkpt lat="43.0145770000" lon="0.2438170000"><ele>1368</ele><time>2026-03-20T12:14:31Z</time></trkpt>
<trkpt lat="43.0145670000" lon="0.2438520000"><ele>1369</ele><time>2026-03-20T12:14:33Z</time></trkpt>
<trkpt lat="43.0145520000" lon="0.2438820000"><ele>1369</ele><time>2026-03-20T12:14:35Z</time></trkpt>
<trkpt lat="43.0145420000" lon="0.2439050000"><ele>1369</ele><time>2026-03-20T12:14:38Z</time></trkpt>
<trkpt lat="43.0145420000" lon="0.2439320000"><ele>1370</ele><time>2026-03-20T12:14:43Z</time></trkpt>
<trkpt lat="43.0145570000" lon="0.2439570000"><ele>1370</ele><time>2026-03-20T12:14:47Z</time></trkpt>
<trkpt lat="43.0145600000" lon="0.2439850000"><ele>1370</ele><time>2026-03-20T12:14:50Z</time></trkpt>
<trkpt lat="43.0145620000" lon="0.2440120000"><ele>1371</ele><time>2026-03-20T12:14:54Z</time></trkpt>
<trkpt lat="43.0145620000" lon="0.2440370000"><ele>1371</ele><time>2026-03-20T12:14:58Z</time></trkpt>
<trkpt lat="43.0145620000" lon="0.2440620000"><ele>1372</ele><time>2026-03-20T12:15:01Z</time></trkpt>
<trkpt lat="43.0145720000" lon="0.2440820000"><ele>1372</ele><time>2026-03-20T12:15:06Z</time></trkpt>
<trkpt lat="43.0145870000" lon="0.2441070000"><ele>1373</ele><time>2026-03-20T12:15:11Z</time></trkpt>
<trkpt lat="43.0145920000" lon="0.2441370000"><ele>1374</ele><time>2026-03-20T12:15:15Z</time></trkpt>
<trkpt lat="43.0145950000" lon="0.2441620000"><ele>1374</ele><time>2026-03-20T12:15:20Z</time></trkpt>
<trkpt lat="43.0145970000" lon="0.2441880000"><ele>1375</ele><time>2026-03-20T12:15:30Z</time></trkpt>
<trkpt lat="43.0146200000" lon="0.2441980000"><ele>1376</ele><time>2026-03-20T12:15:33Z</time></trkpt>
<trkpt lat="43.0146450000" lon="0.2442100000"><ele>1376</ele><time>2026-03-20T12:15:36Z</time></trkpt>
<trkpt lat="43.0146470000" lon="0.2442370000"><ele>1377</ele><time>2026-03-20T12:15:40Z</time></trkpt>
<trkpt lat="43.0146570000" lon="0.2442770000"><ele>1382</ele><time>2026-03-20T12:16:42Z</time></trkpt>
<trkpt lat="43.0146700000" lon="0.2443100000"><ele>1382</ele><time>2026-03-20T12:16:43Z</time></trkpt>
<trkpt lat="43.0146820000" lon="0.2443500000"><ele>1382</ele><time>2026-03-20T12:16:44Z</time></trkpt>
<trkpt lat="43.0146920000" lon="0.2443900000"><ele>1382</ele><time>2026-03-20T12:16:45Z</time></trkpt>
<trkpt lat="43.0147000000" lon="0.2444220000"><ele>1383</ele><time>2026-03-20T12:16:46Z</time></trkpt>
<trkpt lat="43.0147000000" lon="0.2444570000"><ele>1383</ele><time>2026-03-20T12:16:48Z</time></trkpt>
<trkpt lat="43.0147100000" lon="0.2444820000"><ele>1384</ele><time>2026-03-20T12:16:56Z</time></trkpt>
<trkpt lat="43.0147120000" lon="0.2445220000"><ele>1389</ele><time>2026-03-20T12:17:47Z</time></trkpt>
<trkpt lat="43.0147120000" lon="0.2445720000"><ele>1390</ele><time>2026-03-20T12:17:48Z</time></trkpt>
<trkpt lat="43.0147120000" lon="0.2446370000"><ele>1390</ele><time>2026-03-20T12:17:49Z</time></trkpt>
<trkpt lat="43.0147120000" lon="0.2446970000"><ele>1390</ele><time>2026-03-20T12:17:50Z</time></trkpt>
<trkpt lat="43.0147120000" lon="0.2447420000"><ele>1390</ele><time>2026-03-20T12:17:51Z</time></trkpt>
<trkpt lat="43.0147120000" lon="0.2447850000"><ele>1390</ele><time>2026-03-20T12:17:55Z</time></trkpt>
<trkpt lat="43.0147070000" lon="0.2448150000"><ele>1392</ele><time>2026-03-20T12:18:34Z</time></trkpt>
<trkpt lat="43.0147150000" lon="0.2449070000"><ele>1393</ele><time>2026-03-20T12:19:11Z</time></trkpt>
<trkpt lat="43.0147000000" lon="0.2449550000"><ele>1395</ele><time>2026-03-20T12:19:54Z</time></trkpt>
<trkpt lat="43.0146970000" lon="0.2450050000"><ele>1396</ele><time>2026-03-20T12:19:55Z</time></trkpt>
<trkpt lat="43.0146970000" lon="0.2450550000"><ele>1396</ele><time>2026-03-20T12:19:56Z</time></trkpt>
<trkpt lat="43.0146970000" lon="0.2450970000"><ele>1396</ele><time>2026-03-20T12:19:57Z</time></trkpt>
<trkpt lat="43.0146970000" lon="0.2451250000"><ele>1396</ele><time>2026-03-20T12:19:58Z</time></trkpt>
<trkpt lat="43.0146970000" lon="0.2451520000"><ele>1396</ele><time>2026-03-20T12:20:00Z</time></trkpt>
<trkpt lat="43.0146920000" lon="0.2451820000"><ele>1397</ele><time>2026-03-20T12:20:04Z</time></trkpt>
<trkpt lat="43.0146770000" lon="0.2452050000"><ele>1397</ele><time>2026-03-20T12:20:08Z</time></trkpt>
<trkpt lat="43.0146730000" lon="0.2452320000"><ele>1398</ele><time>2026-03-20T12:20:14Z</time></trkpt>
<trkpt lat="43.0146670000" lon="0.2452670000"><ele>1399</ele><time>2026-03-20T12:20:33Z</time></trkpt>
<trkpt lat="43.0146600000" lon="0.2452970000"><ele>1399</ele><time>2026-03-20T12:20:35Z</time></trkpt>
<trkpt lat="43.0146550000" lon="0.2453250000"><ele>1399</ele><time>2026-03-20T12:20:37Z</time></trkpt>
<trkpt lat="43.0146620000" lon="0.2453470000"><ele>1399</ele><time>2026-03-20T12:20:41Z</time></trkpt>
<trkpt lat="43.0146670000" lon="0.2453720000"><ele>1400</ele><time>2026-03-20T12:20:45Z</time></trkpt>
<trkpt lat="43.0146700000" lon="0.2454020000"><ele>1401</ele><time>2026-03-20T12:20:50Z</time></trkpt>
<trkpt lat="43.0146720000" lon="0.2454270000"><ele>1402</ele><time>2026-03-20T12:20:55Z</time></trkpt>
<trkpt lat="43.0146820000" lon="0.2454520000"><ele>1402</ele><time>2026-03-20T12:20:59Z</time></trkpt>
<trkpt lat="43.0146920000" lon="0.2454770000"><ele>1403</ele><time>2026-03-20T12:21:03Z</time></trkpt>
<trkpt lat="43.0146970000" lon="0.2455070000"><ele>1404</ele><time>2026-03-20T12:21:07Z</time></trkpt>
<trkpt lat="43.0146950000" lon="0.2455320000"><ele>1405</ele><time>2026-03-20T12:21:13Z</time></trkpt>
<trkpt lat="43.0147020000" lon="0.2455550000"><ele>1407</ele><time>2026-03-20T12:21:46Z</time></trkpt>
<trkpt lat="43.0147070000" lon="0.2455870000"><ele>1407</ele><time>2026-03-20T12:21:48Z</time></trkpt>
<trkpt lat="43.0147150000" lon="0.2456250000"><ele>1407</ele><time>2026-03-20T12:21:50Z</time></trkpt>
<trkpt lat="43.0147200000" lon="0.2456500000"><ele>1408</ele><time>2026-03-20T12:21:52Z</time></trkpt>
<trkpt lat="43.0147220000" lon="0.2456800000"><ele>1408</ele><time>2026-03-20T12:21:56Z</time></trkpt>
<trkpt lat="43.0147320000" lon="0.2457020000"><ele>1409</ele><time>2026-03-20T12:21:59Z</time></trkpt>
<trkpt lat="43.0147520000" lon="0.2457170000"><ele>1409</ele><time>2026-03-20T12:22:02Z</time></trkpt>
<trkpt lat="43.0147520000" lon="0.2457450000"><ele>1409</ele><time>2026-03-20T12:22:06Z</time></trkpt>
<trkpt lat="43.0147470000" lon="0.2457770000"><ele>1410</ele><time>2026-03-20T12:22:10Z</time></trkpt>
<trkpt lat="43.0147470000" lon="0.2458050000"><ele>1411</ele><time>2026-03-20T12:22:14Z</time></trkpt>
<trkpt lat="43.0147350000" lon="0.2458270000"><ele>1411</ele><time>2026-03-20T12:22:18Z</time></trkpt>
<trkpt lat="43.0147320000" lon="0.2458570000"><ele>1411</ele><time>2026-03-20T12:22:22Z</time></trkpt>
<trkpt lat="43.0147170000" lon="0.2458820000"><ele>1412</ele><time>2026-03-20T12:22:25Z</time></trkpt>
<trkpt lat="43.0147070000" lon="0.2459070000"><ele>1412</ele><time>2026-03-20T12:22:29Z</time></trkpt>
<trkpt lat="43.0147020000" lon="0.2459320000"><ele>1412</ele><time>2026-03-20T12:22:33Z</time></trkpt>
<trkpt lat="43.0147000000" lon="0.2459620000"><ele>1413</ele><time>2026-03-20T12:22:39Z</time></trkpt>
<trkpt lat="43.0147000000" lon="0.2459920000"><ele>1413</ele><time>2026-03-20T12:22:42Z</time></trkpt>
<trkpt lat="43.0147070000" lon="0.2460200000"><ele>1414</ele><time>2026-03-20T12:22:45Z</time></trkpt>
<trkpt lat="43.0147170000" lon="0.2460450000"><ele>1414</ele><time>2026-03-20T12:22:49Z</time></trkpt>
<trkpt lat="43.0147070000" lon="0.2460720000"><ele>1415</ele><time>2026-03-20T12:22:52Z</time></trkpt>
<trkpt lat="43.0147020000" lon="0.2460970000"><ele>1415</ele><time>2026-03-20T12:22:55Z</time></trkpt>
<trkpt lat="43.0146950000" lon="0.2461250000"><ele>1416</ele><time>2026-03-20T12:22:58Z</time></trkpt>
<trkpt lat="43.0146820000" lon="0.2461470000"><ele>1417</ele><time>2026-03-20T12:23:02Z</time></trkpt>
<trkpt lat="43.0146700000" lon="0.2461650000"><ele>1417</ele><time>2026-03-20T12:23:05Z</time></trkpt>
<trkpt lat="43.0146570000" lon="0.2461920000"><ele>1418</ele><time>2026-03-20T12:23:09Z</time></trkpt>
<trkpt lat="43.0146620000" lon="0.2462300000"><ele>1418</ele><time>2026-03-20T12:23:12Z</time></trkpt>
<trkpt lat="43.0146620000" lon="0.2462550000"><ele>1418</ele><time>2026-03-20T12:23:14Z</time></trkpt>
<trkpt lat="43.0146600000" lon="0.2462870000"><ele>1419</ele><time>2026-03-20T12:23:18Z</time></trkpt>
<trkpt lat="43.0146550000" lon="0.2463120000"><ele>1419</ele><time>2026-03-20T12:23:22Z</time></trkpt>
<trkpt lat="43.0146520000" lon="0.2463370000"><ele>1420</ele><time>2026-03-20T12:23:25Z</time></trkpt>
<trkpt lat="43.0146370000" lon="0.2463570000"><ele>1421</ele><time>2026-03-20T12:23:30Z</time></trkpt>
<trkpt lat="43.0146400000" lon="0.2463820000"><ele>1421</ele><time>2026-03-20T12:23:35Z</time></trkpt>
<trkpt lat="43.0146350000" lon="0.2464080000"><ele>1422</ele><time>2026-03-20T12:23:38Z</time></trkpt>
<trkpt lat="43.0146200000" lon="0.2464370000"><ele>1422</ele><time>2026-03-20T12:23:41Z</time></trkpt>
<trkpt lat="43.0146200000" lon="0.2464630000"><ele>1423</ele><time>2026-03-20T12:23:44Z</time></trkpt>
<trkpt lat="43.0146170000" lon="0.2464950000"><ele>1423</ele><time>2026-03-20T12:23:47Z</time></trkpt>
<trkpt lat="43.0146070000" lon="0.2465220000"><ele>1424</ele><time>2026-03-20T12:23:50Z</time></trkpt>
<trkpt lat="43.0146020000" lon="0.2465520000"><ele>1424</ele><time>2026-03-20T12:23:53Z</time></trkpt>
<trkpt lat="43.0145870000" lon="0.2465720000"><ele>1424</ele><time>2026-03-20T12:23:56Z</time></trkpt>
<trkpt lat="43.0145770000" lon="0.2466020000"><ele>1425</ele><time>2026-03-20T12:23:59Z</time></trkpt>
<trkpt lat="43.0145750000" lon="0.2466320000"><ele>1425</ele><time>2026-03-20T12:24:03Z</time></trkpt>
<trkpt lat="43.0145700000" lon="0.2466620000"><ele>1425</ele><time>2026-03-20T12:24:07Z</time></trkpt>
<trkpt lat="43.0145720000" lon="0.2466880000"><ele>1426</ele><time>2026-03-20T12:24:11Z</time></trkpt>
<trkpt lat="43.0145500000" lon="0.2466870000"><ele>1427</ele><time>2026-03-20T12:24:18Z</time></trkpt>
<trkpt lat="43.0145420000" lon="0.2467120000"><ele>1429</ele><time>2026-03-20T12:24:53Z</time></trkpt>
<trkpt lat="43.0145320000" lon="0.2467470000"><ele>1429</ele><time>2026-03-20T12:24:54Z</time></trkpt>
<trkpt lat="43.0145250000" lon="0.2467900000"><ele>1429</ele><time>2026-03-20T12:24:55Z</time></trkpt>
<trkpt lat="43.0145150000" lon="0.2468320000"><ele>1429</ele><time>2026-03-20T12:24:56Z</time></trkpt>
<trkpt lat="43.0145070000" lon="0.2468700000"><ele>1429</ele><time>2026-03-20T12:24:57Z</time></trkpt>
<trkpt lat="43.0145020000" lon="0.2468970000"><ele>1430</ele><time>2026-03-20T12:24:58Z</time></trkpt>
<trkpt lat="43.0144920000" lon="0.2469320000"><ele>1430</ele><time>2026-03-20T12:25:00Z</time></trkpt>
<trkpt lat="43.0144920000" lon="0.2469630000"><ele>1430</ele><time>2026-03-20T12:25:03Z</time></trkpt>
<trkpt lat="43.0144920000" lon="0.2469920000"><ele>1430</ele><time>2026-03-20T12:25:06Z</time></trkpt>
<trkpt lat="43.0145000000" lon="0.2470170000"><ele>1431</ele><time>2026-03-20T12:25:29Z</time></trkpt>
<trkpt lat="43.0144870000" lon="0.2470370000"><ele>1431</ele><time>2026-03-20T12:25:32Z</time></trkpt>
<trkpt lat="43.0144720000" lon="0.2470570000"><ele>1431</ele><time>2026-03-20T12:25:34Z</time></trkpt>
<trkpt lat="43.0144850000" lon="0.2470750000"><ele>1431</ele><time>2026-03-20T12:25:42Z</time></trkpt>
<trkpt lat="43.0144870000" lon="0.2471070000"><ele>1431</ele><time>2026-03-20T12:25:46Z</time></trkpt>
<trkpt lat="43.0144800000" lon="0.2471300000"><ele>1431</ele><time>2026-03-20T12:25:52Z</time></trkpt>
<trkpt lat="43.0144670000" lon="0.2471650000"><ele>1431</ele><time>2026-03-20T12:25:54Z</time></trkpt>
<trkpt lat="43.0144570000" lon="0.2472020000"><ele>1431</ele><time>2026-03-20T12:25:56Z</time></trkpt>
<trkpt lat="43.0144470000" lon="0.2472270000"><ele>1431</ele><time>2026-03-20T12:25:58Z</time></trkpt>
<trkpt lat="43.0144450000" lon="0.2472520000"><ele>1431</ele><time>2026-03-20T12:26:00Z</time></trkpt>
<trkpt lat="43.0144470000" lon="0.2472770000"><ele>1430</ele><time>2026-03-20T12:26:02Z</time></trkpt>
<trkpt lat="43.0144520000" lon="0.2473070000"><ele>1430</ele><time>2026-03-20T12:26:05Z</time></trkpt>
<trkpt lat="43.0144620000" lon="0.2473370000"><ele>1431</ele><time>2026-03-20T12:26:09Z</time></trkpt>
<trkpt lat="43.0144570000" lon="0.2473820000"><ele>1431</ele><time>2026-03-20T12:32:05Z</time></trkpt>
<trkpt lat="43.0144520000" lon="0.2474170000"><ele>1431</ele><time>2026-03-20T12:32:07Z</time></trkpt>
<trkpt lat="43.0144480000" lon="0.2474470000"><ele>1431</ele><time>2026-03-20T12:32:09Z</time></trkpt>
<trkpt lat="43.0144320000" lon="0.2474370000"><ele>1433</ele><time>2026-03-20T12:45:52Z</time></trkpt>
<trkpt lat="43.0144470000" lon="0.2474170000"><ele>1434</ele><time>2026-03-20T12:47:14Z</time></trkpt>
<trkpt lat="43.0144570000" lon="0.2473820000"><ele>1434</ele><time>2026-03-20T12:49:07Z</time></trkpt>
<trkpt lat="43.0144570000" lon="0.2473470000"><ele>1434</ele><time>2026-03-20T12:49:08Z</time></trkpt>
<trkpt lat="43.0144570000" lon="0.2473070000"><ele>1434</ele><time>2026-03-20T12:49:09Z</time></trkpt>
<trkpt lat="43.0144600000" lon="0.2472670000"><ele>1434</ele><time>2026-03-20T12:49:10Z</time></trkpt>
<trkpt lat="43.0144620000" lon="0.2472370000"><ele>1434</ele><time>2026-03-20T12:49:11Z</time></trkpt>
<trkpt lat="43.0144700000" lon="0.2471970000"><ele>1434</ele><time>2026-03-20T12:49:13Z</time></trkpt>
<trkpt lat="43.0144720000" lon="0.2471620000"><ele>1434</ele><time>2026-03-20T12:49:15Z</time></trkpt>
<trkpt lat="43.0144820000" lon="0.2471320000"><ele>1434</ele><time>2026-03-20T12:49:18Z</time></trkpt>
<trkpt lat="43.0144850000" lon="0.2471020000"><ele>1434</ele><time>2026-03-20T12:49:21Z</time></trkpt>
<trkpt lat="43.0144850000" lon="0.2470770000"><ele>1434</ele><time>2026-03-20T12:49:23Z</time></trkpt>
<trkpt lat="43.0144920000" lon="0.2470500000"><ele>1434</ele><time>2026-03-20T12:49:26Z</time></trkpt>
<trkpt lat="43.0145020000" lon="0.2470220000"><ele>1434</ele><time>2026-03-20T12:49:29Z</time></trkpt>
<trkpt lat="43.0145100000" lon="0.2469900000"><ele>1434</ele><time>2026-03-20T12:49:32Z</time></trkpt>
<trkpt lat="43.0145170000" lon="0.2469570000"><ele>1434</ele><time>2026-03-20T12:49:35Z</time></trkpt>
<trkpt lat="43.0145220000" lon="0.2469320000"><ele>1434</ele><time>2026-03-20T12:49:37Z</time></trkpt>
<trkpt lat="43.0145270000" lon="0.2469070000"><ele>1434</ele><time>2026-03-20T12:49:39Z</time></trkpt>
<trkpt lat="43.0145300000" lon="0.2468780000"><ele>1433</ele><time>2026-03-20T12:49:51Z</time></trkpt>
<trkpt lat="43.0145250000" lon="0.2468500000"><ele>1433</ele><time>2026-03-20T12:49:53Z</time></trkpt>
<trkpt lat="43.0145320000" lon="0.2468270000"><ele>1433</ele><time>2026-03-20T12:49:55Z</time></trkpt>
<trkpt lat="43.0145470000" lon="0.2468170000"><ele>1432</ele><time>2026-03-20T12:49:57Z</time></trkpt>
<trkpt lat="43.0145650000" lon="0.2468050000"><ele>1432</ele><time>2026-03-20T12:49:59Z</time></trkpt>
<trkpt lat="43.0145820000" lon="0.2467920000"><ele>1431</ele><time>2026-03-20T12:50:02Z</time></trkpt>
<trkpt lat="43.0146000000" lon="0.2468070000"><ele>1431</ele><time>2026-03-20T12:50:06Z</time></trkpt>
<trkpt lat="43.0146100000" lon="0.2468320000"><ele>1430</ele><time>2026-03-20T12:50:11Z</time></trkpt>
<trkpt lat="43.0146220000" lon="0.2468550000"><ele>1429</ele><time>2026-03-20T12:50:25Z</time></trkpt>
<trkpt lat="43.0146220000" lon="0.2468830000"><ele>1428</ele><time>2026-03-20T12:50:28Z</time></trkpt>
<trkpt lat="43.0146150000" lon="0.2469070000"><ele>1428</ele><time>2026-03-20T12:50:32Z</time></trkpt>
<trkpt lat="43.0146420000" lon="0.2469270000"><ele>1425</ele><time>2026-03-20T12:50:53Z</time></trkpt>
<trkpt lat="43.0146670000" lon="0.2469470000"><ele>1424</ele><time>2026-03-20T12:50:55Z</time></trkpt>
<trkpt lat="43.0146820000" lon="0.2469370000"><ele>1423</ele><time>2026-03-20T12:51:01Z</time></trkpt>
<trkpt lat="43.0146970000" lon="0.2469070000"><ele>1421</ele><time>2026-03-20T12:51:15Z</time></trkpt>
<trkpt lat="43.0147120000" lon="0.2468870000"><ele>1420</ele><time>2026-03-20T12:51:18Z</time></trkpt>
<trkpt lat="43.0147270000" lon="0.2468700000"><ele>1420</ele><time>2026-03-20T12:51:22Z</time></trkpt>
<trkpt lat="43.0147420000" lon="0.2468520000"><ele>1419</ele><time>2026-03-20T12:51:26Z</time></trkpt>
<trkpt lat="43.0147570000" lon="0.2468270000"><ele>1418</ele><time>2026-03-20T12:51:30Z</time></trkpt>
<trkpt lat="43.0147670000" lon="0.2468020000"><ele>1417</ele><time>2026-03-20T12:51:36Z</time></trkpt>
<trkpt lat="43.0147770000" lon="0.2467820000"><ele>1417</ele><time>2026-03-20T12:51:40Z</time></trkpt>
<trkpt lat="43.0147870000" lon="0.2467520000"><ele>1416</ele><time>2026-03-20T12:51:43Z</time></trkpt>
<trkpt lat="43.0148000000" lon="0.2467250000"><ele>1416</ele><time>2026-03-20T12:51:49Z</time></trkpt>
<trkpt lat="43.0148120000" lon="0.2467070000"><ele>1416</ele><time>2026-03-20T12:51:53Z</time></trkpt>
<trkpt lat="43.0148200000" lon="0.2466820000"><ele>1415</ele><time>2026-03-20T12:51:59Z</time></trkpt>
<trkpt lat="43.0148320000" lon="0.2466570000"><ele>1415</ele><time>2026-03-20T12:52:03Z</time></trkpt>
<trkpt lat="43.0148400000" lon="0.2466320000"><ele>1414</ele><time>2026-03-20T12:52:10Z</time></trkpt>
<trkpt lat="43.0148520000" lon="0.2466070000"><ele>1414</ele><time>2026-03-20T12:52:12Z</time></trkpt>
<trkpt lat="43.0148670000" lon="0.2465770000"><ele>1414</ele><time>2026-03-20T12:52:14Z</time></trkpt>
<trkpt lat="43.0148770000" lon="0.2465470000"><ele>1414</ele><time>2026-03-20T12:52:16Z</time></trkpt>
<trkpt lat="43.0148800000" lon="0.2465170000"><ele>1413</ele><time>2026-03-20T12:52:18Z</time></trkpt>
<trkpt lat="43.0148850000" lon="0.2464920000"><ele>1413</ele><time>2026-03-20T12:52:21Z</time></trkpt>
<trkpt lat="43.0148980000" lon="0.2464770000"><ele>1412</ele><time>2026-03-20T12:52:26Z</time></trkpt>
<trkpt lat="43.0149150000" lon="0.2464470000"><ele>1412</ele><time>2026-03-20T12:52:30Z</time></trkpt>
<trkpt lat="43.0149220000" lon="0.2464220000"><ele>1411</ele><time>2026-03-20T12:52:33Z</time></trkpt>
<trkpt lat="43.0149370000" lon="0.2464020000"><ele>1411</ele><time>2026-03-20T12:52:36Z</time></trkpt>
<trkpt lat="43.0149500000" lon="0.2463770000"><ele>1410</ele><time>2026-03-20T12:52:41Z</time></trkpt>
<trkpt lat="43.0149570000" lon="0.2463450000"><ele>1410</ele><time>2026-03-20T12:52:45Z</time></trkpt>
<trkpt lat="43.0149570000" lon="0.2463170000"><ele>1410</ele><time>2026-03-20T12:52:47Z</time></trkpt>
<trkpt lat="43.0149600000" lon="0.2462850000"><ele>1410</ele><time>2026-03-20T12:52:50Z</time></trkpt>
<trkpt lat="43.0149620000" lon="0.2462550000"><ele>1410</ele><time>2026-03-20T12:52:53Z</time></trkpt>
<trkpt lat="43.0149680000" lon="0.2462250000"><ele>1410</ele><time>2026-03-20T12:52:56Z</time></trkpt>
<trkpt lat="43.0149800000" lon="0.2461970000"><ele>1410</ele><time>2026-03-20T12:52:59Z</time></trkpt>
<trkpt lat="43.0149900000" lon="0.2461650000"><ele>1410</ele><time>2026-03-20T12:53:02Z</time></trkpt>
<trkpt lat="43.0149970000" lon="0.2461320000"><ele>1409</ele><time>2026-03-20T12:53:05Z</time></trkpt>
<trkpt lat="43.0150000000" lon="0.2461050000"><ele>1409</ele><time>2026-03-20T12:53:08Z</time></trkpt>
<trkpt lat="43.0150100000" lon="0.2460770000"><ele>1409</ele><time>2026-03-20T12:53:11Z</time></trkpt>
<trkpt lat="43.0150220000" lon="0.2460470000"><ele>1408</ele><time>2026-03-20T12:53:14Z</time></trkpt>
<trkpt lat="43.0150300000" lon="0.2460200000"><ele>1408</ele><time>2026-03-20T12:53:17Z</time></trkpt>
<trkpt lat="43.0150400000" lon="0.2459880000"><ele>1408</ele><time>2026-03-20T12:53:20Z</time></trkpt>
<trkpt lat="43.0150450000" lon="0.2459600000"><ele>1407</ele><time>2026-03-20T12:53:23Z</time></trkpt>
<trkpt lat="43.0150470000" lon="0.2459270000"><ele>1407</ele><time>2026-03-20T12:53:26Z</time></trkpt>
<trkpt lat="43.0150470000" lon="0.2458920000"><ele>1406</ele><time>2026-03-20T12:53:28Z</time></trkpt>
<trkpt lat="43.0150500000" lon="0.2458620000"><ele>1406</ele><time>2026-03-20T12:53:30Z</time></trkpt>
<trkpt lat="43.0150520000" lon="0.2458370000"><ele>1406</ele><time>2026-03-20T12:53:32Z</time></trkpt>
<trkpt lat="43.0150530000" lon="0.2458120000"><ele>1406</ele><time>2026-03-20T12:53:34Z</time></trkpt>
<trkpt lat="43.0150670000" lon="0.2457770000"><ele>1406</ele><time>2026-03-20T12:53:37Z</time></trkpt>
<trkpt lat="43.0150750000" lon="0.2457520000"><ele>1405</ele><time>2026-03-20T12:53:39Z</time></trkpt>
<trkpt lat="43.0150800000" lon="0.2457170000"><ele>1405</ele><time>2026-03-20T12:53:42Z</time></trkpt>
<trkpt lat="43.0150900000" lon="0.2456920000"><ele>1404</ele><time>2026-03-20T12:53:45Z</time></trkpt>
<trkpt lat="43.0151120000" lon="0.2456670000"><ele>1403</ele><time>2026-03-20T12:54:18Z</time></trkpt>
<trkpt lat="43.0151320000" lon="0.2456420000"><ele>1403</ele><time>2026-03-20T12:54:20Z</time></trkpt>
<trkpt lat="43.0151500000" lon="0.2456220000"><ele>1402</ele><time>2026-03-20T12:54:22Z</time></trkpt>
<trkpt lat="43.0151600000" lon="0.2456020000"><ele>1402</ele><time>2026-03-20T12:54:24Z</time></trkpt>
<trkpt lat="43.0151720000" lon="0.2455820000"><ele>1401</ele><time>2026-03-20T12:54:27Z</time></trkpt>
<trkpt lat="43.0151900000" lon="0.2455570000"><ele>1400</ele><time>2026-03-20T12:54:31Z</time></trkpt>
<trkpt lat="43.0152070000" lon="0.2455470000"><ele>1399</ele><time>2026-03-20T12:54:36Z</time></trkpt>
<trkpt lat="43.0152200000" lon="0.2455270000"><ele>1399</ele><time>2026-03-20T12:54:39Z</time></trkpt>
<trkpt lat="43.0152300000" lon="0.2454870000"><ele>1398</ele><time>2026-03-20T12:54:42Z</time></trkpt>
<trkpt lat="43.0152370000" lon="0.2454570000"><ele>1398</ele><time>2026-03-20T12:54:44Z</time></trkpt>
<trkpt lat="43.0152450000" lon="0.2454220000"><ele>1397</ele><time>2026-03-20T12:54:47Z</time></trkpt>
<trkpt lat="43.0152570000" lon="0.2453970000"><ele>1396</ele><time>2026-03-20T12:54:50Z</time></trkpt>
<trkpt lat="43.0152700000" lon="0.2453750000"><ele>1395</ele><time>2026-03-20T12:54:53Z</time></trkpt>
<trkpt lat="43.0152820000" lon="0.2453570000"><ele>1393</ele><time>2026-03-20T12:54:57Z</time></trkpt>
<trkpt lat="43.0153000000" lon="0.2453300000"><ele>1393</ele><time>2026-03-20T12:55:00Z</time></trkpt>
<trkpt lat="43.0153150000" lon="0.2453150000"><ele>1392</ele><time>2026-03-20T12:55:03Z</time></trkpt>
<trkpt lat="43.0153300000" lon="0.2452920000"><ele>1391</ele><time>2026-03-20T12:55:06Z</time></trkpt>
<trkpt lat="43.0153450000" lon="0.2452700000"><ele>1390</ele><time>2026-03-20T12:55:09Z</time></trkpt>
<trkpt lat="43.0153620000" lon="0.2452550000"><ele>1389</ele><time>2026-03-20T12:55:12Z</time></trkpt>
<trkpt lat="43.0153800000" lon="0.2452350000"><ele>1388</ele><time>2026-03-20T12:55:15Z</time></trkpt>
<trkpt lat="43.0153920000" lon="0.2452170000"><ele>1387</ele><time>2026-03-20T12:55:18Z</time></trkpt>
<trkpt lat="43.0154120000" lon="0.2451970000"><ele>1386</ele><time>2026-03-20T12:55:21Z</time></trkpt>
<trkpt lat="43.0154270000" lon="0.2451720000"><ele>1386</ele><time>2026-03-20T12:55:24Z</time></trkpt>
<trkpt lat="43.0154450000" lon="0.2451470000"><ele>1385</ele><time>2026-03-20T12:55:27Z</time></trkpt>
<trkpt lat="43.0154600000" lon="0.2451320000"><ele>1384</ele><time>2026-03-20T12:55:29Z</time></trkpt>
<trkpt lat="43.0154820000" lon="0.2451120000"><ele>1383</ele><time>2026-03-20T12:55:32Z</time></trkpt>
<trkpt lat="43.0155000000" lon="0.2451050000"><ele>1382</ele><time>2026-03-20T12:55:35Z</time></trkpt>
<trkpt lat="43.0155170000" lon="0.2450820000"><ele>1381</ele><time>2026-03-20T12:55:38Z</time></trkpt>
<trkpt lat="43.0155350000" lon="0.2450670000"><ele>1380</ele><time>2026-03-20T12:55:40Z</time></trkpt>
<trkpt lat="43.0155550000" lon="0.2450520000"><ele>1379</ele><time>2026-03-20T12:55:43Z</time></trkpt>
<trkpt lat="43.0155770000" lon="0.2450400000"><ele>1378</ele><time>2026-03-20T12:55:46Z</time></trkpt>
<trkpt lat="43.0155950000" lon="0.2450450000"><ele>1377</ele><time>2026-03-20T12:55:49Z</time></trkpt>
<trkpt lat="43.0155870000" lon="0.2450050000"><ele>1376</ele><time>2026-03-20T12:56:05Z</time></trkpt>
<trkpt lat="43.0155820000" lon="0.2449650000"><ele>1376</ele><time>2026-03-20T12:56:07Z</time></trkpt>
<trkpt lat="43.0155800000" lon="0.2449270000"><ele>1375</ele><time>2026-03-20T12:56:09Z</time></trkpt>
<trkpt lat="43.0155770000" lon="0.2449020000"><ele>1375</ele><time>2026-03-20T12:56:11Z</time></trkpt>
<trkpt lat="43.0155730000" lon="0.2448720000"><ele>1375</ele><time>2026-03-20T12:56:13Z</time></trkpt>
<trkpt lat="43.0155670000" lon="0.2448470000"><ele>1375</ele><time>2026-03-20T12:56:15Z</time></trkpt>
<trkpt lat="43.0155670000" lon="0.2448170000"><ele>1374</ele><time>2026-03-20T12:56:18Z</time></trkpt>
<trkpt lat="43.0155700000" lon="0.2447850000"><ele>1373</ele><time>2026-03-20T12:56:21Z</time></trkpt>
<trkpt lat="43.0155800000" lon="0.2447530000"><ele>1373</ele><time>2026-03-20T12:56:24Z</time></trkpt>
<trkpt lat="43.0155820000" lon="0.2447270000"><ele>1371</ele><time>2026-03-20T12:56:43Z</time></trkpt>
<trkpt lat="43.0155850000" lon="0.2446900000"><ele>1371</ele><time>2026-03-20T12:56:45Z</time></trkpt>
<trkpt lat="43.0155900000" lon="0.2446570000"><ele>1370</ele><time>2026-03-20T12:56:47Z</time></trkpt>
<trkpt lat="43.0156000000" lon="0.2446270000"><ele>1370</ele><time>2026-03-20T12:56:50Z</time></trkpt>
<trkpt lat="43.0156070000" lon="0.2446020000"><ele>1369</ele><time>2026-03-20T12:56:52Z</time></trkpt>
<trkpt lat="43.0156150000" lon="0.2445770000"><ele>1369</ele><time>2026-03-20T12:56:55Z</time></trkpt>
<trkpt lat="43.0156170000" lon="0.2445520000"><ele>1368</ele><time>2026-03-20T12:56:57Z</time></trkpt>
<trkpt lat="43.0156320000" lon="0.2445350000"><ele>1367</ele><time>2026-03-20T12:57:00Z</time></trkpt>
<trkpt lat="43.0156520000" lon="0.2445170000"><ele>1366</ele><time>2026-03-20T12:57:03Z</time></trkpt>
<trkpt lat="43.0156620000" lon="0.2444820000"><ele>1366</ele><time>2026-03-20T12:57:06Z</time></trkpt>
<trkpt lat="43.0156650000" lon="0.2444520000"><ele>1365</ele><time>2026-03-20T12:57:08Z</time></trkpt>
<trkpt lat="43.0156670000" lon="0.2444270000"><ele>1364</ele><time>2026-03-20T12:57:10Z</time></trkpt>
<trkpt lat="43.0156750000" lon="0.2444000000"><ele>1363</ele><time>2026-03-20T12:57:13Z</time></trkpt>
<trkpt lat="43.0156850000" lon="0.2443750000"><ele>1362</ele><time>2026-03-20T12:57:17Z</time></trkpt>
<trkpt lat="43.0156870000" lon="0.2443470000"><ele>1361</ele><time>2026-03-20T12:57:20Z</time></trkpt>
<trkpt lat="43.0156900000" lon="0.2443150000"><ele>1360</ele><time>2026-03-20T12:57:23Z</time></trkpt>
<trkpt lat="43.0156950000" lon="0.2442870000"><ele>1359</ele><time>2026-03-20T12:57:26Z</time></trkpt>
<trkpt lat="43.0157000000" lon="0.2442620000"><ele>1358</ele><time>2026-03-20T12:57:29Z</time></trkpt>
<trkpt lat="43.0157120000" lon="0.2442400000"><ele>1358</ele><time>2026-03-20T12:57:32Z</time></trkpt>
<trkpt lat="43.0157270000" lon="0.2442170000"><ele>1357</ele><time>2026-03-20T12:57:35Z</time></trkpt>
<trkpt lat="43.0157250000" lon="0.2441920000"><ele>1356</ele><time>2026-03-20T12:57:38Z</time></trkpt>
<trkpt lat="43.0157270000" lon="0.2441650000"><ele>1355</ele><time>2026-03-20T12:57:41Z</time></trkpt>
<trkpt lat="43.0157170000" lon="0.2441320000"><ele>1354</ele><time>2026-03-20T12:57:45Z</time></trkpt>
<trkpt lat="43.0157120000" lon="0.2441020000"><ele>1353</ele><time>2026-03-20T12:57:48Z</time></trkpt>
<trkpt lat="43.0157070000" lon="0.2440700000"><ele>1353</ele><time>2026-03-20T12:57:51Z</time></trkpt>
<trkpt lat="43.0157120000" lon="0.2440370000"><ele>1351</ele><time>2026-03-20T12:57:55Z</time></trkpt>
<trkpt lat="43.0157170000" lon="0.2440070000"><ele>1351</ele><time>2026-03-20T12:57:58Z</time></trkpt>
<trkpt lat="43.0157320000" lon="0.2439850000"><ele>1350</ele><time>2026-03-20T12:58:01Z</time></trkpt>
<trkpt lat="43.0157500000" lon="0.2439900000"><ele>1349</ele><time>2026-03-20T12:58:03Z</time></trkpt>
<trkpt lat="43.0157750000" lon="0.2440070000"><ele>1348</ele><time>2026-03-20T12:58:06Z</time></trkpt>
<trkpt lat="43.0157900000" lon="0.2440250000"><ele>1348</ele><time>2026-03-20T12:58:09Z</time></trkpt>
<trkpt lat="43.0158120000" lon="0.2440200000"><ele>1348</ele><time>2026-03-20T12:58:13Z</time></trkpt>
<trkpt lat="43.0158220000" lon="0.2440000000"><ele>1347</ele><time>2026-03-20T12:58:16Z</time></trkpt>
<trkpt lat="43.0158370000" lon="0.2439750000"><ele>1346</ele><time>2026-03-20T12:58:19Z</time></trkpt>
<trkpt lat="43.0158470000" lon="0.2439420000"><ele>1345</ele><time>2026-03-20T12:58:22Z</time></trkpt>
<trkpt lat="43.0158400000" lon="0.2439130000"><ele>1344</ele><time>2026-03-20T12:58:24Z</time></trkpt>
<trkpt lat="43.0158370000" lon="0.2438870000"><ele>1343</ele><time>2026-03-20T12:58:28Z</time></trkpt>
<trkpt lat="43.0158470000" lon="0.2438570000"><ele>1342</ele><time>2026-03-20T12:58:31Z</time></trkpt>
<trkpt lat="43.0158570000" lon="0.2438230000"><ele>1341</ele><time>2026-03-20T12:58:34Z</time></trkpt>
<trkpt lat="43.0158700000" lon="0.2438000000"><ele>1340</ele><time>2026-03-20T12:58:37Z</time></trkpt>
<trkpt lat="43.0158800000" lon="0.2437770000"><ele>1340</ele><time>2026-03-20T12:58:40Z</time></trkpt>
<trkpt lat="43.0158800000" lon="0.2437520000"><ele>1338</ele><time>2026-03-20T12:58:44Z</time></trkpt>
<trkpt lat="43.0158820000" lon="0.2437170000"><ele>1337</ele><time>2026-03-20T12:58:47Z</time></trkpt>
<trkpt lat="43.0158870000" lon="0.2436880000"><ele>1336</ele><time>2026-03-20T12:58:50Z</time></trkpt>
<trkpt lat="43.0159050000" lon="0.2436770000"><ele>1336</ele><time>2026-03-20T12:58:53Z</time></trkpt>
<trkpt lat="43.0158920000" lon="0.2436600000"><ele>1334</ele><time>2026-03-20T12:58:58Z</time></trkpt>
<trkpt lat="43.0158830000" lon="0.2436870000"><ele>1333</ele><time>2026-03-20T12:59:29Z</time></trkpt>
<trkpt lat="43.0158870000" lon="0.2436620000"><ele>1333</ele><time>2026-03-20T12:59:37Z</time></trkpt>
<trkpt lat="43.0159020000" lon="0.2436430000"><ele>1334</ele><time>2026-03-20T13:00:13Z</time></trkpt>
<trkpt lat="43.0159150000" lon="0.2436220000"><ele>1333</ele><time>2026-03-20T13:00:15Z</time></trkpt>
<trkpt lat="43.0159220000" lon="0.2435950000"><ele>1333</ele><time>2026-03-20T13:00:17Z</time></trkpt>
<trkpt lat="43.0159270000" lon="0.2435720000"><ele>1332</ele><time>2026-03-20T13:00:19Z</time></trkpt>
<trkpt lat="43.0159320000" lon="0.2435420000"><ele>1332</ele><time>2026-03-20T13:00:22Z</time></trkpt>
<trkpt lat="43.0159570000" lon="0.2435350000"><ele>1331</ele><time>2026-03-20T13:00:25Z</time></trkpt>
<trkpt lat="43.0159770000" lon="0.2435270000"><ele>1329</ele><time>2026-03-20T13:00:29Z</time></trkpt>
<trkpt lat="43.0159920000" lon="0.2435100000"><ele>1328</ele><time>2026-03-20T13:00:33Z</time></trkpt>
<trkpt lat="43.0160000000" lon="0.2434850000"><ele>1327</ele><time>2026-03-20T13:00:36Z</time></trkpt>
<trkpt lat="43.0160020000" lon="0.2434520000"><ele>1326</ele><time>2026-03-20T13:00:39Z</time></trkpt>
<trkpt lat="43.0160020000" lon="0.2434200000"><ele>1325</ele><time>2026-03-20T13:00:42Z</time></trkpt>
<trkpt lat="43.0160070000" lon="0.2433950000"><ele>1325</ele><time>2026-03-20T13:00:44Z</time></trkpt>
<trkpt lat="43.0160120000" lon="0.2433630000"><ele>1324</ele><time>2026-03-20T13:00:47Z</time></trkpt>
<trkpt lat="43.0160320000" lon="0.2433570000"><ele>1323</ele><time>2026-03-20T13:00:50Z</time></trkpt>
<trkpt lat="43.0160370000" lon="0.2433270000"><ele>1322</ele><time>2026-03-20T13:00:53Z</time></trkpt>
<trkpt lat="43.0160350000" lon="0.2433000000"><ele>1321</ele><time>2026-03-20T13:00:56Z</time></trkpt>
<trkpt lat="43.0160420000" lon="0.2432770000"><ele>1321</ele><time>2026-03-20T13:00:59Z</time></trkpt>
<trkpt lat="43.0160520000" lon="0.2432450000"><ele>1319</ele><time>2026-03-20T13:01:03Z</time></trkpt>
<trkpt lat="43.0160570000" lon="0.2432130000"><ele>1319</ele><time>2026-03-20T13:01:06Z</time></trkpt>
<trkpt lat="43.0160550000" lon="0.2431870000"><ele>1318</ele><time>2026-03-20T13:01:09Z</time></trkpt>
<trkpt lat="43.0160620000" lon="0.2431570000"><ele>1317</ele><time>2026-03-20T13:01:12Z</time></trkpt>
<trkpt lat="43.0160670000" lon="0.2431250000"><ele>1316</ele><time>2026-03-20T13:01:15Z</time></trkpt>
<trkpt lat="43.0160770000" lon="0.2431000000"><ele>1315</ele><time>2026-03-20T13:01:18Z</time></trkpt>
<trkpt lat="43.0160950000" lon="0.2430820000"><ele>1314</ele><time>2026-03-20T13:01:21Z</time></trkpt>
<trkpt lat="43.0161000000" lon="0.2430520000"><ele>1313</ele><time>2026-03-20T13:01:25Z</time></trkpt>
<trkpt lat="43.0160900000" lon="0.2430270000"><ele>1312</ele><time>2026-03-20T13:01:28Z</time></trkpt>
<trkpt lat="43.0160970000" lon="0.2429970000"><ele>1311</ele><time>2026-03-20T13:01:32Z</time></trkpt>
<trkpt lat="43.0161150000" lon="0.2429870000"><ele>1310</ele><time>2026-03-20T13:01:36Z</time></trkpt>
<trkpt lat="43.0161300000" lon="0.2430070000"><ele>1308</ele><time>2026-03-20T13:02:04Z</time></trkpt>
<trkpt lat="43.0161520000" lon="0.2430270000"><ele>1308</ele><time>2026-03-20T13:02:07Z</time></trkpt>
<trkpt lat="43.0161700000" lon="0.2430320000"><ele>1308</ele><time>2026-03-20T13:02:09Z</time></trkpt>
<trkpt lat="43.0161750000" lon="0.2429970000"><ele>1308</ele><time>2026-03-20T13:02:12Z</time></trkpt>
<trkpt lat="43.0161770000" lon="0.2429720000"><ele>1307</ele><time>2026-03-20T13:02:14Z</time></trkpt>
<trkpt lat="43.0161870000" lon="0.2429420000"><ele>1307</ele><time>2026-03-20T13:02:17Z</time></trkpt>
<trkpt lat="43.0162000000" lon="0.2429150000"><ele>1306</ele><time>2026-03-20T13:02:20Z</time></trkpt>
<trkpt lat="43.0162070000" lon="0.2428870000"><ele>1305</ele><time>2026-03-20T13:02:23Z</time></trkpt>
<trkpt lat="43.0162150000" lon="0.2428520000"><ele>1304</ele><time>2026-03-20T13:02:26Z</time></trkpt>
<trkpt lat="43.0162200000" lon="0.2428220000"><ele>1303</ele><time>2026-03-20T13:02:29Z</time></trkpt>
<trkpt lat="43.0162300000" lon="0.2427970000"><ele>1302</ele><time>2026-03-20T13:02:32Z</time></trkpt>
<trkpt lat="43.0162370000" lon="0.2427750000"><ele>1301</ele><time>2026-03-20T13:02:34Z</time></trkpt>
<trkpt lat="43.0162520000" lon="0.2427470000"><ele>1300</ele><time>2026-03-20T13:02:37Z</time></trkpt>
<trkpt lat="43.0162720000" lon="0.2427350000"><ele>1299</ele><time>2026-03-20T13:02:40Z</time></trkpt>
<trkpt lat="43.0162820000" lon="0.2427070000"><ele>1298</ele><time>2026-03-20T13:02:44Z</time></trkpt>
<trkpt lat="43.0162800000" lon="0.2426770000"><ele>1297</ele><time>2026-03-20T13:02:47Z</time></trkpt>
<trkpt lat="43.0162900000" lon="0.2426500000"><ele>1296</ele><time>2026-03-20T13:02:50Z</time></trkpt>
<trkpt lat="43.0162920000" lon="0.2426220000"><ele>1295</ele><time>2026-03-20T13:02:53Z</time></trkpt>
<trkpt lat="43.0163070000" lon="0.2425970000"><ele>1294</ele><time>2026-03-20T13:02:56Z</time></trkpt>
<trkpt lat="43.0163250000" lon="0.2425920000"><ele>1292</ele><time>2026-03-20T13:02:59Z</time></trkpt>
<trkpt lat="43.0163320000" lon="0.2425620000"><ele>1291</ele><time>2026-03-20T13:03:03Z</time></trkpt>
<trkpt lat="43.0163500000" lon="0.2425330000"><ele>1290</ele><time>2026-03-20T13:03:06Z</time></trkpt>
<trkpt lat="43.0163700000" lon="0.2425170000"><ele>1290</ele><time>2026-03-20T13:03:08Z</time></trkpt>
<trkpt lat="43.0163870000" lon="0.2424920000"><ele>1289</ele><time>2026-03-20T13:03:11Z</time></trkpt>
<trkpt lat="43.0164100000" lon="0.2424770000"><ele>1287</ele><time>2026-03-20T13:03:14Z</time></trkpt>
<trkpt lat="43.0164270000" lon="0.2424570000"><ele>1286</ele><time>2026-03-20T13:03:18Z</time></trkpt>
<trkpt lat="43.0164470000" lon="0.2424570000"><ele>1284</ele><time>2026-03-20T13:03:24Z</time></trkpt>
<trkpt lat="43.0164670000" lon="0.2424620000"><ele>1284</ele><time>2026-03-20T13:03:26Z</time></trkpt>
<trkpt lat="43.0164870000" lon="0.2424600000"><ele>1283</ele><time>2026-03-20T13:03:28Z</time></trkpt>
<trkpt lat="43.0165120000" lon="0.2424550000"><ele>1282</ele><time>2026-03-20T13:03:31Z</time></trkpt>
<trkpt lat="43.0165170000" lon="0.2424320000"><ele>1281</ele><time>2026-03-20T13:03:36Z</time></trkpt>
<trkpt lat="43.0165300000" lon="0.2424070000"><ele>1281</ele><time>2026-03-20T13:03:39Z</time></trkpt>
<trkpt lat="43.0165470000" lon="0.2424120000"><ele>1280</ele><time>2026-03-20T13:03:42Z</time></trkpt>
<trkpt lat="43.0165720000" lon="0.2424170000"><ele>1279</ele><time>2026-03-20T13:03:46Z</time></trkpt>
<trkpt lat="43.0165570000" lon="0.2423930000"><ele>1276</ele><time>2026-03-20T13:04:15Z</time></trkpt>
<trkpt lat="43.0165370000" lon="0.2423720000"><ele>1276</ele><time>2026-03-20T13:04:17Z</time></trkpt>
<trkpt lat="43.0165220000" lon="0.2423400000"><ele>1276</ele><time>2026-03-20T13:04:19Z</time></trkpt>
<trkpt lat="43.0165250000" lon="0.2423020000"><ele>1276</ele><time>2026-03-20T13:04:21Z</time></trkpt>
<trkpt lat="43.0165400000" lon="0.2422820000"><ele>1276</ele><time>2026-03-20T13:04:23Z</time></trkpt>
<trkpt lat="43.0165570000" lon="0.2422850000"><ele>1275</ele><time>2026-03-20T13:04:28Z</time></trkpt>
<trkpt lat="43.0165670000" lon="0.2423070000"><ele>1274</ele><time>2026-03-20T13:04:34Z</time></trkpt>
<trkpt lat="43.0165870000" lon="0.2423270000"><ele>1274</ele><time>2026-03-20T13:04:37Z</time></trkpt>
<trkpt lat="43.0166070000" lon="0.2423470000"><ele>1274</ele><time>2026-03-20T13:04:39Z</time></trkpt>
<trkpt lat="43.0166200000" lon="0.2423650000"><ele>1274</ele><time>2026-03-20T13:04:41Z</time></trkpt>
<trkpt lat="43.0166370000" lon="0.2423920000"><ele>1273</ele><time>2026-03-20T13:04:44Z</time></trkpt>
<trkpt lat="43.0166500000" lon="0.2424120000"><ele>1273</ele><time>2026-03-20T13:04:48Z</time></trkpt>
<trkpt lat="43.0166600000" lon="0.2424350000"><ele>1273</ele><time>2026-03-20T13:04:51Z</time></trkpt>
<trkpt lat="43.0166770000" lon="0.2424500000"><ele>1272</ele><time>2026-03-20T13:04:55Z</time></trkpt>
<trkpt lat="43.0166920000" lon="0.2424670000"><ele>1272</ele><time>2026-03-20T13:04:57Z</time></trkpt>
<trkpt lat="43.0167120000" lon="0.2424920000"><ele>1272</ele><time>2026-03-20T13:05:01Z</time></trkpt>
<trkpt lat="43.0167250000" lon="0.2425200000"><ele>1272</ele><time>2026-03-20T13:05:04Z</time></trkpt>
<trkpt lat="43.0167350000" lon="0.2425450000"><ele>1271</ele><time>2026-03-20T13:05:07Z</time></trkpt>
<trkpt lat="43.0167520000" lon="0.2425670000"><ele>1271</ele><time>2026-03-20T13:05:10Z</time></trkpt>
<trkpt lat="43.0167700000" lon="0.2425820000"><ele>1271</ele><time>2026-03-20T13:05:12Z</time></trkpt>
<trkpt lat="43.0167870000" lon="0.2425900000"><ele>1271</ele><time>2026-03-20T13:05:14Z</time></trkpt>
<trkpt lat="43.0168070000" lon="0.2426020000"><ele>1271</ele><time>2026-03-20T13:05:16Z</time></trkpt>
<trkpt lat="43.0168220000" lon="0.2426270000"><ele>1270</ele><time>2026-03-20T13:05:19Z</time></trkpt>
<trkpt lat="43.0168100000" lon="0.2426470000"><ele>1269</ele><time>2026-03-20T13:05:49Z</time></trkpt>
<trkpt lat="43.0168170000" lon="0.2426770000"><ele>1268</ele><time>2026-03-20T13:06:16Z</time></trkpt>
<trkpt lat="43.0168300000" lon="0.2427000000"><ele>1268</ele><time>2026-03-20T13:06:18Z</time></trkpt>
<trkpt lat="43.0168470000" lon="0.2427120000"><ele>1268</ele><time>2026-03-20T13:06:20Z</time></trkpt>
<trkpt lat="43.0168680000" lon="0.2427250000"><ele>1268</ele><time>2026-03-20T13:06:24Z</time></trkpt>
<trkpt lat="43.0168870000" lon="0.2427180000"><ele>1269</ele><time>2026-03-20T13:06:38Z</time></trkpt>
<trkpt lat="43.0168920000" lon="0.2426920000"><ele>1268</ele><time>2026-03-20T13:07:13Z</time></trkpt>
<trkpt lat="43.0169000000" lon="0.2427170000"><ele>1268</ele><time>2026-03-20T13:08:21Z</time></trkpt>
<trkpt lat="43.0169170000" lon="0.2427420000"><ele>1268</ele><time>2026-03-20T13:08:24Z</time></trkpt>
<trkpt lat="43.0169320000" lon="0.2427520000"><ele>1267</ele><time>2026-03-20T13:08:26Z</time></trkpt>
<trkpt lat="43.0169470000" lon="0.2427750000"><ele>1267</ele><time>2026-03-20T13:08:29Z</time></trkpt>
<trkpt lat="43.0169570000" lon="0.2428020000"><ele>1267</ele><time>2026-03-20T13:08:32Z</time></trkpt>
<trkpt lat="43.0169720000" lon="0.2428300000"><ele>1266</ele><time>2026-03-20T13:08:35Z</time></trkpt>
<trkpt lat="43.0169870000" lon="0.2428470000"><ele>1266</ele><time>2026-03-20T13:08:37Z</time></trkpt>
<trkpt lat="43.0170020000" lon="0.2428770000"><ele>1265</ele><time>2026-03-20T13:08:40Z</time></trkpt>
<trkpt lat="43.0170200000" lon="0.2429020000"><ele>1265</ele><time>2026-03-20T13:08:42Z</time></trkpt>
<trkpt lat="43.0170270000" lon="0.2429320000"><ele>1265</ele><time>2026-03-20T13:08:44Z</time></trkpt>
<trkpt lat="43.0170420000" lon="0.2429600000"><ele>1265</ele><time>2026-03-20T13:08:46Z</time></trkpt>
<trkpt lat="43.0170550000" lon="0.2429820000"><ele>1264</ele><time>2026-03-20T13:08:48Z</time></trkpt>
<trkpt lat="43.0170670000" lon="0.2430100000"><ele>1264</ele><time>2026-03-20T13:08:50Z</time></trkpt>
<trkpt lat="43.0170800000" lon="0.2430370000"><ele>1264</ele><time>2026-03-20T13:08:52Z</time></trkpt>
<trkpt lat="43.0170920000" lon="0.2430570000"><ele>1264</ele><time>2026-03-20T13:08:54Z</time></trkpt>
<trkpt lat="43.0171070000" lon="0.2430780000"><ele>1263</ele><time>2026-03-20T13:08:56Z</time></trkpt>
<trkpt lat="43.0171270000" lon="0.2430970000"><ele>1263</ele><time>2026-03-20T13:08:58Z</time></trkpt>
<trkpt lat="43.0171420000" lon="0.2431170000"><ele>1263</ele><time>2026-03-20T13:09:00Z</time></trkpt>
<trkpt lat="43.0171570000" lon="0.2431450000"><ele>1262</ele><time>2026-03-20T13:09:02Z</time></trkpt>
<trkpt lat="43.0171770000" lon="0.2431770000"><ele>1262</ele><time>2026-03-20T13:09:04Z</time></trkpt>
<trkpt lat="43.0171920000" lon="0.2432050000"><ele>1262</ele><time>2026-03-20T13:09:06Z</time></trkpt>
<trkpt lat="43.0172020000" lon="0.2432320000"><ele>1262</ele><time>2026-03-20T13:09:08Z</time></trkpt>
<trkpt lat="43.0172170000" lon="0.2432550000"><ele>1261</ele><time>2026-03-20T13:09:10Z</time></trkpt>
<trkpt lat="43.0172300000" lon="0.2432800000"><ele>1261</ele><time>2026-03-20T13:09:12Z</time></trkpt>
<trkpt lat="43.0172420000" lon="0.2433100000"><ele>1261</ele><time>2026-03-20T13:09:14Z</time></trkpt>
<trkpt lat="43.0172570000" lon="0.2433320000"><ele>1261</ele><time>2026-03-20T13:09:16Z</time></trkpt>
<trkpt lat="43.0172750000" lon="0.2433570000"><ele>1261</ele><time>2026-03-20T13:09:18Z</time></trkpt>
<trkpt lat="43.0172900000" lon="0.2433820000"><ele>1261</ele><time>2026-03-20T13:09:20Z</time></trkpt>
<trkpt lat="43.0173020000" lon="0.2434020000"><ele>1260</ele><time>2026-03-20T13:09:22Z</time></trkpt>
<trkpt lat="43.0173250000" lon="0.2434120000"><ele>1260</ele><time>2026-03-20T13:09:24Z</time></trkpt>
<trkpt lat="43.0173470000" lon="0.2434220000"><ele>1260</ele><time>2026-03-20T13:09:26Z</time></trkpt>
<trkpt lat="43.0173670000" lon="0.2434220000"><ele>1259</ele><time>2026-03-20T13:09:28Z</time></trkpt>
<trkpt lat="43.0173800000" lon="0.2434020000"><ele>1259</ele><time>2026-03-20T13:09:30Z</time></trkpt>
<trkpt lat="43.0173770000" lon="0.2433720000"><ele>1259</ele><time>2026-03-20T13:09:32Z</time></trkpt>
<trkpt lat="43.0173720000" lon="0.2433400000"><ele>1259</ele><time>2026-03-20T13:09:34Z</time></trkpt>
<trkpt lat="43.0173670000" lon="0.2433120000"><ele>1259</ele><time>2026-03-20T13:09:36Z</time></trkpt>
<trkpt lat="43.0173550000" lon="0.2432820000"><ele>1258</ele><time>2026-03-20T13:09:38Z</time></trkpt>
<trkpt lat="43.0173420000" lon="0.2432520000"><ele>1258</ele><time>2026-03-20T13:09:41Z</time></trkpt>
<trkpt lat="43.0173320000" lon="0.2432270000"><ele>1258</ele><time>2026-03-20T13:09:43Z</time></trkpt>
<trkpt lat="43.0173180000" lon="0.2432000000"><ele>1258</ele><time>2026-03-20T13:09:45Z</time></trkpt>
<trkpt lat="43.0173100000" lon="0.2431620000"><ele>1257</ele><time>2026-03-20T13:09:48Z</time></trkpt>
<trkpt lat="43.0173120000" lon="0.2431320000"><ele>1257</ele><time>2026-03-20T13:09:50Z</time></trkpt>
<trkpt lat="43.0173000000" lon="0.2431020000"><ele>1257</ele><time>2026-03-20T13:09:52Z</time></trkpt>
<trkpt lat="43.0172970000" lon="0.2430720000"><ele>1257</ele><time>2026-03-20T13:09:54Z</time></trkpt>
<trkpt lat="43.0172920000" lon="0.2430420000"><ele>1256</ele><time>2026-03-20T13:09:57Z</time></trkpt>
<trkpt lat="43.0172900000" lon="0.2430170000"><ele>1256</ele><time>2026-03-20T13:09:59Z</time></trkpt>
<trkpt lat="43.0172850000" lon="0.2429870000"><ele>1255</ele><time>2026-03-20T13:10:01Z</time></trkpt>
<trkpt lat="43.0172720000" lon="0.2429520000"><ele>1255</ele><time>2026-03-20T13:10:03Z</time></trkpt>
<trkpt lat="43.0172600000" lon="0.2429300000"><ele>1255</ele><time>2026-03-20T13:10:05Z</time></trkpt>
<trkpt lat="43.0172550000" lon="0.2429050000"><ele>1255</ele><time>2026-03-20T13:10:07Z</time></trkpt>
<trkpt lat="43.0172520000" lon="0.2428750000"><ele>1254</ele><time>2026-03-20T13:10:09Z</time></trkpt>
<trkpt lat="43.0172570000" lon="0.2428350000"><ele>1254</ele><time>2026-03-20T13:10:11Z</time></trkpt>
<trkpt lat="43.0172470000" lon="0.2427970000"><ele>1254</ele><time>2026-03-20T13:10:13Z</time></trkpt>
<trkpt lat="43.0172350000" lon="0.2427670000"><ele>1253</ele><time>2026-03-20T13:10:15Z</time></trkpt>
<trkpt lat="43.0172250000" lon="0.2427370000"><ele>1253</ele><time>2026-03-20T13:10:17Z</time></trkpt>
<trkpt lat="43.0172200000" lon="0.2427120000"><ele>1253</ele><time>2026-03-20T13:10:19Z</time></trkpt>
<trkpt lat="43.0172170000" lon="0.2426870000"><ele>1252</ele><time>2026-03-20T13:10:21Z</time></trkpt>
<trkpt lat="43.0172150000" lon="0.2426550000"><ele>1252</ele><time>2026-03-20T13:10:23Z</time></trkpt>
<trkpt lat="43.0172070000" lon="0.2426220000"><ele>1252</ele><time>2026-03-20T13:10:25Z</time></trkpt>
<trkpt lat="43.0171920000" lon="0.2425870000"><ele>1251</ele><time>2026-03-20T13:10:27Z</time></trkpt>
<trkpt lat="43.0171820000" lon="0.2425570000"><ele>1251</ele><time>2026-03-20T13:10:29Z</time></trkpt>
<trkpt lat="43.0171720000" lon="0.2425280000"><ele>1251</ele><time>2026-03-20T13:10:31Z</time></trkpt>
<trkpt lat="43.0171750000" lon="0.2424950000"><ele>1250</ele><time>2026-03-20T13:10:33Z</time></trkpt>
<trkpt lat="43.0171700000" lon="0.2424650000"><ele>1250</ele><time>2026-03-20T13:10:35Z</time></trkpt>
<trkpt lat="43.0171670000" lon="0.2424320000"><ele>1250</ele><time>2026-03-20T13:10:37Z</time></trkpt>
<trkpt lat="43.0171700000" lon="0.2424020000"><ele>1250</ele><time>2026-03-20T13:10:39Z</time></trkpt>
<trkpt lat="43.0171770000" lon="0.2423670000"><ele>1249</ele><time>2026-03-20T13:10:42Z</time></trkpt>
<trkpt lat="43.0171670000" lon="0.2423470000"><ele>1249</ele><time>2026-03-20T13:10:44Z</time></trkpt>
<trkpt lat="43.0171570000" lon="0.2423170000"><ele>1248</ele><time>2026-03-20T13:10:46Z</time></trkpt>
<trkpt lat="43.0171400000" lon="0.2422970000"><ele>1248</ele><time>2026-03-20T13:10:48Z</time></trkpt>
<trkpt lat="43.0171120000" lon="0.2422650000"><ele>1248</ele><time>2026-03-20T13:10:52Z</time></trkpt>
<trkpt lat="43.0170970000" lon="0.2422420000"><ele>1247</ele><time>2026-03-20T13:10:54Z</time></trkpt>
<trkpt lat="43.0170970000" lon="0.2422050000"><ele>1247</ele><time>2026-03-20T13:10:56Z</time></trkpt>
<trkpt lat="43.0170920000" lon="0.2421720000"><ele>1247</ele><time>2026-03-20T13:10:58Z</time></trkpt>
<trkpt lat="43.0170850000" lon="0.2421450000"><ele>1246</ele><time>2026-03-20T13:11:00Z</time></trkpt>
<trkpt lat="43.0170900000" lon="0.2421070000"><ele>1246</ele><time>2026-03-20T13:11:03Z</time></trkpt>
<trkpt lat="43.0170770000" lon="0.2420850000"><ele>1246</ele><time>2026-03-20T13:11:04Z</time></trkpt>
<trkpt lat="43.0170620000" lon="0.2420550000"><ele>1245</ele><time>2026-03-20T13:11:06Z</time></trkpt>
<trkpt lat="43.0170420000" lon="0.2420450000"><ele>1245</ele><time>2026-03-20T13:11:07Z</time></trkpt>
<trkpt lat="43.0170320000" lon="0.2420150000"><ele>1245</ele><time>2026-03-20T13:11:09Z</time></trkpt>
<trkpt lat="43.0170320000" lon="0.2419870000"><ele>1244</ele><time>2026-03-20T13:11:11Z</time></trkpt>
<trkpt lat="43.0170270000" lon="0.2419570000"><ele>1244</ele><time>2026-03-20T13:11:13Z</time></trkpt>
<trkpt lat="43.0170170000" lon="0.2419300000"><ele>1244</ele><time>2026-03-20T13:11:15Z</time></trkpt>
<trkpt lat="43.0170220000" lon="0.2418950000"><ele>1243</ele><time>2026-03-20T13:11:17Z</time></trkpt>
<trkpt lat="43.0170420000" lon="0.2418620000"><ele>1243</ele><time>2026-03-20T13:11:19Z</time></trkpt>
<trkpt lat="43.0170500000" lon="0.2418280000"><ele>1243</ele><time>2026-03-20T13:11:21Z</time></trkpt>
<trkpt lat="43.0170520000" lon="0.2417970000"><ele>1243</ele><time>2026-03-20T13:11:23Z</time></trkpt>
<trkpt lat="43.0170500000" lon="0.2417570000"><ele>1242</ele><time>2026-03-20T13:11:25Z</time></trkpt>
<trkpt lat="43.0170470000" lon="0.2417120000"><ele>1242</ele><time>2026-03-20T13:11:27Z</time></trkpt>
<trkpt lat="43.0170470000" lon="0.2416720000"><ele>1242</ele><time>2026-03-20T13:11:29Z</time></trkpt>
<trkpt lat="43.0170520000" lon="0.2416420000"><ele>1241</ele><time>2026-03-20T13:11:31Z</time></trkpt>
<trkpt lat="43.0170550000" lon="0.2416170000"><ele>1241</ele><time>2026-03-20T13:11:40Z</time></trkpt>
<trkpt lat="43.0170500000" lon="0.2415750000"><ele>1240</ele><time>2026-03-20T13:11:42Z</time></trkpt>
<trkpt lat="43.0170420000" lon="0.2415320000"><ele>1240</ele><time>2026-03-20T13:11:44Z</time></trkpt>
<trkpt lat="43.0170450000" lon="0.2415020000"><ele>1240</ele><time>2026-03-20T13:11:46Z</time></trkpt>
<trkpt lat="43.0170570000" lon="0.2414680000"><ele>1240</ele><time>2026-03-20T13:11:48Z</time></trkpt>
<trkpt lat="43.0170620000" lon="0.2414420000"><ele>1239</ele><time>2026-03-20T13:11:50Z</time></trkpt>
<trkpt lat="43.0170650000" lon="0.2414120000"><ele>1239</ele><time>2026-03-20T13:11:52Z</time></trkpt>
<trkpt lat="43.0170750000" lon="0.2413870000"><ele>1239</ele><time>2026-03-20T13:11:54Z</time></trkpt>
<trkpt lat="43.0170850000" lon="0.2413500000"><ele>1238</ele><time>2026-03-20T13:11:57Z</time></trkpt>
<trkpt lat="43.0170900000" lon="0.2413220000"><ele>1238</ele><time>2026-03-20T13:11:59Z</time></trkpt>
<trkpt lat="43.0170970000" lon="0.2412970000"><ele>1238</ele><time>2026-03-20T13:12:01Z</time></trkpt>
<trkpt lat="43.0170970000" lon="0.2412670000"><ele>1237</ele><time>2026-03-20T13:12:03Z</time></trkpt>
<trkpt lat="43.0171020000" lon="0.2412320000"><ele>1237</ele><time>2026-03-20T13:12:05Z</time></trkpt>
<trkpt lat="43.0171100000" lon="0.2411930000"><ele>1237</ele><time>2026-03-20T13:12:07Z</time></trkpt>
<trkpt lat="43.0171120000" lon="0.2411570000"><ele>1236</ele><time>2026-03-20T13:12:09Z</time></trkpt>
<trkpt lat="43.0171100000" lon="0.2411270000"><ele>1236</ele><time>2026-03-20T13:12:11Z</time></trkpt>
<trkpt lat="43.0170970000" lon="0.2411020000"><ele>1236</ele><time>2026-03-20T13:12:13Z</time></trkpt>
<trkpt lat="43.0171000000" lon="0.2410720000"><ele>1236</ele><time>2026-03-20T13:12:15Z</time></trkpt>
<trkpt lat="43.0171120000" lon="0.2410420000"><ele>1235</ele><time>2026-03-20T13:12:17Z</time></trkpt>
<trkpt lat="43.0171270000" lon="0.2410080000"><ele>1235</ele><time>2026-03-20T13:12:19Z</time></trkpt>
<trkpt lat="43.0171250000" lon="0.2409820000"><ele>1235</ele><time>2026-03-20T13:12:21Z</time></trkpt>
<trkpt lat="43.0171250000" lon="0.2409520000"><ele>1234</ele><time>2026-03-20T13:12:23Z</time></trkpt>
<trkpt lat="43.0171270000" lon="0.2409170000"><ele>1234</ele><time>2026-03-20T13:12:25Z</time></trkpt>
<trkpt lat="43.0171300000" lon="0.2408870000"><ele>1234</ele><time>2026-03-20T13:12:27Z</time></trkpt>
<trkpt lat="43.0171320000" lon="0.2408550000"><ele>1233</ele><time>2026-03-20T13:12:29Z</time></trkpt>
<trkpt lat="43.0171320000" lon="0.2408200000"><ele>1233</ele><time>2026-03-20T13:12:31Z</time></trkpt>
<trkpt lat="43.0171370000" lon="0.2407920000"><ele>1233</ele><time>2026-03-20T13:12:33Z</time></trkpt>
<trkpt lat="43.0171320000" lon="0.2407600000"><ele>1232</ele><time>2026-03-20T13:12:35Z</time></trkpt>
<trkpt lat="43.0171220000" lon="0.2407280000"><ele>1232</ele><time>2026-03-20T13:12:37Z</time></trkpt>
<trkpt lat="43.0171270000" lon="0.2406970000"><ele>1232</ele><time>2026-03-20T13:12:39Z</time></trkpt>
<trkpt lat="43.0171270000" lon="0.2406720000"><ele>1232</ele><time>2026-03-20T13:12:41Z</time></trkpt>
<trkpt lat="43.0171220000" lon="0.2406420000"><ele>1231</ele><time>2026-03-20T13:12:43Z</time></trkpt>
<trkpt lat="43.0171320000" lon="0.2406200000"><ele>1231</ele><time>2026-03-20T13:12:45Z</time></trkpt>
<trkpt lat="43.0171300000" lon="0.2405920000"><ele>1231</ele><time>2026-03-20T13:12:47Z</time></trkpt>
<trkpt lat="43.0171320000" lon="0.2405620000"><ele>1230</ele><time>2026-03-20T13:12:49Z</time></trkpt>
<trkpt lat="43.0171270000" lon="0.2405270000"><ele>1230</ele><time>2026-03-20T13:12:51Z</time></trkpt>
<trkpt lat="43.0171320000" lon="0.2404970000"><ele>1229</ele><time>2026-03-20T13:12:53Z</time></trkpt>
<trkpt lat="43.0171420000" lon="0.2404750000"><ele>1229</ele><time>2026-03-20T13:12:55Z</time></trkpt>
<trkpt lat="43.0171400000" lon="0.2404480000"><ele>1229</ele><time>2026-03-20T13:12:57Z</time></trkpt>
<trkpt lat="43.0171570000" lon="0.2404300000"><ele>1228</ele><time>2026-03-20T13:12:59Z</time></trkpt>
<trkpt lat="43.0171670000" lon="0.2404070000"><ele>1228</ele><time>2026-03-20T13:13:01Z</time></trkpt>
<trkpt lat="43.0171620000" lon="0.2403770000"><ele>1227</ele><time>2026-03-20T13:13:03Z</time></trkpt>
<trkpt lat="43.0171620000" lon="0.2403400000"><ele>1227</ele><time>2026-03-20T13:13:05Z</time></trkpt>
<trkpt lat="43.0171720000" lon="0.2403020000"><ele>1227</ele><time>2026-03-20T13:13:07Z</time></trkpt>
<trkpt lat="43.0171750000" lon="0.2402720000"><ele>1226</ele><time>2026-03-20T13:13:09Z</time></trkpt>
<trkpt lat="43.0171720000" lon="0.2402470000"><ele>1226</ele><time>2026-03-20T13:13:11Z</time></trkpt>
<trkpt lat="43.0171770000" lon="0.2402170000"><ele>1225</ele><time>2026-03-20T13:13:13Z</time></trkpt>
<trkpt lat="43.0171970000" lon="0.2401850000"><ele>1225</ele><time>2026-03-20T13:13:15Z</time></trkpt>
<trkpt lat="43.0172120000" lon="0.2401470000"><ele>1225</ele><time>2026-03-20T13:13:17Z</time></trkpt>
<trkpt lat="43.0172120000" lon="0.2401200000"><ele>1225</ele><time>2026-03-20T13:13:18Z</time></trkpt>
<trkpt lat="43.0172120000" lon="0.2400900000"><ele>1224</ele><time>2026-03-20T13:13:20Z</time></trkpt>
<trkpt lat="43.0172070000" lon="0.2400600000"><ele>1224</ele><time>2026-03-20T13:13:22Z</time></trkpt>
<trkpt lat="43.0172070000" lon="0.2400270000"><ele>1223</ele><time>2026-03-20T13:13:25Z</time></trkpt>
<trkpt lat="43.0171870000" lon="0.2399970000"><ele>1223</ele><time>2026-03-20T13:13:27Z</time></trkpt>
<trkpt lat="43.0171900000" lon="0.2399620000"><ele>1223</ele><time>2026-03-20T13:13:29Z</time></trkpt>
<trkpt lat="43.0171920000" lon="0.2399320000"><ele>1222</ele><time>2026-03-20T13:13:31Z</time></trkpt>
<trkpt lat="43.0172000000" lon="0.2399020000"><ele>1222</ele><time>2026-03-20T13:13:33Z</time></trkpt>
<trkpt lat="43.0172120000" lon="0.2398720000"><ele>1222</ele><time>2026-03-20T13:13:35Z</time></trkpt>
<trkpt lat="43.0172270000" lon="0.2398400000"><ele>1221</ele><time>2026-03-20T13:13:37Z</time></trkpt>
<trkpt lat="43.0172220000" lon="0.2398100000"><ele>1221</ele><time>2026-03-20T13:13:39Z</time></trkpt>
<trkpt lat="43.0172320000" lon="0.2397770000"><ele>1220</ele><time>2026-03-20T13:13:42Z</time></trkpt>
<trkpt lat="43.0172320000" lon="0.2397520000"><ele>1220</ele><time>2026-03-20T13:13:44Z</time></trkpt>
<trkpt lat="43.0172420000" lon="0.2397200000"><ele>1219</ele><time>2026-03-20T13:13:46Z</time></trkpt>
<trkpt lat="43.0172520000" lon="0.2396950000"><ele>1219</ele><time>2026-03-20T13:13:48Z</time></trkpt>
<trkpt lat="43.0172570000" lon="0.2396680000"><ele>1218</ele><time>2026-03-20T13:13:50Z</time></trkpt>
<trkpt lat="43.0172550000" lon="0.2396420000"><ele>1218</ele><time>2026-03-20T13:13:52Z</time></trkpt>
<trkpt lat="43.0172700000" lon="0.2396080000"><ele>1218</ele><time>2026-03-20T13:13:54Z</time></trkpt>
<trkpt lat="43.0172770000" lon="0.2395770000"><ele>1217</ele><time>2026-03-20T13:13:56Z</time></trkpt>
<trkpt lat="43.0172770000" lon="0.2395500000"><ele>1217</ele><time>2026-03-20T13:13:58Z</time></trkpt>
<trkpt lat="43.0172950000" lon="0.2395230000"><ele>1216</ele><time>2026-03-20T13:14:00Z</time></trkpt>
<trkpt lat="43.0173120000" lon="0.2395000000"><ele>1216</ele><time>2026-03-20T13:14:02Z</time></trkpt>
<trkpt lat="43.0173300000" lon="0.2394900000"><ele>1216</ele><time>2026-03-20T13:14:03Z</time></trkpt>
<trkpt lat="43.0173470000" lon="0.2394650000"><ele>1215</ele><time>2026-03-20T13:14:05Z</time></trkpt>
<trkpt lat="43.0173670000" lon="0.2394420000"><ele>1215</ele><time>2026-03-20T13:14:07Z</time></trkpt>
<trkpt lat="43.0173820000" lon="0.2394170000"><ele>1215</ele><time>2026-03-20T13:14:09Z</time></trkpt>
<trkpt lat="43.0173920000" lon="0.2393950000"><ele>1214</ele><time>2026-03-20T13:14:11Z</time></trkpt>
<trkpt lat="43.0174100000" lon="0.2393770000"><ele>1214</ele><time>2026-03-20T13:14:13Z</time></trkpt>
<trkpt lat="43.0174220000" lon="0.2393550000"><ele>1214</ele><time>2026-03-20T13:14:16Z</time></trkpt>
<trkpt lat="43.0174170000" lon="0.2393270000"><ele>1213</ele><time>2026-03-20T13:14:21Z</time></trkpt>
<trkpt lat="43.0174400000" lon="0.2393100000"><ele>1213</ele><time>2026-03-20T13:14:23Z</time></trkpt>
<trkpt lat="43.0174620000" lon="0.2393000000"><ele>1213</ele><time>2026-03-20T13:14:25Z</time></trkpt>
<trkpt lat="43.0174800000" lon="0.2392650000"><ele>1211</ele><time>2026-03-20T13:14:39Z</time></trkpt>
<trkpt lat="43.0174920000" lon="0.2392420000"><ele>1211</ele><time>2026-03-20T13:14:40Z</time></trkpt>
<trkpt lat="43.0175050000" lon="0.2392170000"><ele>1211</ele><time>2026-03-20T13:14:41Z</time></trkpt>
<trkpt lat="43.0175150000" lon="0.2391920000"><ele>1211</ele><time>2026-03-20T13:14:42Z</time></trkpt>
<trkpt lat="43.0175250000" lon="0.2391670000"><ele>1211</ele><time>2026-03-20T13:14:43Z</time></trkpt>
<trkpt lat="43.0175420000" lon="0.2391320000"><ele>1211</ele><time>2026-03-20T13:14:45Z</time></trkpt>
<trkpt lat="43.0175570000" lon="0.2391070000"><ele>1210</ele><time>2026-03-20T13:14:47Z</time></trkpt>
<trkpt lat="43.0175720000" lon="0.2390870000"><ele>1210</ele><time>2026-03-20T13:14:49Z</time></trkpt>
<trkpt lat="43.0175820000" lon="0.2390580000"><ele>1210</ele><time>2026-03-20T13:14:51Z</time></trkpt>
<trkpt lat="43.0176050000" lon="0.2390270000"><ele>1209</ele><time>2026-03-20T13:14:53Z</time></trkpt>
<trkpt lat="43.0176220000" lon="0.2390050000"><ele>1209</ele><time>2026-03-20T13:14:55Z</time></trkpt>
<trkpt lat="43.0176320000" lon="0.2389820000"><ele>1209</ele><time>2026-03-20T13:14:57Z</time></trkpt>
<trkpt lat="43.0176420000" lon="0.2389570000"><ele>1209</ele><time>2026-03-20T13:14:59Z</time></trkpt>
<trkpt lat="43.0176570000" lon="0.2389320000"><ele>1208</ele><time>2026-03-20T13:15:01Z</time></trkpt>
<trkpt lat="43.0176700000" lon="0.2388970000"><ele>1208</ele><time>2026-03-20T13:15:04Z</time></trkpt>
<trkpt lat="43.0176870000" lon="0.2388720000"><ele>1207</ele><time>2026-03-20T13:15:06Z</time></trkpt>
<trkpt lat="43.0177070000" lon="0.2388450000"><ele>1207</ele><time>2026-03-20T13:15:08Z</time></trkpt>
<trkpt lat="43.0177200000" lon="0.2388070000"><ele>1207</ele><time>2026-03-20T13:15:10Z</time></trkpt>
<trkpt lat="43.0177270000" lon="0.2387780000"><ele>1206</ele><time>2026-03-20T13:15:12Z</time></trkpt>
<trkpt lat="43.0177370000" lon="0.2387520000"><ele>1206</ele><time>2026-03-20T13:15:14Z</time></trkpt>
<trkpt lat="43.0177620000" lon="0.2387320000"><ele>1206</ele><time>2026-03-20T13:15:16Z</time></trkpt>
<trkpt lat="43.0177770000" lon="0.2387020000"><ele>1205</ele><time>2026-03-20T13:15:18Z</time></trkpt>
<trkpt lat="43.0177920000" lon="0.2386770000"><ele>1205</ele><time>2026-03-20T13:15:20Z</time></trkpt>
<trkpt lat="43.0178020000" lon="0.2386420000"><ele>1205</ele><time>2026-03-20T13:15:22Z</time></trkpt>
<trkpt lat="43.0178220000" lon="0.2386320000"><ele>1204</ele><time>2026-03-20T13:15:24Z</time></trkpt>
<trkpt lat="43.0178370000" lon="0.2386120000"><ele>1204</ele><time>2026-03-20T13:15:26Z</time></trkpt>
<trkpt lat="43.0178530000" lon="0.2385900000"><ele>1204</ele><time>2026-03-20T13:15:28Z</time></trkpt>
<trkpt lat="43.0178720000" lon="0.2385570000"><ele>1203</ele><time>2026-03-20T13:15:30Z</time></trkpt>
<trkpt lat="43.0178870000" lon="0.2385370000"><ele>1203</ele><time>2026-03-20T13:15:32Z</time></trkpt>
<trkpt lat="43.0179050000" lon="0.2385170000"><ele>1202</ele><time>2026-03-20T13:15:34Z</time></trkpt>
<trkpt lat="43.0179270000" lon="0.2384970000"><ele>1202</ele><time>2026-03-20T13:15:36Z</time></trkpt>
<trkpt lat="43.0179400000" lon="0.2384800000"><ele>1201</ele><time>2026-03-20T13:15:38Z</time></trkpt>
<trkpt lat="43.0179520000" lon="0.2384570000"><ele>1201</ele><time>2026-03-20T13:15:40Z</time></trkpt>
<trkpt lat="43.0179720000" lon="0.2384270000"><ele>1201</ele><time>2026-03-20T13:15:42Z</time></trkpt>
<trkpt lat="43.0179920000" lon="0.2383950000"><ele>1200</ele><time>2026-03-20T13:15:44Z</time></trkpt>
<trkpt lat="43.0180020000" lon="0.2383670000"><ele>1200</ele><time>2026-03-20T13:15:47Z</time></trkpt>
<trkpt lat="43.0180120000" lon="0.2383470000"><ele>1200</ele><time>2026-03-20T13:15:49Z</time></trkpt>
<trkpt lat="43.0180270000" lon="0.2383270000"><ele>1199</ele><time>2026-03-20T13:15:51Z</time></trkpt>
<trkpt lat="43.0180520000" lon="0.2383120000"><ele>1199</ele><time>2026-03-20T13:15:53Z</time></trkpt>
<trkpt lat="43.0180770000" lon="0.2382970000"><ele>1199</ele><time>2026-03-20T13:15:56Z</time></trkpt>
<trkpt lat="43.0180920000" lon="0.2382770000"><ele>1198</ele><time>2026-03-20T13:15:58Z</time></trkpt>
<trkpt lat="43.0181050000" lon="0.2382570000"><ele>1198</ele><time>2026-03-20T13:16:00Z</time></trkpt>
<trkpt lat="43.0181250000" lon="0.2382420000"><ele>1198</ele><time>2026-03-20T13:16:02Z</time></trkpt>
<trkpt lat="43.0181420000" lon="0.2382180000"><ele>1197</ele><time>2026-03-20T13:16:04Z</time></trkpt>
<trkpt lat="43.0181570000" lon="0.2381950000"><ele>1197</ele><time>2026-03-20T13:16:06Z</time></trkpt>
<trkpt lat="43.0181850000" lon="0.2381720000"><ele>1197</ele><time>2026-03-20T13:16:08Z</time></trkpt>
<trkpt lat="43.0181920000" lon="0.2381470000"><ele>1197</ele><time>2026-03-20T13:16:10Z</time></trkpt>
<trkpt lat="43.0181870000" lon="0.2381220000"><ele>1196</ele><time>2026-03-20T13:16:12Z</time></trkpt>
<trkpt lat="43.0181900000" lon="0.2380870000"><ele>1196</ele><time>2026-03-20T13:16:14Z</time></trkpt>
<trkpt lat="43.0181920000" lon="0.2380620000"><ele>1196</ele><time>2026-03-20T13:16:16Z</time></trkpt>
<trkpt lat="43.0182070000" lon="0.2380450000"><ele>1195</ele><time>2026-03-20T13:16:19Z</time></trkpt>
<trkpt lat="43.0182370000" lon="0.2380220000"><ele>1195</ele><time>2026-03-20T13:16:21Z</time></trkpt>
<trkpt lat="43.0182520000" lon="0.2380070000"><ele>1194</ele><time>2026-03-20T13:16:22Z</time></trkpt>
<trkpt lat="43.0182770000" lon="0.2379850000"><ele>1194</ele><time>2026-03-20T13:16:24Z</time></trkpt>
<trkpt lat="43.0183030000" lon="0.2379800000"><ele>1194</ele><time>2026-03-20T13:16:26Z</time></trkpt>
<trkpt lat="43.0183320000" lon="0.2379850000"><ele>1193</ele><time>2026-03-20T13:16:28Z</time></trkpt>
<trkpt lat="43.0183500000" lon="0.2380020000"><ele>1193</ele><time>2026-03-20T13:16:29Z</time></trkpt>
<trkpt lat="43.0183670000" lon="0.2380170000"><ele>1193</ele><time>2026-03-20T13:16:30Z</time></trkpt>
<trkpt lat="43.0183920000" lon="0.2380400000"><ele>1192</ele><time>2026-03-20T13:16:32Z</time></trkpt>
<trkpt lat="43.0184050000" lon="0.2380600000"><ele>1192</ele><time>2026-03-20T13:16:33Z</time></trkpt>
<trkpt lat="43.0184170000" lon="0.2380870000"><ele>1192</ele><time>2026-03-20T13:16:35Z</time></trkpt>
<trkpt lat="43.0184320000" lon="0.2381150000"><ele>1192</ele><time>2026-03-20T13:16:37Z</time></trkpt>
<trkpt lat="43.0184550000" lon="0.2381320000"><ele>1192</ele><time>2026-03-20T13:16:39Z</time></trkpt>
<trkpt lat="43.0184750000" lon="0.2381470000"><ele>1191</ele><time>2026-03-20T13:16:41Z</time></trkpt>
<trkpt lat="43.0184950000" lon="0.2381500000"><ele>1191</ele><time>2026-03-20T13:16:45Z</time></trkpt>
<trkpt lat="43.0185150000" lon="0.2381520000"><ele>1191</ele><time>2026-03-20T13:16:47Z</time></trkpt>
<trkpt lat="43.0185420000" lon="0.2381470000"><ele>1191</ele><time>2026-03-20T13:16:50Z</time></trkpt>
<trkpt lat="43.0185620000" lon="0.2381470000"><ele>1191</ele><time>2026-03-20T13:16:52Z</time></trkpt>
<trkpt lat="43.0185900000" lon="0.2381550000"><ele>1191</ele><time>2026-03-20T13:16:55Z</time></trkpt>
<trkpt lat="43.0186120000" lon="0.2381520000"><ele>1191</ele><time>2026-03-20T13:16:57Z</time></trkpt>
<trkpt lat="43.0186320000" lon="0.2381420000"><ele>1191</ele><time>2026-03-20T13:17:00Z</time></trkpt>
<trkpt lat="43.0186550000" lon="0.2381470000"><ele>1191</ele><time>2026-03-20T13:17:03Z</time></trkpt>
<trkpt lat="43.0186720000" lon="0.2381370000"><ele>1191</ele><time>2026-03-20T13:17:05Z</time></trkpt>
<trkpt lat="43.0187000000" lon="0.2381300000"><ele>1191</ele><time>2026-03-20T13:17:08Z</time></trkpt>
<trkpt lat="43.0187200000" lon="0.2381220000"><ele>1191</ele><time>2026-03-20T13:17:10Z</time></trkpt>
<trkpt lat="43.0187450000" lon="0.2381050000"><ele>1190</ele><time>2026-03-20T13:17:12Z</time></trkpt>
<trkpt lat="43.0187600000" lon="0.2380880000"><ele>1190</ele><time>2026-03-20T13:17:13Z</time></trkpt>
<trkpt lat="43.0187850000" lon="0.2380570000"><ele>1191</ele><time>2026-03-20T13:17:15Z</time></trkpt>
<trkpt lat="43.0188020000" lon="0.2380420000"><ele>1191</ele><time>2026-03-20T13:17:17Z</time></trkpt>
<trkpt lat="43.0188200000" lon="0.2380270000"><ele>1191</ele><time>2026-03-20T13:17:19Z</time></trkpt>
<trkpt lat="43.0188370000" lon="0.2380120000"><ele>1191</ele><time>2026-03-20T13:17:21Z</time></trkpt>
<trkpt lat="43.0188620000" lon="0.2379920000"><ele>1190</ele><time>2026-03-20T13:17:23Z</time></trkpt>
<trkpt lat="43.0188770000" lon="0.2379720000"><ele>1190</ele><time>2026-03-20T13:17:25Z</time></trkpt>
<trkpt lat="43.0188870000" lon="0.2379520000"><ele>1190</ele><time>2026-03-20T13:17:28Z</time></trkpt>
<trkpt lat="43.0189050000" lon="0.2379320000"><ele>1189</ele><time>2026-03-20T13:17:31Z</time></trkpt>
<trkpt lat="43.0189300000" lon="0.2379050000"><ele>1189</ele><time>2026-03-20T13:17:33Z</time></trkpt>
<trkpt lat="43.0189520000" lon="0.2378720000"><ele>1189</ele><time>2026-03-20T13:17:35Z</time></trkpt>
<trkpt lat="43.0189650000" lon="0.2378350000"><ele>1188</ele><time>2026-03-20T13:17:37Z</time></trkpt>
<trkpt lat="43.0189820000" lon="0.2377970000"><ele>1188</ele><time>2026-03-20T13:17:39Z</time></trkpt>
<trkpt lat="43.0189850000" lon="0.2377720000"><ele>1188</ele><time>2026-03-20T13:17:41Z</time></trkpt>
<trkpt lat="43.0190000000" lon="0.2377520000"><ele>1187</ele><time>2026-03-20T13:17:43Z</time></trkpt>
<trkpt lat="43.0190170000" lon="0.2377400000"><ele>1187</ele><time>2026-03-20T13:17:45Z</time></trkpt>
<trkpt lat="43.0190350000" lon="0.2377220000"><ele>1186</ele><time>2026-03-20T13:17:48Z</time></trkpt>
<trkpt lat="43.0190550000" lon="0.2377070000"><ele>1186</ele><time>2026-03-20T13:17:50Z</time></trkpt>
<trkpt lat="43.0190770000" lon="0.2376870000"><ele>1185</ele><time>2026-03-20T13:17:52Z</time></trkpt>
<trkpt lat="43.0190950000" lon="0.2376600000"><ele>1185</ele><time>2026-03-20T13:17:54Z</time></trkpt>
<trkpt lat="43.0191170000" lon="0.2376520000"><ele>1185</ele><time>2026-03-20T13:17:56Z</time></trkpt>
<trkpt lat="43.0191370000" lon="0.2376370000"><ele>1184</ele><time>2026-03-20T13:17:58Z</time></trkpt>
<trkpt lat="43.0191670000" lon="0.2376250000"><ele>1184</ele><time>2026-03-20T13:18:00Z</time></trkpt>
<trkpt lat="43.0191970000" lon="0.2376200000"><ele>1183</ele><time>2026-03-20T13:18:02Z</time></trkpt>
<trkpt lat="43.0192270000" lon="0.2376120000"><ele>1183</ele><time>2026-03-20T13:18:04Z</time></trkpt>
<trkpt lat="43.0192600000" lon="0.2376120000"><ele>1182</ele><time>2026-03-20T13:18:06Z</time></trkpt>
<trkpt lat="43.0192870000" lon="0.2376120000"><ele>1182</ele><time>2026-03-20T13:18:08Z</time></trkpt>
<trkpt lat="43.0193050000" lon="0.2376200000"><ele>1182</ele><time>2026-03-20T13:18:10Z</time></trkpt>
<trkpt lat="43.0193270000" lon="0.2376270000"><ele>1182</ele><time>2026-03-20T13:18:12Z</time></trkpt>
<trkpt lat="43.0193470000" lon="0.2376320000"><ele>1181</ele><time>2026-03-20T13:18:14Z</time></trkpt>
<trkpt lat="43.0193770000" lon="0.2376220000"><ele>1181</ele><time>2026-03-20T13:18:16Z</time></trkpt>
<trkpt lat="43.0194000000" lon="0.2376070000"><ele>1181</ele><time>2026-03-20T13:18:18Z</time></trkpt>
<trkpt lat="43.0194200000" lon="0.2375970000"><ele>1181</ele><time>2026-03-20T13:18:21Z</time></trkpt>
<trkpt lat="43.0194470000" lon="0.2375820000"><ele>1180</ele><time>2026-03-20T13:18:24Z</time></trkpt>
<trkpt lat="43.0194720000" lon="0.2375770000"><ele>1180</ele><time>2026-03-20T13:18:26Z</time></trkpt>
<trkpt lat="43.0194950000" lon="0.2375720000"><ele>1180</ele><time>2026-03-20T13:18:28Z</time></trkpt>
<trkpt lat="43.0195170000" lon="0.2375750000"><ele>1179</ele><time>2026-03-20T13:18:30Z</time></trkpt>
<trkpt lat="43.0195350000" lon="0.2375770000"><ele>1179</ele><time>2026-03-20T13:18:32Z</time></trkpt>
<trkpt lat="43.0195570000" lon="0.2376000000"><ele>1179</ele><time>2026-03-20T13:18:34Z</time></trkpt>
<trkpt lat="43.0195750000" lon="0.2376150000"><ele>1179</ele><time>2026-03-20T13:18:35Z</time></trkpt>
<trkpt lat="43.0195920000" lon="0.2376270000"><ele>1179</ele><time>2026-03-20T13:18:36Z</time></trkpt>
<trkpt lat="43.0196070000" lon="0.2376550000"><ele>1179</ele><time>2026-03-20T13:18:38Z</time></trkpt>
<trkpt lat="43.0196200000" lon="0.2376870000"><ele>1178</ele><time>2026-03-20T13:18:40Z</time></trkpt>
<trkpt lat="43.0196320000" lon="0.2377180000"><ele>1178</ele><time>2026-03-20T13:18:42Z</time></trkpt>
<trkpt lat="43.0196550000" lon="0.2377470000"><ele>1178</ele><time>2026-03-20T13:18:44Z</time></trkpt>
<trkpt lat="43.0196820000" lon="0.2377550000"><ele>1177</ele><time>2026-03-20T13:18:46Z</time></trkpt>
<trkpt lat="43.0197120000" lon="0.2377370000"><ele>1177</ele><time>2026-03-20T13:18:48Z</time></trkpt>
<trkpt lat="43.0196770000" lon="0.2377120000"><ele>1177</ele><time>2026-03-20T13:19:01Z</time></trkpt>
<trkpt lat="43.0196500000" lon="0.2377120000"><ele>1177</ele><time>2026-03-20T13:19:03Z</time></trkpt>
<trkpt lat="43.0196170000" lon="0.2377050000"><ele>1177</ele><time>2026-03-20T13:19:05Z</time></trkpt>
<trkpt lat="43.0195900000" lon="0.2377000000"><ele>1177</ele><time>2026-03-20T13:19:07Z</time></trkpt>
<trkpt lat="43.0195720000" lon="0.2377000000"><ele>1177</ele><time>2026-03-20T13:19:09Z</time></trkpt>
<trkpt lat="43.0195570000" lon="0.2377180000"><ele>1177</ele><time>2026-03-20T13:19:11Z</time></trkpt>
<trkpt lat="43.0195770000" lon="0.2377420000"><ele>1177</ele><time>2026-03-20T13:19:33Z</time></trkpt>
<trkpt lat="43.0196070000" lon="0.2377520000"><ele>1177</ele><time>2026-03-20T13:19:35Z</time></trkpt>
<trkpt lat="43.0196370000" lon="0.2377650000"><ele>1177</ele><time>2026-03-20T13:19:37Z</time></trkpt>
<trkpt lat="43.0196550000" lon="0.2377670000"><ele>1177</ele><time>2026-03-20T13:19:39Z</time></trkpt>
<trkpt lat="43.0196720000" lon="0.2377800000"><ele>1177</ele><time>2026-03-20T13:19:42Z</time></trkpt>
<trkpt lat="43.0196520000" lon="0.2377900000"><ele>1177</ele><time>2026-03-20T13:19:45Z</time></trkpt>
<trkpt lat="43.0196370000" lon="0.2377750000"><ele>1177</ele><time>2026-03-20T13:19:48Z</time></trkpt>
<trkpt lat="43.0196250000" lon="0.2377470000"><ele>1176</ele><time>2026-03-20T13:20:15Z</time></trkpt>
<trkpt lat="43.0196850000" lon="0.2377070000"><ele>1174</ele><time>2026-03-20T13:24:36Z</time></trkpt>
<trkpt lat="43.0197020000" lon="0.2376870000"><ele>1174</ele><time>2026-03-20T13:24:38Z</time></trkpt>
<trkpt lat="43.0196820000" lon="0.2376730000"><ele>1174</ele><time>2026-03-20T13:25:22Z</time></trkpt>
<trkpt lat="43.0196680000" lon="0.2376550000"><ele>1174</ele><time>2026-03-20T13:25:29Z</time></trkpt>
<trkpt lat="43.0196620000" lon="0.2376300000"><ele>1173</ele><time>2026-03-20T13:26:49Z</time></trkpt>
<trkpt lat="43.0196620000" lon="0.2376600000"><ele>1173</ele><time>2026-03-20T13:26:50Z</time></trkpt>
<trkpt lat="43.0196620000" lon="0.2376950000"><ele>1174</ele><time>2026-03-20T13:26:51Z</time></trkpt>
<trkpt lat="43.0196670000" lon="0.2377300000"><ele>1174</ele><time>2026-03-20T13:26:52Z</time></trkpt>
<trkpt lat="43.0196680000" lon="0.2377570000"><ele>1174</ele><time>2026-03-20T13:26:53Z</time></trkpt>
<trkpt lat="43.0196570000" lon="0.2377770000"><ele>1174</ele><time>2026-03-20T13:27:07Z</time></trkpt>
<trkpt lat="43.0196350000" lon="0.2377820000"><ele>1174</ele><time>2026-03-20T13:27:09Z</time></trkpt>
<trkpt lat="43.0196100000" lon="0.2377900000"><ele>1174</ele><time>2026-03-20T13:27:11Z</time></trkpt>
<trkpt lat="43.0195920000" lon="0.2377870000"><ele>1174</ele><time>2026-03-20T13:27:13Z</time></trkpt>
<trkpt lat="43.0195720000" lon="0.2377870000"><ele>1174</ele><time>2026-03-20T13:27:15Z</time></trkpt>
<trkpt lat="43.0195550000" lon="0.2378020000"><ele>1174</ele><time>2026-03-20T13:27:17Z</time></trkpt>
<trkpt lat="43.0195370000" lon="0.2378220000"><ele>1174</ele><time>2026-03-20T13:27:19Z</time></trkpt>
<trkpt lat="43.0195120000" lon="0.2378370000"><ele>1173</ele><time>2026-03-20T13:27:21Z</time></trkpt>
<trkpt lat="43.0194900000" lon="0.2378500000"><ele>1173</ele><time>2026-03-20T13:27:23Z</time></trkpt>
<trkpt lat="43.0194670000" lon="0.2378520000"><ele>1173</ele><time>2026-03-20T13:27:25Z</time></trkpt>
<trkpt lat="43.0194470000" lon="0.2378550000"><ele>1173</ele><time>2026-03-20T13:27:27Z</time></trkpt>
<trkpt lat="43.0194270000" lon="0.2378720000"><ele>1172</ele><time>2026-03-20T13:27:29Z</time></trkpt>
<trkpt lat="43.0194050000" lon="0.2378920000"><ele>1172</ele><time>2026-03-20T13:27:32Z</time></trkpt>
<trkpt lat="43.0193820000" lon="0.2379050000"><ele>1172</ele><time>2026-03-20T13:27:35Z</time></trkpt>
<trkpt lat="43.0193570000" lon="0.2379250000"><ele>1171</ele><time>2026-03-20T13:27:38Z</time></trkpt>
<trkpt lat="43.0193370000" lon="0.2379400000"><ele>1171</ele><time>2026-03-20T13:27:40Z</time></trkpt>
<trkpt lat="43.0193120000" lon="0.2379570000"><ele>1171</ele><time>2026-03-20T13:27:42Z</time></trkpt>
<trkpt lat="43.0193000000" lon="0.2379770000"><ele>1170</ele><time>2026-03-20T13:27:44Z</time></trkpt>
<trkpt lat="43.0192920000" lon="0.2380020000"><ele>1170</ele><time>2026-03-20T13:27:46Z</time></trkpt>
<trkpt lat="43.0192770000" lon="0.2380270000"><ele>1170</ele><time>2026-03-20T13:27:48Z</time></trkpt>
<trkpt lat="43.0192620000" lon="0.2380570000"><ele>1169</ele><time>2026-03-20T13:27:51Z</time></trkpt>
<trkpt lat="43.0192500000" lon="0.2380800000"><ele>1169</ele><time>2026-03-20T13:27:53Z</time></trkpt>
<trkpt lat="43.0192370000" lon="0.2381020000"><ele>1169</ele><time>2026-03-20T13:27:55Z</time></trkpt>
<trkpt lat="43.0192220000" lon="0.2381300000"><ele>1169</ele><time>2026-03-20T13:27:57Z</time></trkpt>
<trkpt lat="43.0192070000" lon="0.2381600000"><ele>1169</ele><time>2026-03-20T13:27:59Z</time></trkpt>
<trkpt lat="43.0191970000" lon="0.2381870000"><ele>1168</ele><time>2026-03-20T13:28:01Z</time></trkpt>
<trkpt lat="43.0191820000" lon="0.2382120000"><ele>1168</ele><time>2026-03-20T13:28:03Z</time></trkpt>
<trkpt lat="43.0191670000" lon="0.2382420000"><ele>1168</ele><time>2026-03-20T13:28:05Z</time></trkpt>
<trkpt lat="43.0191550000" lon="0.2382670000"><ele>1168</ele><time>2026-03-20T13:28:07Z</time></trkpt>
<trkpt lat="43.0191370000" lon="0.2382900000"><ele>1167</ele><time>2026-03-20T13:28:09Z</time></trkpt>
<trkpt lat="43.0191220000" lon="0.2383120000"><ele>1167</ele><time>2026-03-20T13:28:11Z</time></trkpt>
<trkpt lat="43.0191100000" lon="0.2383370000"><ele>1167</ele><time>2026-03-20T13:28:13Z</time></trkpt>
<trkpt lat="43.0190920000" lon="0.2383670000"><ele>1167</ele><time>2026-03-20T13:28:16Z</time></trkpt>
<trkpt lat="43.0190820000" lon="0.2383870000"><ele>1166</ele><time>2026-03-20T13:28:18Z</time></trkpt>
<trkpt lat="43.0190620000" lon="0.2384100000"><ele>1166</ele><time>2026-03-20T13:28:20Z</time></trkpt>
<trkpt lat="43.0190400000" lon="0.2384270000"><ele>1166</ele><time>2026-03-20T13:28:22Z</time></trkpt>
<trkpt lat="43.0190170000" lon="0.2384470000"><ele>1166</ele><time>2026-03-20T13:28:24Z</time></trkpt>
<trkpt lat="43.0189920000" lon="0.2384720000"><ele>1165</ele><time>2026-03-20T13:28:26Z</time></trkpt>
<trkpt lat="43.0189670000" lon="0.2384900000"><ele>1165</ele><time>2026-03-20T13:28:28Z</time></trkpt>
<trkpt lat="43.0189550000" lon="0.2385080000"><ele>1165</ele><time>2026-03-20T13:28:30Z</time></trkpt>
<trkpt lat="43.0189520000" lon="0.2385500000"><ele>1165</ele><time>2026-03-20T13:28:32Z</time></trkpt>
<trkpt lat="43.0189550000" lon="0.2385770000"><ele>1164</ele><time>2026-03-20T13:28:34Z</time></trkpt>
<trkpt lat="43.0189520000" lon="0.2386100000"><ele>1164</ele><time>2026-03-20T13:28:36Z</time></trkpt>
<trkpt lat="43.0189470000" lon="0.2386420000"><ele>1164</ele><time>2026-03-20T13:28:38Z</time></trkpt>
<trkpt lat="43.0189400000" lon="0.2386700000"><ele>1164</ele><time>2026-03-20T13:28:40Z</time></trkpt>
<trkpt lat="43.0189250000" lon="0.2386930000"><ele>1164</ele><time>2026-03-20T13:28:42Z</time></trkpt>
<trkpt lat="43.0189070000" lon="0.2387070000"><ele>1163</ele><time>2026-03-20T13:28:43Z</time></trkpt>
<trkpt lat="43.0188800000" lon="0.2387350000"><ele>1163</ele><time>2026-03-20T13:28:45Z</time></trkpt>
<trkpt lat="43.0188670000" lon="0.2387670000"><ele>1163</ele><time>2026-03-20T13:28:48Z</time></trkpt>
<trkpt lat="43.0188620000" lon="0.2387950000"><ele>1163</ele><time>2026-03-20T13:28:50Z</time></trkpt>
<trkpt lat="43.0188470000" lon="0.2388220000"><ele>1163</ele><time>2026-03-20T13:28:52Z</time></trkpt>
<trkpt lat="43.0188320000" lon="0.2388520000"><ele>1162</ele><time>2026-03-20T13:28:54Z</time></trkpt>
<trkpt lat="43.0188200000" lon="0.2388770000"><ele>1162</ele><time>2026-03-20T13:28:56Z</time></trkpt>
<trkpt lat="43.0188100000" lon="0.2389070000"><ele>1162</ele><time>2026-03-20T13:28:58Z</time></trkpt>
<trkpt lat="43.0188000000" lon="0.2389370000"><ele>1162</ele><time>2026-03-20T13:29:00Z</time></trkpt>
<trkpt lat="43.0187900000" lon="0.2389650000"><ele>1161</ele><time>2026-03-20T13:29:02Z</time></trkpt>
<trkpt lat="43.0187750000" lon="0.2389920000"><ele>1161</ele><time>2026-03-20T13:29:04Z</time></trkpt>
<trkpt lat="43.0187520000" lon="0.2390170000"><ele>1161</ele><time>2026-03-20T13:29:06Z</time></trkpt>
<trkpt lat="43.0187350000" lon="0.2390420000"><ele>1161</ele><time>2026-03-20T13:29:08Z</time></trkpt>
<trkpt lat="43.0187170000" lon="0.2390700000"><ele>1161</ele><time>2026-03-20T13:29:10Z</time></trkpt>
<trkpt lat="43.0187050000" lon="0.2391020000"><ele>1160</ele><time>2026-03-20T13:29:12Z</time></trkpt>
<trkpt lat="43.0186970000" lon="0.2391270000"><ele>1160</ele><time>2026-03-20T13:29:14Z</time></trkpt>
<trkpt lat="43.0186820000" lon="0.2391620000"><ele>1160</ele><time>2026-03-20T13:29:17Z</time></trkpt>
<trkpt lat="43.0186720000" lon="0.2391900000"><ele>1160</ele><time>2026-03-20T13:29:19Z</time></trkpt>
<trkpt lat="43.0186600000" lon="0.2392220000"><ele>1159</ele><time>2026-03-20T13:29:21Z</time></trkpt>
<trkpt lat="43.0186470000" lon="0.2392470000"><ele>1159</ele><time>2026-03-20T13:29:23Z</time></trkpt>
<trkpt lat="43.0186350000" lon="0.2392720000"><ele>1159</ele><time>2026-03-20T13:29:25Z</time></trkpt>
<trkpt lat="43.0186220000" lon="0.2393020000"><ele>1159</ele><time>2026-03-20T13:29:27Z</time></trkpt>
<trkpt lat="43.0186100000" lon="0.2393320000"><ele>1158</ele><time>2026-03-20T13:29:29Z</time></trkpt>
<trkpt lat="43.0185970000" lon="0.2393650000"><ele>1158</ele><time>2026-03-20T13:29:31Z</time></trkpt>
<trkpt lat="43.0185870000" lon="0.2393920000"><ele>1158</ele><time>2026-03-20T13:29:33Z</time></trkpt>
<trkpt lat="43.0185700000" lon="0.2394270000"><ele>1157</ele><time>2026-03-20T13:29:36Z</time></trkpt>
<trkpt lat="43.0185500000" lon="0.2394470000"><ele>1157</ele><time>2026-03-20T13:29:38Z</time></trkpt>
<trkpt lat="43.0185270000" lon="0.2394720000"><ele>1157</ele><time>2026-03-20T13:29:40Z</time></trkpt>
<trkpt lat="43.0185170000" lon="0.2395020000"><ele>1156</ele><time>2026-03-20T13:29:43Z</time></trkpt>
<trkpt lat="43.0185050000" lon="0.2395370000"><ele>1156</ele><time>2026-03-20T13:29:45Z</time></trkpt>
<trkpt lat="43.0184970000" lon="0.2395650000"><ele>1156</ele><time>2026-03-20T13:29:47Z</time></trkpt>
<trkpt lat="43.0184870000" lon="0.2395920000"><ele>1155</ele><time>2026-03-20T13:29:49Z</time></trkpt>
<trkpt lat="43.0184820000" lon="0.2396220000"><ele>1155</ele><time>2026-03-20T13:29:51Z</time></trkpt>
<trkpt lat="43.0184770000" lon="0.2396500000"><ele>1155</ele><time>2026-03-20T13:29:53Z</time></trkpt>
<trkpt lat="43.0184720000" lon="0.2396820000"><ele>1155</ele><time>2026-03-20T13:29:55Z</time></trkpt>
<trkpt lat="43.0184620000" lon="0.2397170000"><ele>1155</ele><time>2026-03-20T13:29:57Z</time></trkpt>
<trkpt lat="43.0184420000" lon="0.2397520000"><ele>1154</ele><time>2026-03-20T13:29:59Z</time></trkpt>
<trkpt lat="43.0184370000" lon="0.2397900000"><ele>1154</ele><time>2026-03-20T13:30:01Z</time></trkpt>
<trkpt lat="43.0184370000" lon="0.2398200000"><ele>1154</ele><time>2026-03-20T13:30:03Z</time></trkpt>
<trkpt lat="43.0184350000" lon="0.2398500000"><ele>1153</ele><time>2026-03-20T13:30:05Z</time></trkpt>
<trkpt lat="43.0184370000" lon="0.2398830000"><ele>1153</ele><time>2026-03-20T13:30:07Z</time></trkpt>
<trkpt lat="43.0184370000" lon="0.2399120000"><ele>1153</ele><time>2026-03-20T13:30:09Z</time></trkpt>
<trkpt lat="43.0184370000" lon="0.2399470000"><ele>1153</ele><time>2026-03-20T13:30:11Z</time></trkpt>
<trkpt lat="43.0184370000" lon="0.2399720000"><ele>1153</ele><time>2026-03-20T13:30:13Z</time></trkpt>
<trkpt lat="43.0184320000" lon="0.2400070000"><ele>1152</ele><time>2026-03-20T13:30:15Z</time></trkpt>
<trkpt lat="43.0184270000" lon="0.2400330000"><ele>1152</ele><time>2026-03-20T13:30:17Z</time></trkpt>
<trkpt lat="43.0184320000" lon="0.2400650000"><ele>1152</ele><time>2026-03-20T13:30:20Z</time></trkpt>
<trkpt lat="43.0184120000" lon="0.2400570000"><ele>1152</ele><time>2026-03-20T13:30:23Z</time></trkpt>
<trkpt lat="43.0184120000" lon="0.2401020000"><ele>1151</ele><time>2026-03-20T13:30:46Z</time></trkpt>
<trkpt lat="43.0184170000" lon="0.2401470000"><ele>1151</ele><time>2026-03-20T13:30:48Z</time></trkpt>
<trkpt lat="43.0184200000" lon="0.2401900000"><ele>1151</ele><time>2026-03-20T13:30:50Z</time></trkpt>
<trkpt lat="43.0184220000" lon="0.2402220000"><ele>1151</ele><time>2026-03-20T13:30:52Z</time></trkpt>
<trkpt lat="43.0184270000" lon="0.2402470000"><ele>1151</ele><time>2026-03-20T13:30:54Z</time></trkpt>
<trkpt lat="43.0184250000" lon="0.2402770000"><ele>1150</ele><time>2026-03-20T13:30:56Z</time></trkpt>
<trkpt lat="43.0184250000" lon="0.2403170000"><ele>1150</ele><time>2026-03-20T13:30:58Z</time></trkpt>
<trkpt lat="43.0184320000" lon="0.2403520000"><ele>1150</ele><time>2026-03-20T13:31:00Z</time></trkpt>
<trkpt lat="43.0184420000" lon="0.2403820000"><ele>1150</ele><time>2026-03-20T13:31:02Z</time></trkpt>
<trkpt lat="43.0184420000" lon="0.2404200000"><ele>1149</ele><time>2026-03-20T13:31:05Z</time></trkpt>
<trkpt lat="43.0184320000" lon="0.2404520000"><ele>1149</ele><time>2026-03-20T13:31:07Z</time></trkpt>
<trkpt lat="43.0184220000" lon="0.2404820000"><ele>1149</ele><time>2026-03-20T13:31:09Z</time></trkpt>
<trkpt lat="43.0184270000" lon="0.2405100000"><ele>1149</ele><time>2026-03-20T13:31:11Z</time></trkpt>
<trkpt lat="43.0184270000" lon="0.2405370000"><ele>1148</ele><time>2026-03-20T13:31:13Z</time></trkpt>
<trkpt lat="43.0184320000" lon="0.2405620000"><ele>1148</ele><time>2026-03-20T13:31:16Z</time></trkpt>
<trkpt lat="43.0184520000" lon="0.2405820000"><ele>1148</ele><time>2026-03-20T13:31:21Z</time></trkpt>
<trkpt lat="43.0184580000" lon="0.2406100000"><ele>1147</ele><time>2026-03-20T13:31:23Z</time></trkpt>
<trkpt lat="43.0184580000" lon="0.2406370000"><ele>1147</ele><time>2026-03-20T13:31:25Z</time></trkpt>
<trkpt lat="43.0184650000" lon="0.2406670000"><ele>1147</ele><time>2026-03-20T13:31:27Z</time></trkpt>
<trkpt lat="43.0184720000" lon="0.2406970000"><ele>1147</ele><time>2026-03-20T13:31:29Z</time></trkpt>
<trkpt lat="43.0184820000" lon="0.2407270000"><ele>1147</ele><time>2026-03-20T13:31:31Z</time></trkpt>
<trkpt lat="43.0184900000" lon="0.2407520000"><ele>1147</ele><time>2026-03-20T13:31:33Z</time></trkpt>
<trkpt lat="43.0185000000" lon="0.2407820000"><ele>1146</ele><time>2026-03-20T13:31:35Z</time></trkpt>
<trkpt lat="43.0185170000" lon="0.2408070000"><ele>1146</ele><time>2026-03-20T13:31:37Z</time></trkpt>
<trkpt lat="43.0185370000" lon="0.2408320000"><ele>1146</ele><time>2026-03-20T13:31:39Z</time></trkpt>
<trkpt lat="43.0185520000" lon="0.2408580000"><ele>1146</ele><time>2026-03-20T13:31:41Z</time></trkpt>
<trkpt lat="43.0185720000" lon="0.2408850000"><ele>1145</ele><time>2026-03-20T13:31:43Z</time></trkpt>
<trkpt lat="43.0185820000" lon="0.2409130000"><ele>1145</ele><time>2026-03-20T13:31:45Z</time></trkpt>
<trkpt lat="43.0186000000" lon="0.2409370000"><ele>1145</ele><time>2026-03-20T13:31:47Z</time></trkpt>
<trkpt lat="43.0186120000" lon="0.2409600000"><ele>1144</ele><time>2026-03-20T13:31:49Z</time></trkpt>
<trkpt lat="43.0186320000" lon="0.2409870000"><ele>1144</ele><time>2026-03-20T13:31:51Z</time></trkpt>
<trkpt lat="43.0186570000" lon="0.2410120000"><ele>1144</ele><time>2026-03-20T13:31:53Z</time></trkpt>
<trkpt lat="43.0186770000" lon="0.2410400000"><ele>1144</ele><time>2026-03-20T13:31:55Z</time></trkpt>
<trkpt lat="43.0186950000" lon="0.2410620000"><ele>1144</ele><time>2026-03-20T13:31:57Z</time></trkpt>
<trkpt lat="43.0187070000" lon="0.2410870000"><ele>1143</ele><time>2026-03-20T13:31:59Z</time></trkpt>
<trkpt lat="43.0187170000" lon="0.2411100000"><ele>1143</ele><time>2026-03-20T13:32:01Z</time></trkpt>
<trkpt lat="43.0187250000" lon="0.2411420000"><ele>1143</ele><time>2026-03-20T13:32:03Z</time></trkpt>
<trkpt lat="43.0187370000" lon="0.2411670000"><ele>1143</ele><time>2026-03-20T13:32:05Z</time></trkpt>
<trkpt lat="43.0187570000" lon="0.2411870000"><ele>1143</ele><time>2026-03-20T13:32:07Z</time></trkpt>
<trkpt lat="43.0187700000" lon="0.2412170000"><ele>1142</ele><time>2026-03-20T13:32:09Z</time></trkpt>
<trkpt lat="43.0187870000" lon="0.2412420000"><ele>1142</ele><time>2026-03-20T13:32:11Z</time></trkpt>
<trkpt lat="43.0188020000" lon="0.2412720000"><ele>1142</ele><time>2026-03-20T13:32:14Z</time></trkpt>
<trkpt lat="43.0188070000" lon="0.2413070000"><ele>1141</ele><time>2026-03-20T13:32:16Z</time></trkpt>
<trkpt lat="43.0188120000" lon="0.2413330000"><ele>1141</ele><time>2026-03-20T13:32:18Z</time></trkpt>
<trkpt lat="43.0188200000" lon="0.2413620000"><ele>1141</ele><time>2026-03-20T13:32:20Z</time></trkpt>
<trkpt lat="43.0188370000" lon="0.2413920000"><ele>1141</ele><time>2026-03-20T13:32:22Z</time></trkpt>
<trkpt lat="43.0188620000" lon="0.2414130000"><ele>1141</ele><time>2026-03-20T13:32:24Z</time></trkpt>
<trkpt lat="43.0188820000" lon="0.2414420000"><ele>1140</ele><time>2026-03-20T13:32:26Z</time></trkpt>
<trkpt lat="43.0188950000" lon="0.2414750000"><ele>1140</ele><time>2026-03-20T13:32:29Z</time></trkpt>
<trkpt lat="43.0189070000" lon="0.2414970000"><ele>1140</ele><time>2026-03-20T13:32:31Z</time></trkpt>
<trkpt lat="43.0189170000" lon="0.2415250000"><ele>1140</ele><time>2026-03-20T13:32:33Z</time></trkpt>
<trkpt lat="43.0189270000" lon="0.2415450000"><ele>1139</ele><time>2026-03-20T13:32:35Z</time></trkpt>
<trkpt lat="43.0189450000" lon="0.2415670000"><ele>1139</ele><time>2026-03-20T13:32:37Z</time></trkpt>
<trkpt lat="43.0189620000" lon="0.2415950000"><ele>1139</ele><time>2026-03-20T13:32:39Z</time></trkpt>
<trkpt lat="43.0189750000" lon="0.2416270000"><ele>1139</ele><time>2026-03-20T13:32:41Z</time></trkpt>
<trkpt lat="43.0189900000" lon="0.2416520000"><ele>1138</ele><time>2026-03-20T13:32:43Z</time></trkpt>
<trkpt lat="43.0190070000" lon="0.2416820000"><ele>1138</ele><time>2026-03-20T13:32:45Z</time></trkpt>
<trkpt lat="43.0190270000" lon="0.2417100000"><ele>1138</ele><time>2026-03-20T13:32:47Z</time></trkpt>
<trkpt lat="43.0190370000" lon="0.2417350000"><ele>1138</ele><time>2026-03-20T13:32:49Z</time></trkpt>
<trkpt lat="43.0190570000" lon="0.2417670000"><ele>1137</ele><time>2026-03-20T13:32:51Z</time></trkpt>
<trkpt lat="43.0190720000" lon="0.2417920000"><ele>1137</ele><time>2026-03-20T13:32:53Z</time></trkpt>
<trkpt lat="43.0190820000" lon="0.2418250000"><ele>1137</ele><time>2026-03-20T13:32:55Z</time></trkpt>
<trkpt lat="43.0190970000" lon="0.2418500000"><ele>1137</ele><time>2026-03-20T13:32:57Z</time></trkpt>
<trkpt lat="43.0191020000" lon="0.2418830000"><ele>1136</ele><time>2026-03-20T13:32:59Z</time></trkpt>
<trkpt lat="43.0191220000" lon="0.2419100000"><ele>1136</ele><time>2026-03-20T13:33:01Z</time></trkpt>
<trkpt lat="43.0191320000" lon="0.2419370000"><ele>1136</ele><time>2026-03-20T13:33:03Z</time></trkpt>
<trkpt lat="43.0191470000" lon="0.2419620000"><ele>1135</ele><time>2026-03-20T13:33:05Z</time></trkpt>
<trkpt lat="43.0191570000" lon="0.2419870000"><ele>1135</ele><time>2026-03-20T13:33:07Z</time></trkpt>
<trkpt lat="43.0191700000" lon="0.2420120000"><ele>1135</ele><time>2026-03-20T13:33:09Z</time></trkpt>
<trkpt lat="43.0191820000" lon="0.2420450000"><ele>1135</ele><time>2026-03-20T13:33:12Z</time></trkpt>
<trkpt lat="43.0191970000" lon="0.2420670000"><ele>1134</ele><time>2026-03-20T13:33:14Z</time></trkpt>
<trkpt lat="43.0192150000" lon="0.2420900000"><ele>1134</ele><time>2026-03-20T13:33:16Z</time></trkpt>
<trkpt lat="43.0192270000" lon="0.2421120000"><ele>1134</ele><time>2026-03-20T13:33:18Z</time></trkpt>
<trkpt lat="43.0192320000" lon="0.2421370000"><ele>1134</ele><time>2026-03-20T13:33:20Z</time></trkpt>
<trkpt lat="43.0192420000" lon="0.2421670000"><ele>1133</ele><time>2026-03-20T13:33:22Z</time></trkpt>
<trkpt lat="43.0192520000" lon="0.2421920000"><ele>1133</ele><time>2026-03-20T13:33:24Z</time></trkpt>
<trkpt lat="43.0192720000" lon="0.2422200000"><ele>1132</ele><time>2026-03-20T13:33:26Z</time></trkpt>
<trkpt lat="43.0192850000" lon="0.2422420000"><ele>1132</ele><time>2026-03-20T13:33:28Z</time></trkpt>
<trkpt lat="43.0192970000" lon="0.2422620000"><ele>1132</ele><time>2026-03-20T13:33:30Z</time></trkpt>
<trkpt lat="43.0193070000" lon="0.2422900000"><ele>1131</ele><time>2026-03-20T13:33:32Z</time></trkpt>
<trkpt lat="43.0193120000" lon="0.2423200000"><ele>1131</ele><time>2026-03-20T13:33:34Z</time></trkpt>
<trkpt lat="43.0193250000" lon="0.2423470000"><ele>1131</ele><time>2026-03-20T13:33:36Z</time></trkpt>
<trkpt lat="43.0193420000" lon="0.2423750000"><ele>1130</ele><time>2026-03-20T13:33:38Z</time></trkpt>
<trkpt lat="43.0193570000" lon="0.2424020000"><ele>1130</ele><time>2026-03-20T13:33:40Z</time></trkpt>
<trkpt lat="43.0193600000" lon="0.2424300000"><ele>1130</ele><time>2026-03-20T13:33:42Z</time></trkpt>
<trkpt lat="43.0193730000" lon="0.2424570000"><ele>1129</ele><time>2026-03-20T13:33:44Z</time></trkpt>
<trkpt lat="43.0193870000" lon="0.2424820000"><ele>1129</ele><time>2026-03-20T13:33:46Z</time></trkpt>
<trkpt lat="43.0194000000" lon="0.2425120000"><ele>1128</ele><time>2026-03-20T13:33:48Z</time></trkpt>
<trkpt lat="43.0194070000" lon="0.2425400000"><ele>1128</ele><time>2026-03-20T13:33:50Z</time></trkpt>
<trkpt lat="43.0194170000" lon="0.2425670000"><ele>1128</ele><time>2026-03-20T13:33:52Z</time></trkpt>
<trkpt lat="43.0194320000" lon="0.2426000000"><ele>1127</ele><time>2026-03-20T13:33:54Z</time></trkpt>
<trkpt lat="43.0194430000" lon="0.2426300000"><ele>1127</ele><time>2026-03-20T13:33:56Z</time></trkpt>
<trkpt lat="43.0194570000" lon="0.2426580000"><ele>1127</ele><time>2026-03-20T13:33:58Z</time></trkpt>
<trkpt lat="43.0194670000" lon="0.2426870000"><ele>1126</ele><time>2026-03-20T13:34:00Z</time></trkpt>
<trkpt lat="43.0194750000" lon="0.2427120000"><ele>1126</ele><time>2026-03-20T13:34:02Z</time></trkpt>
<trkpt lat="43.0194770000" lon="0.2427450000"><ele>1126</ele><time>2026-03-20T13:34:04Z</time></trkpt>
<trkpt lat="43.0194920000" lon="0.2427750000"><ele>1126</ele><time>2026-03-20T13:34:06Z</time></trkpt>
<trkpt lat="43.0195120000" lon="0.2428070000"><ele>1125</ele><time>2026-03-20T13:34:08Z</time></trkpt>
<trkpt lat="43.0195220000" lon="0.2428420000"><ele>1125</ele><time>2026-03-20T13:34:10Z</time></trkpt>
<trkpt lat="43.0195200000" lon="0.2428720000"><ele>1125</ele><time>2026-03-20T13:34:12Z</time></trkpt>
<trkpt lat="43.0195220000" lon="0.2429120000"><ele>1125</ele><time>2026-03-20T13:34:14Z</time></trkpt>
<trkpt lat="43.0195320000" lon="0.2429350000"><ele>1125</ele><time>2026-03-20T13:34:15Z</time></trkpt>
<trkpt lat="43.0195500000" lon="0.2429650000"><ele>1124</ele><time>2026-03-20T13:34:17Z</time></trkpt>
<trkpt lat="43.0195620000" lon="0.2429920000"><ele>1124</ele><time>2026-03-20T13:34:19Z</time></trkpt>
<trkpt lat="43.0195700000" lon="0.2430250000"><ele>1124</ele><time>2026-03-20T13:34:21Z</time></trkpt>
<trkpt lat="43.0195800000" lon="0.2430520000"><ele>1124</ele><time>2026-03-20T13:34:23Z</time></trkpt>
<trkpt lat="43.0195870000" lon="0.2430830000"><ele>1123</ele><time>2026-03-20T13:34:25Z</time></trkpt>
<trkpt lat="43.0195950000" lon="0.2431150000"><ele>1123</ele><time>2026-03-20T13:34:27Z</time></trkpt>
<trkpt lat="43.0196050000" lon="0.2431500000"><ele>1123</ele><time>2026-03-20T13:34:29Z</time></trkpt>
<trkpt lat="43.0196120000" lon="0.2431750000"><ele>1123</ele><time>2026-03-20T13:34:31Z</time></trkpt>
<trkpt lat="43.0196220000" lon="0.2432020000"><ele>1122</ele><time>2026-03-20T13:34:33Z</time></trkpt>
<trkpt lat="43.0196320000" lon="0.2432350000"><ele>1122</ele><time>2026-03-20T13:34:35Z</time></trkpt>
<trkpt lat="43.0196420000" lon="0.2432620000"><ele>1122</ele><time>2026-03-20T13:34:37Z</time></trkpt>
<trkpt lat="43.0196500000" lon="0.2432920000"><ele>1121</ele><time>2026-03-20T13:34:39Z</time></trkpt>
<trkpt lat="43.0196520000" lon="0.2433250000"><ele>1121</ele><time>2026-03-20T13:34:41Z</time></trkpt>
<trkpt lat="43.0196520000" lon="0.2433580000"><ele>1121</ele><time>2026-03-20T13:34:43Z</time></trkpt>
<trkpt lat="43.0196620000" lon="0.2433970000"><ele>1121</ele><time>2026-03-20T13:34:45Z</time></trkpt>
<trkpt lat="43.0196670000" lon="0.2434270000"><ele>1121</ele><time>2026-03-20T13:34:47Z</time></trkpt>
<trkpt lat="43.0196750000" lon="0.2434650000"><ele>1120</ele><time>2026-03-20T13:34:49Z</time></trkpt>
<trkpt lat="43.0196900000" lon="0.2434930000"><ele>1120</ele><time>2026-03-20T13:34:51Z</time></trkpt>
<trkpt lat="43.0197000000" lon="0.2435270000"><ele>1120</ele><time>2026-03-20T13:34:53Z</time></trkpt>
<trkpt lat="43.0197170000" lon="0.2435600000"><ele>1120</ele><time>2026-03-20T13:34:55Z</time></trkpt>
<trkpt lat="43.0197300000" lon="0.2435970000"><ele>1119</ele><time>2026-03-20T13:34:57Z</time></trkpt>
<trkpt lat="43.0197420000" lon="0.2436220000"><ele>1119</ele><time>2026-03-20T13:34:59Z</time></trkpt>
<trkpt lat="43.0197470000" lon="0.2436550000"><ele>1119</ele><time>2026-03-20T13:35:01Z</time></trkpt>
<trkpt lat="43.0197520000" lon="0.2436870000"><ele>1119</ele><time>2026-03-20T13:35:03Z</time></trkpt>
<trkpt lat="43.0197620000" lon="0.2437200000"><ele>1119</ele><time>2026-03-20T13:35:05Z</time></trkpt>
<trkpt lat="43.0197720000" lon="0.2437520000"><ele>1118</ele><time>2026-03-20T13:35:07Z</time></trkpt>
<trkpt lat="43.0197820000" lon="0.2437820000"><ele>1118</ele><time>2026-03-20T13:35:09Z</time></trkpt>
<trkpt lat="43.0197970000" lon="0.2438120000"><ele>1118</ele><time>2026-03-20T13:35:11Z</time></trkpt>
<trkpt lat="43.0198070000" lon="0.2438420000"><ele>1118</ele><time>2026-03-20T13:35:13Z</time></trkpt>
<trkpt lat="43.0198170000" lon="0.2438770000"><ele>1118</ele><time>2026-03-20T13:35:15Z</time></trkpt>
<trkpt lat="43.0198270000" lon="0.2439120000"><ele>1118</ele><time>2026-03-20T13:35:17Z</time></trkpt>
<trkpt lat="43.0198450000" lon="0.2439420000"><ele>1118</ele><time>2026-03-20T13:35:19Z</time></trkpt>
<trkpt lat="43.0198570000" lon="0.2439800000"><ele>1118</ele><time>2026-03-20T13:35:21Z</time></trkpt>
<trkpt lat="43.0198600000" lon="0.2440170000"><ele>1118</ele><time>2026-03-20T13:35:23Z</time></trkpt>
<trkpt lat="43.0198700000" lon="0.2440420000"><ele>1117</ele><time>2026-03-20T13:35:25Z</time></trkpt>
<trkpt lat="43.0198770000" lon="0.2440700000"><ele>1117</ele><time>2026-03-20T13:35:27Z</time></trkpt>
<trkpt lat="43.0198900000" lon="0.2441020000"><ele>1117</ele><time>2026-03-20T13:35:29Z</time></trkpt>
<trkpt lat="43.0198970000" lon="0.2441300000"><ele>1117</ele><time>2026-03-20T13:35:31Z</time></trkpt>
<trkpt lat="43.0199020000" lon="0.2441600000"><ele>1116</ele><time>2026-03-20T13:35:33Z</time></trkpt>
<trkpt lat="43.0199120000" lon="0.2441870000"><ele>1116</ele><time>2026-03-20T13:35:35Z</time></trkpt>
<trkpt lat="43.0199220000" lon="0.2442150000"><ele>1116</ele><time>2026-03-20T13:35:37Z</time></trkpt>
<trkpt lat="43.0199320000" lon="0.2442370000"><ele>1116</ele><time>2026-03-20T13:35:39Z</time></trkpt>
<trkpt lat="43.0199350000" lon="0.2442670000"><ele>1115</ele><time>2026-03-20T13:35:41Z</time></trkpt>
<trkpt lat="43.0199420000" lon="0.2442970000"><ele>1115</ele><time>2026-03-20T13:35:43Z</time></trkpt>
<trkpt lat="43.0199520000" lon="0.2443270000"><ele>1115</ele><time>2026-03-20T13:35:45Z</time></trkpt>
<trkpt lat="43.0199620000" lon="0.2443550000"><ele>1115</ele><time>2026-03-20T13:35:47Z</time></trkpt>
<trkpt lat="43.0199670000" lon="0.2443870000"><ele>1115</ele><time>2026-03-20T13:35:49Z</time></trkpt>
<trkpt lat="43.0199770000" lon="0.2444220000"><ele>1114</ele><time>2026-03-20T13:35:51Z</time></trkpt>
<trkpt lat="43.0199850000" lon="0.2444500000"><ele>1114</ele><time>2026-03-20T13:35:53Z</time></trkpt>
<trkpt lat="43.0199920000" lon="0.2444770000"><ele>1114</ele><time>2026-03-20T13:35:55Z</time></trkpt>
<trkpt lat="43.0199870000" lon="0.2445120000"><ele>1114</ele><time>2026-03-20T13:35:57Z</time></trkpt>
<trkpt lat="43.0199870000" lon="0.2445450000"><ele>1113</ele><time>2026-03-20T13:35:59Z</time></trkpt>
<trkpt lat="43.0199920000" lon="0.2445770000"><ele>1113</ele><time>2026-03-20T13:36:01Z</time></trkpt>
<trkpt lat="43.0200070000" lon="0.2446120000"><ele>1113</ele><time>2026-03-20T13:36:03Z</time></trkpt>
<trkpt lat="43.0200120000" lon="0.2446420000"><ele>1113</ele><time>2026-03-20T13:36:05Z</time></trkpt>
<trkpt lat="43.0200220000" lon="0.2446750000"><ele>1112</ele><time>2026-03-20T13:36:11Z</time></trkpt>
<trkpt lat="43.0200320000" lon="0.2447120000"><ele>1112</ele><time>2026-03-20T13:36:13Z</time></trkpt>
<trkpt lat="43.0200370000" lon="0.2447520000"><ele>1112</ele><time>2026-03-20T13:36:15Z</time></trkpt>
<trkpt lat="43.0200450000" lon="0.2447820000"><ele>1112</ele><time>2026-03-20T13:36:17Z</time></trkpt>
<trkpt lat="43.0200520000" lon="0.2448070000"><ele>1112</ele><time>2026-03-20T13:36:19Z</time></trkpt>
<trkpt lat="43.0200650000" lon="0.2448320000"><ele>1112</ele><time>2026-03-20T13:36:21Z</time></trkpt>
<trkpt lat="43.0200800000" lon="0.2448470000"><ele>1110</ele><time>2026-03-20T13:36:36Z</time></trkpt>
<trkpt lat="43.0201020000" lon="0.2448470000"><ele>1110</ele><time>2026-03-20T13:36:38Z</time></trkpt>
<trkpt lat="43.0201300000" lon="0.2448270000"><ele>1110</ele><time>2026-03-20T13:36:40Z</time></trkpt>
<trkpt lat="43.0201320000" lon="0.2447920000"><ele>1110</ele><time>2026-03-20T13:36:42Z</time></trkpt>
<trkpt lat="43.0201270000" lon="0.2447470000"><ele>1110</ele><time>2026-03-20T13:36:44Z</time></trkpt>
<trkpt lat="43.0201250000" lon="0.2447120000"><ele>1110</ele><time>2026-03-20T13:36:46Z</time></trkpt>
<trkpt lat="43.0201200000" lon="0.2446820000"><ele>1110</ele><time>2026-03-20T13:36:48Z</time></trkpt>
<trkpt lat="43.0201220000" lon="0.2446520000"><ele>1110</ele><time>2026-03-20T13:36:50Z</time></trkpt>
<trkpt lat="43.0201220000" lon="0.2446220000"><ele>1109</ele><time>2026-03-20T13:36:52Z</time></trkpt>
<trkpt lat="43.0201220000" lon="0.2445920000"><ele>1109</ele><time>2026-03-20T13:36:54Z</time></trkpt>
<trkpt lat="43.0201220000" lon="0.2445670000"><ele>1109</ele><time>2026-03-20T13:36:56Z</time></trkpt>
<trkpt lat="43.0201250000" lon="0.2445370000"><ele>1109</ele><time>2026-03-20T13:36:58Z</time></trkpt>
<trkpt lat="43.0201220000" lon="0.2445100000"><ele>1108</ele><time>2026-03-20T13:37:00Z</time></trkpt>
<trkpt lat="43.0201200000" lon="0.2444730000"><ele>1108</ele><time>2026-03-20T13:37:02Z</time></trkpt>
<trkpt lat="43.0201320000" lon="0.2444470000"><ele>1108</ele><time>2026-03-20T13:37:04Z</time></trkpt>
<trkpt lat="43.0201450000" lon="0.2444200000"><ele>1107</ele><time>2026-03-20T13:37:07Z</time></trkpt>
<trkpt lat="43.0201470000" lon="0.2443950000"><ele>1107</ele><time>2026-03-20T13:37:11Z</time></trkpt>
<trkpt lat="43.0201670000" lon="0.2443830000"><ele>1107</ele><time>2026-03-20T13:37:15Z</time></trkpt>
<trkpt lat="43.0201520000" lon="0.2443620000"><ele>1107</ele><time>2026-03-20T13:37:31Z</time></trkpt>
<trkpt lat="43.0201420000" lon="0.2443330000"><ele>1106</ele><time>2026-03-20T13:37:33Z</time></trkpt>
<trkpt lat="43.0201300000" lon="0.2443070000"><ele>1106</ele><time>2026-03-20T13:37:35Z</time></trkpt>
<trkpt lat="43.0201320000" lon="0.2442820000"><ele>1106</ele><time>2026-03-20T13:37:37Z</time></trkpt>
<trkpt lat="43.0201370000" lon="0.2442550000"><ele>1106</ele><time>2026-03-20T13:37:41Z</time></trkpt>
<trkpt lat="43.0201400000" lon="0.2443150000"><ele>1106</ele><time>2026-03-20T13:38:23Z</time></trkpt>
<trkpt lat="43.0201420000" lon="0.2443620000"><ele>1106</ele><time>2026-03-20T13:38:24Z</time></trkpt>
<trkpt lat="43.0201470000" lon="0.2444100000"><ele>1107</ele><time>2026-03-20T13:38:25Z</time></trkpt>
<trkpt lat="43.0201500000" lon="0.2444470000"><ele>1107</ele><time>2026-03-20T13:38:26Z</time></trkpt>
<trkpt lat="43.0201520000" lon="0.2444770000"><ele>1107</ele><time>2026-03-20T13:38:28Z</time></trkpt>
<trkpt lat="43.0201650000" lon="0.2444520000"><ele>1105</ele><time>2026-03-20T13:38:37Z</time></trkpt>
<trkpt lat="43.0201750000" lon="0.2444220000"><ele>1103</ele><time>2026-03-20T13:38:44Z</time></trkpt>
<trkpt lat="43.0201870000" lon="0.2443770000"><ele>1103</ele><time>2026-03-20T13:38:46Z</time></trkpt>
<trkpt lat="43.0201970000" lon="0.2443420000"><ele>1103</ele><time>2026-03-20T13:38:47Z</time></trkpt>
<trkpt lat="43.0202070000" lon="0.2443050000"><ele>1103</ele><time>2026-03-20T13:38:48Z</time></trkpt>
<trkpt lat="43.0202200000" lon="0.2442700000"><ele>1102</ele><time>2026-03-20T13:38:49Z</time></trkpt>
<trkpt lat="43.0202270000" lon="0.2442420000"><ele>1102</ele><time>2026-03-20T13:38:50Z</time></trkpt>
<trkpt lat="43.0202450000" lon="0.2441970000"><ele>1101</ele><time>2026-03-20T13:38:52Z</time></trkpt>
<trkpt lat="43.0202570000" lon="0.2441670000"><ele>1101</ele><time>2026-03-20T13:38:54Z</time></trkpt>
<trkpt lat="43.0202730000" lon="0.2441520000"><ele>1100</ele><time>2026-03-20T13:38:57Z</time></trkpt>
<trkpt lat="43.0202800000" lon="0.2441170000"><ele>1099</ele><time>2026-03-20T13:39:00Z</time></trkpt>
<trkpt lat="43.0202870000" lon="0.2440870000"><ele>1098</ele><time>2026-03-20T13:39:04Z</time></trkpt>
<trkpt lat="43.0202920000" lon="0.2440620000"><ele>1098</ele><time>2026-03-20T13:39:06Z</time></trkpt>
<trkpt lat="43.0202920000" lon="0.2440350000"><ele>1097</ele><time>2026-03-20T13:39:08Z</time></trkpt>
<trkpt lat="43.0202800000" lon="0.2440100000"><ele>1097</ele><time>2026-03-20T13:39:10Z</time></trkpt>
<trkpt lat="43.0202800000" lon="0.2439770000"><ele>1096</ele><time>2026-03-20T13:39:13Z</time></trkpt>
<trkpt lat="43.0202730000" lon="0.2439370000"><ele>1095</ele><time>2026-03-20T13:39:16Z</time></trkpt>
<trkpt lat="43.0202650000" lon="0.2439170000"><ele>1095</ele><time>2026-03-20T13:39:19Z</time></trkpt>
<trkpt lat="43.0202570000" lon="0.2438870000"><ele>1094</ele><time>2026-03-20T13:39:22Z</time></trkpt>
<trkpt lat="43.0202720000" lon="0.2438650000"><ele>1094</ele><time>2026-03-20T13:39:24Z</time></trkpt>
<trkpt lat="43.0202870000" lon="0.2438370000"><ele>1093</ele><time>2026-03-20T13:39:26Z</time></trkpt>
<trkpt lat="43.0202970000" lon="0.2438070000"><ele>1093</ele><time>2026-03-20T13:39:28Z</time></trkpt>
<trkpt lat="43.0203000000" lon="0.2437720000"><ele>1092</ele><time>2026-03-20T13:39:31Z</time></trkpt>
<trkpt lat="43.0202870000" lon="0.2437420000"><ele>1092</ele><time>2026-03-20T13:39:33Z</time></trkpt>
<trkpt lat="43.0202920000" lon="0.2437150000"><ele>1091</ele><time>2026-03-20T13:39:35Z</time></trkpt>
<trkpt lat="43.0203200000" lon="0.2436920000"><ele>1091</ele><time>2026-03-20T13:39:37Z</time></trkpt>
<trkpt lat="43.0203270000" lon="0.2436570000"><ele>1090</ele><time>2026-03-20T13:39:39Z</time></trkpt>
<trkpt lat="43.0203270000" lon="0.2436170000"><ele>1090</ele><time>2026-03-20T13:39:41Z</time></trkpt>
<trkpt lat="43.0203270000" lon="0.2435900000"><ele>1089</ele><time>2026-03-20T13:39:44Z</time></trkpt>
<trkpt lat="43.0203470000" lon="0.2435720000"><ele>1088</ele><time>2026-03-20T13:39:48Z</time></trkpt>
<trkpt lat="43.0203400000" lon="0.2435480000"><ele>1087</ele><time>2026-03-20T13:39:50Z</time></trkpt>
<trkpt lat="43.0203520000" lon="0.2435250000"><ele>1087</ele><time>2026-03-20T13:39:52Z</time></trkpt>
<trkpt lat="43.0203470000" lon="0.2434920000"><ele>1086</ele><time>2026-03-20T13:39:54Z</time></trkpt>
<trkpt lat="43.0203450000" lon="0.2434670000"><ele>1086</ele><time>2026-03-20T13:39:56Z</time></trkpt>
<trkpt lat="43.0203470000" lon="0.2434320000"><ele>1085</ele><time>2026-03-20T13:39:59Z</time></trkpt>
<trkpt lat="43.0203580000" lon="0.2434170000"><ele>1084</ele><time>2026-03-20T13:40:01Z</time></trkpt>
<trkpt lat="43.0203920000" lon="0.2434020000"><ele>1084</ele><time>2026-03-20T13:40:03Z</time></trkpt>
<trkpt lat="43.0203870000" lon="0.2433770000"><ele>1083</ele><time>2026-03-20T13:40:05Z</time></trkpt>
<trkpt lat="43.0203820000" lon="0.2433320000"><ele>1083</ele><time>2026-03-20T13:40:08Z</time></trkpt>
<trkpt lat="43.0203820000" lon="0.2433020000"><ele>1082</ele><time>2026-03-20T13:40:10Z</time></trkpt>
<trkpt lat="43.0203820000" lon="0.2432770000"><ele>1082</ele><time>2026-03-20T13:40:12Z</time></trkpt>
<trkpt lat="43.0203900000" lon="0.2432470000"><ele>1081</ele><time>2026-03-20T13:40:17Z</time></trkpt>
<trkpt lat="43.0204050000" lon="0.2432270000"><ele>1080</ele><time>2026-03-20T13:40:19Z</time></trkpt>
<trkpt lat="43.0204050000" lon="0.2432020000"><ele>1080</ele><time>2026-03-20T13:40:21Z</time></trkpt>
<trkpt lat="43.0204150000" lon="0.2431670000"><ele>1079</ele><time>2026-03-20T13:40:24Z</time></trkpt>
<trkpt lat="43.0204280000" lon="0.2431400000"><ele>1079</ele><time>2026-03-20T13:40:26Z</time></trkpt>
<trkpt lat="43.0204270000" lon="0.2431050000"><ele>1078</ele><time>2026-03-20T13:40:29Z</time></trkpt>
<trkpt lat="43.0204220000" lon="0.2430700000"><ele>1078</ele><time>2026-03-20T13:40:31Z</time></trkpt>
<trkpt lat="43.0204320000" lon="0.2430470000"><ele>1077</ele><time>2026-03-20T13:40:33Z</time></trkpt>
<trkpt lat="43.0204370000" lon="0.2430120000"><ele>1077</ele><time>2026-03-20T13:40:36Z</time></trkpt>
<trkpt lat="43.0204420000" lon="0.2429770000"><ele>1076</ele><time>2026-03-20T13:40:39Z</time></trkpt>
<trkpt lat="43.0204500000" lon="0.2429470000"><ele>1076</ele><time>2026-03-20T13:40:42Z</time></trkpt>
<trkpt lat="43.0204370000" lon="0.2429170000"><ele>1075</ele><time>2026-03-20T13:40:44Z</time></trkpt>
<trkpt lat="43.0204320000" lon="0.2428850000"><ele>1075</ele><time>2026-03-20T13:40:47Z</time></trkpt>
<trkpt lat="43.0204450000" lon="0.2428520000"><ele>1074</ele><time>2026-03-20T13:40:50Z</time></trkpt>
<trkpt lat="43.0204600000" lon="0.2428320000"><ele>1074</ele><time>2026-03-20T13:40:52Z</time></trkpt>
<trkpt lat="43.0204320000" lon="0.2428200000"><ele>1072</ele><time>2026-03-20T13:41:02Z</time></trkpt>
<trkpt lat="43.0204320000" lon="0.2427800000"><ele>1070</ele><time>2026-03-20T13:41:12Z</time></trkpt>
<trkpt lat="43.0204400000" lon="0.2427500000"><ele>1070</ele><time>2026-03-20T13:41:13Z</time></trkpt>
<trkpt lat="43.0204500000" lon="0.2427130000"><ele>1070</ele><time>2026-03-20T13:41:14Z</time></trkpt>
<trkpt lat="43.0204620000" lon="0.2426850000"><ele>1070</ele><time>2026-03-20T13:41:15Z</time></trkpt>
<trkpt lat="43.0204720000" lon="0.2426620000"><ele>1069</ele><time>2026-03-20T13:41:16Z</time></trkpt>
<trkpt lat="43.0204870000" lon="0.2426450000"><ele>1069</ele><time>2026-03-20T13:41:17Z</time></trkpt>
<trkpt lat="43.0204970000" lon="0.2426120000"><ele>1068</ele><time>2026-03-20T13:41:19Z</time></trkpt>
<trkpt lat="43.0204950000" lon="0.2425720000"><ele>1068</ele><time>2026-03-20T13:41:21Z</time></trkpt>
<trkpt lat="43.0204970000" lon="0.2425420000"><ele>1067</ele><time>2026-03-20T13:41:23Z</time></trkpt>
<trkpt lat="43.0205020000" lon="0.2425170000"><ele>1067</ele><time>2026-03-20T13:41:25Z</time></trkpt>
<trkpt lat="43.0205120000" lon="0.2424870000"><ele>1066</ele><time>2026-03-20T13:41:27Z</time></trkpt>
<trkpt lat="43.0205170000" lon="0.2424570000"><ele>1066</ele><time>2026-03-20T13:41:29Z</time></trkpt>
<trkpt lat="43.0205170000" lon="0.2424320000"><ele>1065</ele><time>2026-03-20T13:41:31Z</time></trkpt>
<trkpt lat="43.0205120000" lon="0.2423870000"><ele>1064</ele><time>2026-03-20T13:41:34Z</time></trkpt>
<trkpt lat="43.0205170000" lon="0.2423520000"><ele>1064</ele><time>2026-03-20T13:41:36Z</time></trkpt>
<trkpt lat="43.0205220000" lon="0.2423270000"><ele>1063</ele><time>2026-03-20T13:41:38Z</time></trkpt>
<trkpt lat="43.0205370000" lon="0.2423020000"><ele>1063</ele><time>2026-03-20T13:41:40Z</time></trkpt>
<trkpt lat="43.0205350000" lon="0.2422750000"><ele>1062</ele><time>2026-03-20T13:41:43Z</time></trkpt>
<trkpt lat="43.0205370000" lon="0.2422480000"><ele>1061</ele><time>2026-03-20T13:41:46Z</time></trkpt>
<trkpt lat="43.0205400000" lon="0.2422220000"><ele>1060</ele><time>2026-03-20T13:41:49Z</time></trkpt>
<trkpt lat="43.0205320000" lon="0.2422000000"><ele>1060</ele><time>2026-03-20T13:41:51Z</time></trkpt>
<trkpt lat="43.0205420000" lon="0.2421700000"><ele>1059</ele><time>2026-03-20T13:41:54Z</time></trkpt>
<trkpt lat="43.0205550000" lon="0.2421350000"><ele>1058</ele><time>2026-03-20T13:41:57Z</time></trkpt>
<trkpt lat="43.0205670000" lon="0.2421130000"><ele>1057</ele><time>2026-03-20T13:41:59Z</time></trkpt>
<trkpt lat="43.0205720000" lon="0.2420870000"><ele>1056</ele><time>2026-03-20T13:42:01Z</time></trkpt>
<trkpt lat="43.0205520000" lon="0.2420600000"><ele>1056</ele><time>2026-03-20T13:42:03Z</time></trkpt>
<trkpt lat="43.0205470000" lon="0.2420300000"><ele>1055</ele><time>2026-03-20T13:42:07Z</time></trkpt>
<trkpt lat="43.0205450000" lon="0.2420050000"><ele>1054</ele><time>2026-03-20T13:42:10Z</time></trkpt>
<trkpt lat="43.0205420000" lon="0.2419720000"><ele>1054</ele><time>2026-03-20T13:42:13Z</time></trkpt>
<trkpt lat="43.0205570000" lon="0.2419470000"><ele>1053</ele><time>2026-03-20T13:42:16Z</time></trkpt>
<trkpt lat="43.0205670000" lon="0.2419220000"><ele>1053</ele><time>2026-03-20T13:42:18Z</time></trkpt>
<trkpt lat="43.0205970000" lon="0.2419150000"><ele>1053</ele><time>2026-03-20T13:42:20Z</time></trkpt>
<trkpt lat="43.0206270000" lon="0.2419270000"><ele>1052</ele><time>2026-03-20T13:42:24Z</time></trkpt>
<trkpt lat="43.0206320000" lon="0.2419570000"><ele>1051</ele><time>2026-03-20T13:42:26Z</time></trkpt>
<trkpt lat="43.0206400000" lon="0.2419820000"><ele>1051</ele><time>2026-03-20T13:42:29Z</time></trkpt>
<trkpt lat="43.0206670000" lon="0.2419870000"><ele>1050</ele><time>2026-03-20T13:42:32Z</time></trkpt>
<trkpt lat="43.0206920000" lon="0.2420020000"><ele>1050</ele><time>2026-03-20T13:42:34Z</time></trkpt>
<trkpt lat="43.0207100000" lon="0.2420170000"><ele>1049</ele><time>2026-03-20T13:42:36Z</time></trkpt>
<trkpt lat="43.0207300000" lon="0.2420300000"><ele>1048</ele><time>2026-03-20T13:42:39Z</time></trkpt>
<trkpt lat="43.0207520000" lon="0.2420420000"><ele>1048</ele><time>2026-03-20T13:42:41Z</time></trkpt>
<trkpt lat="43.0207670000" lon="0.2420720000"><ele>1047</ele><time>2026-03-20T13:42:43Z</time></trkpt>
<trkpt lat="43.0207820000" lon="0.2420970000"><ele>1047</ele><time>2026-03-20T13:42:45Z</time></trkpt>
<trkpt lat="43.0208020000" lon="0.2421120000"><ele>1046</ele><time>2026-03-20T13:42:48Z</time></trkpt>
<trkpt lat="43.0208220000" lon="0.2421370000"><ele>1045</ele><time>2026-03-20T13:42:52Z</time></trkpt>
<trkpt lat="43.0208420000" lon="0.2421550000"><ele>1045</ele><time>2026-03-20T13:42:54Z</time></trkpt>
<trkpt lat="43.0208620000" lon="0.2421670000"><ele>1044</ele><time>2026-03-20T13:42:56Z</time></trkpt>
<trkpt lat="43.0208870000" lon="0.2421770000"><ele>1044</ele><time>2026-03-20T13:42:58Z</time></trkpt>
<trkpt lat="43.0208900000" lon="0.2422020000"><ele>1043</ele><time>2026-03-20T13:43:02Z</time></trkpt>
<trkpt lat="43.0208650000" lon="0.2422270000"><ele>1042</ele><time>2026-03-20T13:43:37Z</time></trkpt>
<trkpt lat="43.0208370000" lon="0.2422350000"><ele>1042</ele><time>2026-03-20T13:43:39Z</time></trkpt>
<trkpt lat="43.0208200000" lon="0.2422320000"><ele>1042</ele><time>2026-03-20T13:43:42Z</time></trkpt>
<trkpt lat="43.0208400000" lon="0.2422120000"><ele>1042</ele><time>2026-03-20T13:45:13Z</time></trkpt>
<trkpt lat="43.0208570000" lon="0.2421970000"><ele>1042</ele><time>2026-03-20T13:45:16Z</time></trkpt>
<trkpt lat="43.0208370000" lon="0.2422320000"><ele>1042</ele><time>2026-03-20T13:46:26Z</time></trkpt>
<trkpt lat="43.0208070000" lon="0.2422570000"><ele>1042</ele><time>2026-03-20T13:46:28Z</time></trkpt>
<trkpt lat="43.0208270000" lon="0.2422650000"><ele>1042</ele><time>2026-03-20T13:46:33Z</time></trkpt>
<trkpt lat="43.0208450000" lon="0.2422670000"><ele>1042</ele><time>2026-03-20T13:46:35Z</time></trkpt>
<trkpt lat="43.0208650000" lon="0.2422480000"><ele>1043</ele><time>2026-03-20T13:48:51Z</time></trkpt>
<trkpt lat="43.0208820000" lon="0.2422370000"><ele>1043</ele><time>2026-03-20T13:48:53Z</time></trkpt>
<trkpt lat="43.0208570000" lon="0.2422520000"><ele>1044</ele><time>2026-03-20T13:48:58Z</time></trkpt>
<trkpt lat="43.0208750000" lon="0.2422370000"><ele>1043</ele><time>2026-03-20T13:50:21Z</time></trkpt>
<trkpt lat="43.0209020000" lon="0.2422220000"><ele>1043</ele><time>2026-03-20T13:50:23Z</time></trkpt>
<trkpt lat="43.0209370000" lon="0.2422150000"><ele>1043</ele><time>2026-03-20T13:50:25Z</time></trkpt>
<trkpt lat="43.0209620000" lon="0.2422270000"><ele>1043</ele><time>2026-03-20T13:50:27Z</time></trkpt>
<trkpt lat="43.0209800000" lon="0.2422320000"><ele>1042</ele><time>2026-03-20T13:50:29Z</time></trkpt>
<trkpt lat="43.0209950000" lon="0.2422470000"><ele>1042</ele><time>2026-03-20T13:50:31Z</time></trkpt>
<trkpt lat="43.0210120000" lon="0.2422650000"><ele>1041</ele><time>2026-03-20T13:50:33Z</time></trkpt>
<trkpt lat="43.0210270000" lon="0.2422850000"><ele>1040</ele><time>2026-03-20T13:50:36Z</time></trkpt>
<trkpt lat="43.0210270000" lon="0.2423170000"><ele>1039</ele><time>2026-03-20T13:50:39Z</time></trkpt>
<trkpt lat="43.0210420000" lon="0.2423370000"><ele>1038</ele><time>2026-03-20T13:50:41Z</time></trkpt>
<trkpt lat="43.0210550000" lon="0.2423620000"><ele>1038</ele><time>2026-03-20T13:50:43Z</time></trkpt>
<trkpt lat="43.0210650000" lon="0.2423820000"><ele>1037</ele><time>2026-03-20T13:50:45Z</time></trkpt>
<trkpt lat="43.0210800000" lon="0.2424020000"><ele>1037</ele><time>2026-03-20T13:50:47Z</time></trkpt>
<trkpt lat="43.0211050000" lon="0.2424170000"><ele>1036</ele><time>2026-03-20T13:50:49Z</time></trkpt>
<trkpt lat="43.0211270000" lon="0.2424370000"><ele>1036</ele><time>2026-03-20T13:50:51Z</time></trkpt>
<trkpt lat="43.0211470000" lon="0.2424600000"><ele>1035</ele><time>2026-03-20T13:50:54Z</time></trkpt>
<trkpt lat="43.0211670000" lon="0.2424720000"><ele>1034</ele><time>2026-03-20T13:50:56Z</time></trkpt>
<trkpt lat="43.0211820000" lon="0.2424920000"><ele>1034</ele><time>2026-03-20T13:50:58Z</time></trkpt>
<trkpt lat="43.0211950000" lon="0.2425170000"><ele>1033</ele><time>2026-03-20T13:51:00Z</time></trkpt>
<trkpt lat="43.0212070000" lon="0.2425370000"><ele>1033</ele><time>2026-03-20T13:51:02Z</time></trkpt>
<trkpt lat="43.0212200000" lon="0.2425600000"><ele>1032</ele><time>2026-03-20T13:51:05Z</time></trkpt>
<trkpt lat="43.0212270000" lon="0.2425870000"><ele>1031</ele><time>2026-03-20T13:51:10Z</time></trkpt>
<trkpt lat="43.0212470000" lon="0.2426020000"><ele>1030</ele><time>2026-03-20T13:51:14Z</time></trkpt>
<trkpt lat="43.0212700000" lon="0.2426200000"><ele>1029</ele><time>2026-03-20T13:51:16Z</time></trkpt>
<trkpt lat="43.0212900000" lon="0.2426350000"><ele>1029</ele><time>2026-03-20T13:51:19Z</time></trkpt>
<trkpt lat="43.0213100000" lon="0.2426470000"><ele>1028</ele><time>2026-03-20T13:51:22Z</time></trkpt>
<trkpt lat="43.0213300000" lon="0.2426630000"><ele>1027</ele><time>2026-03-20T13:51:26Z</time></trkpt>
<trkpt lat="43.0213470000" lon="0.2426630000"><ele>1027</ele><time>2026-03-20T13:51:28Z</time></trkpt>
<trkpt lat="43.0213720000" lon="0.2426550000"><ele>1026</ele><time>2026-03-20T13:51:33Z</time></trkpt>
<trkpt lat="43.0213900000" lon="0.2426670000"><ele>1026</ele><time>2026-03-20T13:51:37Z</time></trkpt>
<trkpt lat="43.0213920000" lon="0.2426970000"><ele>1026</ele><time>2026-03-20T13:51:41Z</time></trkpt>
<trkpt lat="43.0214100000" lon="0.2427100000"><ele>1025</ele><time>2026-03-20T13:51:45Z</time></trkpt>
<trkpt lat="43.0214100000" lon="0.2427350000"><ele>1023</ele><time>2026-03-20T13:51:51Z</time></trkpt>
<trkpt lat="43.0214320000" lon="0.2427400000"><ele>1022</ele><time>2026-03-20T13:51:57Z</time></trkpt>
<trkpt lat="43.0214550000" lon="0.2427420000"><ele>1022</ele><time>2026-03-20T13:52:01Z</time></trkpt>
<trkpt lat="43.0214770000" lon="0.2427420000"><ele>1021</ele><time>2026-03-20T13:52:04Z</time></trkpt>
<trkpt lat="43.0214970000" lon="0.2427320000"><ele>1020</ele><time>2026-03-20T13:52:06Z</time></trkpt>
<trkpt lat="43.0215220000" lon="0.2427420000"><ele>1019</ele><time>2026-03-20T13:52:10Z</time></trkpt>
<trkpt lat="43.0215450000" lon="0.2427470000"><ele>1018</ele><time>2026-03-20T13:52:14Z</time></trkpt>
<trkpt lat="43.0215670000" lon="0.2427570000"><ele>1017</ele><time>2026-03-20T13:52:17Z</time></trkpt>
<trkpt lat="43.0215900000" lon="0.2427620000"><ele>1017</ele><time>2026-03-20T13:52:20Z</time></trkpt>
<trkpt lat="43.0215970000" lon="0.2427370000"><ele>1016</ele><time>2026-03-20T13:52:24Z</time></trkpt>
<trkpt lat="43.0216150000" lon="0.2427250000"><ele>1016</ele><time>2026-03-20T13:52:27Z</time></trkpt>
<trkpt lat="43.0216320000" lon="0.2427350000"><ele>1015</ele><time>2026-03-20T13:52:31Z</time></trkpt>
<trkpt lat="43.0216520000" lon="0.2427400000"><ele>1010</ele><time>2026-03-20T13:52:53Z</time></trkpt>
<trkpt lat="43.0216870000" lon="0.2427350000"><ele>1010</ele><time>2026-03-20T13:52:55Z</time></trkpt>
<trkpt lat="43.0217070000" lon="0.2427300000"><ele>1010</ele><time>2026-03-20T13:52:56Z</time></trkpt>
<trkpt lat="43.0217270000" lon="0.2427250000"><ele>1010</ele><time>2026-03-20T13:52:57Z</time></trkpt>
<trkpt lat="43.0217450000" lon="0.2427070000"><ele>1010</ele><time>2026-03-20T13:52:59Z</time></trkpt>
<trkpt lat="43.0217670000" lon="0.2427170000"><ele>1009</ele><time>2026-03-20T13:53:02Z</time></trkpt>
<trkpt lat="43.0217870000" lon="0.2427350000"><ele>1008</ele><time>2026-03-20T13:53:04Z</time></trkpt>
<trkpt lat="43.0218000000" lon="0.2427720000"><ele>1008</ele><time>2026-03-20T13:53:06Z</time></trkpt>
<trkpt lat="43.0218120000" lon="0.2427980000"><ele>1007</ele><time>2026-03-20T13:53:09Z</time></trkpt>
<trkpt lat="43.0218250000" lon="0.2428250000"><ele>1007</ele><time>2026-03-20T13:53:12Z</time></trkpt>
<trkpt lat="43.0218350000" lon="0.2428570000"><ele>1006</ele><time>2026-03-20T13:53:15Z</time></trkpt>
<trkpt lat="43.0218370000" lon="0.2428870000"><ele>1005</ele><time>2026-03-20T13:53:19Z</time></trkpt>
<trkpt lat="43.0218470000" lon="0.2429150000"><ele>1004</ele><time>2026-03-20T13:53:21Z</time></trkpt>
<trkpt lat="43.0218550000" lon="0.2429470000"><ele>1003</ele><time>2026-03-20T13:53:24Z</time></trkpt>
<trkpt lat="43.0218620000" lon="0.2429720000"><ele>1003</ele><time>2026-03-20T13:53:27Z</time></trkpt>
<trkpt lat="43.0218520000" lon="0.2430050000"><ele>1002</ele><time>2026-03-20T13:53:30Z</time></trkpt>
<trkpt lat="43.0218570000" lon="0.2430320000"><ele>1002</ele><time>2026-03-20T13:53:33Z</time></trkpt>
<trkpt lat="43.0218630000" lon="0.2430570000"><ele>1001</ele><time>2026-03-20T13:53:37Z</time></trkpt>
<trkpt lat="43.0218630000" lon="0.2430830000"><ele>1000</ele><time>2026-03-20T13:53:40Z</time></trkpt>
<trkpt lat="43.0218720000" lon="0.2431070000"><ele>999</ele><time>2026-03-20T13:53:44Z</time></trkpt>
<trkpt lat="43.0218600000" lon="0.2431330000"><ele>998</ele><time>2026-03-20T13:53:48Z</time></trkpt>
<trkpt lat="43.0218770000" lon="0.2431370000"><ele>997</ele><time>2026-03-20T13:53:51Z</time></trkpt>
<trkpt lat="43.0218970000" lon="0.2431320000"><ele>997</ele><time>2026-03-20T13:53:53Z</time></trkpt>
<trkpt lat="43.0219170000" lon="0.2431270000"><ele>996</ele><time>2026-03-20T13:53:55Z</time></trkpt>
<trkpt lat="43.0219400000" lon="0.2431170000"><ele>995</ele><time>2026-03-20T13:53:58Z</time></trkpt>
<trkpt lat="43.0219620000" lon="0.2431330000"><ele>994</ele><time>2026-03-20T13:54:01Z</time></trkpt>
<trkpt lat="43.0219700000" lon="0.2431650000"><ele>994</ele><time>2026-03-20T13:54:04Z</time></trkpt>
<trkpt lat="43.0219700000" lon="0.2432000000"><ele>993</ele><time>2026-03-20T13:54:07Z</time></trkpt>
<trkpt lat="43.0219720000" lon="0.2432230000"><ele>992</ele><time>2026-03-20T13:54:10Z</time></trkpt>
<trkpt lat="43.0219770000" lon="0.2432520000"><ele>991</ele><time>2026-03-20T13:54:14Z</time></trkpt>
<trkpt lat="43.0219920000" lon="0.2432720000"><ele>990</ele><time>2026-03-20T13:54:17Z</time></trkpt>
<trkpt lat="43.0220070000" lon="0.2432900000"><ele>988</ele><time>2026-03-20T13:54:23Z</time></trkpt>
<trkpt lat="43.0220270000" lon="0.2433120000"><ele>986</ele><time>2026-03-20T13:54:34Z</time></trkpt>
<trkpt lat="43.0220470000" lon="0.2433020000"><ele>985</ele><time>2026-03-20T13:54:37Z</time></trkpt>
<trkpt lat="43.0220720000" lon="0.2433020000"><ele>985</ele><time>2026-03-20T13:54:40Z</time></trkpt>
<trkpt lat="43.0220920000" lon="0.2432970000"><ele>984</ele><time>2026-03-20T13:54:42Z</time></trkpt>
<trkpt lat="43.0221150000" lon="0.2433000000"><ele>984</ele><time>2026-03-20T13:54:44Z</time></trkpt>
<trkpt lat="43.0221350000" lon="0.2432970000"><ele>983</ele><time>2026-03-20T13:54:46Z</time></trkpt>
<trkpt lat="43.0221570000" lon="0.2433070000"><ele>983</ele><time>2026-03-20T13:54:48Z</time></trkpt>
<trkpt lat="43.0221800000" lon="0.2433120000"><ele>982</ele><time>2026-03-20T13:54:50Z</time></trkpt>
<trkpt lat="43.0221970000" lon="0.2433250000"><ele>982</ele><time>2026-03-20T13:54:52Z</time></trkpt>
<trkpt lat="43.0222020000" lon="0.2433520000"><ele>981</ele><time>2026-03-20T13:54:55Z</time></trkpt>
<trkpt lat="43.0222050000" lon="0.2433800000"><ele>980</ele><time>2026-03-20T13:54:59Z</time></trkpt>
<trkpt lat="43.0222220000" lon="0.2434050000"><ele>979</ele><time>2026-03-20T13:55:04Z</time></trkpt>
<trkpt lat="43.0222520000" lon="0.2434170000"><ele>978</ele><time>2026-03-20T13:55:07Z</time></trkpt>
<trkpt lat="43.0222470000" lon="0.2433920000"><ele>977</ele><time>2026-03-20T13:55:15Z</time></trkpt>
<trkpt lat="43.0222550000" lon="0.2433570000"><ele>977</ele><time>2026-03-20T13:55:18Z</time></trkpt>
<trkpt lat="43.0222720000" lon="0.2433320000"><ele>977</ele><time>2026-03-20T13:55:24Z</time></trkpt>
<trkpt lat="43.0222970000" lon="0.2433420000"><ele>976</ele><time>2026-03-20T13:55:26Z</time></trkpt>
<trkpt lat="43.0223150000" lon="0.2433570000"><ele>976</ele><time>2026-03-20T13:55:27Z</time></trkpt>
<trkpt lat="43.0223370000" lon="0.2433820000"><ele>975</ele><time>2026-03-20T13:55:29Z</time></trkpt>
<trkpt lat="43.0223420000" lon="0.2434170000"><ele>974</ele><time>2026-03-20T13:55:32Z</time></trkpt>
<trkpt lat="43.0223420000" lon="0.2434470000"><ele>974</ele><time>2026-03-20T13:55:34Z</time></trkpt>
<trkpt lat="43.0223350000" lon="0.2434820000"><ele>974</ele><time>2026-03-20T13:55:36Z</time></trkpt>
<trkpt lat="43.0223250000" lon="0.2435150000"><ele>974</ele><time>2026-03-20T13:55:38Z</time></trkpt>
<trkpt lat="43.0223220000" lon="0.2435450000"><ele>974</ele><time>2026-03-20T13:55:40Z</time></trkpt>
<trkpt lat="43.0223220000" lon="0.2435700000"><ele>973</ele><time>2026-03-20T13:55:42Z</time></trkpt>
<trkpt lat="43.0223220000" lon="0.2436020000"><ele>973</ele><time>2026-03-20T13:55:45Z</time></trkpt>
<trkpt lat="43.0223270000" lon="0.2436370000"><ele>973</ele><time>2026-03-20T13:55:48Z</time></trkpt>
<trkpt lat="43.0223350000" lon="0.2436620000"><ele>973</ele><time>2026-03-20T13:55:50Z</time></trkpt>
<trkpt lat="43.0223420000" lon="0.2436950000"><ele>972</ele><time>2026-03-20T13:55:53Z</time></trkpt>
<trkpt lat="43.0223420000" lon="0.2437200000"><ele>972</ele><time>2026-03-20T13:55:55Z</time></trkpt>
<trkpt lat="43.0223450000" lon="0.2437470000"><ele>972</ele><time>2026-03-20T13:55:57Z</time></trkpt>
<trkpt lat="43.0223350000" lon="0.2437730000"><ele>971</ele><time>2026-03-20T13:55:59Z</time></trkpt>
<trkpt lat="43.0223470000" lon="0.2438020000"><ele>971</ele><time>2026-03-20T13:56:12Z</time></trkpt>
<trkpt lat="43.0223620000" lon="0.2438370000"><ele>971</ele><time>2026-03-20T13:56:14Z</time></trkpt>
<trkpt lat="43.0223670000" lon="0.2438720000"><ele>970</ele><time>2026-03-20T13:56:16Z</time></trkpt>
<trkpt lat="43.0223670000" lon="0.2439050000"><ele>970</ele><time>2026-03-20T13:56:18Z</time></trkpt>
<trkpt lat="43.0223750000" lon="0.2439350000"><ele>970</ele><time>2026-03-20T13:56:20Z</time></trkpt>
<trkpt lat="43.0223970000" lon="0.2439620000"><ele>970</ele><time>2026-03-20T13:56:22Z</time></trkpt>
<trkpt lat="43.0224170000" lon="0.2439950000"><ele>970</ele><time>2026-03-20T13:56:24Z</time></trkpt>
<trkpt lat="43.0224270000" lon="0.2440170000"><ele>969</ele><time>2026-03-20T13:56:26Z</time></trkpt>
<trkpt lat="43.0224370000" lon="0.2440400000"><ele>969</ele><time>2026-03-20T13:56:28Z</time></trkpt>
<trkpt lat="43.0224570000" lon="0.2440480000"><ele>969</ele><time>2026-03-20T13:56:29Z</time></trkpt>
<trkpt lat="43.0224870000" lon="0.2440570000"><ele>969</ele><time>2026-03-20T13:56:31Z</time></trkpt>
<trkpt lat="43.0224870000" lon="0.2440300000"><ele>968</ele><time>2026-03-20T13:56:37Z</time></trkpt>
<trkpt lat="43.0225020000" lon="0.2440070000"><ele>967</ele><time>2026-03-20T13:56:40Z</time></trkpt>
<trkpt lat="43.0225270000" lon="0.2439920000"><ele>967</ele><time>2026-03-20T13:56:42Z</time></trkpt>
<trkpt lat="43.0225470000" lon="0.2439850000"><ele>966</ele><time>2026-03-20T13:56:45Z</time></trkpt>
<trkpt lat="43.0225670000" lon="0.2439850000"><ele>965</ele><time>2026-03-20T13:56:48Z</time></trkpt>
<trkpt lat="43.0225920000" lon="0.2439870000"><ele>965</ele><time>2026-03-20T13:56:50Z</time></trkpt>
<trkpt lat="43.0226100000" lon="0.2439970000"><ele>965</ele><time>2026-03-20T13:56:51Z</time></trkpt>
<trkpt lat="43.0226370000" lon="0.2440120000"><ele>964</ele><time>2026-03-20T13:56:53Z</time></trkpt>
<trkpt lat="43.0226620000" lon="0.2440070000"><ele>964</ele><time>2026-03-20T13:56:55Z</time></trkpt>
<trkpt lat="43.0226820000" lon="0.2439950000"><ele>963</ele><time>2026-03-20T13:56:57Z</time></trkpt>
<trkpt lat="43.0226950000" lon="0.2439750000"><ele>963</ele><time>2026-03-20T13:56:59Z</time></trkpt>
<trkpt lat="43.0227020000" lon="0.2439470000"><ele>963</ele><time>2026-03-20T13:57:01Z</time></trkpt>
<trkpt lat="43.0227170000" lon="0.2439220000"><ele>962</ele><time>2026-03-20T13:57:03Z</time></trkpt>
<trkpt lat="43.0227320000" lon="0.2439020000"><ele>962</ele><time>2026-03-20T13:57:05Z</time></trkpt>
<trkpt lat="43.0227470000" lon="0.2438800000"><ele>962</ele><time>2026-03-20T13:57:07Z</time></trkpt>
<trkpt lat="43.0227670000" lon="0.2438720000"><ele>961</ele><time>2026-03-20T13:57:09Z</time></trkpt>
<trkpt lat="43.0227900000" lon="0.2438720000"><ele>961</ele><time>2026-03-20T13:57:11Z</time></trkpt>
<trkpt lat="43.0228120000" lon="0.2438800000"><ele>961</ele><time>2026-03-20T13:57:13Z</time></trkpt>
<trkpt lat="43.0228370000" lon="0.2439020000"><ele>960</ele><time>2026-03-20T13:57:15Z</time></trkpt>
<trkpt lat="43.0228650000" lon="0.2438970000"><ele>960</ele><time>2026-03-20T13:57:17Z</time></trkpt>
<trkpt lat="43.0228850000" lon="0.2438970000"><ele>959</ele><time>2026-03-20T13:57:20Z</time></trkpt>
<trkpt lat="43.0229100000" lon="0.2438900000"><ele>959</ele><time>2026-03-20T13:57:23Z</time></trkpt>
<trkpt lat="43.0229200000" lon="0.2438650000"><ele>958</ele><time>2026-03-20T13:57:25Z</time></trkpt>
<trkpt lat="43.0229220000" lon="0.2438320000"><ele>958</ele><time>2026-03-20T13:57:27Z</time></trkpt>
<trkpt lat="43.0229220000" lon="0.2438070000"><ele>958</ele><time>2026-03-20T13:57:29Z</time></trkpt>
<trkpt lat="43.0229220000" lon="0.2437820000"><ele>958</ele><time>2026-03-20T13:57:32Z</time></trkpt>
<trkpt lat="43.0229050000" lon="0.2437470000"><ele>957</ele><time>2026-03-20T13:57:35Z</time></trkpt>
<trkpt lat="43.0229070000" lon="0.2437220000"><ele>956</ele><time>2026-03-20T13:57:38Z</time></trkpt>
<trkpt lat="43.0229270000" lon="0.2437070000"><ele>956</ele><time>2026-03-20T13:57:40Z</time></trkpt>
<trkpt lat="43.0229420000" lon="0.2436880000"><ele>956</ele><time>2026-03-20T13:57:43Z</time></trkpt>
<trkpt lat="43.0229570000" lon="0.2436800000"><ele>955</ele><time>2026-03-20T13:57:49Z</time></trkpt>
<trkpt lat="43.0229650000" lon="0.2436550000"><ele>955</ele><time>2026-03-20T13:57:52Z</time></trkpt>
<trkpt lat="43.0229820000" lon="0.2436270000"><ele>954</ele><time>2026-03-20T13:57:54Z</time></trkpt>
<trkpt lat="43.0230030000" lon="0.2436170000"><ele>954</ele><time>2026-03-20T13:57:56Z</time></trkpt>
<trkpt lat="43.0230270000" lon="0.2436020000"><ele>953</ele><time>2026-03-20T13:57:59Z</time></trkpt>
<trkpt lat="43.0230470000" lon="0.2435900000"><ele>953</ele><time>2026-03-20T13:58:01Z</time></trkpt>
<trkpt lat="43.0230670000" lon="0.2435800000"><ele>952</ele><time>2026-03-20T13:58:03Z</time></trkpt>
<trkpt lat="43.0230870000" lon="0.2435800000"><ele>952</ele><time>2026-03-20T13:58:05Z</time></trkpt>
<trkpt lat="43.0231070000" lon="0.2435770000"><ele>951</ele><time>2026-03-20T13:58:07Z</time></trkpt>
<trkpt lat="43.0231270000" lon="0.2435720000"><ele>951</ele><time>2026-03-20T13:58:09Z</time></trkpt>
<trkpt lat="43.0231520000" lon="0.2435770000"><ele>950</ele><time>2026-03-20T13:58:11Z</time></trkpt>
<trkpt lat="43.0231720000" lon="0.2435720000"><ele>950</ele><time>2026-03-20T13:58:13Z</time></trkpt>
<trkpt lat="43.0231920000" lon="0.2435620000"><ele>949</ele><time>2026-03-20T13:58:15Z</time></trkpt>
<trkpt lat="43.0232170000" lon="0.2435480000"><ele>949</ele><time>2026-03-20T13:58:18Z</time></trkpt>
<trkpt lat="43.0232370000" lon="0.2435350000"><ele>948</ele><time>2026-03-20T13:58:21Z</time></trkpt>
<trkpt lat="43.0232570000" lon="0.2435170000"><ele>948</ele><time>2026-03-20T13:58:23Z</time></trkpt>
<trkpt lat="43.0232770000" lon="0.2435200000"><ele>947</ele><time>2026-03-20T13:58:25Z</time></trkpt>
<trkpt lat="43.0232950000" lon="0.2435320000"><ele>947</ele><time>2026-03-20T13:58:27Z</time></trkpt>
<trkpt lat="43.0233120000" lon="0.2435520000"><ele>947</ele><time>2026-03-20T13:58:29Z</time></trkpt>
<trkpt lat="43.0233320000" lon="0.2435700000"><ele>946</ele><time>2026-03-20T13:58:31Z</time></trkpt>
<trkpt lat="43.0233550000" lon="0.2435920000"><ele>946</ele><time>2026-03-20T13:58:33Z</time></trkpt>
<trkpt lat="43.0233720000" lon="0.2436120000"><ele>946</ele><time>2026-03-20T13:58:35Z</time></trkpt>
<trkpt lat="43.0233920000" lon="0.2436270000"><ele>945</ele><time>2026-03-20T13:58:37Z</time></trkpt>
<trkpt lat="43.0234100000" lon="0.2436420000"><ele>945</ele><time>2026-03-20T13:58:39Z</time></trkpt>
<trkpt lat="43.0234320000" lon="0.2436570000"><ele>944</ele><time>2026-03-20T13:58:41Z</time></trkpt>
<trkpt lat="43.0234520000" lon="0.2436770000"><ele>944</ele><time>2026-03-20T13:58:43Z</time></trkpt>
<trkpt lat="43.0234650000" lon="0.2436970000"><ele>944</ele><time>2026-03-20T13:58:45Z</time></trkpt>
<trkpt lat="43.0234800000" lon="0.2437220000"><ele>943</ele><time>2026-03-20T13:58:47Z</time></trkpt>
<trkpt lat="43.0234950000" lon="0.2437400000"><ele>943</ele><time>2026-03-20T13:58:49Z</time></trkpt>
<trkpt lat="43.0235070000" lon="0.2437600000"><ele>943</ele><time>2026-03-20T13:58:51Z</time></trkpt>
<trkpt lat="43.0235250000" lon="0.2437770000"><ele>942</ele><time>2026-03-20T13:58:53Z</time></trkpt>
<trkpt lat="43.0235450000" lon="0.2438000000"><ele>942</ele><time>2026-03-20T13:58:55Z</time></trkpt>
<trkpt lat="43.0235570000" lon="0.2438170000"><ele>941</ele><time>2026-03-20T13:58:57Z</time></trkpt>
<trkpt lat="43.0235770000" lon="0.2438450000"><ele>941</ele><time>2026-03-20T13:59:00Z</time></trkpt>
<trkpt lat="43.0235920000" lon="0.2438670000"><ele>940</ele><time>2026-03-20T13:59:02Z</time></trkpt>
<trkpt lat="43.0236050000" lon="0.2438900000"><ele>940</ele><time>2026-03-20T13:59:04Z</time></trkpt>
<trkpt lat="43.0236200000" lon="0.2439120000"><ele>940</ele><time>2026-03-20T13:59:06Z</time></trkpt>
<trkpt lat="43.0236370000" lon="0.2439350000"><ele>939</ele><time>2026-03-20T13:59:08Z</time></trkpt>
<trkpt lat="43.0236520000" lon="0.2439570000"><ele>939</ele><time>2026-03-20T13:59:10Z</time></trkpt>
<trkpt lat="43.0236720000" lon="0.2439720000"><ele>939</ele><time>2026-03-20T13:59:12Z</time></trkpt>
<trkpt lat="43.0236970000" lon="0.2439920000"><ele>938</ele><time>2026-03-20T13:59:14Z</time></trkpt>
<trkpt lat="43.0237170000" lon="0.2440070000"><ele>938</ele><time>2026-03-20T13:59:16Z</time></trkpt>
<trkpt lat="43.0237370000" lon="0.2440250000"><ele>938</ele><time>2026-03-20T13:59:18Z</time></trkpt>
<trkpt lat="43.0237600000" lon="0.2440420000"><ele>938</ele><time>2026-03-20T13:59:20Z</time></trkpt>
<trkpt lat="43.0237770000" lon="0.2440580000"><ele>937</ele><time>2026-03-20T13:59:22Z</time></trkpt>
<trkpt lat="43.0237970000" lon="0.2440770000"><ele>937</ele><time>2026-03-20T13:59:24Z</time></trkpt>
<trkpt lat="43.0238200000" lon="0.2440950000"><ele>937</ele><time>2026-03-20T13:59:26Z</time></trkpt>
<trkpt lat="43.0238330000" lon="0.2441120000"><ele>936</ele><time>2026-03-20T13:59:28Z</time></trkpt>
<trkpt lat="43.0238470000" lon="0.2441320000"><ele>936</ele><time>2026-03-20T13:59:30Z</time></trkpt>
<trkpt lat="43.0238650000" lon="0.2441520000"><ele>935</ele><time>2026-03-20T13:59:32Z</time></trkpt>
<trkpt lat="43.0238870000" lon="0.2441720000"><ele>935</ele><time>2026-03-20T13:59:34Z</time></trkpt>
<trkpt lat="43.0239070000" lon="0.2441850000"><ele>935</ele><time>2026-03-20T13:59:36Z</time></trkpt>
<trkpt lat="43.0239250000" lon="0.2441970000"><ele>934</ele><time>2026-03-20T13:59:38Z</time></trkpt>
<trkpt lat="43.0239470000" lon="0.2442120000"><ele>934</ele><time>2026-03-20T13:59:41Z</time></trkpt>
<trkpt lat="43.0239670000" lon="0.2442220000"><ele>933</ele><time>2026-03-20T13:59:45Z</time></trkpt>
<trkpt lat="43.0239750000" lon="0.2442430000"><ele>932</ele><time>2026-03-20T13:59:48Z</time></trkpt>
<trkpt lat="43.0239800000" lon="0.2442700000"><ele>932</ele><time>2026-03-20T13:59:50Z</time></trkpt>
<trkpt lat="43.0239750000" lon="0.2443020000"><ele>931</ele><time>2026-03-20T13:59:52Z</time></trkpt>
<trkpt lat="43.0239700000" lon="0.2443370000"><ele>931</ele><time>2026-03-20T13:59:55Z</time></trkpt>
<trkpt lat="43.0239750000" lon="0.2443670000"><ele>931</ele><time>2026-03-20T13:59:57Z</time></trkpt>
<trkpt lat="43.0239800000" lon="0.2444000000"><ele>931</ele><time>2026-03-20T13:59:59Z</time></trkpt>
<trkpt lat="43.0239880000" lon="0.2444300000"><ele>930</ele><time>2026-03-20T14:00:01Z</time></trkpt>
<trkpt lat="43.0240020000" lon="0.2444570000"><ele>930</ele><time>2026-03-20T14:00:03Z</time></trkpt>
<trkpt lat="43.0240220000" lon="0.2444900000"><ele>930</ele><time>2026-03-20T14:00:05Z</time></trkpt>
<trkpt lat="43.0240370000" lon="0.2445070000"><ele>930</ele><time>2026-03-20T14:00:06Z</time></trkpt>
<trkpt lat="43.0240570000" lon="0.2445400000"><ele>929</ele><time>2026-03-20T14:00:08Z</time></trkpt>
<trkpt lat="43.0240720000" lon="0.2445670000"><ele>929</ele><time>2026-03-20T14:00:10Z</time></trkpt>
<trkpt lat="43.0240870000" lon="0.2445970000"><ele>928</ele><time>2026-03-20T14:00:12Z</time></trkpt>
<trkpt lat="43.0241020000" lon="0.2446250000"><ele>928</ele><time>2026-03-20T14:00:14Z</time></trkpt>
<trkpt lat="43.0241120000" lon="0.2446520000"><ele>928</ele><time>2026-03-20T14:00:16Z</time></trkpt>
<trkpt lat="43.0241270000" lon="0.2446820000"><ele>927</ele><time>2026-03-20T14:00:18Z</time></trkpt>
<trkpt lat="43.0241370000" lon="0.2447070000"><ele>927</ele><time>2026-03-20T14:00:20Z</time></trkpt>
<trkpt lat="43.0241520000" lon="0.2447320000"><ele>927</ele><time>2026-03-20T14:00:22Z</time></trkpt>
<trkpt lat="43.0241620000" lon="0.2447600000"><ele>927</ele><time>2026-03-20T14:00:24Z</time></trkpt>
<trkpt lat="43.0241750000" lon="0.2447850000"><ele>926</ele><time>2026-03-20T14:00:26Z</time></trkpt>
<trkpt lat="43.0241850000" lon="0.2448070000"><ele>926</ele><time>2026-03-20T14:00:28Z</time></trkpt>
<trkpt lat="43.0241950000" lon="0.2448320000"><ele>926</ele><time>2026-03-20T14:00:30Z</time></trkpt>
<trkpt lat="43.0242070000" lon="0.2448550000"><ele>926</ele><time>2026-03-20T14:00:32Z</time></trkpt>
<trkpt lat="43.0242200000" lon="0.2448870000"><ele>926</ele><time>2026-03-20T14:00:34Z</time></trkpt>
<trkpt lat="43.0242300000" lon="0.2449200000"><ele>926</ele><time>2026-03-20T14:00:36Z</time></trkpt>
<trkpt lat="43.0242470000" lon="0.2449470000"><ele>925</ele><time>2026-03-20T14:00:38Z</time></trkpt>
<trkpt lat="43.0242570000" lon="0.2449670000"><ele>925</ele><time>2026-03-20T14:00:40Z</time></trkpt>
<trkpt lat="43.0242770000" lon="0.2449850000"><ele>925</ele><time>2026-03-20T14:00:42Z</time></trkpt>
<trkpt lat="43.0242980000" lon="0.2450050000"><ele>925</ele><time>2026-03-20T14:00:44Z</time></trkpt>
<trkpt lat="43.0243220000" lon="0.2450220000"><ele>925</ele><time>2026-03-20T14:00:46Z</time></trkpt>
<trkpt lat="43.0243370000" lon="0.2450450000"><ele>925</ele><time>2026-03-20T14:00:48Z</time></trkpt>
<trkpt lat="43.0243570000" lon="0.2450620000"><ele>925</ele><time>2026-03-20T14:00:50Z</time></trkpt>
<trkpt lat="43.0243770000" lon="0.2450850000"><ele>925</ele><time>2026-03-20T14:00:52Z</time></trkpt>
<trkpt lat="43.0244020000" lon="0.2451020000"><ele>925</ele><time>2026-03-20T14:00:54Z</time></trkpt>
<trkpt lat="43.0244220000" lon="0.2451200000"><ele>924</ele><time>2026-03-20T14:00:56Z</time></trkpt>
<trkpt lat="43.0244420000" lon="0.2451300000"><ele>925</ele><time>2026-03-20T14:00:58Z</time></trkpt>
<trkpt lat="43.0244620000" lon="0.2451400000"><ele>925</ele><time>2026-03-20T14:01:00Z</time></trkpt>
<trkpt lat="43.0244820000" lon="0.2451400000"><ele>924</ele><time>2026-03-20T14:01:02Z</time></trkpt>
<trkpt lat="43.0245050000" lon="0.2451470000"><ele>924</ele><time>2026-03-20T14:01:04Z</time></trkpt>
<trkpt lat="43.0245220000" lon="0.2451550000"><ele>924</ele><time>2026-03-20T14:01:07Z</time></trkpt>
<trkpt lat="43.0245420000" lon="0.2451570000"><ele>924</ele><time>2026-03-20T14:01:10Z</time></trkpt>
<trkpt lat="43.0245620000" lon="0.2451520000"><ele>925</ele><time>2026-03-20T14:01:29Z</time></trkpt>
<trkpt lat="43.0245470000" lon="0.2451670000"><ele>924</ele><time>2026-03-20T14:04:37Z</time></trkpt>
<trkpt lat="43.0245230000" lon="0.2451870000"><ele>924</ele><time>2026-03-20T14:04:39Z</time></trkpt>
<trkpt lat="43.0245420000" lon="0.2451620000"><ele>923</ele><time>2026-03-20T14:07:19Z</time></trkpt>
<trkpt lat="43.0245420000" lon="0.2451350000"><ele>922</ele><time>2026-03-20T14:07:35Z</time></trkpt>
<trkpt lat="43.0245230000" lon="0.2451120000"><ele>922</ele><time>2026-03-20T14:07:37Z</time></trkpt>
<trkpt lat="43.0244950000" lon="0.2450920000"><ele>922</ele><time>2026-03-20T14:07:39Z</time></trkpt>
<trkpt lat="43.0244750000" lon="0.2450870000"><ele>922</ele><time>2026-03-20T14:07:40Z</time></trkpt>
<trkpt lat="43.0244520000" lon="0.2450780000"><ele>922</ele><time>2026-03-20T14:07:42Z</time></trkpt>
<trkpt lat="43.0244370000" lon="0.2450500000"><ele>922</ele><time>2026-03-20T14:07:45Z</time></trkpt>
<trkpt lat="43.0244350000" lon="0.2450170000"><ele>922</ele><time>2026-03-20T14:07:47Z</time></trkpt>
<trkpt lat="43.0244470000" lon="0.2449870000"><ele>921</ele><time>2026-03-20T14:07:49Z</time></trkpt>
<trkpt lat="43.0244650000" lon="0.2449620000"><ele>921</ele><time>2026-03-20T14:07:51Z</time></trkpt>
<trkpt lat="43.0244770000" lon="0.2449350000"><ele>921</ele><time>2026-03-20T14:07:53Z</time></trkpt>
<trkpt lat="43.0244850000" lon="0.2449100000"><ele>921</ele><time>2026-03-20T14:07:55Z</time></trkpt>
<trkpt lat="43.0244920000" lon="0.2448870000"><ele>921</ele><time>2026-03-20T14:07:57Z</time></trkpt>
<trkpt lat="43.0245070000" lon="0.2448550000"><ele>920</ele><time>2026-03-20T14:07:59Z</time></trkpt>
<trkpt lat="43.0245170000" lon="0.2448270000"><ele>920</ele><time>2026-03-20T14:08:01Z</time></trkpt>
<trkpt lat="43.0245270000" lon="0.2447970000"><ele>920</ele><time>2026-03-20T14:08:03Z</time></trkpt>
<trkpt lat="43.0245400000" lon="0.2447670000"><ele>920</ele><time>2026-03-20T14:08:05Z</time></trkpt>
<trkpt lat="43.0245520000" lon="0.2447420000"><ele>919</ele><time>2026-03-20T14:08:07Z</time></trkpt>
<trkpt lat="43.0245670000" lon="0.2447170000"><ele>919</ele><time>2026-03-20T14:08:09Z</time></trkpt>
<trkpt lat="43.0245770000" lon="0.2446920000"><ele>919</ele><time>2026-03-20T14:08:11Z</time></trkpt>
<trkpt lat="43.0245930000" lon="0.2446670000"><ele>919</ele><time>2026-03-20T14:08:13Z</time></trkpt>
<trkpt lat="43.0246100000" lon="0.2446470000"><ele>918</ele><time>2026-03-20T14:08:15Z</time></trkpt>
<trkpt lat="43.0246270000" lon="0.2446270000"><ele>918</ele><time>2026-03-20T14:08:17Z</time></trkpt>
<trkpt lat="43.0246450000" lon="0.2446030000"><ele>918</ele><time>2026-03-20T14:08:19Z</time></trkpt>
<trkpt lat="43.0246620000" lon="0.2445870000"><ele>918</ele><time>2026-03-20T14:08:21Z</time></trkpt>
<trkpt lat="43.0246870000" lon="0.2445700000"><ele>917</ele><time>2026-03-20T14:08:23Z</time></trkpt>
<trkpt lat="43.0247120000" lon="0.2445520000"><ele>917</ele><time>2026-03-20T14:08:25Z</time></trkpt>
<trkpt lat="43.0247370000" lon="0.2445370000"><ele>917</ele><time>2026-03-20T14:08:27Z</time></trkpt>
<trkpt lat="43.0247550000" lon="0.2445170000"><ele>916</ele><time>2026-03-20T14:08:29Z</time></trkpt>
<trkpt lat="43.0247800000" lon="0.2444920000"><ele>916</ele><time>2026-03-20T14:08:32Z</time></trkpt>
<trkpt lat="43.0247970000" lon="0.2444730000"><ele>916</ele><time>2026-03-20T14:08:34Z</time></trkpt>
<trkpt lat="43.0248170000" lon="0.2444470000"><ele>915</ele><time>2026-03-20T14:08:36Z</time></trkpt>
<trkpt lat="43.0248370000" lon="0.2444370000"><ele>915</ele><time>2026-03-20T14:08:38Z</time></trkpt>
<trkpt lat="43.0248570000" lon="0.2444270000"><ele>915</ele><time>2026-03-20T14:08:40Z</time></trkpt>
<trkpt lat="43.0248800000" lon="0.2444170000"><ele>914</ele><time>2026-03-20T14:08:42Z</time></trkpt>
<trkpt lat="43.0249070000" lon="0.2444050000"><ele>914</ele><time>2026-03-20T14:08:44Z</time></trkpt>
<trkpt lat="43.0249320000" lon="0.2443970000"><ele>914</ele><time>2026-03-20T14:08:46Z</time></trkpt>
<trkpt lat="43.0249550000" lon="0.2443900000"><ele>914</ele><time>2026-03-20T14:08:48Z</time></trkpt>
<trkpt lat="43.0249770000" lon="0.2443870000"><ele>913</ele><time>2026-03-20T14:08:50Z</time></trkpt>
<trkpt lat="43.0250000000" lon="0.2443750000"><ele>913</ele><time>2026-03-20T14:08:52Z</time></trkpt>
<trkpt lat="43.0250220000" lon="0.2443620000"><ele>912</ele><time>2026-03-20T14:08:54Z</time></trkpt>
<trkpt lat="43.0250470000" lon="0.2443470000"><ele>912</ele><time>2026-03-20T14:08:56Z</time></trkpt>
<trkpt lat="43.0250670000" lon="0.2443320000"><ele>912</ele><time>2026-03-20T14:08:58Z</time></trkpt>
<trkpt lat="43.0250870000" lon="0.2443270000"><ele>911</ele><time>2026-03-20T14:09:00Z</time></trkpt>
<trkpt lat="43.0251070000" lon="0.2443170000"><ele>911</ele><time>2026-03-20T14:09:02Z</time></trkpt>
<trkpt lat="43.0251270000" lon="0.2443120000"><ele>910</ele><time>2026-03-20T14:09:04Z</time></trkpt>
<trkpt lat="43.0251470000" lon="0.2443120000"><ele>910</ele><time>2026-03-20T14:09:06Z</time></trkpt>
<trkpt lat="43.0251700000" lon="0.2443100000"><ele>910</ele><time>2026-03-20T14:09:08Z</time></trkpt>
<trkpt lat="43.0251920000" lon="0.2443020000"><ele>909</ele><time>2026-03-20T14:09:10Z</time></trkpt>
<trkpt lat="43.0252120000" lon="0.2442900000"><ele>909</ele><time>2026-03-20T14:09:12Z</time></trkpt>
<trkpt lat="43.0252320000" lon="0.2442770000"><ele>908</ele><time>2026-03-20T14:09:14Z</time></trkpt>
<trkpt lat="43.0252520000" lon="0.2442700000"><ele>908</ele><time>2026-03-20T14:09:16Z</time></trkpt>
<trkpt lat="43.0252770000" lon="0.2442750000"><ele>907</ele><time>2026-03-20T14:09:18Z</time></trkpt>
<trkpt lat="43.0253000000" lon="0.2442750000"><ele>907</ele><time>2026-03-20T14:09:20Z</time></trkpt>
<trkpt lat="43.0253220000" lon="0.2442670000"><ele>907</ele><time>2026-03-20T14:09:22Z</time></trkpt>
<trkpt lat="43.0253420000" lon="0.2442550000"><ele>906</ele><time>2026-03-20T14:09:24Z</time></trkpt>
<trkpt lat="43.0253620000" lon="0.2442420000"><ele>906</ele><time>2026-03-20T14:09:26Z</time></trkpt>
<trkpt lat="43.0253870000" lon="0.2442370000"><ele>906</ele><time>2026-03-20T14:09:28Z</time></trkpt>
<trkpt lat="43.0254120000" lon="0.2442320000"><ele>905</ele><time>2026-03-20T14:09:30Z</time></trkpt>
<trkpt lat="43.0254400000" lon="0.2442300000"><ele>905</ele><time>2026-03-20T14:09:32Z</time></trkpt>
<trkpt lat="43.0254650000" lon="0.2442300000"><ele>904</ele><time>2026-03-20T14:09:34Z</time></trkpt>
<trkpt lat="43.0254870000" lon="0.2442320000"><ele>904</ele><time>2026-03-20T14:09:36Z</time></trkpt>
<trkpt lat="43.0255070000" lon="0.2442250000"><ele>904</ele><time>2026-03-20T14:09:38Z</time></trkpt>
<trkpt lat="43.0255270000" lon="0.2442120000"><ele>904</ele><time>2026-03-20T14:09:40Z</time></trkpt>
<trkpt lat="43.0255470000" lon="0.2441980000"><ele>903</ele><time>2026-03-20T14:09:42Z</time></trkpt>
<trkpt lat="43.0255650000" lon="0.2441820000"><ele>903</ele><time>2026-03-20T14:09:44Z</time></trkpt>
<trkpt lat="43.0255770000" lon="0.2441620000"><ele>902</ele><time>2026-03-20T14:09:46Z</time></trkpt>
<trkpt lat="43.0255870000" lon="0.2441320000"><ele>902</ele><time>2026-03-20T14:09:48Z</time></trkpt>
<trkpt lat="43.0255850000" lon="0.2441020000"><ele>901</ele><time>2026-03-20T14:09:50Z</time></trkpt>
<trkpt lat="43.0255600000" lon="0.2440950000"><ele>900</ele><time>2026-03-20T14:09:55Z</time></trkpt>
<trkpt lat="43.0255420000" lon="0.2440670000"><ele>900</ele><time>2026-03-20T14:09:58Z</time></trkpt>
<trkpt lat="43.0255270000" lon="0.2440470000"><ele>900</ele><time>2026-03-20T14:10:00Z</time></trkpt>
<trkpt lat="43.0255120000" lon="0.2440350000"><ele>899</ele><time>2026-03-20T14:10:02Z</time></trkpt>
<trkpt lat="43.0254920000" lon="0.2440250000"><ele>899</ele><time>2026-03-20T14:10:04Z</time></trkpt>
<trkpt lat="43.0254720000" lon="0.2440120000"><ele>899</ele><time>2026-03-20T14:10:06Z</time></trkpt>
<trkpt lat="43.0254470000" lon="0.2440000000"><ele>898</ele><time>2026-03-20T14:10:08Z</time></trkpt>
<trkpt lat="43.0254170000" lon="0.2439870000"><ele>898</ele><time>2026-03-20T14:10:10Z</time></trkpt>
<trkpt lat="43.0253970000" lon="0.2439670000"><ele>897</ele><time>2026-03-20T14:10:12Z</time></trkpt>
<trkpt lat="43.0253820000" lon="0.2439520000"><ele>897</ele><time>2026-03-20T14:10:14Z</time></trkpt>
<trkpt lat="43.0253600000" lon="0.2439370000"><ele>897</ele><time>2026-03-20T14:10:16Z</time></trkpt>
<trkpt lat="43.0253370000" lon="0.2439220000"><ele>896</ele><time>2026-03-20T14:10:18Z</time></trkpt>
<trkpt lat="43.0253200000" lon="0.2439020000"><ele>896</ele><time>2026-03-20T14:10:20Z</time></trkpt>
<trkpt lat="43.0252970000" lon="0.2438770000"><ele>896</ele><time>2026-03-20T14:10:22Z</time></trkpt>
<trkpt lat="43.0252830000" lon="0.2438470000"><ele>896</ele><time>2026-03-20T14:10:24Z</time></trkpt>
<trkpt lat="43.0252700000" lon="0.2438270000"><ele>896</ele><time>2026-03-20T14:10:26Z</time></trkpt>
<trkpt lat="43.0252520000" lon="0.2438050000"><ele>895</ele><time>2026-03-20T14:10:28Z</time></trkpt>
<trkpt lat="43.0252420000" lon="0.2437780000"><ele>895</ele><time>2026-03-20T14:10:30Z</time></trkpt>
<trkpt lat="43.0252250000" lon="0.2437570000"><ele>895</ele><time>2026-03-20T14:10:32Z</time></trkpt>
<trkpt lat="43.0252070000" lon="0.2437320000"><ele>894</ele><time>2026-03-20T14:10:34Z</time></trkpt>
<trkpt lat="43.0251920000" lon="0.2437120000"><ele>894</ele><time>2026-03-20T14:10:36Z</time></trkpt>
<trkpt lat="43.0251720000" lon="0.2436870000"><ele>894</ele><time>2026-03-20T14:10:38Z</time></trkpt>
<trkpt lat="43.0251570000" lon="0.2436670000"><ele>894</ele><time>2026-03-20T14:10:40Z</time></trkpt>
<trkpt lat="43.0251450000" lon="0.2436420000"><ele>893</ele><time>2026-03-20T14:10:42Z</time></trkpt>
<trkpt lat="43.0251270000" lon="0.2436170000"><ele>893</ele><time>2026-03-20T14:10:44Z</time></trkpt>
<trkpt lat="43.0251070000" lon="0.2435920000"><ele>893</ele><time>2026-03-20T14:10:46Z</time></trkpt>
<trkpt lat="43.0250920000" lon="0.2435720000"><ele>893</ele><time>2026-03-20T14:10:48Z</time></trkpt>
<trkpt lat="43.0250750000" lon="0.2435520000"><ele>893</ele><time>2026-03-20T14:10:50Z</time></trkpt>
<trkpt lat="43.0250570000" lon="0.2435300000"><ele>892</ele><time>2026-03-20T14:10:52Z</time></trkpt>
<trkpt lat="43.0250470000" lon="0.2435070000"><ele>892</ele><time>2026-03-20T14:10:54Z</time></trkpt>
<trkpt lat="43.0250320000" lon="0.2434800000"><ele>892</ele><time>2026-03-20T14:10:56Z</time></trkpt>
<trkpt lat="43.0250200000" lon="0.2434600000"><ele>891</ele><time>2026-03-20T14:10:58Z</time></trkpt>
<trkpt lat="43.0250020000" lon="0.2434400000"><ele>891</ele><time>2026-03-20T14:11:00Z</time></trkpt>
<trkpt lat="43.0249820000" lon="0.2434220000"><ele>891</ele><time>2026-03-20T14:11:02Z</time></trkpt>
<trkpt lat="43.0249720000" lon="0.2434020000"><ele>890</ele><time>2026-03-20T14:11:04Z</time></trkpt>
<trkpt lat="43.0249600000" lon="0.2433750000"><ele>890</ele><time>2026-03-20T14:11:06Z</time></trkpt>
<trkpt lat="43.0249420000" lon="0.2433580000"><ele>890</ele><time>2026-03-20T14:11:08Z</time></trkpt>
<trkpt lat="43.0249270000" lon="0.2433420000"><ele>889</ele><time>2026-03-20T14:11:10Z</time></trkpt>
<trkpt lat="43.0249100000" lon="0.2433150000"><ele>889</ele><time>2026-03-20T14:11:12Z</time></trkpt>
<trkpt lat="43.0248920000" lon="0.2432970000"><ele>889</ele><time>2026-03-20T14:11:14Z</time></trkpt>
<trkpt lat="43.0248720000" lon="0.2432820000"><ele>888</ele><time>2026-03-20T14:11:16Z</time></trkpt>
<trkpt lat="43.0248570000" lon="0.2432620000"><ele>888</ele><time>2026-03-20T14:11:18Z</time></trkpt>
<trkpt lat="43.0248450000" lon="0.2432370000"><ele>887</ele><time>2026-03-20T14:11:20Z</time></trkpt>
<trkpt lat="43.0248320000" lon="0.2432100000"><ele>887</ele><time>2026-03-20T14:11:22Z</time></trkpt>
<trkpt lat="43.0248120000" lon="0.2431820000"><ele>887</ele><time>2026-03-20T14:11:24Z</time></trkpt>
<trkpt lat="43.0247970000" lon="0.2431550000"><ele>886</ele><time>2026-03-20T14:11:26Z</time></trkpt>
<trkpt lat="43.0247800000" lon="0.2431370000"><ele>886</ele><time>2026-03-20T14:11:28Z</time></trkpt>
<trkpt lat="43.0247620000" lon="0.2431270000"><ele>886</ele><time>2026-03-20T14:11:30Z</time></trkpt>
<trkpt lat="43.0247520000" lon="0.2431050000"><ele>885</ele><time>2026-03-20T14:11:32Z</time></trkpt>
<trkpt lat="43.0247370000" lon="0.2430770000"><ele>885</ele><time>2026-03-20T14:11:34Z</time></trkpt>
<trkpt lat="43.0247270000" lon="0.2430550000"><ele>884</ele><time>2026-03-20T14:11:36Z</time></trkpt>
<trkpt lat="43.0247170000" lon="0.2430320000"><ele>884</ele><time>2026-03-20T14:11:38Z</time></trkpt>
<trkpt lat="43.0247070000" lon="0.2430020000"><ele>884</ele><time>2026-03-20T14:11:40Z</time></trkpt>
<trkpt lat="43.0246970000" lon="0.2429720000"><ele>884</ele><time>2026-03-20T14:11:42Z</time></trkpt>
<trkpt lat="43.0246820000" lon="0.2429430000"><ele>883</ele><time>2026-03-20T14:11:44Z</time></trkpt>
<trkpt lat="43.0246620000" lon="0.2429250000"><ele>883</ele><time>2026-03-20T14:11:46Z</time></trkpt>
<trkpt lat="43.0246450000" lon="0.2429050000"><ele>883</ele><time>2026-03-20T14:11:48Z</time></trkpt>
<trkpt lat="43.0246250000" lon="0.2428800000"><ele>882</ele><time>2026-03-20T14:11:50Z</time></trkpt>
<trkpt lat="43.0246020000" lon="0.2428530000"><ele>882</ele><time>2026-03-20T14:11:52Z</time></trkpt>
<trkpt lat="43.0245870000" lon="0.2428250000"><ele>882</ele><time>2026-03-20T14:11:54Z</time></trkpt>
<trkpt lat="43.0245750000" lon="0.2427970000"><ele>881</ele><time>2026-03-20T14:11:56Z</time></trkpt>
<trkpt lat="43.0245600000" lon="0.2427670000"><ele>881</ele><time>2026-03-20T14:11:59Z</time></trkpt>
<trkpt lat="43.0245470000" lon="0.2427420000"><ele>881</ele><time>2026-03-20T14:12:01Z</time></trkpt>
<trkpt lat="43.0245320000" lon="0.2427170000"><ele>880</ele><time>2026-03-20T14:12:03Z</time></trkpt>
<trkpt lat="43.0245150000" lon="0.2426950000"><ele>880</ele><time>2026-03-20T14:12:05Z</time></trkpt>
<trkpt lat="43.0244970000" lon="0.2426680000"><ele>880</ele><time>2026-03-20T14:12:07Z</time></trkpt>
<trkpt lat="43.0244850000" lon="0.2426450000"><ele>880</ele><time>2026-03-20T14:12:09Z</time></trkpt>
<trkpt lat="43.0244720000" lon="0.2426170000"><ele>879</ele><time>2026-03-20T14:12:11Z</time></trkpt>
<trkpt lat="43.0244670000" lon="0.2425950000"><ele>879</ele><time>2026-03-20T14:12:13Z</time></trkpt>
<trkpt lat="43.0244570000" lon="0.2425650000"><ele>879</ele><time>2026-03-20T14:12:15Z</time></trkpt>
<trkpt lat="43.0244450000" lon="0.2425330000"><ele>879</ele><time>2026-03-20T14:12:17Z</time></trkpt>
<trkpt lat="43.0244370000" lon="0.2425100000"><ele>878</ele><time>2026-03-20T14:12:19Z</time></trkpt>
<trkpt lat="43.0244270000" lon="0.2424750000"><ele>878</ele><time>2026-03-20T14:12:21Z</time></trkpt>
<trkpt lat="43.0244250000" lon="0.2424420000"><ele>877</ele><time>2026-03-20T14:12:23Z</time></trkpt>
<trkpt lat="43.0244170000" lon="0.2424070000"><ele>877</ele><time>2026-03-20T14:12:25Z</time></trkpt>
<trkpt lat="43.0244150000" lon="0.2423750000"><ele>877</ele><time>2026-03-20T14:12:27Z</time></trkpt>
<trkpt lat="43.0244250000" lon="0.2423420000"><ele>877</ele><time>2026-03-20T14:12:29Z</time></trkpt>
<trkpt lat="43.0244270000" lon="0.2423100000"><ele>876</ele><time>2026-03-20T14:12:31Z</time></trkpt>
<trkpt lat="43.0244220000" lon="0.2422770000"><ele>876</ele><time>2026-03-20T14:12:33Z</time></trkpt>
<trkpt lat="43.0244170000" lon="0.2422420000"><ele>876</ele><time>2026-03-20T14:12:35Z</time></trkpt>
<trkpt lat="43.0244150000" lon="0.2422070000"><ele>876</ele><time>2026-03-20T14:12:37Z</time></trkpt>
<trkpt lat="43.0244150000" lon="0.2421750000"><ele>875</ele><time>2026-03-20T14:12:39Z</time></trkpt>
<trkpt lat="43.0244070000" lon="0.2421370000"><ele>875</ele><time>2026-03-20T14:12:41Z</time></trkpt>
<trkpt lat="43.0244000000" lon="0.2421070000"><ele>875</ele><time>2026-03-20T14:12:43Z</time></trkpt>
<trkpt lat="43.0243920000" lon="0.2420800000"><ele>875</ele><time>2026-03-20T14:12:45Z</time></trkpt>
<trkpt lat="43.0243920000" lon="0.2420500000"><ele>875</ele><time>2026-03-20T14:12:47Z</time></trkpt>
<trkpt lat="43.0243850000" lon="0.2420220000"><ele>874</ele><time>2026-03-20T14:12:49Z</time></trkpt>
<trkpt lat="43.0243770000" lon="0.2419970000"><ele>874</ele><time>2026-03-20T14:12:51Z</time></trkpt>
<trkpt lat="43.0243750000" lon="0.2419720000"><ele>874</ele><time>2026-03-20T14:12:53Z</time></trkpt>
<trkpt lat="43.0243720000" lon="0.2419420000"><ele>874</ele><time>2026-03-20T14:12:55Z</time></trkpt>
<trkpt lat="43.0243720000" lon="0.2419120000"><ele>873</ele><time>2026-03-20T14:12:57Z</time></trkpt>
<trkpt lat="43.0243720000" lon="0.2418820000"><ele>873</ele><time>2026-03-20T14:12:59Z</time></trkpt>
<trkpt lat="43.0243670000" lon="0.2418570000"><ele>873</ele><time>2026-03-20T14:13:01Z</time></trkpt>
<trkpt lat="43.0243570000" lon="0.2418280000"><ele>872</ele><time>2026-03-20T14:13:03Z</time></trkpt>
<trkpt lat="43.0243500000" lon="0.2418000000"><ele>872</ele><time>2026-03-20T14:13:05Z</time></trkpt>
<trkpt lat="43.0243450000" lon="0.2417700000"><ele>871</ele><time>2026-03-20T14:13:07Z</time></trkpt>
<trkpt lat="43.0243470000" lon="0.2417400000"><ele>871</ele><time>2026-03-20T14:13:09Z</time></trkpt>
<trkpt lat="43.0243570000" lon="0.2417100000"><ele>871</ele><time>2026-03-20T14:13:11Z</time></trkpt>
<trkpt lat="43.0243680000" lon="0.2416870000"><ele>870</ele><time>2026-03-20T14:13:13Z</time></trkpt>
<trkpt lat="43.0243870000" lon="0.2416620000"><ele>870</ele><time>2026-03-20T14:13:15Z</time></trkpt>
<trkpt lat="43.0244120000" lon="0.2416420000"><ele>870</ele><time>2026-03-20T14:13:17Z</time></trkpt>
<trkpt lat="43.0244370000" lon="0.2416350000"><ele>870</ele><time>2026-03-20T14:13:19Z</time></trkpt>
<trkpt lat="43.0244620000" lon="0.2416320000"><ele>869</ele><time>2026-03-20T14:13:21Z</time></trkpt>
<trkpt lat="43.0244870000" lon="0.2416370000"><ele>868</ele><time>2026-03-20T14:13:40Z</time></trkpt>
<trkpt lat="43.0245100000" lon="0.2416600000"><ele>868</ele><time>2026-03-20T14:13:42Z</time></trkpt>
<trkpt lat="43.0245300000" lon="0.2416820000"><ele>867</ele><time>2026-03-20T14:13:44Z</time></trkpt>
<trkpt lat="43.0245470000" lon="0.2417120000"><ele>867</ele><time>2026-03-20T14:13:46Z</time></trkpt>
<trkpt lat="43.0245620000" lon="0.2417370000"><ele>867</ele><time>2026-03-20T14:13:48Z</time></trkpt>
<trkpt lat="43.0245770000" lon="0.2417620000"><ele>866</ele><time>2026-03-20T14:13:50Z</time></trkpt>
<trkpt lat="43.0245900000" lon="0.2417920000"><ele>866</ele><time>2026-03-20T14:13:52Z</time></trkpt>
<trkpt lat="43.0246070000" lon="0.2418220000"><ele>865</ele><time>2026-03-20T14:13:54Z</time></trkpt>
<trkpt lat="43.0246270000" lon="0.2418450000"><ele>865</ele><time>2026-03-20T14:13:56Z</time></trkpt>
<trkpt lat="43.0246450000" lon="0.2418700000"><ele>865</ele><time>2026-03-20T14:13:58Z</time></trkpt>
<trkpt lat="43.0246550000" lon="0.2418950000"><ele>864</ele><time>2026-03-20T14:14:00Z</time></trkpt>
<trkpt lat="43.0246670000" lon="0.2419150000"><ele>864</ele><time>2026-03-20T14:14:02Z</time></trkpt>
<trkpt lat="43.0246770000" lon="0.2419370000"><ele>863</ele><time>2026-03-20T14:14:04Z</time></trkpt>
<trkpt lat="43.0246870000" lon="0.2419620000"><ele>863</ele><time>2026-03-20T14:14:06Z</time></trkpt>
<trkpt lat="43.0247070000" lon="0.2419820000"><ele>862</ele><time>2026-03-20T14:14:08Z</time></trkpt>
<trkpt lat="43.0247200000" lon="0.2420020000"><ele>861</ele><time>2026-03-20T14:14:10Z</time></trkpt>
<trkpt lat="43.0247320000" lon="0.2420220000"><ele>861</ele><time>2026-03-20T14:14:12Z</time></trkpt>
<trkpt lat="43.0247520000" lon="0.2420400000"><ele>861</ele><time>2026-03-20T14:14:14Z</time></trkpt>
<trkpt lat="43.0247670000" lon="0.2420570000"><ele>860</ele><time>2026-03-20T14:14:16Z</time></trkpt>
<trkpt lat="43.0247770000" lon="0.2420800000"><ele>860</ele><time>2026-03-20T14:14:19Z</time></trkpt>
<trkpt lat="43.0247970000" lon="0.2421020000"><ele>859</ele><time>2026-03-20T14:14:21Z</time></trkpt>
<trkpt lat="43.0248170000" lon="0.2421130000"><ele>859</ele><time>2026-03-20T14:14:23Z</time></trkpt>
<trkpt lat="43.0248370000" lon="0.2421180000"><ele>859</ele><time>2026-03-20T14:14:25Z</time></trkpt>
<trkpt lat="43.0248670000" lon="0.2421270000"><ele>858</ele><time>2026-03-20T14:14:28Z</time></trkpt>
<trkpt lat="43.0248970000" lon="0.2421300000"><ele>858</ele><time>2026-03-20T14:14:30Z</time></trkpt>
<trkpt lat="43.0249250000" lon="0.2421320000"><ele>858</ele><time>2026-03-20T14:14:32Z</time></trkpt>
<trkpt lat="43.0249470000" lon="0.2421300000"><ele>857</ele><time>2026-03-20T14:14:34Z</time></trkpt>
<trkpt lat="43.0249670000" lon="0.2421300000"><ele>857</ele><time>2026-03-20T14:14:36Z</time></trkpt>
<trkpt lat="43.0249870000" lon="0.2421270000"><ele>857</ele><time>2026-03-20T14:14:38Z</time></trkpt>
<trkpt lat="43.0250100000" lon="0.2421250000"><ele>856</ele><time>2026-03-20T14:14:40Z</time></trkpt>
<trkpt lat="43.0250300000" lon="0.2421300000"><ele>856</ele><time>2026-03-20T14:14:42Z</time></trkpt>
<trkpt lat="43.0250550000" lon="0.2421300000"><ele>856</ele><time>2026-03-20T14:14:44Z</time></trkpt>
<trkpt lat="43.0250820000" lon="0.2421250000"><ele>855</ele><time>2026-03-20T14:14:46Z</time></trkpt>
<trkpt lat="43.0251050000" lon="0.2421220000"><ele>855</ele><time>2026-03-20T14:14:48Z</time></trkpt>
<trkpt lat="43.0251320000" lon="0.2421220000"><ele>855</ele><time>2026-03-20T14:14:50Z</time></trkpt>
<trkpt lat="43.0251500000" lon="0.2421170000"><ele>855</ele><time>2026-03-20T14:14:52Z</time></trkpt>
<trkpt lat="43.0251720000" lon="0.2421270000"><ele>854</ele><time>2026-03-20T14:14:54Z</time></trkpt>
<trkpt lat="43.0251900000" lon="0.2421420000"><ele>854</ele><time>2026-03-20T14:14:56Z</time></trkpt>
<trkpt lat="43.0252120000" lon="0.2421520000"><ele>854</ele><time>2026-03-20T14:14:59Z</time></trkpt>
<trkpt lat="43.0252270000" lon="0.2421620000"><ele>853</ele><time>2026-03-20T14:15:01Z</time></trkpt>
<trkpt lat="43.0252470000" lon="0.2421750000"><ele>853</ele><time>2026-03-20T14:15:03Z</time></trkpt>
<trkpt lat="43.0252770000" lon="0.2421770000"><ele>853</ele><time>2026-03-20T14:15:05Z</time></trkpt>
<trkpt lat="43.0253070000" lon="0.2421670000"><ele>853</ele><time>2026-03-20T14:15:07Z</time></trkpt>
<trkpt lat="43.0253370000" lon="0.2421670000"><ele>853</ele><time>2026-03-20T14:15:09Z</time></trkpt>
<trkpt lat="43.0253620000" lon="0.2421570000"><ele>852</ele><time>2026-03-20T14:15:11Z</time></trkpt>
<trkpt lat="43.0253850000" lon="0.2421520000"><ele>852</ele><time>2026-03-20T14:15:14Z</time></trkpt>
<trkpt lat="43.0254020000" lon="0.2421580000"><ele>851</ele><time>2026-03-20T14:15:16Z</time></trkpt>
<trkpt lat="43.0254230000" lon="0.2421620000"><ele>851</ele><time>2026-03-20T14:15:18Z</time></trkpt>
<trkpt lat="43.0254520000" lon="0.2421580000"><ele>851</ele><time>2026-03-20T14:15:20Z</time></trkpt>
<trkpt lat="43.0254720000" lon="0.2421580000"><ele>851</ele><time>2026-03-20T14:15:21Z</time></trkpt>
<trkpt lat="43.0254970000" lon="0.2421620000"><ele>850</ele><time>2026-03-20T14:15:23Z</time></trkpt>
<trkpt lat="43.0255150000" lon="0.2421570000"><ele>850</ele><time>2026-03-20T14:15:25Z</time></trkpt>
<trkpt lat="43.0255420000" lon="0.2421580000"><ele>849</ele><time>2026-03-20T14:15:28Z</time></trkpt>
<trkpt lat="43.0255670000" lon="0.2421670000"><ele>849</ele><time>2026-03-20T14:15:30Z</time></trkpt>
<trkpt lat="43.0255870000" lon="0.2421800000"><ele>849</ele><time>2026-03-20T14:15:32Z</time></trkpt>
<trkpt lat="43.0256100000" lon="0.2421820000"><ele>849</ele><time>2026-03-20T14:15:34Z</time></trkpt>
<trkpt lat="43.0256320000" lon="0.2421850000"><ele>848</ele><time>2026-03-20T14:15:36Z</time></trkpt>
<trkpt lat="43.0256600000" lon="0.2421850000"><ele>848</ele><time>2026-03-20T14:15:38Z</time></trkpt>
<trkpt lat="43.0256820000" lon="0.2421950000"><ele>848</ele><time>2026-03-20T14:15:40Z</time></trkpt>
<trkpt lat="43.0256970000" lon="0.2422100000"><ele>848</ele><time>2026-03-20T14:15:41Z</time></trkpt>
<trkpt lat="43.0257300000" lon="0.2422300000"><ele>847</ele><time>2026-03-20T14:15:43Z</time></trkpt>
<trkpt lat="43.0257570000" lon="0.2422420000"><ele>847</ele><time>2026-03-20T14:15:45Z</time></trkpt>
<trkpt lat="43.0257750000" lon="0.2422520000"><ele>846</ele><time>2026-03-20T14:15:47Z</time></trkpt>
<trkpt lat="43.0257970000" lon="0.2422580000"><ele>846</ele><time>2026-03-20T14:15:50Z</time></trkpt>
<trkpt lat="43.0258150000" lon="0.2422620000"><ele>846</ele><time>2026-03-20T14:15:52Z</time></trkpt>
<trkpt lat="43.0258400000" lon="0.2422620000"><ele>846</ele><time>2026-03-20T14:15:54Z</time></trkpt>
<trkpt lat="43.0258620000" lon="0.2422720000"><ele>845</ele><time>2026-03-20T14:15:56Z</time></trkpt>
<trkpt lat="43.0258820000" lon="0.2422820000"><ele>845</ele><time>2026-03-20T14:15:58Z</time></trkpt>
<trkpt lat="43.0259050000" lon="0.2422870000"><ele>845</ele><time>2026-03-20T14:16:00Z</time></trkpt>
<trkpt lat="43.0259250000" lon="0.2422870000"><ele>844</ele><time>2026-03-20T14:16:02Z</time></trkpt>
<trkpt lat="43.0259450000" lon="0.2422920000"><ele>844</ele><time>2026-03-20T14:16:04Z</time></trkpt>
<trkpt lat="43.0259670000" lon="0.2423020000"><ele>844</ele><time>2026-03-20T14:16:06Z</time></trkpt>
<trkpt lat="43.0259900000" lon="0.2423100000"><ele>844</ele><time>2026-03-20T14:16:08Z</time></trkpt>
<trkpt lat="43.0260120000" lon="0.2423220000"><ele>843</ele><time>2026-03-20T14:16:10Z</time></trkpt>
<trkpt lat="43.0260370000" lon="0.2423350000"><ele>843</ele><time>2026-03-20T14:16:12Z</time></trkpt>
<trkpt lat="43.0260570000" lon="0.2423420000"><ele>843</ele><time>2026-03-20T14:16:14Z</time></trkpt>
<trkpt lat="43.0260800000" lon="0.2423520000"><ele>842</ele><time>2026-03-20T14:16:16Z</time></trkpt>
<trkpt lat="43.0261050000" lon="0.2423600000"><ele>842</ele><time>2026-03-20T14:16:18Z</time></trkpt>
<trkpt lat="43.0261320000" lon="0.2423700000"><ele>842</ele><time>2026-03-20T14:16:20Z</time></trkpt>
<trkpt lat="43.0261620000" lon="0.2423770000"><ele>842</ele><time>2026-03-20T14:16:22Z</time></trkpt>
<trkpt lat="43.0261870000" lon="0.2423930000"><ele>842</ele><time>2026-03-20T14:16:24Z</time></trkpt>
<trkpt lat="43.0262120000" lon="0.2424050000"><ele>841</ele><time>2026-03-20T14:16:26Z</time></trkpt>
<trkpt lat="43.0262370000" lon="0.2424170000"><ele>841</ele><time>2026-03-20T14:16:28Z</time></trkpt>
<trkpt lat="43.0262550000" lon="0.2424270000"><ele>841</ele><time>2026-03-20T14:16:30Z</time></trkpt>
<trkpt lat="43.0262770000" lon="0.2424420000"><ele>840</ele><time>2026-03-20T14:16:32Z</time></trkpt>
<trkpt lat="43.0262970000" lon="0.2424550000"><ele>840</ele><time>2026-03-20T14:16:34Z</time></trkpt>
<trkpt lat="43.0263200000" lon="0.2424670000"><ele>840</ele><time>2026-03-20T14:16:36Z</time></trkpt>
<trkpt lat="43.0263420000" lon="0.2424770000"><ele>839</ele><time>2026-03-20T14:16:38Z</time></trkpt>
<trkpt lat="43.0263600000" lon="0.2424900000"><ele>839</ele><time>2026-03-20T14:16:40Z</time></trkpt>
<trkpt lat="43.0263770000" lon="0.2424970000"><ele>838</ele><time>2026-03-20T14:16:42Z</time></trkpt>
<trkpt lat="43.0263970000" lon="0.2425070000"><ele>838</ele><time>2026-03-20T14:16:44Z</time></trkpt>
<trkpt lat="43.0264170000" lon="0.2425170000"><ele>838</ele><time>2026-03-20T14:16:46Z</time></trkpt>
<trkpt lat="43.0264370000" lon="0.2425330000"><ele>837</ele><time>2026-03-20T14:16:48Z</time></trkpt>
<trkpt lat="43.0264620000" lon="0.2425570000"><ele>837</ele><time>2026-03-20T14:16:51Z</time></trkpt>
<trkpt lat="43.0264920000" lon="0.2425720000"><ele>837</ele><time>2026-03-20T14:16:54Z</time></trkpt>
<trkpt lat="43.0265200000" lon="0.2425870000"><ele>836</ele><time>2026-03-20T14:16:56Z</time></trkpt>
<trkpt lat="43.0265470000" lon="0.2426020000"><ele>836</ele><time>2026-03-20T14:16:58Z</time></trkpt>
<trkpt lat="43.0265720000" lon="0.2426070000"><ele>836</ele><time>2026-03-20T14:17:00Z</time></trkpt>
<trkpt lat="43.0265950000" lon="0.2426200000"><ele>835</ele><time>2026-03-20T14:17:02Z</time></trkpt>
<trkpt lat="43.0266120000" lon="0.2426350000"><ele>835</ele><time>2026-03-20T14:17:04Z</time></trkpt>
<trkpt lat="43.0266320000" lon="0.2426450000"><ele>834</ele><time>2026-03-20T14:17:06Z</time></trkpt>
<trkpt lat="43.0266550000" lon="0.2426570000"><ele>834</ele><time>2026-03-20T14:17:08Z</time></trkpt>
<trkpt lat="43.0266770000" lon="0.2426680000"><ele>833</ele><time>2026-03-20T14:17:10Z</time></trkpt>
<trkpt lat="43.0267020000" lon="0.2426850000"><ele>833</ele><time>2026-03-20T14:17:12Z</time></trkpt>
<trkpt lat="43.0267220000" lon="0.2426970000"><ele>833</ele><time>2026-03-20T14:17:14Z</time></trkpt>
<trkpt lat="43.0267450000" lon="0.2427120000"><ele>832</ele><time>2026-03-20T14:17:16Z</time></trkpt>
<trkpt lat="43.0267650000" lon="0.2427320000"><ele>832</ele><time>2026-03-20T14:17:18Z</time></trkpt>
<trkpt lat="43.0267880000" lon="0.2427450000"><ele>832</ele><time>2026-03-20T14:17:20Z</time></trkpt>
<trkpt lat="43.0268120000" lon="0.2427600000"><ele>831</ele><time>2026-03-20T14:17:22Z</time></trkpt>
<trkpt lat="43.0268300000" lon="0.2427770000"><ele>831</ele><time>2026-03-20T14:17:24Z</time></trkpt>
<trkpt lat="43.0268420000" lon="0.2427920000"><ele>830</ele><time>2026-03-20T14:17:36Z</time></trkpt>
<trkpt lat="43.0268620000" lon="0.2428120000"><ele>830</ele><time>2026-03-20T14:17:38Z</time></trkpt>
<trkpt lat="43.0268920000" lon="0.2428300000"><ele>829</ele><time>2026-03-20T14:17:40Z</time></trkpt>
<trkpt lat="43.0269220000" lon="0.2428370000"><ele>829</ele><time>2026-03-20T14:17:42Z</time></trkpt>
<trkpt lat="43.0269500000" lon="0.2428470000"><ele>829</ele><time>2026-03-20T14:17:44Z</time></trkpt>
<trkpt lat="43.0269720000" lon="0.2428620000"><ele>828</ele><time>2026-03-20T14:17:46Z</time></trkpt>
<trkpt lat="43.0269920000" lon="0.2428800000"><ele>828</ele><time>2026-03-20T14:17:48Z</time></trkpt>
<trkpt lat="43.0270100000" lon="0.2428920000"><ele>828</ele><time>2026-03-20T14:17:50Z</time></trkpt>
<trkpt lat="43.0270320000" lon="0.2429070000"><ele>827</ele><time>2026-03-20T14:17:52Z</time></trkpt>
<trkpt lat="43.0270520000" lon="0.2429220000"><ele>827</ele><time>2026-03-20T14:17:54Z</time></trkpt>
<trkpt lat="43.0270770000" lon="0.2429320000"><ele>827</ele><time>2026-03-20T14:17:56Z</time></trkpt>
<trkpt lat="43.0270970000" lon="0.2429430000"><ele>827</ele><time>2026-03-20T14:17:58Z</time></trkpt>
<trkpt lat="43.0271170000" lon="0.2429570000"><ele>826</ele><time>2026-03-20T14:18:00Z</time></trkpt>
<trkpt lat="43.0271370000" lon="0.2429670000"><ele>826</ele><time>2026-03-20T14:18:02Z</time></trkpt>
<trkpt lat="43.0271570000" lon="0.2429850000"><ele>825</ele><time>2026-03-20T14:18:11Z</time></trkpt>
<trkpt lat="43.0271870000" lon="0.2429980000"><ele>825</ele><time>2026-03-20T14:18:13Z</time></trkpt>
<trkpt lat="43.0272150000" lon="0.2430120000"><ele>824</ele><time>2026-03-20T14:18:15Z</time></trkpt>
<trkpt lat="43.0272320000" lon="0.2430270000"><ele>824</ele><time>2026-03-20T14:18:17Z</time></trkpt>
<trkpt lat="43.0272520000" lon="0.2430400000"><ele>824</ele><time>2026-03-20T14:18:19Z</time></trkpt>
<trkpt lat="43.0272720000" lon="0.2430520000"><ele>824</ele><time>2026-03-20T14:18:21Z</time></trkpt>
<trkpt lat="43.0272920000" lon="0.2430620000"><ele>823</ele><time>2026-03-20T14:18:23Z</time></trkpt>
<trkpt lat="43.0273120000" lon="0.2430720000"><ele>823</ele><time>2026-03-20T14:18:25Z</time></trkpt>
<trkpt lat="43.0273350000" lon="0.2430820000"><ele>823</ele><time>2026-03-20T14:18:27Z</time></trkpt>
<trkpt lat="43.0273520000" lon="0.2431000000"><ele>822</ele><time>2026-03-20T14:18:29Z</time></trkpt>
<trkpt lat="43.0273750000" lon="0.2431100000"><ele>822</ele><time>2026-03-20T14:18:31Z</time></trkpt>
<trkpt lat="43.0273970000" lon="0.2431200000"><ele>822</ele><time>2026-03-20T14:18:33Z</time></trkpt>
<trkpt lat="43.0274170000" lon="0.2431320000"><ele>821</ele><time>2026-03-20T14:18:35Z</time></trkpt>
<trkpt lat="43.0274420000" lon="0.2431400000"><ele>821</ele><time>2026-03-20T14:18:37Z</time></trkpt>
<trkpt lat="43.0274670000" lon="0.2431520000"><ele>821</ele><time>2026-03-20T14:18:39Z</time></trkpt>
<trkpt lat="43.0274870000" lon="0.2431620000"><ele>820</ele><time>2026-03-20T14:18:41Z</time></trkpt>
<trkpt lat="43.0275070000" lon="0.2431750000"><ele>820</ele><time>2026-03-20T14:18:43Z</time></trkpt>
<trkpt lat="43.0275270000" lon="0.2431870000"><ele>820</ele><time>2026-03-20T14:18:45Z</time></trkpt>
<trkpt lat="43.0275420000" lon="0.2432070000"><ele>819</ele><time>2026-03-20T14:18:47Z</time></trkpt>
<trkpt lat="43.0275570000" lon="0.2432220000"><ele>819</ele><time>2026-03-20T14:18:49Z</time></trkpt>
<trkpt lat="43.0275770000" lon="0.2432320000"><ele>819</ele><time>2026-03-20T14:18:51Z</time></trkpt>
<trkpt lat="43.0276050000" lon="0.2432450000"><ele>818</ele><time>2026-03-20T14:18:53Z</time></trkpt>
<trkpt lat="43.0276320000" lon="0.2432500000"><ele>818</ele><time>2026-03-20T14:18:55Z</time></trkpt>
<trkpt lat="43.0276620000" lon="0.2432620000"><ele>818</ele><time>2026-03-20T14:18:57Z</time></trkpt>
<trkpt lat="43.0276900000" lon="0.2432720000"><ele>818</ele><time>2026-03-20T14:18:59Z</time></trkpt>
<trkpt lat="43.0277170000" lon="0.2432900000"><ele>817</ele><time>2026-03-20T14:19:01Z</time></trkpt>
<trkpt lat="43.0277420000" lon="0.2433000000"><ele>817</ele><time>2026-03-20T14:19:03Z</time></trkpt>
<trkpt lat="43.0277600000" lon="0.2433120000"><ele>817</ele><time>2026-03-20T14:19:05Z</time></trkpt>
<trkpt lat="43.0277770000" lon="0.2433220000"><ele>816</ele><time>2026-03-20T14:19:07Z</time></trkpt>
<trkpt lat="43.0277950000" lon="0.2433350000"><ele>816</ele><time>2026-03-20T14:19:09Z</time></trkpt>
<trkpt lat="43.0278120000" lon="0.2433450000"><ele>816</ele><time>2026-03-20T14:19:11Z</time></trkpt>
<trkpt lat="43.0278320000" lon="0.2433620000"><ele>815</ele><time>2026-03-20T14:19:14Z</time></trkpt>
<trkpt lat="43.0278470000" lon="0.2433720000"><ele>815</ele><time>2026-03-20T14:19:16Z</time></trkpt>
<trkpt lat="43.0278670000" lon="0.2433820000"><ele>815</ele><time>2026-03-20T14:19:18Z</time></trkpt>
<trkpt lat="43.0278870000" lon="0.2433920000"><ele>814</ele><time>2026-03-20T14:19:20Z</time></trkpt>
<trkpt lat="43.0279050000" lon="0.2433970000"><ele>814</ele><time>2026-03-20T14:19:22Z</time></trkpt>
<trkpt lat="43.0279270000" lon="0.2434120000"><ele>814</ele><time>2026-03-20T14:19:24Z</time></trkpt>
<trkpt lat="43.0279500000" lon="0.2434270000"><ele>813</ele><time>2026-03-20T14:19:26Z</time></trkpt>
<trkpt lat="43.0279700000" lon="0.2434420000"><ele>813</ele><time>2026-03-20T14:19:28Z</time></trkpt>
<trkpt lat="43.0279900000" lon="0.2434520000"><ele>812</ele><time>2026-03-20T14:19:30Z</time></trkpt>
<trkpt lat="43.0280070000" lon="0.2434650000"><ele>812</ele><time>2026-03-20T14:19:32Z</time></trkpt>
<trkpt lat="43.0280270000" lon="0.2434800000"><ele>811</ele><time>2026-03-20T14:19:34Z</time></trkpt>
<trkpt lat="43.0280500000" lon="0.2434920000"><ele>811</ele><time>2026-03-20T14:19:36Z</time></trkpt>
<trkpt lat="43.0280700000" lon="0.2435070000"><ele>810</ele><time>2026-03-20T14:19:38Z</time></trkpt>
<trkpt lat="43.0280920000" lon="0.2435170000"><ele>810</ele><time>2026-03-20T14:19:40Z</time></trkpt>
<trkpt lat="43.0281120000" lon="0.2435320000"><ele>810</ele><time>2026-03-20T14:19:42Z</time></trkpt>
<trkpt lat="43.0281370000" lon="0.2435420000"><ele>809</ele><time>2026-03-20T14:19:44Z</time></trkpt>
<trkpt lat="43.0281600000" lon="0.2435480000"><ele>809</ele><time>2026-03-20T14:19:46Z</time></trkpt>
<trkpt lat="43.0281820000" lon="0.2435570000"><ele>809</ele><time>2026-03-20T14:19:48Z</time></trkpt>
<trkpt lat="43.0282050000" lon="0.2435700000"><ele>809</ele><time>2026-03-20T14:19:50Z</time></trkpt>
<trkpt lat="43.0282270000" lon="0.2435820000"><ele>808</ele><time>2026-03-20T14:19:52Z</time></trkpt>
<trkpt lat="43.0282470000" lon="0.2435970000"><ele>808</ele><time>2026-03-20T14:19:54Z</time></trkpt>
<trkpt lat="43.0282670000" lon="0.2436120000"><ele>807</ele><time>2026-03-20T14:19:56Z</time></trkpt>
<trkpt lat="43.0282820000" lon="0.2436270000"><ele>807</ele><time>2026-03-20T14:19:58Z</time></trkpt>
<trkpt lat="43.0282970000" lon="0.2436430000"><ele>807</ele><time>2026-03-20T14:20:00Z</time></trkpt>
<trkpt lat="43.0283170000" lon="0.2436570000"><ele>806</ele><time>2026-03-20T14:20:02Z</time></trkpt>
<trkpt lat="43.0283400000" lon="0.2436670000"><ele>806</ele><time>2026-03-20T14:20:04Z</time></trkpt>
<trkpt lat="43.0283620000" lon="0.2436770000"><ele>806</ele><time>2026-03-20T14:20:06Z</time></trkpt>
<trkpt lat="43.0283950000" lon="0.2436820000"><ele>805</ele><time>2026-03-20T14:20:08Z</time></trkpt>
<trkpt lat="43.0284270000" lon="0.2436920000"><ele>805</ele><time>2026-03-20T14:20:10Z</time></trkpt>
<trkpt lat="43.0284470000" lon="0.2437070000"><ele>805</ele><time>2026-03-20T14:20:12Z</time></trkpt>
<trkpt lat="43.0284670000" lon="0.2437220000"><ele>804</ele><time>2026-03-20T14:20:14Z</time></trkpt>
<trkpt lat="43.0284920000" lon="0.2437350000"><ele>804</ele><time>2026-03-20T14:20:16Z</time></trkpt>
<trkpt lat="43.0285120000" lon="0.2437450000"><ele>804</ele><time>2026-03-20T14:20:18Z</time></trkpt>
<trkpt lat="43.0285370000" lon="0.2437550000"><ele>803</ele><time>2026-03-20T14:20:20Z</time></trkpt>
<trkpt lat="43.0285600000" lon="0.2437650000"><ele>803</ele><time>2026-03-20T14:20:22Z</time></trkpt>
<trkpt lat="43.0285770000" lon="0.2437730000"><ele>803</ele><time>2026-03-20T14:20:24Z</time></trkpt>
<trkpt lat="43.0286020000" lon="0.2437830000"><ele>802</ele><time>2026-03-20T14:20:26Z</time></trkpt>
<trkpt lat="43.0286220000" lon="0.2437970000"><ele>802</ele><time>2026-03-20T14:20:28Z</time></trkpt>
<trkpt lat="43.0286420000" lon="0.2438120000"><ele>802</ele><time>2026-03-20T14:20:30Z</time></trkpt>
<trkpt lat="43.0286570000" lon="0.2438270000"><ele>801</ele><time>2026-03-20T14:20:32Z</time></trkpt>
<trkpt lat="43.0286750000" lon="0.2438420000"><ele>801</ele><time>2026-03-20T14:20:34Z</time></trkpt>
<trkpt lat="43.0286920000" lon="0.2438550000"><ele>800</ele><time>2026-03-20T14:20:36Z</time></trkpt>
<trkpt lat="43.0287120000" lon="0.2438670000"><ele>800</ele><time>2026-03-20T14:20:38Z</time></trkpt>
<trkpt lat="43.0287320000" lon="0.2438800000"><ele>800</ele><time>2026-03-20T14:20:40Z</time></trkpt>
<trkpt lat="43.0287550000" lon="0.2438970000"><ele>799</ele><time>2026-03-20T14:20:43Z</time></trkpt>
<trkpt lat="43.0287720000" lon="0.2439070000"><ele>799</ele><time>2026-03-20T14:20:45Z</time></trkpt>
<trkpt lat="43.0287900000" lon="0.2439180000"><ele>799</ele><time>2026-03-20T14:20:47Z</time></trkpt>
<trkpt lat="43.0288070000" lon="0.2439300000"><ele>798</ele><time>2026-03-20T14:20:49Z</time></trkpt>
<trkpt lat="43.0288270000" lon="0.2439400000"><ele>798</ele><time>2026-03-20T14:20:51Z</time></trkpt>
<trkpt lat="43.0288470000" lon="0.2439470000"><ele>798</ele><time>2026-03-20T14:20:53Z</time></trkpt>
<trkpt lat="43.0288670000" lon="0.2439570000"><ele>797</ele><time>2026-03-20T14:20:55Z</time></trkpt>
<trkpt lat="43.0288900000" lon="0.2439630000"><ele>797</ele><time>2026-03-20T14:20:57Z</time></trkpt>
<trkpt lat="43.0289070000" lon="0.2439770000"><ele>797</ele><time>2026-03-20T14:20:59Z</time></trkpt>
<trkpt lat="43.0289320000" lon="0.2439920000"><ele>796</ele><time>2026-03-20T14:21:01Z</time></trkpt>
<trkpt lat="43.0289520000" lon="0.2439970000"><ele>796</ele><time>2026-03-20T14:21:03Z</time></trkpt>
<trkpt lat="43.0289700000" lon="0.2440050000"><ele>796</ele><time>2026-03-20T14:21:05Z</time></trkpt>
<trkpt lat="43.0289900000" lon="0.2440120000"><ele>796</ele><time>2026-03-20T14:21:07Z</time></trkpt>
<trkpt lat="43.0290070000" lon="0.2440250000"><ele>795</ele><time>2026-03-20T14:21:09Z</time></trkpt>
<trkpt lat="43.0290270000" lon="0.2440370000"><ele>795</ele><time>2026-03-20T14:21:11Z</time></trkpt>
<trkpt lat="43.0290470000" lon="0.2440470000"><ele>795</ele><time>2026-03-20T14:21:13Z</time></trkpt>
<trkpt lat="43.0290680000" lon="0.2440530000"><ele>794</ele><time>2026-03-20T14:21:15Z</time></trkpt>
<trkpt lat="43.0290920000" lon="0.2440650000"><ele>794</ele><time>2026-03-20T14:21:17Z</time></trkpt>
<trkpt lat="43.0291170000" lon="0.2440770000"><ele>794</ele><time>2026-03-20T14:21:19Z</time></trkpt>
<trkpt lat="43.0291420000" lon="0.2440870000"><ele>794</ele><time>2026-03-20T14:21:21Z</time></trkpt>
<trkpt lat="43.0291670000" lon="0.2440970000"><ele>794</ele><time>2026-03-20T14:21:23Z</time></trkpt>
<trkpt lat="43.0291920000" lon="0.2441070000"><ele>794</ele><time>2026-03-20T14:21:25Z</time></trkpt>
<trkpt lat="43.0292120000" lon="0.2441200000"><ele>793</ele><time>2026-03-20T14:21:27Z</time></trkpt>
<trkpt lat="43.0292370000" lon="0.2441320000"><ele>793</ele><time>2026-03-20T14:21:29Z</time></trkpt>
<trkpt lat="43.0292620000" lon="0.2441450000"><ele>793</ele><time>2026-03-20T14:21:31Z</time></trkpt>
<trkpt lat="43.0292870000" lon="0.2441520000"><ele>793</ele><time>2026-03-20T14:21:33Z</time></trkpt>
<trkpt lat="43.0293150000" lon="0.2441620000"><ele>792</ele><time>2026-03-20T14:21:35Z</time></trkpt>
<trkpt lat="43.0293370000" lon="0.2441750000"><ele>792</ele><time>2026-03-20T14:21:37Z</time></trkpt>
<trkpt lat="43.0293570000" lon="0.2441880000"><ele>792</ele><time>2026-03-20T14:21:39Z</time></trkpt>
<trkpt lat="43.0293770000" lon="0.2442070000"><ele>791</ele><time>2026-03-20T14:21:41Z</time></trkpt>
<trkpt lat="43.0293920000" lon="0.2442220000"><ele>791</ele><time>2026-03-20T14:21:43Z</time></trkpt>
<trkpt lat="43.0294070000" lon="0.2442420000"><ele>791</ele><time>2026-03-20T14:21:45Z</time></trkpt>
<trkpt lat="43.0294250000" lon="0.2442620000"><ele>790</ele><time>2026-03-20T14:21:47Z</time></trkpt>
<trkpt lat="43.0294420000" lon="0.2442870000"><ele>790</ele><time>2026-03-20T14:21:49Z</time></trkpt>
<trkpt lat="43.0294570000" lon="0.2443050000"><ele>790</ele><time>2026-03-20T14:21:51Z</time></trkpt>
<trkpt lat="43.0294770000" lon="0.2443270000"><ele>789</ele><time>2026-03-20T14:21:53Z</time></trkpt>
<trkpt lat="43.0294900000" lon="0.2443470000"><ele>789</ele><time>2026-03-20T14:21:55Z</time></trkpt>
<trkpt lat="43.0295050000" lon="0.2443720000"><ele>789</ele><time>2026-03-20T14:21:57Z</time></trkpt>
<trkpt lat="43.0295220000" lon="0.2443920000"><ele>788</ele><time>2026-03-20T14:21:59Z</time></trkpt>
<trkpt lat="43.0295350000" lon="0.2444150000"><ele>788</ele><time>2026-03-20T14:22:01Z</time></trkpt>
<trkpt lat="43.0295520000" lon="0.2444420000"><ele>788</ele><time>2026-03-20T14:22:03Z</time></trkpt>
<trkpt lat="43.0295650000" lon="0.2444680000"><ele>787</ele><time>2026-03-20T14:22:05Z</time></trkpt>
<trkpt lat="43.0295770000" lon="0.2444920000"><ele>787</ele><time>2026-03-20T14:22:07Z</time></trkpt>
<trkpt lat="43.0295900000" lon="0.2445150000"><ele>786</ele><time>2026-03-20T14:22:09Z</time></trkpt>
<trkpt lat="43.0296000000" lon="0.2445370000"><ele>786</ele><time>2026-03-20T14:22:11Z</time></trkpt>
<trkpt lat="43.0296120000" lon="0.2445620000"><ele>786</ele><time>2026-03-20T14:22:13Z</time></trkpt>
<trkpt lat="43.0296300000" lon="0.2445870000"><ele>785</ele><time>2026-03-20T14:22:15Z</time></trkpt>
<trkpt lat="43.0296420000" lon="0.2446080000"><ele>785</ele><time>2026-03-20T14:22:17Z</time></trkpt>
<trkpt lat="43.0296550000" lon="0.2446320000"><ele>785</ele><time>2026-03-20T14:22:19Z</time></trkpt>
<trkpt lat="43.0296670000" lon="0.2446580000"><ele>784</ele><time>2026-03-20T14:22:21Z</time></trkpt>
<trkpt lat="43.0296800000" lon="0.2446850000"><ele>784</ele><time>2026-03-20T14:22:23Z</time></trkpt>
<trkpt lat="43.0296870000" lon="0.2447120000"><ele>784</ele><time>2026-03-20T14:22:25Z</time></trkpt>
<trkpt lat="43.0297020000" lon="0.2447370000"><ele>783</ele><time>2026-03-20T14:22:27Z</time></trkpt>
<trkpt lat="43.0297170000" lon="0.2447620000"><ele>783</ele><time>2026-03-20T14:22:29Z</time></trkpt>
<trkpt lat="43.0297320000" lon="0.2447900000"><ele>783</ele><time>2026-03-20T14:22:31Z</time></trkpt>
<trkpt lat="43.0297430000" lon="0.2448120000"><ele>783</ele><time>2026-03-20T14:22:33Z</time></trkpt>
<trkpt lat="43.0297520000" lon="0.2448420000"><ele>782</ele><time>2026-03-20T14:22:35Z</time></trkpt>
<trkpt lat="43.0297600000" lon="0.2448720000"><ele>782</ele><time>2026-03-20T14:22:37Z</time></trkpt>
<trkpt lat="43.0297670000" lon="0.2449020000"><ele>782</ele><time>2026-03-20T14:22:39Z</time></trkpt>
<trkpt lat="43.0297770000" lon="0.2449300000"><ele>781</ele><time>2026-03-20T14:22:41Z</time></trkpt>
<trkpt lat="43.0297920000" lon="0.2449550000"><ele>781</ele><time>2026-03-20T14:22:43Z</time></trkpt>
<trkpt lat="43.0298100000" lon="0.2449770000"><ele>781</ele><time>2026-03-20T14:22:45Z</time></trkpt>
<trkpt lat="43.0298220000" lon="0.2450070000"><ele>781</ele><time>2026-03-20T14:22:47Z</time></trkpt>
<trkpt lat="43.0298320000" lon="0.2450370000"><ele>780</ele><time>2026-03-20T14:22:49Z</time></trkpt>
<trkpt lat="43.0298370000" lon="0.2450620000"><ele>780</ele><time>2026-03-20T14:22:51Z</time></trkpt>
<trkpt lat="43.0298470000" lon="0.2450900000"><ele>780</ele><time>2026-03-20T14:22:53Z</time></trkpt>
<trkpt lat="43.0298570000" lon="0.2451120000"><ele>780</ele><time>2026-03-20T14:22:55Z</time></trkpt>
<trkpt lat="43.0298670000" lon="0.2451420000"><ele>779</ele><time>2026-03-20T14:22:57Z</time></trkpt>
<trkpt lat="43.0298770000" lon="0.2451680000"><ele>779</ele><time>2026-03-20T14:22:59Z</time></trkpt>
<trkpt lat="43.0298850000" lon="0.2451970000"><ele>779</ele><time>2026-03-20T14:23:01Z</time></trkpt>
<trkpt lat="43.0298900000" lon="0.2452270000"><ele>778</ele><time>2026-03-20T14:23:03Z</time></trkpt>
<trkpt lat="43.0298920000" lon="0.2452600000"><ele>778</ele><time>2026-03-20T14:23:05Z</time></trkpt>
<trkpt lat="43.0299020000" lon="0.2452900000"><ele>778</ele><time>2026-03-20T14:23:07Z</time></trkpt>
<trkpt lat="43.0299050000" lon="0.2453270000"><ele>777</ele><time>2026-03-20T14:23:09Z</time></trkpt>
<trkpt lat="43.0299100000" lon="0.2453520000"><ele>777</ele><time>2026-03-20T14:23:11Z</time></trkpt>
<trkpt lat="43.0299170000" lon="0.2453770000"><ele>777</ele><time>2026-03-20T14:23:13Z</time></trkpt>
<trkpt lat="43.0299250000" lon="0.2454070000"><ele>777</ele><time>2026-03-20T14:23:15Z</time></trkpt>
<trkpt lat="43.0299350000" lon="0.2454370000"><ele>776</ele><time>2026-03-20T14:23:17Z</time></trkpt>
<trkpt lat="43.0299470000" lon="0.2454650000"><ele>776</ele><time>2026-03-20T14:23:19Z</time></trkpt>
<trkpt lat="43.0299570000" lon="0.2454930000"><ele>776</ele><time>2026-03-20T14:23:21Z</time></trkpt>
<trkpt lat="43.0299670000" lon="0.2455250000"><ele>776</ele><time>2026-03-20T14:23:23Z</time></trkpt>
<trkpt lat="43.0299720000" lon="0.2455520000"><ele>775</ele><time>2026-03-20T14:23:25Z</time></trkpt>
<trkpt lat="43.0299770000" lon="0.2455870000"><ele>775</ele><time>2026-03-20T14:23:27Z</time></trkpt>
<trkpt lat="43.0299820000" lon="0.2456120000"><ele>775</ele><time>2026-03-20T14:23:29Z</time></trkpt>
<trkpt lat="43.0299900000" lon="0.2456420000"><ele>774</ele><time>2026-03-20T14:23:31Z</time></trkpt>
<trkpt lat="43.0299950000" lon="0.2456700000"><ele>774</ele><time>2026-03-20T14:23:33Z</time></trkpt>
<trkpt lat="43.0300020000" lon="0.2457000000"><ele>774</ele><time>2026-03-20T14:23:35Z</time></trkpt>
<trkpt lat="43.0300120000" lon="0.2457270000"><ele>774</ele><time>2026-03-20T14:23:37Z</time></trkpt>
<trkpt lat="43.0300200000" lon="0.2457570000"><ele>774</ele><time>2026-03-20T14:23:39Z</time></trkpt>
<trkpt lat="43.0300300000" lon="0.2457850000"><ele>773</ele><time>2026-03-20T14:23:41Z</time></trkpt>
<trkpt lat="43.0300350000" lon="0.2458170000"><ele>773</ele><time>2026-03-20T14:23:43Z</time></trkpt>
<trkpt lat="43.0300420000" lon="0.2458450000"><ele>773</ele><time>2026-03-20T14:23:45Z</time></trkpt>
<trkpt lat="43.0300420000" lon="0.2458720000"><ele>772</ele><time>2026-03-20T14:23:47Z</time></trkpt>
<trkpt lat="43.0300420000" lon="0.2459020000"><ele>772</ele><time>2026-03-20T14:23:49Z</time></trkpt>
<trkpt lat="43.0300420000" lon="0.2459300000"><ele>772</ele><time>2026-03-20T14:23:51Z</time></trkpt>
<trkpt lat="43.0300450000" lon="0.2459600000"><ele>771</ele><time>2026-03-20T14:23:53Z</time></trkpt>
<trkpt lat="43.0300520000" lon="0.2459880000"><ele>771</ele><time>2026-03-20T14:23:55Z</time></trkpt>
<trkpt lat="43.0300670000" lon="0.2460220000"><ele>771</ele><time>2026-03-20T14:23:57Z</time></trkpt>
<trkpt lat="43.0300770000" lon="0.2460520000"><ele>771</ele><time>2026-03-20T14:23:59Z</time></trkpt>
<trkpt lat="43.0300850000" lon="0.2460820000"><ele>770</ele><time>2026-03-20T14:24:01Z</time></trkpt>
<trkpt lat="43.0300920000" lon="0.2461100000"><ele>770</ele><time>2026-03-20T14:24:03Z</time></trkpt>
<trkpt lat="43.0301020000" lon="0.2461370000"><ele>770</ele><time>2026-03-20T14:24:05Z</time></trkpt>
<trkpt lat="43.0301100000" lon="0.2461670000"><ele>770</ele><time>2026-03-20T14:24:07Z</time></trkpt>
<trkpt lat="43.0301170000" lon="0.2461920000"><ele>769</ele><time>2026-03-20T14:24:09Z</time></trkpt>
<trkpt lat="43.0301270000" lon="0.2462220000"><ele>769</ele><time>2026-03-20T14:24:11Z</time></trkpt>
<trkpt lat="43.0301320000" lon="0.2462470000"><ele>769</ele><time>2026-03-20T14:24:13Z</time></trkpt>
<trkpt lat="43.0301420000" lon="0.2462720000"><ele>768</ele><time>2026-03-20T14:24:15Z</time></trkpt>
<trkpt lat="43.0301500000" lon="0.2462970000"><ele>768</ele><time>2026-03-20T14:24:17Z</time></trkpt>
<trkpt lat="43.0301570000" lon="0.2463220000"><ele>768</ele><time>2026-03-20T14:24:19Z</time></trkpt>
<trkpt lat="43.0301650000" lon="0.2463500000"><ele>768</ele><time>2026-03-20T14:24:21Z</time></trkpt>
<trkpt lat="43.0301770000" lon="0.2463770000"><ele>767</ele><time>2026-03-20T14:24:23Z</time></trkpt>
<trkpt lat="43.0301900000" lon="0.2464020000"><ele>767</ele><time>2026-03-20T14:24:25Z</time></trkpt>
<trkpt lat="43.0301970000" lon="0.2464320000"><ele>767</ele><time>2026-03-20T14:24:27Z</time></trkpt>
<trkpt lat="43.0302070000" lon="0.2464600000"><ele>766</ele><time>2026-03-20T14:24:29Z</time></trkpt>
<trkpt lat="43.0302170000" lon="0.2464900000"><ele>766</ele><time>2026-03-20T14:24:31Z</time></trkpt>
<trkpt lat="43.0302270000" lon="0.2465170000"><ele>766</ele><time>2026-03-20T14:24:33Z</time></trkpt>
<trkpt lat="43.0302400000" lon="0.2465430000"><ele>765</ele><time>2026-03-20T14:24:35Z</time></trkpt>
<trkpt lat="43.0302500000" lon="0.2465700000"><ele>765</ele><time>2026-03-20T14:24:37Z</time></trkpt>
<trkpt lat="43.0302620000" lon="0.2465970000"><ele>765</ele><time>2026-03-20T14:24:39Z</time></trkpt>
<trkpt lat="43.0302770000" lon="0.2466220000"><ele>765</ele><time>2026-03-20T14:24:41Z</time></trkpt>
<trkpt lat="43.0302900000" lon="0.2466450000"><ele>764</ele><time>2026-03-20T14:24:43Z</time></trkpt>
<trkpt lat="43.0303050000" lon="0.2466670000"><ele>764</ele><time>2026-03-20T14:24:45Z</time></trkpt>
<trkpt lat="43.0303170000" lon="0.2466870000"><ele>764</ele><time>2026-03-20T14:24:47Z</time></trkpt>
<trkpt lat="43.0303370000" lon="0.2467120000"><ele>763</ele><time>2026-03-20T14:24:49Z</time></trkpt>
<trkpt lat="43.0303520000" lon="0.2467320000"><ele>763</ele><time>2026-03-20T14:24:51Z</time></trkpt>
<trkpt lat="43.0303670000" lon="0.2467570000"><ele>763</ele><time>2026-03-20T14:24:53Z</time></trkpt>
<trkpt lat="43.0303820000" lon="0.2467800000"><ele>762</ele><time>2026-03-20T14:24:55Z</time></trkpt>
<trkpt lat="43.0303970000" lon="0.2468020000"><ele>762</ele><time>2026-03-20T14:24:57Z</time></trkpt>
<trkpt lat="43.0304150000" lon="0.2468220000"><ele>762</ele><time>2026-03-20T14:24:59Z</time></trkpt>
<trkpt lat="43.0304330000" lon="0.2468470000"><ele>762</ele><time>2026-03-20T14:25:02Z</time></trkpt>
<trkpt lat="43.0304570000" lon="0.2468600000"><ele>761</ele><time>2026-03-20T14:25:04Z</time></trkpt>
<trkpt lat="43.0304820000" lon="0.2468650000"><ele>761</ele><time>2026-03-20T14:25:06Z</time></trkpt>
<trkpt lat="43.0305020000" lon="0.2468650000"><ele>761</ele><time>2026-03-20T14:25:08Z</time></trkpt>
<trkpt lat="43.0305350000" lon="0.2468500000"><ele>760</ele><time>2026-03-20T14:25:11Z</time></trkpt>
<trkpt lat="43.0305570000" lon="0.2468170000"><ele>760</ele><time>2026-03-20T14:25:13Z</time></trkpt>
<trkpt lat="43.0305820000" lon="0.2467870000"><ele>760</ele><time>2026-03-20T14:25:15Z</time></trkpt>
<trkpt lat="43.0306020000" lon="0.2467650000"><ele>760</ele><time>2026-03-20T14:25:17Z</time></trkpt>
<trkpt lat="43.0306170000" lon="0.2467500000"><ele>759</ele><time>2026-03-20T14:25:19Z</time></trkpt>
<trkpt lat="43.0306150000" lon="0.2467770000"><ele>759</ele><time>2026-03-20T14:25:23Z</time></trkpt>
<trkpt lat="43.0306370000" lon="0.2467820000"><ele>759</ele><time>2026-03-20T14:26:15Z</time></trkpt>
<trkpt lat="43.0306570000" lon="0.2467770000"><ele>759</ele><time>2026-03-20T14:26:17Z</time></trkpt>
<trkpt lat="43.0306720000" lon="0.2467650000"><ele>759</ele><time>2026-03-20T14:26:19Z</time></trkpt>
<trkpt lat="43.0306920000" lon="0.2467420000"><ele>759</ele><time>2026-03-20T14:26:22Z</time></trkpt>
<trkpt lat="43.0307120000" lon="0.2467120000"><ele>759</ele><time>2026-03-20T14:26:25Z</time></trkpt>
<trkpt lat="43.0307420000" lon="0.2466970000"><ele>759</ele><time>2026-03-20T14:26:27Z</time></trkpt>
<trkpt lat="43.0307600000" lon="0.2466870000"><ele>758</ele><time>2026-03-20T14:26:29Z</time></trkpt>
<trkpt lat="43.0307950000" lon="0.2466720000"><ele>758</ele><time>2026-03-20T14:26:32Z</time></trkpt>
<trkpt lat="43.0308000000" lon="0.2466420000"><ele>758</ele><time>2026-03-20T14:26:33Z</time></trkpt>
<trkpt lat="43.0308250000" lon="0.2466220000"><ele>758</ele><time>2026-03-20T14:26:35Z</time></trkpt>
<trkpt lat="43.0308420000" lon="0.2466000000"><ele>758</ele><time>2026-03-20T14:26:37Z</time></trkpt>
<trkpt lat="43.0308650000" lon="0.2465770000"><ele>758</ele><time>2026-03-20T14:26:39Z</time></trkpt>
<trkpt lat="43.0308830000" lon="0.2465530000"><ele>758</ele><time>2026-03-20T14:26:41Z</time></trkpt>
<trkpt lat="43.0309120000" lon="0.2465370000"><ele>758</ele><time>2026-03-20T14:26:43Z</time></trkpt>
<trkpt lat="43.0309320000" lon="0.2465250000"><ele>758</ele><time>2026-03-20T14:26:46Z</time></trkpt>
<trkpt lat="43.0309570000" lon="0.2465070000"><ele>758</ele><time>2026-03-20T14:26:50Z</time></trkpt>
<trkpt lat="43.0309800000" lon="0.2464970000"><ele>758</ele><time>2026-03-20T14:26:52Z</time></trkpt>
<trkpt lat="43.0310020000" lon="0.2464900000"><ele>758</ele><time>2026-03-20T14:26:54Z</time></trkpt>
<trkpt lat="43.0310170000" lon="0.2464720000"><ele>758</ele><time>2026-03-20T14:26:56Z</time></trkpt>
<trkpt lat="43.0310370000" lon="0.2464620000"><ele>757</ele><time>2026-03-20T14:26:58Z</time></trkpt>
<trkpt lat="43.0310570000" lon="0.2464520000"><ele>757</ele><time>2026-03-20T14:27:00Z</time></trkpt>
<trkpt lat="43.0310800000" lon="0.2464400000"><ele>757</ele><time>2026-03-20T14:27:02Z</time></trkpt>
<trkpt lat="43.0311050000" lon="0.2464270000"><ele>757</ele><time>2026-03-20T14:27:04Z</time></trkpt>
<trkpt lat="43.0311320000" lon="0.2464170000"><ele>757</ele><time>2026-03-20T14:27:06Z</time></trkpt>
<trkpt lat="43.0311520000" lon="0.2464050000"><ele>757</ele><time>2026-03-20T14:27:08Z</time></trkpt>
<trkpt lat="43.0311700000" lon="0.2463920000"><ele>757</ele><time>2026-03-20T14:27:10Z</time></trkpt>
<trkpt lat="43.0311870000" lon="0.2463770000"><ele>756</ele><time>2026-03-20T14:27:12Z</time></trkpt>
<trkpt lat="43.0312120000" lon="0.2463620000"><ele>756</ele><time>2026-03-20T14:27:14Z</time></trkpt>
<trkpt lat="43.0312350000" lon="0.2463450000"><ele>756</ele><time>2026-03-20T14:27:16Z</time></trkpt>
<trkpt lat="43.0312570000" lon="0.2463370000"><ele>756</ele><time>2026-03-20T14:27:18Z</time></trkpt>
<trkpt lat="43.0312770000" lon="0.2463270000"><ele>756</ele><time>2026-03-20T14:27:20Z</time></trkpt>
<trkpt lat="43.0312970000" lon="0.2463120000"><ele>756</ele><time>2026-03-20T14:27:22Z</time></trkpt>
<trkpt lat="43.0313200000" lon="0.2462970000"><ele>755</ele><time>2026-03-20T14:27:24Z</time></trkpt>
<trkpt lat="43.0313400000" lon="0.2462850000"><ele>755</ele><time>2026-03-20T14:27:26Z</time></trkpt>
<trkpt lat="43.0313670000" lon="0.2462720000"><ele>755</ele><time>2026-03-20T14:27:28Z</time></trkpt>
<trkpt lat="43.0313920000" lon="0.2462550000"><ele>755</ele><time>2026-03-20T14:27:30Z</time></trkpt>
<trkpt lat="43.0314170000" lon="0.2462470000"><ele>755</ele><time>2026-03-20T14:27:32Z</time></trkpt>
<trkpt lat="43.0314420000" lon="0.2462320000"><ele>755</ele><time>2026-03-20T14:27:34Z</time></trkpt>
<trkpt lat="43.0314620000" lon="0.2462120000"><ele>755</ele><time>2026-03-20T14:27:36Z</time></trkpt>
<trkpt lat="43.0314870000" lon="0.2461970000"><ele>755</ele><time>2026-03-20T14:27:38Z</time></trkpt>
<trkpt lat="43.0315070000" lon="0.2461820000"><ele>755</ele><time>2026-03-20T14:27:40Z</time></trkpt>
<trkpt lat="43.0315370000" lon="0.2461670000"><ele>755</ele><time>2026-03-20T14:27:42Z</time></trkpt>
<trkpt lat="43.0315520000" lon="0.2461520000"><ele>755</ele><time>2026-03-20T14:27:44Z</time></trkpt>
<trkpt lat="43.0315720000" lon="0.2461370000"><ele>755</ele><time>2026-03-20T14:27:46Z</time></trkpt>
<trkpt lat="43.0315970000" lon="0.2461120000"><ele>755</ele><time>2026-03-20T14:27:48Z</time></trkpt>
<trkpt lat="43.0316100000" lon="0.2460870000"><ele>755</ele><time>2026-03-20T14:27:50Z</time></trkpt>
<trkpt lat="43.0316270000" lon="0.2460620000"><ele>755</ele><time>2026-03-20T14:27:52Z</time></trkpt>
<trkpt lat="43.0316520000" lon="0.2460470000"><ele>756</ele><time>2026-03-20T14:27:54Z</time></trkpt>
<trkpt lat="43.0316770000" lon="0.2460320000"><ele>755</ele><time>2026-03-20T14:27:56Z</time></trkpt>
<trkpt lat="43.0317020000" lon="0.2460220000"><ele>756</ele><time>2026-03-20T14:27:58Z</time></trkpt>
<trkpt lat="43.0317220000" lon="0.2460120000"><ele>756</ele><time>2026-03-20T14:28:00Z</time></trkpt>
<trkpt lat="43.0317420000" lon="0.2459980000"><ele>756</ele><time>2026-03-20T14:28:02Z</time></trkpt>
<trkpt lat="43.0317620000" lon="0.2459870000"><ele>756</ele><time>2026-03-20T14:28:04Z</time></trkpt>
<trkpt lat="43.0317870000" lon="0.2459770000"><ele>756</ele><time>2026-03-20T14:28:06Z</time></trkpt>
<trkpt lat="43.0318170000" lon="0.2459670000"><ele>756</ele><time>2026-03-20T14:28:08Z</time></trkpt>
<trkpt lat="43.0318400000" lon="0.2459520000"><ele>756</ele><time>2026-03-20T14:28:10Z</time></trkpt>
<trkpt lat="43.0318570000" lon="0.2459420000"><ele>756</ele><time>2026-03-20T14:28:12Z</time></trkpt>
<trkpt lat="43.0318820000" lon="0.2459370000"><ele>756</ele><time>2026-03-20T14:28:14Z</time></trkpt>
<trkpt lat="43.0319070000" lon="0.2459470000"><ele>756</ele><time>2026-03-20T14:28:16Z</time></trkpt>
<trkpt lat="43.0319320000" lon="0.2459500000"><ele>756</ele><time>2026-03-20T14:28:18Z</time></trkpt>
<trkpt lat="43.0319600000" lon="0.2459470000"><ele>756</ele><time>2026-03-20T14:28:20Z</time></trkpt>
<trkpt lat="43.0319870000" lon="0.2459570000"><ele>756</ele><time>2026-03-20T14:28:22Z</time></trkpt>
<trkpt lat="43.0320150000" lon="0.2459750000"><ele>756</ele><time>2026-03-20T14:28:24Z</time></trkpt>
<trkpt lat="43.0320400000" lon="0.2459920000"><ele>756</ele><time>2026-03-20T14:28:26Z</time></trkpt>
<trkpt lat="43.0320620000" lon="0.2460070000"><ele>756</ele><time>2026-03-20T14:28:28Z</time></trkpt>
<trkpt lat="43.0320820000" lon="0.2460250000"><ele>756</ele><time>2026-03-20T14:28:30Z</time></trkpt>
<trkpt lat="43.0320970000" lon="0.2460370000"><ele>756</ele><time>2026-03-20T14:28:32Z</time></trkpt>
<trkpt lat="43.0321170000" lon="0.2460520000"><ele>756</ele><time>2026-03-20T14:28:34Z</time></trkpt>
<trkpt lat="43.0321320000" lon="0.2460720000"><ele>756</ele><time>2026-03-20T14:28:36Z</time></trkpt>
<trkpt lat="43.0321500000" lon="0.2460820000"><ele>755</ele><time>2026-03-20T14:28:38Z</time></trkpt>
<trkpt lat="43.0321670000" lon="0.2461000000"><ele>755</ele><time>2026-03-20T14:28:40Z</time></trkpt>
<trkpt lat="43.0321820000" lon="0.2461150000"><ele>755</ele><time>2026-03-20T14:28:42Z</time></trkpt>
<trkpt lat="43.0322020000" lon="0.2461270000"><ele>754</ele><time>2026-03-20T14:28:44Z</time></trkpt>
<trkpt lat="43.0322200000" lon="0.2461370000"><ele>754</ele><time>2026-03-20T14:28:46Z</time></trkpt>
<trkpt lat="43.0322370000" lon="0.2461520000"><ele>754</ele><time>2026-03-20T14:28:48Z</time></trkpt>
<trkpt lat="43.0322570000" lon="0.2461700000"><ele>753</ele><time>2026-03-20T14:28:51Z</time></trkpt>
<trkpt lat="43.0322720000" lon="0.2461830000"><ele>753</ele><time>2026-03-20T14:28:53Z</time></trkpt>
<trkpt lat="43.0322900000" lon="0.2462020000"><ele>752</ele><time>2026-03-20T14:28:55Z</time></trkpt>
<trkpt lat="43.0323070000" lon="0.2462170000"><ele>752</ele><time>2026-03-20T14:28:57Z</time></trkpt>
<trkpt lat="43.0323320000" lon="0.2462320000"><ele>752</ele><time>2026-03-20T14:28:59Z</time></trkpt>
<trkpt lat="43.0323670000" lon="0.2462500000"><ele>752</ele><time>2026-03-20T14:29:01Z</time></trkpt>
<trkpt lat="43.0323970000" lon="0.2462620000"><ele>751</ele><time>2026-03-20T14:29:03Z</time></trkpt>
<trkpt lat="43.0324170000" lon="0.2462770000"><ele>751</ele><time>2026-03-20T14:29:05Z</time></trkpt>
<trkpt lat="43.0324400000" lon="0.2462970000"><ele>751</ele><time>2026-03-20T14:29:07Z</time></trkpt>
<trkpt lat="43.0324670000" lon="0.2463120000"><ele>751</ele><time>2026-03-20T14:29:09Z</time></trkpt>
<trkpt lat="43.0324900000" lon="0.2463270000"><ele>751</ele><time>2026-03-20T14:29:11Z</time></trkpt>
<trkpt lat="43.0325120000" lon="0.2463450000"><ele>750</ele><time>2026-03-20T14:29:13Z</time></trkpt>
<trkpt lat="43.0325320000" lon="0.2463620000"><ele>750</ele><time>2026-03-20T14:29:15Z</time></trkpt>
<trkpt lat="43.0325500000" lon="0.2463850000"><ele>750</ele><time>2026-03-20T14:29:17Z</time></trkpt>
<trkpt lat="43.0325620000" lon="0.2464020000"><ele>750</ele><time>2026-03-20T14:29:19Z</time></trkpt>
<trkpt lat="43.0325870000" lon="0.2464170000"><ele>750</ele><time>2026-03-20T14:29:21Z</time></trkpt>
<trkpt lat="43.0326020000" lon="0.2464370000"><ele>750</ele><time>2026-03-20T14:29:23Z</time></trkpt>
<trkpt lat="43.0326170000" lon="0.2464570000"><ele>750</ele><time>2026-03-20T14:29:25Z</time></trkpt>
<trkpt lat="43.0326320000" lon="0.2464770000"><ele>750</ele><time>2026-03-20T14:29:27Z</time></trkpt>
<trkpt lat="43.0326520000" lon="0.2464970000"><ele>749</ele><time>2026-03-20T14:29:29Z</time></trkpt>
<trkpt lat="43.0326720000" lon="0.2465170000"><ele>749</ele><time>2026-03-20T14:29:31Z</time></trkpt>
<trkpt lat="43.0326520000" lon="0.2465350000"><ele>749</ele><time>2026-03-20T14:29:37Z</time></trkpt>
<trkpt lat="43.0326670000" lon="0.2465620000"><ele>749</ele><time>2026-03-20T14:29:46Z</time></trkpt>
<trkpt lat="43.0326970000" lon="0.2465850000"><ele>749</ele><time>2026-03-20T14:29:48Z</time></trkpt>
<trkpt lat="43.0327250000" lon="0.2466120000"><ele>749</ele><time>2026-03-20T14:29:50Z</time></trkpt>
<trkpt lat="43.0327470000" lon="0.2466320000"><ele>749</ele><time>2026-03-20T14:29:52Z</time></trkpt>
<trkpt lat="43.0327670000" lon="0.2466520000"><ele>749</ele><time>2026-03-20T14:29:54Z</time></trkpt>
<trkpt lat="43.0327870000" lon="0.2466770000"><ele>749</ele><time>2026-03-20T14:29:56Z</time></trkpt>
<trkpt lat="43.0328100000" lon="0.2466980000"><ele>749</ele><time>2026-03-20T14:29:58Z</time></trkpt>
<trkpt lat="43.0328270000" lon="0.2467220000"><ele>748</ele><time>2026-03-20T14:30:00Z</time></trkpt>
<trkpt lat="43.0328420000" lon="0.2467520000"><ele>748</ele><time>2026-03-20T14:30:03Z</time></trkpt>
<trkpt lat="43.0328570000" lon="0.2467750000"><ele>748</ele><time>2026-03-20T14:30:05Z</time></trkpt>
<trkpt lat="43.0328800000" lon="0.2467970000"><ele>748</ele><time>2026-03-20T14:30:07Z</time></trkpt>
<trkpt lat="43.0329020000" lon="0.2468170000"><ele>748</ele><time>2026-03-20T14:30:09Z</time></trkpt>
<trkpt lat="43.0329300000" lon="0.2468270000"><ele>748</ele><time>2026-03-20T14:30:11Z</time></trkpt>
<trkpt lat="43.0329620000" lon="0.2468370000"><ele>748</ele><time>2026-03-20T14:30:13Z</time></trkpt>
<trkpt lat="43.0329870000" lon="0.2468470000"><ele>748</ele><time>2026-03-20T14:30:15Z</time></trkpt>
<trkpt lat="43.0330080000" lon="0.2468570000"><ele>748</ele><time>2026-03-20T14:30:17Z</time></trkpt>
<trkpt lat="43.0330350000" lon="0.2468670000"><ele>747</ele><time>2026-03-20T14:30:19Z</time></trkpt>
<trkpt lat="43.0330620000" lon="0.2468780000"><ele>747</ele><time>2026-03-20T14:30:21Z</time></trkpt>
<trkpt lat="43.0330900000" lon="0.2468870000"><ele>747</ele><time>2026-03-20T14:30:23Z</time></trkpt>
<trkpt lat="43.0331120000" lon="0.2468950000"><ele>747</ele><time>2026-03-20T14:30:25Z</time></trkpt>
<trkpt lat="43.0331350000" lon="0.2469020000"><ele>747</ele><time>2026-03-20T14:30:27Z</time></trkpt>
<trkpt lat="43.0331570000" lon="0.2469120000"><ele>747</ele><time>2026-03-20T14:30:29Z</time></trkpt>
<trkpt lat="43.0331820000" lon="0.2469170000"><ele>747</ele><time>2026-03-20T14:30:31Z</time></trkpt>
<trkpt lat="43.0332070000" lon="0.2469220000"><ele>746</ele><time>2026-03-20T14:30:33Z</time></trkpt>
<trkpt lat="43.0332330000" lon="0.2469270000"><ele>746</ele><time>2026-03-20T14:30:35Z</time></trkpt>
<trkpt lat="43.0332600000" lon="0.2469370000"><ele>746</ele><time>2026-03-20T14:30:37Z</time></trkpt>
<trkpt lat="43.0332820000" lon="0.2469450000"><ele>746</ele><time>2026-03-20T14:30:39Z</time></trkpt>
<trkpt lat="43.0333100000" lon="0.2469520000"><ele>745</ele><time>2026-03-20T14:30:41Z</time></trkpt>
<trkpt lat="43.0333350000" lon="0.2469570000"><ele>745</ele><time>2026-03-20T14:30:43Z</time></trkpt>
<trkpt lat="43.0333570000" lon="0.2469620000"><ele>745</ele><time>2026-03-20T14:30:45Z</time></trkpt>
<trkpt lat="43.0333870000" lon="0.2469680000"><ele>745</ele><time>2026-03-20T14:30:47Z</time></trkpt>
<trkpt lat="43.0334120000" lon="0.2469730000"><ele>744</ele><time>2026-03-20T14:30:49Z</time></trkpt>
<trkpt lat="43.0334320000" lon="0.2469800000"><ele>744</ele><time>2026-03-20T14:30:51Z</time></trkpt>
<trkpt lat="43.0334550000" lon="0.2469800000"><ele>744</ele><time>2026-03-20T14:30:53Z</time></trkpt>
<trkpt lat="43.0334770000" lon="0.2469800000"><ele>744</ele><time>2026-03-20T14:30:55Z</time></trkpt>
<trkpt lat="43.0335000000" lon="0.2469800000"><ele>744</ele><time>2026-03-20T14:30:57Z</time></trkpt>
<trkpt lat="43.0335200000" lon="0.2469800000"><ele>743</ele><time>2026-03-20T14:30:59Z</time></trkpt>
<trkpt lat="43.0335400000" lon="0.2469820000"><ele>743</ele><time>2026-03-20T14:31:01Z</time></trkpt>
<trkpt lat="43.0335620000" lon="0.2469820000"><ele>743</ele><time>2026-03-20T14:31:03Z</time></trkpt>
<trkpt lat="43.0335820000" lon="0.2469770000"><ele>743</ele><time>2026-03-20T14:31:05Z</time></trkpt>
<trkpt lat="43.0336020000" lon="0.2469680000"><ele>742</ele><time>2026-03-20T14:31:07Z</time></trkpt>
<trkpt lat="43.0336220000" lon="0.2469600000"><ele>742</ele><time>2026-03-20T14:31:09Z</time></trkpt>
<trkpt lat="43.0336470000" lon="0.2469500000"><ele>742</ele><time>2026-03-20T14:31:11Z</time></trkpt>
<trkpt lat="43.0336670000" lon="0.2469500000"><ele>742</ele><time>2026-03-20T14:31:13Z</time></trkpt>
<trkpt lat="43.0336870000" lon="0.2469500000"><ele>741</ele><time>2026-03-20T14:31:15Z</time></trkpt>
<trkpt lat="43.0337070000" lon="0.2469500000"><ele>741</ele><time>2026-03-20T14:31:17Z</time></trkpt>
<trkpt lat="43.0337270000" lon="0.2469520000"><ele>741</ele><time>2026-03-20T14:31:19Z</time></trkpt>
<trkpt lat="43.0337450000" lon="0.2469550000"><ele>740</ele><time>2026-03-20T14:31:21Z</time></trkpt>
<trkpt lat="43.0337620000" lon="0.2469450000"><ele>740</ele><time>2026-03-20T14:31:23Z</time></trkpt>
<trkpt lat="43.0337850000" lon="0.2469270000"><ele>740</ele><time>2026-03-20T14:31:25Z</time></trkpt>
<trkpt lat="43.0338100000" lon="0.2469170000"><ele>740</ele><time>2026-03-20T14:31:27Z</time></trkpt>
<trkpt lat="43.0338270000" lon="0.2469000000"><ele>739</ele><time>2026-03-20T14:31:29Z</time></trkpt>
<trkpt lat="43.0338520000" lon="0.2468820000"><ele>739</ele><time>2026-03-20T14:31:31Z</time></trkpt>
<trkpt lat="43.0338770000" lon="0.2468470000"><ele>739</ele><time>2026-03-20T14:31:33Z</time></trkpt>
<trkpt lat="43.0339020000" lon="0.2468170000"><ele>738</ele><time>2026-03-20T14:31:35Z</time></trkpt>
<trkpt lat="43.0339220000" lon="0.2467870000"><ele>738</ele><time>2026-03-20T14:31:37Z</time></trkpt>
<trkpt lat="43.0339370000" lon="0.2467700000"><ele>738</ele><time>2026-03-20T14:31:38Z</time></trkpt>
<trkpt lat="43.0339570000" lon="0.2467520000"><ele>738</ele><time>2026-03-20T14:31:40Z</time></trkpt>
<trkpt lat="43.0339750000" lon="0.2467370000"><ele>737</ele><time>2026-03-20T14:31:42Z</time></trkpt>
<trkpt lat="43.0339920000" lon="0.2467250000"><ele>737</ele><time>2026-03-20T14:31:44Z</time></trkpt>
<trkpt lat="43.0340120000" lon="0.2467120000"><ele>737</ele><time>2026-03-20T14:31:46Z</time></trkpt>
<trkpt lat="43.0340320000" lon="0.2467070000"><ele>737</ele><time>2026-03-20T14:31:48Z</time></trkpt>
<trkpt lat="43.0340520000" lon="0.2466970000"><ele>737</ele><time>2026-03-20T14:31:50Z</time></trkpt>
<trkpt lat="43.0340670000" lon="0.2466830000"><ele>737</ele><time>2026-03-20T14:31:52Z</time></trkpt>
<trkpt lat="43.0340870000" lon="0.2466720000"><ele>736</ele><time>2026-03-20T14:31:54Z</time></trkpt>
<trkpt lat="43.0341020000" lon="0.2466470000"><ele>736</ele><time>2026-03-20T14:31:56Z</time></trkpt>
<trkpt lat="43.0341220000" lon="0.2466200000"><ele>736</ele><time>2026-03-20T14:31:58Z</time></trkpt>
<trkpt lat="43.0341400000" lon="0.2466020000"><ele>736</ele><time>2026-03-20T14:32:00Z</time></trkpt>
<trkpt lat="43.0341570000" lon="0.2465820000"><ele>735</ele><time>2026-03-20T14:32:02Z</time></trkpt>
<trkpt lat="43.0341770000" lon="0.2465700000"><ele>735</ele><time>2026-03-20T14:32:04Z</time></trkpt>
<trkpt lat="43.0341970000" lon="0.2465570000"><ele>735</ele><time>2026-03-20T14:32:06Z</time></trkpt>
<trkpt lat="43.0342170000" lon="0.2465430000"><ele>734</ele><time>2026-03-20T14:32:08Z</time></trkpt>
<trkpt lat="43.0342400000" lon="0.2465320000"><ele>734</ele><time>2026-03-20T14:32:10Z</time></trkpt>
<trkpt lat="43.0342600000" lon="0.2465200000"><ele>734</ele><time>2026-03-20T14:32:12Z</time></trkpt>
<trkpt lat="43.0342770000" lon="0.2465020000"><ele>733</ele><time>2026-03-20T14:32:14Z</time></trkpt>
<trkpt lat="43.0343000000" lon="0.2464870000"><ele>733</ele><time>2026-03-20T14:32:16Z</time></trkpt>
<trkpt lat="43.0343200000" lon="0.2464720000"><ele>733</ele><time>2026-03-20T14:32:18Z</time></trkpt>
<trkpt lat="43.0343420000" lon="0.2464570000"><ele>733</ele><time>2026-03-20T14:32:20Z</time></trkpt>
<trkpt lat="43.0343620000" lon="0.2464400000"><ele>732</ele><time>2026-03-20T14:32:22Z</time></trkpt>
<trkpt lat="43.0343820000" lon="0.2464270000"><ele>732</ele><time>2026-03-20T14:32:24Z</time></trkpt>
<trkpt lat="43.0344020000" lon="0.2464130000"><ele>732</ele><time>2026-03-20T14:32:26Z</time></trkpt>
<trkpt lat="43.0344220000" lon="0.2463970000"><ele>732</ele><time>2026-03-20T14:32:28Z</time></trkpt>
<trkpt lat="43.0344420000" lon="0.2463820000"><ele>731</ele><time>2026-03-20T14:32:30Z</time></trkpt>
<trkpt lat="43.0344620000" lon="0.2463670000"><ele>731</ele><time>2026-03-20T14:32:32Z</time></trkpt>
<trkpt lat="43.0344820000" lon="0.2463500000"><ele>731</ele><time>2026-03-20T14:32:34Z</time></trkpt>
<trkpt lat="43.0345070000" lon="0.2463420000"><ele>731</ele><time>2026-03-20T14:32:36Z</time></trkpt>
<trkpt lat="43.0345350000" lon="0.2463370000"><ele>730</ele><time>2026-03-20T14:32:38Z</time></trkpt>
<trkpt lat="43.0345550000" lon="0.2463230000"><ele>730</ele><time>2026-03-20T14:32:40Z</time></trkpt>
<trkpt lat="43.0345750000" lon="0.2463150000"><ele>730</ele><time>2026-03-20T14:32:42Z</time></trkpt>
<trkpt lat="43.0345950000" lon="0.2463050000"><ele>729</ele><time>2026-03-20T14:32:44Z</time></trkpt>
<trkpt lat="43.0346120000" lon="0.2462870000"><ele>729</ele><time>2026-03-20T14:32:46Z</time></trkpt>
<trkpt lat="43.0346320000" lon="0.2462780000"><ele>729</ele><time>2026-03-20T14:32:50Z</time></trkpt>
<trkpt lat="43.0346420000" lon="0.2462570000"><ele>728</ele><time>2026-03-20T14:33:01Z</time></trkpt>
<trkpt lat="43.0346620000" lon="0.2462520000"><ele>728</ele><time>2026-03-20T14:33:03Z</time></trkpt>
<trkpt lat="43.0346870000" lon="0.2462420000"><ele>728</ele><time>2026-03-20T14:33:05Z</time></trkpt>
<trkpt lat="43.0347100000" lon="0.2462370000"><ele>728</ele><time>2026-03-20T14:33:07Z</time></trkpt>
<trkpt lat="43.0347320000" lon="0.2462170000"><ele>727</ele><time>2026-03-20T14:33:09Z</time></trkpt>
<trkpt lat="43.0347520000" lon="0.2461970000"><ele>727</ele><time>2026-03-20T14:33:11Z</time></trkpt>
<trkpt lat="43.0347700000" lon="0.2461750000"><ele>727</ele><time>2026-03-20T14:33:13Z</time></trkpt>
<trkpt lat="43.0347870000" lon="0.2461570000"><ele>727</ele><time>2026-03-20T14:33:15Z</time></trkpt>
<trkpt lat="43.0348070000" lon="0.2461420000"><ele>727</ele><time>2026-03-20T14:33:17Z</time></trkpt>
<trkpt lat="43.0348270000" lon="0.2461250000"><ele>726</ele><time>2026-03-20T14:33:19Z</time></trkpt>
<trkpt lat="43.0348520000" lon="0.2461120000"><ele>726</ele><time>2026-03-20T14:33:21Z</time></trkpt>
<trkpt lat="43.0348720000" lon="0.2461020000"><ele>726</ele><time>2026-03-20T14:33:23Z</time></trkpt>
<trkpt lat="43.0348920000" lon="0.2460870000"><ele>725</ele><time>2026-03-20T14:33:25Z</time></trkpt>
<trkpt lat="43.0349150000" lon="0.2460720000"><ele>725</ele><time>2026-03-20T14:33:27Z</time></trkpt>
<trkpt lat="43.0349350000" lon="0.2460600000"><ele>725</ele><time>2026-03-20T14:33:29Z</time></trkpt>
<trkpt lat="43.0349570000" lon="0.2460450000"><ele>725</ele><time>2026-03-20T14:33:31Z</time></trkpt>
<trkpt lat="43.0349770000" lon="0.2460320000"><ele>724</ele><time>2026-03-20T14:33:33Z</time></trkpt>
<trkpt lat="43.0349970000" lon="0.2460120000"><ele>724</ele><time>2026-03-20T14:33:35Z</time></trkpt>
<trkpt lat="43.0350170000" lon="0.2459970000"><ele>724</ele><time>2026-03-20T14:33:37Z</time></trkpt>
<trkpt lat="43.0350370000" lon="0.2459800000"><ele>723</ele><time>2026-03-20T14:33:39Z</time></trkpt>
<trkpt lat="43.0350570000" lon="0.2459620000"><ele>723</ele><time>2026-03-20T14:33:41Z</time></trkpt>
<trkpt lat="43.0350770000" lon="0.2459470000"><ele>723</ele><time>2026-03-20T14:33:43Z</time></trkpt>
<trkpt lat="43.0350970000" lon="0.2459320000"><ele>722</ele><time>2026-03-20T14:33:45Z</time></trkpt>
<trkpt lat="43.0351170000" lon="0.2459120000"><ele>722</ele><time>2026-03-20T14:33:47Z</time></trkpt>
<trkpt lat="43.0351330000" lon="0.2458970000"><ele>722</ele><time>2026-03-20T14:33:49Z</time></trkpt>
<trkpt lat="43.0351550000" lon="0.2458800000"><ele>722</ele><time>2026-03-20T14:33:51Z</time></trkpt>
<trkpt lat="43.0351750000" lon="0.2458630000"><ele>721</ele><time>2026-03-20T14:33:53Z</time></trkpt>
<trkpt lat="43.0351970000" lon="0.2458470000"><ele>721</ele><time>2026-03-20T14:33:55Z</time></trkpt>
<trkpt lat="43.0352120000" lon="0.2458270000"><ele>721</ele><time>2026-03-20T14:33:57Z</time></trkpt>
<trkpt lat="43.0352320000" lon="0.2458100000"><ele>720</ele><time>2026-03-20T14:33:59Z</time></trkpt>
<trkpt lat="43.0352520000" lon="0.2457920000"><ele>720</ele><time>2026-03-20T14:34:01Z</time></trkpt>
<trkpt lat="43.0352720000" lon="0.2457730000"><ele>720</ele><time>2026-03-20T14:34:03Z</time></trkpt>
<trkpt lat="43.0352920000" lon="0.2457620000"><ele>719</ele><time>2026-03-20T14:34:05Z</time></trkpt>
<trkpt lat="43.0353100000" lon="0.2457420000"><ele>719</ele><time>2026-03-20T14:34:07Z</time></trkpt>
<trkpt lat="43.0353270000" lon="0.2457300000"><ele>719</ele><time>2026-03-20T14:34:09Z</time></trkpt>
<trkpt lat="43.0353470000" lon="0.2457170000"><ele>719</ele><time>2026-03-20T14:34:11Z</time></trkpt>
<trkpt lat="43.0353670000" lon="0.2457070000"><ele>718</ele><time>2026-03-20T14:34:14Z</time></trkpt>
<trkpt lat="43.0353870000" lon="0.2456970000"><ele>718</ele><time>2026-03-20T14:34:16Z</time></trkpt>
<trkpt lat="43.0354050000" lon="0.2456870000"><ele>718</ele><time>2026-03-20T14:34:18Z</time></trkpt>
<trkpt lat="43.0354220000" lon="0.2456700000"><ele>717</ele><time>2026-03-20T14:34:20Z</time></trkpt>
<trkpt lat="43.0354420000" lon="0.2456470000"><ele>717</ele><time>2026-03-20T14:34:22Z</time></trkpt>
<trkpt lat="43.0354650000" lon="0.2456220000"><ele>717</ele><time>2026-03-20T14:34:24Z</time></trkpt>
<trkpt lat="43.0354820000" lon="0.2456050000"><ele>716</ele><time>2026-03-20T14:34:26Z</time></trkpt>
<trkpt lat="43.0354970000" lon="0.2455830000"><ele>716</ele><time>2026-03-20T14:34:28Z</time></trkpt>
<trkpt lat="43.0355170000" lon="0.2455670000"><ele>716</ele><time>2026-03-20T14:34:30Z</time></trkpt>
<trkpt lat="43.0355370000" lon="0.2455520000"><ele>715</ele><time>2026-03-20T14:34:32Z</time></trkpt>
<trkpt lat="43.0355570000" lon="0.2455320000"><ele>715</ele><time>2026-03-20T14:34:34Z</time></trkpt>
<trkpt lat="43.0355800000" lon="0.2455150000"><ele>715</ele><time>2026-03-20T14:34:36Z</time></trkpt>
<trkpt lat="43.0355970000" lon="0.2454970000"><ele>715</ele><time>2026-03-20T14:34:38Z</time></trkpt>
<trkpt lat="43.0356150000" lon="0.2454850000"><ele>714</ele><time>2026-03-20T14:34:40Z</time></trkpt>
<trkpt lat="43.0356350000" lon="0.2454720000"><ele>714</ele><time>2026-03-20T14:34:42Z</time></trkpt>
<trkpt lat="43.0356570000" lon="0.2454550000"><ele>714</ele><time>2026-03-20T14:34:44Z</time></trkpt>
<trkpt lat="43.0356800000" lon="0.2454420000"><ele>713</ele><time>2026-03-20T14:34:46Z</time></trkpt>
<trkpt lat="43.0356970000" lon="0.2454220000"><ele>713</ele><time>2026-03-20T14:34:48Z</time></trkpt>
<trkpt lat="43.0357170000" lon="0.2454050000"><ele>713</ele><time>2026-03-20T14:34:50Z</time></trkpt>
<trkpt lat="43.0357370000" lon="0.2453870000"><ele>713</ele><time>2026-03-20T14:34:52Z</time></trkpt>
<trkpt lat="43.0357550000" lon="0.2453720000"><ele>712</ele><time>2026-03-20T14:34:54Z</time></trkpt>
<trkpt lat="43.0357720000" lon="0.2453530000"><ele>712</ele><time>2026-03-20T14:34:56Z</time></trkpt>
<trkpt lat="43.0357920000" lon="0.2453370000"><ele>712</ele><time>2026-03-20T14:34:58Z</time></trkpt>
<trkpt lat="43.0358120000" lon="0.2453220000"><ele>711</ele><time>2026-03-20T14:35:00Z</time></trkpt>
<trkpt lat="43.0358370000" lon="0.2453030000"><ele>711</ele><time>2026-03-20T14:35:02Z</time></trkpt>
<trkpt lat="43.0358550000" lon="0.2452900000"><ele>711</ele><time>2026-03-20T14:35:04Z</time></trkpt>
<trkpt lat="43.0358720000" lon="0.2452700000"><ele>710</ele><time>2026-03-20T14:35:06Z</time></trkpt>
<trkpt lat="43.0358900000" lon="0.2452520000"><ele>710</ele><time>2026-03-20T14:35:08Z</time></trkpt>
<trkpt lat="43.0359100000" lon="0.2452350000"><ele>710</ele><time>2026-03-20T14:35:10Z</time></trkpt>
<trkpt lat="43.0359270000" lon="0.2452220000"><ele>709</ele><time>2026-03-20T14:35:12Z</time></trkpt>
<trkpt lat="43.0359450000" lon="0.2452100000"><ele>709</ele><time>2026-03-20T14:35:14Z</time></trkpt>
<trkpt lat="43.0359620000" lon="0.2451920000"><ele>709</ele><time>2026-03-20T14:35:16Z</time></trkpt>
<trkpt lat="43.0359820000" lon="0.2451750000"><ele>708</ele><time>2026-03-20T14:35:18Z</time></trkpt>
<trkpt lat="43.0360000000" lon="0.2451570000"><ele>708</ele><time>2026-03-20T14:35:20Z</time></trkpt>
<trkpt lat="43.0360170000" lon="0.2451420000"><ele>708</ele><time>2026-03-20T14:35:22Z</time></trkpt>
<trkpt lat="43.0360320000" lon="0.2451320000"><ele>707</ele><time>2026-03-20T14:35:24Z</time></trkpt>
<trkpt lat="43.0360520000" lon="0.2451200000"><ele>707</ele><time>2026-03-20T14:35:26Z</time></trkpt>
<trkpt lat="43.0360750000" lon="0.2451000000"><ele>707</ele><time>2026-03-20T14:35:28Z</time></trkpt>
<trkpt lat="43.0360920000" lon="0.2450870000"><ele>706</ele><time>2026-03-20T14:35:30Z</time></trkpt>
<trkpt lat="43.0361120000" lon="0.2450730000"><ele>706</ele><time>2026-03-20T14:35:32Z</time></trkpt>
<trkpt lat="43.0361320000" lon="0.2450520000"><ele>705</ele><time>2026-03-20T14:35:34Z</time></trkpt>
<trkpt lat="43.0361520000" lon="0.2450270000"><ele>705</ele><time>2026-03-20T14:35:36Z</time></trkpt>
<trkpt lat="43.0361700000" lon="0.2450050000"><ele>705</ele><time>2026-03-20T14:35:38Z</time></trkpt>
<trkpt lat="43.0361870000" lon="0.2449820000"><ele>704</ele><time>2026-03-20T14:35:40Z</time></trkpt>
<trkpt lat="43.0362020000" lon="0.2449600000"><ele>704</ele><time>2026-03-20T14:35:42Z</time></trkpt>
<trkpt lat="43.0362220000" lon="0.2449420000"><ele>704</ele><time>2026-03-20T14:35:44Z</time></trkpt>
<trkpt lat="43.0362370000" lon="0.2449300000"><ele>703</ele><time>2026-03-20T14:35:46Z</time></trkpt>
<trkpt lat="43.0362550000" lon="0.2449120000"><ele>703</ele><time>2026-03-20T14:35:48Z</time></trkpt>
<trkpt lat="43.0362720000" lon="0.2448920000"><ele>703</ele><time>2026-03-20T14:35:50Z</time></trkpt>
<trkpt lat="43.0362920000" lon="0.2448720000"><ele>702</ele><time>2026-03-20T14:35:52Z</time></trkpt>
<trkpt lat="43.0363100000" lon="0.2448520000"><ele>702</ele><time>2026-03-20T14:35:54Z</time></trkpt>
<trkpt lat="43.0363270000" lon="0.2448320000"><ele>702</ele><time>2026-03-20T14:35:56Z</time></trkpt>
<trkpt lat="43.0363470000" lon="0.2448170000"><ele>702</ele><time>2026-03-20T14:35:58Z</time></trkpt>
<trkpt lat="43.0363700000" lon="0.2447970000"><ele>701</ele><time>2026-03-20T14:36:00Z</time></trkpt>
<trkpt lat="43.0363870000" lon="0.2447800000"><ele>701</ele><time>2026-03-20T14:36:02Z</time></trkpt>
<trkpt lat="43.0364070000" lon="0.2447620000"><ele>701</ele><time>2026-03-20T14:36:04Z</time></trkpt>
<trkpt lat="43.0364270000" lon="0.2447430000"><ele>700</ele><time>2026-03-20T14:36:06Z</time></trkpt>
<trkpt lat="43.0364450000" lon="0.2447220000"><ele>700</ele><time>2026-03-20T14:36:08Z</time></trkpt>
<trkpt lat="43.0364620000" lon="0.2447120000"><ele>699</ele><time>2026-03-20T14:36:10Z</time></trkpt>
<trkpt lat="43.0364820000" lon="0.2447020000"><ele>699</ele><time>2026-03-20T14:36:12Z</time></trkpt>
<trkpt lat="43.0364980000" lon="0.2446870000"><ele>699</ele><time>2026-03-20T14:36:14Z</time></trkpt>
<trkpt lat="43.0365220000" lon="0.2446670000"><ele>698</ele><time>2026-03-20T14:36:16Z</time></trkpt>
<trkpt lat="43.0365420000" lon="0.2446470000"><ele>698</ele><time>2026-03-20T14:36:18Z</time></trkpt>
<trkpt lat="43.0365600000" lon="0.2446270000"><ele>698</ele><time>2026-03-20T14:36:20Z</time></trkpt>
<trkpt lat="43.0365800000" lon="0.2446070000"><ele>698</ele><time>2026-03-20T14:36:22Z</time></trkpt>
<trkpt lat="43.0365970000" lon="0.2445870000"><ele>697</ele><time>2026-03-20T14:36:24Z</time></trkpt>
<trkpt lat="43.0366170000" lon="0.2445720000"><ele>697</ele><time>2026-03-20T14:36:26Z</time></trkpt>
<trkpt lat="43.0366320000" lon="0.2445550000"><ele>697</ele><time>2026-03-20T14:36:28Z</time></trkpt>
<trkpt lat="43.0366520000" lon="0.2445370000"><ele>697</ele><time>2026-03-20T14:36:30Z</time></trkpt>
<trkpt lat="43.0366700000" lon="0.2445220000"><ele>696</ele><time>2026-03-20T14:36:32Z</time></trkpt>
<trkpt lat="43.0366900000" lon="0.2445100000"><ele>696</ele><time>2026-03-20T14:36:34Z</time></trkpt>
<trkpt lat="43.0367100000" lon="0.2445020000"><ele>696</ele><time>2026-03-20T14:36:36Z</time></trkpt>
<trkpt lat="43.0367300000" lon="0.2444970000"><ele>695</ele><time>2026-03-20T14:36:38Z</time></trkpt>
<trkpt lat="43.0367500000" lon="0.2444870000"><ele>695</ele><time>2026-03-20T14:36:40Z</time></trkpt>
<trkpt lat="43.0367720000" lon="0.2444730000"><ele>695</ele><time>2026-03-20T14:36:42Z</time></trkpt>
<trkpt lat="43.0367920000" lon="0.2444600000"><ele>694</ele><time>2026-03-20T14:36:44Z</time></trkpt>
<trkpt lat="43.0368120000" lon="0.2444350000"><ele>694</ele><time>2026-03-20T14:36:46Z</time></trkpt>
<trkpt lat="43.0368320000" lon="0.2444170000"><ele>694</ele><time>2026-03-20T14:36:48Z</time></trkpt>
<trkpt lat="43.0368500000" lon="0.2443870000"><ele>694</ele><time>2026-03-20T14:36:50Z</time></trkpt>
<trkpt lat="43.0368670000" lon="0.2443620000"><ele>693</ele><time>2026-03-20T14:36:52Z</time></trkpt>
<trkpt lat="43.0368870000" lon="0.2443500000"><ele>693</ele><time>2026-03-20T14:36:54Z</time></trkpt>
<trkpt lat="43.0369100000" lon="0.2443320000"><ele>693</ele><time>2026-03-20T14:36:56Z</time></trkpt>
<trkpt lat="43.0369320000" lon="0.2443100000"><ele>693</ele><time>2026-03-20T14:36:58Z</time></trkpt>
<trkpt lat="43.0369570000" lon="0.2442870000"><ele>692</ele><time>2026-03-20T14:37:00Z</time></trkpt>
<trkpt lat="43.0369750000" lon="0.2442700000"><ele>692</ele><time>2026-03-20T14:37:02Z</time></trkpt>
<trkpt lat="43.0369920000" lon="0.2442520000"><ele>692</ele><time>2026-03-20T14:37:04Z</time></trkpt>
<trkpt lat="43.0370150000" lon="0.2442350000"><ele>691</ele><time>2026-03-20T14:37:06Z</time></trkpt>
<trkpt lat="43.0370370000" lon="0.2442170000"><ele>691</ele><time>2026-03-20T14:37:08Z</time></trkpt>
<trkpt lat="43.0370600000" lon="0.2442050000"><ele>691</ele><time>2026-03-20T14:37:10Z</time></trkpt>
<trkpt lat="43.0370820000" lon="0.2441870000"><ele>691</ele><time>2026-03-20T14:37:12Z</time></trkpt>
<trkpt lat="43.0371020000" lon="0.2441750000"><ele>690</ele><time>2026-03-20T14:37:14Z</time></trkpt>
<trkpt lat="43.0371220000" lon="0.2441620000"><ele>690</ele><time>2026-03-20T14:37:16Z</time></trkpt>
<trkpt lat="43.0371420000" lon="0.2441520000"><ele>690</ele><time>2026-03-20T14:37:18Z</time></trkpt>
<trkpt lat="43.0371650000" lon="0.2441370000"><ele>690</ele><time>2026-03-20T14:37:20Z</time></trkpt>
<trkpt lat="43.0371900000" lon="0.2441270000"><ele>689</ele><time>2026-03-20T14:37:22Z</time></trkpt>
<trkpt lat="43.0372120000" lon="0.2441150000"><ele>689</ele><time>2026-03-20T14:37:24Z</time></trkpt>
<trkpt lat="43.0372320000" lon="0.2441030000"><ele>689</ele><time>2026-03-20T14:37:26Z</time></trkpt>
<trkpt lat="43.0372520000" lon="0.2440950000"><ele>689</ele><time>2026-03-20T14:37:28Z</time></trkpt>
<trkpt lat="43.0372720000" lon="0.2440820000"><ele>689</ele><time>2026-03-20T14:37:30Z</time></trkpt>
<trkpt lat="43.0372920000" lon="0.2440750000"><ele>689</ele><time>2026-03-20T14:37:32Z</time></trkpt>
<trkpt lat="43.0373120000" lon="0.2440670000"><ele>688</ele><time>2026-03-20T14:37:34Z</time></trkpt>
<trkpt lat="43.0373370000" lon="0.2440570000"><ele>688</ele><time>2026-03-20T14:37:36Z</time></trkpt>
<trkpt lat="43.0373570000" lon="0.2440470000"><ele>688</ele><time>2026-03-20T14:37:38Z</time></trkpt>
<trkpt lat="43.0373770000" lon="0.2440370000"><ele>688</ele><time>2026-03-20T14:37:40Z</time></trkpt>
<trkpt lat="43.0374020000" lon="0.2440300000"><ele>688</ele><time>2026-03-20T14:37:42Z</time></trkpt>
<trkpt lat="43.0374270000" lon="0.2440220000"><ele>687</ele><time>2026-03-20T14:37:44Z</time></trkpt>
<trkpt lat="43.0374470000" lon="0.2440150000"><ele>687</ele><time>2026-03-20T14:37:46Z</time></trkpt>
<trkpt lat="43.0374700000" lon="0.2440050000"><ele>687</ele><time>2026-03-20T14:37:48Z</time></trkpt>
<trkpt lat="43.0374920000" lon="0.2439970000"><ele>687</ele><time>2026-03-20T14:37:50Z</time></trkpt>
<trkpt lat="43.0375150000" lon="0.2439900000"><ele>687</ele><time>2026-03-20T14:37:52Z</time></trkpt>
<trkpt lat="43.0375370000" lon="0.2439850000"><ele>687</ele><time>2026-03-20T14:37:54Z</time></trkpt>
<trkpt lat="43.0375620000" lon="0.2439800000"><ele>687</ele><time>2026-03-20T14:37:56Z</time></trkpt>
<trkpt lat="43.0375870000" lon="0.2439800000"><ele>687</ele><time>2026-03-20T14:37:58Z</time></trkpt>
<trkpt lat="43.0376120000" lon="0.2439820000"><ele>687</ele><time>2026-03-20T14:38:00Z</time></trkpt>
<trkpt lat="43.0376350000" lon="0.2439820000"><ele>686</ele><time>2026-03-20T14:38:02Z</time></trkpt>
<trkpt lat="43.0376570000" lon="0.2439870000"><ele>686</ele><time>2026-03-20T14:38:04Z</time></trkpt>
<trkpt lat="43.0376820000" lon="0.2439870000"><ele>686</ele><time>2026-03-20T14:38:06Z</time></trkpt>
<trkpt lat="43.0377120000" lon="0.2439720000"><ele>686</ele><time>2026-03-20T14:38:08Z</time></trkpt>
<trkpt lat="43.0377420000" lon="0.2439520000"><ele>686</ele><time>2026-03-20T14:38:10Z</time></trkpt>
<trkpt lat="43.0377670000" lon="0.2439370000"><ele>686</ele><time>2026-03-20T14:38:12Z</time></trkpt>
<trkpt lat="43.0377920000" lon="0.2439220000"><ele>686</ele><time>2026-03-20T14:38:14Z</time></trkpt>
<trkpt lat="43.0378120000" lon="0.2439130000"><ele>686</ele><time>2026-03-20T14:38:16Z</time></trkpt>
<trkpt lat="43.0378400000" lon="0.2439070000"><ele>686</ele><time>2026-03-20T14:38:18Z</time></trkpt>
<trkpt lat="43.0378630000" lon="0.2439020000"><ele>685</ele><time>2026-03-20T14:38:20Z</time></trkpt>
<trkpt lat="43.0378870000" lon="0.2438950000"><ele>685</ele><time>2026-03-20T14:38:22Z</time></trkpt>
<trkpt lat="43.0379100000" lon="0.2438870000"><ele>685</ele><time>2026-03-20T14:38:24Z</time></trkpt>
<trkpt lat="43.0379170000" lon="0.2438620000"><ele>685</ele><time>2026-03-20T14:38:30Z</time></trkpt>
<trkpt lat="43.0379500000" lon="0.2438520000"><ele>685</ele><time>2026-03-20T14:38:49Z</time></trkpt>
<trkpt lat="43.0379720000" lon="0.2438500000"><ele>685</ele><time>2026-03-20T14:38:50Z</time></trkpt>
<trkpt lat="43.0379900000" lon="0.2438470000"><ele>685</ele><time>2026-03-20T14:38:51Z</time></trkpt>
<trkpt lat="43.0380100000" lon="0.2438420000"><ele>685</ele><time>2026-03-20T14:38:52Z</time></trkpt>
<trkpt lat="43.0380370000" lon="0.2438370000"><ele>685</ele><time>2026-03-20T14:38:54Z</time></trkpt>
<trkpt lat="43.0380620000" lon="0.2438280000"><ele>685</ele><time>2026-03-20T14:38:56Z</time></trkpt>
<trkpt lat="43.0380820000" lon="0.2438200000"><ele>685</ele><time>2026-03-20T14:38:58Z</time></trkpt>
<trkpt lat="43.0381050000" lon="0.2438120000"><ele>684</ele><time>2026-03-20T14:39:00Z</time></trkpt>
<trkpt lat="43.0381300000" lon="0.2438050000"><ele>684</ele><time>2026-03-20T14:39:02Z</time></trkpt>
<trkpt lat="43.0381550000" lon="0.2437970000"><ele>684</ele><time>2026-03-20T14:39:04Z</time></trkpt>
<trkpt lat="43.0381770000" lon="0.2437900000"><ele>684</ele><time>2026-03-20T14:39:06Z</time></trkpt>
<trkpt lat="43.0382020000" lon="0.2437780000"><ele>684</ele><time>2026-03-20T14:39:08Z</time></trkpt>
<trkpt lat="43.0382270000" lon="0.2437730000"><ele>684</ele><time>2026-03-20T14:39:10Z</time></trkpt>
<trkpt lat="43.0382450000" lon="0.2437720000"><ele>684</ele><time>2026-03-20T14:39:12Z</time></trkpt>
<trkpt lat="43.0382650000" lon="0.2437730000"><ele>684</ele><time>2026-03-20T14:39:14Z</time></trkpt>
<trkpt lat="43.0382870000" lon="0.2437720000"><ele>684</ele><time>2026-03-20T14:39:16Z</time></trkpt>
<trkpt lat="43.0383120000" lon="0.2437680000"><ele>684</ele><time>2026-03-20T14:39:18Z</time></trkpt>
<trkpt lat="43.0383400000" lon="0.2437500000"><ele>684</ele><time>2026-03-20T14:39:20Z</time></trkpt>
<trkpt lat="43.0383620000" lon="0.2437270000"><ele>684</ele><time>2026-03-20T14:39:22Z</time></trkpt>
<trkpt lat="43.0383870000" lon="0.2437120000"><ele>684</ele><time>2026-03-20T14:39:24Z</time></trkpt>
<trkpt lat="43.0384070000" lon="0.2437000000"><ele>684</ele><time>2026-03-20T14:39:26Z</time></trkpt>
<trkpt lat="43.0384300000" lon="0.2436870000"><ele>684</ele><time>2026-03-20T14:39:28Z</time></trkpt>
<trkpt lat="43.0384550000" lon="0.2436750000"><ele>684</ele><time>2026-03-20T14:39:30Z</time></trkpt>
<trkpt lat="43.0384800000" lon="0.2436670000"><ele>684</ele><time>2026-03-20T14:39:32Z</time></trkpt>
<trkpt lat="43.0385020000" lon="0.2436570000"><ele>684</ele><time>2026-03-20T14:39:34Z</time></trkpt>
<trkpt lat="43.0385250000" lon="0.2436470000"><ele>684</ele><time>2026-03-20T14:39:36Z</time></trkpt>
<trkpt lat="43.0385470000" lon="0.2436370000"><ele>684</ele><time>2026-03-20T14:39:38Z</time></trkpt>
<trkpt lat="43.0385700000" lon="0.2436250000"><ele>684</ele><time>2026-03-20T14:39:40Z</time></trkpt>
<trkpt lat="43.0385970000" lon="0.2436120000"><ele>684</ele><time>2026-03-20T14:39:42Z</time></trkpt>
<trkpt lat="43.0386200000" lon="0.2436000000"><ele>684</ele><time>2026-03-20T14:39:44Z</time></trkpt>
<trkpt lat="43.0386450000" lon="0.2435920000"><ele>684</ele><time>2026-03-20T14:39:46Z</time></trkpt>
<trkpt lat="43.0386670000" lon="0.2435820000"><ele>684</ele><time>2026-03-20T14:39:48Z</time></trkpt>
<trkpt lat="43.0386920000" lon="0.2435720000"><ele>684</ele><time>2026-03-20T14:39:50Z</time></trkpt>
<trkpt lat="43.0387170000" lon="0.2435570000"><ele>683</ele><time>2026-03-20T14:39:53Z</time></trkpt>
<trkpt lat="43.0387420000" lon="0.2435450000"><ele>684</ele><time>2026-03-20T14:39:55Z</time></trkpt>
<trkpt lat="43.0387670000" lon="0.2435320000"><ele>683</ele><time>2026-03-20T14:39:57Z</time></trkpt>
<trkpt lat="43.0387870000" lon="0.2435220000"><ele>683</ele><time>2026-03-20T14:39:59Z</time></trkpt>
<trkpt lat="43.0388100000" lon="0.2435120000"><ele>683</ele><time>2026-03-20T14:40:01Z</time></trkpt>
<trkpt lat="43.0388300000" lon="0.2435070000"><ele>683</ele><time>2026-03-20T14:40:03Z</time></trkpt>
<trkpt lat="43.0388520000" lon="0.2434970000"><ele>683</ele><time>2026-03-20T14:40:05Z</time></trkpt>
<trkpt lat="43.0388700000" lon="0.2434850000"><ele>683</ele><time>2026-03-20T14:40:07Z</time></trkpt>
<trkpt lat="43.0388870000" lon="0.2434770000"><ele>683</ele><time>2026-03-20T14:40:09Z</time></trkpt>
<trkpt lat="43.0389070000" lon="0.2434700000"><ele>683</ele><time>2026-03-20T14:40:11Z</time></trkpt>
<trkpt lat="43.0389320000" lon="0.2434620000"><ele>683</ele><time>2026-03-20T14:40:13Z</time></trkpt>
<trkpt lat="43.0389550000" lon="0.2434520000"><ele>683</ele><time>2026-03-20T14:40:15Z</time></trkpt>
<trkpt lat="43.0389750000" lon="0.2434420000"><ele>683</ele><time>2026-03-20T14:40:17Z</time></trkpt>
<trkpt lat="43.0389970000" lon="0.2434270000"><ele>683</ele><time>2026-03-20T14:40:19Z</time></trkpt>
<trkpt lat="43.0390200000" lon="0.2434130000"><ele>683</ele><time>2026-03-20T14:40:21Z</time></trkpt>
<trkpt lat="43.0390420000" lon="0.2434050000"><ele>683</ele><time>2026-03-20T14:40:23Z</time></trkpt>
<trkpt lat="43.0390670000" lon="0.2434020000"><ele>683</ele><time>2026-03-20T14:40:25Z</time></trkpt>
<trkpt lat="43.0390920000" lon="0.2433920000"><ele>683</ele><time>2026-03-20T14:40:27Z</time></trkpt>
<trkpt lat="43.0391170000" lon="0.2433820000"><ele>683</ele><time>2026-03-20T14:40:29Z</time></trkpt>
<trkpt lat="43.0391350000" lon="0.2433750000"><ele>683</ele><time>2026-03-20T14:40:31Z</time></trkpt>
<trkpt lat="43.0391570000" lon="0.2433580000"><ele>683</ele><time>2026-03-20T14:40:33Z</time></trkpt>
<trkpt lat="43.0391800000" lon="0.2433370000"><ele>683</ele><time>2026-03-20T14:40:35Z</time></trkpt>
<trkpt lat="43.0392020000" lon="0.2433150000"><ele>683</ele><time>2026-03-20T14:40:37Z</time></trkpt>
<trkpt lat="43.0392250000" lon="0.2432970000"><ele>683</ele><time>2026-03-20T14:40:39Z</time></trkpt>
<trkpt lat="43.0392470000" lon="0.2432770000"><ele>683</ele><time>2026-03-20T14:40:41Z</time></trkpt>
<trkpt lat="43.0392670000" lon="0.2432550000"><ele>683</ele><time>2026-03-20T14:40:43Z</time></trkpt>
<trkpt lat="43.0392900000" lon="0.2432280000"><ele>683</ele><time>2026-03-20T14:40:45Z</time></trkpt>
<trkpt lat="43.0393070000" lon="0.2432070000"><ele>683</ele><time>2026-03-20T14:40:47Z</time></trkpt>
<trkpt lat="43.0393270000" lon="0.2431920000"><ele>683</ele><time>2026-03-20T14:40:49Z</time></trkpt>
<trkpt lat="43.0393470000" lon="0.2431720000"><ele>683</ele><time>2026-03-20T14:40:51Z</time></trkpt>
<trkpt lat="43.0393670000" lon="0.2431520000"><ele>683</ele><time>2026-03-20T14:40:53Z</time></trkpt>
<trkpt lat="43.0393870000" lon="0.2431300000"><ele>683</ele><time>2026-03-20T14:40:55Z</time></trkpt>
<trkpt lat="43.0394070000" lon="0.2431070000"><ele>683</ele><time>2026-03-20T14:40:57Z</time></trkpt>
<trkpt lat="43.0394270000" lon="0.2430830000"><ele>683</ele><time>2026-03-20T14:40:59Z</time></trkpt>
<trkpt lat="43.0394470000" lon="0.2430620000"><ele>683</ele><time>2026-03-20T14:41:01Z</time></trkpt>
<trkpt lat="43.0394670000" lon="0.2430470000"><ele>683</ele><time>2026-03-20T14:41:03Z</time></trkpt>
<trkpt lat="43.0394820000" lon="0.2430270000"><ele>683</ele><time>2026-03-20T14:41:05Z</time></trkpt>
<trkpt lat="43.0395000000" lon="0.2430050000"><ele>683</ele><time>2026-03-20T14:41:07Z</time></trkpt>
<trkpt lat="43.0395150000" lon="0.2429870000"><ele>683</ele><time>2026-03-20T14:41:09Z</time></trkpt>
<trkpt lat="43.0395300000" lon="0.2429720000"><ele>683</ele><time>2026-03-20T14:41:11Z</time></trkpt>
<trkpt lat="43.0395520000" lon="0.2429550000"><ele>683</ele><time>2026-03-20T14:41:14Z</time></trkpt>
<trkpt lat="43.0395750000" lon="0.2429470000"><ele>683</ele><time>2026-03-20T14:41:17Z</time></trkpt>
<trkpt lat="43.0395900000" lon="0.2429270000"><ele>683</ele><time>2026-03-20T14:41:20Z</time></trkpt>
<trkpt lat="43.0396050000" lon="0.2429070000"><ele>683</ele><time>2026-03-20T14:41:48Z</time></trkpt>
<trkpt lat="43.0396250000" lon="0.2428970000"><ele>683</ele><time>2026-03-20T14:41:50Z</time></trkpt>
<trkpt lat="43.0396120000" lon="0.2429170000"><ele>682</ele><time>2026-03-20T14:43:14Z</time></trkpt>
<trkpt lat="43.0396220000" lon="0.2429420000"><ele>682</ele><time>2026-03-20T14:43:33Z</time></trkpt>
<trkpt lat="43.0396450000" lon="0.2429570000"><ele>682</ele><time>2026-03-20T14:43:35Z</time></trkpt>
<trkpt lat="43.0396620000" lon="0.2429670000"><ele>682</ele><time>2026-03-20T14:43:37Z</time></trkpt>
<trkpt lat="43.0396780000" lon="0.2429820000"><ele>682</ele><time>2026-03-20T14:43:39Z</time></trkpt>
<trkpt lat="43.0396920000" lon="0.2429980000"><ele>681</ele><time>2026-03-20T14:43:41Z</time></trkpt>
<trkpt lat="43.0397050000" lon="0.2430220000"><ele>681</ele><time>2026-03-20T14:43:43Z</time></trkpt>
<trkpt lat="43.0397150000" lon="0.2430450000"><ele>681</ele><time>2026-03-20T14:43:45Z</time></trkpt>
<trkpt lat="43.0397300000" lon="0.2430720000"><ele>680</ele><time>2026-03-20T14:43:48Z</time></trkpt>
<trkpt lat="43.0397470000" lon="0.2430950000"><ele>680</ele><time>2026-03-20T14:43:50Z</time></trkpt>
<trkpt lat="43.0397620000" lon="0.2431120000"><ele>680</ele><time>2026-03-20T14:43:52Z</time></trkpt>
<trkpt lat="43.0397750000" lon="0.2431330000"><ele>680</ele><time>2026-03-20T14:43:54Z</time></trkpt>
<trkpt lat="43.0397870000" lon="0.2431600000"><ele>679</ele><time>2026-03-20T14:43:56Z</time></trkpt>
<trkpt lat="43.0397970000" lon="0.2431800000"><ele>679</ele><time>2026-03-20T14:43:58Z</time></trkpt>
<trkpt lat="43.0398120000" lon="0.2432000000"><ele>679</ele><time>2026-03-20T14:44:00Z</time></trkpt>
<trkpt lat="43.0398270000" lon="0.2432170000"><ele>678</ele><time>2026-03-20T14:44:02Z</time></trkpt>
<trkpt lat="43.0398370000" lon="0.2432400000"><ele>678</ele><time>2026-03-20T14:44:04Z</time></trkpt>
<trkpt lat="43.0398570000" lon="0.2432620000"><ele>678</ele><time>2026-03-20T14:44:06Z</time></trkpt>
<trkpt lat="43.0398770000" lon="0.2432820000"><ele>678</ele><time>2026-03-20T14:44:08Z</time></trkpt>
<trkpt lat="43.0398970000" lon="0.2432920000"><ele>677</ele><time>2026-03-20T14:44:09Z</time></trkpt>
<trkpt lat="43.0399200000" lon="0.2433120000"><ele>677</ele><time>2026-03-20T14:44:11Z</time></trkpt>
<trkpt lat="43.0399370000" lon="0.2433350000"><ele>677</ele><time>2026-03-20T14:44:13Z</time></trkpt>
<trkpt lat="43.0399520000" lon="0.2433530000"><ele>677</ele><time>2026-03-20T14:44:15Z</time></trkpt>
<trkpt lat="43.0399720000" lon="0.2433720000"><ele>676</ele><time>2026-03-20T14:44:17Z</time></trkpt>
<trkpt lat="43.0399950000" lon="0.2433870000"><ele>676</ele><time>2026-03-20T14:44:19Z</time></trkpt>
<trkpt lat="43.0400120000" lon="0.2434000000"><ele>676</ele><time>2026-03-20T14:44:24Z</time></trkpt>
<trkpt lat="43.0400150000" lon="0.2433720000"><ele>675</ele><time>2026-03-20T14:44:31Z</time></trkpt>
<trkpt lat="43.0400320000" lon="0.2433970000"><ele>675</ele><time>2026-03-20T14:44:41Z</time></trkpt>
<trkpt lat="43.0400570000" lon="0.2434270000"><ele>675</ele><time>2026-03-20T14:44:43Z</time></trkpt>
<trkpt lat="43.0400720000" lon="0.2434570000"><ele>675</ele><time>2026-03-20T14:44:45Z</time></trkpt>
<trkpt lat="43.0400820000" lon="0.2434820000"><ele>675</ele><time>2026-03-20T14:44:49Z</time></trkpt>
<trkpt lat="43.0401020000" lon="0.2434970000"><ele>675</ele><time>2026-03-20T14:44:51Z</time></trkpt>
<trkpt lat="43.0401200000" lon="0.2435070000"><ele>675</ele><time>2026-03-20T14:44:53Z</time></trkpt>
<trkpt lat="43.0401420000" lon="0.2435200000"><ele>674</ele><time>2026-03-20T14:44:55Z</time></trkpt>
<trkpt lat="43.0401650000" lon="0.2435320000"><ele>674</ele><time>2026-03-20T14:44:57Z</time></trkpt>
<trkpt lat="43.0401850000" lon="0.2435470000"><ele>674</ele><time>2026-03-20T14:44:59Z</time></trkpt>
<trkpt lat="43.0402070000" lon="0.2435600000"><ele>674</ele><time>2026-03-20T14:45:01Z</time></trkpt>
<trkpt lat="43.0402270000" lon="0.2435720000"><ele>674</ele><time>2026-03-20T14:45:03Z</time></trkpt>
<trkpt lat="43.0402470000" lon="0.2435820000"><ele>674</ele><time>2026-03-20T14:45:05Z</time></trkpt>
<trkpt lat="43.0402670000" lon="0.2435950000"><ele>673</ele><time>2026-03-20T14:45:07Z</time></trkpt>
<trkpt lat="43.0402920000" lon="0.2436020000"><ele>673</ele><time>2026-03-20T14:45:09Z</time></trkpt>
<trkpt lat="43.0403250000" lon="0.2436020000"><ele>673</ele><time>2026-03-20T14:45:26Z</time></trkpt>
<trkpt lat="43.0403420000" lon="0.2436070000"><ele>673</ele><time>2026-03-20T14:45:27Z</time></trkpt>
<trkpt lat="43.0403750000" lon="0.2436170000"><ele>673</ele><time>2026-03-20T14:45:29Z</time></trkpt>
<trkpt lat="43.0404050000" lon="0.2436270000"><ele>673</ele><time>2026-03-20T14:45:31Z</time></trkpt>
<trkpt lat="43.0404270000" lon="0.2436320000"><ele>673</ele><time>2026-03-20T14:45:33Z</time></trkpt>
<trkpt lat="43.0404470000" lon="0.2436370000"><ele>672</ele><time>2026-03-20T14:45:35Z</time></trkpt>
<trkpt lat="43.0404750000" lon="0.2436330000"><ele>672</ele><time>2026-03-20T14:45:37Z</time></trkpt>
<trkpt lat="43.0405050000" lon="0.2436370000"><ele>672</ele><time>2026-03-20T14:45:39Z</time></trkpt>
<trkpt lat="43.0405320000" lon="0.2436420000"><ele>672</ele><time>2026-03-20T14:45:41Z</time></trkpt>
<trkpt lat="43.0405520000" lon="0.2436430000"><ele>672</ele><time>2026-03-20T14:45:43Z</time></trkpt>
<trkpt lat="43.0405770000" lon="0.2436500000"><ele>672</ele><time>2026-03-20T14:45:45Z</time></trkpt>
<trkpt lat="43.0405970000" lon="0.2436500000"><ele>672</ele><time>2026-03-20T14:45:47Z</time></trkpt>
<trkpt lat="43.0406220000" lon="0.2436500000"><ele>672</ele><time>2026-03-20T14:45:49Z</time></trkpt>
<trkpt lat="43.0406450000" lon="0.2436550000"><ele>672</ele><time>2026-03-20T14:45:51Z</time></trkpt>
<trkpt lat="43.0406700000" lon="0.2436550000"><ele>672</ele><time>2026-03-20T14:45:53Z</time></trkpt>
<trkpt lat="43.0406970000" lon="0.2436520000"><ele>672</ele><time>2026-03-20T14:45:55Z</time></trkpt>
<trkpt lat="43.0407220000" lon="0.2436470000"><ele>672</ele><time>2026-03-20T14:45:57Z</time></trkpt>
<trkpt lat="43.0407450000" lon="0.2436320000"><ele>672</ele><time>2026-03-20T14:45:59Z</time></trkpt>
<trkpt lat="43.0407650000" lon="0.2436270000"><ele>672</ele><time>2026-03-20T14:46:01Z</time></trkpt>
<trkpt lat="43.0407870000" lon="0.2436270000"><ele>672</ele><time>2026-03-20T14:46:03Z</time></trkpt>
<trkpt lat="43.0408070000" lon="0.2436250000"><ele>672</ele><time>2026-03-20T14:46:05Z</time></trkpt>
<trkpt lat="43.0408320000" lon="0.2436220000"><ele>672</ele><time>2026-03-20T14:46:07Z</time></trkpt>
<trkpt lat="43.0408620000" lon="0.2436150000"><ele>672</ele><time>2026-03-20T14:46:09Z</time></trkpt>
<trkpt lat="43.0408920000" lon="0.2436120000"><ele>672</ele><time>2026-03-20T14:46:11Z</time></trkpt>
<trkpt lat="43.0409170000" lon="0.2436020000"><ele>672</ele><time>2026-03-20T14:46:13Z</time></trkpt>
<trkpt lat="43.0409450000" lon="0.2435970000"><ele>672</ele><time>2026-03-20T14:46:15Z</time></trkpt>
<trkpt lat="43.0409700000" lon="0.2435900000"><ele>672</ele><time>2026-03-20T14:46:17Z</time></trkpt>
<trkpt lat="43.0409950000" lon="0.2435820000"><ele>672</ele><time>2026-03-20T14:46:19Z</time></trkpt>
<trkpt lat="43.0410170000" lon="0.2435750000"><ele>672</ele><time>2026-03-20T14:46:21Z</time></trkpt>
<trkpt lat="43.0410370000" lon="0.2435700000"><ele>672</ele><time>2026-03-20T14:46:23Z</time></trkpt>
<trkpt lat="43.0410620000" lon="0.2435650000"><ele>672</ele><time>2026-03-20T14:46:25Z</time></trkpt>
<trkpt lat="43.0410820000" lon="0.2435570000"><ele>672</ele><time>2026-03-20T14:46:27Z</time></trkpt>
<trkpt lat="43.0411050000" lon="0.2435520000"><ele>672</ele><time>2026-03-20T14:46:29Z</time></trkpt>
<trkpt lat="43.0411250000" lon="0.2435450000"><ele>672</ele><time>2026-03-20T14:46:31Z</time></trkpt>
<trkpt lat="43.0411470000" lon="0.2435350000"><ele>672</ele><time>2026-03-20T14:46:33Z</time></trkpt>
<trkpt lat="43.0411720000" lon="0.2435250000"><ele>672</ele><time>2026-03-20T14:46:35Z</time></trkpt>
<trkpt lat="43.0411950000" lon="0.2435200000"><ele>672</ele><time>2026-03-20T14:46:37Z</time></trkpt>
<trkpt lat="43.0412170000" lon="0.2435120000"><ele>672</ele><time>2026-03-20T14:46:39Z</time></trkpt>
<trkpt lat="43.0412420000" lon="0.2435020000"><ele>672</ele><time>2026-03-20T14:46:41Z</time></trkpt>
<trkpt lat="43.0412670000" lon="0.2434920000"><ele>672</ele><time>2026-03-20T14:46:43Z</time></trkpt>
<trkpt lat="43.0412870000" lon="0.2434770000"><ele>672</ele><time>2026-03-20T14:46:45Z</time></trkpt>
<trkpt lat="43.0413120000" lon="0.2434670000"><ele>672</ele><time>2026-03-20T14:46:47Z</time></trkpt>
<trkpt lat="43.0413320000" lon="0.2434470000"><ele>672</ele><time>2026-03-20T14:46:49Z</time></trkpt>
<trkpt lat="43.0413550000" lon="0.2434320000"><ele>671</ele><time>2026-03-20T14:46:51Z</time></trkpt>
<trkpt lat="43.0413770000" lon="0.2434200000"><ele>671</ele><time>2026-03-20T14:46:53Z</time></trkpt>
<trkpt lat="43.0414000000" lon="0.2434050000"><ele>671</ele><time>2026-03-20T14:46:55Z</time></trkpt>
<trkpt lat="43.0414230000" lon="0.2433920000"><ele>671</ele><time>2026-03-20T14:46:57Z</time></trkpt>
<trkpt lat="43.0414470000" lon="0.2433770000"><ele>671</ele><time>2026-03-20T14:46:59Z</time></trkpt>
<trkpt lat="43.0414720000" lon="0.2433470000"><ele>670</ele><time>2026-03-20T14:47:01Z</time></trkpt>
<trkpt lat="43.0415020000" lon="0.2433220000"><ele>670</ele><time>2026-03-20T14:47:03Z</time></trkpt>
<trkpt lat="43.0415270000" lon="0.2432970000"><ele>670</ele><time>2026-03-20T14:47:05Z</time></trkpt>
<trkpt lat="43.0415520000" lon="0.2432870000"><ele>670</ele><time>2026-03-20T14:47:07Z</time></trkpt>
<trkpt lat="43.0415720000" lon="0.2432730000"><ele>670</ele><time>2026-03-20T14:47:09Z</time></trkpt>
<trkpt lat="43.0415920000" lon="0.2432650000"><ele>670</ele><time>2026-03-20T14:47:11Z</time></trkpt>
<trkpt lat="43.0416120000" lon="0.2432600000"><ele>670</ele><time>2026-03-20T14:47:13Z</time></trkpt>
<trkpt lat="43.0416350000" lon="0.2432570000"><ele>669</ele><time>2026-03-20T14:47:15Z</time></trkpt>
<trkpt lat="43.0416570000" lon="0.2432570000"><ele>669</ele><time>2026-03-20T14:47:17Z</time></trkpt>
<trkpt lat="43.0416770000" lon="0.2432500000"><ele>669</ele><time>2026-03-20T14:47:19Z</time></trkpt>
<trkpt lat="43.0417020000" lon="0.2432420000"><ele>669</ele><time>2026-03-20T14:47:21Z</time></trkpt>
<trkpt lat="43.0417220000" lon="0.2432370000"><ele>669</ele><time>2026-03-20T14:47:23Z</time></trkpt>
<trkpt lat="43.0417450000" lon="0.2432270000"><ele>669</ele><time>2026-03-20T14:47:25Z</time></trkpt>
<trkpt lat="43.0417670000" lon="0.2432170000"><ele>669</ele><time>2026-03-20T14:47:27Z</time></trkpt>
<trkpt lat="43.0417900000" lon="0.2432120000"><ele>669</ele><time>2026-03-20T14:47:29Z</time></trkpt>
<trkpt lat="43.0418100000" lon="0.2432020000"><ele>668</ele><time>2026-03-20T14:47:31Z</time></trkpt>
<trkpt lat="43.0418320000" lon="0.2431920000"><ele>668</ele><time>2026-03-20T14:47:33Z</time></trkpt>
<trkpt lat="43.0418550000" lon="0.2431820000"><ele>668</ele><time>2026-03-20T14:47:35Z</time></trkpt>
<trkpt lat="43.0418770000" lon="0.2431720000"><ele>668</ele><time>2026-03-20T14:47:37Z</time></trkpt>
<trkpt lat="43.0419000000" lon="0.2431670000"><ele>668</ele><time>2026-03-20T14:47:39Z</time></trkpt>
<trkpt lat="43.0419250000" lon="0.2431570000"><ele>668</ele><time>2026-03-20T14:47:41Z</time></trkpt>
<trkpt lat="43.0419500000" lon="0.2431450000"><ele>667</ele><time>2026-03-20T14:47:43Z</time></trkpt>
<trkpt lat="43.0419720000" lon="0.2431330000"><ele>667</ele><time>2026-03-20T14:47:45Z</time></trkpt>
<trkpt lat="43.0419950000" lon="0.2431220000"><ele>667</ele><time>2026-03-20T14:47:47Z</time></trkpt>
<trkpt lat="43.0420170000" lon="0.2431150000"><ele>667</ele><time>2026-03-20T14:47:49Z</time></trkpt>
<trkpt lat="43.0420420000" lon="0.2431070000"><ele>667</ele><time>2026-03-20T14:47:51Z</time></trkpt>
<trkpt lat="43.0420620000" lon="0.2430970000"><ele>666</ele><time>2026-03-20T14:47:53Z</time></trkpt>
<trkpt lat="43.0420850000" lon="0.2430830000"><ele>666</ele><time>2026-03-20T14:47:55Z</time></trkpt>
<trkpt lat="43.0421050000" lon="0.2430770000"><ele>666</ele><time>2026-03-20T14:47:57Z</time></trkpt>
<trkpt lat="43.0421270000" lon="0.2430650000"><ele>666</ele><time>2026-03-20T14:47:59Z</time></trkpt>
<trkpt lat="43.0421520000" lon="0.2430570000"><ele>666</ele><time>2026-03-20T14:48:01Z</time></trkpt>
<trkpt lat="43.0421720000" lon="0.2430500000"><ele>666</ele><time>2026-03-20T14:48:03Z</time></trkpt>
<trkpt lat="43.0421920000" lon="0.2430470000"><ele>665</ele><time>2026-03-20T14:48:05Z</time></trkpt>
<trkpt lat="43.0422150000" lon="0.2430470000"><ele>665</ele><time>2026-03-20T14:48:07Z</time></trkpt>
<trkpt lat="43.0422370000" lon="0.2430470000"><ele>665</ele><time>2026-03-20T14:48:09Z</time></trkpt>
<trkpt lat="43.0422570000" lon="0.2430450000"><ele>665</ele><time>2026-03-20T14:48:11Z</time></trkpt>
<trkpt lat="43.0422870000" lon="0.2430350000"><ele>665</ele><time>2026-03-20T14:48:13Z</time></trkpt>
<trkpt lat="43.0423170000" lon="0.2430120000"><ele>665</ele><time>2026-03-20T14:48:15Z</time></trkpt>
<trkpt lat="43.0423500000" lon="0.2429870000"><ele>665</ele><time>2026-03-20T14:48:17Z</time></trkpt>
<trkpt lat="43.0423820000" lon="0.2429720000"><ele>665</ele><time>2026-03-20T14:48:19Z</time></trkpt>
<trkpt lat="43.0424120000" lon="0.2429600000"><ele>665</ele><time>2026-03-20T14:48:21Z</time></trkpt>
<trkpt lat="43.0424400000" lon="0.2429520000"><ele>665</ele><time>2026-03-20T14:48:23Z</time></trkpt>
<trkpt lat="43.0424650000" lon="0.2429470000"><ele>665</ele><time>2026-03-20T14:48:25Z</time></trkpt>
<trkpt lat="43.0424870000" lon="0.2429370000"><ele>665</ele><time>2026-03-20T14:48:27Z</time></trkpt>
<trkpt lat="43.0425070000" lon="0.2429320000"><ele>665</ele><time>2026-03-20T14:48:29Z</time></trkpt>
<trkpt lat="43.0425270000" lon="0.2429220000"><ele>665</ele><time>2026-03-20T14:48:31Z</time></trkpt>
<trkpt lat="43.0425500000" lon="0.2429120000"><ele>665</ele><time>2026-03-20T14:48:33Z</time></trkpt>
<trkpt lat="43.0425670000" lon="0.2429100000"><ele>665</ele><time>2026-03-20T14:48:35Z</time></trkpt>
<trkpt lat="43.0425870000" lon="0.2429020000"><ele>665</ele><time>2026-03-20T14:48:37Z</time></trkpt>
<trkpt lat="43.0426100000" lon="0.2428900000"><ele>664</ele><time>2026-03-20T14:48:39Z</time></trkpt>
<trkpt lat="43.0426320000" lon="0.2428820000"><ele>664</ele><time>2026-03-20T14:48:41Z</time></trkpt>
<trkpt lat="43.0426550000" lon="0.2428800000"><ele>664</ele><time>2026-03-20T14:48:43Z</time></trkpt>
<trkpt lat="43.0426770000" lon="0.2428720000"><ele>664</ele><time>2026-03-20T14:48:45Z</time></trkpt>
<trkpt lat="43.0427020000" lon="0.2428570000"><ele>664</ele><time>2026-03-20T14:48:47Z</time></trkpt>
<trkpt lat="43.0427300000" lon="0.2428450000"><ele>664</ele><time>2026-03-20T14:48:49Z</time></trkpt>
<trkpt lat="43.0427550000" lon="0.2428300000"><ele>664</ele><time>2026-03-20T14:48:51Z</time></trkpt>
<trkpt lat="43.0427770000" lon="0.2428200000"><ele>664</ele><time>2026-03-20T14:48:53Z</time></trkpt>
<trkpt lat="43.0428020000" lon="0.2428070000"><ele>664</ele><time>2026-03-20T14:48:55Z</time></trkpt>
<trkpt lat="43.0428200000" lon="0.2427980000"><ele>664</ele><time>2026-03-20T14:48:56Z</time></trkpt>
<trkpt lat="43.0428420000" lon="0.2427820000"><ele>664</ele><time>2026-03-20T14:48:58Z</time></trkpt>
<trkpt lat="43.0428620000" lon="0.2427670000"><ele>664</ele><time>2026-03-20T14:49:00Z</time></trkpt>
<trkpt lat="43.0428870000" lon="0.2427520000"><ele>664</ele><time>2026-03-20T14:49:02Z</time></trkpt>
<trkpt lat="43.0429050000" lon="0.2427400000"><ele>664</ele><time>2026-03-20T14:49:04Z</time></trkpt>
<trkpt lat="43.0429220000" lon="0.2427250000"><ele>664</ele><time>2026-03-20T14:49:06Z</time></trkpt>
<trkpt lat="43.0429420000" lon="0.2427050000"><ele>664</ele><time>2026-03-20T14:49:08Z</time></trkpt>
<trkpt lat="43.0429620000" lon="0.2426870000"><ele>664</ele><time>2026-03-20T14:49:10Z</time></trkpt>
<trkpt lat="43.0429870000" lon="0.2426720000"><ele>664</ele><time>2026-03-20T14:49:12Z</time></trkpt>
<trkpt lat="43.0430120000" lon="0.2426550000"><ele>664</ele><time>2026-03-20T14:49:14Z</time></trkpt>
<trkpt lat="43.0430320000" lon="0.2426420000"><ele>664</ele><time>2026-03-20T14:49:16Z</time></trkpt>
<trkpt lat="43.0430500000" lon="0.2426320000"><ele>664</ele><time>2026-03-20T14:49:18Z</time></trkpt>
<trkpt lat="43.0430700000" lon="0.2426200000"><ele>663</ele><time>2026-03-20T14:49:20Z</time></trkpt>
<trkpt lat="43.0430870000" lon="0.2426070000"><ele>663</ele><time>2026-03-20T14:49:22Z</time></trkpt>
<trkpt lat="43.0431070000" lon="0.2425850000"><ele>663</ele><time>2026-03-20T14:49:24Z</time></trkpt>
<trkpt lat="43.0431320000" lon="0.2425600000"><ele>663</ele><time>2026-03-20T14:49:26Z</time></trkpt>
<trkpt lat="43.0431450000" lon="0.2425370000"><ele>663</ele><time>2026-03-20T14:49:27Z</time></trkpt>
<trkpt lat="43.0431570000" lon="0.2425170000"><ele>663</ele><time>2026-03-20T14:49:28Z</time></trkpt>
<trkpt lat="43.0431720000" lon="0.2424820000"><ele>663</ele><time>2026-03-20T14:49:30Z</time></trkpt>
<trkpt lat="43.0431870000" lon="0.2424520000"><ele>663</ele><time>2026-03-20T14:49:32Z</time></trkpt>
<trkpt lat="43.0432020000" lon="0.2424300000"><ele>662</ele><time>2026-03-20T14:49:34Z</time></trkpt>
<trkpt lat="43.0432220000" lon="0.2424070000"><ele>662</ele><time>2026-03-20T14:49:37Z</time></trkpt>
<trkpt lat="43.0432370000" lon="0.2423870000"><ele>662</ele><time>2026-03-20T14:49:39Z</time></trkpt>
<trkpt lat="43.0432520000" lon="0.2423670000"><ele>662</ele><time>2026-03-20T14:49:41Z</time></trkpt>
<trkpt lat="43.0432670000" lon="0.2423500000"><ele>662</ele><time>2026-03-20T14:49:43Z</time></trkpt>
<trkpt lat="43.0432800000" lon="0.2423170000"><ele>661</ele><time>2026-03-20T14:49:45Z</time></trkpt>
<trkpt lat="43.0433000000" lon="0.2422920000"><ele>661</ele><time>2026-03-20T14:49:48Z</time></trkpt>
<trkpt lat="43.0433220000" lon="0.2422720000"><ele>661</ele><time>2026-03-20T14:49:50Z</time></trkpt>
<trkpt lat="43.0433420000" lon="0.2422470000"><ele>661</ele><time>2026-03-20T14:49:52Z</time></trkpt>
<trkpt lat="43.0433620000" lon="0.2422270000"><ele>660</ele><time>2026-03-20T14:49:54Z</time></trkpt>
<trkpt lat="43.0433800000" lon="0.2422070000"><ele>660</ele><time>2026-03-20T14:49:56Z</time></trkpt>
<trkpt lat="43.0434000000" lon="0.2421870000"><ele>660</ele><time>2026-03-20T14:49:58Z</time></trkpt>
<trkpt lat="43.0434200000" lon="0.2421670000"><ele>660</ele><time>2026-03-20T14:50:00Z</time></trkpt>
<trkpt lat="43.0434400000" lon="0.2421550000"><ele>659</ele><time>2026-03-20T14:50:02Z</time></trkpt>
<trkpt lat="43.0434550000" lon="0.2421300000"><ele>659</ele><time>2026-03-20T14:50:05Z</time></trkpt>
<trkpt lat="43.0434670000" lon="0.2421080000"><ele>659</ele><time>2026-03-20T14:50:07Z</time></trkpt>
<trkpt lat="43.0434870000" lon="0.2421020000"><ele>658</ele><time>2026-03-20T14:50:11Z</time></trkpt>
<trkpt lat="43.0434970000" lon="0.2421320000"><ele>657</ele><time>2026-03-20T14:50:43Z</time></trkpt>
</trkseg>
</trk>
</gpx>